<?xml version="1.0" encoding="UTF-8" standalone="no" ?>
<gpx xmlns="http://www.topografix.com/GPX/1/1" xmlns:xsi="http://www.w3.org/2001/XMLSchema-instance" xsi:schemaLocation="http://www.topografix.com/GPX/1/1 http://www.topografix.com/GPX/1/1/gpx.xsd" version="1.1" creator="VisuGPX - https://www.visugpx.com">
  <metadata>
    <name>A C Rospez 18-01-15</name>
    <desc><![CDATA[A C Rospez 18-01-15]]></desc>
  </metadata>
  <trk>
    <name><![CDATA[A C Rospez 18-01-15_1]]></name>
    <trkseg>
      <trkpt lat="48.73025" lon="-3.38365">
        <ele>82</ele>
        <time>2015-01-18T08:02:23Z</time>
      </trkpt>
      <trkpt lat="48.73005" lon="-3.384">
        <ele>81</ele>
        <time>2015-01-18T08:02:29Z</time>
      </trkpt>
      <trkpt lat="48.73002" lon="-3.38406">
        <ele>81</ele>
        <time>2015-01-18T08:02:30Z</time>
      </trkpt>
      <trkpt lat="48.72999" lon="-3.38411">
        <ele>81</ele>
        <time>2015-01-18T08:02:31Z</time>
      </trkpt>
      <trkpt lat="48.72996" lon="-3.38416">
        <ele>81</ele>
        <time>2015-01-18T08:02:32Z</time>
      </trkpt>
      <trkpt lat="48.72993" lon="-3.38422">
        <ele>81</ele>
        <time>2015-01-18T08:02:33Z</time>
      </trkpt>
      <trkpt lat="48.7299" lon="-3.38426">
        <ele>81</ele>
        <time>2015-01-18T08:02:34Z</time>
      </trkpt>
      <trkpt lat="48.72987" lon="-3.38431">
        <ele>81</ele>
        <time>2015-01-18T08:02:35Z</time>
      </trkpt>
      <trkpt lat="48.72984" lon="-3.38435">
        <ele>81</ele>
        <time>2015-01-18T08:02:36Z</time>
      </trkpt>
      <trkpt lat="48.7298" lon="-3.38438">
        <ele>81</ele>
        <time>2015-01-18T08:02:37Z</time>
      </trkpt>
      <trkpt lat="48.72976" lon="-3.38442">
        <ele>81</ele>
        <time>2015-01-18T08:02:38Z</time>
      </trkpt>
      <trkpt lat="48.72971" lon="-3.38445">
        <ele>81</ele>
        <time>2015-01-18T08:02:39Z</time>
      </trkpt>
      <trkpt lat="48.72966" lon="-3.38448">
        <ele>81</ele>
        <time>2015-01-18T08:02:40Z</time>
      </trkpt>
      <trkpt lat="48.72962" lon="-3.3845">
        <ele>81</ele>
        <time>2015-01-18T08:02:41Z</time>
      </trkpt>
      <trkpt lat="48.72957" lon="-3.38452">
        <ele>81</ele>
        <time>2015-01-18T08:02:42Z</time>
      </trkpt>
      <trkpt lat="48.72953" lon="-3.38454">
        <ele>81</ele>
        <time>2015-01-18T08:02:43Z</time>
      </trkpt>
      <trkpt lat="48.72949" lon="-3.38456">
        <ele>81</ele>
        <time>2015-01-18T08:02:44Z</time>
      </trkpt>
      <trkpt lat="48.72946" lon="-3.38459">
        <ele>81</ele>
        <time>2015-01-18T08:02:45Z</time>
      </trkpt>
      <trkpt lat="48.72943" lon="-3.38462">
        <ele>81</ele>
        <time>2015-01-18T08:02:46Z</time>
      </trkpt>
      <trkpt lat="48.7294" lon="-3.38466">
        <ele>81</ele>
        <time>2015-01-18T08:02:47Z</time>
      </trkpt>
      <trkpt lat="48.72939" lon="-3.3847">
        <ele>81</ele>
        <time>2015-01-18T08:02:48Z</time>
      </trkpt>
      <trkpt lat="48.72937" lon="-3.38474">
        <ele>81</ele>
        <time>2015-01-18T08:02:49Z</time>
      </trkpt>
      <trkpt lat="48.72935" lon="-3.38479">
        <ele>81</ele>
        <time>2015-01-18T08:02:50Z</time>
      </trkpt>
      <trkpt lat="48.72933" lon="-3.38484">
        <ele>81</ele>
        <time>2015-01-18T08:02:51Z</time>
      </trkpt>
      <trkpt lat="48.72932" lon="-3.38488">
        <ele>81</ele>
        <time>2015-01-18T08:02:52Z</time>
      </trkpt>
      <trkpt lat="48.7293" lon="-3.38493">
        <ele>81</ele>
        <time>2015-01-18T08:02:53Z</time>
      </trkpt>
      <trkpt lat="48.72928" lon="-3.38498">
        <ele>81</ele>
        <time>2015-01-18T08:02:54Z</time>
      </trkpt>
      <trkpt lat="48.72927" lon="-3.38502">
        <ele>81</ele>
        <time>2015-01-18T08:02:55Z</time>
      </trkpt>
      <trkpt lat="48.72925" lon="-3.38507">
        <ele>81</ele>
        <time>2015-01-18T08:02:56Z</time>
      </trkpt>
      <trkpt lat="48.72923" lon="-3.38512">
        <ele>81</ele>
        <time>2015-01-18T08:02:57Z</time>
      </trkpt>
      <trkpt lat="48.7292" lon="-3.38518">
        <ele>81</ele>
        <time>2015-01-18T08:02:58Z</time>
      </trkpt>
      <trkpt lat="48.72918" lon="-3.38524">
        <ele>81</ele>
        <time>2015-01-18T08:02:59Z</time>
      </trkpt>
      <trkpt lat="48.72916" lon="-3.38529">
        <ele>81</ele>
        <time>2015-01-18T08:03:00Z</time>
      </trkpt>
      <trkpt lat="48.72914" lon="-3.38535">
        <ele>81</ele>
        <time>2015-01-18T08:03:01Z</time>
      </trkpt>
      <trkpt lat="48.72912" lon="-3.3854">
        <ele>81</ele>
        <time>2015-01-18T08:03:02Z</time>
      </trkpt>
      <trkpt lat="48.7291" lon="-3.38545">
        <ele>81</ele>
        <time>2015-01-18T08:03:03Z</time>
      </trkpt>
      <trkpt lat="48.72907" lon="-3.3855">
        <ele>81</ele>
        <time>2015-01-18T08:03:04Z</time>
      </trkpt>
      <trkpt lat="48.72904" lon="-3.38554">
        <ele>81</ele>
        <time>2015-01-18T08:03:05Z</time>
      </trkpt>
      <trkpt lat="48.72901" lon="-3.38558">
        <ele>81</ele>
        <time>2015-01-18T08:03:06Z</time>
      </trkpt>
      <trkpt lat="48.72897" lon="-3.38562">
        <ele>81</ele>
        <time>2015-01-18T08:03:07Z</time>
      </trkpt>
      <trkpt lat="48.72893" lon="-3.38565">
        <ele>81</ele>
        <time>2015-01-18T08:03:08Z</time>
      </trkpt>
      <trkpt lat="48.72889" lon="-3.38568">
        <ele>81</ele>
        <time>2015-01-18T08:03:09Z</time>
      </trkpt>
      <trkpt lat="48.72884" lon="-3.3857">
        <ele>81</ele>
        <time>2015-01-18T08:03:10Z</time>
      </trkpt>
      <trkpt lat="48.7288" lon="-3.38572">
        <ele>81</ele>
        <time>2015-01-18T08:03:11Z</time>
      </trkpt>
      <trkpt lat="48.72875" lon="-3.38574">
        <ele>81</ele>
        <time>2015-01-18T08:03:12Z</time>
      </trkpt>
      <trkpt lat="48.7287" lon="-3.38575">
        <ele>81</ele>
        <time>2015-01-18T08:03:13Z</time>
      </trkpt>
      <trkpt lat="48.72866" lon="-3.38576">
        <ele>81</ele>
        <time>2015-01-18T08:03:14Z</time>
      </trkpt>
      <trkpt lat="48.72861" lon="-3.38577">
        <ele>81</ele>
        <time>2015-01-18T08:03:15Z</time>
      </trkpt>
      <trkpt lat="48.72857" lon="-3.38578">
        <ele>81</ele>
        <time>2015-01-18T08:03:16Z</time>
      </trkpt>
      <trkpt lat="48.72852" lon="-3.38579">
        <ele>81</ele>
        <time>2015-01-18T08:03:17Z</time>
      </trkpt>
      <trkpt lat="48.72847" lon="-3.3858">
        <ele>81</ele>
        <time>2015-01-18T08:03:18Z</time>
      </trkpt>
      <trkpt lat="48.72843" lon="-3.38581">
        <ele>81</ele>
        <time>2015-01-18T08:03:19Z</time>
      </trkpt>
      <trkpt lat="48.72838" lon="-3.38582">
        <ele>81</ele>
        <time>2015-01-18T08:03:20Z</time>
      </trkpt>
      <trkpt lat="48.72833" lon="-3.38584">
        <ele>81</ele>
        <time>2015-01-18T08:03:21Z</time>
      </trkpt>
      <trkpt lat="48.72828" lon="-3.38585">
        <ele>81</ele>
        <time>2015-01-18T08:03:22Z</time>
      </trkpt>
      <trkpt lat="48.72824" lon="-3.38586">
        <ele>81</ele>
        <time>2015-01-18T08:03:23Z</time>
      </trkpt>
      <trkpt lat="48.72819" lon="-3.38588">
        <ele>81</ele>
        <time>2015-01-18T08:03:24Z</time>
      </trkpt>
      <trkpt lat="48.72814" lon="-3.3859">
        <ele>81</ele>
        <time>2015-01-18T08:03:25Z</time>
      </trkpt>
      <trkpt lat="48.72809" lon="-3.38593">
        <ele>81</ele>
        <time>2015-01-18T08:03:26Z</time>
      </trkpt>
      <trkpt lat="48.72804" lon="-3.38597">
        <ele>81</ele>
        <time>2015-01-18T08:03:27Z</time>
      </trkpt>
      <trkpt lat="48.728" lon="-3.38601">
        <ele>81</ele>
        <time>2015-01-18T08:03:28Z</time>
      </trkpt>
      <trkpt lat="48.72795" lon="-3.38606">
        <ele>81</ele>
        <time>2015-01-18T08:03:29Z</time>
      </trkpt>
      <trkpt lat="48.72791" lon="-3.38612">
        <ele>81</ele>
        <time>2015-01-18T08:03:30Z</time>
      </trkpt>
      <trkpt lat="48.72786" lon="-3.38617">
        <ele>81</ele>
        <time>2015-01-18T08:03:31Z</time>
      </trkpt>
      <trkpt lat="48.72782" lon="-3.38622">
        <ele>81</ele>
        <time>2015-01-18T08:03:32Z</time>
      </trkpt>
      <trkpt lat="48.72778" lon="-3.38627">
        <ele>81</ele>
        <time>2015-01-18T08:03:33Z</time>
      </trkpt>
      <trkpt lat="48.72774" lon="-3.38633">
        <ele>81</ele>
        <time>2015-01-18T08:03:34Z</time>
      </trkpt>
      <trkpt lat="48.7277" lon="-3.38638">
        <ele>81</ele>
        <time>2015-01-18T08:03:35Z</time>
      </trkpt>
      <trkpt lat="48.72766" lon="-3.38644">
        <ele>81</ele>
        <time>2015-01-18T08:03:36Z</time>
      </trkpt>
      <trkpt lat="48.72762" lon="-3.38649">
        <ele>81</ele>
        <time>2015-01-18T08:03:37Z</time>
      </trkpt>
      <trkpt lat="48.72759" lon="-3.38654">
        <ele>81</ele>
        <time>2015-01-18T08:03:38Z</time>
      </trkpt>
      <trkpt lat="48.72755" lon="-3.3866">
        <ele>81</ele>
        <time>2015-01-18T08:03:39Z</time>
      </trkpt>
      <trkpt lat="48.72752" lon="-3.38665">
        <ele>81</ele>
        <time>2015-01-18T08:03:40Z</time>
      </trkpt>
      <trkpt lat="48.72748" lon="-3.3867">
        <ele>81</ele>
        <time>2015-01-18T08:03:41Z</time>
      </trkpt>
      <trkpt lat="48.72744" lon="-3.38676">
        <ele>81</ele>
        <time>2015-01-18T08:03:42Z</time>
      </trkpt>
      <trkpt lat="48.72741" lon="-3.38681">
        <ele>81</ele>
        <time>2015-01-18T08:03:43Z</time>
      </trkpt>
      <trkpt lat="48.72737" lon="-3.38687">
        <ele>81</ele>
        <time>2015-01-18T08:03:44Z</time>
      </trkpt>
      <trkpt lat="48.72734" lon="-3.38693">
        <ele>81</ele>
        <time>2015-01-18T08:03:45Z</time>
      </trkpt>
      <trkpt lat="48.7273" lon="-3.38699">
        <ele>81</ele>
        <time>2015-01-18T08:03:46Z</time>
      </trkpt>
      <trkpt lat="48.72726" lon="-3.38705">
        <ele>81</ele>
        <time>2015-01-18T08:03:47Z</time>
      </trkpt>
      <trkpt lat="48.72723" lon="-3.38711">
        <ele>81</ele>
        <time>2015-01-18T08:03:48Z</time>
      </trkpt>
      <trkpt lat="48.7272" lon="-3.38718">
        <ele>81</ele>
        <time>2015-01-18T08:03:49Z</time>
      </trkpt>
      <trkpt lat="48.72716" lon="-3.38724">
        <ele>81</ele>
        <time>2015-01-18T08:03:50Z</time>
      </trkpt>
      <trkpt lat="48.72712" lon="-3.38731">
        <ele>81</ele>
        <time>2015-01-18T08:03:51Z</time>
      </trkpt>
      <trkpt lat="48.72709" lon="-3.38737">
        <ele>81</ele>
        <time>2015-01-18T08:03:52Z</time>
      </trkpt>
      <trkpt lat="48.72705" lon="-3.38745">
        <ele>81</ele>
        <time>2015-01-18T08:03:53Z</time>
      </trkpt>
      <trkpt lat="48.72702" lon="-3.38752">
        <ele>81</ele>
        <time>2015-01-18T08:03:54Z</time>
      </trkpt>
      <trkpt lat="48.72699" lon="-3.38759">
        <ele>81</ele>
        <time>2015-01-18T08:03:55Z</time>
      </trkpt>
      <trkpt lat="48.72697" lon="-3.38767">
        <ele>81</ele>
        <time>2015-01-18T08:03:56Z</time>
      </trkpt>
      <trkpt lat="48.72694" lon="-3.38774">
        <ele>81</ele>
        <time>2015-01-18T08:03:57Z</time>
      </trkpt>
      <trkpt lat="48.72691" lon="-3.38782">
        <ele>81</ele>
        <time>2015-01-18T08:03:58Z</time>
      </trkpt>
      <trkpt lat="48.72689" lon="-3.3879">
        <ele>81</ele>
        <time>2015-01-18T08:03:59Z</time>
      </trkpt>
      <trkpt lat="48.72686" lon="-3.38798">
        <ele>81</ele>
        <time>2015-01-18T08:04:00Z</time>
      </trkpt>
      <trkpt lat="48.72684" lon="-3.38806">
        <ele>81</ele>
        <time>2015-01-18T08:04:01Z</time>
      </trkpt>
      <trkpt lat="48.72682" lon="-3.38814">
        <ele>81</ele>
        <time>2015-01-18T08:04:02Z</time>
      </trkpt>
      <trkpt lat="48.7268" lon="-3.38823">
        <ele>81</ele>
        <time>2015-01-18T08:04:03Z</time>
      </trkpt>
      <trkpt lat="48.72677" lon="-3.38831">
        <ele>81</ele>
        <time>2015-01-18T08:04:04Z</time>
      </trkpt>
      <trkpt lat="48.72675" lon="-3.38839">
        <ele>81</ele>
        <time>2015-01-18T08:04:05Z</time>
      </trkpt>
      <trkpt lat="48.72673" lon="-3.38847">
        <ele>81</ele>
        <time>2015-01-18T08:04:06Z</time>
      </trkpt>
      <trkpt lat="48.7267" lon="-3.38855">
        <ele>81</ele>
        <time>2015-01-18T08:04:07Z</time>
      </trkpt>
      <trkpt lat="48.72667" lon="-3.38863">
        <ele>81</ele>
        <time>2015-01-18T08:04:08Z</time>
      </trkpt>
      <trkpt lat="48.72665" lon="-3.3887">
        <ele>81</ele>
        <time>2015-01-18T08:04:09Z</time>
      </trkpt>
      <trkpt lat="48.72662" lon="-3.38878">
        <ele>81</ele>
        <time>2015-01-18T08:04:10Z</time>
      </trkpt>
      <trkpt lat="48.72659" lon="-3.38886">
        <ele>81</ele>
        <time>2015-01-18T08:04:11Z</time>
      </trkpt>
      <trkpt lat="48.72655" lon="-3.38893">
        <ele>81</ele>
        <time>2015-01-18T08:04:12Z</time>
      </trkpt>
      <trkpt lat="48.72652" lon="-3.389">
        <ele>81</ele>
        <time>2015-01-18T08:04:13Z</time>
      </trkpt>
      <trkpt lat="48.72649" lon="-3.38908">
        <ele>81</ele>
        <time>2015-01-18T08:04:14Z</time>
      </trkpt>
      <trkpt lat="48.72646" lon="-3.38915">
        <ele>81</ele>
        <time>2015-01-18T08:04:15Z</time>
      </trkpt>
      <trkpt lat="48.72644" lon="-3.38923">
        <ele>81</ele>
        <time>2015-01-18T08:04:16Z</time>
      </trkpt>
      <trkpt lat="48.72641" lon="-3.3893">
        <ele>81</ele>
        <time>2015-01-18T08:04:17Z</time>
      </trkpt>
      <trkpt lat="48.72638" lon="-3.38938">
        <ele>81</ele>
        <time>2015-01-18T08:04:18Z</time>
      </trkpt>
      <trkpt lat="48.72634" lon="-3.38945">
        <ele>81</ele>
        <time>2015-01-18T08:04:19Z</time>
      </trkpt>
      <trkpt lat="48.72631" lon="-3.38952">
        <ele>81</ele>
        <time>2015-01-18T08:04:20Z</time>
      </trkpt>
      <trkpt lat="48.72628" lon="-3.3896">
        <ele>81</ele>
        <time>2015-01-18T08:04:21Z</time>
      </trkpt>
      <trkpt lat="48.72625" lon="-3.38966">
        <ele>81</ele>
        <time>2015-01-18T08:04:22Z</time>
      </trkpt>
      <trkpt lat="48.72623" lon="-3.38973">
        <ele>81</ele>
        <time>2015-01-18T08:04:23Z</time>
      </trkpt>
      <trkpt lat="48.7262" lon="-3.3898">
        <ele>81</ele>
        <time>2015-01-18T08:04:24Z</time>
      </trkpt>
      <trkpt lat="48.72617" lon="-3.38986">
        <ele>81</ele>
        <time>2015-01-18T08:04:25Z</time>
      </trkpt>
      <trkpt lat="48.72614" lon="-3.38992">
        <ele>81</ele>
        <time>2015-01-18T08:04:26Z</time>
      </trkpt>
      <trkpt lat="48.72611" lon="-3.38998">
        <ele>81</ele>
        <time>2015-01-18T08:04:27Z</time>
      </trkpt>
      <trkpt lat="48.72608" lon="-3.39004">
        <ele>81</ele>
        <time>2015-01-18T08:04:28Z</time>
      </trkpt>
      <trkpt lat="48.72605" lon="-3.3901">
        <ele>81</ele>
        <time>2015-01-18T08:04:29Z</time>
      </trkpt>
      <trkpt lat="48.72602" lon="-3.39016">
        <ele>81</ele>
        <time>2015-01-18T08:04:30Z</time>
      </trkpt>
      <trkpt lat="48.72599" lon="-3.39022">
        <ele>81</ele>
        <time>2015-01-18T08:04:31Z</time>
      </trkpt>
      <trkpt lat="48.72596" lon="-3.39028">
        <ele>81</ele>
        <time>2015-01-18T08:04:32Z</time>
      </trkpt>
      <trkpt lat="48.72593" lon="-3.39033">
        <ele>81</ele>
        <time>2015-01-18T08:04:33Z</time>
      </trkpt>
      <trkpt lat="48.7259" lon="-3.39039">
        <ele>81</ele>
        <time>2015-01-18T08:04:34Z</time>
      </trkpt>
      <trkpt lat="48.72587" lon="-3.39044">
        <ele>81</ele>
        <time>2015-01-18T08:04:35Z</time>
      </trkpt>
      <trkpt lat="48.72585" lon="-3.39049">
        <ele>81</ele>
        <time>2015-01-18T08:04:36Z</time>
      </trkpt>
      <trkpt lat="48.72582" lon="-3.39054">
        <ele>81</ele>
        <time>2015-01-18T08:04:37Z</time>
      </trkpt>
      <trkpt lat="48.72579" lon="-3.39058">
        <ele>81</ele>
        <time>2015-01-18T08:04:38Z</time>
      </trkpt>
      <trkpt lat="48.72577" lon="-3.39063">
        <ele>81</ele>
        <time>2015-01-18T08:04:39Z</time>
      </trkpt>
      <trkpt lat="48.72574" lon="-3.39068">
        <ele>81</ele>
        <time>2015-01-18T08:04:40Z</time>
      </trkpt>
      <trkpt lat="48.72571" lon="-3.39073">
        <ele>81</ele>
        <time>2015-01-18T08:04:41Z</time>
      </trkpt>
      <trkpt lat="48.72569" lon="-3.39077">
        <ele>81</ele>
        <time>2015-01-18T08:04:42Z</time>
      </trkpt>
      <trkpt lat="48.72566" lon="-3.39082">
        <ele>81</ele>
        <time>2015-01-18T08:04:43Z</time>
      </trkpt>
      <trkpt lat="48.72563" lon="-3.39087">
        <ele>81</ele>
        <time>2015-01-18T08:04:44Z</time>
      </trkpt>
      <trkpt lat="48.72561" lon="-3.39092">
        <ele>81</ele>
        <time>2015-01-18T08:04:45Z</time>
      </trkpt>
      <trkpt lat="48.72558" lon="-3.39097">
        <ele>81</ele>
        <time>2015-01-18T08:04:46Z</time>
      </trkpt>
      <trkpt lat="48.72555" lon="-3.39102">
        <ele>81</ele>
        <time>2015-01-18T08:04:47Z</time>
      </trkpt>
      <trkpt lat="48.72552" lon="-3.39106">
        <ele>81</ele>
        <time>2015-01-18T08:04:48Z</time>
      </trkpt>
      <trkpt lat="48.7255" lon="-3.39112">
        <ele>81</ele>
        <time>2015-01-18T08:04:49Z</time>
      </trkpt>
      <trkpt lat="48.72547" lon="-3.39117">
        <ele>81</ele>
        <time>2015-01-18T08:04:50Z</time>
      </trkpt>
      <trkpt lat="48.72544" lon="-3.39122">
        <ele>81</ele>
        <time>2015-01-18T08:04:51Z</time>
      </trkpt>
      <trkpt lat="48.72541" lon="-3.39128">
        <ele>81</ele>
        <time>2015-01-18T08:04:52Z</time>
      </trkpt>
      <trkpt lat="48.72538" lon="-3.39133">
        <ele>81</ele>
        <time>2015-01-18T08:04:53Z</time>
      </trkpt>
      <trkpt lat="48.72535" lon="-3.39139">
        <ele>81</ele>
        <time>2015-01-18T08:04:54Z</time>
      </trkpt>
      <trkpt lat="48.72532" lon="-3.39144">
        <ele>81</ele>
        <time>2015-01-18T08:04:55Z</time>
      </trkpt>
      <trkpt lat="48.7253" lon="-3.39149">
        <ele>81</ele>
        <time>2015-01-18T08:04:56Z</time>
      </trkpt>
      <trkpt lat="48.72527" lon="-3.39155">
        <ele>82</ele>
        <time>2015-01-18T08:04:57Z</time>
      </trkpt>
      <trkpt lat="48.72524" lon="-3.39159">
        <ele>82</ele>
        <time>2015-01-18T08:04:58Z</time>
      </trkpt>
      <trkpt lat="48.72522" lon="-3.39165">
        <ele>82</ele>
        <time>2015-01-18T08:04:59Z</time>
      </trkpt>
      <trkpt lat="48.72519" lon="-3.3917">
        <ele>82</ele>
        <time>2015-01-18T08:05:00Z</time>
      </trkpt>
      <trkpt lat="48.72517" lon="-3.39175">
        <ele>82</ele>
        <time>2015-01-18T08:05:01Z</time>
      </trkpt>
      <trkpt lat="48.72514" lon="-3.3918">
        <ele>82</ele>
        <time>2015-01-18T08:05:02Z</time>
      </trkpt>
      <trkpt lat="48.72511" lon="-3.39186">
        <ele>82</ele>
        <time>2015-01-18T08:05:03Z</time>
      </trkpt>
      <trkpt lat="48.72509" lon="-3.39191">
        <ele>82</ele>
        <time>2015-01-18T08:05:04Z</time>
      </trkpt>
      <trkpt lat="48.72506" lon="-3.39196">
        <ele>82</ele>
        <time>2015-01-18T08:05:05Z</time>
      </trkpt>
      <trkpt lat="48.72504" lon="-3.39202">
        <ele>82</ele>
        <time>2015-01-18T08:05:06Z</time>
      </trkpt>
      <trkpt lat="48.72502" lon="-3.39207">
        <ele>82</ele>
        <time>2015-01-18T08:05:07Z</time>
      </trkpt>
      <trkpt lat="48.72499" lon="-3.39213">
        <ele>82</ele>
        <time>2015-01-18T08:05:08Z</time>
      </trkpt>
      <trkpt lat="48.72497" lon="-3.39219">
        <ele>82</ele>
        <time>2015-01-18T08:05:09Z</time>
      </trkpt>
      <trkpt lat="48.72494" lon="-3.39225">
        <ele>82</ele>
        <time>2015-01-18T08:05:10Z</time>
      </trkpt>
      <trkpt lat="48.72492" lon="-3.3923">
        <ele>82</ele>
        <time>2015-01-18T08:05:11Z</time>
      </trkpt>
      <trkpt lat="48.7249" lon="-3.39237">
        <ele>82</ele>
        <time>2015-01-18T08:05:12Z</time>
      </trkpt>
      <trkpt lat="48.72487" lon="-3.39242">
        <ele>82</ele>
        <time>2015-01-18T08:05:13Z</time>
      </trkpt>
      <trkpt lat="48.72485" lon="-3.39248">
        <ele>82</ele>
        <time>2015-01-18T08:05:14Z</time>
      </trkpt>
      <trkpt lat="48.72482" lon="-3.39253">
        <ele>82</ele>
        <time>2015-01-18T08:05:15Z</time>
      </trkpt>
      <trkpt lat="48.7248" lon="-3.39259">
        <ele>82</ele>
        <time>2015-01-18T08:05:16Z</time>
      </trkpt>
      <trkpt lat="48.72478" lon="-3.39264">
        <ele>82</ele>
        <time>2015-01-18T08:05:17Z</time>
      </trkpt>
      <trkpt lat="48.72476" lon="-3.3927">
        <ele>82</ele>
        <time>2015-01-18T08:05:18Z</time>
      </trkpt>
      <trkpt lat="48.72474" lon="-3.39275">
        <ele>82</ele>
        <time>2015-01-18T08:05:19Z</time>
      </trkpt>
      <trkpt lat="48.72471" lon="-3.39281">
        <ele>82</ele>
        <time>2015-01-18T08:05:20Z</time>
      </trkpt>
      <trkpt lat="48.72469" lon="-3.39286">
        <ele>82</ele>
        <time>2015-01-18T08:05:21Z</time>
      </trkpt>
      <trkpt lat="48.72466" lon="-3.39291">
        <ele>82</ele>
        <time>2015-01-18T08:05:22Z</time>
      </trkpt>
      <trkpt lat="48.72464" lon="-3.39297">
        <ele>82</ele>
        <time>2015-01-18T08:05:23Z</time>
      </trkpt>
      <trkpt lat="48.72461" lon="-3.39302">
        <ele>82</ele>
        <time>2015-01-18T08:05:24Z</time>
      </trkpt>
      <trkpt lat="48.72459" lon="-3.39308">
        <ele>82</ele>
        <time>2015-01-18T08:05:25Z</time>
      </trkpt>
      <trkpt lat="48.72456" lon="-3.39313">
        <ele>82</ele>
        <time>2015-01-18T08:05:26Z</time>
      </trkpt>
      <trkpt lat="48.72453" lon="-3.39319">
        <ele>82</ele>
        <time>2015-01-18T08:05:27Z</time>
      </trkpt>
      <trkpt lat="48.72451" lon="-3.39325">
        <ele>82</ele>
        <time>2015-01-18T08:05:28Z</time>
      </trkpt>
      <trkpt lat="48.72448" lon="-3.39331">
        <ele>82</ele>
        <time>2015-01-18T08:05:29Z</time>
      </trkpt>
      <trkpt lat="48.72445" lon="-3.39336">
        <ele>82</ele>
        <time>2015-01-18T08:05:30Z</time>
      </trkpt>
      <trkpt lat="48.72442" lon="-3.39342">
        <ele>82</ele>
        <time>2015-01-18T08:05:31Z</time>
      </trkpt>
      <trkpt lat="48.72439" lon="-3.39347">
        <ele>82</ele>
        <time>2015-01-18T08:05:32Z</time>
      </trkpt>
      <trkpt lat="48.72436" lon="-3.39353">
        <ele>82</ele>
        <time>2015-01-18T08:05:33Z</time>
      </trkpt>
      <trkpt lat="48.72433" lon="-3.39358">
        <ele>82</ele>
        <time>2015-01-18T08:05:34Z</time>
      </trkpt>
      <trkpt lat="48.7243" lon="-3.39364">
        <ele>82</ele>
        <time>2015-01-18T08:05:35Z</time>
      </trkpt>
      <trkpt lat="48.72427" lon="-3.39369">
        <ele>82</ele>
        <time>2015-01-18T08:05:36Z</time>
      </trkpt>
      <trkpt lat="48.72423" lon="-3.39374">
        <ele>82</ele>
        <time>2015-01-18T08:05:37Z</time>
      </trkpt>
      <trkpt lat="48.7242" lon="-3.3938">
        <ele>82</ele>
        <time>2015-01-18T08:05:38Z</time>
      </trkpt>
      <trkpt lat="48.72417" lon="-3.39385">
        <ele>82</ele>
        <time>2015-01-18T08:05:39Z</time>
      </trkpt>
      <trkpt lat="48.72413" lon="-3.3939">
        <ele>82</ele>
        <time>2015-01-18T08:05:40Z</time>
      </trkpt>
      <trkpt lat="48.7241" lon="-3.39395">
        <ele>82</ele>
        <time>2015-01-18T08:05:41Z</time>
      </trkpt>
      <trkpt lat="48.72406" lon="-3.39401">
        <ele>82</ele>
        <time>2015-01-18T08:05:42Z</time>
      </trkpt>
      <trkpt lat="48.72403" lon="-3.39406">
        <ele>82</ele>
        <time>2015-01-18T08:05:43Z</time>
      </trkpt>
      <trkpt lat="48.72399" lon="-3.39411">
        <ele>82</ele>
        <time>2015-01-18T08:05:44Z</time>
      </trkpt>
      <trkpt lat="48.72395" lon="-3.39417">
        <ele>82</ele>
        <time>2015-01-18T08:05:45Z</time>
      </trkpt>
      <trkpt lat="48.72392" lon="-3.39422">
        <ele>82</ele>
        <time>2015-01-18T08:05:46Z</time>
      </trkpt>
      <trkpt lat="48.72387" lon="-3.39428">
        <ele>82</ele>
        <time>2015-01-18T08:05:47Z</time>
      </trkpt>
      <trkpt lat="48.72384" lon="-3.39433">
        <ele>82</ele>
        <time>2015-01-18T08:05:48Z</time>
      </trkpt>
      <trkpt lat="48.7238" lon="-3.39439">
        <ele>82</ele>
        <time>2015-01-18T08:05:49Z</time>
      </trkpt>
      <trkpt lat="48.72375" lon="-3.39444">
        <ele>82</ele>
        <time>2015-01-18T08:05:50Z</time>
      </trkpt>
      <trkpt lat="48.72372" lon="-3.3945">
        <ele>82</ele>
        <time>2015-01-18T08:05:51Z</time>
      </trkpt>
      <trkpt lat="48.72367" lon="-3.39455">
        <ele>82</ele>
        <time>2015-01-18T08:05:52Z</time>
      </trkpt>
      <trkpt lat="48.72364" lon="-3.3946">
        <ele>82</ele>
        <time>2015-01-18T08:05:53Z</time>
      </trkpt>
      <trkpt lat="48.72359" lon="-3.39466">
        <ele>82</ele>
        <time>2015-01-18T08:05:54Z</time>
      </trkpt>
      <trkpt lat="48.72355" lon="-3.39472">
        <ele>82</ele>
        <time>2015-01-18T08:05:55Z</time>
      </trkpt>
      <trkpt lat="48.72351" lon="-3.39477">
        <ele>82</ele>
        <time>2015-01-18T08:05:56Z</time>
      </trkpt>
      <trkpt lat="48.72347" lon="-3.39483">
        <ele>82</ele>
        <time>2015-01-18T08:05:57Z</time>
      </trkpt>
      <trkpt lat="48.72343" lon="-3.39489">
        <ele>82</ele>
        <time>2015-01-18T08:05:58Z</time>
      </trkpt>
      <trkpt lat="48.72339" lon="-3.39495">
        <ele>82</ele>
        <time>2015-01-18T08:05:59Z</time>
      </trkpt>
      <trkpt lat="48.72335" lon="-3.39501">
        <ele>82</ele>
        <time>2015-01-18T08:06:00Z</time>
      </trkpt>
      <trkpt lat="48.72331" lon="-3.39508">
        <ele>82</ele>
        <time>2015-01-18T08:06:01Z</time>
      </trkpt>
      <trkpt lat="48.72327" lon="-3.39514">
        <ele>82</ele>
        <time>2015-01-18T08:06:02Z</time>
      </trkpt>
      <trkpt lat="48.72323" lon="-3.39521">
        <ele>82</ele>
        <time>2015-01-18T08:06:03Z</time>
      </trkpt>
      <trkpt lat="48.72319" lon="-3.39528">
        <ele>82</ele>
        <time>2015-01-18T08:06:04Z</time>
      </trkpt>
      <trkpt lat="48.72315" lon="-3.39536">
        <ele>82</ele>
        <time>2015-01-18T08:06:05Z</time>
      </trkpt>
      <trkpt lat="48.72311" lon="-3.39544">
        <ele>82</ele>
        <time>2015-01-18T08:06:06Z</time>
      </trkpt>
      <trkpt lat="48.72308" lon="-3.39551">
        <ele>82</ele>
        <time>2015-01-18T08:06:07Z</time>
      </trkpt>
      <trkpt lat="48.72305" lon="-3.39559">
        <ele>82</ele>
        <time>2015-01-18T08:06:08Z</time>
      </trkpt>
      <trkpt lat="48.72301" lon="-3.39567">
        <ele>82</ele>
        <time>2015-01-18T08:06:09Z</time>
      </trkpt>
      <trkpt lat="48.72297" lon="-3.39575">
        <ele>82</ele>
        <time>2015-01-18T08:06:10Z</time>
      </trkpt>
      <trkpt lat="48.72293" lon="-3.39583">
        <ele>82</ele>
        <time>2015-01-18T08:06:11Z</time>
      </trkpt>
      <trkpt lat="48.72289" lon="-3.3959">
        <ele>82</ele>
        <time>2015-01-18T08:06:12Z</time>
      </trkpt>
      <trkpt lat="48.72285" lon="-3.39596">
        <ele>82</ele>
        <time>2015-01-18T08:06:13Z</time>
      </trkpt>
      <trkpt lat="48.72281" lon="-3.39602">
        <ele>82</ele>
        <time>2015-01-18T08:06:14Z</time>
      </trkpt>
      <trkpt lat="48.72276" lon="-3.39608">
        <ele>82</ele>
        <time>2015-01-18T08:06:15Z</time>
      </trkpt>
      <trkpt lat="48.72272" lon="-3.39613">
        <ele>82</ele>
        <time>2015-01-18T08:06:16Z</time>
      </trkpt>
      <trkpt lat="48.72267" lon="-3.39618">
        <ele>82</ele>
        <time>2015-01-18T08:06:17Z</time>
      </trkpt>
      <trkpt lat="48.72262" lon="-3.39622">
        <ele>82</ele>
        <time>2015-01-18T08:06:18Z</time>
      </trkpt>
      <trkpt lat="48.72258" lon="-3.39626">
        <ele>81</ele>
        <time>2015-01-18T08:06:19Z</time>
      </trkpt>
      <trkpt lat="48.72253" lon="-3.3963">
        <ele>81</ele>
        <time>2015-01-18T08:06:20Z</time>
      </trkpt>
      <trkpt lat="48.72247" lon="-3.39634">
        <ele>81</ele>
        <time>2015-01-18T08:06:21Z</time>
      </trkpt>
      <trkpt lat="48.72242" lon="-3.39638">
        <ele>81</ele>
        <time>2015-01-18T08:06:22Z</time>
      </trkpt>
      <trkpt lat="48.72237" lon="-3.39642">
        <ele>81</ele>
        <time>2015-01-18T08:06:23Z</time>
      </trkpt>
      <trkpt lat="48.72231" lon="-3.39646">
        <ele>81</ele>
        <time>2015-01-18T08:06:24Z</time>
      </trkpt>
      <trkpt lat="48.72225" lon="-3.3965">
        <ele>80</ele>
        <time>2015-01-18T08:06:25Z</time>
      </trkpt>
      <trkpt lat="48.72219" lon="-3.39655">
        <ele>80</ele>
        <time>2015-01-18T08:06:26Z</time>
      </trkpt>
      <trkpt lat="48.72214" lon="-3.39659">
        <ele>80</ele>
        <time>2015-01-18T08:06:27Z</time>
      </trkpt>
      <trkpt lat="48.72208" lon="-3.39663">
        <ele>80</ele>
        <time>2015-01-18T08:06:28Z</time>
      </trkpt>
      <trkpt lat="48.72202" lon="-3.39667">
        <ele>80</ele>
        <time>2015-01-18T08:06:29Z</time>
      </trkpt>
      <trkpt lat="48.72196" lon="-3.3967">
        <ele>80</ele>
        <time>2015-01-18T08:06:30Z</time>
      </trkpt>
      <trkpt lat="48.7219" lon="-3.39674">
        <ele>80</ele>
        <time>2015-01-18T08:06:31Z</time>
      </trkpt>
      <trkpt lat="48.72184" lon="-3.39678">
        <ele>79</ele>
        <time>2015-01-18T08:06:32Z</time>
      </trkpt>
      <trkpt lat="48.72179" lon="-3.39681">
        <ele>79</ele>
        <time>2015-01-18T08:06:33Z</time>
      </trkpt>
      <trkpt lat="48.72173" lon="-3.39684">
        <ele>79</ele>
        <time>2015-01-18T08:06:34Z</time>
      </trkpt>
      <trkpt lat="48.72168" lon="-3.39687">
        <ele>79</ele>
        <time>2015-01-18T08:06:35Z</time>
      </trkpt>
      <trkpt lat="48.72162" lon="-3.3969">
        <ele>79</ele>
        <time>2015-01-18T08:06:36Z</time>
      </trkpt>
      <trkpt lat="48.72157" lon="-3.39694">
        <ele>79</ele>
        <time>2015-01-18T08:06:37Z</time>
      </trkpt>
      <trkpt lat="48.72151" lon="-3.39697">
        <ele>79</ele>
        <time>2015-01-18T08:06:38Z</time>
      </trkpt>
      <trkpt lat="48.72145" lon="-3.39701">
        <ele>79</ele>
        <time>2015-01-18T08:06:39Z</time>
      </trkpt>
      <trkpt lat="48.7214" lon="-3.39704">
        <ele>79</ele>
        <time>2015-01-18T08:06:40Z</time>
      </trkpt>
      <trkpt lat="48.72134" lon="-3.39707">
        <ele>79</ele>
        <time>2015-01-18T08:06:41Z</time>
      </trkpt>
      <trkpt lat="48.72129" lon="-3.3971">
        <ele>79</ele>
        <time>2015-01-18T08:06:42Z</time>
      </trkpt>
      <trkpt lat="48.72124" lon="-3.39713">
        <ele>79</ele>
        <time>2015-01-18T08:06:43Z</time>
      </trkpt>
      <trkpt lat="48.72118" lon="-3.39716">
        <ele>79</ele>
        <time>2015-01-18T08:06:44Z</time>
      </trkpt>
      <trkpt lat="48.72113" lon="-3.39719">
        <ele>79</ele>
        <time>2015-01-18T08:06:45Z</time>
      </trkpt>
      <trkpt lat="48.72108" lon="-3.39722">
        <ele>79</ele>
        <time>2015-01-18T08:06:46Z</time>
      </trkpt>
      <trkpt lat="48.72103" lon="-3.39725">
        <ele>79</ele>
        <time>2015-01-18T08:06:47Z</time>
      </trkpt>
      <trkpt lat="48.72097" lon="-3.39728">
        <ele>79</ele>
        <time>2015-01-18T08:06:48Z</time>
      </trkpt>
      <trkpt lat="48.72092" lon="-3.39731">
        <ele>79</ele>
        <time>2015-01-18T08:06:49Z</time>
      </trkpt>
      <trkpt lat="48.72087" lon="-3.39734">
        <ele>79</ele>
        <time>2015-01-18T08:06:50Z</time>
      </trkpt>
      <trkpt lat="48.72081" lon="-3.39737">
        <ele>79</ele>
        <time>2015-01-18T08:06:51Z</time>
      </trkpt>
      <trkpt lat="48.72076" lon="-3.3974">
        <ele>79</ele>
        <time>2015-01-18T08:06:52Z</time>
      </trkpt>
      <trkpt lat="48.72071" lon="-3.39744">
        <ele>79</ele>
        <time>2015-01-18T08:06:53Z</time>
      </trkpt>
      <trkpt lat="48.72065" lon="-3.39747">
        <ele>79</ele>
        <time>2015-01-18T08:06:54Z</time>
      </trkpt>
      <trkpt lat="48.7206" lon="-3.3975">
        <ele>79</ele>
        <time>2015-01-18T08:06:55Z</time>
      </trkpt>
      <trkpt lat="48.72055" lon="-3.39753">
        <ele>78</ele>
        <time>2015-01-18T08:06:56Z</time>
      </trkpt>
      <trkpt lat="48.7205" lon="-3.39756">
        <ele>78</ele>
        <time>2015-01-18T08:06:57Z</time>
      </trkpt>
      <trkpt lat="48.72045" lon="-3.39759">
        <ele>78</ele>
        <time>2015-01-18T08:06:58Z</time>
      </trkpt>
      <trkpt lat="48.72039" lon="-3.39763">
        <ele>78</ele>
        <time>2015-01-18T08:06:59Z</time>
      </trkpt>
      <trkpt lat="48.72034" lon="-3.39766">
        <ele>78</ele>
        <time>2015-01-18T08:07:00Z</time>
      </trkpt>
      <trkpt lat="48.72029" lon="-3.39769">
        <ele>78</ele>
        <time>2015-01-18T08:07:01Z</time>
      </trkpt>
      <trkpt lat="48.72024" lon="-3.39772">
        <ele>78</ele>
        <time>2015-01-18T08:07:02Z</time>
      </trkpt>
      <trkpt lat="48.72018" lon="-3.39775">
        <ele>78</ele>
        <time>2015-01-18T08:07:03Z</time>
      </trkpt>
      <trkpt lat="48.72013" lon="-3.39778">
        <ele>78</ele>
        <time>2015-01-18T08:07:04Z</time>
      </trkpt>
      <trkpt lat="48.72007" lon="-3.39781">
        <ele>78</ele>
        <time>2015-01-18T08:07:05Z</time>
      </trkpt>
      <trkpt lat="48.72002" lon="-3.39785">
        <ele>78</ele>
        <time>2015-01-18T08:07:06Z</time>
      </trkpt>
      <trkpt lat="48.71997" lon="-3.39788">
        <ele>78</ele>
        <time>2015-01-18T08:07:07Z</time>
      </trkpt>
      <trkpt lat="48.71991" lon="-3.39791">
        <ele>78</ele>
        <time>2015-01-18T08:07:08Z</time>
      </trkpt>
      <trkpt lat="48.71986" lon="-3.39794">
        <ele>78</ele>
        <time>2015-01-18T08:07:09Z</time>
      </trkpt>
      <trkpt lat="48.7198" lon="-3.39797">
        <ele>78</ele>
        <time>2015-01-18T08:07:10Z</time>
      </trkpt>
      <trkpt lat="48.71974" lon="-3.39799">
        <ele>78</ele>
        <time>2015-01-18T08:07:11Z</time>
      </trkpt>
      <trkpt lat="48.71968" lon="-3.39802">
        <ele>78</ele>
        <time>2015-01-18T08:07:12Z</time>
      </trkpt>
      <trkpt lat="48.71962" lon="-3.39803">
        <ele>78</ele>
        <time>2015-01-18T08:07:13Z</time>
      </trkpt>
      <trkpt lat="48.71957" lon="-3.39804">
        <ele>78</ele>
        <time>2015-01-18T08:07:14Z</time>
      </trkpt>
      <trkpt lat="48.71951" lon="-3.39805">
        <ele>78</ele>
        <time>2015-01-18T08:07:15Z</time>
      </trkpt>
      <trkpt lat="48.71938" lon="-3.39804">
        <ele>78</ele>
        <time>2015-01-18T08:07:17Z</time>
      </trkpt>
      <trkpt lat="48.71932" lon="-3.39803">
        <ele>77</ele>
        <time>2015-01-18T08:07:18Z</time>
      </trkpt>
      <trkpt lat="48.71926" lon="-3.39802">
        <ele>77</ele>
        <time>2015-01-18T08:07:19Z</time>
      </trkpt>
      <trkpt lat="48.7192" lon="-3.398">
        <ele>77</ele>
        <time>2015-01-18T08:07:20Z</time>
      </trkpt>
      <trkpt lat="48.71913" lon="-3.39798">
        <ele>77</ele>
        <time>2015-01-18T08:07:21Z</time>
      </trkpt>
      <trkpt lat="48.71906" lon="-3.39796">
        <ele>76</ele>
        <time>2015-01-18T08:07:22Z</time>
      </trkpt>
      <trkpt lat="48.71899" lon="-3.39794">
        <ele>76</ele>
        <time>2015-01-18T08:07:23Z</time>
      </trkpt>
      <trkpt lat="48.71891" lon="-3.39792">
        <ele>76</ele>
        <time>2015-01-18T08:07:24Z</time>
      </trkpt>
      <trkpt lat="48.71884" lon="-3.39791">
        <ele>75</ele>
        <time>2015-01-18T08:07:25Z</time>
      </trkpt>
      <trkpt lat="48.71876" lon="-3.3979">
        <ele>75</ele>
        <time>2015-01-18T08:07:26Z</time>
      </trkpt>
      <trkpt lat="48.71868" lon="-3.3979">
        <ele>74</ele>
        <time>2015-01-18T08:07:27Z</time>
      </trkpt>
      <trkpt lat="48.71859" lon="-3.39789">
        <ele>74</ele>
        <time>2015-01-18T08:07:28Z</time>
      </trkpt>
      <trkpt lat="48.71851" lon="-3.39789">
        <ele>74</ele>
        <time>2015-01-18T08:07:29Z</time>
      </trkpt>
      <trkpt lat="48.71843" lon="-3.39788">
        <ele>73</ele>
        <time>2015-01-18T08:07:30Z</time>
      </trkpt>
      <trkpt lat="48.71834" lon="-3.39787">
        <ele>73</ele>
        <time>2015-01-18T08:07:31Z</time>
      </trkpt>
      <trkpt lat="48.71826" lon="-3.39786">
        <ele>72</ele>
        <time>2015-01-18T08:07:32Z</time>
      </trkpt>
      <trkpt lat="48.71817" lon="-3.39784">
        <ele>72</ele>
        <time>2015-01-18T08:07:33Z</time>
      </trkpt>
      <trkpt lat="48.71809" lon="-3.39781">
        <ele>72</ele>
        <time>2015-01-18T08:07:34Z</time>
      </trkpt>
      <trkpt lat="48.71801" lon="-3.39776">
        <ele>72</ele>
        <time>2015-01-18T08:07:35Z</time>
      </trkpt>
      <trkpt lat="48.71793" lon="-3.39772">
        <ele>72</ele>
        <time>2015-01-18T08:07:36Z</time>
      </trkpt>
      <trkpt lat="48.71786" lon="-3.39768">
        <ele>72</ele>
        <time>2015-01-18T08:07:37Z</time>
      </trkpt>
      <trkpt lat="48.71778" lon="-3.39763">
        <ele>71</ele>
        <time>2015-01-18T08:07:38Z</time>
      </trkpt>
      <trkpt lat="48.71771" lon="-3.39757">
        <ele>71</ele>
        <time>2015-01-18T08:07:39Z</time>
      </trkpt>
      <trkpt lat="48.71764" lon="-3.39753">
        <ele>71</ele>
        <time>2015-01-18T08:07:40Z</time>
      </trkpt>
      <trkpt lat="48.71756" lon="-3.39749">
        <ele>71</ele>
        <time>2015-01-18T08:07:41Z</time>
      </trkpt>
      <trkpt lat="48.71749" lon="-3.39745">
        <ele>71</ele>
        <time>2015-01-18T08:07:42Z</time>
      </trkpt>
      <trkpt lat="48.71741" lon="-3.39742">
        <ele>71</ele>
        <time>2015-01-18T08:07:43Z</time>
      </trkpt>
      <trkpt lat="48.71734" lon="-3.39741">
        <ele>71</ele>
        <time>2015-01-18T08:07:44Z</time>
      </trkpt>
      <trkpt lat="48.71726" lon="-3.3974">
        <ele>70</ele>
        <time>2015-01-18T08:07:45Z</time>
      </trkpt>
      <trkpt lat="48.71718" lon="-3.39741">
        <ele>70</ele>
        <time>2015-01-18T08:07:46Z</time>
      </trkpt>
      <trkpt lat="48.7171" lon="-3.39742">
        <ele>70</ele>
        <time>2015-01-18T08:07:47Z</time>
      </trkpt>
      <trkpt lat="48.71702" lon="-3.39743">
        <ele>70</ele>
        <time>2015-01-18T08:07:48Z</time>
      </trkpt>
      <trkpt lat="48.71694" lon="-3.39746">
        <ele>70</ele>
        <time>2015-01-18T08:07:49Z</time>
      </trkpt>
      <trkpt lat="48.71687" lon="-3.39751">
        <ele>70</ele>
        <time>2015-01-18T08:07:50Z</time>
      </trkpt>
      <trkpt lat="48.7168" lon="-3.39756">
        <ele>70</ele>
        <time>2015-01-18T08:07:51Z</time>
      </trkpt>
      <trkpt lat="48.71672" lon="-3.39761">
        <ele>70</ele>
        <time>2015-01-18T08:07:52Z</time>
      </trkpt>
      <trkpt lat="48.71665" lon="-3.39767">
        <ele>70</ele>
        <time>2015-01-18T08:07:53Z</time>
      </trkpt>
      <trkpt lat="48.71659" lon="-3.39772">
        <ele>70</ele>
        <time>2015-01-18T08:07:54Z</time>
      </trkpt>
      <trkpt lat="48.71652" lon="-3.39778">
        <ele>70</ele>
        <time>2015-01-18T08:07:55Z</time>
      </trkpt>
      <trkpt lat="48.71646" lon="-3.39782">
        <ele>70</ele>
        <time>2015-01-18T08:07:56Z</time>
      </trkpt>
      <trkpt lat="48.71639" lon="-3.39787">
        <ele>70</ele>
        <time>2015-01-18T08:07:57Z</time>
      </trkpt>
      <trkpt lat="48.71633" lon="-3.3979">
        <ele>70</ele>
        <time>2015-01-18T08:07:58Z</time>
      </trkpt>
      <trkpt lat="48.71626" lon="-3.39792">
        <ele>70</ele>
        <time>2015-01-18T08:07:59Z</time>
      </trkpt>
      <trkpt lat="48.7162" lon="-3.39795">
        <ele>70</ele>
        <time>2015-01-18T08:08:00Z</time>
      </trkpt>
      <trkpt lat="48.71614" lon="-3.39797">
        <ele>70</ele>
        <time>2015-01-18T08:08:01Z</time>
      </trkpt>
      <trkpt lat="48.71608" lon="-3.39798">
        <ele>70</ele>
        <time>2015-01-18T08:08:02Z</time>
      </trkpt>
      <trkpt lat="48.71603" lon="-3.398">
        <ele>70</ele>
        <time>2015-01-18T08:08:03Z</time>
      </trkpt>
      <trkpt lat="48.71598" lon="-3.39801">
        <ele>70</ele>
        <time>2015-01-18T08:08:04Z</time>
      </trkpt>
      <trkpt lat="48.71592" lon="-3.39802">
        <ele>70</ele>
        <time>2015-01-18T08:08:05Z</time>
      </trkpt>
      <trkpt lat="48.71587" lon="-3.39803">
        <ele>70</ele>
        <time>2015-01-18T08:08:06Z</time>
      </trkpt>
      <trkpt lat="48.71581" lon="-3.39804">
        <ele>70</ele>
        <time>2015-01-18T08:08:07Z</time>
      </trkpt>
      <trkpt lat="48.71576" lon="-3.39804">
        <ele>70</ele>
        <time>2015-01-18T08:08:08Z</time>
      </trkpt>
      <trkpt lat="48.71571" lon="-3.39805">
        <ele>70</ele>
        <time>2015-01-18T08:08:09Z</time>
      </trkpt>
      <trkpt lat="48.71565" lon="-3.39805">
        <ele>70</ele>
        <time>2015-01-18T08:08:10Z</time>
      </trkpt>
      <trkpt lat="48.7156" lon="-3.39807">
        <ele>70</ele>
        <time>2015-01-18T08:08:11Z</time>
      </trkpt>
      <trkpt lat="48.71554" lon="-3.3981">
        <ele>70</ele>
        <time>2015-01-18T08:08:12Z</time>
      </trkpt>
      <trkpt lat="48.71549" lon="-3.39814">
        <ele>70</ele>
        <time>2015-01-18T08:08:13Z</time>
      </trkpt>
      <trkpt lat="48.71544" lon="-3.39818">
        <ele>70</ele>
        <time>2015-01-18T08:08:14Z</time>
      </trkpt>
      <trkpt lat="48.71539" lon="-3.39822">
        <ele>70</ele>
        <time>2015-01-18T08:08:15Z</time>
      </trkpt>
      <trkpt lat="48.71534" lon="-3.39826">
        <ele>70</ele>
        <time>2015-01-18T08:08:16Z</time>
      </trkpt>
      <trkpt lat="48.71529" lon="-3.39831">
        <ele>70</ele>
        <time>2015-01-18T08:08:17Z</time>
      </trkpt>
      <trkpt lat="48.71524" lon="-3.39835">
        <ele>70</ele>
        <time>2015-01-18T08:08:18Z</time>
      </trkpt>
      <trkpt lat="48.71519" lon="-3.39839">
        <ele>70</ele>
        <time>2015-01-18T08:08:19Z</time>
      </trkpt>
      <trkpt lat="48.71515" lon="-3.39844">
        <ele>70</ele>
        <time>2015-01-18T08:08:20Z</time>
      </trkpt>
      <trkpt lat="48.7151" lon="-3.39849">
        <ele>70</ele>
        <time>2015-01-18T08:08:21Z</time>
      </trkpt>
      <trkpt lat="48.71506" lon="-3.39855">
        <ele>70</ele>
        <time>2015-01-18T08:08:22Z</time>
      </trkpt>
      <trkpt lat="48.71502" lon="-3.3986">
        <ele>70</ele>
        <time>2015-01-18T08:08:23Z</time>
      </trkpt>
      <trkpt lat="48.71497" lon="-3.39864">
        <ele>70</ele>
        <time>2015-01-18T08:08:24Z</time>
      </trkpt>
      <trkpt lat="48.71491" lon="-3.39866">
        <ele>70</ele>
        <time>2015-01-18T08:08:25Z</time>
      </trkpt>
      <trkpt lat="48.71485" lon="-3.39866">
        <ele>70</ele>
        <time>2015-01-18T08:08:26Z</time>
      </trkpt>
      <trkpt lat="48.71478" lon="-3.39865">
        <ele>70</ele>
        <time>2015-01-18T08:08:27Z</time>
      </trkpt>
      <trkpt lat="48.71471" lon="-3.39864">
        <ele>70</ele>
        <time>2015-01-18T08:08:28Z</time>
      </trkpt>
      <trkpt lat="48.71456" lon="-3.39865">
        <ele>70</ele>
        <time>2015-01-18T08:08:30Z</time>
      </trkpt>
      <trkpt lat="48.71448" lon="-3.39866">
        <ele>70</ele>
        <time>2015-01-18T08:08:31Z</time>
      </trkpt>
      <trkpt lat="48.7144" lon="-3.39867">
        <ele>70</ele>
        <time>2015-01-18T08:08:32Z</time>
      </trkpt>
      <trkpt lat="48.71432" lon="-3.39868">
        <ele>70</ele>
        <time>2015-01-18T08:08:33Z</time>
      </trkpt>
      <trkpt lat="48.71423" lon="-3.39869">
        <ele>70</ele>
        <time>2015-01-18T08:08:34Z</time>
      </trkpt>
      <trkpt lat="48.71415" lon="-3.39871">
        <ele>70</ele>
        <time>2015-01-18T08:08:35Z</time>
      </trkpt>
      <trkpt lat="48.71406" lon="-3.39872">
        <ele>70</ele>
        <time>2015-01-18T08:08:36Z</time>
      </trkpt>
      <trkpt lat="48.71398" lon="-3.39874">
        <ele>70</ele>
        <time>2015-01-18T08:08:37Z</time>
      </trkpt>
      <trkpt lat="48.71389" lon="-3.39875">
        <ele>70</ele>
        <time>2015-01-18T08:08:38Z</time>
      </trkpt>
      <trkpt lat="48.71381" lon="-3.39877">
        <ele>70</ele>
        <time>2015-01-18T08:08:39Z</time>
      </trkpt>
      <trkpt lat="48.71373" lon="-3.39879">
        <ele>70</ele>
        <time>2015-01-18T08:08:40Z</time>
      </trkpt>
      <trkpt lat="48.71365" lon="-3.3988">
        <ele>70</ele>
        <time>2015-01-18T08:08:41Z</time>
      </trkpt>
      <trkpt lat="48.71357" lon="-3.39881">
        <ele>70</ele>
        <time>2015-01-18T08:08:42Z</time>
      </trkpt>
      <trkpt lat="48.7135" lon="-3.39882">
        <ele>70</ele>
        <time>2015-01-18T08:08:43Z</time>
      </trkpt>
      <trkpt lat="48.71342" lon="-3.39883">
        <ele>70</ele>
        <time>2015-01-18T08:08:44Z</time>
      </trkpt>
      <trkpt lat="48.71335" lon="-3.39883">
        <ele>70</ele>
        <time>2015-01-18T08:08:45Z</time>
      </trkpt>
      <trkpt lat="48.71328" lon="-3.39883">
        <ele>70</ele>
        <time>2015-01-18T08:08:46Z</time>
      </trkpt>
      <trkpt lat="48.7132" lon="-3.39884">
        <ele>70</ele>
        <time>2015-01-18T08:08:47Z</time>
      </trkpt>
      <trkpt lat="48.71313" lon="-3.39884">
        <ele>70</ele>
        <time>2015-01-18T08:08:48Z</time>
      </trkpt>
      <trkpt lat="48.71306" lon="-3.39885">
        <ele>70</ele>
        <time>2015-01-18T08:08:49Z</time>
      </trkpt>
      <trkpt lat="48.71299" lon="-3.39886">
        <ele>70</ele>
        <time>2015-01-18T08:08:50Z</time>
      </trkpt>
      <trkpt lat="48.71292" lon="-3.39886">
        <ele>70</ele>
        <time>2015-01-18T08:08:51Z</time>
      </trkpt>
      <trkpt lat="48.71285" lon="-3.39887">
        <ele>70</ele>
        <time>2015-01-18T08:08:52Z</time>
      </trkpt>
      <trkpt lat="48.71278" lon="-3.39889">
        <ele>70</ele>
        <time>2015-01-18T08:08:53Z</time>
      </trkpt>
      <trkpt lat="48.71271" lon="-3.39891">
        <ele>70</ele>
        <time>2015-01-18T08:08:54Z</time>
      </trkpt>
      <trkpt lat="48.71264" lon="-3.39893">
        <ele>70</ele>
        <time>2015-01-18T08:08:55Z</time>
      </trkpt>
      <trkpt lat="48.71257" lon="-3.39896">
        <ele>70</ele>
        <time>2015-01-18T08:08:56Z</time>
      </trkpt>
      <trkpt lat="48.71251" lon="-3.399">
        <ele>70</ele>
        <time>2015-01-18T08:08:57Z</time>
      </trkpt>
      <trkpt lat="48.71244" lon="-3.39903">
        <ele>70</ele>
        <time>2015-01-18T08:08:58Z</time>
      </trkpt>
      <trkpt lat="48.71238" lon="-3.39908">
        <ele>70</ele>
        <time>2015-01-18T08:08:59Z</time>
      </trkpt>
      <trkpt lat="48.71232" lon="-3.39912">
        <ele>70</ele>
        <time>2015-01-18T08:09:00Z</time>
      </trkpt>
      <trkpt lat="48.71226" lon="-3.39917">
        <ele>70</ele>
        <time>2015-01-18T08:09:01Z</time>
      </trkpt>
      <trkpt lat="48.7122" lon="-3.39923">
        <ele>70</ele>
        <time>2015-01-18T08:09:02Z</time>
      </trkpt>
      <trkpt lat="48.71214" lon="-3.39929">
        <ele>70</ele>
        <time>2015-01-18T08:09:03Z</time>
      </trkpt>
      <trkpt lat="48.71209" lon="-3.39935">
        <ele>70</ele>
        <time>2015-01-18T08:09:04Z</time>
      </trkpt>
      <trkpt lat="48.71203" lon="-3.39942">
        <ele>70</ele>
        <time>2015-01-18T08:09:05Z</time>
      </trkpt>
      <trkpt lat="48.71198" lon="-3.39948">
        <ele>70</ele>
        <time>2015-01-18T08:09:06Z</time>
      </trkpt>
      <trkpt lat="48.71193" lon="-3.39956">
        <ele>70</ele>
        <time>2015-01-18T08:09:07Z</time>
      </trkpt>
      <trkpt lat="48.71188" lon="-3.39963">
        <ele>70</ele>
        <time>2015-01-18T08:09:08Z</time>
      </trkpt>
      <trkpt lat="48.71184" lon="-3.39971">
        <ele>70</ele>
        <time>2015-01-18T08:09:09Z</time>
      </trkpt>
      <trkpt lat="48.71179" lon="-3.39979">
        <ele>70</ele>
        <time>2015-01-18T08:09:10Z</time>
      </trkpt>
      <trkpt lat="48.71175" lon="-3.39987">
        <ele>70</ele>
        <time>2015-01-18T08:09:11Z</time>
      </trkpt>
      <trkpt lat="48.71172" lon="-3.39995">
        <ele>70</ele>
        <time>2015-01-18T08:09:12Z</time>
      </trkpt>
      <trkpt lat="48.71168" lon="-3.40004">
        <ele>70</ele>
        <time>2015-01-18T08:09:13Z</time>
      </trkpt>
      <trkpt lat="48.71165" lon="-3.40012">
        <ele>70</ele>
        <time>2015-01-18T08:09:14Z</time>
      </trkpt>
      <trkpt lat="48.71162" lon="-3.40021">
        <ele>70</ele>
        <time>2015-01-18T08:09:15Z</time>
      </trkpt>
      <trkpt lat="48.71159" lon="-3.40029">
        <ele>70</ele>
        <time>2015-01-18T08:09:16Z</time>
      </trkpt>
      <trkpt lat="48.71156" lon="-3.40038">
        <ele>70</ele>
        <time>2015-01-18T08:09:17Z</time>
      </trkpt>
      <trkpt lat="48.71154" lon="-3.40047">
        <ele>70</ele>
        <time>2015-01-18T08:09:18Z</time>
      </trkpt>
      <trkpt lat="48.71152" lon="-3.40055">
        <ele>70</ele>
        <time>2015-01-18T08:09:19Z</time>
      </trkpt>
      <trkpt lat="48.71151" lon="-3.40064">
        <ele>70</ele>
        <time>2015-01-18T08:09:20Z</time>
      </trkpt>
      <trkpt lat="48.71149" lon="-3.40073">
        <ele>70</ele>
        <time>2015-01-18T08:09:21Z</time>
      </trkpt>
      <trkpt lat="48.71147" lon="-3.40081">
        <ele>70</ele>
        <time>2015-01-18T08:09:22Z</time>
      </trkpt>
      <trkpt lat="48.71145" lon="-3.4009">
        <ele>70</ele>
        <time>2015-01-18T08:09:23Z</time>
      </trkpt>
      <trkpt lat="48.71143" lon="-3.40098">
        <ele>70</ele>
        <time>2015-01-18T08:09:24Z</time>
      </trkpt>
      <trkpt lat="48.71141" lon="-3.40106">
        <ele>70</ele>
        <time>2015-01-18T08:09:25Z</time>
      </trkpt>
      <trkpt lat="48.71139" lon="-3.40114">
        <ele>70</ele>
        <time>2015-01-18T08:09:26Z</time>
      </trkpt>
      <trkpt lat="48.71137" lon="-3.40122">
        <ele>70</ele>
        <time>2015-01-18T08:09:27Z</time>
      </trkpt>
      <trkpt lat="48.71134" lon="-3.40131">
        <ele>70</ele>
        <time>2015-01-18T08:09:28Z</time>
      </trkpt>
      <trkpt lat="48.71131" lon="-3.40139">
        <ele>71</ele>
        <time>2015-01-18T08:09:29Z</time>
      </trkpt>
      <trkpt lat="48.71128" lon="-3.40147">
        <ele>71</ele>
        <time>2015-01-18T08:09:30Z</time>
      </trkpt>
      <trkpt lat="48.71125" lon="-3.40155">
        <ele>71</ele>
        <time>2015-01-18T08:09:31Z</time>
      </trkpt>
      <trkpt lat="48.71122" lon="-3.40162">
        <ele>71</ele>
        <time>2015-01-18T08:09:32Z</time>
      </trkpt>
      <trkpt lat="48.71118" lon="-3.4017">
        <ele>71</ele>
        <time>2015-01-18T08:09:33Z</time>
      </trkpt>
      <trkpt lat="48.71114" lon="-3.40177">
        <ele>71</ele>
        <time>2015-01-18T08:09:34Z</time>
      </trkpt>
      <trkpt lat="48.7111" lon="-3.40184">
        <ele>71</ele>
        <time>2015-01-18T08:09:35Z</time>
      </trkpt>
      <trkpt lat="48.71106" lon="-3.40191">
        <ele>71</ele>
        <time>2015-01-18T08:09:36Z</time>
      </trkpt>
      <trkpt lat="48.71101" lon="-3.40197">
        <ele>71</ele>
        <time>2015-01-18T08:09:37Z</time>
      </trkpt>
      <trkpt lat="48.71097" lon="-3.40203">
        <ele>72</ele>
        <time>2015-01-18T08:09:38Z</time>
      </trkpt>
      <trkpt lat="48.71093" lon="-3.40208">
        <ele>72</ele>
        <time>2015-01-18T08:09:39Z</time>
      </trkpt>
      <trkpt lat="48.71088" lon="-3.40213">
        <ele>72</ele>
        <time>2015-01-18T08:09:40Z</time>
      </trkpt>
      <trkpt lat="48.71083" lon="-3.40219">
        <ele>72</ele>
        <time>2015-01-18T08:09:41Z</time>
      </trkpt>
      <trkpt lat="48.71078" lon="-3.40224">
        <ele>72</ele>
        <time>2015-01-18T08:09:42Z</time>
      </trkpt>
      <trkpt lat="48.71074" lon="-3.40228">
        <ele>72</ele>
        <time>2015-01-18T08:09:43Z</time>
      </trkpt>
      <trkpt lat="48.71069" lon="-3.40233">
        <ele>72</ele>
        <time>2015-01-18T08:09:44Z</time>
      </trkpt>
      <trkpt lat="48.71064" lon="-3.40237">
        <ele>72</ele>
        <time>2015-01-18T08:09:45Z</time>
      </trkpt>
      <trkpt lat="48.71059" lon="-3.40241">
        <ele>72</ele>
        <time>2015-01-18T08:09:46Z</time>
      </trkpt>
      <trkpt lat="48.71053" lon="-3.40245">
        <ele>73</ele>
        <time>2015-01-18T08:09:47Z</time>
      </trkpt>
      <trkpt lat="48.71048" lon="-3.40248">
        <ele>73</ele>
        <time>2015-01-18T08:09:48Z</time>
      </trkpt>
      <trkpt lat="48.71043" lon="-3.40251">
        <ele>73</ele>
        <time>2015-01-18T08:09:49Z</time>
      </trkpt>
      <trkpt lat="48.71037" lon="-3.40254">
        <ele>73</ele>
        <time>2015-01-18T08:09:50Z</time>
      </trkpt>
      <trkpt lat="48.71032" lon="-3.40256">
        <ele>73</ele>
        <time>2015-01-18T08:09:51Z</time>
      </trkpt>
      <trkpt lat="48.71027" lon="-3.40257">
        <ele>73</ele>
        <time>2015-01-18T08:09:52Z</time>
      </trkpt>
      <trkpt lat="48.71022" lon="-3.40259">
        <ele>73</ele>
        <time>2015-01-18T08:09:53Z</time>
      </trkpt>
      <trkpt lat="48.71017" lon="-3.4026">
        <ele>73</ele>
        <time>2015-01-18T08:09:54Z</time>
      </trkpt>
      <trkpt lat="48.71013" lon="-3.40261">
        <ele>74</ele>
        <time>2015-01-18T08:09:55Z</time>
      </trkpt>
      <trkpt lat="48.71008" lon="-3.40262">
        <ele>74</ele>
        <time>2015-01-18T08:09:56Z</time>
      </trkpt>
      <trkpt lat="48.71003" lon="-3.40263">
        <ele>74</ele>
        <time>2015-01-18T08:09:57Z</time>
      </trkpt>
      <trkpt lat="48.70998" lon="-3.40264">
        <ele>74</ele>
        <time>2015-01-18T08:09:58Z</time>
      </trkpt>
      <trkpt lat="48.70993" lon="-3.40265">
        <ele>75</ele>
        <time>2015-01-18T08:09:59Z</time>
      </trkpt>
      <trkpt lat="48.70988" lon="-3.40265">
        <ele>75</ele>
        <time>2015-01-18T08:10:00Z</time>
      </trkpt>
      <trkpt lat="48.70984" lon="-3.40265">
        <ele>75</ele>
        <time>2015-01-18T08:10:01Z</time>
      </trkpt>
      <trkpt lat="48.70979" lon="-3.40265">
        <ele>75</ele>
        <time>2015-01-18T08:10:02Z</time>
      </trkpt>
      <trkpt lat="48.70974" lon="-3.40265">
        <ele>76</ele>
        <time>2015-01-18T08:10:03Z</time>
      </trkpt>
      <trkpt lat="48.70959" lon="-3.40265">
        <ele>76</ele>
        <time>2015-01-18T08:10:06Z</time>
      </trkpt>
      <trkpt lat="48.70954" lon="-3.40265">
        <ele>77</ele>
        <time>2015-01-18T08:10:07Z</time>
      </trkpt>
      <trkpt lat="48.70949" lon="-3.40265">
        <ele>77</ele>
        <time>2015-01-18T08:10:08Z</time>
      </trkpt>
      <trkpt lat="48.70944" lon="-3.40264">
        <ele>77</ele>
        <time>2015-01-18T08:10:09Z</time>
      </trkpt>
      <trkpt lat="48.70938" lon="-3.40264">
        <ele>77</ele>
        <time>2015-01-18T08:10:10Z</time>
      </trkpt>
      <trkpt lat="48.70933" lon="-3.40263">
        <ele>77</ele>
        <time>2015-01-18T08:10:11Z</time>
      </trkpt>
      <trkpt lat="48.70927" lon="-3.40263">
        <ele>78</ele>
        <time>2015-01-18T08:10:12Z</time>
      </trkpt>
      <trkpt lat="48.70921" lon="-3.40262">
        <ele>78</ele>
        <time>2015-01-18T08:10:13Z</time>
      </trkpt>
      <trkpt lat="48.70916" lon="-3.40261">
        <ele>78</ele>
        <time>2015-01-18T08:10:14Z</time>
      </trkpt>
      <trkpt lat="48.70911" lon="-3.40261">
        <ele>78</ele>
        <time>2015-01-18T08:10:15Z</time>
      </trkpt>
      <trkpt lat="48.70905" lon="-3.4026">
        <ele>78</ele>
        <time>2015-01-18T08:10:16Z</time>
      </trkpt>
      <trkpt lat="48.709" lon="-3.40259">
        <ele>78</ele>
        <time>2015-01-18T08:10:17Z</time>
      </trkpt>
      <trkpt lat="48.70894" lon="-3.40258">
        <ele>78</ele>
        <time>2015-01-18T08:10:18Z</time>
      </trkpt>
      <trkpt lat="48.70888" lon="-3.40258">
        <ele>78</ele>
        <time>2015-01-18T08:10:19Z</time>
      </trkpt>
      <trkpt lat="48.70882" lon="-3.40257">
        <ele>78</ele>
        <time>2015-01-18T08:10:20Z</time>
      </trkpt>
      <trkpt lat="48.70877" lon="-3.40256">
        <ele>78</ele>
        <time>2015-01-18T08:10:21Z</time>
      </trkpt>
      <trkpt lat="48.70871" lon="-3.40255">
        <ele>78</ele>
        <time>2015-01-18T08:10:22Z</time>
      </trkpt>
      <trkpt lat="48.70866" lon="-3.40254">
        <ele>78</ele>
        <time>2015-01-18T08:10:23Z</time>
      </trkpt>
      <trkpt lat="48.7086" lon="-3.40253">
        <ele>78</ele>
        <time>2015-01-18T08:10:24Z</time>
      </trkpt>
      <trkpt lat="48.70855" lon="-3.40252">
        <ele>78</ele>
        <time>2015-01-18T08:10:25Z</time>
      </trkpt>
      <trkpt lat="48.70849" lon="-3.40251">
        <ele>78</ele>
        <time>2015-01-18T08:10:26Z</time>
      </trkpt>
      <trkpt lat="48.70844" lon="-3.4025">
        <ele>78</ele>
        <time>2015-01-18T08:10:27Z</time>
      </trkpt>
      <trkpt lat="48.70838" lon="-3.40249">
        <ele>79</ele>
        <time>2015-01-18T08:10:28Z</time>
      </trkpt>
      <trkpt lat="48.70833" lon="-3.40248">
        <ele>79</ele>
        <time>2015-01-18T08:10:29Z</time>
      </trkpt>
      <trkpt lat="48.70828" lon="-3.40247">
        <ele>79</ele>
        <time>2015-01-18T08:10:30Z</time>
      </trkpt>
      <trkpt lat="48.70822" lon="-3.40246">
        <ele>79</ele>
        <time>2015-01-18T08:10:31Z</time>
      </trkpt>
      <trkpt lat="48.70817" lon="-3.40245">
        <ele>79</ele>
        <time>2015-01-18T08:10:32Z</time>
      </trkpt>
      <trkpt lat="48.70811" lon="-3.40244">
        <ele>80</ele>
        <time>2015-01-18T08:10:33Z</time>
      </trkpt>
      <trkpt lat="48.70806" lon="-3.40243">
        <ele>80</ele>
        <time>2015-01-18T08:10:34Z</time>
      </trkpt>
      <trkpt lat="48.70801" lon="-3.40242">
        <ele>80</ele>
        <time>2015-01-18T08:10:35Z</time>
      </trkpt>
      <trkpt lat="48.70796" lon="-3.40241">
        <ele>80</ele>
        <time>2015-01-18T08:10:36Z</time>
      </trkpt>
      <trkpt lat="48.70791" lon="-3.4024">
        <ele>81</ele>
        <time>2015-01-18T08:10:37Z</time>
      </trkpt>
      <trkpt lat="48.70786" lon="-3.40239">
        <ele>81</ele>
        <time>2015-01-18T08:10:38Z</time>
      </trkpt>
      <trkpt lat="48.70781" lon="-3.40239">
        <ele>81</ele>
        <time>2015-01-18T08:10:39Z</time>
      </trkpt>
      <trkpt lat="48.70775" lon="-3.40238">
        <ele>81</ele>
        <time>2015-01-18T08:10:40Z</time>
      </trkpt>
      <trkpt lat="48.7077" lon="-3.40237">
        <ele>81</ele>
        <time>2015-01-18T08:10:41Z</time>
      </trkpt>
      <trkpt lat="48.70764" lon="-3.40237">
        <ele>81</ele>
        <time>2015-01-18T08:10:42Z</time>
      </trkpt>
      <trkpt lat="48.70758" lon="-3.40236">
        <ele>81</ele>
        <time>2015-01-18T08:10:43Z</time>
      </trkpt>
      <trkpt lat="48.70753" lon="-3.40235">
        <ele>81</ele>
        <time>2015-01-18T08:10:44Z</time>
      </trkpt>
      <trkpt lat="48.70747" lon="-3.40234">
        <ele>81</ele>
        <time>2015-01-18T08:10:45Z</time>
      </trkpt>
      <trkpt lat="48.70741" lon="-3.40233">
        <ele>81</ele>
        <time>2015-01-18T08:10:46Z</time>
      </trkpt>
      <trkpt lat="48.70736" lon="-3.40231">
        <ele>81</ele>
        <time>2015-01-18T08:10:47Z</time>
      </trkpt>
      <trkpt lat="48.7073" lon="-3.4023">
        <ele>81</ele>
        <time>2015-01-18T08:10:48Z</time>
      </trkpt>
      <trkpt lat="48.70724" lon="-3.40228">
        <ele>81</ele>
        <time>2015-01-18T08:10:49Z</time>
      </trkpt>
      <trkpt lat="48.70718" lon="-3.40226">
        <ele>81</ele>
        <time>2015-01-18T08:10:50Z</time>
      </trkpt>
      <trkpt lat="48.70713" lon="-3.40224">
        <ele>81</ele>
        <time>2015-01-18T08:10:51Z</time>
      </trkpt>
      <trkpt lat="48.70707" lon="-3.40221">
        <ele>82</ele>
        <time>2015-01-18T08:10:52Z</time>
      </trkpt>
      <trkpt lat="48.70702" lon="-3.40219">
        <ele>82</ele>
        <time>2015-01-18T08:10:53Z</time>
      </trkpt>
      <trkpt lat="48.70696" lon="-3.40217">
        <ele>82</ele>
        <time>2015-01-18T08:10:54Z</time>
      </trkpt>
      <trkpt lat="48.7069" lon="-3.40215">
        <ele>82</ele>
        <time>2015-01-18T08:10:55Z</time>
      </trkpt>
      <trkpt lat="48.70685" lon="-3.40213">
        <ele>82</ele>
        <time>2015-01-18T08:10:56Z</time>
      </trkpt>
      <trkpt lat="48.70679" lon="-3.40211">
        <ele>82</ele>
        <time>2015-01-18T08:10:57Z</time>
      </trkpt>
      <trkpt lat="48.70673" lon="-3.4021">
        <ele>82</ele>
        <time>2015-01-18T08:10:58Z</time>
      </trkpt>
      <trkpt lat="48.70667" lon="-3.40209">
        <ele>82</ele>
        <time>2015-01-18T08:10:59Z</time>
      </trkpt>
      <trkpt lat="48.70661" lon="-3.40209">
        <ele>82</ele>
        <time>2015-01-18T08:11:00Z</time>
      </trkpt>
      <trkpt lat="48.70655" lon="-3.40208">
        <ele>82</ele>
        <time>2015-01-18T08:11:01Z</time>
      </trkpt>
      <trkpt lat="48.70643" lon="-3.40209">
        <ele>82</ele>
        <time>2015-01-18T08:11:03Z</time>
      </trkpt>
      <trkpt lat="48.70637" lon="-3.4021">
        <ele>82</ele>
        <time>2015-01-18T08:11:04Z</time>
      </trkpt>
      <trkpt lat="48.70631" lon="-3.4021">
        <ele>82</ele>
        <time>2015-01-18T08:11:05Z</time>
      </trkpt>
      <trkpt lat="48.70625" lon="-3.40211">
        <ele>82</ele>
        <time>2015-01-18T08:11:06Z</time>
      </trkpt>
      <trkpt lat="48.70618" lon="-3.40212">
        <ele>82</ele>
        <time>2015-01-18T08:11:07Z</time>
      </trkpt>
      <trkpt lat="48.70612" lon="-3.40213">
        <ele>82</ele>
        <time>2015-01-18T08:11:08Z</time>
      </trkpt>
      <trkpt lat="48.70605" lon="-3.40213">
        <ele>82</ele>
        <time>2015-01-18T08:11:09Z</time>
      </trkpt>
      <trkpt lat="48.70599" lon="-3.40214">
        <ele>82</ele>
        <time>2015-01-18T08:11:10Z</time>
      </trkpt>
      <trkpt lat="48.70592" lon="-3.40215">
        <ele>82</ele>
        <time>2015-01-18T08:11:11Z</time>
      </trkpt>
      <trkpt lat="48.70585" lon="-3.40216">
        <ele>82</ele>
        <time>2015-01-18T08:11:12Z</time>
      </trkpt>
      <trkpt lat="48.70578" lon="-3.40218">
        <ele>82</ele>
        <time>2015-01-18T08:11:13Z</time>
      </trkpt>
      <trkpt lat="48.70571" lon="-3.4022">
        <ele>82</ele>
        <time>2015-01-18T08:11:14Z</time>
      </trkpt>
      <trkpt lat="48.70564" lon="-3.40222">
        <ele>82</ele>
        <time>2015-01-18T08:11:15Z</time>
      </trkpt>
      <trkpt lat="48.70557" lon="-3.40225">
        <ele>82</ele>
        <time>2015-01-18T08:11:16Z</time>
      </trkpt>
      <trkpt lat="48.7055" lon="-3.40228">
        <ele>82</ele>
        <time>2015-01-18T08:11:17Z</time>
      </trkpt>
      <trkpt lat="48.70543" lon="-3.4023">
        <ele>82</ele>
        <time>2015-01-18T08:11:18Z</time>
      </trkpt>
      <trkpt lat="48.70536" lon="-3.40233">
        <ele>82</ele>
        <time>2015-01-18T08:11:19Z</time>
      </trkpt>
      <trkpt lat="48.7053" lon="-3.40236">
        <ele>82</ele>
        <time>2015-01-18T08:11:20Z</time>
      </trkpt>
      <trkpt lat="48.70523" lon="-3.40239">
        <ele>82</ele>
        <time>2015-01-18T08:11:21Z</time>
      </trkpt>
      <trkpt lat="48.70516" lon="-3.40242">
        <ele>82</ele>
        <time>2015-01-18T08:11:22Z</time>
      </trkpt>
      <trkpt lat="48.70509" lon="-3.40245">
        <ele>82</ele>
        <time>2015-01-18T08:11:23Z</time>
      </trkpt>
      <trkpt lat="48.70503" lon="-3.40248">
        <ele>82</ele>
        <time>2015-01-18T08:11:24Z</time>
      </trkpt>
      <trkpt lat="48.70496" lon="-3.40251">
        <ele>82</ele>
        <time>2015-01-18T08:11:25Z</time>
      </trkpt>
      <trkpt lat="48.7049" lon="-3.40254">
        <ele>82</ele>
        <time>2015-01-18T08:11:26Z</time>
      </trkpt>
      <trkpt lat="48.70483" lon="-3.40257">
        <ele>82</ele>
        <time>2015-01-18T08:11:27Z</time>
      </trkpt>
      <trkpt lat="48.70477" lon="-3.4026">
        <ele>82</ele>
        <time>2015-01-18T08:11:28Z</time>
      </trkpt>
      <trkpt lat="48.7047" lon="-3.40263">
        <ele>82</ele>
        <time>2015-01-18T08:11:29Z</time>
      </trkpt>
      <trkpt lat="48.70463" lon="-3.40266">
        <ele>82</ele>
        <time>2015-01-18T08:11:30Z</time>
      </trkpt>
      <trkpt lat="48.70456" lon="-3.40269">
        <ele>82</ele>
        <time>2015-01-18T08:11:31Z</time>
      </trkpt>
      <trkpt lat="48.70449" lon="-3.40272">
        <ele>82</ele>
        <time>2015-01-18T08:11:32Z</time>
      </trkpt>
      <trkpt lat="48.70443" lon="-3.40274">
        <ele>82</ele>
        <time>2015-01-18T08:11:33Z</time>
      </trkpt>
      <trkpt lat="48.70436" lon="-3.40277">
        <ele>82</ele>
        <time>2015-01-18T08:11:34Z</time>
      </trkpt>
      <trkpt lat="48.70429" lon="-3.40279">
        <ele>82</ele>
        <time>2015-01-18T08:11:35Z</time>
      </trkpt>
      <trkpt lat="48.70422" lon="-3.4028">
        <ele>82</ele>
        <time>2015-01-18T08:11:36Z</time>
      </trkpt>
      <trkpt lat="48.70415" lon="-3.40281">
        <ele>82</ele>
        <time>2015-01-18T08:11:37Z</time>
      </trkpt>
      <trkpt lat="48.70408" lon="-3.40282">
        <ele>82</ele>
        <time>2015-01-18T08:11:38Z</time>
      </trkpt>
      <trkpt lat="48.70401" lon="-3.40283">
        <ele>82</ele>
        <time>2015-01-18T08:11:39Z</time>
      </trkpt>
      <trkpt lat="48.70393" lon="-3.40283">
        <ele>82</ele>
        <time>2015-01-18T08:11:40Z</time>
      </trkpt>
      <trkpt lat="48.70387" lon="-3.40283">
        <ele>82</ele>
        <time>2015-01-18T08:11:41Z</time>
      </trkpt>
      <trkpt lat="48.7038" lon="-3.40284">
        <ele>82</ele>
        <time>2015-01-18T08:11:42Z</time>
      </trkpt>
      <trkpt lat="48.70373" lon="-3.40284">
        <ele>82</ele>
        <time>2015-01-18T08:11:43Z</time>
      </trkpt>
      <trkpt lat="48.70366" lon="-3.40284">
        <ele>82</ele>
        <time>2015-01-18T08:11:44Z</time>
      </trkpt>
      <trkpt lat="48.70359" lon="-3.40284">
        <ele>82</ele>
        <time>2015-01-18T08:11:45Z</time>
      </trkpt>
      <trkpt lat="48.70351" lon="-3.40284">
        <ele>82</ele>
        <time>2015-01-18T08:11:46Z</time>
      </trkpt>
      <trkpt lat="48.70344" lon="-3.40283">
        <ele>82</ele>
        <time>2015-01-18T08:11:47Z</time>
      </trkpt>
      <trkpt lat="48.70337" lon="-3.40283">
        <ele>82</ele>
        <time>2015-01-18T08:11:48Z</time>
      </trkpt>
      <trkpt lat="48.7033" lon="-3.40282">
        <ele>82</ele>
        <time>2015-01-18T08:11:49Z</time>
      </trkpt>
      <trkpt lat="48.70322" lon="-3.40282">
        <ele>82</ele>
        <time>2015-01-18T08:11:50Z</time>
      </trkpt>
      <trkpt lat="48.70315" lon="-3.40281">
        <ele>82</ele>
        <time>2015-01-18T08:11:51Z</time>
      </trkpt>
      <trkpt lat="48.70309" lon="-3.4028">
        <ele>82</ele>
        <time>2015-01-18T08:11:52Z</time>
      </trkpt>
      <trkpt lat="48.70302" lon="-3.4028">
        <ele>82</ele>
        <time>2015-01-18T08:11:53Z</time>
      </trkpt>
      <trkpt lat="48.70295" lon="-3.4028">
        <ele>82</ele>
        <time>2015-01-18T08:11:54Z</time>
      </trkpt>
      <trkpt lat="48.70282" lon="-3.4028">
        <ele>82</ele>
        <time>2015-01-18T08:11:56Z</time>
      </trkpt>
      <trkpt lat="48.70275" lon="-3.40281">
        <ele>82</ele>
        <time>2015-01-18T08:11:57Z</time>
      </trkpt>
      <trkpt lat="48.70268" lon="-3.40282">
        <ele>82</ele>
        <time>2015-01-18T08:11:58Z</time>
      </trkpt>
      <trkpt lat="48.70262" lon="-3.40284">
        <ele>82</ele>
        <time>2015-01-18T08:11:59Z</time>
      </trkpt>
      <trkpt lat="48.70255" lon="-3.40286">
        <ele>82</ele>
        <time>2015-01-18T08:12:00Z</time>
      </trkpt>
      <trkpt lat="48.70249" lon="-3.40288">
        <ele>82</ele>
        <time>2015-01-18T08:12:01Z</time>
      </trkpt>
      <trkpt lat="48.70242" lon="-3.4029">
        <ele>82</ele>
        <time>2015-01-18T08:12:02Z</time>
      </trkpt>
      <trkpt lat="48.70237" lon="-3.40292">
        <ele>82</ele>
        <time>2015-01-18T08:12:03Z</time>
      </trkpt>
      <trkpt lat="48.70231" lon="-3.40295">
        <ele>82</ele>
        <time>2015-01-18T08:12:04Z</time>
      </trkpt>
      <trkpt lat="48.70226" lon="-3.40297">
        <ele>82</ele>
        <time>2015-01-18T08:12:05Z</time>
      </trkpt>
      <trkpt lat="48.7022" lon="-3.40299">
        <ele>82</ele>
        <time>2015-01-18T08:12:06Z</time>
      </trkpt>
      <trkpt lat="48.70215" lon="-3.40301">
        <ele>82</ele>
        <time>2015-01-18T08:12:07Z</time>
      </trkpt>
      <trkpt lat="48.7021" lon="-3.40302">
        <ele>82</ele>
        <time>2015-01-18T08:12:08Z</time>
      </trkpt>
      <trkpt lat="48.70205" lon="-3.40304">
        <ele>82</ele>
        <time>2015-01-18T08:12:09Z</time>
      </trkpt>
      <trkpt lat="48.702" lon="-3.40306">
        <ele>82</ele>
        <time>2015-01-18T08:12:10Z</time>
      </trkpt>
      <trkpt lat="48.70195" lon="-3.40308">
        <ele>82</ele>
        <time>2015-01-18T08:12:11Z</time>
      </trkpt>
      <trkpt lat="48.70189" lon="-3.4031">
        <ele>82</ele>
        <time>2015-01-18T08:12:12Z</time>
      </trkpt>
      <trkpt lat="48.70184" lon="-3.40312">
        <ele>82</ele>
        <time>2015-01-18T08:12:13Z</time>
      </trkpt>
      <trkpt lat="48.70178" lon="-3.40313">
        <ele>82</ele>
        <time>2015-01-18T08:12:14Z</time>
      </trkpt>
      <trkpt lat="48.70172" lon="-3.40314">
        <ele>82</ele>
        <time>2015-01-18T08:12:15Z</time>
      </trkpt>
      <trkpt lat="48.70166" lon="-3.40315">
        <ele>82</ele>
        <time>2015-01-18T08:12:16Z</time>
      </trkpt>
      <trkpt lat="48.70161" lon="-3.40316">
        <ele>82</ele>
        <time>2015-01-18T08:12:17Z</time>
      </trkpt>
      <trkpt lat="48.70155" lon="-3.40317">
        <ele>82</ele>
        <time>2015-01-18T08:12:18Z</time>
      </trkpt>
      <trkpt lat="48.70149" lon="-3.40318">
        <ele>82</ele>
        <time>2015-01-18T08:12:19Z</time>
      </trkpt>
      <trkpt lat="48.70144" lon="-3.40319">
        <ele>82</ele>
        <time>2015-01-18T08:12:20Z</time>
      </trkpt>
      <trkpt lat="48.70138" lon="-3.40319">
        <ele>82</ele>
        <time>2015-01-18T08:12:21Z</time>
      </trkpt>
      <trkpt lat="48.70133" lon="-3.4032">
        <ele>82</ele>
        <time>2015-01-18T08:12:22Z</time>
      </trkpt>
      <trkpt lat="48.70127" lon="-3.4032">
        <ele>82</ele>
        <time>2015-01-18T08:12:23Z</time>
      </trkpt>
      <trkpt lat="48.70122" lon="-3.40321">
        <ele>82</ele>
        <time>2015-01-18T08:12:24Z</time>
      </trkpt>
      <trkpt lat="48.70117" lon="-3.40321">
        <ele>82</ele>
        <time>2015-01-18T08:12:25Z</time>
      </trkpt>
      <trkpt lat="48.70111" lon="-3.40322">
        <ele>82</ele>
        <time>2015-01-18T08:12:26Z</time>
      </trkpt>
      <trkpt lat="48.70106" lon="-3.40322">
        <ele>83</ele>
        <time>2015-01-18T08:12:27Z</time>
      </trkpt>
      <trkpt lat="48.701" lon="-3.40322">
        <ele>83</ele>
        <time>2015-01-18T08:12:28Z</time>
      </trkpt>
      <trkpt lat="48.70095" lon="-3.40323">
        <ele>83</ele>
        <time>2015-01-18T08:12:29Z</time>
      </trkpt>
      <trkpt lat="48.70089" lon="-3.40323">
        <ele>83</ele>
        <time>2015-01-18T08:12:30Z</time>
      </trkpt>
      <trkpt lat="48.70084" lon="-3.40323">
        <ele>83</ele>
        <time>2015-01-18T08:12:31Z</time>
      </trkpt>
      <trkpt lat="48.70078" lon="-3.40324">
        <ele>83</ele>
        <time>2015-01-18T08:12:32Z</time>
      </trkpt>
      <trkpt lat="48.70072" lon="-3.40325">
        <ele>83</ele>
        <time>2015-01-18T08:12:33Z</time>
      </trkpt>
      <trkpt lat="48.70066" lon="-3.40325">
        <ele>83</ele>
        <time>2015-01-18T08:12:34Z</time>
      </trkpt>
      <trkpt lat="48.70061" lon="-3.40326">
        <ele>83</ele>
        <time>2015-01-18T08:12:35Z</time>
      </trkpt>
      <trkpt lat="48.70055" lon="-3.40327">
        <ele>84</ele>
        <time>2015-01-18T08:12:36Z</time>
      </trkpt>
      <trkpt lat="48.70049" lon="-3.40328">
        <ele>84</ele>
        <time>2015-01-18T08:12:37Z</time>
      </trkpt>
      <trkpt lat="48.70044" lon="-3.40328">
        <ele>84</ele>
        <time>2015-01-18T08:12:38Z</time>
      </trkpt>
      <trkpt lat="48.70038" lon="-3.40329">
        <ele>84</ele>
        <time>2015-01-18T08:12:39Z</time>
      </trkpt>
      <trkpt lat="48.70032" lon="-3.4033">
        <ele>84</ele>
        <time>2015-01-18T08:12:40Z</time>
      </trkpt>
      <trkpt lat="48.70026" lon="-3.40331">
        <ele>84</ele>
        <time>2015-01-18T08:12:41Z</time>
      </trkpt>
      <trkpt lat="48.7002" lon="-3.40332">
        <ele>84</ele>
        <time>2015-01-18T08:12:42Z</time>
      </trkpt>
      <trkpt lat="48.70014" lon="-3.40332">
        <ele>84</ele>
        <time>2015-01-18T08:12:43Z</time>
      </trkpt>
      <trkpt lat="48.70008" lon="-3.40333">
        <ele>84</ele>
        <time>2015-01-18T08:12:44Z</time>
      </trkpt>
      <trkpt lat="48.70002" lon="-3.40333">
        <ele>84</ele>
        <time>2015-01-18T08:12:45Z</time>
      </trkpt>
      <trkpt lat="48.69997" lon="-3.40334">
        <ele>84</ele>
        <time>2015-01-18T08:12:46Z</time>
      </trkpt>
      <trkpt lat="48.69991" lon="-3.40334">
        <ele>84</ele>
        <time>2015-01-18T08:12:47Z</time>
      </trkpt>
      <trkpt lat="48.69985" lon="-3.40335">
        <ele>84</ele>
        <time>2015-01-18T08:12:48Z</time>
      </trkpt>
      <trkpt lat="48.69979" lon="-3.40335">
        <ele>84</ele>
        <time>2015-01-18T08:12:49Z</time>
      </trkpt>
      <trkpt lat="48.69974" lon="-3.40336">
        <ele>84</ele>
        <time>2015-01-18T08:12:50Z</time>
      </trkpt>
      <trkpt lat="48.69968" lon="-3.40336">
        <ele>84</ele>
        <time>2015-01-18T08:12:51Z</time>
      </trkpt>
      <trkpt lat="48.69962" lon="-3.40337">
        <ele>84</ele>
        <time>2015-01-18T08:12:52Z</time>
      </trkpt>
      <trkpt lat="48.69955" lon="-3.40338">
        <ele>84</ele>
        <time>2015-01-18T08:12:53Z</time>
      </trkpt>
      <trkpt lat="48.69949" lon="-3.40338">
        <ele>84</ele>
        <time>2015-01-18T08:12:54Z</time>
      </trkpt>
      <trkpt lat="48.69943" lon="-3.40339">
        <ele>84</ele>
        <time>2015-01-18T08:12:55Z</time>
      </trkpt>
      <trkpt lat="48.69937" lon="-3.40339">
        <ele>84</ele>
        <time>2015-01-18T08:12:56Z</time>
      </trkpt>
      <trkpt lat="48.69931" lon="-3.4034">
        <ele>84</ele>
        <time>2015-01-18T08:12:57Z</time>
      </trkpt>
      <trkpt lat="48.69925" lon="-3.4034">
        <ele>84</ele>
        <time>2015-01-18T08:12:58Z</time>
      </trkpt>
      <trkpt lat="48.69918" lon="-3.40341">
        <ele>84</ele>
        <time>2015-01-18T08:12:59Z</time>
      </trkpt>
      <trkpt lat="48.69912" lon="-3.40341">
        <ele>84</ele>
        <time>2015-01-18T08:13:00Z</time>
      </trkpt>
      <trkpt lat="48.69906" lon="-3.40342">
        <ele>85</ele>
        <time>2015-01-18T08:13:01Z</time>
      </trkpt>
      <trkpt lat="48.699" lon="-3.40343">
        <ele>85</ele>
        <time>2015-01-18T08:13:02Z</time>
      </trkpt>
      <trkpt lat="48.69894" lon="-3.40343">
        <ele>85</ele>
        <time>2015-01-18T08:13:03Z</time>
      </trkpt>
      <trkpt lat="48.69888" lon="-3.40344">
        <ele>85</ele>
        <time>2015-01-18T08:13:04Z</time>
      </trkpt>
      <trkpt lat="48.69881" lon="-3.40345">
        <ele>85</ele>
        <time>2015-01-18T08:13:05Z</time>
      </trkpt>
      <trkpt lat="48.69875" lon="-3.40345">
        <ele>85</ele>
        <time>2015-01-18T08:13:06Z</time>
      </trkpt>
      <trkpt lat="48.69869" lon="-3.40347">
        <ele>85</ele>
        <time>2015-01-18T08:13:07Z</time>
      </trkpt>
      <trkpt lat="48.69863" lon="-3.40349">
        <ele>85</ele>
        <time>2015-01-18T08:13:08Z</time>
      </trkpt>
      <trkpt lat="48.69857" lon="-3.40351">
        <ele>85</ele>
        <time>2015-01-18T08:13:09Z</time>
      </trkpt>
      <trkpt lat="48.69852" lon="-3.40353">
        <ele>85</ele>
        <time>2015-01-18T08:13:10Z</time>
      </trkpt>
      <trkpt lat="48.69846" lon="-3.40356">
        <ele>85</ele>
        <time>2015-01-18T08:13:11Z</time>
      </trkpt>
      <trkpt lat="48.6984" lon="-3.4036">
        <ele>85</ele>
        <time>2015-01-18T08:13:12Z</time>
      </trkpt>
      <trkpt lat="48.69834" lon="-3.40363">
        <ele>85</ele>
        <time>2015-01-18T08:13:13Z</time>
      </trkpt>
      <trkpt lat="48.69828" lon="-3.40366">
        <ele>85</ele>
        <time>2015-01-18T08:13:14Z</time>
      </trkpt>
      <trkpt lat="48.69823" lon="-3.4037">
        <ele>85</ele>
        <time>2015-01-18T08:13:15Z</time>
      </trkpt>
      <trkpt lat="48.69817" lon="-3.40373">
        <ele>85</ele>
        <time>2015-01-18T08:13:16Z</time>
      </trkpt>
      <trkpt lat="48.69812" lon="-3.40377">
        <ele>85</ele>
        <time>2015-01-18T08:13:17Z</time>
      </trkpt>
      <trkpt lat="48.69806" lon="-3.40381">
        <ele>85</ele>
        <time>2015-01-18T08:13:18Z</time>
      </trkpt>
      <trkpt lat="48.69801" lon="-3.40384">
        <ele>85</ele>
        <time>2015-01-18T08:13:19Z</time>
      </trkpt>
      <trkpt lat="48.69795" lon="-3.40387">
        <ele>85</ele>
        <time>2015-01-18T08:13:20Z</time>
      </trkpt>
      <trkpt lat="48.6979" lon="-3.40389">
        <ele>86</ele>
        <time>2015-01-18T08:13:21Z</time>
      </trkpt>
      <trkpt lat="48.69784" lon="-3.40392">
        <ele>86</ele>
        <time>2015-01-18T08:13:22Z</time>
      </trkpt>
      <trkpt lat="48.69778" lon="-3.40394">
        <ele>86</ele>
        <time>2015-01-18T08:13:23Z</time>
      </trkpt>
      <trkpt lat="48.69771" lon="-3.40396">
        <ele>86</ele>
        <time>2015-01-18T08:13:24Z</time>
      </trkpt>
      <trkpt lat="48.69765" lon="-3.40397">
        <ele>86</ele>
        <time>2015-01-18T08:13:25Z</time>
      </trkpt>
      <trkpt lat="48.69758" lon="-3.40399">
        <ele>86</ele>
        <time>2015-01-18T08:13:26Z</time>
      </trkpt>
      <trkpt lat="48.69751" lon="-3.40401">
        <ele>86</ele>
        <time>2015-01-18T08:13:27Z</time>
      </trkpt>
      <trkpt lat="48.69744" lon="-3.40402">
        <ele>86</ele>
        <time>2015-01-18T08:13:28Z</time>
      </trkpt>
      <trkpt lat="48.69738" lon="-3.40403">
        <ele>86</ele>
        <time>2015-01-18T08:13:29Z</time>
      </trkpt>
      <trkpt lat="48.6973" lon="-3.40404">
        <ele>86</ele>
        <time>2015-01-18T08:13:30Z</time>
      </trkpt>
      <trkpt lat="48.69723" lon="-3.40405">
        <ele>86</ele>
        <time>2015-01-18T08:13:31Z</time>
      </trkpt>
      <trkpt lat="48.69715" lon="-3.40405">
        <ele>86</ele>
        <time>2015-01-18T08:13:32Z</time>
      </trkpt>
      <trkpt lat="48.69708" lon="-3.40405">
        <ele>86</ele>
        <time>2015-01-18T08:13:33Z</time>
      </trkpt>
      <trkpt lat="48.697" lon="-3.40405">
        <ele>86</ele>
        <time>2015-01-18T08:13:34Z</time>
      </trkpt>
      <trkpt lat="48.69693" lon="-3.40404">
        <ele>86</ele>
        <time>2015-01-18T08:13:35Z</time>
      </trkpt>
      <trkpt lat="48.69685" lon="-3.40404">
        <ele>86</ele>
        <time>2015-01-18T08:13:36Z</time>
      </trkpt>
      <trkpt lat="48.69671" lon="-3.40404">
        <ele>86</ele>
        <time>2015-01-18T08:13:38Z</time>
      </trkpt>
      <trkpt lat="48.69664" lon="-3.40405">
        <ele>86</ele>
        <time>2015-01-18T08:13:39Z</time>
      </trkpt>
      <trkpt lat="48.69656" lon="-3.40406">
        <ele>86</ele>
        <time>2015-01-18T08:13:40Z</time>
      </trkpt>
      <trkpt lat="48.69649" lon="-3.40408">
        <ele>86</ele>
        <time>2015-01-18T08:13:41Z</time>
      </trkpt>
      <trkpt lat="48.69642" lon="-3.40409">
        <ele>86</ele>
        <time>2015-01-18T08:13:42Z</time>
      </trkpt>
      <trkpt lat="48.69635" lon="-3.4041">
        <ele>86</ele>
        <time>2015-01-18T08:13:43Z</time>
      </trkpt>
      <trkpt lat="48.69628" lon="-3.40411">
        <ele>86</ele>
        <time>2015-01-18T08:13:44Z</time>
      </trkpt>
      <trkpt lat="48.69621" lon="-3.40411">
        <ele>86</ele>
        <time>2015-01-18T08:13:45Z</time>
      </trkpt>
      <trkpt lat="48.69615" lon="-3.40412">
        <ele>86</ele>
        <time>2015-01-18T08:13:46Z</time>
      </trkpt>
      <trkpt lat="48.69601" lon="-3.40411">
        <ele>86</ele>
        <time>2015-01-18T08:13:48Z</time>
      </trkpt>
      <trkpt lat="48.69594" lon="-3.4041">
        <ele>86</ele>
        <time>2015-01-18T08:13:49Z</time>
      </trkpt>
      <trkpt lat="48.69588" lon="-3.40408">
        <ele>85</ele>
        <time>2015-01-18T08:13:50Z</time>
      </trkpt>
      <trkpt lat="48.69581" lon="-3.40406">
        <ele>85</ele>
        <time>2015-01-18T08:13:51Z</time>
      </trkpt>
      <trkpt lat="48.69574" lon="-3.40404">
        <ele>85</ele>
        <time>2015-01-18T08:13:52Z</time>
      </trkpt>
      <trkpt lat="48.69567" lon="-3.40402">
        <ele>85</ele>
        <time>2015-01-18T08:13:53Z</time>
      </trkpt>
      <trkpt lat="48.69559" lon="-3.404">
        <ele>85</ele>
        <time>2015-01-18T08:13:54Z</time>
      </trkpt>
      <trkpt lat="48.69553" lon="-3.40397">
        <ele>85</ele>
        <time>2015-01-18T08:13:55Z</time>
      </trkpt>
      <trkpt lat="48.69545" lon="-3.40395">
        <ele>85</ele>
        <time>2015-01-18T08:13:56Z</time>
      </trkpt>
      <trkpt lat="48.69538" lon="-3.40392">
        <ele>84</ele>
        <time>2015-01-18T08:13:57Z</time>
      </trkpt>
      <trkpt lat="48.69531" lon="-3.4039">
        <ele>84</ele>
        <time>2015-01-18T08:13:58Z</time>
      </trkpt>
      <trkpt lat="48.69524" lon="-3.40388">
        <ele>84</ele>
        <time>2015-01-18T08:13:59Z</time>
      </trkpt>
      <trkpt lat="48.69517" lon="-3.40386">
        <ele>84</ele>
        <time>2015-01-18T08:14:00Z</time>
      </trkpt>
      <trkpt lat="48.6951" lon="-3.40384">
        <ele>84</ele>
        <time>2015-01-18T08:14:01Z</time>
      </trkpt>
      <trkpt lat="48.69503" lon="-3.40382">
        <ele>84</ele>
        <time>2015-01-18T08:14:02Z</time>
      </trkpt>
      <trkpt lat="48.69495" lon="-3.40381">
        <ele>84</ele>
        <time>2015-01-18T08:14:03Z</time>
      </trkpt>
      <trkpt lat="48.69488" lon="-3.4038">
        <ele>83</ele>
        <time>2015-01-18T08:14:04Z</time>
      </trkpt>
      <trkpt lat="48.69481" lon="-3.40379">
        <ele>83</ele>
        <time>2015-01-18T08:14:05Z</time>
      </trkpt>
      <trkpt lat="48.69474" lon="-3.40378">
        <ele>83</ele>
        <time>2015-01-18T08:14:06Z</time>
      </trkpt>
      <trkpt lat="48.69466" lon="-3.40378">
        <ele>83</ele>
        <time>2015-01-18T08:14:07Z</time>
      </trkpt>
      <trkpt lat="48.6946" lon="-3.40378">
        <ele>83</ele>
        <time>2015-01-18T08:14:08Z</time>
      </trkpt>
      <trkpt lat="48.69453" lon="-3.40377">
        <ele>83</ele>
        <time>2015-01-18T08:14:09Z</time>
      </trkpt>
      <trkpt lat="48.69447" lon="-3.40377">
        <ele>83</ele>
        <time>2015-01-18T08:14:10Z</time>
      </trkpt>
      <trkpt lat="48.6944" lon="-3.40377">
        <ele>83</ele>
        <time>2015-01-18T08:14:11Z</time>
      </trkpt>
      <trkpt lat="48.69434" lon="-3.40377">
        <ele>83</ele>
        <time>2015-01-18T08:14:12Z</time>
      </trkpt>
      <trkpt lat="48.69427" lon="-3.40377">
        <ele>83</ele>
        <time>2015-01-18T08:14:13Z</time>
      </trkpt>
      <trkpt lat="48.6942" lon="-3.40376">
        <ele>83</ele>
        <time>2015-01-18T08:14:14Z</time>
      </trkpt>
      <trkpt lat="48.69413" lon="-3.40375">
        <ele>83</ele>
        <time>2015-01-18T08:14:15Z</time>
      </trkpt>
      <trkpt lat="48.69406" lon="-3.40374">
        <ele>83</ele>
        <time>2015-01-18T08:14:16Z</time>
      </trkpt>
      <trkpt lat="48.69399" lon="-3.40373">
        <ele>83</ele>
        <time>2015-01-18T08:14:17Z</time>
      </trkpt>
      <trkpt lat="48.69392" lon="-3.40372">
        <ele>83</ele>
        <time>2015-01-18T08:14:18Z</time>
      </trkpt>
      <trkpt lat="48.69386" lon="-3.4037">
        <ele>83</ele>
        <time>2015-01-18T08:14:19Z</time>
      </trkpt>
      <trkpt lat="48.69379" lon="-3.40368">
        <ele>82</ele>
        <time>2015-01-18T08:14:20Z</time>
      </trkpt>
      <trkpt lat="48.69372" lon="-3.40365">
        <ele>82</ele>
        <time>2015-01-18T08:14:21Z</time>
      </trkpt>
      <trkpt lat="48.69365" lon="-3.40362">
        <ele>82</ele>
        <time>2015-01-18T08:14:22Z</time>
      </trkpt>
      <trkpt lat="48.69358" lon="-3.40359">
        <ele>82</ele>
        <time>2015-01-18T08:14:23Z</time>
      </trkpt>
      <trkpt lat="48.69352" lon="-3.40355">
        <ele>82</ele>
        <time>2015-01-18T08:14:24Z</time>
      </trkpt>
      <trkpt lat="48.69345" lon="-3.40351">
        <ele>82</ele>
        <time>2015-01-18T08:14:25Z</time>
      </trkpt>
      <trkpt lat="48.69339" lon="-3.40348">
        <ele>82</ele>
        <time>2015-01-18T08:14:26Z</time>
      </trkpt>
      <trkpt lat="48.69332" lon="-3.40343">
        <ele>82</ele>
        <time>2015-01-18T08:14:27Z</time>
      </trkpt>
      <trkpt lat="48.69325" lon="-3.40339">
        <ele>81</ele>
        <time>2015-01-18T08:14:28Z</time>
      </trkpt>
      <trkpt lat="48.69318" lon="-3.40335">
        <ele>81</ele>
        <time>2015-01-18T08:14:29Z</time>
      </trkpt>
      <trkpt lat="48.69311" lon="-3.40331">
        <ele>81</ele>
        <time>2015-01-18T08:14:30Z</time>
      </trkpt>
      <trkpt lat="48.69304" lon="-3.40326">
        <ele>81</ele>
        <time>2015-01-18T08:14:31Z</time>
      </trkpt>
      <trkpt lat="48.69297" lon="-3.40321">
        <ele>81</ele>
        <time>2015-01-18T08:14:32Z</time>
      </trkpt>
      <trkpt lat="48.69291" lon="-3.40316">
        <ele>80</ele>
        <time>2015-01-18T08:14:33Z</time>
      </trkpt>
      <trkpt lat="48.69284" lon="-3.4031">
        <ele>80</ele>
        <time>2015-01-18T08:14:34Z</time>
      </trkpt>
      <trkpt lat="48.69278" lon="-3.40303">
        <ele>80</ele>
        <time>2015-01-18T08:14:35Z</time>
      </trkpt>
      <trkpt lat="48.69272" lon="-3.40297">
        <ele>80</ele>
        <time>2015-01-18T08:14:36Z</time>
      </trkpt>
      <trkpt lat="48.69266" lon="-3.40291">
        <ele>80</ele>
        <time>2015-01-18T08:14:37Z</time>
      </trkpt>
      <trkpt lat="48.6926" lon="-3.40284">
        <ele>80</ele>
        <time>2015-01-18T08:14:38Z</time>
      </trkpt>
      <trkpt lat="48.69254" lon="-3.40278">
        <ele>79</ele>
        <time>2015-01-18T08:14:39Z</time>
      </trkpt>
      <trkpt lat="48.69248" lon="-3.40271">
        <ele>79</ele>
        <time>2015-01-18T08:14:40Z</time>
      </trkpt>
      <trkpt lat="48.69241" lon="-3.40264">
        <ele>79</ele>
        <time>2015-01-18T08:14:41Z</time>
      </trkpt>
      <trkpt lat="48.69235" lon="-3.40258">
        <ele>79</ele>
        <time>2015-01-18T08:14:42Z</time>
      </trkpt>
      <trkpt lat="48.69229" lon="-3.40251">
        <ele>79</ele>
        <time>2015-01-18T08:14:43Z</time>
      </trkpt>
      <trkpt lat="48.69223" lon="-3.40244">
        <ele>79</ele>
        <time>2015-01-18T08:14:44Z</time>
      </trkpt>
      <trkpt lat="48.69216" lon="-3.40237">
        <ele>78</ele>
        <time>2015-01-18T08:14:45Z</time>
      </trkpt>
      <trkpt lat="48.6921" lon="-3.4023">
        <ele>78</ele>
        <time>2015-01-18T08:14:46Z</time>
      </trkpt>
      <trkpt lat="48.69203" lon="-3.40224">
        <ele>78</ele>
        <time>2015-01-18T08:14:47Z</time>
      </trkpt>
      <trkpt lat="48.69196" lon="-3.40217">
        <ele>78</ele>
        <time>2015-01-18T08:14:48Z</time>
      </trkpt>
      <trkpt lat="48.69189" lon="-3.40211">
        <ele>77</ele>
        <time>2015-01-18T08:14:49Z</time>
      </trkpt>
      <trkpt lat="48.69181" lon="-3.40205">
        <ele>77</ele>
        <time>2015-01-18T08:14:50Z</time>
      </trkpt>
      <trkpt lat="48.69173" lon="-3.40199">
        <ele>77</ele>
        <time>2015-01-18T08:14:51Z</time>
      </trkpt>
      <trkpt lat="48.69165" lon="-3.40193">
        <ele>77</ele>
        <time>2015-01-18T08:14:52Z</time>
      </trkpt>
      <trkpt lat="48.69158" lon="-3.40188">
        <ele>77</ele>
        <time>2015-01-18T08:14:53Z</time>
      </trkpt>
      <trkpt lat="48.69151" lon="-3.40183">
        <ele>76</ele>
        <time>2015-01-18T08:14:54Z</time>
      </trkpt>
      <trkpt lat="48.69143" lon="-3.40178">
        <ele>76</ele>
        <time>2015-01-18T08:14:55Z</time>
      </trkpt>
      <trkpt lat="48.69136" lon="-3.40173">
        <ele>76</ele>
        <time>2015-01-18T08:14:56Z</time>
      </trkpt>
      <trkpt lat="48.69128" lon="-3.40167">
        <ele>76</ele>
        <time>2015-01-18T08:14:57Z</time>
      </trkpt>
      <trkpt lat="48.69121" lon="-3.40161">
        <ele>76</ele>
        <time>2015-01-18T08:14:58Z</time>
      </trkpt>
      <trkpt lat="48.69114" lon="-3.40156">
        <ele>76</ele>
        <time>2015-01-18T08:14:59Z</time>
      </trkpt>
      <trkpt lat="48.69107" lon="-3.4015">
        <ele>76</ele>
        <time>2015-01-18T08:15:00Z</time>
      </trkpt>
      <trkpt lat="48.69101" lon="-3.40144">
        <ele>76</ele>
        <time>2015-01-18T08:15:01Z</time>
      </trkpt>
      <trkpt lat="48.69094" lon="-3.40138">
        <ele>76</ele>
        <time>2015-01-18T08:15:02Z</time>
      </trkpt>
      <trkpt lat="48.69087" lon="-3.40132">
        <ele>76</ele>
        <time>2015-01-18T08:15:03Z</time>
      </trkpt>
      <trkpt lat="48.6908" lon="-3.40125">
        <ele>76</ele>
        <time>2015-01-18T08:15:04Z</time>
      </trkpt>
      <trkpt lat="48.69074" lon="-3.40119">
        <ele>76</ele>
        <time>2015-01-18T08:15:05Z</time>
      </trkpt>
      <trkpt lat="48.69067" lon="-3.40112">
        <ele>76</ele>
        <time>2015-01-18T08:15:06Z</time>
      </trkpt>
      <trkpt lat="48.6906" lon="-3.40105">
        <ele>76</ele>
        <time>2015-01-18T08:15:07Z</time>
      </trkpt>
      <trkpt lat="48.69053" lon="-3.40099">
        <ele>75</ele>
        <time>2015-01-18T08:15:08Z</time>
      </trkpt>
      <trkpt lat="48.69047" lon="-3.40092">
        <ele>75</ele>
        <time>2015-01-18T08:15:09Z</time>
      </trkpt>
      <trkpt lat="48.6904" lon="-3.40086">
        <ele>75</ele>
        <time>2015-01-18T08:15:10Z</time>
      </trkpt>
      <trkpt lat="48.69033" lon="-3.4008">
        <ele>75</ele>
        <time>2015-01-18T08:15:11Z</time>
      </trkpt>
      <trkpt lat="48.69026" lon="-3.40074">
        <ele>75</ele>
        <time>2015-01-18T08:15:12Z</time>
      </trkpt>
      <trkpt lat="48.69018" lon="-3.40069">
        <ele>75</ele>
        <time>2015-01-18T08:15:13Z</time>
      </trkpt>
      <trkpt lat="48.69011" lon="-3.40064">
        <ele>75</ele>
        <time>2015-01-18T08:15:14Z</time>
      </trkpt>
      <trkpt lat="48.69003" lon="-3.4006">
        <ele>75</ele>
        <time>2015-01-18T08:15:15Z</time>
      </trkpt>
      <trkpt lat="48.68996" lon="-3.40056">
        <ele>75</ele>
        <time>2015-01-18T08:15:16Z</time>
      </trkpt>
      <trkpt lat="48.68988" lon="-3.40053">
        <ele>75</ele>
        <time>2015-01-18T08:15:17Z</time>
      </trkpt>
      <trkpt lat="48.68981" lon="-3.4005">
        <ele>75</ele>
        <time>2015-01-18T08:15:18Z</time>
      </trkpt>
      <trkpt lat="48.68974" lon="-3.40046">
        <ele>75</ele>
        <time>2015-01-18T08:15:19Z</time>
      </trkpt>
      <trkpt lat="48.68966" lon="-3.40044">
        <ele>75</ele>
        <time>2015-01-18T08:15:20Z</time>
      </trkpt>
      <trkpt lat="48.68959" lon="-3.40041">
        <ele>75</ele>
        <time>2015-01-18T08:15:21Z</time>
      </trkpt>
      <trkpt lat="48.68952" lon="-3.40038">
        <ele>75</ele>
        <time>2015-01-18T08:15:22Z</time>
      </trkpt>
      <trkpt lat="48.68945" lon="-3.40036">
        <ele>75</ele>
        <time>2015-01-18T08:15:23Z</time>
      </trkpt>
      <trkpt lat="48.68938" lon="-3.40033">
        <ele>75</ele>
        <time>2015-01-18T08:15:24Z</time>
      </trkpt>
      <trkpt lat="48.68931" lon="-3.40031">
        <ele>75</ele>
        <time>2015-01-18T08:15:25Z</time>
      </trkpt>
      <trkpt lat="48.68924" lon="-3.4003">
        <ele>75</ele>
        <time>2015-01-18T08:15:26Z</time>
      </trkpt>
      <trkpt lat="48.68918" lon="-3.40028">
        <ele>75</ele>
        <time>2015-01-18T08:15:27Z</time>
      </trkpt>
      <trkpt lat="48.68911" lon="-3.40027">
        <ele>75</ele>
        <time>2015-01-18T08:15:28Z</time>
      </trkpt>
      <trkpt lat="48.68904" lon="-3.40025">
        <ele>75</ele>
        <time>2015-01-18T08:15:29Z</time>
      </trkpt>
      <trkpt lat="48.68897" lon="-3.40024">
        <ele>75</ele>
        <time>2015-01-18T08:15:30Z</time>
      </trkpt>
      <trkpt lat="48.6889" lon="-3.40023">
        <ele>75</ele>
        <time>2015-01-18T08:15:31Z</time>
      </trkpt>
      <trkpt lat="48.68883" lon="-3.40022">
        <ele>75</ele>
        <time>2015-01-18T08:15:32Z</time>
      </trkpt>
      <trkpt lat="48.68876" lon="-3.40022">
        <ele>75</ele>
        <time>2015-01-18T08:15:33Z</time>
      </trkpt>
      <trkpt lat="48.68869" lon="-3.40021">
        <ele>75</ele>
        <time>2015-01-18T08:15:34Z</time>
      </trkpt>
      <trkpt lat="48.68862" lon="-3.40021">
        <ele>75</ele>
        <time>2015-01-18T08:15:35Z</time>
      </trkpt>
      <trkpt lat="48.68855" lon="-3.4002">
        <ele>75</ele>
        <time>2015-01-18T08:15:36Z</time>
      </trkpt>
      <trkpt lat="48.68848" lon="-3.40019">
        <ele>75</ele>
        <time>2015-01-18T08:15:37Z</time>
      </trkpt>
      <trkpt lat="48.68842" lon="-3.40017">
        <ele>75</ele>
        <time>2015-01-18T08:15:38Z</time>
      </trkpt>
      <trkpt lat="48.68835" lon="-3.40016">
        <ele>75</ele>
        <time>2015-01-18T08:15:39Z</time>
      </trkpt>
      <trkpt lat="48.68828" lon="-3.40014">
        <ele>75</ele>
        <time>2015-01-18T08:15:40Z</time>
      </trkpt>
      <trkpt lat="48.68821" lon="-3.40012">
        <ele>75</ele>
        <time>2015-01-18T08:15:41Z</time>
      </trkpt>
      <trkpt lat="48.68814" lon="-3.4001">
        <ele>75</ele>
        <time>2015-01-18T08:15:42Z</time>
      </trkpt>
      <trkpt lat="48.68808" lon="-3.40008">
        <ele>75</ele>
        <time>2015-01-18T08:15:43Z</time>
      </trkpt>
      <trkpt lat="48.68801" lon="-3.40005">
        <ele>75</ele>
        <time>2015-01-18T08:15:44Z</time>
      </trkpt>
      <trkpt lat="48.68795" lon="-3.40003">
        <ele>75</ele>
        <time>2015-01-18T08:15:45Z</time>
      </trkpt>
      <trkpt lat="48.68788" lon="-3.40001">
        <ele>75</ele>
        <time>2015-01-18T08:15:46Z</time>
      </trkpt>
      <trkpt lat="48.68781" lon="-3.39999">
        <ele>75</ele>
        <time>2015-01-18T08:15:47Z</time>
      </trkpt>
      <trkpt lat="48.68775" lon="-3.39997">
        <ele>75</ele>
        <time>2015-01-18T08:15:48Z</time>
      </trkpt>
      <trkpt lat="48.68768" lon="-3.39995">
        <ele>75</ele>
        <time>2015-01-18T08:15:49Z</time>
      </trkpt>
      <trkpt lat="48.68761" lon="-3.39992">
        <ele>75</ele>
        <time>2015-01-18T08:15:50Z</time>
      </trkpt>
      <trkpt lat="48.68754" lon="-3.3999">
        <ele>75</ele>
        <time>2015-01-18T08:15:51Z</time>
      </trkpt>
      <trkpt lat="48.68747" lon="-3.39988">
        <ele>75</ele>
        <time>2015-01-18T08:15:52Z</time>
      </trkpt>
      <trkpt lat="48.68741" lon="-3.39986">
        <ele>75</ele>
        <time>2015-01-18T08:15:53Z</time>
      </trkpt>
      <trkpt lat="48.68734" lon="-3.39984">
        <ele>75</ele>
        <time>2015-01-18T08:15:54Z</time>
      </trkpt>
      <trkpt lat="48.68727" lon="-3.39982">
        <ele>75</ele>
        <time>2015-01-18T08:15:55Z</time>
      </trkpt>
      <trkpt lat="48.6872" lon="-3.3998">
        <ele>75</ele>
        <time>2015-01-18T08:15:56Z</time>
      </trkpt>
      <trkpt lat="48.68713" lon="-3.39978">
        <ele>75</ele>
        <time>2015-01-18T08:15:57Z</time>
      </trkpt>
      <trkpt lat="48.68706" lon="-3.39976">
        <ele>75</ele>
        <time>2015-01-18T08:15:58Z</time>
      </trkpt>
      <trkpt lat="48.68699" lon="-3.39974">
        <ele>75</ele>
        <time>2015-01-18T08:15:59Z</time>
      </trkpt>
      <trkpt lat="48.68692" lon="-3.39972">
        <ele>75</ele>
        <time>2015-01-18T08:16:00Z</time>
      </trkpt>
      <trkpt lat="48.68685" lon="-3.3997">
        <ele>75</ele>
        <time>2015-01-18T08:16:01Z</time>
      </trkpt>
      <trkpt lat="48.68678" lon="-3.39967">
        <ele>75</ele>
        <time>2015-01-18T08:16:02Z</time>
      </trkpt>
      <trkpt lat="48.68671" lon="-3.39965">
        <ele>75</ele>
        <time>2015-01-18T08:16:03Z</time>
      </trkpt>
      <trkpt lat="48.68664" lon="-3.39963">
        <ele>75</ele>
        <time>2015-01-18T08:16:04Z</time>
      </trkpt>
      <trkpt lat="48.68657" lon="-3.39961">
        <ele>75</ele>
        <time>2015-01-18T08:16:05Z</time>
      </trkpt>
      <trkpt lat="48.6865" lon="-3.39958">
        <ele>75</ele>
        <time>2015-01-18T08:16:06Z</time>
      </trkpt>
      <trkpt lat="48.68643" lon="-3.39956">
        <ele>75</ele>
        <time>2015-01-18T08:16:07Z</time>
      </trkpt>
      <trkpt lat="48.68636" lon="-3.39953">
        <ele>75</ele>
        <time>2015-01-18T08:16:08Z</time>
      </trkpt>
      <trkpt lat="48.68629" lon="-3.39951">
        <ele>75</ele>
        <time>2015-01-18T08:16:09Z</time>
      </trkpt>
      <trkpt lat="48.68621" lon="-3.39949">
        <ele>75</ele>
        <time>2015-01-18T08:16:10Z</time>
      </trkpt>
      <trkpt lat="48.68614" lon="-3.39948">
        <ele>75</ele>
        <time>2015-01-18T08:16:11Z</time>
      </trkpt>
      <trkpt lat="48.68607" lon="-3.39947">
        <ele>75</ele>
        <time>2015-01-18T08:16:12Z</time>
      </trkpt>
      <trkpt lat="48.68599" lon="-3.39947">
        <ele>75</ele>
        <time>2015-01-18T08:16:13Z</time>
      </trkpt>
      <trkpt lat="48.68592" lon="-3.39948">
        <ele>75</ele>
        <time>2015-01-18T08:16:14Z</time>
      </trkpt>
      <trkpt lat="48.68584" lon="-3.39948">
        <ele>75</ele>
        <time>2015-01-18T08:16:15Z</time>
      </trkpt>
      <trkpt lat="48.68576" lon="-3.39949">
        <ele>75</ele>
        <time>2015-01-18T08:16:16Z</time>
      </trkpt>
      <trkpt lat="48.68569" lon="-3.39951">
        <ele>75</ele>
        <time>2015-01-18T08:16:17Z</time>
      </trkpt>
      <trkpt lat="48.68561" lon="-3.39952">
        <ele>75</ele>
        <time>2015-01-18T08:16:18Z</time>
      </trkpt>
      <trkpt lat="48.68554" lon="-3.39954">
        <ele>75</ele>
        <time>2015-01-18T08:16:19Z</time>
      </trkpt>
      <trkpt lat="48.68547" lon="-3.39956">
        <ele>75</ele>
        <time>2015-01-18T08:16:20Z</time>
      </trkpt>
      <trkpt lat="48.68539" lon="-3.39958">
        <ele>75</ele>
        <time>2015-01-18T08:16:21Z</time>
      </trkpt>
      <trkpt lat="48.68532" lon="-3.3996">
        <ele>75</ele>
        <time>2015-01-18T08:16:22Z</time>
      </trkpt>
      <trkpt lat="48.68525" lon="-3.39962">
        <ele>75</ele>
        <time>2015-01-18T08:16:23Z</time>
      </trkpt>
      <trkpt lat="48.68518" lon="-3.39965">
        <ele>75</ele>
        <time>2015-01-18T08:16:24Z</time>
      </trkpt>
      <trkpt lat="48.68511" lon="-3.39966">
        <ele>75</ele>
        <time>2015-01-18T08:16:25Z</time>
      </trkpt>
      <trkpt lat="48.68504" lon="-3.39968">
        <ele>75</ele>
        <time>2015-01-18T08:16:26Z</time>
      </trkpt>
      <trkpt lat="48.68497" lon="-3.39969">
        <ele>75</ele>
        <time>2015-01-18T08:16:27Z</time>
      </trkpt>
      <trkpt lat="48.6849" lon="-3.3997">
        <ele>75</ele>
        <time>2015-01-18T08:16:28Z</time>
      </trkpt>
      <trkpt lat="48.68483" lon="-3.3997">
        <ele>75</ele>
        <time>2015-01-18T08:16:29Z</time>
      </trkpt>
      <trkpt lat="48.68476" lon="-3.3997">
        <ele>75</ele>
        <time>2015-01-18T08:16:30Z</time>
      </trkpt>
      <trkpt lat="48.68469" lon="-3.39968">
        <ele>75</ele>
        <time>2015-01-18T08:16:31Z</time>
      </trkpt>
      <trkpt lat="48.68462" lon="-3.39966">
        <ele>75</ele>
        <time>2015-01-18T08:16:32Z</time>
      </trkpt>
      <trkpt lat="48.68456" lon="-3.39963">
        <ele>75</ele>
        <time>2015-01-18T08:16:33Z</time>
      </trkpt>
      <trkpt lat="48.6845" lon="-3.39959">
        <ele>75</ele>
        <time>2015-01-18T08:16:34Z</time>
      </trkpt>
      <trkpt lat="48.68444" lon="-3.39954">
        <ele>75</ele>
        <time>2015-01-18T08:16:35Z</time>
      </trkpt>
      <trkpt lat="48.68438" lon="-3.39949">
        <ele>75</ele>
        <time>2015-01-18T08:16:36Z</time>
      </trkpt>
      <trkpt lat="48.68432" lon="-3.39943">
        <ele>75</ele>
        <time>2015-01-18T08:16:37Z</time>
      </trkpt>
      <trkpt lat="48.68426" lon="-3.39938">
        <ele>75</ele>
        <time>2015-01-18T08:16:38Z</time>
      </trkpt>
      <trkpt lat="48.6842" lon="-3.39932">
        <ele>75</ele>
        <time>2015-01-18T08:16:39Z</time>
      </trkpt>
      <trkpt lat="48.68415" lon="-3.39927">
        <ele>75</ele>
        <time>2015-01-18T08:16:40Z</time>
      </trkpt>
      <trkpt lat="48.68409" lon="-3.39923">
        <ele>75</ele>
        <time>2015-01-18T08:16:41Z</time>
      </trkpt>
      <trkpt lat="48.68403" lon="-3.39919">
        <ele>75</ele>
        <time>2015-01-18T08:16:42Z</time>
      </trkpt>
      <trkpt lat="48.68397" lon="-3.39915">
        <ele>75</ele>
        <time>2015-01-18T08:16:43Z</time>
      </trkpt>
      <trkpt lat="48.68391" lon="-3.39912">
        <ele>75</ele>
        <time>2015-01-18T08:16:44Z</time>
      </trkpt>
      <trkpt lat="48.68385" lon="-3.39909">
        <ele>75</ele>
        <time>2015-01-18T08:16:45Z</time>
      </trkpt>
      <trkpt lat="48.68378" lon="-3.39906">
        <ele>75</ele>
        <time>2015-01-18T08:16:46Z</time>
      </trkpt>
      <trkpt lat="48.68372" lon="-3.39903">
        <ele>75</ele>
        <time>2015-01-18T08:16:47Z</time>
      </trkpt>
      <trkpt lat="48.68365" lon="-3.399">
        <ele>75</ele>
        <time>2015-01-18T08:16:48Z</time>
      </trkpt>
      <trkpt lat="48.68358" lon="-3.39897">
        <ele>75</ele>
        <time>2015-01-18T08:16:49Z</time>
      </trkpt>
      <trkpt lat="48.68351" lon="-3.39895">
        <ele>75</ele>
        <time>2015-01-18T08:16:50Z</time>
      </trkpt>
      <trkpt lat="48.68344" lon="-3.39893">
        <ele>75</ele>
        <time>2015-01-18T08:16:51Z</time>
      </trkpt>
      <trkpt lat="48.68337" lon="-3.3989">
        <ele>75</ele>
        <time>2015-01-18T08:16:52Z</time>
      </trkpt>
      <trkpt lat="48.6833" lon="-3.39887">
        <ele>75</ele>
        <time>2015-01-18T08:16:53Z</time>
      </trkpt>
      <trkpt lat="48.68323" lon="-3.39884">
        <ele>75</ele>
        <time>2015-01-18T08:16:54Z</time>
      </trkpt>
      <trkpt lat="48.68317" lon="-3.39881">
        <ele>75</ele>
        <time>2015-01-18T08:16:55Z</time>
      </trkpt>
      <trkpt lat="48.6831" lon="-3.39879">
        <ele>75</ele>
        <time>2015-01-18T08:16:56Z</time>
      </trkpt>
      <trkpt lat="48.68303" lon="-3.39876">
        <ele>75</ele>
        <time>2015-01-18T08:16:57Z</time>
      </trkpt>
      <trkpt lat="48.68296" lon="-3.39873">
        <ele>75</ele>
        <time>2015-01-18T08:16:58Z</time>
      </trkpt>
      <trkpt lat="48.6829" lon="-3.39871">
        <ele>75</ele>
        <time>2015-01-18T08:16:59Z</time>
      </trkpt>
      <trkpt lat="48.68282" lon="-3.39868">
        <ele>75</ele>
        <time>2015-01-18T08:17:00Z</time>
      </trkpt>
      <trkpt lat="48.68275" lon="-3.39866">
        <ele>75</ele>
        <time>2015-01-18T08:17:01Z</time>
      </trkpt>
      <trkpt lat="48.68268" lon="-3.39863">
        <ele>75</ele>
        <time>2015-01-18T08:17:02Z</time>
      </trkpt>
      <trkpt lat="48.68261" lon="-3.3986">
        <ele>75</ele>
        <time>2015-01-18T08:17:03Z</time>
      </trkpt>
      <trkpt lat="48.68254" lon="-3.39857">
        <ele>75</ele>
        <time>2015-01-18T08:17:04Z</time>
      </trkpt>
      <trkpt lat="48.68247" lon="-3.39853">
        <ele>75</ele>
        <time>2015-01-18T08:17:05Z</time>
      </trkpt>
      <trkpt lat="48.68241" lon="-3.39848">
        <ele>75</ele>
        <time>2015-01-18T08:17:06Z</time>
      </trkpt>
      <trkpt lat="48.68234" lon="-3.39844">
        <ele>75</ele>
        <time>2015-01-18T08:17:07Z</time>
      </trkpt>
      <trkpt lat="48.68228" lon="-3.39839">
        <ele>75</ele>
        <time>2015-01-18T08:17:08Z</time>
      </trkpt>
      <trkpt lat="48.68222" lon="-3.39834">
        <ele>75</ele>
        <time>2015-01-18T08:17:09Z</time>
      </trkpt>
      <trkpt lat="48.68216" lon="-3.39828">
        <ele>75</ele>
        <time>2015-01-18T08:17:10Z</time>
      </trkpt>
      <trkpt lat="48.68209" lon="-3.39822">
        <ele>75</ele>
        <time>2015-01-18T08:17:11Z</time>
      </trkpt>
      <trkpt lat="48.68204" lon="-3.39815">
        <ele>75</ele>
        <time>2015-01-18T08:17:12Z</time>
      </trkpt>
      <trkpt lat="48.68198" lon="-3.39808">
        <ele>75</ele>
        <time>2015-01-18T08:17:13Z</time>
      </trkpt>
      <trkpt lat="48.68193" lon="-3.39801">
        <ele>75</ele>
        <time>2015-01-18T08:17:14Z</time>
      </trkpt>
      <trkpt lat="48.68187" lon="-3.39793">
        <ele>75</ele>
        <time>2015-01-18T08:17:15Z</time>
      </trkpt>
      <trkpt lat="48.68182" lon="-3.39786">
        <ele>75</ele>
        <time>2015-01-18T08:17:16Z</time>
      </trkpt>
      <trkpt lat="48.68176" lon="-3.39779">
        <ele>75</ele>
        <time>2015-01-18T08:17:17Z</time>
      </trkpt>
      <trkpt lat="48.68171" lon="-3.39773">
        <ele>75</ele>
        <time>2015-01-18T08:17:18Z</time>
      </trkpt>
      <trkpt lat="48.68165" lon="-3.39766">
        <ele>75</ele>
        <time>2015-01-18T08:17:19Z</time>
      </trkpt>
      <trkpt lat="48.68159" lon="-3.3976">
        <ele>75</ele>
        <time>2015-01-18T08:17:20Z</time>
      </trkpt>
      <trkpt lat="48.68153" lon="-3.39754">
        <ele>75</ele>
        <time>2015-01-18T08:17:21Z</time>
      </trkpt>
      <trkpt lat="48.68147" lon="-3.39748">
        <ele>75</ele>
        <time>2015-01-18T08:17:22Z</time>
      </trkpt>
      <trkpt lat="48.6814" lon="-3.39741">
        <ele>75</ele>
        <time>2015-01-18T08:17:23Z</time>
      </trkpt>
      <trkpt lat="48.68134" lon="-3.39735">
        <ele>75</ele>
        <time>2015-01-18T08:17:24Z</time>
      </trkpt>
      <trkpt lat="48.68128" lon="-3.39729">
        <ele>75</ele>
        <time>2015-01-18T08:17:25Z</time>
      </trkpt>
      <trkpt lat="48.68122" lon="-3.39723">
        <ele>75</ele>
        <time>2015-01-18T08:17:26Z</time>
      </trkpt>
      <trkpt lat="48.68115" lon="-3.39718">
        <ele>75</ele>
        <time>2015-01-18T08:17:27Z</time>
      </trkpt>
      <trkpt lat="48.68109" lon="-3.39712">
        <ele>75</ele>
        <time>2015-01-18T08:17:28Z</time>
      </trkpt>
      <trkpt lat="48.68103" lon="-3.39707">
        <ele>75</ele>
        <time>2015-01-18T08:17:29Z</time>
      </trkpt>
      <trkpt lat="48.68097" lon="-3.39702">
        <ele>75</ele>
        <time>2015-01-18T08:17:30Z</time>
      </trkpt>
      <trkpt lat="48.68091" lon="-3.39697">
        <ele>75</ele>
        <time>2015-01-18T08:17:31Z</time>
      </trkpt>
      <trkpt lat="48.68084" lon="-3.39692">
        <ele>75</ele>
        <time>2015-01-18T08:17:32Z</time>
      </trkpt>
      <trkpt lat="48.68078" lon="-3.39686">
        <ele>75</ele>
        <time>2015-01-18T08:17:33Z</time>
      </trkpt>
      <trkpt lat="48.68072" lon="-3.39681">
        <ele>75</ele>
        <time>2015-01-18T08:17:34Z</time>
      </trkpt>
      <trkpt lat="48.68066" lon="-3.39676">
        <ele>75</ele>
        <time>2015-01-18T08:17:35Z</time>
      </trkpt>
      <trkpt lat="48.6806" lon="-3.3967">
        <ele>75</ele>
        <time>2015-01-18T08:17:36Z</time>
      </trkpt>
      <trkpt lat="48.68053" lon="-3.39665">
        <ele>75</ele>
        <time>2015-01-18T08:17:37Z</time>
      </trkpt>
      <trkpt lat="48.68047" lon="-3.3966">
        <ele>75</ele>
        <time>2015-01-18T08:17:38Z</time>
      </trkpt>
      <trkpt lat="48.68041" lon="-3.39655">
        <ele>75</ele>
        <time>2015-01-18T08:17:39Z</time>
      </trkpt>
      <trkpt lat="48.68036" lon="-3.3965">
        <ele>75</ele>
        <time>2015-01-18T08:17:40Z</time>
      </trkpt>
      <trkpt lat="48.6803" lon="-3.39645">
        <ele>75</ele>
        <time>2015-01-18T08:17:41Z</time>
      </trkpt>
      <trkpt lat="48.68024" lon="-3.3964">
        <ele>75</ele>
        <time>2015-01-18T08:17:42Z</time>
      </trkpt>
      <trkpt lat="48.68018" lon="-3.39635">
        <ele>75</ele>
        <time>2015-01-18T08:17:43Z</time>
      </trkpt>
      <trkpt lat="48.68013" lon="-3.3963">
        <ele>75</ele>
        <time>2015-01-18T08:17:44Z</time>
      </trkpt>
      <trkpt lat="48.68008" lon="-3.39625">
        <ele>75</ele>
        <time>2015-01-18T08:17:45Z</time>
      </trkpt>
      <trkpt lat="48.68002" lon="-3.3962">
        <ele>75</ele>
        <time>2015-01-18T08:17:46Z</time>
      </trkpt>
      <trkpt lat="48.67997" lon="-3.39615">
        <ele>75</ele>
        <time>2015-01-18T08:17:47Z</time>
      </trkpt>
      <trkpt lat="48.67991" lon="-3.3961">
        <ele>75</ele>
        <time>2015-01-18T08:17:48Z</time>
      </trkpt>
      <trkpt lat="48.67986" lon="-3.39606">
        <ele>75</ele>
        <time>2015-01-18T08:17:49Z</time>
      </trkpt>
      <trkpt lat="48.6798" lon="-3.39601">
        <ele>75</ele>
        <time>2015-01-18T08:17:50Z</time>
      </trkpt>
      <trkpt lat="48.67974" lon="-3.39598">
        <ele>75</ele>
        <time>2015-01-18T08:17:51Z</time>
      </trkpt>
      <trkpt lat="48.67969" lon="-3.39595">
        <ele>75</ele>
        <time>2015-01-18T08:17:52Z</time>
      </trkpt>
      <trkpt lat="48.67963" lon="-3.39592">
        <ele>75</ele>
        <time>2015-01-18T08:17:53Z</time>
      </trkpt>
      <trkpt lat="48.67957" lon="-3.3959">
        <ele>75</ele>
        <time>2015-01-18T08:17:54Z</time>
      </trkpt>
      <trkpt lat="48.67951" lon="-3.39589">
        <ele>75</ele>
        <time>2015-01-18T08:17:55Z</time>
      </trkpt>
      <trkpt lat="48.67945" lon="-3.39587">
        <ele>75</ele>
        <time>2015-01-18T08:17:56Z</time>
      </trkpt>
      <trkpt lat="48.67939" lon="-3.39586">
        <ele>76</ele>
        <time>2015-01-18T08:17:57Z</time>
      </trkpt>
      <trkpt lat="48.67933" lon="-3.39585">
        <ele>76</ele>
        <time>2015-01-18T08:17:58Z</time>
      </trkpt>
      <trkpt lat="48.67927" lon="-3.39585">
        <ele>76</ele>
        <time>2015-01-18T08:17:59Z</time>
      </trkpt>
      <trkpt lat="48.67922" lon="-3.39584">
        <ele>76</ele>
        <time>2015-01-18T08:18:00Z</time>
      </trkpt>
      <trkpt lat="48.67915" lon="-3.39584">
        <ele>77</ele>
        <time>2015-01-18T08:18:01Z</time>
      </trkpt>
      <trkpt lat="48.67909" lon="-3.39583">
        <ele>77</ele>
        <time>2015-01-18T08:18:02Z</time>
      </trkpt>
      <trkpt lat="48.67903" lon="-3.39582">
        <ele>77</ele>
        <time>2015-01-18T08:18:03Z</time>
      </trkpt>
      <trkpt lat="48.67896" lon="-3.39581">
        <ele>77</ele>
        <time>2015-01-18T08:18:04Z</time>
      </trkpt>
      <trkpt lat="48.67889" lon="-3.3958">
        <ele>77</ele>
        <time>2015-01-18T08:18:05Z</time>
      </trkpt>
      <trkpt lat="48.67882" lon="-3.39579">
        <ele>77</ele>
        <time>2015-01-18T08:18:06Z</time>
      </trkpt>
      <trkpt lat="48.67875" lon="-3.39578">
        <ele>77</ele>
        <time>2015-01-18T08:18:07Z</time>
      </trkpt>
      <trkpt lat="48.67868" lon="-3.39578">
        <ele>77</ele>
        <time>2015-01-18T08:18:08Z</time>
      </trkpt>
      <trkpt lat="48.67861" lon="-3.39578">
        <ele>77</ele>
        <time>2015-01-18T08:18:09Z</time>
      </trkpt>
      <trkpt lat="48.67854" lon="-3.39579">
        <ele>77</ele>
        <time>2015-01-18T08:18:10Z</time>
      </trkpt>
      <trkpt lat="48.67847" lon="-3.39579">
        <ele>77</ele>
        <time>2015-01-18T08:18:11Z</time>
      </trkpt>
      <trkpt lat="48.6784" lon="-3.3958">
        <ele>77</ele>
        <time>2015-01-18T08:18:12Z</time>
      </trkpt>
      <trkpt lat="48.67833" lon="-3.3958">
        <ele>77</ele>
        <time>2015-01-18T08:18:13Z</time>
      </trkpt>
      <trkpt lat="48.67827" lon="-3.39581">
        <ele>77</ele>
        <time>2015-01-18T08:18:14Z</time>
      </trkpt>
      <trkpt lat="48.6782" lon="-3.39581">
        <ele>77</ele>
        <time>2015-01-18T08:18:15Z</time>
      </trkpt>
      <trkpt lat="48.67813" lon="-3.39581">
        <ele>77</ele>
        <time>2015-01-18T08:18:16Z</time>
      </trkpt>
      <trkpt lat="48.67807" lon="-3.3958">
        <ele>77</ele>
        <time>2015-01-18T08:18:17Z</time>
      </trkpt>
      <trkpt lat="48.678" lon="-3.39579">
        <ele>77</ele>
        <time>2015-01-18T08:18:18Z</time>
      </trkpt>
      <trkpt lat="48.67794" lon="-3.39577">
        <ele>77</ele>
        <time>2015-01-18T08:18:19Z</time>
      </trkpt>
      <trkpt lat="48.67787" lon="-3.39574">
        <ele>77</ele>
        <time>2015-01-18T08:18:20Z</time>
      </trkpt>
      <trkpt lat="48.67781" lon="-3.39571">
        <ele>77</ele>
        <time>2015-01-18T08:18:21Z</time>
      </trkpt>
      <trkpt lat="48.67774" lon="-3.39568">
        <ele>77</ele>
        <time>2015-01-18T08:18:22Z</time>
      </trkpt>
      <trkpt lat="48.67768" lon="-3.39564">
        <ele>77</ele>
        <time>2015-01-18T08:18:23Z</time>
      </trkpt>
      <trkpt lat="48.67761" lon="-3.39562">
        <ele>77</ele>
        <time>2015-01-18T08:18:24Z</time>
      </trkpt>
      <trkpt lat="48.67754" lon="-3.39559">
        <ele>77</ele>
        <time>2015-01-18T08:18:25Z</time>
      </trkpt>
      <trkpt lat="48.67748" lon="-3.39556">
        <ele>77</ele>
        <time>2015-01-18T08:18:26Z</time>
      </trkpt>
      <trkpt lat="48.67741" lon="-3.39553">
        <ele>77</ele>
        <time>2015-01-18T08:18:27Z</time>
      </trkpt>
      <trkpt lat="48.67735" lon="-3.39551">
        <ele>77</ele>
        <time>2015-01-18T08:18:28Z</time>
      </trkpt>
      <trkpt lat="48.67728" lon="-3.39549">
        <ele>77</ele>
        <time>2015-01-18T08:18:29Z</time>
      </trkpt>
      <trkpt lat="48.67722" lon="-3.39547">
        <ele>77</ele>
        <time>2015-01-18T08:18:30Z</time>
      </trkpt>
      <trkpt lat="48.67716" lon="-3.39545">
        <ele>77</ele>
        <time>2015-01-18T08:18:31Z</time>
      </trkpt>
      <trkpt lat="48.67709" lon="-3.39543">
        <ele>78</ele>
        <time>2015-01-18T08:18:32Z</time>
      </trkpt>
      <trkpt lat="48.67703" lon="-3.39541">
        <ele>78</ele>
        <time>2015-01-18T08:18:33Z</time>
      </trkpt>
      <trkpt lat="48.67696" lon="-3.39539">
        <ele>78</ele>
        <time>2015-01-18T08:18:34Z</time>
      </trkpt>
      <trkpt lat="48.67689" lon="-3.39537">
        <ele>78</ele>
        <time>2015-01-18T08:18:35Z</time>
      </trkpt>
      <trkpt lat="48.67683" lon="-3.39534">
        <ele>78</ele>
        <time>2015-01-18T08:18:36Z</time>
      </trkpt>
      <trkpt lat="48.67676" lon="-3.39531">
        <ele>78</ele>
        <time>2015-01-18T08:18:37Z</time>
      </trkpt>
      <trkpt lat="48.6767" lon="-3.39528">
        <ele>78</ele>
        <time>2015-01-18T08:18:38Z</time>
      </trkpt>
      <trkpt lat="48.67664" lon="-3.39524">
        <ele>78</ele>
        <time>2015-01-18T08:18:39Z</time>
      </trkpt>
      <trkpt lat="48.67657" lon="-3.3952">
        <ele>78</ele>
        <time>2015-01-18T08:18:40Z</time>
      </trkpt>
      <trkpt lat="48.67651" lon="-3.39517">
        <ele>78</ele>
        <time>2015-01-18T08:18:41Z</time>
      </trkpt>
      <trkpt lat="48.67646" lon="-3.39512">
        <ele>79</ele>
        <time>2015-01-18T08:18:42Z</time>
      </trkpt>
      <trkpt lat="48.6764" lon="-3.39509">
        <ele>79</ele>
        <time>2015-01-18T08:18:43Z</time>
      </trkpt>
      <trkpt lat="48.67633" lon="-3.39505">
        <ele>79</ele>
        <time>2015-01-18T08:18:44Z</time>
      </trkpt>
      <trkpt lat="48.67627" lon="-3.39501">
        <ele>79</ele>
        <time>2015-01-18T08:18:45Z</time>
      </trkpt>
      <trkpt lat="48.67621" lon="-3.39497">
        <ele>79</ele>
        <time>2015-01-18T08:18:46Z</time>
      </trkpt>
      <trkpt lat="48.67615" lon="-3.39493">
        <ele>79</ele>
        <time>2015-01-18T08:18:47Z</time>
      </trkpt>
      <trkpt lat="48.67609" lon="-3.3949">
        <ele>79</ele>
        <time>2015-01-18T08:18:48Z</time>
      </trkpt>
      <trkpt lat="48.67602" lon="-3.39486">
        <ele>79</ele>
        <time>2015-01-18T08:18:49Z</time>
      </trkpt>
      <trkpt lat="48.67596" lon="-3.39483">
        <ele>79</ele>
        <time>2015-01-18T08:18:50Z</time>
      </trkpt>
      <trkpt lat="48.6759" lon="-3.39479">
        <ele>79</ele>
        <time>2015-01-18T08:18:51Z</time>
      </trkpt>
      <trkpt lat="48.67583" lon="-3.39475">
        <ele>79</ele>
        <time>2015-01-18T08:18:52Z</time>
      </trkpt>
      <trkpt lat="48.67577" lon="-3.39472">
        <ele>79</ele>
        <time>2015-01-18T08:18:53Z</time>
      </trkpt>
      <trkpt lat="48.67571" lon="-3.3947">
        <ele>79</ele>
        <time>2015-01-18T08:18:54Z</time>
      </trkpt>
      <trkpt lat="48.67564" lon="-3.39467">
        <ele>79</ele>
        <time>2015-01-18T08:18:55Z</time>
      </trkpt>
      <trkpt lat="48.67557" lon="-3.39464">
        <ele>79</ele>
        <time>2015-01-18T08:18:56Z</time>
      </trkpt>
      <trkpt lat="48.67551" lon="-3.39462">
        <ele>79</ele>
        <time>2015-01-18T08:18:57Z</time>
      </trkpt>
      <trkpt lat="48.67543" lon="-3.3946">
        <ele>79</ele>
        <time>2015-01-18T08:18:58Z</time>
      </trkpt>
      <trkpt lat="48.67537" lon="-3.39459">
        <ele>79</ele>
        <time>2015-01-18T08:18:59Z</time>
      </trkpt>
      <trkpt lat="48.6753" lon="-3.39458">
        <ele>79</ele>
        <time>2015-01-18T08:19:00Z</time>
      </trkpt>
      <trkpt lat="48.67522" lon="-3.39456">
        <ele>79</ele>
        <time>2015-01-18T08:19:01Z</time>
      </trkpt>
      <trkpt lat="48.67516" lon="-3.39455">
        <ele>79</ele>
        <time>2015-01-18T08:19:02Z</time>
      </trkpt>
      <trkpt lat="48.67508" lon="-3.39453">
        <ele>79</ele>
        <time>2015-01-18T08:19:03Z</time>
      </trkpt>
      <trkpt lat="48.67501" lon="-3.39451">
        <ele>79</ele>
        <time>2015-01-18T08:19:04Z</time>
      </trkpt>
      <trkpt lat="48.67494" lon="-3.39449">
        <ele>79</ele>
        <time>2015-01-18T08:19:05Z</time>
      </trkpt>
      <trkpt lat="48.67487" lon="-3.39447">
        <ele>79</ele>
        <time>2015-01-18T08:19:06Z</time>
      </trkpt>
      <trkpt lat="48.67481" lon="-3.39444">
        <ele>79</ele>
        <time>2015-01-18T08:19:07Z</time>
      </trkpt>
      <trkpt lat="48.67474" lon="-3.39442">
        <ele>79</ele>
        <time>2015-01-18T08:19:08Z</time>
      </trkpt>
      <trkpt lat="48.67468" lon="-3.39439">
        <ele>79</ele>
        <time>2015-01-18T08:19:09Z</time>
      </trkpt>
      <trkpt lat="48.67462" lon="-3.39436">
        <ele>79</ele>
        <time>2015-01-18T08:19:10Z</time>
      </trkpt>
      <trkpt lat="48.67456" lon="-3.39433">
        <ele>80</ele>
        <time>2015-01-18T08:19:11Z</time>
      </trkpt>
      <trkpt lat="48.6745" lon="-3.39429">
        <ele>80</ele>
        <time>2015-01-18T08:19:12Z</time>
      </trkpt>
      <trkpt lat="48.67443" lon="-3.39425">
        <ele>80</ele>
        <time>2015-01-18T08:19:13Z</time>
      </trkpt>
      <trkpt lat="48.67437" lon="-3.39422">
        <ele>80</ele>
        <time>2015-01-18T08:19:14Z</time>
      </trkpt>
      <trkpt lat="48.67431" lon="-3.39418">
        <ele>80</ele>
        <time>2015-01-18T08:19:15Z</time>
      </trkpt>
      <trkpt lat="48.67424" lon="-3.39414">
        <ele>80</ele>
        <time>2015-01-18T08:19:16Z</time>
      </trkpt>
      <trkpt lat="48.67418" lon="-3.39411">
        <ele>80</ele>
        <time>2015-01-18T08:19:17Z</time>
      </trkpt>
      <trkpt lat="48.67412" lon="-3.39408">
        <ele>80</ele>
        <time>2015-01-18T08:19:18Z</time>
      </trkpt>
      <trkpt lat="48.67406" lon="-3.39405">
        <ele>80</ele>
        <time>2015-01-18T08:19:19Z</time>
      </trkpt>
      <trkpt lat="48.674" lon="-3.39403">
        <ele>80</ele>
        <time>2015-01-18T08:19:20Z</time>
      </trkpt>
      <trkpt lat="48.67394" lon="-3.394">
        <ele>80</ele>
        <time>2015-01-18T08:19:21Z</time>
      </trkpt>
      <trkpt lat="48.67388" lon="-3.39398">
        <ele>80</ele>
        <time>2015-01-18T08:19:22Z</time>
      </trkpt>
      <trkpt lat="48.67382" lon="-3.39395">
        <ele>80</ele>
        <time>2015-01-18T08:19:23Z</time>
      </trkpt>
      <trkpt lat="48.67375" lon="-3.39393">
        <ele>80</ele>
        <time>2015-01-18T08:19:24Z</time>
      </trkpt>
      <trkpt lat="48.67369" lon="-3.39392">
        <ele>80</ele>
        <time>2015-01-18T08:19:25Z</time>
      </trkpt>
      <trkpt lat="48.67363" lon="-3.3939">
        <ele>80</ele>
        <time>2015-01-18T08:19:26Z</time>
      </trkpt>
      <trkpt lat="48.67357" lon="-3.39388">
        <ele>80</ele>
        <time>2015-01-18T08:19:27Z</time>
      </trkpt>
      <trkpt lat="48.67351" lon="-3.39387">
        <ele>80</ele>
        <time>2015-01-18T08:19:28Z</time>
      </trkpt>
      <trkpt lat="48.67345" lon="-3.39386">
        <ele>80</ele>
        <time>2015-01-18T08:19:29Z</time>
      </trkpt>
      <trkpt lat="48.67333" lon="-3.39387">
        <ele>81</ele>
        <time>2015-01-18T08:19:31Z</time>
      </trkpt>
      <trkpt lat="48.67326" lon="-3.39388">
        <ele>81</ele>
        <time>2015-01-18T08:19:32Z</time>
      </trkpt>
      <trkpt lat="48.6732" lon="-3.39389">
        <ele>81</ele>
        <time>2015-01-18T08:19:33Z</time>
      </trkpt>
      <trkpt lat="48.67314" lon="-3.3939">
        <ele>81</ele>
        <time>2015-01-18T08:19:34Z</time>
      </trkpt>
      <trkpt lat="48.67308" lon="-3.39392">
        <ele>81</ele>
        <time>2015-01-18T08:19:35Z</time>
      </trkpt>
      <trkpt lat="48.67302" lon="-3.39394">
        <ele>81</ele>
        <time>2015-01-18T08:19:36Z</time>
      </trkpt>
      <trkpt lat="48.67296" lon="-3.39396">
        <ele>81</ele>
        <time>2015-01-18T08:19:37Z</time>
      </trkpt>
      <trkpt lat="48.6729" lon="-3.39398">
        <ele>81</ele>
        <time>2015-01-18T08:19:38Z</time>
      </trkpt>
      <trkpt lat="48.67285" lon="-3.39401">
        <ele>81</ele>
        <time>2015-01-18T08:19:39Z</time>
      </trkpt>
      <trkpt lat="48.67279" lon="-3.39403">
        <ele>81</ele>
        <time>2015-01-18T08:19:40Z</time>
      </trkpt>
      <trkpt lat="48.67274" lon="-3.39406">
        <ele>81</ele>
        <time>2015-01-18T08:19:41Z</time>
      </trkpt>
      <trkpt lat="48.67268" lon="-3.39409">
        <ele>81</ele>
        <time>2015-01-18T08:19:42Z</time>
      </trkpt>
      <trkpt lat="48.67263" lon="-3.39412">
        <ele>82</ele>
        <time>2015-01-18T08:19:43Z</time>
      </trkpt>
      <trkpt lat="48.67257" lon="-3.39414">
        <ele>82</ele>
        <time>2015-01-18T08:19:44Z</time>
      </trkpt>
      <trkpt lat="48.67251" lon="-3.39416">
        <ele>82</ele>
        <time>2015-01-18T08:19:45Z</time>
      </trkpt>
      <trkpt lat="48.67245" lon="-3.39418">
        <ele>82</ele>
        <time>2015-01-18T08:19:46Z</time>
      </trkpt>
      <trkpt lat="48.67239" lon="-3.39419">
        <ele>82</ele>
        <time>2015-01-18T08:19:47Z</time>
      </trkpt>
      <trkpt lat="48.67233" lon="-3.39421">
        <ele>82</ele>
        <time>2015-01-18T08:19:48Z</time>
      </trkpt>
      <trkpt lat="48.67226" lon="-3.39422">
        <ele>83</ele>
        <time>2015-01-18T08:19:49Z</time>
      </trkpt>
      <trkpt lat="48.6722" lon="-3.39423">
        <ele>83</ele>
        <time>2015-01-18T08:19:50Z</time>
      </trkpt>
      <trkpt lat="48.67214" lon="-3.39424">
        <ele>83</ele>
        <time>2015-01-18T08:19:51Z</time>
      </trkpt>
      <trkpt lat="48.67208" lon="-3.39425">
        <ele>83</ele>
        <time>2015-01-18T08:19:52Z</time>
      </trkpt>
      <trkpt lat="48.67202" lon="-3.39427">
        <ele>83</ele>
        <time>2015-01-18T08:19:53Z</time>
      </trkpt>
      <trkpt lat="48.67196" lon="-3.39428">
        <ele>83</ele>
        <time>2015-01-18T08:19:54Z</time>
      </trkpt>
      <trkpt lat="48.6719" lon="-3.39429">
        <ele>83</ele>
        <time>2015-01-18T08:19:55Z</time>
      </trkpt>
      <trkpt lat="48.67184" lon="-3.39431">
        <ele>83</ele>
        <time>2015-01-18T08:19:56Z</time>
      </trkpt>
      <trkpt lat="48.67178" lon="-3.39432">
        <ele>84</ele>
        <time>2015-01-18T08:19:57Z</time>
      </trkpt>
      <trkpt lat="48.67172" lon="-3.39433">
        <ele>84</ele>
        <time>2015-01-18T08:19:58Z</time>
      </trkpt>
      <trkpt lat="48.67167" lon="-3.39434">
        <ele>84</ele>
        <time>2015-01-18T08:19:59Z</time>
      </trkpt>
      <trkpt lat="48.6716" lon="-3.39435">
        <ele>84</ele>
        <time>2015-01-18T08:20:00Z</time>
      </trkpt>
      <trkpt lat="48.67155" lon="-3.39436">
        <ele>84</ele>
        <time>2015-01-18T08:20:01Z</time>
      </trkpt>
      <trkpt lat="48.67149" lon="-3.39437">
        <ele>84</ele>
        <time>2015-01-18T08:20:02Z</time>
      </trkpt>
      <trkpt lat="48.67143" lon="-3.39438">
        <ele>84</ele>
        <time>2015-01-18T08:20:03Z</time>
      </trkpt>
      <trkpt lat="48.67137" lon="-3.39439">
        <ele>84</ele>
        <time>2015-01-18T08:20:04Z</time>
      </trkpt>
      <trkpt lat="48.67131" lon="-3.3944">
        <ele>85</ele>
        <time>2015-01-18T08:20:05Z</time>
      </trkpt>
      <trkpt lat="48.67125" lon="-3.39442">
        <ele>85</ele>
        <time>2015-01-18T08:20:06Z</time>
      </trkpt>
      <trkpt lat="48.67119" lon="-3.39443">
        <ele>85</ele>
        <time>2015-01-18T08:20:07Z</time>
      </trkpt>
      <trkpt lat="48.67113" lon="-3.39445">
        <ele>85</ele>
        <time>2015-01-18T08:20:08Z</time>
      </trkpt>
      <trkpt lat="48.67107" lon="-3.39446">
        <ele>85</ele>
        <time>2015-01-18T08:20:09Z</time>
      </trkpt>
      <trkpt lat="48.67102" lon="-3.39448">
        <ele>85</ele>
        <time>2015-01-18T08:20:10Z</time>
      </trkpt>
      <trkpt lat="48.67096" lon="-3.3945">
        <ele>85</ele>
        <time>2015-01-18T08:20:11Z</time>
      </trkpt>
      <trkpt lat="48.6709" lon="-3.39451">
        <ele>86</ele>
        <time>2015-01-18T08:20:12Z</time>
      </trkpt>
      <trkpt lat="48.67085" lon="-3.39453">
        <ele>86</ele>
        <time>2015-01-18T08:20:13Z</time>
      </trkpt>
      <trkpt lat="48.67078" lon="-3.39455">
        <ele>86</ele>
        <time>2015-01-18T08:20:14Z</time>
      </trkpt>
      <trkpt lat="48.67073" lon="-3.39457">
        <ele>86</ele>
        <time>2015-01-18T08:20:15Z</time>
      </trkpt>
      <trkpt lat="48.67067" lon="-3.39459">
        <ele>86</ele>
        <time>2015-01-18T08:20:16Z</time>
      </trkpt>
      <trkpt lat="48.67062" lon="-3.39462">
        <ele>86</ele>
        <time>2015-01-18T08:20:17Z</time>
      </trkpt>
      <trkpt lat="48.67057" lon="-3.39465">
        <ele>86</ele>
        <time>2015-01-18T08:20:18Z</time>
      </trkpt>
      <trkpt lat="48.67051" lon="-3.39469">
        <ele>86</ele>
        <time>2015-01-18T08:20:19Z</time>
      </trkpt>
      <trkpt lat="48.67047" lon="-3.39475">
        <ele>86</ele>
        <time>2015-01-18T08:20:20Z</time>
      </trkpt>
      <trkpt lat="48.67042" lon="-3.39482">
        <ele>86</ele>
        <time>2015-01-18T08:20:21Z</time>
      </trkpt>
      <trkpt lat="48.67038" lon="-3.3949">
        <ele>86</ele>
        <time>2015-01-18T08:20:22Z</time>
      </trkpt>
      <trkpt lat="48.67035" lon="-3.39498">
        <ele>86</ele>
        <time>2015-01-18T08:20:23Z</time>
      </trkpt>
      <trkpt lat="48.67031" lon="-3.39506">
        <ele>86</ele>
        <time>2015-01-18T08:20:24Z</time>
      </trkpt>
      <trkpt lat="48.67028" lon="-3.39515">
        <ele>86</ele>
        <time>2015-01-18T08:20:25Z</time>
      </trkpt>
      <trkpt lat="48.67025" lon="-3.39523">
        <ele>86</ele>
        <time>2015-01-18T08:20:26Z</time>
      </trkpt>
      <trkpt lat="48.67022" lon="-3.3953">
        <ele>86</ele>
        <time>2015-01-18T08:20:27Z</time>
      </trkpt>
      <trkpt lat="48.67019" lon="-3.39538">
        <ele>86</ele>
        <time>2015-01-18T08:20:28Z</time>
      </trkpt>
      <trkpt lat="48.67016" lon="-3.39545">
        <ele>86</ele>
        <time>2015-01-18T08:20:29Z</time>
      </trkpt>
      <trkpt lat="48.67013" lon="-3.39552">
        <ele>87</ele>
        <time>2015-01-18T08:20:30Z</time>
      </trkpt>
      <trkpt lat="48.67009" lon="-3.39559">
        <ele>87</ele>
        <time>2015-01-18T08:20:31Z</time>
      </trkpt>
      <trkpt lat="48.67005" lon="-3.39564">
        <ele>87</ele>
        <time>2015-01-18T08:20:32Z</time>
      </trkpt>
      <trkpt lat="48.67" lon="-3.39568">
        <ele>87</ele>
        <time>2015-01-18T08:20:33Z</time>
      </trkpt>
      <trkpt lat="48.66993" lon="-3.39571">
        <ele>87</ele>
        <time>2015-01-18T08:20:34Z</time>
      </trkpt>
      <trkpt lat="48.66986" lon="-3.39572">
        <ele>88</ele>
        <time>2015-01-18T08:20:35Z</time>
      </trkpt>
      <trkpt lat="48.66979" lon="-3.39574">
        <ele>88</ele>
        <time>2015-01-18T08:20:36Z</time>
      </trkpt>
      <trkpt lat="48.66973" lon="-3.39575">
        <ele>88</ele>
        <time>2015-01-18T08:20:37Z</time>
      </trkpt>
      <trkpt lat="48.66966" lon="-3.39578">
        <ele>88</ele>
        <time>2015-01-18T08:20:38Z</time>
      </trkpt>
      <trkpt lat="48.6696" lon="-3.3958">
        <ele>88</ele>
        <time>2015-01-18T08:20:39Z</time>
      </trkpt>
      <trkpt lat="48.66954" lon="-3.39583">
        <ele>89</ele>
        <time>2015-01-18T08:20:40Z</time>
      </trkpt>
      <trkpt lat="48.66947" lon="-3.39586">
        <ele>89</ele>
        <time>2015-01-18T08:20:41Z</time>
      </trkpt>
      <trkpt lat="48.66941" lon="-3.3959">
        <ele>89</ele>
        <time>2015-01-18T08:20:42Z</time>
      </trkpt>
      <trkpt lat="48.66934" lon="-3.39593">
        <ele>89</ele>
        <time>2015-01-18T08:20:43Z</time>
      </trkpt>
      <trkpt lat="48.66928" lon="-3.39597">
        <ele>89</ele>
        <time>2015-01-18T08:20:44Z</time>
      </trkpt>
      <trkpt lat="48.66921" lon="-3.396">
        <ele>89</ele>
        <time>2015-01-18T08:20:45Z</time>
      </trkpt>
      <trkpt lat="48.66915" lon="-3.39603">
        <ele>90</ele>
        <time>2015-01-18T08:20:46Z</time>
      </trkpt>
      <trkpt lat="48.66908" lon="-3.39606">
        <ele>90</ele>
        <time>2015-01-18T08:20:47Z</time>
      </trkpt>
      <trkpt lat="48.66902" lon="-3.39608">
        <ele>90</ele>
        <time>2015-01-18T08:20:48Z</time>
      </trkpt>
      <trkpt lat="48.66896" lon="-3.39612">
        <ele>90</ele>
        <time>2015-01-18T08:20:49Z</time>
      </trkpt>
      <trkpt lat="48.6689" lon="-3.39617">
        <ele>90</ele>
        <time>2015-01-18T08:20:50Z</time>
      </trkpt>
      <trkpt lat="48.66885" lon="-3.39623">
        <ele>90</ele>
        <time>2015-01-18T08:20:51Z</time>
      </trkpt>
      <trkpt lat="48.6688" lon="-3.3963">
        <ele>90</ele>
        <time>2015-01-18T08:20:52Z</time>
      </trkpt>
      <trkpt lat="48.66877" lon="-3.39639">
        <ele>90</ele>
        <time>2015-01-18T08:20:53Z</time>
      </trkpt>
      <trkpt lat="48.66873" lon="-3.39648">
        <ele>90</ele>
        <time>2015-01-18T08:20:54Z</time>
      </trkpt>
      <trkpt lat="48.6687" lon="-3.39657">
        <ele>90</ele>
        <time>2015-01-18T08:20:55Z</time>
      </trkpt>
      <trkpt lat="48.66867" lon="-3.39666">
        <ele>90</ele>
        <time>2015-01-18T08:20:56Z</time>
      </trkpt>
      <trkpt lat="48.66863" lon="-3.39675">
        <ele>90</ele>
        <time>2015-01-18T08:20:57Z</time>
      </trkpt>
      <trkpt lat="48.66859" lon="-3.39682">
        <ele>90</ele>
        <time>2015-01-18T08:20:58Z</time>
      </trkpt>
      <trkpt lat="48.66854" lon="-3.39689">
        <ele>90</ele>
        <time>2015-01-18T08:20:59Z</time>
      </trkpt>
      <trkpt lat="48.66848" lon="-3.39695">
        <ele>90</ele>
        <time>2015-01-18T08:21:00Z</time>
      </trkpt>
      <trkpt lat="48.66843" lon="-3.397">
        <ele>90</ele>
        <time>2015-01-18T08:21:01Z</time>
      </trkpt>
      <trkpt lat="48.66837" lon="-3.39704">
        <ele>90</ele>
        <time>2015-01-18T08:21:02Z</time>
      </trkpt>
      <trkpt lat="48.66831" lon="-3.39707">
        <ele>90</ele>
        <time>2015-01-18T08:21:03Z</time>
      </trkpt>
      <trkpt lat="48.66825" lon="-3.39709">
        <ele>90</ele>
        <time>2015-01-18T08:21:04Z</time>
      </trkpt>
      <trkpt lat="48.66818" lon="-3.39711">
        <ele>90</ele>
        <time>2015-01-18T08:21:05Z</time>
      </trkpt>
      <trkpt lat="48.66812" lon="-3.39713">
        <ele>90</ele>
        <time>2015-01-18T08:21:06Z</time>
      </trkpt>
      <trkpt lat="48.66806" lon="-3.39715">
        <ele>90</ele>
        <time>2015-01-18T08:21:07Z</time>
      </trkpt>
      <trkpt lat="48.668" lon="-3.39717">
        <ele>90</ele>
        <time>2015-01-18T08:21:08Z</time>
      </trkpt>
      <trkpt lat="48.66794" lon="-3.39719">
        <ele>90</ele>
        <time>2015-01-18T08:21:09Z</time>
      </trkpt>
      <trkpt lat="48.66789" lon="-3.3972">
        <ele>90</ele>
        <time>2015-01-18T08:21:10Z</time>
      </trkpt>
      <trkpt lat="48.66784" lon="-3.39721">
        <ele>90</ele>
        <time>2015-01-18T08:21:11Z</time>
      </trkpt>
      <trkpt lat="48.66779" lon="-3.39722">
        <ele>90</ele>
        <time>2015-01-18T08:21:12Z</time>
      </trkpt>
      <trkpt lat="48.66774" lon="-3.39724">
        <ele>91</ele>
        <time>2015-01-18T08:21:13Z</time>
      </trkpt>
      <trkpt lat="48.66769" lon="-3.39725">
        <ele>91</ele>
        <time>2015-01-18T08:21:14Z</time>
      </trkpt>
      <trkpt lat="48.66764" lon="-3.39726">
        <ele>91</ele>
        <time>2015-01-18T08:21:15Z</time>
      </trkpt>
      <trkpt lat="48.66759" lon="-3.39728">
        <ele>91</ele>
        <time>2015-01-18T08:21:16Z</time>
      </trkpt>
      <trkpt lat="48.66753" lon="-3.3973">
        <ele>91</ele>
        <time>2015-01-18T08:21:17Z</time>
      </trkpt>
      <trkpt lat="48.66747" lon="-3.39732">
        <ele>92</ele>
        <time>2015-01-18T08:21:18Z</time>
      </trkpt>
      <trkpt lat="48.66741" lon="-3.39734">
        <ele>92</ele>
        <time>2015-01-18T08:21:19Z</time>
      </trkpt>
      <trkpt lat="48.66735" lon="-3.39736">
        <ele>92</ele>
        <time>2015-01-18T08:21:20Z</time>
      </trkpt>
      <trkpt lat="48.66729" lon="-3.39738">
        <ele>92</ele>
        <time>2015-01-18T08:21:21Z</time>
      </trkpt>
      <trkpt lat="48.66722" lon="-3.39739">
        <ele>93</ele>
        <time>2015-01-18T08:21:22Z</time>
      </trkpt>
      <trkpt lat="48.66716" lon="-3.3974">
        <ele>93</ele>
        <time>2015-01-18T08:21:23Z</time>
      </trkpt>
      <trkpt lat="48.6671" lon="-3.39741">
        <ele>93</ele>
        <time>2015-01-18T08:21:24Z</time>
      </trkpt>
      <trkpt lat="48.66705" lon="-3.39742">
        <ele>93</ele>
        <time>2015-01-18T08:21:25Z</time>
      </trkpt>
      <trkpt lat="48.66699" lon="-3.39742">
        <ele>93</ele>
        <time>2015-01-18T08:21:26Z</time>
      </trkpt>
      <trkpt lat="48.66688" lon="-3.39742">
        <ele>94</ele>
        <time>2015-01-18T08:21:28Z</time>
      </trkpt>
      <trkpt lat="48.66683" lon="-3.39741">
        <ele>94</ele>
        <time>2015-01-18T08:21:29Z</time>
      </trkpt>
      <trkpt lat="48.66678" lon="-3.3974">
        <ele>94</ele>
        <time>2015-01-18T08:21:30Z</time>
      </trkpt>
      <trkpt lat="48.66673" lon="-3.39739">
        <ele>94</ele>
        <time>2015-01-18T08:21:31Z</time>
      </trkpt>
      <trkpt lat="48.66667" lon="-3.39738">
        <ele>94</ele>
        <time>2015-01-18T08:21:32Z</time>
      </trkpt>
      <trkpt lat="48.66662" lon="-3.39736">
        <ele>94</ele>
        <time>2015-01-18T08:21:33Z</time>
      </trkpt>
      <trkpt lat="48.66657" lon="-3.39734">
        <ele>95</ele>
        <time>2015-01-18T08:21:34Z</time>
      </trkpt>
      <trkpt lat="48.66651" lon="-3.39733">
        <ele>95</ele>
        <time>2015-01-18T08:21:35Z</time>
      </trkpt>
      <trkpt lat="48.66646" lon="-3.39731">
        <ele>95</ele>
        <time>2015-01-18T08:21:36Z</time>
      </trkpt>
      <trkpt lat="48.66641" lon="-3.39729">
        <ele>95</ele>
        <time>2015-01-18T08:21:37Z</time>
      </trkpt>
      <trkpt lat="48.66635" lon="-3.39727">
        <ele>95</ele>
        <time>2015-01-18T08:21:38Z</time>
      </trkpt>
      <trkpt lat="48.6663" lon="-3.39725">
        <ele>95</ele>
        <time>2015-01-18T08:21:39Z</time>
      </trkpt>
      <trkpt lat="48.66624" lon="-3.39723">
        <ele>95</ele>
        <time>2015-01-18T08:21:40Z</time>
      </trkpt>
      <trkpt lat="48.66618" lon="-3.39721">
        <ele>95</ele>
        <time>2015-01-18T08:21:41Z</time>
      </trkpt>
      <trkpt lat="48.66613" lon="-3.39718">
        <ele>95</ele>
        <time>2015-01-18T08:21:42Z</time>
      </trkpt>
      <trkpt lat="48.66607" lon="-3.39715">
        <ele>96</ele>
        <time>2015-01-18T08:21:43Z</time>
      </trkpt>
      <trkpt lat="48.666" lon="-3.39713">
        <ele>96</ele>
        <time>2015-01-18T08:21:44Z</time>
      </trkpt>
      <trkpt lat="48.66594" lon="-3.3971">
        <ele>96</ele>
        <time>2015-01-18T08:21:45Z</time>
      </trkpt>
      <trkpt lat="48.66588" lon="-3.39709">
        <ele>96</ele>
        <time>2015-01-18T08:21:46Z</time>
      </trkpt>
      <trkpt lat="48.66582" lon="-3.39707">
        <ele>96</ele>
        <time>2015-01-18T08:21:47Z</time>
      </trkpt>
      <trkpt lat="48.66576" lon="-3.39706">
        <ele>96</ele>
        <time>2015-01-18T08:21:48Z</time>
      </trkpt>
      <trkpt lat="48.6657" lon="-3.39706">
        <ele>96</ele>
        <time>2015-01-18T08:21:49Z</time>
      </trkpt>
      <trkpt lat="48.66564" lon="-3.39705">
        <ele>96</ele>
        <time>2015-01-18T08:21:50Z</time>
      </trkpt>
      <trkpt lat="48.66552" lon="-3.39705">
        <ele>97</ele>
        <time>2015-01-18T08:21:52Z</time>
      </trkpt>
      <trkpt lat="48.66546" lon="-3.39706">
        <ele>97</ele>
        <time>2015-01-18T08:21:53Z</time>
      </trkpt>
      <trkpt lat="48.6654" lon="-3.39705">
        <ele>97</ele>
        <time>2015-01-18T08:21:54Z</time>
      </trkpt>
      <trkpt lat="48.66534" lon="-3.39705">
        <ele>97</ele>
        <time>2015-01-18T08:21:55Z</time>
      </trkpt>
      <trkpt lat="48.66528" lon="-3.39705">
        <ele>97</ele>
        <time>2015-01-18T08:21:56Z</time>
      </trkpt>
      <trkpt lat="48.66523" lon="-3.39704">
        <ele>98</ele>
        <time>2015-01-18T08:21:57Z</time>
      </trkpt>
      <trkpt lat="48.66517" lon="-3.39704">
        <ele>98</ele>
        <time>2015-01-18T08:21:58Z</time>
      </trkpt>
      <trkpt lat="48.66511" lon="-3.39703">
        <ele>98</ele>
        <time>2015-01-18T08:21:59Z</time>
      </trkpt>
      <trkpt lat="48.66505" lon="-3.39703">
        <ele>98</ele>
        <time>2015-01-18T08:22:00Z</time>
      </trkpt>
      <trkpt lat="48.665" lon="-3.39702">
        <ele>98</ele>
        <time>2015-01-18T08:22:01Z</time>
      </trkpt>
      <trkpt lat="48.66494" lon="-3.39702">
        <ele>98</ele>
        <time>2015-01-18T08:22:02Z</time>
      </trkpt>
      <trkpt lat="48.66483" lon="-3.39703">
        <ele>99</ele>
        <time>2015-01-18T08:22:04Z</time>
      </trkpt>
      <trkpt lat="48.66477" lon="-3.39703">
        <ele>99</ele>
        <time>2015-01-18T08:22:05Z</time>
      </trkpt>
      <trkpt lat="48.66471" lon="-3.39704">
        <ele>99</ele>
        <time>2015-01-18T08:22:06Z</time>
      </trkpt>
      <trkpt lat="48.66465" lon="-3.39706">
        <ele>99</ele>
        <time>2015-01-18T08:22:07Z</time>
      </trkpt>
      <trkpt lat="48.66459" lon="-3.39708">
        <ele>99</ele>
        <time>2015-01-18T08:22:08Z</time>
      </trkpt>
      <trkpt lat="48.66453" lon="-3.3971">
        <ele>99</ele>
        <time>2015-01-18T08:22:09Z</time>
      </trkpt>
      <trkpt lat="48.66447" lon="-3.39711">
        <ele>99</ele>
        <time>2015-01-18T08:22:10Z</time>
      </trkpt>
      <trkpt lat="48.66441" lon="-3.39713">
        <ele>99</ele>
        <time>2015-01-18T08:22:11Z</time>
      </trkpt>
      <trkpt lat="48.66435" lon="-3.39714">
        <ele>99</ele>
        <time>2015-01-18T08:22:12Z</time>
      </trkpt>
      <trkpt lat="48.66429" lon="-3.39714">
        <ele>99</ele>
        <time>2015-01-18T08:22:13Z</time>
      </trkpt>
      <trkpt lat="48.66416" lon="-3.39714">
        <ele>99</ele>
        <time>2015-01-18T08:22:15Z</time>
      </trkpt>
      <trkpt lat="48.6641" lon="-3.39713">
        <ele>99</ele>
        <time>2015-01-18T08:22:16Z</time>
      </trkpt>
      <trkpt lat="48.66403" lon="-3.39712">
        <ele>99</ele>
        <time>2015-01-18T08:22:17Z</time>
      </trkpt>
      <trkpt lat="48.66396" lon="-3.3971">
        <ele>99</ele>
        <time>2015-01-18T08:22:18Z</time>
      </trkpt>
      <trkpt lat="48.6639" lon="-3.39708">
        <ele>99</ele>
        <time>2015-01-18T08:22:19Z</time>
      </trkpt>
      <trkpt lat="48.66384" lon="-3.39705">
        <ele>99</ele>
        <time>2015-01-18T08:22:20Z</time>
      </trkpt>
      <trkpt lat="48.66377" lon="-3.39703">
        <ele>99</ele>
        <time>2015-01-18T08:22:21Z</time>
      </trkpt>
      <trkpt lat="48.66371" lon="-3.39701">
        <ele>99</ele>
        <time>2015-01-18T08:22:22Z</time>
      </trkpt>
      <trkpt lat="48.66365" lon="-3.39699">
        <ele>99</ele>
        <time>2015-01-18T08:22:23Z</time>
      </trkpt>
      <trkpt lat="48.66358" lon="-3.39697">
        <ele>99</ele>
        <time>2015-01-18T08:22:24Z</time>
      </trkpt>
      <trkpt lat="48.66352" lon="-3.39695">
        <ele>99</ele>
        <time>2015-01-18T08:22:25Z</time>
      </trkpt>
      <trkpt lat="48.66345" lon="-3.39692">
        <ele>100</ele>
        <time>2015-01-18T08:22:26Z</time>
      </trkpt>
      <trkpt lat="48.66339" lon="-3.3969">
        <ele>100</ele>
        <time>2015-01-18T08:22:27Z</time>
      </trkpt>
      <trkpt lat="48.66332" lon="-3.39687">
        <ele>100</ele>
        <time>2015-01-18T08:22:28Z</time>
      </trkpt>
      <trkpt lat="48.66325" lon="-3.39685">
        <ele>100</ele>
        <time>2015-01-18T08:22:29Z</time>
      </trkpt>
      <trkpt lat="48.66318" lon="-3.39683">
        <ele>100</ele>
        <time>2015-01-18T08:22:30Z</time>
      </trkpt>
      <trkpt lat="48.66312" lon="-3.39681">
        <ele>100</ele>
        <time>2015-01-18T08:22:31Z</time>
      </trkpt>
      <trkpt lat="48.66304" lon="-3.39678">
        <ele>100</ele>
        <time>2015-01-18T08:22:32Z</time>
      </trkpt>
      <trkpt lat="48.66298" lon="-3.39676">
        <ele>100</ele>
        <time>2015-01-18T08:22:33Z</time>
      </trkpt>
      <trkpt lat="48.66291" lon="-3.39673">
        <ele>100</ele>
        <time>2015-01-18T08:22:34Z</time>
      </trkpt>
      <trkpt lat="48.66284" lon="-3.3967">
        <ele>100</ele>
        <time>2015-01-18T08:22:35Z</time>
      </trkpt>
      <trkpt lat="48.66277" lon="-3.39668">
        <ele>100</ele>
        <time>2015-01-18T08:22:36Z</time>
      </trkpt>
      <trkpt lat="48.66271" lon="-3.39665">
        <ele>100</ele>
        <time>2015-01-18T08:22:37Z</time>
      </trkpt>
      <trkpt lat="48.66264" lon="-3.39662">
        <ele>100</ele>
        <time>2015-01-18T08:22:38Z</time>
      </trkpt>
      <trkpt lat="48.66256" lon="-3.39659">
        <ele>100</ele>
        <time>2015-01-18T08:22:39Z</time>
      </trkpt>
      <trkpt lat="48.66249" lon="-3.39656">
        <ele>100</ele>
        <time>2015-01-18T08:22:40Z</time>
      </trkpt>
      <trkpt lat="48.66242" lon="-3.39653">
        <ele>100</ele>
        <time>2015-01-18T08:22:41Z</time>
      </trkpt>
      <trkpt lat="48.66235" lon="-3.3965">
        <ele>100</ele>
        <time>2015-01-18T08:22:42Z</time>
      </trkpt>
      <trkpt lat="48.66228" lon="-3.39647">
        <ele>100</ele>
        <time>2015-01-18T08:22:43Z</time>
      </trkpt>
      <trkpt lat="48.66221" lon="-3.39644">
        <ele>100</ele>
        <time>2015-01-18T08:22:44Z</time>
      </trkpt>
      <trkpt lat="48.66214" lon="-3.39641">
        <ele>100</ele>
        <time>2015-01-18T08:22:45Z</time>
      </trkpt>
      <trkpt lat="48.66207" lon="-3.39638">
        <ele>100</ele>
        <time>2015-01-18T08:22:46Z</time>
      </trkpt>
      <trkpt lat="48.662" lon="-3.39635">
        <ele>100</ele>
        <time>2015-01-18T08:22:47Z</time>
      </trkpt>
      <trkpt lat="48.66193" lon="-3.39632">
        <ele>100</ele>
        <time>2015-01-18T08:22:48Z</time>
      </trkpt>
      <trkpt lat="48.66185" lon="-3.39629">
        <ele>100</ele>
        <time>2015-01-18T08:22:49Z</time>
      </trkpt>
      <trkpt lat="48.66178" lon="-3.39626">
        <ele>100</ele>
        <time>2015-01-18T08:22:50Z</time>
      </trkpt>
      <trkpt lat="48.66171" lon="-3.39623">
        <ele>100</ele>
        <time>2015-01-18T08:22:51Z</time>
      </trkpt>
      <trkpt lat="48.66164" lon="-3.3962">
        <ele>100</ele>
        <time>2015-01-18T08:22:52Z</time>
      </trkpt>
      <trkpt lat="48.66156" lon="-3.39617">
        <ele>100</ele>
        <time>2015-01-18T08:22:53Z</time>
      </trkpt>
      <trkpt lat="48.66149" lon="-3.39615">
        <ele>100</ele>
        <time>2015-01-18T08:22:54Z</time>
      </trkpt>
      <trkpt lat="48.66142" lon="-3.39613">
        <ele>100</ele>
        <time>2015-01-18T08:22:55Z</time>
      </trkpt>
      <trkpt lat="48.66135" lon="-3.3961">
        <ele>100</ele>
        <time>2015-01-18T08:22:56Z</time>
      </trkpt>
      <trkpt lat="48.66127" lon="-3.39608">
        <ele>100</ele>
        <time>2015-01-18T08:22:57Z</time>
      </trkpt>
      <trkpt lat="48.6612" lon="-3.39605">
        <ele>100</ele>
        <time>2015-01-18T08:22:58Z</time>
      </trkpt>
      <trkpt lat="48.66113" lon="-3.39602">
        <ele>100</ele>
        <time>2015-01-18T08:22:59Z</time>
      </trkpt>
      <trkpt lat="48.66105" lon="-3.396">
        <ele>100</ele>
        <time>2015-01-18T08:23:00Z</time>
      </trkpt>
      <trkpt lat="48.66098" lon="-3.39598">
        <ele>100</ele>
        <time>2015-01-18T08:23:01Z</time>
      </trkpt>
      <trkpt lat="48.6609" lon="-3.39596">
        <ele>100</ele>
        <time>2015-01-18T08:23:02Z</time>
      </trkpt>
      <trkpt lat="48.66083" lon="-3.39593">
        <ele>100</ele>
        <time>2015-01-18T08:23:03Z</time>
      </trkpt>
      <trkpt lat="48.66075" lon="-3.39591">
        <ele>100</ele>
        <time>2015-01-18T08:23:04Z</time>
      </trkpt>
      <trkpt lat="48.66068" lon="-3.39588">
        <ele>100</ele>
        <time>2015-01-18T08:23:05Z</time>
      </trkpt>
      <trkpt lat="48.66061" lon="-3.39585">
        <ele>100</ele>
        <time>2015-01-18T08:23:06Z</time>
      </trkpt>
      <trkpt lat="48.66053" lon="-3.39582">
        <ele>100</ele>
        <time>2015-01-18T08:23:07Z</time>
      </trkpt>
      <trkpt lat="48.66045" lon="-3.39579">
        <ele>100</ele>
        <time>2015-01-18T08:23:08Z</time>
      </trkpt>
      <trkpt lat="48.66038" lon="-3.39576">
        <ele>100</ele>
        <time>2015-01-18T08:23:09Z</time>
      </trkpt>
      <trkpt lat="48.66031" lon="-3.39573">
        <ele>100</ele>
        <time>2015-01-18T08:23:10Z</time>
      </trkpt>
      <trkpt lat="48.66023" lon="-3.3957">
        <ele>100</ele>
        <time>2015-01-18T08:23:11Z</time>
      </trkpt>
      <trkpt lat="48.66016" lon="-3.39567">
        <ele>100</ele>
        <time>2015-01-18T08:23:12Z</time>
      </trkpt>
      <trkpt lat="48.66008" lon="-3.39564">
        <ele>100</ele>
        <time>2015-01-18T08:23:13Z</time>
      </trkpt>
      <trkpt lat="48.66001" lon="-3.39561">
        <ele>100</ele>
        <time>2015-01-18T08:23:14Z</time>
      </trkpt>
      <trkpt lat="48.65994" lon="-3.39558">
        <ele>100</ele>
        <time>2015-01-18T08:23:15Z</time>
      </trkpt>
      <trkpt lat="48.65987" lon="-3.39555">
        <ele>100</ele>
        <time>2015-01-18T08:23:16Z</time>
      </trkpt>
      <trkpt lat="48.6598" lon="-3.39551">
        <ele>100</ele>
        <time>2015-01-18T08:23:17Z</time>
      </trkpt>
      <trkpt lat="48.65973" lon="-3.39548">
        <ele>100</ele>
        <time>2015-01-18T08:23:18Z</time>
      </trkpt>
      <trkpt lat="48.65966" lon="-3.39544">
        <ele>100</ele>
        <time>2015-01-18T08:23:19Z</time>
      </trkpt>
      <trkpt lat="48.65958" lon="-3.3954">
        <ele>100</ele>
        <time>2015-01-18T08:23:20Z</time>
      </trkpt>
      <trkpt lat="48.65951" lon="-3.39537">
        <ele>100</ele>
        <time>2015-01-18T08:23:21Z</time>
      </trkpt>
      <trkpt lat="48.65944" lon="-3.39533">
        <ele>100</ele>
        <time>2015-01-18T08:23:22Z</time>
      </trkpt>
      <trkpt lat="48.65937" lon="-3.39529">
        <ele>100</ele>
        <time>2015-01-18T08:23:23Z</time>
      </trkpt>
      <trkpt lat="48.65929" lon="-3.39525">
        <ele>100</ele>
        <time>2015-01-18T08:23:24Z</time>
      </trkpt>
      <trkpt lat="48.65922" lon="-3.39522">
        <ele>100</ele>
        <time>2015-01-18T08:23:25Z</time>
      </trkpt>
      <trkpt lat="48.65915" lon="-3.39519">
        <ele>100</ele>
        <time>2015-01-18T08:23:26Z</time>
      </trkpt>
      <trkpt lat="48.65907" lon="-3.39515">
        <ele>100</ele>
        <time>2015-01-18T08:23:27Z</time>
      </trkpt>
      <trkpt lat="48.65899" lon="-3.39512">
        <ele>100</ele>
        <time>2015-01-18T08:23:28Z</time>
      </trkpt>
      <trkpt lat="48.65891" lon="-3.39509">
        <ele>100</ele>
        <time>2015-01-18T08:23:29Z</time>
      </trkpt>
      <trkpt lat="48.65883" lon="-3.39506">
        <ele>100</ele>
        <time>2015-01-18T08:23:30Z</time>
      </trkpt>
      <trkpt lat="48.65876" lon="-3.39504">
        <ele>100</ele>
        <time>2015-01-18T08:23:31Z</time>
      </trkpt>
      <trkpt lat="48.65868" lon="-3.39501">
        <ele>100</ele>
        <time>2015-01-18T08:23:32Z</time>
      </trkpt>
      <trkpt lat="48.6586" lon="-3.39498">
        <ele>100</ele>
        <time>2015-01-18T08:23:33Z</time>
      </trkpt>
      <trkpt lat="48.65853" lon="-3.39495">
        <ele>100</ele>
        <time>2015-01-18T08:23:34Z</time>
      </trkpt>
      <trkpt lat="48.65846" lon="-3.39492">
        <ele>100</ele>
        <time>2015-01-18T08:23:35Z</time>
      </trkpt>
      <trkpt lat="48.65838" lon="-3.3949">
        <ele>100</ele>
        <time>2015-01-18T08:23:36Z</time>
      </trkpt>
      <trkpt lat="48.65831" lon="-3.39488">
        <ele>100</ele>
        <time>2015-01-18T08:23:37Z</time>
      </trkpt>
      <trkpt lat="48.65824" lon="-3.39487">
        <ele>100</ele>
        <time>2015-01-18T08:23:38Z</time>
      </trkpt>
      <trkpt lat="48.65816" lon="-3.39485">
        <ele>100</ele>
        <time>2015-01-18T08:23:39Z</time>
      </trkpt>
      <trkpt lat="48.65808" lon="-3.39484">
        <ele>100</ele>
        <time>2015-01-18T08:23:40Z</time>
      </trkpt>
      <trkpt lat="48.65801" lon="-3.39483">
        <ele>100</ele>
        <time>2015-01-18T08:23:41Z</time>
      </trkpt>
      <trkpt lat="48.65794" lon="-3.39482">
        <ele>100</ele>
        <time>2015-01-18T08:23:42Z</time>
      </trkpt>
      <trkpt lat="48.65786" lon="-3.39481">
        <ele>100</ele>
        <time>2015-01-18T08:23:43Z</time>
      </trkpt>
      <trkpt lat="48.65779" lon="-3.3948">
        <ele>100</ele>
        <time>2015-01-18T08:23:44Z</time>
      </trkpt>
      <trkpt lat="48.65771" lon="-3.39478">
        <ele>100</ele>
        <time>2015-01-18T08:23:45Z</time>
      </trkpt>
      <trkpt lat="48.65764" lon="-3.39478">
        <ele>100</ele>
        <time>2015-01-18T08:23:46Z</time>
      </trkpt>
      <trkpt lat="48.65757" lon="-3.39477">
        <ele>100</ele>
        <time>2015-01-18T08:23:47Z</time>
      </trkpt>
      <trkpt lat="48.65749" lon="-3.39476">
        <ele>100</ele>
        <time>2015-01-18T08:23:48Z</time>
      </trkpt>
      <trkpt lat="48.65728" lon="-3.39477">
        <ele>100</ele>
        <time>2015-01-18T08:23:51Z</time>
      </trkpt>
      <trkpt lat="48.6572" lon="-3.39478">
        <ele>100</ele>
        <time>2015-01-18T08:23:52Z</time>
      </trkpt>
      <trkpt lat="48.65713" lon="-3.39479">
        <ele>100</ele>
        <time>2015-01-18T08:23:53Z</time>
      </trkpt>
      <trkpt lat="48.65705" lon="-3.3948">
        <ele>100</ele>
        <time>2015-01-18T08:23:54Z</time>
      </trkpt>
      <trkpt lat="48.65697" lon="-3.3948">
        <ele>100</ele>
        <time>2015-01-18T08:23:55Z</time>
      </trkpt>
      <trkpt lat="48.65689" lon="-3.39481">
        <ele>100</ele>
        <time>2015-01-18T08:23:56Z</time>
      </trkpt>
      <trkpt lat="48.65674" lon="-3.3948">
        <ele>100</ele>
        <time>2015-01-18T08:23:58Z</time>
      </trkpt>
      <trkpt lat="48.65667" lon="-3.3948">
        <ele>100</ele>
        <time>2015-01-18T08:23:59Z</time>
      </trkpt>
      <trkpt lat="48.65659" lon="-3.3948">
        <ele>100</ele>
        <time>2015-01-18T08:24:00Z</time>
      </trkpt>
      <trkpt lat="48.65644" lon="-3.3948">
        <ele>100</ele>
        <time>2015-01-18T08:24:02Z</time>
      </trkpt>
      <trkpt lat="48.65636" lon="-3.39479">
        <ele>100</ele>
        <time>2015-01-18T08:24:03Z</time>
      </trkpt>
      <trkpt lat="48.65629" lon="-3.39478">
        <ele>100</ele>
        <time>2015-01-18T08:24:04Z</time>
      </trkpt>
      <trkpt lat="48.65621" lon="-3.39477">
        <ele>100</ele>
        <time>2015-01-18T08:24:05Z</time>
      </trkpt>
      <trkpt lat="48.65614" lon="-3.39475">
        <ele>100</ele>
        <time>2015-01-18T08:24:06Z</time>
      </trkpt>
      <trkpt lat="48.65606" lon="-3.39474">
        <ele>100</ele>
        <time>2015-01-18T08:24:07Z</time>
      </trkpt>
      <trkpt lat="48.65599" lon="-3.39472">
        <ele>100</ele>
        <time>2015-01-18T08:24:08Z</time>
      </trkpt>
      <trkpt lat="48.65591" lon="-3.3947">
        <ele>100</ele>
        <time>2015-01-18T08:24:09Z</time>
      </trkpt>
      <trkpt lat="48.65583" lon="-3.39469">
        <ele>100</ele>
        <time>2015-01-18T08:24:10Z</time>
      </trkpt>
      <trkpt lat="48.65576" lon="-3.39468">
        <ele>100</ele>
        <time>2015-01-18T08:24:11Z</time>
      </trkpt>
      <trkpt lat="48.65568" lon="-3.39468">
        <ele>100</ele>
        <time>2015-01-18T08:24:12Z</time>
      </trkpt>
      <trkpt lat="48.6556" lon="-3.39468">
        <ele>100</ele>
        <time>2015-01-18T08:24:13Z</time>
      </trkpt>
      <trkpt lat="48.65553" lon="-3.39468">
        <ele>100</ele>
        <time>2015-01-18T08:24:14Z</time>
      </trkpt>
      <trkpt lat="48.65545" lon="-3.3947">
        <ele>100</ele>
        <time>2015-01-18T08:24:15Z</time>
      </trkpt>
      <trkpt lat="48.65537" lon="-3.39472">
        <ele>100</ele>
        <time>2015-01-18T08:24:16Z</time>
      </trkpt>
      <trkpt lat="48.6553" lon="-3.39475">
        <ele>100</ele>
        <time>2015-01-18T08:24:17Z</time>
      </trkpt>
      <trkpt lat="48.65523" lon="-3.39479">
        <ele>100</ele>
        <time>2015-01-18T08:24:18Z</time>
      </trkpt>
      <trkpt lat="48.65516" lon="-3.39483">
        <ele>100</ele>
        <time>2015-01-18T08:24:19Z</time>
      </trkpt>
      <trkpt lat="48.65509" lon="-3.39487">
        <ele>100</ele>
        <time>2015-01-18T08:24:20Z</time>
      </trkpt>
      <trkpt lat="48.65502" lon="-3.3949">
        <ele>100</ele>
        <time>2015-01-18T08:24:21Z</time>
      </trkpt>
      <trkpt lat="48.65495" lon="-3.39493">
        <ele>100</ele>
        <time>2015-01-18T08:24:22Z</time>
      </trkpt>
      <trkpt lat="48.65488" lon="-3.39495">
        <ele>100</ele>
        <time>2015-01-18T08:24:23Z</time>
      </trkpt>
      <trkpt lat="48.6548" lon="-3.39497">
        <ele>100</ele>
        <time>2015-01-18T08:24:24Z</time>
      </trkpt>
      <trkpt lat="48.65473" lon="-3.39498">
        <ele>100</ele>
        <time>2015-01-18T08:24:25Z</time>
      </trkpt>
      <trkpt lat="48.65466" lon="-3.395">
        <ele>100</ele>
        <time>2015-01-18T08:24:26Z</time>
      </trkpt>
      <trkpt lat="48.65459" lon="-3.395">
        <ele>100</ele>
        <time>2015-01-18T08:24:27Z</time>
      </trkpt>
      <trkpt lat="48.65451" lon="-3.39501">
        <ele>100</ele>
        <time>2015-01-18T08:24:28Z</time>
      </trkpt>
      <trkpt lat="48.65444" lon="-3.39501">
        <ele>100</ele>
        <time>2015-01-18T08:24:29Z</time>
      </trkpt>
      <trkpt lat="48.65436" lon="-3.395">
        <ele>100</ele>
        <time>2015-01-18T08:24:30Z</time>
      </trkpt>
      <trkpt lat="48.65429" lon="-3.39498">
        <ele>100</ele>
        <time>2015-01-18T08:24:31Z</time>
      </trkpt>
      <trkpt lat="48.65422" lon="-3.39497">
        <ele>100</ele>
        <time>2015-01-18T08:24:32Z</time>
      </trkpt>
      <trkpt lat="48.65414" lon="-3.39495">
        <ele>100</ele>
        <time>2015-01-18T08:24:33Z</time>
      </trkpt>
      <trkpt lat="48.65407" lon="-3.39493">
        <ele>100</ele>
        <time>2015-01-18T08:24:34Z</time>
      </trkpt>
      <trkpt lat="48.654" lon="-3.39492">
        <ele>100</ele>
        <time>2015-01-18T08:24:35Z</time>
      </trkpt>
      <trkpt lat="48.65392" lon="-3.3949">
        <ele>100</ele>
        <time>2015-01-18T08:24:36Z</time>
      </trkpt>
      <trkpt lat="48.65385" lon="-3.39488">
        <ele>100</ele>
        <time>2015-01-18T08:24:37Z</time>
      </trkpt>
      <trkpt lat="48.65377" lon="-3.39487">
        <ele>100</ele>
        <time>2015-01-18T08:24:38Z</time>
      </trkpt>
      <trkpt lat="48.65369" lon="-3.39485">
        <ele>100</ele>
        <time>2015-01-18T08:24:39Z</time>
      </trkpt>
      <trkpt lat="48.65362" lon="-3.39484">
        <ele>100</ele>
        <time>2015-01-18T08:24:40Z</time>
      </trkpt>
      <trkpt lat="48.65354" lon="-3.39482">
        <ele>100</ele>
        <time>2015-01-18T08:24:41Z</time>
      </trkpt>
      <trkpt lat="48.65347" lon="-3.3948">
        <ele>100</ele>
        <time>2015-01-18T08:24:42Z</time>
      </trkpt>
      <trkpt lat="48.65339" lon="-3.39478">
        <ele>100</ele>
        <time>2015-01-18T08:24:43Z</time>
      </trkpt>
      <trkpt lat="48.65331" lon="-3.39476">
        <ele>100</ele>
        <time>2015-01-18T08:24:44Z</time>
      </trkpt>
      <trkpt lat="48.65324" lon="-3.39475">
        <ele>100</ele>
        <time>2015-01-18T08:24:45Z</time>
      </trkpt>
      <trkpt lat="48.65316" lon="-3.39473">
        <ele>100</ele>
        <time>2015-01-18T08:24:46Z</time>
      </trkpt>
      <trkpt lat="48.65308" lon="-3.39471">
        <ele>100</ele>
        <time>2015-01-18T08:24:47Z</time>
      </trkpt>
      <trkpt lat="48.65301" lon="-3.39469">
        <ele>100</ele>
        <time>2015-01-18T08:24:48Z</time>
      </trkpt>
      <trkpt lat="48.65294" lon="-3.39468">
        <ele>100</ele>
        <time>2015-01-18T08:24:49Z</time>
      </trkpt>
      <trkpt lat="48.65286" lon="-3.39466">
        <ele>100</ele>
        <time>2015-01-18T08:24:50Z</time>
      </trkpt>
      <trkpt lat="48.65279" lon="-3.39465">
        <ele>100</ele>
        <time>2015-01-18T08:24:51Z</time>
      </trkpt>
      <trkpt lat="48.65271" lon="-3.39463">
        <ele>100</ele>
        <time>2015-01-18T08:24:52Z</time>
      </trkpt>
      <trkpt lat="48.65263" lon="-3.39461">
        <ele>100</ele>
        <time>2015-01-18T08:24:53Z</time>
      </trkpt>
      <trkpt lat="48.65255" lon="-3.39459">
        <ele>100</ele>
        <time>2015-01-18T08:24:54Z</time>
      </trkpt>
      <trkpt lat="48.65248" lon="-3.39457">
        <ele>100</ele>
        <time>2015-01-18T08:24:55Z</time>
      </trkpt>
      <trkpt lat="48.6524" lon="-3.39456">
        <ele>100</ele>
        <time>2015-01-18T08:24:56Z</time>
      </trkpt>
      <trkpt lat="48.65233" lon="-3.39454">
        <ele>100</ele>
        <time>2015-01-18T08:24:57Z</time>
      </trkpt>
      <trkpt lat="48.65226" lon="-3.39452">
        <ele>100</ele>
        <time>2015-01-18T08:24:58Z</time>
      </trkpt>
      <trkpt lat="48.65218" lon="-3.39451">
        <ele>100</ele>
        <time>2015-01-18T08:24:59Z</time>
      </trkpt>
      <trkpt lat="48.6521" lon="-3.39449">
        <ele>100</ele>
        <time>2015-01-18T08:25:00Z</time>
      </trkpt>
      <trkpt lat="48.65203" lon="-3.39448">
        <ele>100</ele>
        <time>2015-01-18T08:25:01Z</time>
      </trkpt>
      <trkpt lat="48.65195" lon="-3.39446">
        <ele>100</ele>
        <time>2015-01-18T08:25:02Z</time>
      </trkpt>
      <trkpt lat="48.65188" lon="-3.39444">
        <ele>100</ele>
        <time>2015-01-18T08:25:03Z</time>
      </trkpt>
      <trkpt lat="48.65181" lon="-3.39442">
        <ele>100</ele>
        <time>2015-01-18T08:25:04Z</time>
      </trkpt>
      <trkpt lat="48.65173" lon="-3.3944">
        <ele>100</ele>
        <time>2015-01-18T08:25:05Z</time>
      </trkpt>
      <trkpt lat="48.65166" lon="-3.39438">
        <ele>100</ele>
        <time>2015-01-18T08:25:06Z</time>
      </trkpt>
      <trkpt lat="48.6516" lon="-3.39436">
        <ele>100</ele>
        <time>2015-01-18T08:25:07Z</time>
      </trkpt>
      <trkpt lat="48.65153" lon="-3.39434">
        <ele>100</ele>
        <time>2015-01-18T08:25:08Z</time>
      </trkpt>
      <trkpt lat="48.65146" lon="-3.39433">
        <ele>100</ele>
        <time>2015-01-18T08:25:09Z</time>
      </trkpt>
      <trkpt lat="48.65139" lon="-3.39431">
        <ele>100</ele>
        <time>2015-01-18T08:25:10Z</time>
      </trkpt>
      <trkpt lat="48.65132" lon="-3.39429">
        <ele>100</ele>
        <time>2015-01-18T08:25:11Z</time>
      </trkpt>
      <trkpt lat="48.65125" lon="-3.39427">
        <ele>100</ele>
        <time>2015-01-18T08:25:12Z</time>
      </trkpt>
      <trkpt lat="48.65118" lon="-3.39425">
        <ele>100</ele>
        <time>2015-01-18T08:25:13Z</time>
      </trkpt>
      <trkpt lat="48.65111" lon="-3.39423">
        <ele>100</ele>
        <time>2015-01-18T08:25:14Z</time>
      </trkpt>
      <trkpt lat="48.65104" lon="-3.39421">
        <ele>100</ele>
        <time>2015-01-18T08:25:15Z</time>
      </trkpt>
      <trkpt lat="48.65098" lon="-3.39419">
        <ele>100</ele>
        <time>2015-01-18T08:25:16Z</time>
      </trkpt>
      <trkpt lat="48.65091" lon="-3.39417">
        <ele>100</ele>
        <time>2015-01-18T08:25:17Z</time>
      </trkpt>
      <trkpt lat="48.65085" lon="-3.39417">
        <ele>100</ele>
        <time>2015-01-18T08:25:18Z</time>
      </trkpt>
      <trkpt lat="48.65078" lon="-3.39417">
        <ele>101</ele>
        <time>2015-01-18T08:25:19Z</time>
      </trkpt>
      <trkpt lat="48.65072" lon="-3.39415">
        <ele>101</ele>
        <time>2015-01-18T08:25:20Z</time>
      </trkpt>
      <trkpt lat="48.65066" lon="-3.39413">
        <ele>101</ele>
        <time>2015-01-18T08:25:21Z</time>
      </trkpt>
      <trkpt lat="48.6506" lon="-3.39411">
        <ele>101</ele>
        <time>2015-01-18T08:25:22Z</time>
      </trkpt>
      <trkpt lat="48.65054" lon="-3.3941">
        <ele>101</ele>
        <time>2015-01-18T08:25:23Z</time>
      </trkpt>
      <trkpt lat="48.65049" lon="-3.39408">
        <ele>101</ele>
        <time>2015-01-18T08:25:24Z</time>
      </trkpt>
      <trkpt lat="48.65044" lon="-3.39407">
        <ele>101</ele>
        <time>2015-01-18T08:25:25Z</time>
      </trkpt>
      <trkpt lat="48.65039" lon="-3.39406">
        <ele>101</ele>
        <time>2015-01-18T08:25:26Z</time>
      </trkpt>
      <trkpt lat="48.65034" lon="-3.39405">
        <ele>101</ele>
        <time>2015-01-18T08:25:27Z</time>
      </trkpt>
      <trkpt lat="48.6503" lon="-3.39405">
        <ele>101</ele>
        <time>2015-01-18T08:25:28Z</time>
      </trkpt>
      <trkpt lat="48.65021" lon="-3.39406">
        <ele>101</ele>
        <time>2015-01-18T08:25:30Z</time>
      </trkpt>
      <trkpt lat="48.65017" lon="-3.39406">
        <ele>101</ele>
        <time>2015-01-18T08:25:31Z</time>
      </trkpt>
      <trkpt lat="48.65014" lon="-3.39406">
        <ele>101</ele>
        <time>2015-01-18T08:25:32Z</time>
      </trkpt>
      <trkpt lat="48.65011" lon="-3.39406">
        <ele>101</ele>
        <time>2015-01-18T08:25:33Z</time>
      </trkpt>
      <trkpt lat="48.65007" lon="-3.39406">
        <ele>101</ele>
        <time>2015-01-18T08:25:34Z</time>
      </trkpt>
      <trkpt lat="48.65004" lon="-3.39404">
        <ele>101</ele>
        <time>2015-01-18T08:25:35Z</time>
      </trkpt>
      <trkpt lat="48.65002" lon="-3.39402">
        <ele>101</ele>
        <time>2015-01-18T08:25:36Z</time>
      </trkpt>
      <trkpt lat="48.64999" lon="-3.39398">
        <ele>101</ele>
        <time>2015-01-18T08:25:37Z</time>
      </trkpt>
      <trkpt lat="48.64998" lon="-3.39392">
        <ele>101</ele>
        <time>2015-01-18T08:25:38Z</time>
      </trkpt>
      <trkpt lat="48.64997" lon="-3.39385">
        <ele>101</ele>
        <time>2015-01-18T08:25:39Z</time>
      </trkpt>
      <trkpt lat="48.64997" lon="-3.39378">
        <ele>101</ele>
        <time>2015-01-18T08:25:40Z</time>
      </trkpt>
      <trkpt lat="48.64998" lon="-3.3937">
        <ele>101</ele>
        <time>2015-01-18T08:25:41Z</time>
      </trkpt>
      <trkpt lat="48.64999" lon="-3.39361">
        <ele>101</ele>
        <time>2015-01-18T08:25:42Z</time>
      </trkpt>
      <trkpt lat="48.65001" lon="-3.39351">
        <ele>101</ele>
        <time>2015-01-18T08:25:43Z</time>
      </trkpt>
      <trkpt lat="48.65002" lon="-3.39341">
        <ele>101</ele>
        <time>2015-01-18T08:25:44Z</time>
      </trkpt>
      <trkpt lat="48.65003" lon="-3.3933">
        <ele>101</ele>
        <time>2015-01-18T08:25:45Z</time>
      </trkpt>
      <trkpt lat="48.65005" lon="-3.3932">
        <ele>101</ele>
        <time>2015-01-18T08:25:46Z</time>
      </trkpt>
      <trkpt lat="48.65006" lon="-3.3931">
        <ele>101</ele>
        <time>2015-01-18T08:25:47Z</time>
      </trkpt>
      <trkpt lat="48.65007" lon="-3.39299">
        <ele>101</ele>
        <time>2015-01-18T08:25:48Z</time>
      </trkpt>
      <trkpt lat="48.65008" lon="-3.39289">
        <ele>101</ele>
        <time>2015-01-18T08:25:49Z</time>
      </trkpt>
      <trkpt lat="48.6501" lon="-3.39279">
        <ele>101</ele>
        <time>2015-01-18T08:25:50Z</time>
      </trkpt>
      <trkpt lat="48.65011" lon="-3.39269">
        <ele>101</ele>
        <time>2015-01-18T08:25:51Z</time>
      </trkpt>
      <trkpt lat="48.65012" lon="-3.39259">
        <ele>101</ele>
        <time>2015-01-18T08:25:52Z</time>
      </trkpt>
      <trkpt lat="48.65013" lon="-3.39249">
        <ele>101</ele>
        <time>2015-01-18T08:25:53Z</time>
      </trkpt>
      <trkpt lat="48.65014" lon="-3.39239">
        <ele>101</ele>
        <time>2015-01-18T08:25:54Z</time>
      </trkpt>
      <trkpt lat="48.65015" lon="-3.39229">
        <ele>101</ele>
        <time>2015-01-18T08:25:55Z</time>
      </trkpt>
      <trkpt lat="48.65017" lon="-3.39219">
        <ele>101</ele>
        <time>2015-01-18T08:25:56Z</time>
      </trkpt>
      <trkpt lat="48.65018" lon="-3.39209">
        <ele>101</ele>
        <time>2015-01-18T08:25:57Z</time>
      </trkpt>
      <trkpt lat="48.65019" lon="-3.39199">
        <ele>102</ele>
        <time>2015-01-18T08:25:58Z</time>
      </trkpt>
      <trkpt lat="48.6502" lon="-3.39189">
        <ele>102</ele>
        <time>2015-01-18T08:25:59Z</time>
      </trkpt>
      <trkpt lat="48.65022" lon="-3.39178">
        <ele>102</ele>
        <time>2015-01-18T08:26:00Z</time>
      </trkpt>
      <trkpt lat="48.65023" lon="-3.39168">
        <ele>102</ele>
        <time>2015-01-18T08:26:01Z</time>
      </trkpt>
      <trkpt lat="48.65025" lon="-3.39158">
        <ele>102</ele>
        <time>2015-01-18T08:26:02Z</time>
      </trkpt>
      <trkpt lat="48.65026" lon="-3.39148">
        <ele>102</ele>
        <time>2015-01-18T08:26:03Z</time>
      </trkpt>
      <trkpt lat="48.65028" lon="-3.39137">
        <ele>102</ele>
        <time>2015-01-18T08:26:04Z</time>
      </trkpt>
      <trkpt lat="48.65029" lon="-3.39127">
        <ele>102</ele>
        <time>2015-01-18T08:26:05Z</time>
      </trkpt>
      <trkpt lat="48.65031" lon="-3.39117">
        <ele>102</ele>
        <time>2015-01-18T08:26:06Z</time>
      </trkpt>
      <trkpt lat="48.65032" lon="-3.39107">
        <ele>102</ele>
        <time>2015-01-18T08:26:07Z</time>
      </trkpt>
      <trkpt lat="48.65033" lon="-3.39097">
        <ele>102</ele>
        <time>2015-01-18T08:26:08Z</time>
      </trkpt>
      <trkpt lat="48.65034" lon="-3.39086">
        <ele>102</ele>
        <time>2015-01-18T08:26:09Z</time>
      </trkpt>
      <trkpt lat="48.65035" lon="-3.39075">
        <ele>102</ele>
        <time>2015-01-18T08:26:10Z</time>
      </trkpt>
      <trkpt lat="48.65035" lon="-3.39064">
        <ele>102</ele>
        <time>2015-01-18T08:26:11Z</time>
      </trkpt>
      <trkpt lat="48.65036" lon="-3.39053">
        <ele>102</ele>
        <time>2015-01-18T08:26:12Z</time>
      </trkpt>
      <trkpt lat="48.65035" lon="-3.3903">
        <ele>102</ele>
        <time>2015-01-18T08:26:14Z</time>
      </trkpt>
      <trkpt lat="48.65034" lon="-3.39018">
        <ele>102</ele>
        <time>2015-01-18T08:26:15Z</time>
      </trkpt>
      <trkpt lat="48.65033" lon="-3.39006">
        <ele>102</ele>
        <time>2015-01-18T08:26:16Z</time>
      </trkpt>
      <trkpt lat="48.65032" lon="-3.38995">
        <ele>102</ele>
        <time>2015-01-18T08:26:17Z</time>
      </trkpt>
      <trkpt lat="48.6503" lon="-3.38983">
        <ele>102</ele>
        <time>2015-01-18T08:26:18Z</time>
      </trkpt>
      <trkpt lat="48.65028" lon="-3.38972">
        <ele>102</ele>
        <time>2015-01-18T08:26:19Z</time>
      </trkpt>
      <trkpt lat="48.65026" lon="-3.38961">
        <ele>102</ele>
        <time>2015-01-18T08:26:20Z</time>
      </trkpt>
      <trkpt lat="48.65023" lon="-3.3895">
        <ele>102</ele>
        <time>2015-01-18T08:26:21Z</time>
      </trkpt>
      <trkpt lat="48.65019" lon="-3.3894">
        <ele>102</ele>
        <time>2015-01-18T08:26:22Z</time>
      </trkpt>
      <trkpt lat="48.65014" lon="-3.3893">
        <ele>102</ele>
        <time>2015-01-18T08:26:23Z</time>
      </trkpt>
      <trkpt lat="48.65009" lon="-3.38921">
        <ele>102</ele>
        <time>2015-01-18T08:26:24Z</time>
      </trkpt>
      <trkpt lat="48.65003" lon="-3.38913">
        <ele>103</ele>
        <time>2015-01-18T08:26:25Z</time>
      </trkpt>
      <trkpt lat="48.64997" lon="-3.38907">
        <ele>103</ele>
        <time>2015-01-18T08:26:26Z</time>
      </trkpt>
      <trkpt lat="48.6499" lon="-3.38901">
        <ele>103</ele>
        <time>2015-01-18T08:26:27Z</time>
      </trkpt>
      <trkpt lat="48.64983" lon="-3.38896">
        <ele>103</ele>
        <time>2015-01-18T08:26:28Z</time>
      </trkpt>
      <trkpt lat="48.64976" lon="-3.38891">
        <ele>103</ele>
        <time>2015-01-18T08:26:29Z</time>
      </trkpt>
      <trkpt lat="48.6497" lon="-3.38886">
        <ele>103</ele>
        <time>2015-01-18T08:26:30Z</time>
      </trkpt>
      <trkpt lat="48.64963" lon="-3.38881">
        <ele>103</ele>
        <time>2015-01-18T08:26:31Z</time>
      </trkpt>
      <trkpt lat="48.64957" lon="-3.38876">
        <ele>103</ele>
        <time>2015-01-18T08:26:32Z</time>
      </trkpt>
      <trkpt lat="48.6495" lon="-3.3887">
        <ele>103</ele>
        <time>2015-01-18T08:26:33Z</time>
      </trkpt>
      <trkpt lat="48.64944" lon="-3.38865">
        <ele>103</ele>
        <time>2015-01-18T08:26:34Z</time>
      </trkpt>
      <trkpt lat="48.64937" lon="-3.38861">
        <ele>103</ele>
        <time>2015-01-18T08:26:35Z</time>
      </trkpt>
      <trkpt lat="48.64931" lon="-3.38856">
        <ele>103</ele>
        <time>2015-01-18T08:26:36Z</time>
      </trkpt>
      <trkpt lat="48.64925" lon="-3.38851">
        <ele>103</ele>
        <time>2015-01-18T08:26:37Z</time>
      </trkpt>
      <trkpt lat="48.64919" lon="-3.38846">
        <ele>103</ele>
        <time>2015-01-18T08:26:38Z</time>
      </trkpt>
      <trkpt lat="48.64912" lon="-3.38842">
        <ele>103</ele>
        <time>2015-01-18T08:26:39Z</time>
      </trkpt>
      <trkpt lat="48.64906" lon="-3.38837">
        <ele>103</ele>
        <time>2015-01-18T08:26:40Z</time>
      </trkpt>
      <trkpt lat="48.64899" lon="-3.38832">
        <ele>103</ele>
        <time>2015-01-18T08:26:41Z</time>
      </trkpt>
      <trkpt lat="48.64893" lon="-3.38827">
        <ele>103</ele>
        <time>2015-01-18T08:26:42Z</time>
      </trkpt>
      <trkpt lat="48.64886" lon="-3.38823">
        <ele>103</ele>
        <time>2015-01-18T08:26:43Z</time>
      </trkpt>
      <trkpt lat="48.6488" lon="-3.38818">
        <ele>103</ele>
        <time>2015-01-18T08:26:44Z</time>
      </trkpt>
      <trkpt lat="48.64873" lon="-3.38814">
        <ele>103</ele>
        <time>2015-01-18T08:26:45Z</time>
      </trkpt>
      <trkpt lat="48.64867" lon="-3.38809">
        <ele>103</ele>
        <time>2015-01-18T08:26:46Z</time>
      </trkpt>
      <trkpt lat="48.6486" lon="-3.38804">
        <ele>103</ele>
        <time>2015-01-18T08:26:47Z</time>
      </trkpt>
      <trkpt lat="48.64854" lon="-3.38798">
        <ele>103</ele>
        <time>2015-01-18T08:26:48Z</time>
      </trkpt>
      <trkpt lat="48.64848" lon="-3.38792">
        <ele>103</ele>
        <time>2015-01-18T08:26:49Z</time>
      </trkpt>
      <trkpt lat="48.64842" lon="-3.38785">
        <ele>103</ele>
        <time>2015-01-18T08:26:50Z</time>
      </trkpt>
      <trkpt lat="48.64837" lon="-3.38778">
        <ele>103</ele>
        <time>2015-01-18T08:26:51Z</time>
      </trkpt>
      <trkpt lat="48.64832" lon="-3.3877">
        <ele>103</ele>
        <time>2015-01-18T08:26:52Z</time>
      </trkpt>
      <trkpt lat="48.64827" lon="-3.38762">
        <ele>103</ele>
        <time>2015-01-18T08:26:53Z</time>
      </trkpt>
      <trkpt lat="48.64822" lon="-3.38754">
        <ele>103</ele>
        <time>2015-01-18T08:26:54Z</time>
      </trkpt>
      <trkpt lat="48.64817" lon="-3.38745">
        <ele>103</ele>
        <time>2015-01-18T08:26:55Z</time>
      </trkpt>
      <trkpt lat="48.64812" lon="-3.38736">
        <ele>103</ele>
        <time>2015-01-18T08:26:56Z</time>
      </trkpt>
      <trkpt lat="48.64807" lon="-3.38728">
        <ele>103</ele>
        <time>2015-01-18T08:26:57Z</time>
      </trkpt>
      <trkpt lat="48.64803" lon="-3.38719">
        <ele>103</ele>
        <time>2015-01-18T08:26:58Z</time>
      </trkpt>
      <trkpt lat="48.64798" lon="-3.38711">
        <ele>103</ele>
        <time>2015-01-18T08:26:59Z</time>
      </trkpt>
      <trkpt lat="48.64793" lon="-3.38702">
        <ele>103</ele>
        <time>2015-01-18T08:27:00Z</time>
      </trkpt>
      <trkpt lat="48.64788" lon="-3.38694">
        <ele>103</ele>
        <time>2015-01-18T08:27:01Z</time>
      </trkpt>
      <trkpt lat="48.64782" lon="-3.38685">
        <ele>103</ele>
        <time>2015-01-18T08:27:02Z</time>
      </trkpt>
      <trkpt lat="48.64777" lon="-3.38677">
        <ele>103</ele>
        <time>2015-01-18T08:27:03Z</time>
      </trkpt>
      <trkpt lat="48.64772" lon="-3.38668">
        <ele>103</ele>
        <time>2015-01-18T08:27:04Z</time>
      </trkpt>
      <trkpt lat="48.64767" lon="-3.38659">
        <ele>103</ele>
        <time>2015-01-18T08:27:05Z</time>
      </trkpt>
      <trkpt lat="48.64763" lon="-3.3865">
        <ele>103</ele>
        <time>2015-01-18T08:27:06Z</time>
      </trkpt>
      <trkpt lat="48.64758" lon="-3.38641">
        <ele>103</ele>
        <time>2015-01-18T08:27:07Z</time>
      </trkpt>
      <trkpt lat="48.64753" lon="-3.38631">
        <ele>103</ele>
        <time>2015-01-18T08:27:08Z</time>
      </trkpt>
      <trkpt lat="48.64749" lon="-3.38622">
        <ele>103</ele>
        <time>2015-01-18T08:27:09Z</time>
      </trkpt>
      <trkpt lat="48.64745" lon="-3.38612">
        <ele>103</ele>
        <time>2015-01-18T08:27:10Z</time>
      </trkpt>
      <trkpt lat="48.64741" lon="-3.38602">
        <ele>103</ele>
        <time>2015-01-18T08:27:11Z</time>
      </trkpt>
      <trkpt lat="48.64738" lon="-3.38592">
        <ele>103</ele>
        <time>2015-01-18T08:27:12Z</time>
      </trkpt>
      <trkpt lat="48.64734" lon="-3.38582">
        <ele>103</ele>
        <time>2015-01-18T08:27:13Z</time>
      </trkpt>
      <trkpt lat="48.6473" lon="-3.38572">
        <ele>103</ele>
        <time>2015-01-18T08:27:14Z</time>
      </trkpt>
      <trkpt lat="48.64727" lon="-3.38562">
        <ele>103</ele>
        <time>2015-01-18T08:27:15Z</time>
      </trkpt>
      <trkpt lat="48.64723" lon="-3.38552">
        <ele>103</ele>
        <time>2015-01-18T08:27:16Z</time>
      </trkpt>
      <trkpt lat="48.64719" lon="-3.38542">
        <ele>103</ele>
        <time>2015-01-18T08:27:17Z</time>
      </trkpt>
      <trkpt lat="48.64715" lon="-3.38533">
        <ele>103</ele>
        <time>2015-01-18T08:27:18Z</time>
      </trkpt>
      <trkpt lat="48.6471" lon="-3.38524">
        <ele>103</ele>
        <time>2015-01-18T08:27:19Z</time>
      </trkpt>
      <trkpt lat="48.64706" lon="-3.38515">
        <ele>103</ele>
        <time>2015-01-18T08:27:20Z</time>
      </trkpt>
      <trkpt lat="48.64702" lon="-3.38506">
        <ele>103</ele>
        <time>2015-01-18T08:27:21Z</time>
      </trkpt>
      <trkpt lat="48.64698" lon="-3.38497">
        <ele>103</ele>
        <time>2015-01-18T08:27:22Z</time>
      </trkpt>
      <trkpt lat="48.64694" lon="-3.38488">
        <ele>103</ele>
        <time>2015-01-18T08:27:23Z</time>
      </trkpt>
      <trkpt lat="48.6469" lon="-3.38478">
        <ele>103</ele>
        <time>2015-01-18T08:27:24Z</time>
      </trkpt>
      <trkpt lat="48.64686" lon="-3.38469">
        <ele>103</ele>
        <time>2015-01-18T08:27:25Z</time>
      </trkpt>
      <trkpt lat="48.64682" lon="-3.3846">
        <ele>103</ele>
        <time>2015-01-18T08:27:26Z</time>
      </trkpt>
      <trkpt lat="48.64678" lon="-3.38451">
        <ele>103</ele>
        <time>2015-01-18T08:27:27Z</time>
      </trkpt>
      <trkpt lat="48.64674" lon="-3.38441">
        <ele>103</ele>
        <time>2015-01-18T08:27:28Z</time>
      </trkpt>
      <trkpt lat="48.64669" lon="-3.38433">
        <ele>103</ele>
        <time>2015-01-18T08:27:29Z</time>
      </trkpt>
      <trkpt lat="48.64664" lon="-3.38424">
        <ele>103</ele>
        <time>2015-01-18T08:27:30Z</time>
      </trkpt>
      <trkpt lat="48.64659" lon="-3.38415">
        <ele>103</ele>
        <time>2015-01-18T08:27:31Z</time>
      </trkpt>
      <trkpt lat="48.64653" lon="-3.38406">
        <ele>103</ele>
        <time>2015-01-18T08:27:32Z</time>
      </trkpt>
      <trkpt lat="48.64647" lon="-3.38398">
        <ele>103</ele>
        <time>2015-01-18T08:27:33Z</time>
      </trkpt>
      <trkpt lat="48.64641" lon="-3.3839">
        <ele>103</ele>
        <time>2015-01-18T08:27:34Z</time>
      </trkpt>
      <trkpt lat="48.64634" lon="-3.38384">
        <ele>103</ele>
        <time>2015-01-18T08:27:35Z</time>
      </trkpt>
      <trkpt lat="48.64627" lon="-3.38378">
        <ele>103</ele>
        <time>2015-01-18T08:27:36Z</time>
      </trkpt>
      <trkpt lat="48.6462" lon="-3.38371">
        <ele>103</ele>
        <time>2015-01-18T08:27:37Z</time>
      </trkpt>
      <trkpt lat="48.64613" lon="-3.38365">
        <ele>103</ele>
        <time>2015-01-18T08:27:38Z</time>
      </trkpt>
      <trkpt lat="48.64607" lon="-3.38358">
        <ele>103</ele>
        <time>2015-01-18T08:27:39Z</time>
      </trkpt>
      <trkpt lat="48.64601" lon="-3.38351">
        <ele>103</ele>
        <time>2015-01-18T08:27:40Z</time>
      </trkpt>
      <trkpt lat="48.64596" lon="-3.38343">
        <ele>103</ele>
        <time>2015-01-18T08:27:41Z</time>
      </trkpt>
      <trkpt lat="48.64591" lon="-3.38334">
        <ele>103</ele>
        <time>2015-01-18T08:27:42Z</time>
      </trkpt>
      <trkpt lat="48.64587" lon="-3.38325">
        <ele>103</ele>
        <time>2015-01-18T08:27:43Z</time>
      </trkpt>
      <trkpt lat="48.64583" lon="-3.38316">
        <ele>103</ele>
        <time>2015-01-18T08:27:44Z</time>
      </trkpt>
      <trkpt lat="48.64579" lon="-3.38306">
        <ele>103</ele>
        <time>2015-01-18T08:27:45Z</time>
      </trkpt>
      <trkpt lat="48.64576" lon="-3.38297">
        <ele>103</ele>
        <time>2015-01-18T08:27:46Z</time>
      </trkpt>
      <trkpt lat="48.64574" lon="-3.38287">
        <ele>103</ele>
        <time>2015-01-18T08:27:47Z</time>
      </trkpt>
      <trkpt lat="48.64571" lon="-3.38277">
        <ele>103</ele>
        <time>2015-01-18T08:27:48Z</time>
      </trkpt>
      <trkpt lat="48.64569" lon="-3.38267">
        <ele>103</ele>
        <time>2015-01-18T08:27:49Z</time>
      </trkpt>
      <trkpt lat="48.64567" lon="-3.38257">
        <ele>103</ele>
        <time>2015-01-18T08:27:50Z</time>
      </trkpt>
      <trkpt lat="48.64566" lon="-3.38247">
        <ele>103</ele>
        <time>2015-01-18T08:27:51Z</time>
      </trkpt>
      <trkpt lat="48.64564" lon="-3.38237">
        <ele>103</ele>
        <time>2015-01-18T08:27:52Z</time>
      </trkpt>
      <trkpt lat="48.64563" lon="-3.38227">
        <ele>103</ele>
        <time>2015-01-18T08:27:53Z</time>
      </trkpt>
      <trkpt lat="48.64561" lon="-3.38216">
        <ele>103</ele>
        <time>2015-01-18T08:27:54Z</time>
      </trkpt>
      <trkpt lat="48.6456" lon="-3.38205">
        <ele>103</ele>
        <time>2015-01-18T08:27:55Z</time>
      </trkpt>
      <trkpt lat="48.64558" lon="-3.38194">
        <ele>103</ele>
        <time>2015-01-18T08:27:56Z</time>
      </trkpt>
      <trkpt lat="48.64556" lon="-3.38183">
        <ele>103</ele>
        <time>2015-01-18T08:27:57Z</time>
      </trkpt>
      <trkpt lat="48.64554" lon="-3.38171">
        <ele>102</ele>
        <time>2015-01-18T08:27:58Z</time>
      </trkpt>
      <trkpt lat="48.64552" lon="-3.38159">
        <ele>102</ele>
        <time>2015-01-18T08:27:59Z</time>
      </trkpt>
      <trkpt lat="48.6455" lon="-3.38147">
        <ele>102</ele>
        <time>2015-01-18T08:28:00Z</time>
      </trkpt>
      <trkpt lat="48.64547" lon="-3.38134">
        <ele>101</ele>
        <time>2015-01-18T08:28:01Z</time>
      </trkpt>
      <trkpt lat="48.64544" lon="-3.38121">
        <ele>101</ele>
        <time>2015-01-18T08:28:02Z</time>
      </trkpt>
      <trkpt lat="48.64541" lon="-3.38108">
        <ele>100</ele>
        <time>2015-01-18T08:28:03Z</time>
      </trkpt>
      <trkpt lat="48.64538" lon="-3.38096">
        <ele>100</ele>
        <time>2015-01-18T08:28:04Z</time>
      </trkpt>
      <trkpt lat="48.64534" lon="-3.38083">
        <ele>100</ele>
        <time>2015-01-18T08:28:05Z</time>
      </trkpt>
      <trkpt lat="48.64531" lon="-3.38071">
        <ele>100</ele>
        <time>2015-01-18T08:28:06Z</time>
      </trkpt>
      <trkpt lat="48.64528" lon="-3.38059">
        <ele>100</ele>
        <time>2015-01-18T08:28:07Z</time>
      </trkpt>
      <trkpt lat="48.64525" lon="-3.38047">
        <ele>100</ele>
        <time>2015-01-18T08:28:08Z</time>
      </trkpt>
      <trkpt lat="48.64522" lon="-3.38036">
        <ele>100</ele>
        <time>2015-01-18T08:28:09Z</time>
      </trkpt>
      <trkpt lat="48.64519" lon="-3.38026">
        <ele>100</ele>
        <time>2015-01-18T08:28:10Z</time>
      </trkpt>
      <trkpt lat="48.64516" lon="-3.38017">
        <ele>100</ele>
        <time>2015-01-18T08:28:11Z</time>
      </trkpt>
      <trkpt lat="48.64514" lon="-3.38008">
        <ele>100</ele>
        <time>2015-01-18T08:28:12Z</time>
      </trkpt>
      <trkpt lat="48.64511" lon="-3.38">
        <ele>100</ele>
        <time>2015-01-18T08:28:13Z</time>
      </trkpt>
      <trkpt lat="48.64508" lon="-3.37991">
        <ele>100</ele>
        <time>2015-01-18T08:28:14Z</time>
      </trkpt>
      <trkpt lat="48.64505" lon="-3.37982">
        <ele>100</ele>
        <time>2015-01-18T08:28:15Z</time>
      </trkpt>
      <trkpt lat="48.64502" lon="-3.37974">
        <ele>100</ele>
        <time>2015-01-18T08:28:16Z</time>
      </trkpt>
      <trkpt lat="48.64499" lon="-3.37965">
        <ele>100</ele>
        <time>2015-01-18T08:28:17Z</time>
      </trkpt>
      <trkpt lat="48.64495" lon="-3.37957">
        <ele>100</ele>
        <time>2015-01-18T08:28:18Z</time>
      </trkpt>
      <trkpt lat="48.64492" lon="-3.37949">
        <ele>100</ele>
        <time>2015-01-18T08:28:19Z</time>
      </trkpt>
      <trkpt lat="48.64487" lon="-3.37941">
        <ele>100</ele>
        <time>2015-01-18T08:28:20Z</time>
      </trkpt>
      <trkpt lat="48.64483" lon="-3.37934">
        <ele>100</ele>
        <time>2015-01-18T08:28:21Z</time>
      </trkpt>
      <trkpt lat="48.64479" lon="-3.37926">
        <ele>100</ele>
        <time>2015-01-18T08:28:22Z</time>
      </trkpt>
      <trkpt lat="48.64474" lon="-3.37919">
        <ele>100</ele>
        <time>2015-01-18T08:28:23Z</time>
      </trkpt>
      <trkpt lat="48.64469" lon="-3.37912">
        <ele>100</ele>
        <time>2015-01-18T08:28:24Z</time>
      </trkpt>
      <trkpt lat="48.64464" lon="-3.37905">
        <ele>100</ele>
        <time>2015-01-18T08:28:25Z</time>
      </trkpt>
      <trkpt lat="48.64459" lon="-3.37898">
        <ele>100</ele>
        <time>2015-01-18T08:28:26Z</time>
      </trkpt>
      <trkpt lat="48.64454" lon="-3.37891">
        <ele>100</ele>
        <time>2015-01-18T08:28:27Z</time>
      </trkpt>
      <trkpt lat="48.64449" lon="-3.37884">
        <ele>100</ele>
        <time>2015-01-18T08:28:28Z</time>
      </trkpt>
      <trkpt lat="48.64444" lon="-3.37877">
        <ele>100</ele>
        <time>2015-01-18T08:28:29Z</time>
      </trkpt>
      <trkpt lat="48.64439" lon="-3.37871">
        <ele>100</ele>
        <time>2015-01-18T08:28:30Z</time>
      </trkpt>
      <trkpt lat="48.64434" lon="-3.37865">
        <ele>100</ele>
        <time>2015-01-18T08:28:31Z</time>
      </trkpt>
      <trkpt lat="48.64429" lon="-3.37859">
        <ele>100</ele>
        <time>2015-01-18T08:28:32Z</time>
      </trkpt>
      <trkpt lat="48.64424" lon="-3.37852">
        <ele>100</ele>
        <time>2015-01-18T08:28:33Z</time>
      </trkpt>
      <trkpt lat="48.6442" lon="-3.37847">
        <ele>100</ele>
        <time>2015-01-18T08:28:34Z</time>
      </trkpt>
      <trkpt lat="48.64415" lon="-3.37841">
        <ele>100</ele>
        <time>2015-01-18T08:28:35Z</time>
      </trkpt>
      <trkpt lat="48.6441" lon="-3.37835">
        <ele>100</ele>
        <time>2015-01-18T08:28:36Z</time>
      </trkpt>
      <trkpt lat="48.64405" lon="-3.3783">
        <ele>100</ele>
        <time>2015-01-18T08:28:37Z</time>
      </trkpt>
      <trkpt lat="48.64399" lon="-3.37824">
        <ele>100</ele>
        <time>2015-01-18T08:28:38Z</time>
      </trkpt>
      <trkpt lat="48.64394" lon="-3.37819">
        <ele>100</ele>
        <time>2015-01-18T08:28:39Z</time>
      </trkpt>
      <trkpt lat="48.64389" lon="-3.37813">
        <ele>100</ele>
        <time>2015-01-18T08:28:40Z</time>
      </trkpt>
      <trkpt lat="48.64384" lon="-3.37808">
        <ele>100</ele>
        <time>2015-01-18T08:28:41Z</time>
      </trkpt>
      <trkpt lat="48.6438" lon="-3.37803">
        <ele>100</ele>
        <time>2015-01-18T08:28:42Z</time>
      </trkpt>
      <trkpt lat="48.64375" lon="-3.37797">
        <ele>100</ele>
        <time>2015-01-18T08:28:43Z</time>
      </trkpt>
      <trkpt lat="48.64371" lon="-3.37791">
        <ele>100</ele>
        <time>2015-01-18T08:28:44Z</time>
      </trkpt>
      <trkpt lat="48.64367" lon="-3.37785">
        <ele>100</ele>
        <time>2015-01-18T08:28:45Z</time>
      </trkpt>
      <trkpt lat="48.64362" lon="-3.37779">
        <ele>100</ele>
        <time>2015-01-18T08:28:46Z</time>
      </trkpt>
      <trkpt lat="48.64358" lon="-3.37772">
        <ele>100</ele>
        <time>2015-01-18T08:28:47Z</time>
      </trkpt>
      <trkpt lat="48.64354" lon="-3.37765">
        <ele>100</ele>
        <time>2015-01-18T08:28:48Z</time>
      </trkpt>
      <trkpt lat="48.64351" lon="-3.37757">
        <ele>100</ele>
        <time>2015-01-18T08:28:49Z</time>
      </trkpt>
      <trkpt lat="48.64348" lon="-3.37748">
        <ele>100</ele>
        <time>2015-01-18T08:28:50Z</time>
      </trkpt>
      <trkpt lat="48.64345" lon="-3.37739">
        <ele>100</ele>
        <time>2015-01-18T08:28:51Z</time>
      </trkpt>
      <trkpt lat="48.64342" lon="-3.3773">
        <ele>100</ele>
        <time>2015-01-18T08:28:52Z</time>
      </trkpt>
      <trkpt lat="48.6434" lon="-3.3772">
        <ele>100</ele>
        <time>2015-01-18T08:28:53Z</time>
      </trkpt>
      <trkpt lat="48.64337" lon="-3.3771">
        <ele>100</ele>
        <time>2015-01-18T08:28:54Z</time>
      </trkpt>
      <trkpt lat="48.64334" lon="-3.377">
        <ele>100</ele>
        <time>2015-01-18T08:28:55Z</time>
      </trkpt>
      <trkpt lat="48.64332" lon="-3.37689">
        <ele>100</ele>
        <time>2015-01-18T08:28:56Z</time>
      </trkpt>
      <trkpt lat="48.64329" lon="-3.37678">
        <ele>100</ele>
        <time>2015-01-18T08:28:57Z</time>
      </trkpt>
      <trkpt lat="48.64326" lon="-3.37667">
        <ele>100</ele>
        <time>2015-01-18T08:28:58Z</time>
      </trkpt>
      <trkpt lat="48.64323" lon="-3.37656">
        <ele>100</ele>
        <time>2015-01-18T08:28:59Z</time>
      </trkpt>
      <trkpt lat="48.6432" lon="-3.37644">
        <ele>100</ele>
        <time>2015-01-18T08:29:00Z</time>
      </trkpt>
      <trkpt lat="48.64317" lon="-3.37632">
        <ele>100</ele>
        <time>2015-01-18T08:29:01Z</time>
      </trkpt>
      <trkpt lat="48.64315" lon="-3.3762">
        <ele>100</ele>
        <time>2015-01-18T08:29:02Z</time>
      </trkpt>
      <trkpt lat="48.64312" lon="-3.37608">
        <ele>100</ele>
        <time>2015-01-18T08:29:03Z</time>
      </trkpt>
      <trkpt lat="48.64309" lon="-3.37594">
        <ele>100</ele>
        <time>2015-01-18T08:29:04Z</time>
      </trkpt>
      <trkpt lat="48.64307" lon="-3.37581">
        <ele>100</ele>
        <time>2015-01-18T08:29:05Z</time>
      </trkpt>
      <trkpt lat="48.64305" lon="-3.37566">
        <ele>99</ele>
        <time>2015-01-18T08:29:06Z</time>
      </trkpt>
      <trkpt lat="48.64302" lon="-3.37552">
        <ele>99</ele>
        <time>2015-01-18T08:29:07Z</time>
      </trkpt>
      <trkpt lat="48.643" lon="-3.37538">
        <ele>98</ele>
        <time>2015-01-18T08:29:08Z</time>
      </trkpt>
      <trkpt lat="48.64298" lon="-3.37524">
        <ele>98</ele>
        <time>2015-01-18T08:29:09Z</time>
      </trkpt>
      <trkpt lat="48.64296" lon="-3.37511">
        <ele>98</ele>
        <time>2015-01-18T08:29:10Z</time>
      </trkpt>
      <trkpt lat="48.64294" lon="-3.37499">
        <ele>98</ele>
        <time>2015-01-18T08:29:11Z</time>
      </trkpt>
      <trkpt lat="48.64291" lon="-3.37487">
        <ele>98</ele>
        <time>2015-01-18T08:29:12Z</time>
      </trkpt>
      <trkpt lat="48.6429" lon="-3.37476">
        <ele>98</ele>
        <time>2015-01-18T08:29:13Z</time>
      </trkpt>
      <trkpt lat="48.64288" lon="-3.37466">
        <ele>98</ele>
        <time>2015-01-18T08:29:14Z</time>
      </trkpt>
      <trkpt lat="48.64288" lon="-3.37456">
        <ele>98</ele>
        <time>2015-01-18T08:29:15Z</time>
      </trkpt>
      <trkpt lat="48.64287" lon="-3.37447">
        <ele>98</ele>
        <time>2015-01-18T08:29:16Z</time>
      </trkpt>
      <trkpt lat="48.64288" lon="-3.37438">
        <ele>98</ele>
        <time>2015-01-18T08:29:17Z</time>
      </trkpt>
      <trkpt lat="48.64288" lon="-3.37429">
        <ele>98</ele>
        <time>2015-01-18T08:29:18Z</time>
      </trkpt>
      <trkpt lat="48.64289" lon="-3.37421">
        <ele>98</ele>
        <time>2015-01-18T08:29:19Z</time>
      </trkpt>
      <trkpt lat="48.6429" lon="-3.37412">
        <ele>98</ele>
        <time>2015-01-18T08:29:20Z</time>
      </trkpt>
      <trkpt lat="48.64292" lon="-3.37404">
        <ele>98</ele>
        <time>2015-01-18T08:29:21Z</time>
      </trkpt>
      <trkpt lat="48.64293" lon="-3.37396">
        <ele>98</ele>
        <time>2015-01-18T08:29:22Z</time>
      </trkpt>
      <trkpt lat="48.64295" lon="-3.37388">
        <ele>98</ele>
        <time>2015-01-18T08:29:23Z</time>
      </trkpt>
      <trkpt lat="48.64296" lon="-3.3738">
        <ele>98</ele>
        <time>2015-01-18T08:29:24Z</time>
      </trkpt>
      <trkpt lat="48.64298" lon="-3.37372">
        <ele>98</ele>
        <time>2015-01-18T08:29:25Z</time>
      </trkpt>
      <trkpt lat="48.64299" lon="-3.37364">
        <ele>98</ele>
        <time>2015-01-18T08:29:26Z</time>
      </trkpt>
      <trkpt lat="48.643" lon="-3.37355">
        <ele>98</ele>
        <time>2015-01-18T08:29:27Z</time>
      </trkpt>
      <trkpt lat="48.64301" lon="-3.37347">
        <ele>98</ele>
        <time>2015-01-18T08:29:28Z</time>
      </trkpt>
      <trkpt lat="48.64302" lon="-3.37338">
        <ele>98</ele>
        <time>2015-01-18T08:29:29Z</time>
      </trkpt>
      <trkpt lat="48.64302" lon="-3.3733">
        <ele>98</ele>
        <time>2015-01-18T08:29:30Z</time>
      </trkpt>
      <trkpt lat="48.64301" lon="-3.37321">
        <ele>98</ele>
        <time>2015-01-18T08:29:31Z</time>
      </trkpt>
      <trkpt lat="48.64299" lon="-3.37312">
        <ele>99</ele>
        <time>2015-01-18T08:29:32Z</time>
      </trkpt>
      <trkpt lat="48.64297" lon="-3.37304">
        <ele>99</ele>
        <time>2015-01-18T08:29:33Z</time>
      </trkpt>
      <trkpt lat="48.64294" lon="-3.37296">
        <ele>99</ele>
        <time>2015-01-18T08:29:34Z</time>
      </trkpt>
      <trkpt lat="48.64291" lon="-3.37289">
        <ele>100</ele>
        <time>2015-01-18T08:29:35Z</time>
      </trkpt>
      <trkpt lat="48.64286" lon="-3.37284">
        <ele>100</ele>
        <time>2015-01-18T08:29:36Z</time>
      </trkpt>
      <trkpt lat="48.64282" lon="-3.37279">
        <ele>101</ele>
        <time>2015-01-18T08:29:37Z</time>
      </trkpt>
      <trkpt lat="48.64277" lon="-3.37275">
        <ele>101</ele>
        <time>2015-01-18T08:29:38Z</time>
      </trkpt>
      <trkpt lat="48.64272" lon="-3.37272">
        <ele>101</ele>
        <time>2015-01-18T08:29:39Z</time>
      </trkpt>
      <trkpt lat="48.64266" lon="-3.37271">
        <ele>102</ele>
        <time>2015-01-18T08:29:40Z</time>
      </trkpt>
      <trkpt lat="48.6426" lon="-3.37269">
        <ele>103</ele>
        <time>2015-01-18T08:29:41Z</time>
      </trkpt>
      <trkpt lat="48.64248" lon="-3.37271">
        <ele>104</ele>
        <time>2015-01-18T08:29:43Z</time>
      </trkpt>
      <trkpt lat="48.64242" lon="-3.37273">
        <ele>104</ele>
        <time>2015-01-18T08:29:44Z</time>
      </trkpt>
      <trkpt lat="48.64237" lon="-3.37275">
        <ele>104</ele>
        <time>2015-01-18T08:29:45Z</time>
      </trkpt>
      <trkpt lat="48.64231" lon="-3.37278">
        <ele>105</ele>
        <time>2015-01-18T08:29:46Z</time>
      </trkpt>
      <trkpt lat="48.64225" lon="-3.3728">
        <ele>105</ele>
        <time>2015-01-18T08:29:47Z</time>
      </trkpt>
      <trkpt lat="48.6422" lon="-3.37283">
        <ele>105</ele>
        <time>2015-01-18T08:29:48Z</time>
      </trkpt>
      <trkpt lat="48.64214" lon="-3.37286">
        <ele>105</ele>
        <time>2015-01-18T08:29:49Z</time>
      </trkpt>
      <trkpt lat="48.64209" lon="-3.37289">
        <ele>106</ele>
        <time>2015-01-18T08:29:50Z</time>
      </trkpt>
      <trkpt lat="48.64204" lon="-3.37291">
        <ele>106</ele>
        <time>2015-01-18T08:29:51Z</time>
      </trkpt>
      <trkpt lat="48.64199" lon="-3.37293">
        <ele>106</ele>
        <time>2015-01-18T08:29:52Z</time>
      </trkpt>
      <trkpt lat="48.64194" lon="-3.37294">
        <ele>106</ele>
        <time>2015-01-18T08:29:53Z</time>
      </trkpt>
      <trkpt lat="48.64189" lon="-3.37295">
        <ele>106</ele>
        <time>2015-01-18T08:29:54Z</time>
      </trkpt>
      <trkpt lat="48.64185" lon="-3.37295">
        <ele>107</ele>
        <time>2015-01-18T08:29:55Z</time>
      </trkpt>
      <trkpt lat="48.6418" lon="-3.37294">
        <ele>107</ele>
        <time>2015-01-18T08:29:56Z</time>
      </trkpt>
      <trkpt lat="48.64176" lon="-3.37293">
        <ele>107</ele>
        <time>2015-01-18T08:29:57Z</time>
      </trkpt>
      <trkpt lat="48.64172" lon="-3.37291">
        <ele>107</ele>
        <time>2015-01-18T08:29:58Z</time>
      </trkpt>
      <trkpt lat="48.64168" lon="-3.37288">
        <ele>108</ele>
        <time>2015-01-18T08:29:59Z</time>
      </trkpt>
      <trkpt lat="48.64164" lon="-3.37285">
        <ele>108</ele>
        <time>2015-01-18T08:30:00Z</time>
      </trkpt>
      <trkpt lat="48.6416" lon="-3.37282">
        <ele>108</ele>
        <time>2015-01-18T08:30:01Z</time>
      </trkpt>
      <trkpt lat="48.64157" lon="-3.37278">
        <ele>108</ele>
        <time>2015-01-18T08:30:02Z</time>
      </trkpt>
      <trkpt lat="48.64154" lon="-3.37273">
        <ele>108</ele>
        <time>2015-01-18T08:30:03Z</time>
      </trkpt>
      <trkpt lat="48.64151" lon="-3.37269">
        <ele>109</ele>
        <time>2015-01-18T08:30:04Z</time>
      </trkpt>
      <trkpt lat="48.64148" lon="-3.37265">
        <ele>109</ele>
        <time>2015-01-18T08:30:05Z</time>
      </trkpt>
      <trkpt lat="48.64145" lon="-3.37261">
        <ele>109</ele>
        <time>2015-01-18T08:30:06Z</time>
      </trkpt>
      <trkpt lat="48.64142" lon="-3.37257">
        <ele>109</ele>
        <time>2015-01-18T08:30:07Z</time>
      </trkpt>
      <trkpt lat="48.64139" lon="-3.37253">
        <ele>110</ele>
        <time>2015-01-18T08:30:08Z</time>
      </trkpt>
      <trkpt lat="48.64136" lon="-3.37249">
        <ele>110</ele>
        <time>2015-01-18T08:30:09Z</time>
      </trkpt>
      <trkpt lat="48.64133" lon="-3.37246">
        <ele>110</ele>
        <time>2015-01-18T08:30:10Z</time>
      </trkpt>
      <trkpt lat="48.6413" lon="-3.37243">
        <ele>111</ele>
        <time>2015-01-18T08:30:11Z</time>
      </trkpt>
      <trkpt lat="48.64127" lon="-3.37239">
        <ele>111</ele>
        <time>2015-01-18T08:30:12Z</time>
      </trkpt>
      <trkpt lat="48.64125" lon="-3.37236">
        <ele>111</ele>
        <time>2015-01-18T08:30:13Z</time>
      </trkpt>
      <trkpt lat="48.64122" lon="-3.37232">
        <ele>112</ele>
        <time>2015-01-18T08:30:14Z</time>
      </trkpt>
      <trkpt lat="48.64119" lon="-3.37229">
        <ele>112</ele>
        <time>2015-01-18T08:30:15Z</time>
      </trkpt>
      <trkpt lat="48.64117" lon="-3.37225">
        <ele>112</ele>
        <time>2015-01-18T08:30:16Z</time>
      </trkpt>
      <trkpt lat="48.64115" lon="-3.37222">
        <ele>112</ele>
        <time>2015-01-18T08:30:17Z</time>
      </trkpt>
      <trkpt lat="48.64113" lon="-3.37219">
        <ele>113</ele>
        <time>2015-01-18T08:30:18Z</time>
      </trkpt>
      <trkpt lat="48.64112" lon="-3.37215">
        <ele>113</ele>
        <time>2015-01-18T08:30:19Z</time>
      </trkpt>
      <trkpt lat="48.64111" lon="-3.37211">
        <ele>113</ele>
        <time>2015-01-18T08:30:20Z</time>
      </trkpt>
      <trkpt lat="48.64111" lon="-3.37206">
        <ele>113</ele>
        <time>2015-01-18T08:30:21Z</time>
      </trkpt>
      <trkpt lat="48.64111" lon="-3.37202">
        <ele>113</ele>
        <time>2015-01-18T08:30:22Z</time>
      </trkpt>
      <trkpt lat="48.64112" lon="-3.37199">
        <ele>113</ele>
        <time>2015-01-18T08:30:23Z</time>
      </trkpt>
      <trkpt lat="48.64115" lon="-3.37195">
        <ele>113</ele>
        <time>2015-01-18T08:30:24Z</time>
      </trkpt>
      <trkpt lat="48.64117" lon="-3.37193">
        <ele>113</ele>
        <time>2015-01-18T08:30:25Z</time>
      </trkpt>
      <trkpt lat="48.6412" lon="-3.3719">
        <ele>113</ele>
        <time>2015-01-18T08:30:26Z</time>
      </trkpt>
      <trkpt lat="48.64124" lon="-3.37186">
        <ele>113</ele>
        <time>2015-01-18T08:30:27Z</time>
      </trkpt>
      <trkpt lat="48.64127" lon="-3.37183">
        <ele>113</ele>
        <time>2015-01-18T08:30:28Z</time>
      </trkpt>
      <trkpt lat="48.6413" lon="-3.3718">
        <ele>113</ele>
        <time>2015-01-18T08:30:29Z</time>
      </trkpt>
      <trkpt lat="48.64134" lon="-3.37176">
        <ele>113</ele>
        <time>2015-01-18T08:30:30Z</time>
      </trkpt>
      <trkpt lat="48.64138" lon="-3.37173">
        <ele>113</ele>
        <time>2015-01-18T08:30:31Z</time>
      </trkpt>
      <trkpt lat="48.64141" lon="-3.37169">
        <ele>113</ele>
        <time>2015-01-18T08:30:32Z</time>
      </trkpt>
      <trkpt lat="48.64145" lon="-3.37165">
        <ele>114</ele>
        <time>2015-01-18T08:30:33Z</time>
      </trkpt>
      <trkpt lat="48.64148" lon="-3.37162">
        <ele>114</ele>
        <time>2015-01-18T08:30:34Z</time>
      </trkpt>
      <trkpt lat="48.64152" lon="-3.37157">
        <ele>114</ele>
        <time>2015-01-18T08:30:35Z</time>
      </trkpt>
      <trkpt lat="48.64155" lon="-3.37153">
        <ele>114</ele>
        <time>2015-01-18T08:30:36Z</time>
      </trkpt>
      <trkpt lat="48.64159" lon="-3.37149">
        <ele>114</ele>
        <time>2015-01-18T08:30:37Z</time>
      </trkpt>
      <trkpt lat="48.64162" lon="-3.37145">
        <ele>114</ele>
        <time>2015-01-18T08:30:38Z</time>
      </trkpt>
      <trkpt lat="48.64165" lon="-3.37141">
        <ele>114</ele>
        <time>2015-01-18T08:30:39Z</time>
      </trkpt>
      <trkpt lat="48.64169" lon="-3.37138">
        <ele>114</ele>
        <time>2015-01-18T08:30:40Z</time>
      </trkpt>
      <trkpt lat="48.64172" lon="-3.37134">
        <ele>114</ele>
        <time>2015-01-18T08:30:41Z</time>
      </trkpt>
      <trkpt lat="48.64176" lon="-3.3713">
        <ele>114</ele>
        <time>2015-01-18T08:30:42Z</time>
      </trkpt>
      <trkpt lat="48.6418" lon="-3.37126">
        <ele>114</ele>
        <time>2015-01-18T08:30:43Z</time>
      </trkpt>
      <trkpt lat="48.64183" lon="-3.37121">
        <ele>114</ele>
        <time>2015-01-18T08:30:44Z</time>
      </trkpt>
      <trkpt lat="48.64187" lon="-3.37116">
        <ele>114</ele>
        <time>2015-01-18T08:30:45Z</time>
      </trkpt>
      <trkpt lat="48.64189" lon="-3.37109">
        <ele>114</ele>
        <time>2015-01-18T08:30:46Z</time>
      </trkpt>
      <trkpt lat="48.64191" lon="-3.37101">
        <ele>114</ele>
        <time>2015-01-18T08:30:47Z</time>
      </trkpt>
      <trkpt lat="48.64193" lon="-3.37092">
        <ele>114</ele>
        <time>2015-01-18T08:30:48Z</time>
      </trkpt>
      <trkpt lat="48.64193" lon="-3.37083">
        <ele>114</ele>
        <time>2015-01-18T08:30:49Z</time>
      </trkpt>
      <trkpt lat="48.64194" lon="-3.37073">
        <ele>114</ele>
        <time>2015-01-18T08:30:50Z</time>
      </trkpt>
      <trkpt lat="48.64196" lon="-3.37063">
        <ele>114</ele>
        <time>2015-01-18T08:30:51Z</time>
      </trkpt>
      <trkpt lat="48.64197" lon="-3.37051">
        <ele>114</ele>
        <time>2015-01-18T08:30:52Z</time>
      </trkpt>
      <trkpt lat="48.64198" lon="-3.37039">
        <ele>114</ele>
        <time>2015-01-18T08:30:53Z</time>
      </trkpt>
      <trkpt lat="48.642" lon="-3.37027">
        <ele>114</ele>
        <time>2015-01-18T08:30:54Z</time>
      </trkpt>
      <trkpt lat="48.64202" lon="-3.37013">
        <ele>114</ele>
        <time>2015-01-18T08:30:55Z</time>
      </trkpt>
      <trkpt lat="48.64203" lon="-3.36999">
        <ele>114</ele>
        <time>2015-01-18T08:30:56Z</time>
      </trkpt>
      <trkpt lat="48.64205" lon="-3.36985">
        <ele>114</ele>
        <time>2015-01-18T08:30:57Z</time>
      </trkpt>
      <trkpt lat="48.64206" lon="-3.36971">
        <ele>113</ele>
        <time>2015-01-18T08:30:58Z</time>
      </trkpt>
      <trkpt lat="48.64208" lon="-3.36957">
        <ele>113</ele>
        <time>2015-01-18T08:30:59Z</time>
      </trkpt>
      <trkpt lat="48.64211" lon="-3.36942">
        <ele>112</ele>
        <time>2015-01-18T08:31:00Z</time>
      </trkpt>
      <trkpt lat="48.64214" lon="-3.36928">
        <ele>112</ele>
        <time>2015-01-18T08:31:00Z</time>
      </trkpt>
      <trkpt lat="48.64217" lon="-3.36913">
        <ele>111</ele>
        <time>2015-01-18T08:31:01Z</time>
      </trkpt>
      <trkpt lat="48.6422" lon="-3.36898">
        <ele>111</ele>
        <time>2015-01-18T08:31:02Z</time>
      </trkpt>
      <trkpt lat="48.64223" lon="-3.36883">
        <ele>110</ele>
        <time>2015-01-18T08:31:03Z</time>
      </trkpt>
      <trkpt lat="48.64225" lon="-3.36868">
        <ele>110</ele>
        <time>2015-01-18T08:31:04Z</time>
      </trkpt>
      <trkpt lat="48.64228" lon="-3.36853">
        <ele>109</ele>
        <time>2015-01-18T08:31:05Z</time>
      </trkpt>
      <trkpt lat="48.64231" lon="-3.36837">
        <ele>109</ele>
        <time>2015-01-18T08:31:06Z</time>
      </trkpt>
      <trkpt lat="48.64234" lon="-3.36822">
        <ele>108</ele>
        <time>2015-01-18T08:31:07Z</time>
      </trkpt>
      <trkpt lat="48.64237" lon="-3.36805">
        <ele>107</ele>
        <time>2015-01-18T08:31:08Z</time>
      </trkpt>
      <trkpt lat="48.64241" lon="-3.36789">
        <ele>107</ele>
        <time>2015-01-18T08:31:09Z</time>
      </trkpt>
      <trkpt lat="48.64245" lon="-3.36773">
        <ele>106</ele>
        <time>2015-01-18T08:31:10Z</time>
      </trkpt>
      <trkpt lat="48.64251" lon="-3.36757">
        <ele>105</ele>
        <time>2015-01-18T08:31:11Z</time>
      </trkpt>
      <trkpt lat="48.64256" lon="-3.36742">
        <ele>105</ele>
        <time>2015-01-18T08:31:12Z</time>
      </trkpt>
      <trkpt lat="48.6426" lon="-3.36726">
        <ele>104</ele>
        <time>2015-01-18T08:31:13Z</time>
      </trkpt>
      <trkpt lat="48.64265" lon="-3.36711">
        <ele>103</ele>
        <time>2015-01-18T08:31:14Z</time>
      </trkpt>
      <trkpt lat="48.6427" lon="-3.36695">
        <ele>103</ele>
        <time>2015-01-18T08:31:15Z</time>
      </trkpt>
      <trkpt lat="48.64275" lon="-3.36679">
        <ele>102</ele>
        <time>2015-01-18T08:31:16Z</time>
      </trkpt>
      <trkpt lat="48.6428" lon="-3.36663">
        <ele>101</ele>
        <time>2015-01-18T08:31:17Z</time>
      </trkpt>
      <trkpt lat="48.64284" lon="-3.36645">
        <ele>100</ele>
        <time>2015-01-18T08:31:18Z</time>
      </trkpt>
      <trkpt lat="48.64289" lon="-3.36627">
        <ele>99</ele>
        <time>2015-01-18T08:31:19Z</time>
      </trkpt>
      <trkpt lat="48.64294" lon="-3.36609">
        <ele>98</ele>
        <time>2015-01-18T08:31:20Z</time>
      </trkpt>
      <trkpt lat="48.64298" lon="-3.3659">
        <ele>97</ele>
        <time>2015-01-18T08:31:21Z</time>
      </trkpt>
      <trkpt lat="48.64303" lon="-3.36571">
        <ele>96</ele>
        <time>2015-01-18T08:31:22Z</time>
      </trkpt>
      <trkpt lat="48.64307" lon="-3.36551">
        <ele>95</ele>
        <time>2015-01-18T08:31:23Z</time>
      </trkpt>
      <trkpt lat="48.64312" lon="-3.36532">
        <ele>94</ele>
        <time>2015-01-18T08:31:24Z</time>
      </trkpt>
      <trkpt lat="48.64317" lon="-3.36513">
        <ele>93</ele>
        <time>2015-01-18T08:31:25Z</time>
      </trkpt>
      <trkpt lat="48.64322" lon="-3.36494">
        <ele>92</ele>
        <time>2015-01-18T08:31:26Z</time>
      </trkpt>
      <trkpt lat="48.64326" lon="-3.36475">
        <ele>91</ele>
        <time>2015-01-18T08:31:27Z</time>
      </trkpt>
      <trkpt lat="48.64331" lon="-3.36457">
        <ele>90</ele>
        <time>2015-01-18T08:31:28Z</time>
      </trkpt>
      <trkpt lat="48.64336" lon="-3.36438">
        <ele>90</ele>
        <time>2015-01-18T08:31:29Z</time>
      </trkpt>
      <trkpt lat="48.64341" lon="-3.36419">
        <ele>89</ele>
        <time>2015-01-18T08:31:30Z</time>
      </trkpt>
      <trkpt lat="48.64346" lon="-3.36401">
        <ele>88</ele>
        <time>2015-01-18T08:31:31Z</time>
      </trkpt>
      <trkpt lat="48.64351" lon="-3.36382">
        <ele>88</ele>
        <time>2015-01-18T08:31:32Z</time>
      </trkpt>
      <trkpt lat="48.64355" lon="-3.36364">
        <ele>87</ele>
        <time>2015-01-18T08:31:33Z</time>
      </trkpt>
      <trkpt lat="48.64358" lon="-3.36346">
        <ele>87</ele>
        <time>2015-01-18T08:31:34Z</time>
      </trkpt>
      <trkpt lat="48.64361" lon="-3.36329">
        <ele>87</ele>
        <time>2015-01-18T08:31:35Z</time>
      </trkpt>
      <trkpt lat="48.64363" lon="-3.36313">
        <ele>87</ele>
        <time>2015-01-18T08:31:36Z</time>
      </trkpt>
      <trkpt lat="48.64365" lon="-3.36298">
        <ele>87</ele>
        <time>2015-01-18T08:31:38Z</time>
      </trkpt>
      <trkpt lat="48.64367" lon="-3.36284">
        <ele>87</ele>
        <time>2015-01-18T08:31:39Z</time>
      </trkpt>
      <trkpt lat="48.64369" lon="-3.36273">
        <ele>87</ele>
        <time>2015-01-18T08:31:40Z</time>
      </trkpt>
      <trkpt lat="48.6437" lon="-3.36262">
        <ele>87</ele>
        <time>2015-01-18T08:31:41Z</time>
      </trkpt>
      <trkpt lat="48.64371" lon="-3.36253">
        <ele>87</ele>
        <time>2015-01-18T08:31:42Z</time>
      </trkpt>
      <trkpt lat="48.64372" lon="-3.36243">
        <ele>87</ele>
        <time>2015-01-18T08:31:43Z</time>
      </trkpt>
      <trkpt lat="48.64373" lon="-3.36235">
        <ele>87</ele>
        <time>2015-01-18T08:31:44Z</time>
      </trkpt>
      <trkpt lat="48.64373" lon="-3.36227">
        <ele>87</ele>
        <time>2015-01-18T08:31:45Z</time>
      </trkpt>
      <trkpt lat="48.64374" lon="-3.36219">
        <ele>87</ele>
        <time>2015-01-18T08:31:46Z</time>
      </trkpt>
      <trkpt lat="48.64375" lon="-3.36211">
        <ele>87</ele>
        <time>2015-01-18T08:31:47Z</time>
      </trkpt>
      <trkpt lat="48.64376" lon="-3.36204">
        <ele>87</ele>
        <time>2015-01-18T08:31:48Z</time>
      </trkpt>
      <trkpt lat="48.64377" lon="-3.36197">
        <ele>88</ele>
        <time>2015-01-18T08:31:49Z</time>
      </trkpt>
      <trkpt lat="48.64378" lon="-3.3619">
        <ele>88</ele>
        <time>2015-01-18T08:31:50Z</time>
      </trkpt>
      <trkpt lat="48.64378" lon="-3.36183">
        <ele>89</ele>
        <time>2015-01-18T08:31:51Z</time>
      </trkpt>
      <trkpt lat="48.64379" lon="-3.36177">
        <ele>89</ele>
        <time>2015-01-18T08:31:52Z</time>
      </trkpt>
      <trkpt lat="48.64381" lon="-3.3617">
        <ele>90</ele>
        <time>2015-01-18T08:31:53Z</time>
      </trkpt>
      <trkpt lat="48.64383" lon="-3.36164">
        <ele>90</ele>
        <time>2015-01-18T08:31:54Z</time>
      </trkpt>
      <trkpt lat="48.64384" lon="-3.36157">
        <ele>91</ele>
        <time>2015-01-18T08:31:55Z</time>
      </trkpt>
      <trkpt lat="48.64387" lon="-3.3615">
        <ele>91</ele>
        <time>2015-01-18T08:31:56Z</time>
      </trkpt>
      <trkpt lat="48.64389" lon="-3.36143">
        <ele>91</ele>
        <time>2015-01-18T08:31:57Z</time>
      </trkpt>
      <trkpt lat="48.64392" lon="-3.36135">
        <ele>91</ele>
        <time>2015-01-18T08:31:58Z</time>
      </trkpt>
      <trkpt lat="48.64395" lon="-3.36128">
        <ele>92</ele>
        <time>2015-01-18T08:31:59Z</time>
      </trkpt>
      <trkpt lat="48.64398" lon="-3.3612">
        <ele>92</ele>
        <time>2015-01-18T08:32:00Z</time>
      </trkpt>
      <trkpt lat="48.64401" lon="-3.36112">
        <ele>92</ele>
        <time>2015-01-18T08:32:01Z</time>
      </trkpt>
      <trkpt lat="48.64404" lon="-3.36104">
        <ele>92</ele>
        <time>2015-01-18T08:32:02Z</time>
      </trkpt>
      <trkpt lat="48.64406" lon="-3.36096">
        <ele>93</ele>
        <time>2015-01-18T08:32:03Z</time>
      </trkpt>
      <trkpt lat="48.64408" lon="-3.36087">
        <ele>93</ele>
        <time>2015-01-18T08:32:04Z</time>
      </trkpt>
      <trkpt lat="48.6441" lon="-3.36078">
        <ele>93</ele>
        <time>2015-01-18T08:32:05Z</time>
      </trkpt>
      <trkpt lat="48.64411" lon="-3.36069">
        <ele>93</ele>
        <time>2015-01-18T08:32:06Z</time>
      </trkpt>
      <trkpt lat="48.64412" lon="-3.3606">
        <ele>93</ele>
        <time>2015-01-18T08:32:07Z</time>
      </trkpt>
      <trkpt lat="48.64413" lon="-3.36051">
        <ele>94</ele>
        <time>2015-01-18T08:32:08Z</time>
      </trkpt>
      <trkpt lat="48.64415" lon="-3.36042">
        <ele>94</ele>
        <time>2015-01-18T08:32:09Z</time>
      </trkpt>
      <trkpt lat="48.64416" lon="-3.36033">
        <ele>94</ele>
        <time>2015-01-18T08:32:10Z</time>
      </trkpt>
      <trkpt lat="48.64417" lon="-3.36025">
        <ele>94</ele>
        <time>2015-01-18T08:32:11Z</time>
      </trkpt>
      <trkpt lat="48.64419" lon="-3.36016">
        <ele>94</ele>
        <time>2015-01-18T08:32:12Z</time>
      </trkpt>
      <trkpt lat="48.64421" lon="-3.36008">
        <ele>94</ele>
        <time>2015-01-18T08:32:13Z</time>
      </trkpt>
      <trkpt lat="48.64423" lon="-3.36">
        <ele>94</ele>
        <time>2015-01-18T08:32:14Z</time>
      </trkpt>
      <trkpt lat="48.64426" lon="-3.35993">
        <ele>94</ele>
        <time>2015-01-18T08:32:15Z</time>
      </trkpt>
      <trkpt lat="48.64428" lon="-3.35986">
        <ele>95</ele>
        <time>2015-01-18T08:32:16Z</time>
      </trkpt>
      <trkpt lat="48.64431" lon="-3.35979">
        <ele>95</ele>
        <time>2015-01-18T08:32:17Z</time>
      </trkpt>
      <trkpt lat="48.64433" lon="-3.35971">
        <ele>95</ele>
        <time>2015-01-18T08:32:18Z</time>
      </trkpt>
      <trkpt lat="48.64436" lon="-3.35964">
        <ele>95</ele>
        <time>2015-01-18T08:32:19Z</time>
      </trkpt>
      <trkpt lat="48.64439" lon="-3.35957">
        <ele>95</ele>
        <time>2015-01-18T08:32:20Z</time>
      </trkpt>
      <trkpt lat="48.64442" lon="-3.35949">
        <ele>95</ele>
        <time>2015-01-18T08:32:21Z</time>
      </trkpt>
      <trkpt lat="48.64445" lon="-3.35941">
        <ele>95</ele>
        <time>2015-01-18T08:32:22Z</time>
      </trkpt>
      <trkpt lat="48.64448" lon="-3.35933">
        <ele>95</ele>
        <time>2015-01-18T08:32:23Z</time>
      </trkpt>
      <trkpt lat="48.64452" lon="-3.35925">
        <ele>95</ele>
        <time>2015-01-18T08:32:24Z</time>
      </trkpt>
      <trkpt lat="48.64455" lon="-3.35917">
        <ele>96</ele>
        <time>2015-01-18T08:32:25Z</time>
      </trkpt>
      <trkpt lat="48.64459" lon="-3.35909">
        <ele>96</ele>
        <time>2015-01-18T08:32:26Z</time>
      </trkpt>
      <trkpt lat="48.64463" lon="-3.35901">
        <ele>96</ele>
        <time>2015-01-18T08:32:27Z</time>
      </trkpt>
      <trkpt lat="48.64466" lon="-3.35893">
        <ele>96</ele>
        <time>2015-01-18T08:32:28Z</time>
      </trkpt>
      <trkpt lat="48.6447" lon="-3.35885">
        <ele>96</ele>
        <time>2015-01-18T08:32:29Z</time>
      </trkpt>
      <trkpt lat="48.64474" lon="-3.35877">
        <ele>96</ele>
        <time>2015-01-18T08:32:30Z</time>
      </trkpt>
      <trkpt lat="48.64478" lon="-3.3587">
        <ele>96</ele>
        <time>2015-01-18T08:32:31Z</time>
      </trkpt>
      <trkpt lat="48.64482" lon="-3.35863">
        <ele>97</ele>
        <time>2015-01-18T08:32:32Z</time>
      </trkpt>
      <trkpt lat="48.64486" lon="-3.35856">
        <ele>97</ele>
        <time>2015-01-18T08:32:33Z</time>
      </trkpt>
      <trkpt lat="48.6449" lon="-3.35849">
        <ele>97</ele>
        <time>2015-01-18T08:32:34Z</time>
      </trkpt>
      <trkpt lat="48.64494" lon="-3.35842">
        <ele>97</ele>
        <time>2015-01-18T08:32:35Z</time>
      </trkpt>
      <trkpt lat="48.64497" lon="-3.35835">
        <ele>97</ele>
        <time>2015-01-18T08:32:36Z</time>
      </trkpt>
      <trkpt lat="48.645" lon="-3.35828">
        <ele>97</ele>
        <time>2015-01-18T08:32:37Z</time>
      </trkpt>
      <trkpt lat="48.64504" lon="-3.35821">
        <ele>97</ele>
        <time>2015-01-18T08:32:38Z</time>
      </trkpt>
      <trkpt lat="48.64508" lon="-3.35813">
        <ele>97</ele>
        <time>2015-01-18T08:32:39Z</time>
      </trkpt>
      <trkpt lat="48.64511" lon="-3.35805">
        <ele>97</ele>
        <time>2015-01-18T08:32:40Z</time>
      </trkpt>
      <trkpt lat="48.64514" lon="-3.35796">
        <ele>97</ele>
        <time>2015-01-18T08:32:41Z</time>
      </trkpt>
      <trkpt lat="48.64517" lon="-3.35787">
        <ele>97</ele>
        <time>2015-01-18T08:32:42Z</time>
      </trkpt>
      <trkpt lat="48.6452" lon="-3.35778">
        <ele>97</ele>
        <time>2015-01-18T08:32:43Z</time>
      </trkpt>
      <trkpt lat="48.64522" lon="-3.35769">
        <ele>97</ele>
        <time>2015-01-18T08:32:44Z</time>
      </trkpt>
      <trkpt lat="48.64524" lon="-3.3576">
        <ele>97</ele>
        <time>2015-01-18T08:32:45Z</time>
      </trkpt>
      <trkpt lat="48.64527" lon="-3.35751">
        <ele>97</ele>
        <time>2015-01-18T08:32:46Z</time>
      </trkpt>
      <trkpt lat="48.64529" lon="-3.35741">
        <ele>97</ele>
        <time>2015-01-18T08:32:47Z</time>
      </trkpt>
      <trkpt lat="48.64531" lon="-3.35731">
        <ele>97</ele>
        <time>2015-01-18T08:32:48Z</time>
      </trkpt>
      <trkpt lat="48.64533" lon="-3.35722">
        <ele>97</ele>
        <time>2015-01-18T08:32:49Z</time>
      </trkpt>
      <trkpt lat="48.64535" lon="-3.35712">
        <ele>97</ele>
        <time>2015-01-18T08:32:50Z</time>
      </trkpt>
      <trkpt lat="48.64537" lon="-3.35702">
        <ele>97</ele>
        <time>2015-01-18T08:32:51Z</time>
      </trkpt>
      <trkpt lat="48.6454" lon="-3.35693">
        <ele>97</ele>
        <time>2015-01-18T08:32:52Z</time>
      </trkpt>
      <trkpt lat="48.64543" lon="-3.35683">
        <ele>97</ele>
        <time>2015-01-18T08:32:53Z</time>
      </trkpt>
      <trkpt lat="48.64546" lon="-3.35674">
        <ele>97</ele>
        <time>2015-01-18T08:32:54Z</time>
      </trkpt>
      <trkpt lat="48.64549" lon="-3.35664">
        <ele>97</ele>
        <time>2015-01-18T08:32:55Z</time>
      </trkpt>
      <trkpt lat="48.64553" lon="-3.35654">
        <ele>97</ele>
        <time>2015-01-18T08:32:56Z</time>
      </trkpt>
      <trkpt lat="48.64557" lon="-3.35644">
        <ele>97</ele>
        <time>2015-01-18T08:32:57Z</time>
      </trkpt>
      <trkpt lat="48.64561" lon="-3.35635">
        <ele>97</ele>
        <time>2015-01-18T08:32:58Z</time>
      </trkpt>
      <trkpt lat="48.64565" lon="-3.35626">
        <ele>97</ele>
        <time>2015-01-18T08:32:59Z</time>
      </trkpt>
      <trkpt lat="48.64569" lon="-3.35616">
        <ele>97</ele>
        <time>2015-01-18T08:33:00Z</time>
      </trkpt>
      <trkpt lat="48.64574" lon="-3.35607">
        <ele>97</ele>
        <time>2015-01-18T08:33:01Z</time>
      </trkpt>
      <trkpt lat="48.64578" lon="-3.35598">
        <ele>97</ele>
        <time>2015-01-18T08:33:02Z</time>
      </trkpt>
      <trkpt lat="48.64583" lon="-3.35589">
        <ele>97</ele>
        <time>2015-01-18T08:33:03Z</time>
      </trkpt>
      <trkpt lat="48.64587" lon="-3.35581">
        <ele>97</ele>
        <time>2015-01-18T08:33:04Z</time>
      </trkpt>
      <trkpt lat="48.64592" lon="-3.35572">
        <ele>97</ele>
        <time>2015-01-18T08:33:05Z</time>
      </trkpt>
      <trkpt lat="48.64596" lon="-3.35562">
        <ele>97</ele>
        <time>2015-01-18T08:33:06Z</time>
      </trkpt>
      <trkpt lat="48.646" lon="-3.35552">
        <ele>97</ele>
        <time>2015-01-18T08:33:07Z</time>
      </trkpt>
      <trkpt lat="48.64604" lon="-3.35542">
        <ele>97</ele>
        <time>2015-01-18T08:33:08Z</time>
      </trkpt>
      <trkpt lat="48.64608" lon="-3.35532">
        <ele>97</ele>
        <time>2015-01-18T08:33:09Z</time>
      </trkpt>
      <trkpt lat="48.64612" lon="-3.35521">
        <ele>97</ele>
        <time>2015-01-18T08:33:10Z</time>
      </trkpt>
      <trkpt lat="48.64615" lon="-3.3551">
        <ele>97</ele>
        <time>2015-01-18T08:33:11Z</time>
      </trkpt>
      <trkpt lat="48.64619" lon="-3.355">
        <ele>97</ele>
        <time>2015-01-18T08:33:12Z</time>
      </trkpt>
      <trkpt lat="48.64623" lon="-3.35489">
        <ele>97</ele>
        <time>2015-01-18T08:33:13Z</time>
      </trkpt>
      <trkpt lat="48.64627" lon="-3.35479">
        <ele>97</ele>
        <time>2015-01-18T08:33:14Z</time>
      </trkpt>
      <trkpt lat="48.64631" lon="-3.35469">
        <ele>97</ele>
        <time>2015-01-18T08:33:15Z</time>
      </trkpt>
      <trkpt lat="48.64634" lon="-3.35459">
        <ele>97</ele>
        <time>2015-01-18T08:33:16Z</time>
      </trkpt>
      <trkpt lat="48.64638" lon="-3.3545">
        <ele>97</ele>
        <time>2015-01-18T08:33:17Z</time>
      </trkpt>
      <trkpt lat="48.64642" lon="-3.3544">
        <ele>97</ele>
        <time>2015-01-18T08:33:18Z</time>
      </trkpt>
      <trkpt lat="48.64645" lon="-3.35431">
        <ele>97</ele>
        <time>2015-01-18T08:33:19Z</time>
      </trkpt>
      <trkpt lat="48.64648" lon="-3.35421">
        <ele>97</ele>
        <time>2015-01-18T08:33:20Z</time>
      </trkpt>
      <trkpt lat="48.64652" lon="-3.35412">
        <ele>97</ele>
        <time>2015-01-18T08:33:21Z</time>
      </trkpt>
      <trkpt lat="48.64656" lon="-3.35402">
        <ele>97</ele>
        <time>2015-01-18T08:33:22Z</time>
      </trkpt>
      <trkpt lat="48.64659" lon="-3.35393">
        <ele>97</ele>
        <time>2015-01-18T08:33:23Z</time>
      </trkpt>
      <trkpt lat="48.64663" lon="-3.35384">
        <ele>97</ele>
        <time>2015-01-18T08:33:24Z</time>
      </trkpt>
      <trkpt lat="48.64666" lon="-3.35374">
        <ele>98</ele>
        <time>2015-01-18T08:33:25Z</time>
      </trkpt>
      <trkpt lat="48.64669" lon="-3.35365">
        <ele>98</ele>
        <time>2015-01-18T08:33:26Z</time>
      </trkpt>
      <trkpt lat="48.64672" lon="-3.35355">
        <ele>98</ele>
        <time>2015-01-18T08:33:27Z</time>
      </trkpt>
      <trkpt lat="48.64675" lon="-3.35345">
        <ele>98</ele>
        <time>2015-01-18T08:33:28Z</time>
      </trkpt>
      <trkpt lat="48.64678" lon="-3.35334">
        <ele>98</ele>
        <time>2015-01-18T08:33:29Z</time>
      </trkpt>
      <trkpt lat="48.6468" lon="-3.35323">
        <ele>98</ele>
        <time>2015-01-18T08:33:30Z</time>
      </trkpt>
      <trkpt lat="48.64682" lon="-3.35312">
        <ele>98</ele>
        <time>2015-01-18T08:33:31Z</time>
      </trkpt>
      <trkpt lat="48.64684" lon="-3.353">
        <ele>98</ele>
        <time>2015-01-18T08:33:32Z</time>
      </trkpt>
      <trkpt lat="48.64685" lon="-3.35289">
        <ele>98</ele>
        <time>2015-01-18T08:33:33Z</time>
      </trkpt>
      <trkpt lat="48.64686" lon="-3.35277">
        <ele>98</ele>
        <time>2015-01-18T08:33:34Z</time>
      </trkpt>
      <trkpt lat="48.64687" lon="-3.35265">
        <ele>98</ele>
        <time>2015-01-18T08:33:35Z</time>
      </trkpt>
      <trkpt lat="48.64689" lon="-3.35254">
        <ele>98</ele>
        <time>2015-01-18T08:33:36Z</time>
      </trkpt>
      <trkpt lat="48.6469" lon="-3.35242">
        <ele>98</ele>
        <time>2015-01-18T08:33:37Z</time>
      </trkpt>
      <trkpt lat="48.64692" lon="-3.3523">
        <ele>98</ele>
        <time>2015-01-18T08:33:38Z</time>
      </trkpt>
      <trkpt lat="48.64694" lon="-3.35218">
        <ele>98</ele>
        <time>2015-01-18T08:33:39Z</time>
      </trkpt>
      <trkpt lat="48.64696" lon="-3.35206">
        <ele>98</ele>
        <time>2015-01-18T08:33:40Z</time>
      </trkpt>
      <trkpt lat="48.64698" lon="-3.35194">
        <ele>98</ele>
        <time>2015-01-18T08:33:41Z</time>
      </trkpt>
      <trkpt lat="48.64701" lon="-3.35183">
        <ele>98</ele>
        <time>2015-01-18T08:33:42Z</time>
      </trkpt>
      <trkpt lat="48.64703" lon="-3.35171">
        <ele>98</ele>
        <time>2015-01-18T08:33:43Z</time>
      </trkpt>
      <trkpt lat="48.64706" lon="-3.35159">
        <ele>98</ele>
        <time>2015-01-18T08:33:44Z</time>
      </trkpt>
      <trkpt lat="48.64708" lon="-3.35148">
        <ele>98</ele>
        <time>2015-01-18T08:33:45Z</time>
      </trkpt>
      <trkpt lat="48.64711" lon="-3.35137">
        <ele>98</ele>
        <time>2015-01-18T08:33:46Z</time>
      </trkpt>
      <trkpt lat="48.64714" lon="-3.35125">
        <ele>98</ele>
        <time>2015-01-18T08:33:47Z</time>
      </trkpt>
      <trkpt lat="48.64716" lon="-3.35114">
        <ele>98</ele>
        <time>2015-01-18T08:33:48Z</time>
      </trkpt>
      <trkpt lat="48.64719" lon="-3.35103">
        <ele>98</ele>
        <time>2015-01-18T08:33:49Z</time>
      </trkpt>
      <trkpt lat="48.64721" lon="-3.35092">
        <ele>98</ele>
        <time>2015-01-18T08:33:50Z</time>
      </trkpt>
      <trkpt lat="48.64723" lon="-3.35081">
        <ele>98</ele>
        <time>2015-01-18T08:33:51Z</time>
      </trkpt>
      <trkpt lat="48.64725" lon="-3.3507">
        <ele>98</ele>
        <time>2015-01-18T08:33:52Z</time>
      </trkpt>
      <trkpt lat="48.64728" lon="-3.35059">
        <ele>98</ele>
        <time>2015-01-18T08:33:53Z</time>
      </trkpt>
      <trkpt lat="48.64731" lon="-3.35048">
        <ele>98</ele>
        <time>2015-01-18T08:33:54Z</time>
      </trkpt>
      <trkpt lat="48.64734" lon="-3.35038">
        <ele>98</ele>
        <time>2015-01-18T08:33:55Z</time>
      </trkpt>
      <trkpt lat="48.64736" lon="-3.35027">
        <ele>98</ele>
        <time>2015-01-18T08:33:56Z</time>
      </trkpt>
      <trkpt lat="48.64739" lon="-3.35016">
        <ele>98</ele>
        <time>2015-01-18T08:33:57Z</time>
      </trkpt>
      <trkpt lat="48.64741" lon="-3.35006">
        <ele>99</ele>
        <time>2015-01-18T08:33:58Z</time>
      </trkpt>
      <trkpt lat="48.64743" lon="-3.34995">
        <ele>99</ele>
        <time>2015-01-18T08:33:59Z</time>
      </trkpt>
      <trkpt lat="48.64746" lon="-3.34984">
        <ele>99</ele>
        <time>2015-01-18T08:34:00Z</time>
      </trkpt>
      <trkpt lat="48.64749" lon="-3.34974">
        <ele>99</ele>
        <time>2015-01-18T08:34:01Z</time>
      </trkpt>
      <trkpt lat="48.64751" lon="-3.34964">
        <ele>100</ele>
        <time>2015-01-18T08:34:02Z</time>
      </trkpt>
      <trkpt lat="48.64754" lon="-3.34954">
        <ele>100</ele>
        <time>2015-01-18T08:34:03Z</time>
      </trkpt>
      <trkpt lat="48.64757" lon="-3.34944">
        <ele>100</ele>
        <time>2015-01-18T08:34:04Z</time>
      </trkpt>
      <trkpt lat="48.64759" lon="-3.34934">
        <ele>100</ele>
        <time>2015-01-18T08:34:05Z</time>
      </trkpt>
      <trkpt lat="48.64762" lon="-3.34924">
        <ele>101</ele>
        <time>2015-01-18T08:34:06Z</time>
      </trkpt>
      <trkpt lat="48.64765" lon="-3.34914">
        <ele>101</ele>
        <time>2015-01-18T08:34:07Z</time>
      </trkpt>
      <trkpt lat="48.64767" lon="-3.34904">
        <ele>101</ele>
        <time>2015-01-18T08:34:08Z</time>
      </trkpt>
      <trkpt lat="48.6477" lon="-3.34895">
        <ele>101</ele>
        <time>2015-01-18T08:34:09Z</time>
      </trkpt>
      <trkpt lat="48.64773" lon="-3.34885">
        <ele>102</ele>
        <time>2015-01-18T08:34:10Z</time>
      </trkpt>
      <trkpt lat="48.64777" lon="-3.34876">
        <ele>102</ele>
        <time>2015-01-18T08:34:11Z</time>
      </trkpt>
      <trkpt lat="48.6478" lon="-3.34867">
        <ele>102</ele>
        <time>2015-01-18T08:34:12Z</time>
      </trkpt>
      <trkpt lat="48.64783" lon="-3.34858">
        <ele>102</ele>
        <time>2015-01-18T08:34:13Z</time>
      </trkpt>
      <trkpt lat="48.64787" lon="-3.34849">
        <ele>103</ele>
        <time>2015-01-18T08:34:14Z</time>
      </trkpt>
      <trkpt lat="48.64791" lon="-3.34841">
        <ele>103</ele>
        <time>2015-01-18T08:34:15Z</time>
      </trkpt>
      <trkpt lat="48.64796" lon="-3.34833">
        <ele>103</ele>
        <time>2015-01-18T08:34:16Z</time>
      </trkpt>
      <trkpt lat="48.64801" lon="-3.34826">
        <ele>103</ele>
        <time>2015-01-18T08:34:17Z</time>
      </trkpt>
      <trkpt lat="48.64807" lon="-3.3482">
        <ele>104</ele>
        <time>2015-01-18T08:34:18Z</time>
      </trkpt>
      <trkpt lat="48.64813" lon="-3.34814">
        <ele>104</ele>
        <time>2015-01-18T08:34:19Z</time>
      </trkpt>
      <trkpt lat="48.64819" lon="-3.34808">
        <ele>104</ele>
        <time>2015-01-18T08:34:20Z</time>
      </trkpt>
      <trkpt lat="48.64825" lon="-3.34803">
        <ele>104</ele>
        <time>2015-01-18T08:34:21Z</time>
      </trkpt>
      <trkpt lat="48.64832" lon="-3.34798">
        <ele>104</ele>
        <time>2015-01-18T08:34:22Z</time>
      </trkpt>
      <trkpt lat="48.64838" lon="-3.34792">
        <ele>104</ele>
        <time>2015-01-18T08:34:23Z</time>
      </trkpt>
      <trkpt lat="48.64845" lon="-3.34787">
        <ele>104</ele>
        <time>2015-01-18T08:34:24Z</time>
      </trkpt>
      <trkpt lat="48.64851" lon="-3.34782">
        <ele>104</ele>
        <time>2015-01-18T08:34:25Z</time>
      </trkpt>
      <trkpt lat="48.64857" lon="-3.34778">
        <ele>104</ele>
        <time>2015-01-18T08:34:26Z</time>
      </trkpt>
      <trkpt lat="48.64864" lon="-3.34774">
        <ele>104</ele>
        <time>2015-01-18T08:34:27Z</time>
      </trkpt>
      <trkpt lat="48.6487" lon="-3.3477">
        <ele>104</ele>
        <time>2015-01-18T08:34:28Z</time>
      </trkpt>
      <trkpt lat="48.64876" lon="-3.34767">
        <ele>104</ele>
        <time>2015-01-18T08:34:29Z</time>
      </trkpt>
      <trkpt lat="48.64883" lon="-3.34765">
        <ele>104</ele>
        <time>2015-01-18T08:34:30Z</time>
      </trkpt>
      <trkpt lat="48.6489" lon="-3.34763">
        <ele>104</ele>
        <time>2015-01-18T08:34:31Z</time>
      </trkpt>
      <trkpt lat="48.64897" lon="-3.3476">
        <ele>104</ele>
        <time>2015-01-18T08:34:32Z</time>
      </trkpt>
      <trkpt lat="48.64904" lon="-3.34758">
        <ele>104</ele>
        <time>2015-01-18T08:34:33Z</time>
      </trkpt>
      <trkpt lat="48.64911" lon="-3.34756">
        <ele>104</ele>
        <time>2015-01-18T08:34:34Z</time>
      </trkpt>
      <trkpt lat="48.64917" lon="-3.34754">
        <ele>104</ele>
        <time>2015-01-18T08:34:35Z</time>
      </trkpt>
      <trkpt lat="48.64924" lon="-3.34752">
        <ele>104</ele>
        <time>2015-01-18T08:34:36Z</time>
      </trkpt>
      <trkpt lat="48.6493" lon="-3.34749">
        <ele>104</ele>
        <time>2015-01-18T08:34:37Z</time>
      </trkpt>
      <trkpt lat="48.64937" lon="-3.34746">
        <ele>104</ele>
        <time>2015-01-18T08:34:38Z</time>
      </trkpt>
      <trkpt lat="48.64943" lon="-3.34743">
        <ele>104</ele>
        <time>2015-01-18T08:34:39Z</time>
      </trkpt>
      <trkpt lat="48.6495" lon="-3.3474">
        <ele>104</ele>
        <time>2015-01-18T08:34:40Z</time>
      </trkpt>
      <trkpt lat="48.64956" lon="-3.34736">
        <ele>104</ele>
        <time>2015-01-18T08:34:41Z</time>
      </trkpt>
      <trkpt lat="48.64963" lon="-3.34733">
        <ele>104</ele>
        <time>2015-01-18T08:34:42Z</time>
      </trkpt>
      <trkpt lat="48.64969" lon="-3.34729">
        <ele>104</ele>
        <time>2015-01-18T08:34:43Z</time>
      </trkpt>
      <trkpt lat="48.64976" lon="-3.34724">
        <ele>104</ele>
        <time>2015-01-18T08:34:44Z</time>
      </trkpt>
      <trkpt lat="48.64983" lon="-3.3472">
        <ele>104</ele>
        <time>2015-01-18T08:34:45Z</time>
      </trkpt>
      <trkpt lat="48.64989" lon="-3.34715">
        <ele>104</ele>
        <time>2015-01-18T08:34:46Z</time>
      </trkpt>
      <trkpt lat="48.64996" lon="-3.3471">
        <ele>104</ele>
        <time>2015-01-18T08:34:47Z</time>
      </trkpt>
      <trkpt lat="48.65002" lon="-3.34706">
        <ele>104</ele>
        <time>2015-01-18T08:34:48Z</time>
      </trkpt>
      <trkpt lat="48.65009" lon="-3.34701">
        <ele>104</ele>
        <time>2015-01-18T08:34:49Z</time>
      </trkpt>
      <trkpt lat="48.65015" lon="-3.34697">
        <ele>104</ele>
        <time>2015-01-18T08:34:50Z</time>
      </trkpt>
      <trkpt lat="48.65022" lon="-3.34692">
        <ele>105</ele>
        <time>2015-01-18T08:34:51Z</time>
      </trkpt>
      <trkpt lat="48.65029" lon="-3.34688">
        <ele>105</ele>
        <time>2015-01-18T08:34:52Z</time>
      </trkpt>
      <trkpt lat="48.65036" lon="-3.34684">
        <ele>105</ele>
        <time>2015-01-18T08:34:53Z</time>
      </trkpt>
      <trkpt lat="48.65044" lon="-3.34681">
        <ele>105</ele>
        <time>2015-01-18T08:34:54Z</time>
      </trkpt>
      <trkpt lat="48.65051" lon="-3.34677">
        <ele>105</ele>
        <time>2015-01-18T08:34:55Z</time>
      </trkpt>
      <trkpt lat="48.65058" lon="-3.34674">
        <ele>105</ele>
        <time>2015-01-18T08:34:56Z</time>
      </trkpt>
      <trkpt lat="48.65065" lon="-3.3467">
        <ele>105</ele>
        <time>2015-01-18T08:34:57Z</time>
      </trkpt>
      <trkpt lat="48.65072" lon="-3.34666">
        <ele>105</ele>
        <time>2015-01-18T08:34:58Z</time>
      </trkpt>
      <trkpt lat="48.6508" lon="-3.34663">
        <ele>105</ele>
        <time>2015-01-18T08:34:59Z</time>
      </trkpt>
      <trkpt lat="48.65087" lon="-3.34658">
        <ele>105</ele>
        <time>2015-01-18T08:35:00Z</time>
      </trkpt>
      <trkpt lat="48.65095" lon="-3.34654">
        <ele>105</ele>
        <time>2015-01-18T08:35:01Z</time>
      </trkpt>
      <trkpt lat="48.65102" lon="-3.3465">
        <ele>105</ele>
        <time>2015-01-18T08:35:02Z</time>
      </trkpt>
      <trkpt lat="48.6511" lon="-3.34645">
        <ele>105</ele>
        <time>2015-01-18T08:35:03Z</time>
      </trkpt>
      <trkpt lat="48.65118" lon="-3.34641">
        <ele>105</ele>
        <time>2015-01-18T08:35:04Z</time>
      </trkpt>
      <trkpt lat="48.65126" lon="-3.34636">
        <ele>105</ele>
        <time>2015-01-18T08:35:05Z</time>
      </trkpt>
      <trkpt lat="48.65135" lon="-3.34631">
        <ele>105</ele>
        <time>2015-01-18T08:35:06Z</time>
      </trkpt>
      <trkpt lat="48.65143" lon="-3.34627">
        <ele>105</ele>
        <time>2015-01-18T08:35:07Z</time>
      </trkpt>
      <trkpt lat="48.65151" lon="-3.34621">
        <ele>105</ele>
        <time>2015-01-18T08:35:08Z</time>
      </trkpt>
      <trkpt lat="48.65159" lon="-3.34616">
        <ele>105</ele>
        <time>2015-01-18T08:35:09Z</time>
      </trkpt>
      <trkpt lat="48.65167" lon="-3.3461">
        <ele>105</ele>
        <time>2015-01-18T08:35:10Z</time>
      </trkpt>
      <trkpt lat="48.65174" lon="-3.34604">
        <ele>105</ele>
        <time>2015-01-18T08:35:11Z</time>
      </trkpt>
      <trkpt lat="48.65182" lon="-3.34598">
        <ele>105</ele>
        <time>2015-01-18T08:35:12Z</time>
      </trkpt>
      <trkpt lat="48.65189" lon="-3.34591">
        <ele>105</ele>
        <time>2015-01-18T08:35:13Z</time>
      </trkpt>
      <trkpt lat="48.65195" lon="-3.34584">
        <ele>105</ele>
        <time>2015-01-18T08:35:14Z</time>
      </trkpt>
      <trkpt lat="48.65202" lon="-3.34576">
        <ele>105</ele>
        <time>2015-01-18T08:35:15Z</time>
      </trkpt>
      <trkpt lat="48.65208" lon="-3.34568">
        <ele>105</ele>
        <time>2015-01-18T08:35:16Z</time>
      </trkpt>
      <trkpt lat="48.65214" lon="-3.3456">
        <ele>105</ele>
        <time>2015-01-18T08:35:17Z</time>
      </trkpt>
      <trkpt lat="48.65219" lon="-3.34553">
        <ele>105</ele>
        <time>2015-01-18T08:35:18Z</time>
      </trkpt>
      <trkpt lat="48.65225" lon="-3.34544">
        <ele>105</ele>
        <time>2015-01-18T08:35:19Z</time>
      </trkpt>
      <trkpt lat="48.6523" lon="-3.34536">
        <ele>105</ele>
        <time>2015-01-18T08:35:20Z</time>
      </trkpt>
      <trkpt lat="48.65236" lon="-3.34528">
        <ele>105</ele>
        <time>2015-01-18T08:35:21Z</time>
      </trkpt>
      <trkpt lat="48.65242" lon="-3.3452">
        <ele>105</ele>
        <time>2015-01-18T08:35:22Z</time>
      </trkpt>
      <trkpt lat="48.65247" lon="-3.34512">
        <ele>105</ele>
        <time>2015-01-18T08:35:23Z</time>
      </trkpt>
      <trkpt lat="48.65253" lon="-3.34505">
        <ele>105</ele>
        <time>2015-01-18T08:35:24Z</time>
      </trkpt>
      <trkpt lat="48.65259" lon="-3.34497">
        <ele>105</ele>
        <time>2015-01-18T08:35:25Z</time>
      </trkpt>
      <trkpt lat="48.65265" lon="-3.3449">
        <ele>105</ele>
        <time>2015-01-18T08:35:26Z</time>
      </trkpt>
      <trkpt lat="48.65271" lon="-3.34483">
        <ele>105</ele>
        <time>2015-01-18T08:35:27Z</time>
      </trkpt>
      <trkpt lat="48.65278" lon="-3.34477">
        <ele>105</ele>
        <time>2015-01-18T08:35:28Z</time>
      </trkpt>
      <trkpt lat="48.65284" lon="-3.34471">
        <ele>105</ele>
        <time>2015-01-18T08:35:29Z</time>
      </trkpt>
      <trkpt lat="48.6529" lon="-3.34465">
        <ele>105</ele>
        <time>2015-01-18T08:35:30Z</time>
      </trkpt>
      <trkpt lat="48.65297" lon="-3.34459">
        <ele>105</ele>
        <time>2015-01-18T08:35:31Z</time>
      </trkpt>
      <trkpt lat="48.65304" lon="-3.34454">
        <ele>105</ele>
        <time>2015-01-18T08:35:32Z</time>
      </trkpt>
      <trkpt lat="48.65311" lon="-3.34449">
        <ele>105</ele>
        <time>2015-01-18T08:35:33Z</time>
      </trkpt>
      <trkpt lat="48.65318" lon="-3.34443">
        <ele>105</ele>
        <time>2015-01-18T08:35:34Z</time>
      </trkpt>
      <trkpt lat="48.65325" lon="-3.34439">
        <ele>105</ele>
        <time>2015-01-18T08:35:35Z</time>
      </trkpt>
      <trkpt lat="48.65333" lon="-3.34434">
        <ele>105</ele>
        <time>2015-01-18T08:35:36Z</time>
      </trkpt>
      <trkpt lat="48.6534" lon="-3.34429">
        <ele>105</ele>
        <time>2015-01-18T08:35:37Z</time>
      </trkpt>
      <trkpt lat="48.65347" lon="-3.34423">
        <ele>105</ele>
        <time>2015-01-18T08:35:38Z</time>
      </trkpt>
      <trkpt lat="48.65354" lon="-3.34416">
        <ele>105</ele>
        <time>2015-01-18T08:35:39Z</time>
      </trkpt>
      <trkpt lat="48.65361" lon="-3.34408">
        <ele>105</ele>
        <time>2015-01-18T08:35:40Z</time>
      </trkpt>
      <trkpt lat="48.65367" lon="-3.34399">
        <ele>105</ele>
        <time>2015-01-18T08:35:41Z</time>
      </trkpt>
      <trkpt lat="48.65373" lon="-3.3439">
        <ele>105</ele>
        <time>2015-01-18T08:35:42Z</time>
      </trkpt>
      <trkpt lat="48.65379" lon="-3.34379">
        <ele>105</ele>
        <time>2015-01-18T08:35:43Z</time>
      </trkpt>
      <trkpt lat="48.65384" lon="-3.34369">
        <ele>105</ele>
        <time>2015-01-18T08:35:44Z</time>
      </trkpt>
      <trkpt lat="48.65389" lon="-3.34358">
        <ele>105</ele>
        <time>2015-01-18T08:35:45Z</time>
      </trkpt>
      <trkpt lat="48.65394" lon="-3.34347">
        <ele>105</ele>
        <time>2015-01-18T08:35:46Z</time>
      </trkpt>
      <trkpt lat="48.65399" lon="-3.34335">
        <ele>105</ele>
        <time>2015-01-18T08:35:47Z</time>
      </trkpt>
      <trkpt lat="48.65404" lon="-3.34325">
        <ele>105</ele>
        <time>2015-01-18T08:35:48Z</time>
      </trkpt>
      <trkpt lat="48.65408" lon="-3.34314">
        <ele>105</ele>
        <time>2015-01-18T08:35:49Z</time>
      </trkpt>
      <trkpt lat="48.65413" lon="-3.34304">
        <ele>105</ele>
        <time>2015-01-18T08:35:50Z</time>
      </trkpt>
      <trkpt lat="48.65418" lon="-3.34294">
        <ele>105</ele>
        <time>2015-01-18T08:35:51Z</time>
      </trkpt>
      <trkpt lat="48.65423" lon="-3.34284">
        <ele>105</ele>
        <time>2015-01-18T08:35:52Z</time>
      </trkpt>
      <trkpt lat="48.65428" lon="-3.34274">
        <ele>105</ele>
        <time>2015-01-18T08:35:53Z</time>
      </trkpt>
      <trkpt lat="48.65433" lon="-3.34264">
        <ele>105</ele>
        <time>2015-01-18T08:35:54Z</time>
      </trkpt>
      <trkpt lat="48.65438" lon="-3.34254">
        <ele>105</ele>
        <time>2015-01-18T08:35:55Z</time>
      </trkpt>
      <trkpt lat="48.65442" lon="-3.34244">
        <ele>105</ele>
        <time>2015-01-18T08:35:56Z</time>
      </trkpt>
      <trkpt lat="48.65447" lon="-3.34234">
        <ele>105</ele>
        <time>2015-01-18T08:35:57Z</time>
      </trkpt>
      <trkpt lat="48.65451" lon="-3.34224">
        <ele>105</ele>
        <time>2015-01-18T08:35:58Z</time>
      </trkpt>
      <trkpt lat="48.65456" lon="-3.34212">
        <ele>105</ele>
        <time>2015-01-18T08:35:59Z</time>
      </trkpt>
      <trkpt lat="48.6546" lon="-3.34201">
        <ele>105</ele>
        <time>2015-01-18T08:36:00Z</time>
      </trkpt>
      <trkpt lat="48.65464" lon="-3.3419">
        <ele>105</ele>
        <time>2015-01-18T08:36:01Z</time>
      </trkpt>
      <trkpt lat="48.65468" lon="-3.34179">
        <ele>105</ele>
        <time>2015-01-18T08:36:02Z</time>
      </trkpt>
      <trkpt lat="48.65472" lon="-3.34167">
        <ele>105</ele>
        <time>2015-01-18T08:36:03Z</time>
      </trkpt>
      <trkpt lat="48.65475" lon="-3.34155">
        <ele>105</ele>
        <time>2015-01-18T08:36:04Z</time>
      </trkpt>
      <trkpt lat="48.65479" lon="-3.34144">
        <ele>105</ele>
        <time>2015-01-18T08:36:05Z</time>
      </trkpt>
      <trkpt lat="48.65482" lon="-3.34132">
        <ele>105</ele>
        <time>2015-01-18T08:36:06Z</time>
      </trkpt>
      <trkpt lat="48.65485" lon="-3.34121">
        <ele>105</ele>
        <time>2015-01-18T08:36:07Z</time>
      </trkpt>
      <trkpt lat="48.65488" lon="-3.34109">
        <ele>105</ele>
        <time>2015-01-18T08:36:08Z</time>
      </trkpt>
      <trkpt lat="48.65491" lon="-3.34097">
        <ele>105</ele>
        <time>2015-01-18T08:36:09Z</time>
      </trkpt>
      <trkpt lat="48.65495" lon="-3.34086">
        <ele>105</ele>
        <time>2015-01-18T08:36:10Z</time>
      </trkpt>
      <trkpt lat="48.65498" lon="-3.34075">
        <ele>105</ele>
        <time>2015-01-18T08:36:11Z</time>
      </trkpt>
      <trkpt lat="48.65501" lon="-3.34063">
        <ele>105</ele>
        <time>2015-01-18T08:36:12Z</time>
      </trkpt>
      <trkpt lat="48.65504" lon="-3.34052">
        <ele>105</ele>
        <time>2015-01-18T08:36:13Z</time>
      </trkpt>
      <trkpt lat="48.65508" lon="-3.34041">
        <ele>105</ele>
        <time>2015-01-18T08:36:14Z</time>
      </trkpt>
      <trkpt lat="48.65513" lon="-3.34031">
        <ele>105</ele>
        <time>2015-01-18T08:36:15Z</time>
      </trkpt>
      <trkpt lat="48.65518" lon="-3.34021">
        <ele>105</ele>
        <time>2015-01-18T08:36:16Z</time>
      </trkpt>
      <trkpt lat="48.65524" lon="-3.34012">
        <ele>105</ele>
        <time>2015-01-18T08:36:17Z</time>
      </trkpt>
      <trkpt lat="48.6553" lon="-3.34003">
        <ele>105</ele>
        <time>2015-01-18T08:36:18Z</time>
      </trkpt>
      <trkpt lat="48.65537" lon="-3.33995">
        <ele>105</ele>
        <time>2015-01-18T08:36:19Z</time>
      </trkpt>
      <trkpt lat="48.65543" lon="-3.33987">
        <ele>105</ele>
        <time>2015-01-18T08:36:20Z</time>
      </trkpt>
      <trkpt lat="48.6555" lon="-3.33979">
        <ele>105</ele>
        <time>2015-01-18T08:36:21Z</time>
      </trkpt>
      <trkpt lat="48.65557" lon="-3.33971">
        <ele>105</ele>
        <time>2015-01-18T08:36:22Z</time>
      </trkpt>
      <trkpt lat="48.65564" lon="-3.33964">
        <ele>105</ele>
        <time>2015-01-18T08:36:23Z</time>
      </trkpt>
      <trkpt lat="48.65571" lon="-3.33958">
        <ele>105</ele>
        <time>2015-01-18T08:36:24Z</time>
      </trkpt>
      <trkpt lat="48.65578" lon="-3.33952">
        <ele>105</ele>
        <time>2015-01-18T08:36:25Z</time>
      </trkpt>
      <trkpt lat="48.65586" lon="-3.33946">
        <ele>105</ele>
        <time>2015-01-18T08:36:26Z</time>
      </trkpt>
      <trkpt lat="48.65594" lon="-3.33941">
        <ele>105</ele>
        <time>2015-01-18T08:36:27Z</time>
      </trkpt>
      <trkpt lat="48.65602" lon="-3.33937">
        <ele>105</ele>
        <time>2015-01-18T08:36:28Z</time>
      </trkpt>
      <trkpt lat="48.6561" lon="-3.33933">
        <ele>105</ele>
        <time>2015-01-18T08:36:29Z</time>
      </trkpt>
      <trkpt lat="48.65618" lon="-3.3393">
        <ele>105</ele>
        <time>2015-01-18T08:36:30Z</time>
      </trkpt>
      <trkpt lat="48.65627" lon="-3.33927">
        <ele>105</ele>
        <time>2015-01-18T08:36:31Z</time>
      </trkpt>
      <trkpt lat="48.65635" lon="-3.33925">
        <ele>105</ele>
        <time>2015-01-18T08:36:32Z</time>
      </trkpt>
      <trkpt lat="48.65643" lon="-3.33924">
        <ele>105</ele>
        <time>2015-01-18T08:36:33Z</time>
      </trkpt>
      <trkpt lat="48.65651" lon="-3.33922">
        <ele>105</ele>
        <time>2015-01-18T08:36:34Z</time>
      </trkpt>
      <trkpt lat="48.65659" lon="-3.3392">
        <ele>105</ele>
        <time>2015-01-18T08:36:35Z</time>
      </trkpt>
      <trkpt lat="48.65666" lon="-3.33917">
        <ele>105</ele>
        <time>2015-01-18T08:36:36Z</time>
      </trkpt>
      <trkpt lat="48.65674" lon="-3.33914">
        <ele>105</ele>
        <time>2015-01-18T08:36:37Z</time>
      </trkpt>
      <trkpt lat="48.65681" lon="-3.3391">
        <ele>105</ele>
        <time>2015-01-18T08:36:38Z</time>
      </trkpt>
      <trkpt lat="48.65688" lon="-3.33907">
        <ele>105</ele>
        <time>2015-01-18T08:36:39Z</time>
      </trkpt>
      <trkpt lat="48.65696" lon="-3.33903">
        <ele>105</ele>
        <time>2015-01-18T08:36:40Z</time>
      </trkpt>
      <trkpt lat="48.65702" lon="-3.33898">
        <ele>105</ele>
        <time>2015-01-18T08:36:41Z</time>
      </trkpt>
      <trkpt lat="48.65708" lon="-3.33893">
        <ele>105</ele>
        <time>2015-01-18T08:36:42Z</time>
      </trkpt>
      <trkpt lat="48.65714" lon="-3.33889">
        <ele>105</ele>
        <time>2015-01-18T08:36:43Z</time>
      </trkpt>
      <trkpt lat="48.6572" lon="-3.33884">
        <ele>105</ele>
        <time>2015-01-18T08:36:44Z</time>
      </trkpt>
      <trkpt lat="48.65725" lon="-3.33879">
        <ele>105</ele>
        <time>2015-01-18T08:36:45Z</time>
      </trkpt>
      <trkpt lat="48.6573" lon="-3.33874">
        <ele>105</ele>
        <time>2015-01-18T08:36:46Z</time>
      </trkpt>
      <trkpt lat="48.65733" lon="-3.33868">
        <ele>105</ele>
        <time>2015-01-18T08:36:47Z</time>
      </trkpt>
      <trkpt lat="48.65736" lon="-3.3386">
        <ele>105</ele>
        <time>2015-01-18T08:36:48Z</time>
      </trkpt>
      <trkpt lat="48.65738" lon="-3.33853">
        <ele>105</ele>
        <time>2015-01-18T08:36:49Z</time>
      </trkpt>
      <trkpt lat="48.65738" lon="-3.33846">
        <ele>105</ele>
        <time>2015-01-18T08:36:50Z</time>
      </trkpt>
      <trkpt lat="48.65737" lon="-3.33832">
        <ele>105</ele>
        <time>2015-01-18T08:36:52Z</time>
      </trkpt>
      <trkpt lat="48.65735" lon="-3.33824">
        <ele>105</ele>
        <time>2015-01-18T08:36:53Z</time>
      </trkpt>
      <trkpt lat="48.65731" lon="-3.33817">
        <ele>105</ele>
        <time>2015-01-18T08:36:54Z</time>
      </trkpt>
      <trkpt lat="48.65726" lon="-3.3381">
        <ele>105</ele>
        <time>2015-01-18T08:36:55Z</time>
      </trkpt>
      <trkpt lat="48.6572" lon="-3.33804">
        <ele>105</ele>
        <time>2015-01-18T08:36:56Z</time>
      </trkpt>
      <trkpt lat="48.65714" lon="-3.33798">
        <ele>105</ele>
        <time>2015-01-18T08:36:57Z</time>
      </trkpt>
      <trkpt lat="48.65707" lon="-3.33795">
        <ele>105</ele>
        <time>2015-01-18T08:36:58Z</time>
      </trkpt>
      <trkpt lat="48.65699" lon="-3.33792">
        <ele>105</ele>
        <time>2015-01-18T08:36:59Z</time>
      </trkpt>
      <trkpt lat="48.65692" lon="-3.3379">
        <ele>105</ele>
        <time>2015-01-18T08:37:00Z</time>
      </trkpt>
      <trkpt lat="48.65684" lon="-3.33789">
        <ele>105</ele>
        <time>2015-01-18T08:37:01Z</time>
      </trkpt>
      <trkpt lat="48.65677" lon="-3.33788">
        <ele>105</ele>
        <time>2015-01-18T08:37:02Z</time>
      </trkpt>
      <trkpt lat="48.6567" lon="-3.33788">
        <ele>105</ele>
        <time>2015-01-18T08:37:03Z</time>
      </trkpt>
      <trkpt lat="48.65662" lon="-3.33787">
        <ele>105</ele>
        <time>2015-01-18T08:37:04Z</time>
      </trkpt>
      <trkpt lat="48.65655" lon="-3.33787">
        <ele>105</ele>
        <time>2015-01-18T08:37:05Z</time>
      </trkpt>
      <trkpt lat="48.65648" lon="-3.33787">
        <ele>105</ele>
        <time>2015-01-18T08:37:06Z</time>
      </trkpt>
      <trkpt lat="48.65641" lon="-3.33785">
        <ele>105</ele>
        <time>2015-01-18T08:37:07Z</time>
      </trkpt>
      <trkpt lat="48.65635" lon="-3.33784">
        <ele>105</ele>
        <time>2015-01-18T08:37:08Z</time>
      </trkpt>
      <trkpt lat="48.65628" lon="-3.33783">
        <ele>105</ele>
        <time>2015-01-18T08:37:09Z</time>
      </trkpt>
      <trkpt lat="48.65622" lon="-3.33781">
        <ele>105</ele>
        <time>2015-01-18T08:37:10Z</time>
      </trkpt>
      <trkpt lat="48.65616" lon="-3.3378">
        <ele>105</ele>
        <time>2015-01-18T08:37:11Z</time>
      </trkpt>
      <trkpt lat="48.65611" lon="-3.33779">
        <ele>105</ele>
        <time>2015-01-18T08:37:12Z</time>
      </trkpt>
      <trkpt lat="48.65604" lon="-3.33778">
        <ele>105</ele>
        <time>2015-01-18T08:37:13Z</time>
      </trkpt>
      <trkpt lat="48.65599" lon="-3.33777">
        <ele>105</ele>
        <time>2015-01-18T08:37:14Z</time>
      </trkpt>
      <trkpt lat="48.65592" lon="-3.33777">
        <ele>105</ele>
        <time>2015-01-18T08:37:15Z</time>
      </trkpt>
      <trkpt lat="48.65585" lon="-3.33776">
        <ele>105</ele>
        <time>2015-01-18T08:37:16Z</time>
      </trkpt>
      <trkpt lat="48.65579" lon="-3.33775">
        <ele>105</ele>
        <time>2015-01-18T08:37:17Z</time>
      </trkpt>
      <trkpt lat="48.65573" lon="-3.33774">
        <ele>105</ele>
        <time>2015-01-18T08:37:18Z</time>
      </trkpt>
      <trkpt lat="48.65567" lon="-3.33773">
        <ele>105</ele>
        <time>2015-01-18T08:37:19Z</time>
      </trkpt>
      <trkpt lat="48.65561" lon="-3.33772">
        <ele>105</ele>
        <time>2015-01-18T08:37:20Z</time>
      </trkpt>
      <trkpt lat="48.65554" lon="-3.33771">
        <ele>105</ele>
        <time>2015-01-18T08:37:21Z</time>
      </trkpt>
      <trkpt lat="48.65548" lon="-3.33769">
        <ele>105</ele>
        <time>2015-01-18T08:37:22Z</time>
      </trkpt>
      <trkpt lat="48.65541" lon="-3.33767">
        <ele>105</ele>
        <time>2015-01-18T08:37:23Z</time>
      </trkpt>
      <trkpt lat="48.65534" lon="-3.33766">
        <ele>105</ele>
        <time>2015-01-18T08:37:24Z</time>
      </trkpt>
      <trkpt lat="48.65527" lon="-3.33765">
        <ele>105</ele>
        <time>2015-01-18T08:37:25Z</time>
      </trkpt>
      <trkpt lat="48.6552" lon="-3.33764">
        <ele>105</ele>
        <time>2015-01-18T08:37:26Z</time>
      </trkpt>
      <trkpt lat="48.65513" lon="-3.33763">
        <ele>105</ele>
        <time>2015-01-18T08:37:27Z</time>
      </trkpt>
      <trkpt lat="48.65507" lon="-3.33762">
        <ele>105</ele>
        <time>2015-01-18T08:37:28Z</time>
      </trkpt>
      <trkpt lat="48.655" lon="-3.3376">
        <ele>105</ele>
        <time>2015-01-18T08:37:29Z</time>
      </trkpt>
      <trkpt lat="48.65494" lon="-3.33758">
        <ele>105</ele>
        <time>2015-01-18T08:37:30Z</time>
      </trkpt>
      <trkpt lat="48.65487" lon="-3.33755">
        <ele>105</ele>
        <time>2015-01-18T08:37:31Z</time>
      </trkpt>
      <trkpt lat="48.6548" lon="-3.33752">
        <ele>105</ele>
        <time>2015-01-18T08:37:32Z</time>
      </trkpt>
      <trkpt lat="48.65474" lon="-3.33748">
        <ele>105</ele>
        <time>2015-01-18T08:37:33Z</time>
      </trkpt>
      <trkpt lat="48.65467" lon="-3.33744">
        <ele>105</ele>
        <time>2015-01-18T08:37:34Z</time>
      </trkpt>
      <trkpt lat="48.6546" lon="-3.3374">
        <ele>105</ele>
        <time>2015-01-18T08:37:35Z</time>
      </trkpt>
      <trkpt lat="48.65453" lon="-3.33736">
        <ele>105</ele>
        <time>2015-01-18T08:37:36Z</time>
      </trkpt>
      <trkpt lat="48.65445" lon="-3.33732">
        <ele>105</ele>
        <time>2015-01-18T08:37:37Z</time>
      </trkpt>
      <trkpt lat="48.65438" lon="-3.33727">
        <ele>105</ele>
        <time>2015-01-18T08:37:38Z</time>
      </trkpt>
      <trkpt lat="48.65431" lon="-3.33723">
        <ele>105</ele>
        <time>2015-01-18T08:37:39Z</time>
      </trkpt>
      <trkpt lat="48.65424" lon="-3.33719">
        <ele>105</ele>
        <time>2015-01-18T08:37:40Z</time>
      </trkpt>
      <trkpt lat="48.65416" lon="-3.33715">
        <ele>105</ele>
        <time>2015-01-18T08:37:41Z</time>
      </trkpt>
      <trkpt lat="48.65409" lon="-3.33711">
        <ele>105</ele>
        <time>2015-01-18T08:37:42Z</time>
      </trkpt>
      <trkpt lat="48.65401" lon="-3.33707">
        <ele>105</ele>
        <time>2015-01-18T08:37:43Z</time>
      </trkpt>
      <trkpt lat="48.65394" lon="-3.33703">
        <ele>105</ele>
        <time>2015-01-18T08:37:44Z</time>
      </trkpt>
      <trkpt lat="48.65387" lon="-3.337">
        <ele>106</ele>
        <time>2015-01-18T08:37:45Z</time>
      </trkpt>
      <trkpt lat="48.65379" lon="-3.33697">
        <ele>106</ele>
        <time>2015-01-18T08:37:46Z</time>
      </trkpt>
      <trkpt lat="48.65372" lon="-3.33695">
        <ele>106</ele>
        <time>2015-01-18T08:37:47Z</time>
      </trkpt>
      <trkpt lat="48.65365" lon="-3.33692">
        <ele>106</ele>
        <time>2015-01-18T08:37:48Z</time>
      </trkpt>
      <trkpt lat="48.65358" lon="-3.3369">
        <ele>106</ele>
        <time>2015-01-18T08:37:49Z</time>
      </trkpt>
      <trkpt lat="48.65351" lon="-3.33689">
        <ele>106</ele>
        <time>2015-01-18T08:37:50Z</time>
      </trkpt>
      <trkpt lat="48.65344" lon="-3.33687">
        <ele>106</ele>
        <time>2015-01-18T08:37:51Z</time>
      </trkpt>
      <trkpt lat="48.65337" lon="-3.33686">
        <ele>106</ele>
        <time>2015-01-18T08:37:52Z</time>
      </trkpt>
      <trkpt lat="48.65331" lon="-3.33684">
        <ele>106</ele>
        <time>2015-01-18T08:37:53Z</time>
      </trkpt>
      <trkpt lat="48.65324" lon="-3.33683">
        <ele>106</ele>
        <time>2015-01-18T08:37:54Z</time>
      </trkpt>
      <trkpt lat="48.65317" lon="-3.33682">
        <ele>106</ele>
        <time>2015-01-18T08:37:55Z</time>
      </trkpt>
      <trkpt lat="48.65311" lon="-3.3368">
        <ele>106</ele>
        <time>2015-01-18T08:37:56Z</time>
      </trkpt>
      <trkpt lat="48.65304" lon="-3.33678">
        <ele>106</ele>
        <time>2015-01-18T08:37:57Z</time>
      </trkpt>
      <trkpt lat="48.65297" lon="-3.33677">
        <ele>106</ele>
        <time>2015-01-18T08:37:58Z</time>
      </trkpt>
      <trkpt lat="48.65291" lon="-3.33675">
        <ele>106</ele>
        <time>2015-01-18T08:37:59Z</time>
      </trkpt>
      <trkpt lat="48.65284" lon="-3.33673">
        <ele>106</ele>
        <time>2015-01-18T08:38:00Z</time>
      </trkpt>
      <trkpt lat="48.65278" lon="-3.33671">
        <ele>106</ele>
        <time>2015-01-18T08:38:01Z</time>
      </trkpt>
      <trkpt lat="48.65272" lon="-3.33669">
        <ele>106</ele>
        <time>2015-01-18T08:38:02Z</time>
      </trkpt>
      <trkpt lat="48.65266" lon="-3.33667">
        <ele>106</ele>
        <time>2015-01-18T08:38:03Z</time>
      </trkpt>
      <trkpt lat="48.6526" lon="-3.33665">
        <ele>106</ele>
        <time>2015-01-18T08:38:04Z</time>
      </trkpt>
      <trkpt lat="48.65253" lon="-3.33663">
        <ele>106</ele>
        <time>2015-01-18T08:38:05Z</time>
      </trkpt>
      <trkpt lat="48.65247" lon="-3.33661">
        <ele>106</ele>
        <time>2015-01-18T08:38:06Z</time>
      </trkpt>
      <trkpt lat="48.6524" lon="-3.33659">
        <ele>107</ele>
        <time>2015-01-18T08:38:07Z</time>
      </trkpt>
      <trkpt lat="48.65234" lon="-3.33657">
        <ele>107</ele>
        <time>2015-01-18T08:38:08Z</time>
      </trkpt>
      <trkpt lat="48.65227" lon="-3.33656">
        <ele>107</ele>
        <time>2015-01-18T08:38:09Z</time>
      </trkpt>
      <trkpt lat="48.65221" lon="-3.33654">
        <ele>107</ele>
        <time>2015-01-18T08:38:10Z</time>
      </trkpt>
      <trkpt lat="48.65215" lon="-3.33652">
        <ele>107</ele>
        <time>2015-01-18T08:38:11Z</time>
      </trkpt>
      <trkpt lat="48.65208" lon="-3.3365">
        <ele>107</ele>
        <time>2015-01-18T08:38:12Z</time>
      </trkpt>
      <trkpt lat="48.65202" lon="-3.33648">
        <ele>107</ele>
        <time>2015-01-18T08:38:13Z</time>
      </trkpt>
      <trkpt lat="48.65195" lon="-3.33646">
        <ele>107</ele>
        <time>2015-01-18T08:38:14Z</time>
      </trkpt>
      <trkpt lat="48.65189" lon="-3.33644">
        <ele>107</ele>
        <time>2015-01-18T08:38:15Z</time>
      </trkpt>
      <trkpt lat="48.65183" lon="-3.33642">
        <ele>107</ele>
        <time>2015-01-18T08:38:16Z</time>
      </trkpt>
      <trkpt lat="48.65177" lon="-3.3364">
        <ele>107</ele>
        <time>2015-01-18T08:38:17Z</time>
      </trkpt>
      <trkpt lat="48.65171" lon="-3.33638">
        <ele>108</ele>
        <time>2015-01-18T08:38:18Z</time>
      </trkpt>
      <trkpt lat="48.65165" lon="-3.33636">
        <ele>108</ele>
        <time>2015-01-18T08:38:19Z</time>
      </trkpt>
      <trkpt lat="48.65159" lon="-3.33635">
        <ele>108</ele>
        <time>2015-01-18T08:38:20Z</time>
      </trkpt>
      <trkpt lat="48.65153" lon="-3.33633">
        <ele>108</ele>
        <time>2015-01-18T08:38:21Z</time>
      </trkpt>
      <trkpt lat="48.65147" lon="-3.33631">
        <ele>108</ele>
        <time>2015-01-18T08:38:22Z</time>
      </trkpt>
      <trkpt lat="48.65141" lon="-3.33629">
        <ele>108</ele>
        <time>2015-01-18T08:38:23Z</time>
      </trkpt>
      <trkpt lat="48.65135" lon="-3.33627">
        <ele>108</ele>
        <time>2015-01-18T08:38:24Z</time>
      </trkpt>
      <trkpt lat="48.65129" lon="-3.33625">
        <ele>108</ele>
        <time>2015-01-18T08:38:25Z</time>
      </trkpt>
      <trkpt lat="48.65123" lon="-3.33623">
        <ele>108</ele>
        <time>2015-01-18T08:38:26Z</time>
      </trkpt>
      <trkpt lat="48.65118" lon="-3.33621">
        <ele>108</ele>
        <time>2015-01-18T08:38:27Z</time>
      </trkpt>
      <trkpt lat="48.65112" lon="-3.3362">
        <ele>108</ele>
        <time>2015-01-18T08:38:28Z</time>
      </trkpt>
      <trkpt lat="48.65107" lon="-3.33618">
        <ele>108</ele>
        <time>2015-01-18T08:38:29Z</time>
      </trkpt>
      <trkpt lat="48.65102" lon="-3.33616">
        <ele>108</ele>
        <time>2015-01-18T08:38:30Z</time>
      </trkpt>
      <trkpt lat="48.65098" lon="-3.33615">
        <ele>108</ele>
        <time>2015-01-18T08:38:31Z</time>
      </trkpt>
      <trkpt lat="48.65093" lon="-3.33613">
        <ele>108</ele>
        <time>2015-01-18T08:38:32Z</time>
      </trkpt>
      <trkpt lat="48.65089" lon="-3.33612">
        <ele>108</ele>
        <time>2015-01-18T08:38:33Z</time>
      </trkpt>
      <trkpt lat="48.65084" lon="-3.3361">
        <ele>108</ele>
        <time>2015-01-18T08:38:33Z</time>
      </trkpt>
      <trkpt lat="48.6508" lon="-3.33609">
        <ele>108</ele>
        <time>2015-01-18T08:38:35Z</time>
      </trkpt>
      <trkpt lat="48.65076" lon="-3.33607">
        <ele>108</ele>
        <time>2015-01-18T08:38:36Z</time>
      </trkpt>
      <trkpt lat="48.65071" lon="-3.33606">
        <ele>108</ele>
        <time>2015-01-18T08:38:37Z</time>
      </trkpt>
      <trkpt lat="48.65068" lon="-3.33605">
        <ele>108</ele>
        <time>2015-01-18T08:38:38Z</time>
      </trkpt>
      <trkpt lat="48.65064" lon="-3.33604">
        <ele>108</ele>
        <time>2015-01-18T08:38:39Z</time>
      </trkpt>
      <trkpt lat="48.6506" lon="-3.33603">
        <ele>108</ele>
        <time>2015-01-18T08:38:40Z</time>
      </trkpt>
      <trkpt lat="48.65057" lon="-3.33602">
        <ele>108</ele>
        <time>2015-01-18T08:38:41Z</time>
      </trkpt>
      <trkpt lat="48.65054" lon="-3.33601">
        <ele>108</ele>
        <time>2015-01-18T08:38:42Z</time>
      </trkpt>
      <trkpt lat="48.6505" lon="-3.336">
        <ele>108</ele>
        <time>2015-01-18T08:38:43Z</time>
      </trkpt>
      <trkpt lat="48.65047" lon="-3.336">
        <ele>108</ele>
        <time>2015-01-18T08:38:44Z</time>
      </trkpt>
      <trkpt lat="48.65044" lon="-3.336">
        <ele>108</ele>
        <time>2015-01-18T08:38:45Z</time>
      </trkpt>
      <trkpt lat="48.65042" lon="-3.33601">
        <ele>108</ele>
        <time>2015-01-18T08:38:46Z</time>
      </trkpt>
      <trkpt lat="48.65039" lon="-3.33603">
        <ele>108</ele>
        <time>2015-01-18T08:38:47Z</time>
      </trkpt>
      <trkpt lat="48.65037" lon="-3.33604">
        <ele>108</ele>
        <time>2015-01-18T08:38:48Z</time>
      </trkpt>
      <trkpt lat="48.65034" lon="-3.33605">
        <ele>108</ele>
        <time>2015-01-18T08:38:49Z</time>
      </trkpt>
      <trkpt lat="48.65031" lon="-3.33605">
        <ele>108</ele>
        <time>2015-01-18T08:38:51Z</time>
      </trkpt>
      <trkpt lat="48.65028" lon="-3.33604">
        <ele>108</ele>
        <time>2015-01-18T08:38:52Z</time>
      </trkpt>
      <trkpt lat="48.65027" lon="-3.33603">
        <ele>108</ele>
        <time>2015-01-18T08:38:53Z</time>
      </trkpt>
      <trkpt lat="48.65025" lon="-3.33602">
        <ele>108</ele>
        <time>2015-01-18T08:38:54Z</time>
      </trkpt>
      <trkpt lat="48.65023" lon="-3.336">
        <ele>108</ele>
        <time>2015-01-18T08:38:56Z</time>
      </trkpt>
      <trkpt lat="48.65023" lon="-3.33598">
        <ele>108</ele>
        <time>2015-01-18T08:39:11Z</time>
      </trkpt>
      <trkpt lat="48.65024" lon="-3.33599">
        <ele>108</ele>
        <time>2015-01-18T08:39:27Z</time>
      </trkpt>
      <trkpt lat="48.65023" lon="-3.33597">
        <ele>108</ele>
        <time>2015-01-18T08:39:43Z</time>
      </trkpt>
      <trkpt lat="48.65021" lon="-3.33596">
        <ele>108</ele>
        <time>2015-01-18T08:39:44Z</time>
      </trkpt>
      <trkpt lat="48.65019" lon="-3.33595">
        <ele>108</ele>
        <time>2015-01-18T08:39:45Z</time>
      </trkpt>
      <trkpt lat="48.65017" lon="-3.33594">
        <ele>108</ele>
        <time>2015-01-18T08:39:46Z</time>
      </trkpt>
      <trkpt lat="48.65015" lon="-3.33593">
        <ele>108</ele>
        <time>2015-01-18T08:39:47Z</time>
      </trkpt>
      <trkpt lat="48.65012" lon="-3.33592">
        <ele>108</ele>
        <time>2015-01-18T08:39:48Z</time>
      </trkpt>
      <trkpt lat="48.6501" lon="-3.33591">
        <ele>108</ele>
        <time>2015-01-18T08:39:49Z</time>
      </trkpt>
      <trkpt lat="48.65007" lon="-3.3359">
        <ele>108</ele>
        <time>2015-01-18T08:39:50Z</time>
      </trkpt>
      <trkpt lat="48.65004" lon="-3.33589">
        <ele>108</ele>
        <time>2015-01-18T08:39:51Z</time>
      </trkpt>
      <trkpt lat="48.65001" lon="-3.33588">
        <ele>108</ele>
        <time>2015-01-18T08:39:52Z</time>
      </trkpt>
      <trkpt lat="48.64997" lon="-3.33588">
        <ele>108</ele>
        <time>2015-01-18T08:39:53Z</time>
      </trkpt>
      <trkpt lat="48.64994" lon="-3.33587">
        <ele>108</ele>
        <time>2015-01-18T08:39:54Z</time>
      </trkpt>
      <trkpt lat="48.6499" lon="-3.33585">
        <ele>108</ele>
        <time>2015-01-18T08:39:55Z</time>
      </trkpt>
      <trkpt lat="48.64986" lon="-3.33584">
        <ele>108</ele>
        <time>2015-01-18T08:39:56Z</time>
      </trkpt>
      <trkpt lat="48.64982" lon="-3.33583">
        <ele>108</ele>
        <time>2015-01-18T08:39:57Z</time>
      </trkpt>
      <trkpt lat="48.64977" lon="-3.33582">
        <ele>108</ele>
        <time>2015-01-18T08:39:58Z</time>
      </trkpt>
      <trkpt lat="48.64973" lon="-3.33581">
        <ele>108</ele>
        <time>2015-01-18T08:39:59Z</time>
      </trkpt>
      <trkpt lat="48.64967" lon="-3.3358">
        <ele>108</ele>
        <time>2015-01-18T08:40:00Z</time>
      </trkpt>
      <trkpt lat="48.64962" lon="-3.33578">
        <ele>108</ele>
        <time>2015-01-18T08:40:01Z</time>
      </trkpt>
      <trkpt lat="48.64957" lon="-3.33577">
        <ele>108</ele>
        <time>2015-01-18T08:40:02Z</time>
      </trkpt>
      <trkpt lat="48.64951" lon="-3.33576">
        <ele>108</ele>
        <time>2015-01-18T08:40:03Z</time>
      </trkpt>
      <trkpt lat="48.64945" lon="-3.33575">
        <ele>108</ele>
        <time>2015-01-18T08:40:04Z</time>
      </trkpt>
      <trkpt lat="48.64939" lon="-3.33574">
        <ele>108</ele>
        <time>2015-01-18T08:40:05Z</time>
      </trkpt>
      <trkpt lat="48.64933" lon="-3.33573">
        <ele>108</ele>
        <time>2015-01-18T08:40:06Z</time>
      </trkpt>
      <trkpt lat="48.64927" lon="-3.33571">
        <ele>108</ele>
        <time>2015-01-18T08:40:07Z</time>
      </trkpt>
      <trkpt lat="48.64921" lon="-3.3357">
        <ele>108</ele>
        <time>2015-01-18T08:40:08Z</time>
      </trkpt>
      <trkpt lat="48.64915" lon="-3.33569">
        <ele>108</ele>
        <time>2015-01-18T08:40:09Z</time>
      </trkpt>
      <trkpt lat="48.64908" lon="-3.33567">
        <ele>108</ele>
        <time>2015-01-18T08:40:10Z</time>
      </trkpt>
      <trkpt lat="48.64902" lon="-3.33565">
        <ele>108</ele>
        <time>2015-01-18T08:40:11Z</time>
      </trkpt>
      <trkpt lat="48.64895" lon="-3.33564">
        <ele>108</ele>
        <time>2015-01-18T08:40:12Z</time>
      </trkpt>
      <trkpt lat="48.64889" lon="-3.33562">
        <ele>108</ele>
        <time>2015-01-18T08:40:13Z</time>
      </trkpt>
      <trkpt lat="48.64882" lon="-3.33561">
        <ele>108</ele>
        <time>2015-01-18T08:40:14Z</time>
      </trkpt>
      <trkpt lat="48.64875" lon="-3.33559">
        <ele>108</ele>
        <time>2015-01-18T08:40:15Z</time>
      </trkpt>
      <trkpt lat="48.64869" lon="-3.33558">
        <ele>108</ele>
        <time>2015-01-18T08:40:16Z</time>
      </trkpt>
      <trkpt lat="48.64862" lon="-3.33556">
        <ele>108</ele>
        <time>2015-01-18T08:40:17Z</time>
      </trkpt>
      <trkpt lat="48.64854" lon="-3.33554">
        <ele>108</ele>
        <time>2015-01-18T08:40:18Z</time>
      </trkpt>
      <trkpt lat="48.64847" lon="-3.33553">
        <ele>108</ele>
        <time>2015-01-18T08:40:19Z</time>
      </trkpt>
      <trkpt lat="48.6484" lon="-3.33551">
        <ele>108</ele>
        <time>2015-01-18T08:40:20Z</time>
      </trkpt>
      <trkpt lat="48.64833" lon="-3.3355">
        <ele>108</ele>
        <time>2015-01-18T08:40:21Z</time>
      </trkpt>
      <trkpt lat="48.64826" lon="-3.33548">
        <ele>108</ele>
        <time>2015-01-18T08:40:22Z</time>
      </trkpt>
      <trkpt lat="48.64818" lon="-3.33547">
        <ele>108</ele>
        <time>2015-01-18T08:40:23Z</time>
      </trkpt>
      <trkpt lat="48.64811" lon="-3.33545">
        <ele>108</ele>
        <time>2015-01-18T08:40:24Z</time>
      </trkpt>
      <trkpt lat="48.64803" lon="-3.33544">
        <ele>108</ele>
        <time>2015-01-18T08:40:25Z</time>
      </trkpt>
      <trkpt lat="48.64796" lon="-3.33542">
        <ele>108</ele>
        <time>2015-01-18T08:40:26Z</time>
      </trkpt>
      <trkpt lat="48.64789" lon="-3.3354">
        <ele>108</ele>
        <time>2015-01-18T08:40:27Z</time>
      </trkpt>
      <trkpt lat="48.64781" lon="-3.33538">
        <ele>108</ele>
        <time>2015-01-18T08:40:28Z</time>
      </trkpt>
      <trkpt lat="48.64774" lon="-3.33537">
        <ele>108</ele>
        <time>2015-01-18T08:40:29Z</time>
      </trkpt>
      <trkpt lat="48.64766" lon="-3.33535">
        <ele>108</ele>
        <time>2015-01-18T08:40:30Z</time>
      </trkpt>
      <trkpt lat="48.64759" lon="-3.33533">
        <ele>108</ele>
        <time>2015-01-18T08:40:31Z</time>
      </trkpt>
      <trkpt lat="48.64752" lon="-3.33531">
        <ele>108</ele>
        <time>2015-01-18T08:40:32Z</time>
      </trkpt>
      <trkpt lat="48.64745" lon="-3.33529">
        <ele>108</ele>
        <time>2015-01-18T08:40:33Z</time>
      </trkpt>
      <trkpt lat="48.64737" lon="-3.33527">
        <ele>108</ele>
        <time>2015-01-18T08:40:34Z</time>
      </trkpt>
      <trkpt lat="48.6473" lon="-3.33525">
        <ele>108</ele>
        <time>2015-01-18T08:40:35Z</time>
      </trkpt>
      <trkpt lat="48.64723" lon="-3.33523">
        <ele>108</ele>
        <time>2015-01-18T08:40:36Z</time>
      </trkpt>
      <trkpt lat="48.64716" lon="-3.3352">
        <ele>108</ele>
        <time>2015-01-18T08:40:37Z</time>
      </trkpt>
      <trkpt lat="48.64708" lon="-3.33518">
        <ele>108</ele>
        <time>2015-01-18T08:40:38Z</time>
      </trkpt>
      <trkpt lat="48.64701" lon="-3.33515">
        <ele>108</ele>
        <time>2015-01-18T08:40:39Z</time>
      </trkpt>
      <trkpt lat="48.64694" lon="-3.33512">
        <ele>108</ele>
        <time>2015-01-18T08:40:40Z</time>
      </trkpt>
      <trkpt lat="48.64687" lon="-3.3351">
        <ele>108</ele>
        <time>2015-01-18T08:40:41Z</time>
      </trkpt>
      <trkpt lat="48.64679" lon="-3.33507">
        <ele>108</ele>
        <time>2015-01-18T08:40:42Z</time>
      </trkpt>
      <trkpt lat="48.64672" lon="-3.33504">
        <ele>108</ele>
        <time>2015-01-18T08:40:43Z</time>
      </trkpt>
      <trkpt lat="48.64665" lon="-3.33501">
        <ele>108</ele>
        <time>2015-01-18T08:40:44Z</time>
      </trkpt>
      <trkpt lat="48.64658" lon="-3.33498">
        <ele>108</ele>
        <time>2015-01-18T08:40:45Z</time>
      </trkpt>
      <trkpt lat="48.6465" lon="-3.33495">
        <ele>108</ele>
        <time>2015-01-18T08:40:46Z</time>
      </trkpt>
      <trkpt lat="48.64643" lon="-3.33492">
        <ele>108</ele>
        <time>2015-01-18T08:40:47Z</time>
      </trkpt>
      <trkpt lat="48.64636" lon="-3.33489">
        <ele>108</ele>
        <time>2015-01-18T08:40:48Z</time>
      </trkpt>
      <trkpt lat="48.64628" lon="-3.33485">
        <ele>108</ele>
        <time>2015-01-18T08:40:49Z</time>
      </trkpt>
      <trkpt lat="48.64621" lon="-3.33482">
        <ele>108</ele>
        <time>2015-01-18T08:40:50Z</time>
      </trkpt>
      <trkpt lat="48.64613" lon="-3.33478">
        <ele>108</ele>
        <time>2015-01-18T08:40:51Z</time>
      </trkpt>
      <trkpt lat="48.64606" lon="-3.33474">
        <ele>108</ele>
        <time>2015-01-18T08:40:52Z</time>
      </trkpt>
      <trkpt lat="48.64599" lon="-3.3347">
        <ele>108</ele>
        <time>2015-01-18T08:40:53Z</time>
      </trkpt>
      <trkpt lat="48.64592" lon="-3.33466">
        <ele>108</ele>
        <time>2015-01-18T08:40:54Z</time>
      </trkpt>
      <trkpt lat="48.64585" lon="-3.33462">
        <ele>108</ele>
        <time>2015-01-18T08:40:55Z</time>
      </trkpt>
      <trkpt lat="48.64579" lon="-3.33457">
        <ele>108</ele>
        <time>2015-01-18T08:40:56Z</time>
      </trkpt>
      <trkpt lat="48.64572" lon="-3.33453">
        <ele>108</ele>
        <time>2015-01-18T08:40:56Z</time>
      </trkpt>
      <trkpt lat="48.64565" lon="-3.33449">
        <ele>108</ele>
        <time>2015-01-18T08:40:58Z</time>
      </trkpt>
      <trkpt lat="48.64558" lon="-3.33444">
        <ele>108</ele>
        <time>2015-01-18T08:40:59Z</time>
      </trkpt>
      <trkpt lat="48.64551" lon="-3.3344">
        <ele>108</ele>
        <time>2015-01-18T08:41:00Z</time>
      </trkpt>
      <trkpt lat="48.64544" lon="-3.33436">
        <ele>108</ele>
        <time>2015-01-18T08:41:01Z</time>
      </trkpt>
      <trkpt lat="48.64537" lon="-3.33431">
        <ele>108</ele>
        <time>2015-01-18T08:41:02Z</time>
      </trkpt>
      <trkpt lat="48.64529" lon="-3.33427">
        <ele>108</ele>
        <time>2015-01-18T08:41:03Z</time>
      </trkpt>
      <trkpt lat="48.64523" lon="-3.33422">
        <ele>108</ele>
        <time>2015-01-18T08:41:03Z</time>
      </trkpt>
      <trkpt lat="48.64516" lon="-3.33418">
        <ele>108</ele>
        <time>2015-01-18T08:41:05Z</time>
      </trkpt>
      <trkpt lat="48.64509" lon="-3.33413">
        <ele>108</ele>
        <time>2015-01-18T08:41:05Z</time>
      </trkpt>
      <trkpt lat="48.64502" lon="-3.33409">
        <ele>108</ele>
        <time>2015-01-18T08:41:07Z</time>
      </trkpt>
      <trkpt lat="48.64494" lon="-3.33404">
        <ele>108</ele>
        <time>2015-01-18T08:41:08Z</time>
      </trkpt>
      <trkpt lat="48.64487" lon="-3.33399">
        <ele>108</ele>
        <time>2015-01-18T08:41:09Z</time>
      </trkpt>
      <trkpt lat="48.6448" lon="-3.33394">
        <ele>108</ele>
        <time>2015-01-18T08:41:09Z</time>
      </trkpt>
      <trkpt lat="48.64473" lon="-3.33389">
        <ele>108</ele>
        <time>2015-01-18T08:41:11Z</time>
      </trkpt>
      <trkpt lat="48.64465" lon="-3.33385">
        <ele>108</ele>
        <time>2015-01-18T08:41:12Z</time>
      </trkpt>
      <trkpt lat="48.64458" lon="-3.3338">
        <ele>108</ele>
        <time>2015-01-18T08:41:13Z</time>
      </trkpt>
      <trkpt lat="48.6445" lon="-3.33375">
        <ele>108</ele>
        <time>2015-01-18T08:41:13Z</time>
      </trkpt>
      <trkpt lat="48.64443" lon="-3.33371">
        <ele>108</ele>
        <time>2015-01-18T08:41:15Z</time>
      </trkpt>
      <trkpt lat="48.64436" lon="-3.33366">
        <ele>108</ele>
        <time>2015-01-18T08:41:16Z</time>
      </trkpt>
      <trkpt lat="48.64428" lon="-3.33362">
        <ele>108</ele>
        <time>2015-01-18T08:41:17Z</time>
      </trkpt>
      <trkpt lat="48.6442" lon="-3.33358">
        <ele>108</ele>
        <time>2015-01-18T08:41:18Z</time>
      </trkpt>
      <trkpt lat="48.64413" lon="-3.33354">
        <ele>108</ele>
        <time>2015-01-18T08:41:19Z</time>
      </trkpt>
      <trkpt lat="48.64405" lon="-3.3335">
        <ele>108</ele>
        <time>2015-01-18T08:41:20Z</time>
      </trkpt>
      <trkpt lat="48.64397" lon="-3.33347">
        <ele>108</ele>
        <time>2015-01-18T08:41:21Z</time>
      </trkpt>
      <trkpt lat="48.6439" lon="-3.33343">
        <ele>108</ele>
        <time>2015-01-18T08:41:22Z</time>
      </trkpt>
      <trkpt lat="48.64382" lon="-3.33339">
        <ele>108</ele>
        <time>2015-01-18T08:41:23Z</time>
      </trkpt>
      <trkpt lat="48.64374" lon="-3.33336">
        <ele>108</ele>
        <time>2015-01-18T08:41:24Z</time>
      </trkpt>
      <trkpt lat="48.64366" lon="-3.33333">
        <ele>108</ele>
        <time>2015-01-18T08:41:25Z</time>
      </trkpt>
      <trkpt lat="48.64359" lon="-3.3333">
        <ele>109</ele>
        <time>2015-01-18T08:41:26Z</time>
      </trkpt>
      <trkpt lat="48.64351" lon="-3.33328">
        <ele>109</ele>
        <time>2015-01-18T08:41:27Z</time>
      </trkpt>
      <trkpt lat="48.64343" lon="-3.33326">
        <ele>109</ele>
        <time>2015-01-18T08:41:28Z</time>
      </trkpt>
      <trkpt lat="48.64335" lon="-3.33325">
        <ele>109</ele>
        <time>2015-01-18T08:41:29Z</time>
      </trkpt>
      <trkpt lat="48.64327" lon="-3.33323">
        <ele>109</ele>
        <time>2015-01-18T08:41:30Z</time>
      </trkpt>
      <trkpt lat="48.64319" lon="-3.33323">
        <ele>109</ele>
        <time>2015-01-18T08:41:31Z</time>
      </trkpt>
      <trkpt lat="48.64312" lon="-3.33322">
        <ele>109</ele>
        <time>2015-01-18T08:41:32Z</time>
      </trkpt>
      <trkpt lat="48.64304" lon="-3.33321">
        <ele>109</ele>
        <time>2015-01-18T08:41:33Z</time>
      </trkpt>
      <trkpt lat="48.64296" lon="-3.3332">
        <ele>109</ele>
        <time>2015-01-18T08:41:34Z</time>
      </trkpt>
      <trkpt lat="48.64287" lon="-3.3332">
        <ele>109</ele>
        <time>2015-01-18T08:41:35Z</time>
      </trkpt>
      <trkpt lat="48.64279" lon="-3.33319">
        <ele>109</ele>
        <time>2015-01-18T08:41:36Z</time>
      </trkpt>
      <trkpt lat="48.64271" lon="-3.33319">
        <ele>109</ele>
        <time>2015-01-18T08:41:37Z</time>
      </trkpt>
      <trkpt lat="48.64263" lon="-3.33318">
        <ele>109</ele>
        <time>2015-01-18T08:41:38Z</time>
      </trkpt>
      <trkpt lat="48.64255" lon="-3.33318">
        <ele>109</ele>
        <time>2015-01-18T08:41:39Z</time>
      </trkpt>
      <trkpt lat="48.64247" lon="-3.33317">
        <ele>109</ele>
        <time>2015-01-18T08:41:40Z</time>
      </trkpt>
      <trkpt lat="48.64239" lon="-3.33316">
        <ele>109</ele>
        <time>2015-01-18T08:41:41Z</time>
      </trkpt>
      <trkpt lat="48.6423" lon="-3.33316">
        <ele>109</ele>
        <time>2015-01-18T08:41:42Z</time>
      </trkpt>
      <trkpt lat="48.64222" lon="-3.33315">
        <ele>109</ele>
        <time>2015-01-18T08:41:43Z</time>
      </trkpt>
      <trkpt lat="48.64214" lon="-3.33314">
        <ele>110</ele>
        <time>2015-01-18T08:41:44Z</time>
      </trkpt>
      <trkpt lat="48.64207" lon="-3.33314">
        <ele>110</ele>
        <time>2015-01-18T08:41:45Z</time>
      </trkpt>
      <trkpt lat="48.64199" lon="-3.33313">
        <ele>110</ele>
        <time>2015-01-18T08:41:46Z</time>
      </trkpt>
      <trkpt lat="48.64191" lon="-3.33313">
        <ele>110</ele>
        <time>2015-01-18T08:41:47Z</time>
      </trkpt>
      <trkpt lat="48.64183" lon="-3.33313">
        <ele>110</ele>
        <time>2015-01-18T08:41:48Z</time>
      </trkpt>
      <trkpt lat="48.64175" lon="-3.33312">
        <ele>110</ele>
        <time>2015-01-18T08:41:49Z</time>
      </trkpt>
      <trkpt lat="48.64167" lon="-3.33312">
        <ele>110</ele>
        <time>2015-01-18T08:41:50Z</time>
      </trkpt>
      <trkpt lat="48.64159" lon="-3.33311">
        <ele>110</ele>
        <time>2015-01-18T08:41:51Z</time>
      </trkpt>
      <trkpt lat="48.6415" lon="-3.3331">
        <ele>110</ele>
        <time>2015-01-18T08:41:52Z</time>
      </trkpt>
      <trkpt lat="48.64142" lon="-3.33309">
        <ele>110</ele>
        <time>2015-01-18T08:41:53Z</time>
      </trkpt>
      <trkpt lat="48.64134" lon="-3.33309">
        <ele>110</ele>
        <time>2015-01-18T08:41:54Z</time>
      </trkpt>
      <trkpt lat="48.64126" lon="-3.33308">
        <ele>110</ele>
        <time>2015-01-18T08:41:55Z</time>
      </trkpt>
      <trkpt lat="48.64118" lon="-3.33308">
        <ele>110</ele>
        <time>2015-01-18T08:41:56Z</time>
      </trkpt>
      <trkpt lat="48.6411" lon="-3.33307">
        <ele>110</ele>
        <time>2015-01-18T08:41:57Z</time>
      </trkpt>
      <trkpt lat="48.64101" lon="-3.33306">
        <ele>110</ele>
        <time>2015-01-18T08:41:58Z</time>
      </trkpt>
      <trkpt lat="48.64093" lon="-3.33306">
        <ele>110</ele>
        <time>2015-01-18T08:41:59Z</time>
      </trkpt>
      <trkpt lat="48.64085" lon="-3.33305">
        <ele>110</ele>
        <time>2015-01-18T08:42:00Z</time>
      </trkpt>
      <trkpt lat="48.64077" lon="-3.33305">
        <ele>110</ele>
        <time>2015-01-18T08:42:01Z</time>
      </trkpt>
      <trkpt lat="48.64069" lon="-3.33304">
        <ele>110</ele>
        <time>2015-01-18T08:42:02Z</time>
      </trkpt>
      <trkpt lat="48.64061" lon="-3.33303">
        <ele>110</ele>
        <time>2015-01-18T08:42:03Z</time>
      </trkpt>
      <trkpt lat="48.64053" lon="-3.33303">
        <ele>110</ele>
        <time>2015-01-18T08:42:04Z</time>
      </trkpt>
      <trkpt lat="48.64045" lon="-3.33302">
        <ele>110</ele>
        <time>2015-01-18T08:42:05Z</time>
      </trkpt>
      <trkpt lat="48.64037" lon="-3.33302">
        <ele>110</ele>
        <time>2015-01-18T08:42:06Z</time>
      </trkpt>
      <trkpt lat="48.64029" lon="-3.33301">
        <ele>110</ele>
        <time>2015-01-18T08:42:07Z</time>
      </trkpt>
      <trkpt lat="48.64021" lon="-3.333">
        <ele>110</ele>
        <time>2015-01-18T08:42:08Z</time>
      </trkpt>
      <trkpt lat="48.64013" lon="-3.333">
        <ele>110</ele>
        <time>2015-01-18T08:42:09Z</time>
      </trkpt>
      <trkpt lat="48.64005" lon="-3.33299">
        <ele>110</ele>
        <time>2015-01-18T08:42:10Z</time>
      </trkpt>
      <trkpt lat="48.63997" lon="-3.33298">
        <ele>110</ele>
        <time>2015-01-18T08:42:11Z</time>
      </trkpt>
      <trkpt lat="48.63989" lon="-3.33298">
        <ele>110</ele>
        <time>2015-01-18T08:42:12Z</time>
      </trkpt>
      <trkpt lat="48.63981" lon="-3.33297">
        <ele>110</ele>
        <time>2015-01-18T08:42:13Z</time>
      </trkpt>
      <trkpt lat="48.63973" lon="-3.33297">
        <ele>110</ele>
        <time>2015-01-18T08:42:13Z</time>
      </trkpt>
      <trkpt lat="48.63965" lon="-3.33296">
        <ele>110</ele>
        <time>2015-01-18T08:42:15Z</time>
      </trkpt>
      <trkpt lat="48.63957" lon="-3.33296">
        <ele>110</ele>
        <time>2015-01-18T08:42:16Z</time>
      </trkpt>
      <trkpt lat="48.63949" lon="-3.33295">
        <ele>111</ele>
        <time>2015-01-18T08:42:17Z</time>
      </trkpt>
      <trkpt lat="48.63941" lon="-3.33295">
        <ele>111</ele>
        <time>2015-01-18T08:42:18Z</time>
      </trkpt>
      <trkpt lat="48.63933" lon="-3.33294">
        <ele>111</ele>
        <time>2015-01-18T08:42:19Z</time>
      </trkpt>
      <trkpt lat="48.63925" lon="-3.33293">
        <ele>111</ele>
        <time>2015-01-18T08:42:20Z</time>
      </trkpt>
      <trkpt lat="48.63917" lon="-3.33292">
        <ele>111</ele>
        <time>2015-01-18T08:42:21Z</time>
      </trkpt>
      <trkpt lat="48.63909" lon="-3.33291">
        <ele>111</ele>
        <time>2015-01-18T08:42:22Z</time>
      </trkpt>
      <trkpt lat="48.63901" lon="-3.3329">
        <ele>111</ele>
        <time>2015-01-18T08:42:23Z</time>
      </trkpt>
      <trkpt lat="48.63893" lon="-3.3329">
        <ele>111</ele>
        <time>2015-01-18T08:42:24Z</time>
      </trkpt>
      <trkpt lat="48.63885" lon="-3.33289">
        <ele>111</ele>
        <time>2015-01-18T08:42:25Z</time>
      </trkpt>
      <trkpt lat="48.63877" lon="-3.33288">
        <ele>111</ele>
        <time>2015-01-18T08:42:26Z</time>
      </trkpt>
      <trkpt lat="48.63869" lon="-3.33287">
        <ele>111</ele>
        <time>2015-01-18T08:42:27Z</time>
      </trkpt>
      <trkpt lat="48.6386" lon="-3.33285">
        <ele>111</ele>
        <time>2015-01-18T08:42:28Z</time>
      </trkpt>
      <trkpt lat="48.63852" lon="-3.33283">
        <ele>111</ele>
        <time>2015-01-18T08:42:29Z</time>
      </trkpt>
      <trkpt lat="48.63844" lon="-3.33282">
        <ele>111</ele>
        <time>2015-01-18T08:42:30Z</time>
      </trkpt>
      <trkpt lat="48.63836" lon="-3.33281">
        <ele>111</ele>
        <time>2015-01-18T08:42:31Z</time>
      </trkpt>
      <trkpt lat="48.63828" lon="-3.33279">
        <ele>111</ele>
        <time>2015-01-18T08:42:32Z</time>
      </trkpt>
      <trkpt lat="48.6382" lon="-3.33278">
        <ele>111</ele>
        <time>2015-01-18T08:42:33Z</time>
      </trkpt>
      <trkpt lat="48.63813" lon="-3.33277">
        <ele>111</ele>
        <time>2015-01-18T08:42:34Z</time>
      </trkpt>
      <trkpt lat="48.63805" lon="-3.33276">
        <ele>111</ele>
        <time>2015-01-18T08:42:35Z</time>
      </trkpt>
      <trkpt lat="48.63797" lon="-3.33274">
        <ele>111</ele>
        <time>2015-01-18T08:42:36Z</time>
      </trkpt>
      <trkpt lat="48.63789" lon="-3.33273">
        <ele>111</ele>
        <time>2015-01-18T08:42:37Z</time>
      </trkpt>
      <trkpt lat="48.63781" lon="-3.33272">
        <ele>111</ele>
        <time>2015-01-18T08:42:38Z</time>
      </trkpt>
      <trkpt lat="48.63773" lon="-3.3327">
        <ele>111</ele>
        <time>2015-01-18T08:42:39Z</time>
      </trkpt>
      <trkpt lat="48.63765" lon="-3.33269">
        <ele>111</ele>
        <time>2015-01-18T08:42:40Z</time>
      </trkpt>
      <trkpt lat="48.63757" lon="-3.33268">
        <ele>111</ele>
        <time>2015-01-18T08:42:41Z</time>
      </trkpt>
      <trkpt lat="48.63749" lon="-3.33266">
        <ele>111</ele>
        <time>2015-01-18T08:42:42Z</time>
      </trkpt>
      <trkpt lat="48.63742" lon="-3.33265">
        <ele>111</ele>
        <time>2015-01-18T08:42:43Z</time>
      </trkpt>
      <trkpt lat="48.63734" lon="-3.33263">
        <ele>111</ele>
        <time>2015-01-18T08:42:44Z</time>
      </trkpt>
      <trkpt lat="48.63726" lon="-3.33262">
        <ele>111</ele>
        <time>2015-01-18T08:42:45Z</time>
      </trkpt>
      <trkpt lat="48.63718" lon="-3.33261">
        <ele>111</ele>
        <time>2015-01-18T08:42:46Z</time>
      </trkpt>
      <trkpt lat="48.6371" lon="-3.3326">
        <ele>111</ele>
        <time>2015-01-18T08:42:47Z</time>
      </trkpt>
      <trkpt lat="48.63703" lon="-3.33259">
        <ele>111</ele>
        <time>2015-01-18T08:42:48Z</time>
      </trkpt>
      <trkpt lat="48.63695" lon="-3.33257">
        <ele>111</ele>
        <time>2015-01-18T08:42:49Z</time>
      </trkpt>
      <trkpt lat="48.63687" lon="-3.33256">
        <ele>111</ele>
        <time>2015-01-18T08:42:50Z</time>
      </trkpt>
      <trkpt lat="48.6368" lon="-3.33255">
        <ele>111</ele>
        <time>2015-01-18T08:42:51Z</time>
      </trkpt>
      <trkpt lat="48.63672" lon="-3.33254">
        <ele>111</ele>
        <time>2015-01-18T08:42:52Z</time>
      </trkpt>
      <trkpt lat="48.63664" lon="-3.33253">
        <ele>111</ele>
        <time>2015-01-18T08:42:53Z</time>
      </trkpt>
      <trkpt lat="48.63656" lon="-3.33251">
        <ele>111</ele>
        <time>2015-01-18T08:42:54Z</time>
      </trkpt>
      <trkpt lat="48.63648" lon="-3.3325">
        <ele>111</ele>
        <time>2015-01-18T08:42:55Z</time>
      </trkpt>
      <trkpt lat="48.6364" lon="-3.33249">
        <ele>111</ele>
        <time>2015-01-18T08:42:56Z</time>
      </trkpt>
      <trkpt lat="48.63632" lon="-3.33248">
        <ele>111</ele>
        <time>2015-01-18T08:42:57Z</time>
      </trkpt>
      <trkpt lat="48.63624" lon="-3.33247">
        <ele>111</ele>
        <time>2015-01-18T08:42:58Z</time>
      </trkpt>
      <trkpt lat="48.63616" lon="-3.33246">
        <ele>112</ele>
        <time>2015-01-18T08:42:59Z</time>
      </trkpt>
      <trkpt lat="48.63608" lon="-3.33245">
        <ele>112</ele>
        <time>2015-01-18T08:43:00Z</time>
      </trkpt>
      <trkpt lat="48.63585" lon="-3.33246">
        <ele>112</ele>
        <time>2015-01-18T08:43:03Z</time>
      </trkpt>
      <trkpt lat="48.63577" lon="-3.33246">
        <ele>112</ele>
        <time>2015-01-18T08:43:04Z</time>
      </trkpt>
      <trkpt lat="48.63569" lon="-3.33247">
        <ele>112</ele>
        <time>2015-01-18T08:43:05Z</time>
      </trkpt>
      <trkpt lat="48.63561" lon="-3.33247">
        <ele>112</ele>
        <time>2015-01-18T08:43:06Z</time>
      </trkpt>
      <trkpt lat="48.63553" lon="-3.33248">
        <ele>112</ele>
        <time>2015-01-18T08:43:07Z</time>
      </trkpt>
      <trkpt lat="48.63545" lon="-3.33249">
        <ele>112</ele>
        <time>2015-01-18T08:43:08Z</time>
      </trkpt>
      <trkpt lat="48.63538" lon="-3.3325">
        <ele>112</ele>
        <time>2015-01-18T08:43:09Z</time>
      </trkpt>
      <trkpt lat="48.6353" lon="-3.33251">
        <ele>112</ele>
        <time>2015-01-18T08:43:10Z</time>
      </trkpt>
      <trkpt lat="48.63522" lon="-3.33252">
        <ele>112</ele>
        <time>2015-01-18T08:43:11Z</time>
      </trkpt>
      <trkpt lat="48.63514" lon="-3.33253">
        <ele>112</ele>
        <time>2015-01-18T08:43:12Z</time>
      </trkpt>
      <trkpt lat="48.63506" lon="-3.33254">
        <ele>112</ele>
        <time>2015-01-18T08:43:13Z</time>
      </trkpt>
      <trkpt lat="48.63499" lon="-3.33255">
        <ele>112</ele>
        <time>2015-01-18T08:43:13Z</time>
      </trkpt>
      <trkpt lat="48.63491" lon="-3.33256">
        <ele>112</ele>
        <time>2015-01-18T08:43:15Z</time>
      </trkpt>
      <trkpt lat="48.63483" lon="-3.33256">
        <ele>112</ele>
        <time>2015-01-18T08:43:16Z</time>
      </trkpt>
      <trkpt lat="48.63475" lon="-3.33257">
        <ele>112</ele>
        <time>2015-01-18T08:43:17Z</time>
      </trkpt>
      <trkpt lat="48.63467" lon="-3.33258">
        <ele>112</ele>
        <time>2015-01-18T08:43:17Z</time>
      </trkpt>
      <trkpt lat="48.6346" lon="-3.33258">
        <ele>112</ele>
        <time>2015-01-18T08:43:19Z</time>
      </trkpt>
      <trkpt lat="48.63452" lon="-3.33259">
        <ele>112</ele>
        <time>2015-01-18T08:43:20Z</time>
      </trkpt>
      <trkpt lat="48.63445" lon="-3.33259">
        <ele>112</ele>
        <time>2015-01-18T08:43:21Z</time>
      </trkpt>
      <trkpt lat="48.63437" lon="-3.3326">
        <ele>113</ele>
        <time>2015-01-18T08:43:21Z</time>
      </trkpt>
      <trkpt lat="48.63429" lon="-3.3326">
        <ele>113</ele>
        <time>2015-01-18T08:43:23Z</time>
      </trkpt>
      <trkpt lat="48.63422" lon="-3.3326">
        <ele>113</ele>
        <time>2015-01-18T08:43:24Z</time>
      </trkpt>
      <trkpt lat="48.63414" lon="-3.33261">
        <ele>113</ele>
        <time>2015-01-18T08:43:25Z</time>
      </trkpt>
      <trkpt lat="48.63407" lon="-3.33261">
        <ele>113</ele>
        <time>2015-01-18T08:43:26Z</time>
      </trkpt>
      <trkpt lat="48.63399" lon="-3.33261">
        <ele>113</ele>
        <time>2015-01-18T08:43:27Z</time>
      </trkpt>
      <trkpt lat="48.63391" lon="-3.33262">
        <ele>113</ele>
        <time>2015-01-18T08:43:28Z</time>
      </trkpt>
      <trkpt lat="48.63384" lon="-3.33262">
        <ele>113</ele>
        <time>2015-01-18T08:43:29Z</time>
      </trkpt>
      <trkpt lat="48.63376" lon="-3.33262">
        <ele>113</ele>
        <time>2015-01-18T08:43:29Z</time>
      </trkpt>
      <trkpt lat="48.63369" lon="-3.33263">
        <ele>113</ele>
        <time>2015-01-18T08:43:31Z</time>
      </trkpt>
      <trkpt lat="48.63361" lon="-3.33262">
        <ele>113</ele>
        <time>2015-01-18T08:43:32Z</time>
      </trkpt>
      <trkpt lat="48.63354" lon="-3.33262">
        <ele>113</ele>
        <time>2015-01-18T08:43:33Z</time>
      </trkpt>
      <trkpt lat="48.63347" lon="-3.33262">
        <ele>113</ele>
        <time>2015-01-18T08:43:34Z</time>
      </trkpt>
      <trkpt lat="48.63339" lon="-3.33262">
        <ele>113</ele>
        <time>2015-01-18T08:43:35Z</time>
      </trkpt>
      <trkpt lat="48.63332" lon="-3.33263">
        <ele>113</ele>
        <time>2015-01-18T08:43:36Z</time>
      </trkpt>
      <trkpt lat="48.63326" lon="-3.33262">
        <ele>113</ele>
        <time>2015-01-18T08:43:37Z</time>
      </trkpt>
      <trkpt lat="48.63321" lon="-3.33259">
        <ele>113</ele>
        <time>2015-01-18T08:43:37Z</time>
      </trkpt>
      <trkpt lat="48.63318" lon="-3.33253">
        <ele>113</ele>
        <time>2015-01-18T08:43:39Z</time>
      </trkpt>
      <trkpt lat="48.63317" lon="-3.33246">
        <ele>113</ele>
        <time>2015-01-18T08:43:40Z</time>
      </trkpt>
      <trkpt lat="48.63317" lon="-3.33227">
        <ele>113</ele>
        <time>2015-01-18T08:43:42Z</time>
      </trkpt>
      <trkpt lat="48.63318" lon="-3.33217">
        <ele>113</ele>
        <time>2015-01-18T08:43:43Z</time>
      </trkpt>
      <trkpt lat="48.63319" lon="-3.33206">
        <ele>113</ele>
        <time>2015-01-18T08:43:44Z</time>
      </trkpt>
      <trkpt lat="48.63319" lon="-3.33183">
        <ele>113</ele>
        <time>2015-01-18T08:43:46Z</time>
      </trkpt>
      <trkpt lat="48.63319" lon="-3.33172">
        <ele>113</ele>
        <time>2015-01-18T08:43:47Z</time>
      </trkpt>
      <trkpt lat="48.6332" lon="-3.33148">
        <ele>113</ele>
        <time>2015-01-18T08:43:49Z</time>
      </trkpt>
      <trkpt lat="48.63319" lon="-3.33114">
        <ele>113</ele>
        <time>2015-01-18T08:43:52Z</time>
      </trkpt>
      <trkpt lat="48.63319" lon="-3.33102">
        <ele>113</ele>
        <time>2015-01-18T08:43:53Z</time>
      </trkpt>
      <trkpt lat="48.63319" lon="-3.33091">
        <ele>113</ele>
        <time>2015-01-18T08:43:54Z</time>
      </trkpt>
      <trkpt lat="48.63318" lon="-3.3308">
        <ele>113</ele>
        <time>2015-01-18T08:43:55Z</time>
      </trkpt>
      <trkpt lat="48.63317" lon="-3.33069">
        <ele>113</ele>
        <time>2015-01-18T08:43:55Z</time>
      </trkpt>
      <trkpt lat="48.63315" lon="-3.33058">
        <ele>113</ele>
        <time>2015-01-18T08:43:57Z</time>
      </trkpt>
      <trkpt lat="48.63313" lon="-3.33047">
        <ele>113</ele>
        <time>2015-01-18T08:43:57Z</time>
      </trkpt>
      <trkpt lat="48.63311" lon="-3.33036">
        <ele>113</ele>
        <time>2015-01-18T08:43:58Z</time>
      </trkpt>
      <trkpt lat="48.63308" lon="-3.33025">
        <ele>113</ele>
        <time>2015-01-18T08:43:59Z</time>
      </trkpt>
      <trkpt lat="48.63305" lon="-3.33014">
        <ele>113</ele>
        <time>2015-01-18T08:44:00Z</time>
      </trkpt>
      <trkpt lat="48.63303" lon="-3.33003">
        <ele>113</ele>
        <time>2015-01-18T08:44:02Z</time>
      </trkpt>
      <trkpt lat="48.633" lon="-3.32992">
        <ele>113</ele>
        <time>2015-01-18T08:44:03Z</time>
      </trkpt>
      <trkpt lat="48.63297" lon="-3.32981">
        <ele>113</ele>
        <time>2015-01-18T08:44:04Z</time>
      </trkpt>
      <trkpt lat="48.63294" lon="-3.3297">
        <ele>113</ele>
        <time>2015-01-18T08:44:04Z</time>
      </trkpt>
      <trkpt lat="48.63292" lon="-3.32959">
        <ele>113</ele>
        <time>2015-01-18T08:44:05Z</time>
      </trkpt>
      <trkpt lat="48.63289" lon="-3.32948">
        <ele>113</ele>
        <time>2015-01-18T08:44:07Z</time>
      </trkpt>
      <trkpt lat="48.63286" lon="-3.32937">
        <ele>113</ele>
        <time>2015-01-18T08:44:08Z</time>
      </trkpt>
      <trkpt lat="48.63284" lon="-3.32926">
        <ele>113</ele>
        <time>2015-01-18T08:44:08Z</time>
      </trkpt>
      <trkpt lat="48.63281" lon="-3.32914">
        <ele>113</ele>
        <time>2015-01-18T08:44:09Z</time>
      </trkpt>
      <trkpt lat="48.63278" lon="-3.32903">
        <ele>113</ele>
        <time>2015-01-18T08:44:10Z</time>
      </trkpt>
      <trkpt lat="48.63275" lon="-3.32892">
        <ele>113</ele>
        <time>2015-01-18T08:44:11Z</time>
      </trkpt>
      <trkpt lat="48.63273" lon="-3.3288">
        <ele>113</ele>
        <time>2015-01-18T08:44:13Z</time>
      </trkpt>
      <trkpt lat="48.6327" lon="-3.32868">
        <ele>113</ele>
        <time>2015-01-18T08:44:13Z</time>
      </trkpt>
      <trkpt lat="48.63268" lon="-3.32856">
        <ele>113</ele>
        <time>2015-01-18T08:44:15Z</time>
      </trkpt>
      <trkpt lat="48.63266" lon="-3.32844">
        <ele>113</ele>
        <time>2015-01-18T08:44:15Z</time>
      </trkpt>
      <trkpt lat="48.63265" lon="-3.32831">
        <ele>113</ele>
        <time>2015-01-18T08:44:16Z</time>
      </trkpt>
      <trkpt lat="48.63264" lon="-3.32819">
        <ele>113</ele>
        <time>2015-01-18T08:44:18Z</time>
      </trkpt>
      <trkpt lat="48.63264" lon="-3.32806">
        <ele>113</ele>
        <time>2015-01-18T08:44:19Z</time>
      </trkpt>
      <trkpt lat="48.63263" lon="-3.32793">
        <ele>113</ele>
        <time>2015-01-18T08:44:20Z</time>
      </trkpt>
      <trkpt lat="48.63262" lon="-3.3278">
        <ele>113</ele>
        <time>2015-01-18T08:44:21Z</time>
      </trkpt>
      <trkpt lat="48.63262" lon="-3.32768">
        <ele>113</ele>
        <time>2015-01-18T08:44:21Z</time>
      </trkpt>
      <trkpt lat="48.63261" lon="-3.32755">
        <ele>113</ele>
        <time>2015-01-18T08:44:23Z</time>
      </trkpt>
      <trkpt lat="48.63261" lon="-3.32742">
        <ele>113</ele>
        <time>2015-01-18T08:44:24Z</time>
      </trkpt>
      <trkpt lat="48.6326" lon="-3.3273">
        <ele>113</ele>
        <time>2015-01-18T08:44:25Z</time>
      </trkpt>
      <trkpt lat="48.63259" lon="-3.32717">
        <ele>113</ele>
        <time>2015-01-18T08:44:26Z</time>
      </trkpt>
      <trkpt lat="48.63258" lon="-3.32705">
        <ele>113</ele>
        <time>2015-01-18T08:44:27Z</time>
      </trkpt>
      <trkpt lat="48.63258" lon="-3.32693">
        <ele>113</ele>
        <time>2015-01-18T08:44:28Z</time>
      </trkpt>
      <trkpt lat="48.63257" lon="-3.32681">
        <ele>113</ele>
        <time>2015-01-18T08:44:29Z</time>
      </trkpt>
      <trkpt lat="48.63256" lon="-3.32669">
        <ele>113</ele>
        <time>2015-01-18T08:44:29Z</time>
      </trkpt>
      <trkpt lat="48.63255" lon="-3.32657">
        <ele>113</ele>
        <time>2015-01-18T08:44:31Z</time>
      </trkpt>
      <trkpt lat="48.63253" lon="-3.32645">
        <ele>113</ele>
        <time>2015-01-18T08:44:31Z</time>
      </trkpt>
      <trkpt lat="48.63252" lon="-3.32633">
        <ele>113</ele>
        <time>2015-01-18T08:44:33Z</time>
      </trkpt>
      <trkpt lat="48.63251" lon="-3.32621">
        <ele>113</ele>
        <time>2015-01-18T08:44:33Z</time>
      </trkpt>
      <trkpt lat="48.6325" lon="-3.32609">
        <ele>113</ele>
        <time>2015-01-18T08:44:35Z</time>
      </trkpt>
      <trkpt lat="48.63249" lon="-3.32597">
        <ele>113</ele>
        <time>2015-01-18T08:44:36Z</time>
      </trkpt>
      <trkpt lat="48.63248" lon="-3.32585">
        <ele>113</ele>
        <time>2015-01-18T08:44:36Z</time>
      </trkpt>
      <trkpt lat="48.63247" lon="-3.32573">
        <ele>113</ele>
        <time>2015-01-18T08:44:37Z</time>
      </trkpt>
      <trkpt lat="48.63245" lon="-3.32561">
        <ele>113</ele>
        <time>2015-01-18T08:44:39Z</time>
      </trkpt>
      <trkpt lat="48.63244" lon="-3.32549">
        <ele>113</ele>
        <time>2015-01-18T08:44:40Z</time>
      </trkpt>
      <trkpt lat="48.63243" lon="-3.32537">
        <ele>113</ele>
        <time>2015-01-18T08:44:41Z</time>
      </trkpt>
      <trkpt lat="48.63242" lon="-3.32524">
        <ele>113</ele>
        <time>2015-01-18T08:44:42Z</time>
      </trkpt>
      <trkpt lat="48.63241" lon="-3.32512">
        <ele>113</ele>
        <time>2015-01-18T08:44:43Z</time>
      </trkpt>
      <trkpt lat="48.6324" lon="-3.325">
        <ele>113</ele>
        <time>2015-01-18T08:44:43Z</time>
      </trkpt>
      <trkpt lat="48.63239" lon="-3.32488">
        <ele>113</ele>
        <time>2015-01-18T08:44:45Z</time>
      </trkpt>
      <trkpt lat="48.63237" lon="-3.32475">
        <ele>113</ele>
        <time>2015-01-18T08:44:45Z</time>
      </trkpt>
      <trkpt lat="48.63236" lon="-3.32463">
        <ele>113</ele>
        <time>2015-01-18T08:44:47Z</time>
      </trkpt>
      <trkpt lat="48.63234" lon="-3.3245">
        <ele>113</ele>
        <time>2015-01-18T08:44:48Z</time>
      </trkpt>
      <trkpt lat="48.63232" lon="-3.32438">
        <ele>113</ele>
        <time>2015-01-18T08:44:48Z</time>
      </trkpt>
      <trkpt lat="48.6323" lon="-3.32426">
        <ele>113</ele>
        <time>2015-01-18T08:44:49Z</time>
      </trkpt>
      <trkpt lat="48.63227" lon="-3.32413">
        <ele>113</ele>
        <time>2015-01-18T08:44:51Z</time>
      </trkpt>
      <trkpt lat="48.63225" lon="-3.32401">
        <ele>113</ele>
        <time>2015-01-18T08:44:52Z</time>
      </trkpt>
      <trkpt lat="48.63222" lon="-3.32389">
        <ele>113</ele>
        <time>2015-01-18T08:44:52Z</time>
      </trkpt>
      <trkpt lat="48.63219" lon="-3.32378">
        <ele>113</ele>
        <time>2015-01-18T08:44:53Z</time>
      </trkpt>
      <trkpt lat="48.63217" lon="-3.32366">
        <ele>113</ele>
        <time>2015-01-18T08:44:54Z</time>
      </trkpt>
      <trkpt lat="48.63214" lon="-3.32354">
        <ele>113</ele>
        <time>2015-01-18T08:44:56Z</time>
      </trkpt>
      <trkpt lat="48.63212" lon="-3.32343">
        <ele>113</ele>
        <time>2015-01-18T08:44:57Z</time>
      </trkpt>
      <trkpt lat="48.6321" lon="-3.32331">
        <ele>113</ele>
        <time>2015-01-18T08:44:57Z</time>
      </trkpt>
      <trkpt lat="48.63208" lon="-3.32319">
        <ele>113</ele>
        <time>2015-01-18T08:44:59Z</time>
      </trkpt>
      <trkpt lat="48.63206" lon="-3.32307">
        <ele>113</ele>
        <time>2015-01-18T08:44:59Z</time>
      </trkpt>
      <trkpt lat="48.63206" lon="-3.32295">
        <ele>113</ele>
        <time>2015-01-18T08:45:01Z</time>
      </trkpt>
      <trkpt lat="48.63207" lon="-3.3227">
        <ele>113</ele>
        <time>2015-01-18T08:45:03Z</time>
      </trkpt>
      <trkpt lat="48.63209" lon="-3.32258">
        <ele>113</ele>
        <time>2015-01-18T08:45:03Z</time>
      </trkpt>
      <trkpt lat="48.63211" lon="-3.32246">
        <ele>113</ele>
        <time>2015-01-18T08:45:04Z</time>
      </trkpt>
      <trkpt lat="48.63212" lon="-3.32234">
        <ele>113</ele>
        <time>2015-01-18T08:45:05Z</time>
      </trkpt>
      <trkpt lat="48.63214" lon="-3.32222">
        <ele>113</ele>
        <time>2015-01-18T08:45:07Z</time>
      </trkpt>
      <trkpt lat="48.63216" lon="-3.3221">
        <ele>113</ele>
        <time>2015-01-18T08:45:07Z</time>
      </trkpt>
      <trkpt lat="48.63218" lon="-3.32199">
        <ele>113</ele>
        <time>2015-01-18T08:45:08Z</time>
      </trkpt>
      <trkpt lat="48.63221" lon="-3.32187">
        <ele>113</ele>
        <time>2015-01-18T08:45:09Z</time>
      </trkpt>
      <trkpt lat="48.63223" lon="-3.32175">
        <ele>113</ele>
        <time>2015-01-18T08:45:10Z</time>
      </trkpt>
      <trkpt lat="48.63226" lon="-3.32164">
        <ele>113</ele>
        <time>2015-01-18T08:45:11Z</time>
      </trkpt>
      <trkpt lat="48.63229" lon="-3.32153">
        <ele>113</ele>
        <time>2015-01-18T08:45:13Z</time>
      </trkpt>
      <trkpt lat="48.63234" lon="-3.32143">
        <ele>113</ele>
        <time>2015-01-18T08:45:13Z</time>
      </trkpt>
      <trkpt lat="48.63239" lon="-3.32133">
        <ele>113</ele>
        <time>2015-01-18T08:45:15Z</time>
      </trkpt>
      <trkpt lat="48.63245" lon="-3.32123">
        <ele>113</ele>
        <time>2015-01-18T08:45:15Z</time>
      </trkpt>
      <trkpt lat="48.63251" lon="-3.32115">
        <ele>113</ele>
        <time>2015-01-18T08:45:16Z</time>
      </trkpt>
      <trkpt lat="48.63257" lon="-3.32108">
        <ele>113</ele>
        <time>2015-01-18T08:45:18Z</time>
      </trkpt>
      <trkpt lat="48.63264" lon="-3.321">
        <ele>113</ele>
        <time>2015-01-18T08:45:18Z</time>
      </trkpt>
      <trkpt lat="48.63271" lon="-3.32093">
        <ele>113</ele>
        <time>2015-01-18T08:45:19Z</time>
      </trkpt>
      <trkpt lat="48.63278" lon="-3.32086">
        <ele>113</ele>
        <time>2015-01-18T08:45:20Z</time>
      </trkpt>
      <trkpt lat="48.63285" lon="-3.32079">
        <ele>113</ele>
        <time>2015-01-18T08:45:21Z</time>
      </trkpt>
      <trkpt lat="48.63292" lon="-3.32073">
        <ele>113</ele>
        <time>2015-01-18T08:45:23Z</time>
      </trkpt>
      <trkpt lat="48.633" lon="-3.32066">
        <ele>113</ele>
        <time>2015-01-18T08:45:23Z</time>
      </trkpt>
      <trkpt lat="48.63308" lon="-3.3206">
        <ele>113</ele>
        <time>2015-01-18T08:45:24Z</time>
      </trkpt>
      <trkpt lat="48.63316" lon="-3.32055">
        <ele>113</ele>
        <time>2015-01-18T08:45:25Z</time>
      </trkpt>
      <trkpt lat="48.63323" lon="-3.32049">
        <ele>113</ele>
        <time>2015-01-18T08:45:27Z</time>
      </trkpt>
      <trkpt lat="48.63332" lon="-3.32044">
        <ele>113</ele>
        <time>2015-01-18T08:45:28Z</time>
      </trkpt>
      <trkpt lat="48.6334" lon="-3.32039">
        <ele>113</ele>
        <time>2015-01-18T08:45:28Z</time>
      </trkpt>
      <trkpt lat="48.63348" lon="-3.32034">
        <ele>113</ele>
        <time>2015-01-18T08:45:29Z</time>
      </trkpt>
      <trkpt lat="48.63356" lon="-3.32028">
        <ele>113</ele>
        <time>2015-01-18T08:45:30Z</time>
      </trkpt>
      <trkpt lat="48.63364" lon="-3.32022">
        <ele>113</ele>
        <time>2015-01-18T08:45:31Z</time>
      </trkpt>
      <trkpt lat="48.63371" lon="-3.32014">
        <ele>113</ele>
        <time>2015-01-18T08:45:33Z</time>
      </trkpt>
      <trkpt lat="48.63379" lon="-3.32006">
        <ele>113</ele>
        <time>2015-01-18T08:45:33Z</time>
      </trkpt>
      <trkpt lat="48.63386" lon="-3.31997">
        <ele>113</ele>
        <time>2015-01-18T08:45:34Z</time>
      </trkpt>
      <trkpt lat="48.63392" lon="-3.31987">
        <ele>113</ele>
        <time>2015-01-18T08:45:35Z</time>
      </trkpt>
      <trkpt lat="48.63398" lon="-3.31976">
        <ele>113</ele>
        <time>2015-01-18T08:45:36Z</time>
      </trkpt>
      <trkpt lat="48.63404" lon="-3.31965">
        <ele>112</ele>
        <time>2015-01-18T08:45:38Z</time>
      </trkpt>
      <trkpt lat="48.63409" lon="-3.31953">
        <ele>112</ele>
        <time>2015-01-18T08:45:39Z</time>
      </trkpt>
      <trkpt lat="48.63414" lon="-3.31941">
        <ele>112</ele>
        <time>2015-01-18T08:45:39Z</time>
      </trkpt>
      <trkpt lat="48.63418" lon="-3.31928">
        <ele>112</ele>
        <time>2015-01-18T08:45:40Z</time>
      </trkpt>
      <trkpt lat="48.63421" lon="-3.31915">
        <ele>112</ele>
        <time>2015-01-18T08:45:41Z</time>
      </trkpt>
      <trkpt lat="48.63424" lon="-3.31902">
        <ele>112</ele>
        <time>2015-01-18T08:45:43Z</time>
      </trkpt>
      <trkpt lat="48.63426" lon="-3.3189">
        <ele>112</ele>
        <time>2015-01-18T08:45:43Z</time>
      </trkpt>
      <trkpt lat="48.63428" lon="-3.31877">
        <ele>112</ele>
        <time>2015-01-18T08:45:44Z</time>
      </trkpt>
      <trkpt lat="48.63429" lon="-3.31865">
        <ele>112</ele>
        <time>2015-01-18T08:45:45Z</time>
      </trkpt>
      <trkpt lat="48.6343" lon="-3.31853">
        <ele>112</ele>
        <time>2015-01-18T08:45:47Z</time>
      </trkpt>
      <trkpt lat="48.63429" lon="-3.3184">
        <ele>112</ele>
        <time>2015-01-18T08:45:47Z</time>
      </trkpt>
      <trkpt lat="48.63429" lon="-3.31828">
        <ele>112</ele>
        <time>2015-01-18T08:45:49Z</time>
      </trkpt>
      <trkpt lat="48.63427" lon="-3.31816">
        <ele>112</ele>
        <time>2015-01-18T08:45:49Z</time>
      </trkpt>
      <trkpt lat="48.63425" lon="-3.31803">
        <ele>112</ele>
        <time>2015-01-18T08:45:50Z</time>
      </trkpt>
      <trkpt lat="48.63422" lon="-3.31792">
        <ele>112</ele>
        <time>2015-01-18T08:45:51Z</time>
      </trkpt>
      <trkpt lat="48.63419" lon="-3.3178">
        <ele>112</ele>
        <time>2015-01-18T08:45:52Z</time>
      </trkpt>
      <trkpt lat="48.63416" lon="-3.31768">
        <ele>112</ele>
        <time>2015-01-18T08:45:54Z</time>
      </trkpt>
      <trkpt lat="48.63412" lon="-3.31757">
        <ele>112</ele>
        <time>2015-01-18T08:45:54Z</time>
      </trkpt>
      <trkpt lat="48.63408" lon="-3.31746">
        <ele>112</ele>
        <time>2015-01-18T08:45:55Z</time>
      </trkpt>
      <trkpt lat="48.63403" lon="-3.31735">
        <ele>112</ele>
        <time>2015-01-18T08:45:56Z</time>
      </trkpt>
      <trkpt lat="48.63398" lon="-3.31725">
        <ele>112</ele>
        <time>2015-01-18T08:45:57Z</time>
      </trkpt>
      <trkpt lat="48.63393" lon="-3.31715">
        <ele>112</ele>
        <time>2015-01-18T08:45:59Z</time>
      </trkpt>
      <trkpt lat="48.63387" lon="-3.31706">
        <ele>112</ele>
        <time>2015-01-18T08:45:59Z</time>
      </trkpt>
      <trkpt lat="48.63382" lon="-3.31697">
        <ele>112</ele>
        <time>2015-01-18T08:46:00Z</time>
      </trkpt>
      <trkpt lat="48.63376" lon="-3.31689">
        <ele>112</ele>
        <time>2015-01-18T08:46:01Z</time>
      </trkpt>
      <trkpt lat="48.63371" lon="-3.3168">
        <ele>112</ele>
        <time>2015-01-18T08:46:03Z</time>
      </trkpt>
      <trkpt lat="48.63365" lon="-3.31672">
        <ele>112</ele>
        <time>2015-01-18T08:46:04Z</time>
      </trkpt>
      <trkpt lat="48.6336" lon="-3.31664">
        <ele>112</ele>
        <time>2015-01-18T08:46:04Z</time>
      </trkpt>
      <trkpt lat="48.63354" lon="-3.31656">
        <ele>112</ele>
        <time>2015-01-18T08:46:05Z</time>
      </trkpt>
      <trkpt lat="48.63349" lon="-3.31648">
        <ele>112</ele>
        <time>2015-01-18T08:46:06Z</time>
      </trkpt>
      <trkpt lat="48.63344" lon="-3.3164">
        <ele>112</ele>
        <time>2015-01-18T08:46:07Z</time>
      </trkpt>
      <trkpt lat="48.63339" lon="-3.31632">
        <ele>112</ele>
        <time>2015-01-18T08:46:09Z</time>
      </trkpt>
      <trkpt lat="48.63334" lon="-3.31624">
        <ele>112</ele>
        <time>2015-01-18T08:46:09Z</time>
      </trkpt>
      <trkpt lat="48.63328" lon="-3.31616">
        <ele>112</ele>
        <time>2015-01-18T08:46:10Z</time>
      </trkpt>
      <trkpt lat="48.63323" lon="-3.31608">
        <ele>112</ele>
        <time>2015-01-18T08:46:11Z</time>
      </trkpt>
      <trkpt lat="48.63318" lon="-3.316">
        <ele>112</ele>
        <time>2015-01-18T08:46:12Z</time>
      </trkpt>
      <trkpt lat="48.63313" lon="-3.31593">
        <ele>112</ele>
        <time>2015-01-18T08:46:14Z</time>
      </trkpt>
      <trkpt lat="48.63307" lon="-3.31586">
        <ele>112</ele>
        <time>2015-01-18T08:46:15Z</time>
      </trkpt>
      <trkpt lat="48.63302" lon="-3.31578">
        <ele>112</ele>
        <time>2015-01-18T08:46:15Z</time>
      </trkpt>
      <trkpt lat="48.63297" lon="-3.31572">
        <ele>112</ele>
        <time>2015-01-18T08:46:16Z</time>
      </trkpt>
      <trkpt lat="48.63291" lon="-3.31565">
        <ele>112</ele>
        <time>2015-01-18T08:46:17Z</time>
      </trkpt>
      <trkpt lat="48.63286" lon="-3.31559">
        <ele>112</ele>
        <time>2015-01-18T08:46:19Z</time>
      </trkpt>
      <trkpt lat="48.63281" lon="-3.31553">
        <ele>112</ele>
        <time>2015-01-18T08:46:19Z</time>
      </trkpt>
      <trkpt lat="48.63275" lon="-3.31546">
        <ele>112</ele>
        <time>2015-01-18T08:46:21Z</time>
      </trkpt>
      <trkpt lat="48.6327" lon="-3.3154">
        <ele>112</ele>
        <time>2015-01-18T08:46:21Z</time>
      </trkpt>
      <trkpt lat="48.63265" lon="-3.31534">
        <ele>112</ele>
        <time>2015-01-18T08:46:22Z</time>
      </trkpt>
      <trkpt lat="48.6326" lon="-3.31527">
        <ele>112</ele>
        <time>2015-01-18T08:46:24Z</time>
      </trkpt>
      <trkpt lat="48.63255" lon="-3.31521">
        <ele>112</ele>
        <time>2015-01-18T08:46:24Z</time>
      </trkpt>
      <trkpt lat="48.6325" lon="-3.31515">
        <ele>112</ele>
        <time>2015-01-18T08:46:25Z</time>
      </trkpt>
      <trkpt lat="48.63245" lon="-3.31509">
        <ele>112</ele>
        <time>2015-01-18T08:46:27Z</time>
      </trkpt>
      <trkpt lat="48.63239" lon="-3.31503">
        <ele>112</ele>
        <time>2015-01-18T08:46:27Z</time>
      </trkpt>
      <trkpt lat="48.63234" lon="-3.31497">
        <ele>112</ele>
        <time>2015-01-18T08:46:29Z</time>
      </trkpt>
      <trkpt lat="48.63229" lon="-3.31491">
        <ele>112</ele>
        <time>2015-01-18T08:46:29Z</time>
      </trkpt>
      <trkpt lat="48.63224" lon="-3.31486">
        <ele>112</ele>
        <time>2015-01-18T08:46:30Z</time>
      </trkpt>
      <trkpt lat="48.63218" lon="-3.3148">
        <ele>112</ele>
        <time>2015-01-18T08:46:31Z</time>
      </trkpt>
      <trkpt lat="48.63213" lon="-3.31474">
        <ele>112</ele>
        <time>2015-01-18T08:46:32Z</time>
      </trkpt>
      <trkpt lat="48.63208" lon="-3.31469">
        <ele>112</ele>
        <time>2015-01-18T08:46:34Z</time>
      </trkpt>
      <trkpt lat="48.63203" lon="-3.31463">
        <ele>112</ele>
        <time>2015-01-18T08:46:34Z</time>
      </trkpt>
      <trkpt lat="48.63198" lon="-3.31458">
        <ele>112</ele>
        <time>2015-01-18T08:46:35Z</time>
      </trkpt>
      <trkpt lat="48.63194" lon="-3.31452">
        <ele>112</ele>
        <time>2015-01-18T08:46:36Z</time>
      </trkpt>
      <trkpt lat="48.63189" lon="-3.31447">
        <ele>112</ele>
        <time>2015-01-18T08:46:37Z</time>
      </trkpt>
      <trkpt lat="48.63184" lon="-3.31441">
        <ele>112</ele>
        <time>2015-01-18T08:46:39Z</time>
      </trkpt>
      <trkpt lat="48.63179" lon="-3.31436">
        <ele>112</ele>
        <time>2015-01-18T08:46:39Z</time>
      </trkpt>
      <trkpt lat="48.63174" lon="-3.3143">
        <ele>113</ele>
        <time>2015-01-18T08:46:40Z</time>
      </trkpt>
      <trkpt lat="48.6317" lon="-3.31425">
        <ele>113</ele>
        <time>2015-01-18T08:46:41Z</time>
      </trkpt>
      <trkpt lat="48.63165" lon="-3.31419">
        <ele>113</ele>
        <time>2015-01-18T08:46:42Z</time>
      </trkpt>
      <trkpt lat="48.6316" lon="-3.31413">
        <ele>113</ele>
        <time>2015-01-18T08:46:44Z</time>
      </trkpt>
      <trkpt lat="48.63155" lon="-3.31407">
        <ele>113</ele>
        <time>2015-01-18T08:46:44Z</time>
      </trkpt>
      <trkpt lat="48.6315" lon="-3.31401">
        <ele>113</ele>
        <time>2015-01-18T08:46:45Z</time>
      </trkpt>
      <trkpt lat="48.63146" lon="-3.31395">
        <ele>113</ele>
        <time>2015-01-18T08:46:46Z</time>
      </trkpt>
      <trkpt lat="48.63141" lon="-3.31389">
        <ele>113</ele>
        <time>2015-01-18T08:46:47Z</time>
      </trkpt>
      <trkpt lat="48.63137" lon="-3.31382">
        <ele>113</ele>
        <time>2015-01-18T08:46:49Z</time>
      </trkpt>
      <trkpt lat="48.63132" lon="-3.31375">
        <ele>113</ele>
        <time>2015-01-18T08:46:49Z</time>
      </trkpt>
      <trkpt lat="48.63129" lon="-3.31368">
        <ele>113</ele>
        <time>2015-01-18T08:46:50Z</time>
      </trkpt>
      <trkpt lat="48.63125" lon="-3.3136">
        <ele>113</ele>
        <time>2015-01-18T08:46:51Z</time>
      </trkpt>
      <trkpt lat="48.63122" lon="-3.31351">
        <ele>113</ele>
        <time>2015-01-18T08:46:52Z</time>
      </trkpt>
      <trkpt lat="48.63119" lon="-3.31342">
        <ele>113</ele>
        <time>2015-01-18T08:46:54Z</time>
      </trkpt>
      <trkpt lat="48.63117" lon="-3.31333">
        <ele>113</ele>
        <time>2015-01-18T08:46:54Z</time>
      </trkpt>
      <trkpt lat="48.63115" lon="-3.31324">
        <ele>113</ele>
        <time>2015-01-18T08:46:55Z</time>
      </trkpt>
      <trkpt lat="48.63114" lon="-3.31314">
        <ele>113</ele>
        <time>2015-01-18T08:46:56Z</time>
      </trkpt>
      <trkpt lat="48.63112" lon="-3.31304">
        <ele>113</ele>
        <time>2015-01-18T08:46:57Z</time>
      </trkpt>
      <trkpt lat="48.63111" lon="-3.31295">
        <ele>113</ele>
        <time>2015-01-18T08:46:59Z</time>
      </trkpt>
      <trkpt lat="48.6311" lon="-3.31286">
        <ele>113</ele>
        <time>2015-01-18T08:46:59Z</time>
      </trkpt>
      <trkpt lat="48.63109" lon="-3.31277">
        <ele>113</ele>
        <time>2015-01-18T08:47:00Z</time>
      </trkpt>
      <trkpt lat="48.63108" lon="-3.31268">
        <ele>113</ele>
        <time>2015-01-18T08:47:01Z</time>
      </trkpt>
      <trkpt lat="48.63107" lon="-3.31259">
        <ele>113</ele>
        <time>2015-01-18T08:47:02Z</time>
      </trkpt>
      <trkpt lat="48.63106" lon="-3.3125">
        <ele>113</ele>
        <time>2015-01-18T08:47:04Z</time>
      </trkpt>
      <trkpt lat="48.63105" lon="-3.31241">
        <ele>114</ele>
        <time>2015-01-18T08:47:04Z</time>
      </trkpt>
      <trkpt lat="48.63103" lon="-3.31232">
        <ele>114</ele>
        <time>2015-01-18T08:47:05Z</time>
      </trkpt>
      <trkpt lat="48.63102" lon="-3.31223">
        <ele>114</ele>
        <time>2015-01-18T08:47:06Z</time>
      </trkpt>
      <trkpt lat="48.63102" lon="-3.31213">
        <ele>114</ele>
        <time>2015-01-18T08:47:07Z</time>
      </trkpt>
      <trkpt lat="48.63101" lon="-3.31203">
        <ele>114</ele>
        <time>2015-01-18T08:47:09Z</time>
      </trkpt>
      <trkpt lat="48.631" lon="-3.31193">
        <ele>114</ele>
        <time>2015-01-18T08:47:09Z</time>
      </trkpt>
      <trkpt lat="48.631" lon="-3.31184">
        <ele>114</ele>
        <time>2015-01-18T08:47:10Z</time>
      </trkpt>
      <trkpt lat="48.631" lon="-3.31174">
        <ele>114</ele>
        <time>2015-01-18T08:47:11Z</time>
      </trkpt>
      <trkpt lat="48.63101" lon="-3.31164">
        <ele>114</ele>
        <time>2015-01-18T08:47:12Z</time>
      </trkpt>
      <trkpt lat="48.63102" lon="-3.31154">
        <ele>114</ele>
        <time>2015-01-18T08:47:14Z</time>
      </trkpt>
      <trkpt lat="48.63104" lon="-3.31144">
        <ele>114</ele>
        <time>2015-01-18T08:47:14Z</time>
      </trkpt>
      <trkpt lat="48.63106" lon="-3.31134">
        <ele>114</ele>
        <time>2015-01-18T08:47:15Z</time>
      </trkpt>
      <trkpt lat="48.63108" lon="-3.31124">
        <ele>114</ele>
        <time>2015-01-18T08:47:16Z</time>
      </trkpt>
      <trkpt lat="48.63111" lon="-3.31115">
        <ele>114</ele>
        <time>2015-01-18T08:47:17Z</time>
      </trkpt>
      <trkpt lat="48.63113" lon="-3.31106">
        <ele>114</ele>
        <time>2015-01-18T08:47:19Z</time>
      </trkpt>
      <trkpt lat="48.63116" lon="-3.31097">
        <ele>114</ele>
        <time>2015-01-18T08:47:19Z</time>
      </trkpt>
      <trkpt lat="48.63119" lon="-3.31089">
        <ele>114</ele>
        <time>2015-01-18T08:47:20Z</time>
      </trkpt>
      <trkpt lat="48.63122" lon="-3.3108">
        <ele>114</ele>
        <time>2015-01-18T08:47:21Z</time>
      </trkpt>
      <trkpt lat="48.63124" lon="-3.31072">
        <ele>114</ele>
        <time>2015-01-18T08:47:22Z</time>
      </trkpt>
      <trkpt lat="48.63127" lon="-3.31063">
        <ele>114</ele>
        <time>2015-01-18T08:47:24Z</time>
      </trkpt>
      <trkpt lat="48.63129" lon="-3.31055">
        <ele>114</ele>
        <time>2015-01-18T08:47:24Z</time>
      </trkpt>
      <trkpt lat="48.63132" lon="-3.31047">
        <ele>114</ele>
        <time>2015-01-18T08:47:25Z</time>
      </trkpt>
      <trkpt lat="48.63135" lon="-3.31039">
        <ele>114</ele>
        <time>2015-01-18T08:47:26Z</time>
      </trkpt>
      <trkpt lat="48.63137" lon="-3.31031">
        <ele>114</ele>
        <time>2015-01-18T08:47:27Z</time>
      </trkpt>
      <trkpt lat="48.63139" lon="-3.31023">
        <ele>114</ele>
        <time>2015-01-18T08:47:29Z</time>
      </trkpt>
      <trkpt lat="48.63142" lon="-3.31016">
        <ele>114</ele>
        <time>2015-01-18T08:47:29Z</time>
      </trkpt>
      <trkpt lat="48.63144" lon="-3.3101">
        <ele>114</ele>
        <time>2015-01-18T08:47:30Z</time>
      </trkpt>
      <trkpt lat="48.63145" lon="-3.31003">
        <ele>114</ele>
        <time>2015-01-18T08:47:31Z</time>
      </trkpt>
      <trkpt lat="48.63147" lon="-3.30997">
        <ele>114</ele>
        <time>2015-01-18T08:47:32Z</time>
      </trkpt>
      <trkpt lat="48.63148" lon="-3.30992">
        <ele>114</ele>
        <time>2015-01-18T08:47:34Z</time>
      </trkpt>
      <trkpt lat="48.63149" lon="-3.30986">
        <ele>114</ele>
        <time>2015-01-18T08:47:34Z</time>
      </trkpt>
      <trkpt lat="48.63148" lon="-3.30971">
        <ele>115</ele>
        <time>2015-01-18T08:47:37Z</time>
      </trkpt>
      <trkpt lat="48.63149" lon="-3.30949">
        <ele>116</ele>
        <time>2015-01-18T08:47:41Z</time>
      </trkpt>
      <trkpt lat="48.63149" lon="-3.30943">
        <ele>116</ele>
        <time>2015-01-18T08:47:42Z</time>
      </trkpt>
      <trkpt lat="48.63149" lon="-3.30936">
        <ele>116</ele>
        <time>2015-01-18T08:47:44Z</time>
      </trkpt>
      <trkpt lat="48.6315" lon="-3.30923">
        <ele>116</ele>
        <time>2015-01-18T08:47:45Z</time>
      </trkpt>
      <trkpt lat="48.63149" lon="-3.30902">
        <ele>117</ele>
        <time>2015-01-18T08:47:49Z</time>
      </trkpt>
      <trkpt lat="48.63149" lon="-3.30895">
        <ele>117</ele>
        <time>2015-01-18T08:47:49Z</time>
      </trkpt>
      <trkpt lat="48.63148" lon="-3.30888">
        <ele>117</ele>
        <time>2015-01-18T08:47:50Z</time>
      </trkpt>
      <trkpt lat="48.63148" lon="-3.3088">
        <ele>118</ele>
        <time>2015-01-18T08:47:51Z</time>
      </trkpt>
      <trkpt lat="48.63147" lon="-3.30873">
        <ele>118</ele>
        <time>2015-01-18T08:47:52Z</time>
      </trkpt>
      <trkpt lat="48.63147" lon="-3.30865">
        <ele>118</ele>
        <time>2015-01-18T08:47:54Z</time>
      </trkpt>
      <trkpt lat="48.63146" lon="-3.30857">
        <ele>118</ele>
        <time>2015-01-18T08:47:55Z</time>
      </trkpt>
      <trkpt lat="48.63145" lon="-3.30849">
        <ele>119</ele>
        <time>2015-01-18T08:47:55Z</time>
      </trkpt>
      <trkpt lat="48.63145" lon="-3.30841">
        <ele>119</ele>
        <time>2015-01-18T08:47:56Z</time>
      </trkpt>
      <trkpt lat="48.63145" lon="-3.30834">
        <ele>119</ele>
        <time>2015-01-18T08:47:57Z</time>
      </trkpt>
      <trkpt lat="48.63144" lon="-3.30818">
        <ele>120</ele>
        <time>2015-01-18T08:47:59Z</time>
      </trkpt>
      <trkpt lat="48.63144" lon="-3.30811">
        <ele>120</ele>
        <time>2015-01-18T08:48:00Z</time>
      </trkpt>
      <trkpt lat="48.63143" lon="-3.30803">
        <ele>120</ele>
        <time>2015-01-18T08:48:01Z</time>
      </trkpt>
      <trkpt lat="48.63143" lon="-3.30795">
        <ele>120</ele>
        <time>2015-01-18T08:48:02Z</time>
      </trkpt>
      <trkpt lat="48.63142" lon="-3.30787">
        <ele>121</ele>
        <time>2015-01-18T08:48:04Z</time>
      </trkpt>
      <trkpt lat="48.63142" lon="-3.30779">
        <ele>121</ele>
        <time>2015-01-18T08:48:04Z</time>
      </trkpt>
      <trkpt lat="48.63141" lon="-3.30771">
        <ele>121</ele>
        <time>2015-01-18T08:48:05Z</time>
      </trkpt>
      <trkpt lat="48.6314" lon="-3.30756">
        <ele>121</ele>
        <time>2015-01-18T08:48:07Z</time>
      </trkpt>
      <trkpt lat="48.6314" lon="-3.30748">
        <ele>121</ele>
        <time>2015-01-18T08:48:09Z</time>
      </trkpt>
      <trkpt lat="48.63139" lon="-3.30741">
        <ele>121</ele>
        <time>2015-01-18T08:48:09Z</time>
      </trkpt>
      <trkpt lat="48.63139" lon="-3.30734">
        <ele>122</ele>
        <time>2015-01-18T08:48:10Z</time>
      </trkpt>
      <trkpt lat="48.63138" lon="-3.30726">
        <ele>122</ele>
        <time>2015-01-18T08:48:11Z</time>
      </trkpt>
      <trkpt lat="48.63137" lon="-3.30719">
        <ele>122</ele>
        <time>2015-01-18T08:48:12Z</time>
      </trkpt>
      <trkpt lat="48.63137" lon="-3.30711">
        <ele>122</ele>
        <time>2015-01-18T08:48:14Z</time>
      </trkpt>
      <trkpt lat="48.63137" lon="-3.30703">
        <ele>123</ele>
        <time>2015-01-18T08:48:14Z</time>
      </trkpt>
      <trkpt lat="48.63136" lon="-3.30695">
        <ele>123</ele>
        <time>2015-01-18T08:48:15Z</time>
      </trkpt>
      <trkpt lat="48.63135" lon="-3.30687">
        <ele>123</ele>
        <time>2015-01-18T08:48:16Z</time>
      </trkpt>
      <trkpt lat="48.63135" lon="-3.30679">
        <ele>123</ele>
        <time>2015-01-18T08:48:17Z</time>
      </trkpt>
      <trkpt lat="48.63134" lon="-3.30671">
        <ele>123</ele>
        <time>2015-01-18T08:48:19Z</time>
      </trkpt>
      <trkpt lat="48.63134" lon="-3.30662">
        <ele>124</ele>
        <time>2015-01-18T08:48:19Z</time>
      </trkpt>
      <trkpt lat="48.63133" lon="-3.30654">
        <ele>124</ele>
        <time>2015-01-18T08:48:20Z</time>
      </trkpt>
      <trkpt lat="48.63132" lon="-3.30646">
        <ele>124</ele>
        <time>2015-01-18T08:48:21Z</time>
      </trkpt>
      <trkpt lat="48.63132" lon="-3.30638">
        <ele>124</ele>
        <time>2015-01-18T08:48:22Z</time>
      </trkpt>
      <trkpt lat="48.63131" lon="-3.30629">
        <ele>124</ele>
        <time>2015-01-18T08:48:24Z</time>
      </trkpt>
      <trkpt lat="48.63131" lon="-3.30621">
        <ele>124</ele>
        <time>2015-01-18T08:48:24Z</time>
      </trkpt>
      <trkpt lat="48.6313" lon="-3.30612">
        <ele>124</ele>
        <time>2015-01-18T08:48:25Z</time>
      </trkpt>
      <trkpt lat="48.63129" lon="-3.30603">
        <ele>125</ele>
        <time>2015-01-18T08:48:26Z</time>
      </trkpt>
      <trkpt lat="48.63129" lon="-3.30595">
        <ele>125</ele>
        <time>2015-01-18T08:48:27Z</time>
      </trkpt>
      <trkpt lat="48.63128" lon="-3.30586">
        <ele>125</ele>
        <time>2015-01-18T08:48:29Z</time>
      </trkpt>
      <trkpt lat="48.63128" lon="-3.30576">
        <ele>125</ele>
        <time>2015-01-18T08:48:29Z</time>
      </trkpt>
      <trkpt lat="48.63127" lon="-3.30567">
        <ele>125</ele>
        <time>2015-01-18T08:48:30Z</time>
      </trkpt>
      <trkpt lat="48.63126" lon="-3.30557">
        <ele>125</ele>
        <time>2015-01-18T08:48:31Z</time>
      </trkpt>
      <trkpt lat="48.63125" lon="-3.30548">
        <ele>125</ele>
        <time>2015-01-18T08:48:32Z</time>
      </trkpt>
      <trkpt lat="48.63124" lon="-3.30538">
        <ele>125</ele>
        <time>2015-01-18T08:48:34Z</time>
      </trkpt>
      <trkpt lat="48.63124" lon="-3.30528">
        <ele>125</ele>
        <time>2015-01-18T08:48:34Z</time>
      </trkpt>
      <trkpt lat="48.63123" lon="-3.30519">
        <ele>125</ele>
        <time>2015-01-18T08:48:35Z</time>
      </trkpt>
      <trkpt lat="48.63122" lon="-3.3051">
        <ele>125</ele>
        <time>2015-01-18T08:48:36Z</time>
      </trkpt>
      <trkpt lat="48.63121" lon="-3.30501">
        <ele>125</ele>
        <time>2015-01-18T08:48:37Z</time>
      </trkpt>
      <trkpt lat="48.63121" lon="-3.30492">
        <ele>125</ele>
        <time>2015-01-18T08:48:39Z</time>
      </trkpt>
      <trkpt lat="48.6312" lon="-3.30483">
        <ele>125</ele>
        <time>2015-01-18T08:48:39Z</time>
      </trkpt>
      <trkpt lat="48.6312" lon="-3.30475">
        <ele>125</ele>
        <time>2015-01-18T08:48:40Z</time>
      </trkpt>
      <trkpt lat="48.63119" lon="-3.30466">
        <ele>125</ele>
        <time>2015-01-18T08:48:41Z</time>
      </trkpt>
      <trkpt lat="48.63118" lon="-3.30457">
        <ele>125</ele>
        <time>2015-01-18T08:48:42Z</time>
      </trkpt>
      <trkpt lat="48.63118" lon="-3.30449">
        <ele>126</ele>
        <time>2015-01-18T08:48:44Z</time>
      </trkpt>
      <trkpt lat="48.63117" lon="-3.3044">
        <ele>126</ele>
        <time>2015-01-18T08:48:44Z</time>
      </trkpt>
      <trkpt lat="48.63116" lon="-3.30431">
        <ele>126</ele>
        <time>2015-01-18T08:48:45Z</time>
      </trkpt>
      <trkpt lat="48.63116" lon="-3.30422">
        <ele>126</ele>
        <time>2015-01-18T08:48:46Z</time>
      </trkpt>
      <trkpt lat="48.63115" lon="-3.30413">
        <ele>126</ele>
        <time>2015-01-18T08:48:47Z</time>
      </trkpt>
      <trkpt lat="48.63114" lon="-3.30404">
        <ele>126</ele>
        <time>2015-01-18T08:48:49Z</time>
      </trkpt>
      <trkpt lat="48.63113" lon="-3.30394">
        <ele>127</ele>
        <time>2015-01-18T08:48:49Z</time>
      </trkpt>
      <trkpt lat="48.63112" lon="-3.30385">
        <ele>127</ele>
        <time>2015-01-18T08:48:50Z</time>
      </trkpt>
      <trkpt lat="48.63112" lon="-3.30376">
        <ele>127</ele>
        <time>2015-01-18T08:48:51Z</time>
      </trkpt>
      <trkpt lat="48.63111" lon="-3.30366">
        <ele>127</ele>
        <time>2015-01-18T08:48:52Z</time>
      </trkpt>
      <trkpt lat="48.6311" lon="-3.30357">
        <ele>127</ele>
        <time>2015-01-18T08:48:54Z</time>
      </trkpt>
      <trkpt lat="48.6311" lon="-3.30347">
        <ele>128</ele>
        <time>2015-01-18T08:48:54Z</time>
      </trkpt>
      <trkpt lat="48.63109" lon="-3.30338">
        <ele>128</ele>
        <time>2015-01-18T08:48:55Z</time>
      </trkpt>
      <trkpt lat="48.63108" lon="-3.30329">
        <ele>128</ele>
        <time>2015-01-18T08:48:56Z</time>
      </trkpt>
      <trkpt lat="48.63108" lon="-3.3032">
        <ele>128</ele>
        <time>2015-01-18T08:48:57Z</time>
      </trkpt>
      <trkpt lat="48.63107" lon="-3.30311">
        <ele>128</ele>
        <time>2015-01-18T08:48:59Z</time>
      </trkpt>
      <trkpt lat="48.63107" lon="-3.30302">
        <ele>128</ele>
        <time>2015-01-18T08:48:59Z</time>
      </trkpt>
      <trkpt lat="48.63106" lon="-3.30292">
        <ele>129</ele>
        <time>2015-01-18T08:49:00Z</time>
      </trkpt>
      <trkpt lat="48.63105" lon="-3.30283">
        <ele>129</ele>
        <time>2015-01-18T08:49:01Z</time>
      </trkpt>
      <trkpt lat="48.63104" lon="-3.30273">
        <ele>129</ele>
        <time>2015-01-18T08:49:02Z</time>
      </trkpt>
      <trkpt lat="48.63103" lon="-3.30263">
        <ele>129</ele>
        <time>2015-01-18T08:49:04Z</time>
      </trkpt>
      <trkpt lat="48.63103" lon="-3.30253">
        <ele>129</ele>
        <time>2015-01-18T08:49:04Z</time>
      </trkpt>
      <trkpt lat="48.63102" lon="-3.30243">
        <ele>129</ele>
        <time>2015-01-18T08:49:05Z</time>
      </trkpt>
      <trkpt lat="48.63101" lon="-3.30233">
        <ele>130</ele>
        <time>2015-01-18T08:49:06Z</time>
      </trkpt>
      <trkpt lat="48.631" lon="-3.30224">
        <ele>130</ele>
        <time>2015-01-18T08:49:07Z</time>
      </trkpt>
      <trkpt lat="48.631" lon="-3.30214">
        <ele>130</ele>
        <time>2015-01-18T08:49:09Z</time>
      </trkpt>
      <trkpt lat="48.63099" lon="-3.30204">
        <ele>130</ele>
        <time>2015-01-18T08:49:09Z</time>
      </trkpt>
      <trkpt lat="48.63098" lon="-3.30194">
        <ele>130</ele>
        <time>2015-01-18T08:49:10Z</time>
      </trkpt>
      <trkpt lat="48.63097" lon="-3.30185">
        <ele>130</ele>
        <time>2015-01-18T08:49:11Z</time>
      </trkpt>
      <trkpt lat="48.63097" lon="-3.30175">
        <ele>130</ele>
        <time>2015-01-18T08:49:12Z</time>
      </trkpt>
      <trkpt lat="48.63096" lon="-3.30166">
        <ele>131</ele>
        <time>2015-01-18T08:49:14Z</time>
      </trkpt>
      <trkpt lat="48.63095" lon="-3.30157">
        <ele>131</ele>
        <time>2015-01-18T08:49:14Z</time>
      </trkpt>
      <trkpt lat="48.63095" lon="-3.30147">
        <ele>131</ele>
        <time>2015-01-18T08:49:15Z</time>
      </trkpt>
      <trkpt lat="48.63094" lon="-3.30138">
        <ele>131</ele>
        <time>2015-01-18T08:49:16Z</time>
      </trkpt>
      <trkpt lat="48.63093" lon="-3.30129">
        <ele>131</ele>
        <time>2015-01-18T08:49:17Z</time>
      </trkpt>
      <trkpt lat="48.63092" lon="-3.30111">
        <ele>132</ele>
        <time>2015-01-18T08:49:19Z</time>
      </trkpt>
      <trkpt lat="48.63092" lon="-3.30102">
        <ele>132</ele>
        <time>2015-01-18T08:49:20Z</time>
      </trkpt>
      <trkpt lat="48.63091" lon="-3.30093">
        <ele>132</ele>
        <time>2015-01-18T08:49:21Z</time>
      </trkpt>
      <trkpt lat="48.6309" lon="-3.30084">
        <ele>133</ele>
        <time>2015-01-18T08:49:22Z</time>
      </trkpt>
      <trkpt lat="48.63089" lon="-3.30075">
        <ele>133</ele>
        <time>2015-01-18T08:49:24Z</time>
      </trkpt>
      <trkpt lat="48.63089" lon="-3.30066">
        <ele>133</ele>
        <time>2015-01-18T08:49:24Z</time>
      </trkpt>
      <trkpt lat="48.63088" lon="-3.30058">
        <ele>133</ele>
        <time>2015-01-18T08:49:25Z</time>
      </trkpt>
      <trkpt lat="48.63087" lon="-3.30049">
        <ele>133</ele>
        <time>2015-01-18T08:49:26Z</time>
      </trkpt>
      <trkpt lat="48.63086" lon="-3.3004">
        <ele>133</ele>
        <time>2015-01-18T08:49:27Z</time>
      </trkpt>
      <trkpt lat="48.63085" lon="-3.30031">
        <ele>133</ele>
        <time>2015-01-18T08:49:29Z</time>
      </trkpt>
      <trkpt lat="48.63084" lon="-3.30024">
        <ele>133</ele>
        <time>2015-01-18T08:49:29Z</time>
      </trkpt>
      <trkpt lat="48.63084" lon="-3.30016">
        <ele>133</ele>
        <time>2015-01-18T08:49:30Z</time>
      </trkpt>
      <trkpt lat="48.63083" lon="-3.30008">
        <ele>133</ele>
        <time>2015-01-18T08:49:31Z</time>
      </trkpt>
      <trkpt lat="48.63083" lon="-3.30001">
        <ele>133</ele>
        <time>2015-01-18T08:49:32Z</time>
      </trkpt>
      <trkpt lat="48.63084" lon="-3.29987">
        <ele>133</ele>
        <time>2015-01-18T08:49:34Z</time>
      </trkpt>
      <trkpt lat="48.63086" lon="-3.2998">
        <ele>133</ele>
        <time>2015-01-18T08:49:35Z</time>
      </trkpt>
      <trkpt lat="48.6309" lon="-3.29974">
        <ele>133</ele>
        <time>2015-01-18T08:49:36Z</time>
      </trkpt>
      <trkpt lat="48.63095" lon="-3.29968">
        <ele>133</ele>
        <time>2015-01-18T08:49:37Z</time>
      </trkpt>
      <trkpt lat="48.631" lon="-3.29961">
        <ele>133</ele>
        <time>2015-01-18T08:49:38Z</time>
      </trkpt>
      <trkpt lat="48.63106" lon="-3.29955">
        <ele>133</ele>
        <time>2015-01-18T08:49:39Z</time>
      </trkpt>
      <trkpt lat="48.63111" lon="-3.29948">
        <ele>133</ele>
        <time>2015-01-18T08:49:40Z</time>
      </trkpt>
      <trkpt lat="48.63117" lon="-3.29941">
        <ele>133</ele>
        <time>2015-01-18T08:49:41Z</time>
      </trkpt>
      <trkpt lat="48.63124" lon="-3.29934">
        <ele>133</ele>
        <time>2015-01-18T08:49:42Z</time>
      </trkpt>
      <trkpt lat="48.6313" lon="-3.29926">
        <ele>133</ele>
        <time>2015-01-18T08:49:43Z</time>
      </trkpt>
      <trkpt lat="48.63137" lon="-3.29918">
        <ele>133</ele>
        <time>2015-01-18T08:49:44Z</time>
      </trkpt>
      <trkpt lat="48.63144" lon="-3.2991">
        <ele>133</ele>
        <time>2015-01-18T08:49:45Z</time>
      </trkpt>
      <trkpt lat="48.63152" lon="-3.29902">
        <ele>133</ele>
        <time>2015-01-18T08:49:46Z</time>
      </trkpt>
      <trkpt lat="48.63159" lon="-3.29893">
        <ele>133</ele>
        <time>2015-01-18T08:49:47Z</time>
      </trkpt>
      <trkpt lat="48.63167" lon="-3.29884">
        <ele>132</ele>
        <time>2015-01-18T08:49:48Z</time>
      </trkpt>
      <trkpt lat="48.63174" lon="-3.29874">
        <ele>131</ele>
        <time>2015-01-18T08:49:49Z</time>
      </trkpt>
      <trkpt lat="48.63182" lon="-3.29864">
        <ele>131</ele>
        <time>2015-01-18T08:49:50Z</time>
      </trkpt>
      <trkpt lat="48.63191" lon="-3.29854">
        <ele>130</ele>
        <time>2015-01-18T08:49:51Z</time>
      </trkpt>
      <trkpt lat="48.632" lon="-3.29844">
        <ele>129</ele>
        <time>2015-01-18T08:49:52Z</time>
      </trkpt>
      <trkpt lat="48.63208" lon="-3.29834">
        <ele>128</ele>
        <time>2015-01-18T08:49:53Z</time>
      </trkpt>
      <trkpt lat="48.63217" lon="-3.29823">
        <ele>128</ele>
        <time>2015-01-18T08:49:54Z</time>
      </trkpt>
      <trkpt lat="48.63226" lon="-3.29813">
        <ele>127</ele>
        <time>2015-01-18T08:49:55Z</time>
      </trkpt>
      <trkpt lat="48.63235" lon="-3.29802">
        <ele>126</ele>
        <time>2015-01-18T08:49:56Z</time>
      </trkpt>
      <trkpt lat="48.63244" lon="-3.29792">
        <ele>126</ele>
        <time>2015-01-18T08:49:57Z</time>
      </trkpt>
      <trkpt lat="48.63253" lon="-3.29781">
        <ele>125</ele>
        <time>2015-01-18T08:49:58Z</time>
      </trkpt>
      <trkpt lat="48.63262" lon="-3.2977">
        <ele>124</ele>
        <time>2015-01-18T08:49:59Z</time>
      </trkpt>
      <trkpt lat="48.63271" lon="-3.29759">
        <ele>124</ele>
        <time>2015-01-18T08:50:00Z</time>
      </trkpt>
      <trkpt lat="48.63278" lon="-3.29746">
        <ele>123</ele>
        <time>2015-01-18T08:50:01Z</time>
      </trkpt>
      <trkpt lat="48.63284" lon="-3.29732">
        <ele>122</ele>
        <time>2015-01-18T08:50:02Z</time>
      </trkpt>
      <trkpt lat="48.6329" lon="-3.29718">
        <ele>122</ele>
        <time>2015-01-18T08:50:03Z</time>
      </trkpt>
      <trkpt lat="48.63295" lon="-3.29704">
        <ele>122</ele>
        <time>2015-01-18T08:50:04Z</time>
      </trkpt>
      <trkpt lat="48.63299" lon="-3.29689">
        <ele>121</ele>
        <time>2015-01-18T08:50:05Z</time>
      </trkpt>
      <trkpt lat="48.63304" lon="-3.29674">
        <ele>121</ele>
        <time>2015-01-18T08:50:06Z</time>
      </trkpt>
      <trkpt lat="48.63308" lon="-3.29659">
        <ele>121</ele>
        <time>2015-01-18T08:50:07Z</time>
      </trkpt>
      <trkpt lat="48.63313" lon="-3.29644">
        <ele>121</ele>
        <time>2015-01-18T08:50:08Z</time>
      </trkpt>
      <trkpt lat="48.63318" lon="-3.29628">
        <ele>121</ele>
        <time>2015-01-18T08:50:09Z</time>
      </trkpt>
      <trkpt lat="48.63322" lon="-3.29613">
        <ele>120</ele>
        <time>2015-01-18T08:50:10Z</time>
      </trkpt>
      <trkpt lat="48.63327" lon="-3.29598">
        <ele>120</ele>
        <time>2015-01-18T08:50:11Z</time>
      </trkpt>
      <trkpt lat="48.63332" lon="-3.29583">
        <ele>120</ele>
        <time>2015-01-18T08:50:12Z</time>
      </trkpt>
      <trkpt lat="48.63336" lon="-3.29567">
        <ele>120</ele>
        <time>2015-01-18T08:50:13Z</time>
      </trkpt>
      <trkpt lat="48.6334" lon="-3.29552">
        <ele>120</ele>
        <time>2015-01-18T08:50:14Z</time>
      </trkpt>
      <trkpt lat="48.63345" lon="-3.29537">
        <ele>119</ele>
        <time>2015-01-18T08:50:15Z</time>
      </trkpt>
      <trkpt lat="48.6335" lon="-3.29522">
        <ele>119</ele>
        <time>2015-01-18T08:50:16Z</time>
      </trkpt>
      <trkpt lat="48.63354" lon="-3.29507">
        <ele>119</ele>
        <time>2015-01-18T08:50:17Z</time>
      </trkpt>
      <trkpt lat="48.63358" lon="-3.29493">
        <ele>119</ele>
        <time>2015-01-18T08:50:18Z</time>
      </trkpt>
      <trkpt lat="48.63363" lon="-3.29477">
        <ele>118</ele>
        <time>2015-01-18T08:50:19Z</time>
      </trkpt>
      <trkpt lat="48.63367" lon="-3.29462">
        <ele>118</ele>
        <time>2015-01-18T08:50:20Z</time>
      </trkpt>
      <trkpt lat="48.63372" lon="-3.29447">
        <ele>118</ele>
        <time>2015-01-18T08:50:21Z</time>
      </trkpt>
      <trkpt lat="48.63376" lon="-3.29432">
        <ele>118</ele>
        <time>2015-01-18T08:50:22Z</time>
      </trkpt>
      <trkpt lat="48.6338" lon="-3.29417">
        <ele>117</ele>
        <time>2015-01-18T08:50:23Z</time>
      </trkpt>
      <trkpt lat="48.63385" lon="-3.29403">
        <ele>117</ele>
        <time>2015-01-18T08:50:24Z</time>
      </trkpt>
      <trkpt lat="48.63389" lon="-3.2939">
        <ele>117</ele>
        <time>2015-01-18T08:50:25Z</time>
      </trkpt>
      <trkpt lat="48.63393" lon="-3.29376">
        <ele>117</ele>
        <time>2015-01-18T08:50:26Z</time>
      </trkpt>
      <trkpt lat="48.63397" lon="-3.29363">
        <ele>117</ele>
        <time>2015-01-18T08:50:27Z</time>
      </trkpt>
      <trkpt lat="48.63401" lon="-3.29349">
        <ele>117</ele>
        <time>2015-01-18T08:50:28Z</time>
      </trkpt>
      <trkpt lat="48.63406" lon="-3.29336">
        <ele>116</ele>
        <time>2015-01-18T08:50:29Z</time>
      </trkpt>
      <trkpt lat="48.6341" lon="-3.29323">
        <ele>116</ele>
        <time>2015-01-18T08:50:30Z</time>
      </trkpt>
      <trkpt lat="48.63414" lon="-3.29309">
        <ele>116</ele>
        <time>2015-01-18T08:50:31Z</time>
      </trkpt>
      <trkpt lat="48.63418" lon="-3.29296">
        <ele>116</ele>
        <time>2015-01-18T08:50:32Z</time>
      </trkpt>
      <trkpt lat="48.63422" lon="-3.29283">
        <ele>116</ele>
        <time>2015-01-18T08:50:33Z</time>
      </trkpt>
      <trkpt lat="48.63426" lon="-3.2927">
        <ele>116</ele>
        <time>2015-01-18T08:50:34Z</time>
      </trkpt>
      <trkpt lat="48.6343" lon="-3.29257">
        <ele>116</ele>
        <time>2015-01-18T08:50:35Z</time>
      </trkpt>
      <trkpt lat="48.63433" lon="-3.29244">
        <ele>116</ele>
        <time>2015-01-18T08:50:36Z</time>
      </trkpt>
      <trkpt lat="48.63437" lon="-3.29231">
        <ele>116</ele>
        <time>2015-01-18T08:50:37Z</time>
      </trkpt>
      <trkpt lat="48.6344" lon="-3.29218">
        <ele>115</ele>
        <time>2015-01-18T08:50:39Z</time>
      </trkpt>
      <trkpt lat="48.63444" lon="-3.29205">
        <ele>115</ele>
        <time>2015-01-18T08:50:39Z</time>
      </trkpt>
      <trkpt lat="48.63448" lon="-3.29193">
        <ele>115</ele>
        <time>2015-01-18T08:50:40Z</time>
      </trkpt>
      <trkpt lat="48.63451" lon="-3.29182">
        <ele>115</ele>
        <time>2015-01-18T08:50:41Z</time>
      </trkpt>
      <trkpt lat="48.63455" lon="-3.2917">
        <ele>115</ele>
        <time>2015-01-18T08:50:42Z</time>
      </trkpt>
      <trkpt lat="48.63459" lon="-3.29158">
        <ele>115</ele>
        <time>2015-01-18T08:50:43Z</time>
      </trkpt>
      <trkpt lat="48.63463" lon="-3.29146">
        <ele>115</ele>
        <time>2015-01-18T08:50:44Z</time>
      </trkpt>
      <trkpt lat="48.63467" lon="-3.29134">
        <ele>115</ele>
        <time>2015-01-18T08:50:45Z</time>
      </trkpt>
      <trkpt lat="48.63471" lon="-3.29122">
        <ele>115</ele>
        <time>2015-01-18T08:50:46Z</time>
      </trkpt>
      <trkpt lat="48.63476" lon="-3.29112">
        <ele>115</ele>
        <time>2015-01-18T08:50:47Z</time>
      </trkpt>
      <trkpt lat="48.63481" lon="-3.29101">
        <ele>115</ele>
        <time>2015-01-18T08:50:48Z</time>
      </trkpt>
      <trkpt lat="48.63488" lon="-3.29092">
        <ele>115</ele>
        <time>2015-01-18T08:50:49Z</time>
      </trkpt>
      <trkpt lat="48.63495" lon="-3.29083">
        <ele>115</ele>
        <time>2015-01-18T08:50:50Z</time>
      </trkpt>
      <trkpt lat="48.63503" lon="-3.29075">
        <ele>115</ele>
        <time>2015-01-18T08:50:51Z</time>
      </trkpt>
      <trkpt lat="48.6351" lon="-3.29066">
        <ele>115</ele>
        <time>2015-01-18T08:50:52Z</time>
      </trkpt>
      <trkpt lat="48.63518" lon="-3.29058">
        <ele>114</ele>
        <time>2015-01-18T08:50:53Z</time>
      </trkpt>
      <trkpt lat="48.63526" lon="-3.29049">
        <ele>114</ele>
        <time>2015-01-18T08:50:54Z</time>
      </trkpt>
      <trkpt lat="48.63534" lon="-3.29041">
        <ele>114</ele>
        <time>2015-01-18T08:50:55Z</time>
      </trkpt>
      <trkpt lat="48.63542" lon="-3.29032">
        <ele>114</ele>
        <time>2015-01-18T08:50:56Z</time>
      </trkpt>
      <trkpt lat="48.6355" lon="-3.29023">
        <ele>113</ele>
        <time>2015-01-18T08:50:57Z</time>
      </trkpt>
      <trkpt lat="48.63559" lon="-3.29014">
        <ele>113</ele>
        <time>2015-01-18T08:50:58Z</time>
      </trkpt>
      <trkpt lat="48.63567" lon="-3.29005">
        <ele>113</ele>
        <time>2015-01-18T08:50:59Z</time>
      </trkpt>
      <trkpt lat="48.63575" lon="-3.28996">
        <ele>112</ele>
        <time>2015-01-18T08:51:00Z</time>
      </trkpt>
      <trkpt lat="48.63584" lon="-3.28987">
        <ele>112</ele>
        <time>2015-01-18T08:51:01Z</time>
      </trkpt>
      <trkpt lat="48.63593" lon="-3.28977">
        <ele>112</ele>
        <time>2015-01-18T08:51:02Z</time>
      </trkpt>
      <trkpt lat="48.63601" lon="-3.28968">
        <ele>111</ele>
        <time>2015-01-18T08:51:03Z</time>
      </trkpt>
      <trkpt lat="48.6361" lon="-3.28959">
        <ele>111</ele>
        <time>2015-01-18T08:51:04Z</time>
      </trkpt>
      <trkpt lat="48.63619" lon="-3.28949">
        <ele>110</ele>
        <time>2015-01-18T08:51:05Z</time>
      </trkpt>
      <trkpt lat="48.63628" lon="-3.2894">
        <ele>110</ele>
        <time>2015-01-18T08:51:06Z</time>
      </trkpt>
      <trkpt lat="48.63636" lon="-3.28931">
        <ele>110</ele>
        <time>2015-01-18T08:51:07Z</time>
      </trkpt>
      <trkpt lat="48.63645" lon="-3.28921">
        <ele>109</ele>
        <time>2015-01-18T08:51:08Z</time>
      </trkpt>
      <trkpt lat="48.63654" lon="-3.28912">
        <ele>109</ele>
        <time>2015-01-18T08:51:09Z</time>
      </trkpt>
      <trkpt lat="48.63662" lon="-3.28903">
        <ele>109</ele>
        <time>2015-01-18T08:51:10Z</time>
      </trkpt>
      <trkpt lat="48.63671" lon="-3.28893">
        <ele>109</ele>
        <time>2015-01-18T08:51:11Z</time>
      </trkpt>
      <trkpt lat="48.63679" lon="-3.28885">
        <ele>108</ele>
        <time>2015-01-18T08:51:12Z</time>
      </trkpt>
      <trkpt lat="48.63687" lon="-3.28875">
        <ele>108</ele>
        <time>2015-01-18T08:51:13Z</time>
      </trkpt>
      <trkpt lat="48.63696" lon="-3.28867">
        <ele>108</ele>
        <time>2015-01-18T08:51:14Z</time>
      </trkpt>
      <trkpt lat="48.63704" lon="-3.28857">
        <ele>107</ele>
        <time>2015-01-18T08:51:15Z</time>
      </trkpt>
      <trkpt lat="48.63712" lon="-3.28849">
        <ele>107</ele>
        <time>2015-01-18T08:51:16Z</time>
      </trkpt>
      <trkpt lat="48.6372" lon="-3.2884">
        <ele>107</ele>
        <time>2015-01-18T08:51:17Z</time>
      </trkpt>
      <trkpt lat="48.63729" lon="-3.28832">
        <ele>107</ele>
        <time>2015-01-18T08:51:18Z</time>
      </trkpt>
      <trkpt lat="48.63738" lon="-3.28824">
        <ele>106</ele>
        <time>2015-01-18T08:51:19Z</time>
      </trkpt>
      <trkpt lat="48.63747" lon="-3.28818">
        <ele>106</ele>
        <time>2015-01-18T08:51:20Z</time>
      </trkpt>
      <trkpt lat="48.63756" lon="-3.28813">
        <ele>106</ele>
        <time>2015-01-18T08:51:21Z</time>
      </trkpt>
      <trkpt lat="48.63766" lon="-3.2881">
        <ele>106</ele>
        <time>2015-01-18T08:51:22Z</time>
      </trkpt>
      <trkpt lat="48.63776" lon="-3.28807">
        <ele>105</ele>
        <time>2015-01-18T08:51:23Z</time>
      </trkpt>
      <trkpt lat="48.63786" lon="-3.28803">
        <ele>105</ele>
        <time>2015-01-18T08:51:24Z</time>
      </trkpt>
      <trkpt lat="48.63796" lon="-3.28799">
        <ele>105</ele>
        <time>2015-01-18T08:51:25Z</time>
      </trkpt>
      <trkpt lat="48.63806" lon="-3.28793">
        <ele>105</ele>
        <time>2015-01-18T08:51:26Z</time>
      </trkpt>
      <trkpt lat="48.63815" lon="-3.28786">
        <ele>104</ele>
        <time>2015-01-18T08:51:27Z</time>
      </trkpt>
      <trkpt lat="48.63824" lon="-3.28779">
        <ele>104</ele>
        <time>2015-01-18T08:51:28Z</time>
      </trkpt>
      <trkpt lat="48.63834" lon="-3.2877">
        <ele>104</ele>
        <time>2015-01-18T08:51:29Z</time>
      </trkpt>
      <trkpt lat="48.63842" lon="-3.28762">
        <ele>104</ele>
        <time>2015-01-18T08:51:30Z</time>
      </trkpt>
      <trkpt lat="48.63851" lon="-3.28753">
        <ele>104</ele>
        <time>2015-01-18T08:51:31Z</time>
      </trkpt>
      <trkpt lat="48.6386" lon="-3.28744">
        <ele>104</ele>
        <time>2015-01-18T08:51:32Z</time>
      </trkpt>
      <trkpt lat="48.63868" lon="-3.28736">
        <ele>104</ele>
        <time>2015-01-18T08:51:33Z</time>
      </trkpt>
      <trkpt lat="48.63876" lon="-3.28728">
        <ele>104</ele>
        <time>2015-01-18T08:51:34Z</time>
      </trkpt>
      <trkpt lat="48.63885" lon="-3.28719">
        <ele>104</ele>
        <time>2015-01-18T08:51:35Z</time>
      </trkpt>
      <trkpt lat="48.63893" lon="-3.28711">
        <ele>104</ele>
        <time>2015-01-18T08:51:36Z</time>
      </trkpt>
      <trkpt lat="48.63901" lon="-3.28703">
        <ele>104</ele>
        <time>2015-01-18T08:51:37Z</time>
      </trkpt>
      <trkpt lat="48.63909" lon="-3.28695">
        <ele>104</ele>
        <time>2015-01-18T08:51:38Z</time>
      </trkpt>
      <trkpt lat="48.63917" lon="-3.28687">
        <ele>104</ele>
        <time>2015-01-18T08:51:39Z</time>
      </trkpt>
      <trkpt lat="48.63925" lon="-3.28678">
        <ele>103</ele>
        <time>2015-01-18T08:51:40Z</time>
      </trkpt>
      <trkpt lat="48.63932" lon="-3.2867">
        <ele>103</ele>
        <time>2015-01-18T08:51:41Z</time>
      </trkpt>
      <trkpt lat="48.6394" lon="-3.28662">
        <ele>103</ele>
        <time>2015-01-18T08:51:42Z</time>
      </trkpt>
      <trkpt lat="48.63948" lon="-3.28653">
        <ele>103</ele>
        <time>2015-01-18T08:51:43Z</time>
      </trkpt>
      <trkpt lat="48.63955" lon="-3.28644">
        <ele>103</ele>
        <time>2015-01-18T08:51:44Z</time>
      </trkpt>
      <trkpt lat="48.63962" lon="-3.28636">
        <ele>103</ele>
        <time>2015-01-18T08:51:45Z</time>
      </trkpt>
      <trkpt lat="48.63969" lon="-3.28626">
        <ele>103</ele>
        <time>2015-01-18T08:51:46Z</time>
      </trkpt>
      <trkpt lat="48.63975" lon="-3.28617">
        <ele>103</ele>
        <time>2015-01-18T08:51:47Z</time>
      </trkpt>
      <trkpt lat="48.63981" lon="-3.28606">
        <ele>103</ele>
        <time>2015-01-18T08:51:48Z</time>
      </trkpt>
      <trkpt lat="48.63986" lon="-3.28595">
        <ele>103</ele>
        <time>2015-01-18T08:51:49Z</time>
      </trkpt>
      <trkpt lat="48.63991" lon="-3.28583">
        <ele>103</ele>
        <time>2015-01-18T08:51:50Z</time>
      </trkpt>
      <trkpt lat="48.63996" lon="-3.28572">
        <ele>103</ele>
        <time>2015-01-18T08:51:51Z</time>
      </trkpt>
      <trkpt lat="48.64001" lon="-3.28561">
        <ele>102</ele>
        <time>2015-01-18T08:51:52Z</time>
      </trkpt>
      <trkpt lat="48.64007" lon="-3.2855">
        <ele>102</ele>
        <time>2015-01-18T08:51:53Z</time>
      </trkpt>
      <trkpt lat="48.64013" lon="-3.2854">
        <ele>102</ele>
        <time>2015-01-18T08:51:54Z</time>
      </trkpt>
      <trkpt lat="48.64021" lon="-3.28531">
        <ele>102</ele>
        <time>2015-01-18T08:51:55Z</time>
      </trkpt>
      <trkpt lat="48.64029" lon="-3.28524">
        <ele>102</ele>
        <time>2015-01-18T08:51:56Z</time>
      </trkpt>
      <trkpt lat="48.64038" lon="-3.28519">
        <ele>102</ele>
        <time>2015-01-18T08:51:57Z</time>
      </trkpt>
      <trkpt lat="48.64047" lon="-3.28516">
        <ele>102</ele>
        <time>2015-01-18T08:51:58Z</time>
      </trkpt>
      <trkpt lat="48.64056" lon="-3.28515">
        <ele>102</ele>
        <time>2015-01-18T08:51:59Z</time>
      </trkpt>
      <trkpt lat="48.64066" lon="-3.28516">
        <ele>102</ele>
        <time>2015-01-18T08:52:00Z</time>
      </trkpt>
      <trkpt lat="48.64075" lon="-3.28519">
        <ele>101</ele>
        <time>2015-01-18T08:52:01Z</time>
      </trkpt>
      <trkpt lat="48.64083" lon="-3.28523">
        <ele>101</ele>
        <time>2015-01-18T08:52:02Z</time>
      </trkpt>
      <trkpt lat="48.64092" lon="-3.28528">
        <ele>101</ele>
        <time>2015-01-18T08:52:03Z</time>
      </trkpt>
      <trkpt lat="48.641" lon="-3.28533">
        <ele>101</ele>
        <time>2015-01-18T08:52:04Z</time>
      </trkpt>
      <trkpt lat="48.64108" lon="-3.28538">
        <ele>101</ele>
        <time>2015-01-18T08:52:05Z</time>
      </trkpt>
      <trkpt lat="48.64115" lon="-3.28542">
        <ele>101</ele>
        <time>2015-01-18T08:52:06Z</time>
      </trkpt>
      <trkpt lat="48.64122" lon="-3.28547">
        <ele>101</ele>
        <time>2015-01-18T08:52:07Z</time>
      </trkpt>
      <trkpt lat="48.64128" lon="-3.28551">
        <ele>101</ele>
        <time>2015-01-18T08:52:08Z</time>
      </trkpt>
      <trkpt lat="48.64135" lon="-3.28555">
        <ele>101</ele>
        <time>2015-01-18T08:52:09Z</time>
      </trkpt>
      <trkpt lat="48.64141" lon="-3.28559">
        <ele>101</ele>
        <time>2015-01-18T08:52:10Z</time>
      </trkpt>
      <trkpt lat="48.64148" lon="-3.28562">
        <ele>101</ele>
        <time>2015-01-18T08:52:11Z</time>
      </trkpt>
      <trkpt lat="48.64154" lon="-3.28566">
        <ele>101</ele>
        <time>2015-01-18T08:52:12Z</time>
      </trkpt>
      <trkpt lat="48.64161" lon="-3.28568">
        <ele>101</ele>
        <time>2015-01-18T08:52:13Z</time>
      </trkpt>
      <trkpt lat="48.64167" lon="-3.2857">
        <ele>101</ele>
        <time>2015-01-18T08:52:14Z</time>
      </trkpt>
      <trkpt lat="48.64174" lon="-3.28572">
        <ele>101</ele>
        <time>2015-01-18T08:52:15Z</time>
      </trkpt>
      <trkpt lat="48.6418" lon="-3.28573">
        <ele>101</ele>
        <time>2015-01-18T08:52:16Z</time>
      </trkpt>
      <trkpt lat="48.64186" lon="-3.28573">
        <ele>101</ele>
        <time>2015-01-18T08:52:17Z</time>
      </trkpt>
      <trkpt lat="48.64192" lon="-3.28573">
        <ele>101</ele>
        <time>2015-01-18T08:52:18Z</time>
      </trkpt>
      <trkpt lat="48.64203" lon="-3.28573">
        <ele>101</ele>
        <time>2015-01-18T08:52:20Z</time>
      </trkpt>
      <trkpt lat="48.64208" lon="-3.28572">
        <ele>101</ele>
        <time>2015-01-18T08:52:21Z</time>
      </trkpt>
      <trkpt lat="48.64213" lon="-3.28571">
        <ele>101</ele>
        <time>2015-01-18T08:52:22Z</time>
      </trkpt>
      <trkpt lat="48.64219" lon="-3.28569">
        <ele>101</ele>
        <time>2015-01-18T08:52:23Z</time>
      </trkpt>
      <trkpt lat="48.64224" lon="-3.28569">
        <ele>101</ele>
        <time>2015-01-18T08:52:24Z</time>
      </trkpt>
      <trkpt lat="48.64229" lon="-3.28571">
        <ele>101</ele>
        <time>2015-01-18T08:52:25Z</time>
      </trkpt>
      <trkpt lat="48.64234" lon="-3.28575">
        <ele>101</ele>
        <time>2015-01-18T08:52:26Z</time>
      </trkpt>
      <trkpt lat="48.64239" lon="-3.28581">
        <ele>101</ele>
        <time>2015-01-18T08:52:27Z</time>
      </trkpt>
      <trkpt lat="48.64245" lon="-3.28587">
        <ele>101</ele>
        <time>2015-01-18T08:52:28Z</time>
      </trkpt>
      <trkpt lat="48.64251" lon="-3.28592">
        <ele>101</ele>
        <time>2015-01-18T08:52:29Z</time>
      </trkpt>
      <trkpt lat="48.64258" lon="-3.28598">
        <ele>101</ele>
        <time>2015-01-18T08:52:30Z</time>
      </trkpt>
      <trkpt lat="48.64266" lon="-3.28603">
        <ele>101</ele>
        <time>2015-01-18T08:52:31Z</time>
      </trkpt>
      <trkpt lat="48.64274" lon="-3.28608">
        <ele>101</ele>
        <time>2015-01-18T08:52:32Z</time>
      </trkpt>
      <trkpt lat="48.64282" lon="-3.28614">
        <ele>101</ele>
        <time>2015-01-18T08:52:33Z</time>
      </trkpt>
      <trkpt lat="48.64289" lon="-3.2862">
        <ele>101</ele>
        <time>2015-01-18T08:52:34Z</time>
      </trkpt>
      <trkpt lat="48.64297" lon="-3.28625">
        <ele>101</ele>
        <time>2015-01-18T08:52:35Z</time>
      </trkpt>
      <trkpt lat="48.64305" lon="-3.28631">
        <ele>101</ele>
        <time>2015-01-18T08:52:36Z</time>
      </trkpt>
      <trkpt lat="48.64313" lon="-3.28636">
        <ele>101</ele>
        <time>2015-01-18T08:52:37Z</time>
      </trkpt>
      <trkpt lat="48.64321" lon="-3.28642">
        <ele>101</ele>
        <time>2015-01-18T08:52:38Z</time>
      </trkpt>
      <trkpt lat="48.64328" lon="-3.28647">
        <ele>101</ele>
        <time>2015-01-18T08:52:39Z</time>
      </trkpt>
      <trkpt lat="48.64336" lon="-3.28652">
        <ele>101</ele>
        <time>2015-01-18T08:52:40Z</time>
      </trkpt>
      <trkpt lat="48.64344" lon="-3.28658">
        <ele>100</ele>
        <time>2015-01-18T08:52:41Z</time>
      </trkpt>
      <trkpt lat="48.64352" lon="-3.28662">
        <ele>100</ele>
        <time>2015-01-18T08:52:42Z</time>
      </trkpt>
      <trkpt lat="48.64359" lon="-3.28668">
        <ele>100</ele>
        <time>2015-01-18T08:52:43Z</time>
      </trkpt>
      <trkpt lat="48.64367" lon="-3.28672">
        <ele>100</ele>
        <time>2015-01-18T08:52:44Z</time>
      </trkpt>
      <trkpt lat="48.64374" lon="-3.28676">
        <ele>100</ele>
        <time>2015-01-18T08:52:45Z</time>
      </trkpt>
      <trkpt lat="48.64382" lon="-3.28679">
        <ele>100</ele>
        <time>2015-01-18T08:52:46Z</time>
      </trkpt>
      <trkpt lat="48.64389" lon="-3.28682">
        <ele>100</ele>
        <time>2015-01-18T08:52:47Z</time>
      </trkpt>
      <trkpt lat="48.64397" lon="-3.28683">
        <ele>100</ele>
        <time>2015-01-18T08:52:48Z</time>
      </trkpt>
      <trkpt lat="48.64405" lon="-3.28684">
        <ele>100</ele>
        <time>2015-01-18T08:52:49Z</time>
      </trkpt>
      <trkpt lat="48.64413" lon="-3.28683">
        <ele>100</ele>
        <time>2015-01-18T08:52:50Z</time>
      </trkpt>
      <trkpt lat="48.64421" lon="-3.28683">
        <ele>100</ele>
        <time>2015-01-18T08:52:51Z</time>
      </trkpt>
      <trkpt lat="48.64429" lon="-3.28682">
        <ele>100</ele>
        <time>2015-01-18T08:52:52Z</time>
      </trkpt>
      <trkpt lat="48.64437" lon="-3.28682">
        <ele>100</ele>
        <time>2015-01-18T08:52:53Z</time>
      </trkpt>
      <trkpt lat="48.64445" lon="-3.28682">
        <ele>100</ele>
        <time>2015-01-18T08:52:54Z</time>
      </trkpt>
      <trkpt lat="48.64453" lon="-3.28682">
        <ele>100</ele>
        <time>2015-01-18T08:52:55Z</time>
      </trkpt>
      <trkpt lat="48.64462" lon="-3.28683">
        <ele>100</ele>
        <time>2015-01-18T08:52:56Z</time>
      </trkpt>
      <trkpt lat="48.6447" lon="-3.28683">
        <ele>99</ele>
        <time>2015-01-18T08:52:57Z</time>
      </trkpt>
      <trkpt lat="48.64478" lon="-3.28683">
        <ele>99</ele>
        <time>2015-01-18T08:52:58Z</time>
      </trkpt>
      <trkpt lat="48.64487" lon="-3.28682">
        <ele>99</ele>
        <time>2015-01-18T08:52:59Z</time>
      </trkpt>
      <trkpt lat="48.64495" lon="-3.28682">
        <ele>99</ele>
        <time>2015-01-18T08:53:00Z</time>
      </trkpt>
      <trkpt lat="48.64513" lon="-3.28682">
        <ele>99</ele>
        <time>2015-01-18T08:53:02Z</time>
      </trkpt>
      <trkpt lat="48.64521" lon="-3.28683">
        <ele>98</ele>
        <time>2015-01-18T08:53:03Z</time>
      </trkpt>
      <trkpt lat="48.6453" lon="-3.28683">
        <ele>98</ele>
        <time>2015-01-18T08:53:04Z</time>
      </trkpt>
      <trkpt lat="48.64539" lon="-3.28684">
        <ele>98</ele>
        <time>2015-01-18T08:53:05Z</time>
      </trkpt>
      <trkpt lat="48.64547" lon="-3.28685">
        <ele>98</ele>
        <time>2015-01-18T08:53:06Z</time>
      </trkpt>
      <trkpt lat="48.64556" lon="-3.28686">
        <ele>97</ele>
        <time>2015-01-18T08:53:07Z</time>
      </trkpt>
      <trkpt lat="48.64565" lon="-3.28688">
        <ele>97</ele>
        <time>2015-01-18T08:53:08Z</time>
      </trkpt>
      <trkpt lat="48.64574" lon="-3.28689">
        <ele>97</ele>
        <time>2015-01-18T08:53:09Z</time>
      </trkpt>
      <trkpt lat="48.64583" lon="-3.2869">
        <ele>97</ele>
        <time>2015-01-18T08:53:10Z</time>
      </trkpt>
      <trkpt lat="48.64592" lon="-3.28692">
        <ele>96</ele>
        <time>2015-01-18T08:53:11Z</time>
      </trkpt>
      <trkpt lat="48.64602" lon="-3.28693">
        <ele>96</ele>
        <time>2015-01-18T08:53:12Z</time>
      </trkpt>
      <trkpt lat="48.64611" lon="-3.28695">
        <ele>96</ele>
        <time>2015-01-18T08:53:13Z</time>
      </trkpt>
      <trkpt lat="48.64621" lon="-3.28696">
        <ele>95</ele>
        <time>2015-01-18T08:53:14Z</time>
      </trkpt>
      <trkpt lat="48.64631" lon="-3.28698">
        <ele>95</ele>
        <time>2015-01-18T08:53:15Z</time>
      </trkpt>
      <trkpt lat="48.64641" lon="-3.287">
        <ele>94</ele>
        <time>2015-01-18T08:53:16Z</time>
      </trkpt>
      <trkpt lat="48.6465" lon="-3.28702">
        <ele>94</ele>
        <time>2015-01-18T08:53:17Z</time>
      </trkpt>
      <trkpt lat="48.6466" lon="-3.28704">
        <ele>94</ele>
        <time>2015-01-18T08:53:18Z</time>
      </trkpt>
      <trkpt lat="48.64669" lon="-3.28706">
        <ele>93</ele>
        <time>2015-01-18T08:53:19Z</time>
      </trkpt>
      <trkpt lat="48.64678" lon="-3.28707">
        <ele>93</ele>
        <time>2015-01-18T08:53:20Z</time>
      </trkpt>
      <trkpt lat="48.64688" lon="-3.2871">
        <ele>93</ele>
        <time>2015-01-18T08:53:21Z</time>
      </trkpt>
      <trkpt lat="48.64697" lon="-3.28712">
        <ele>93</ele>
        <time>2015-01-18T08:53:22Z</time>
      </trkpt>
      <trkpt lat="48.64706" lon="-3.28714">
        <ele>92</ele>
        <time>2015-01-18T08:53:23Z</time>
      </trkpt>
      <trkpt lat="48.64716" lon="-3.28716">
        <ele>92</ele>
        <time>2015-01-18T08:53:24Z</time>
      </trkpt>
      <trkpt lat="48.64725" lon="-3.28718">
        <ele>92</ele>
        <time>2015-01-18T08:53:25Z</time>
      </trkpt>
      <trkpt lat="48.64734" lon="-3.2872">
        <ele>92</ele>
        <time>2015-01-18T08:53:26Z</time>
      </trkpt>
      <trkpt lat="48.64743" lon="-3.28723">
        <ele>91</ele>
        <time>2015-01-18T08:53:27Z</time>
      </trkpt>
      <trkpt lat="48.64752" lon="-3.28726">
        <ele>91</ele>
        <time>2015-01-18T08:53:28Z</time>
      </trkpt>
      <trkpt lat="48.64761" lon="-3.28729">
        <ele>91</ele>
        <time>2015-01-18T08:53:29Z</time>
      </trkpt>
      <trkpt lat="48.6477" lon="-3.28734">
        <ele>91</ele>
        <time>2015-01-18T08:53:30Z</time>
      </trkpt>
      <trkpt lat="48.64779" lon="-3.28739">
        <ele>90</ele>
        <time>2015-01-18T08:53:31Z</time>
      </trkpt>
      <trkpt lat="48.64787" lon="-3.28745">
        <ele>90</ele>
        <time>2015-01-18T08:53:32Z</time>
      </trkpt>
      <trkpt lat="48.64794" lon="-3.2875">
        <ele>90</ele>
        <time>2015-01-18T08:53:33Z</time>
      </trkpt>
      <trkpt lat="48.64802" lon="-3.28756">
        <ele>90</ele>
        <time>2015-01-18T08:53:34Z</time>
      </trkpt>
      <trkpt lat="48.64809" lon="-3.28762">
        <ele>90</ele>
        <time>2015-01-18T08:53:35Z</time>
      </trkpt>
      <trkpt lat="48.64817" lon="-3.28767">
        <ele>89</ele>
        <time>2015-01-18T08:53:36Z</time>
      </trkpt>
      <trkpt lat="48.64824" lon="-3.28773">
        <ele>89</ele>
        <time>2015-01-18T08:53:37Z</time>
      </trkpt>
      <trkpt lat="48.64832" lon="-3.28778">
        <ele>89</ele>
        <time>2015-01-18T08:53:38Z</time>
      </trkpt>
      <trkpt lat="48.6484" lon="-3.28784">
        <ele>89</ele>
        <time>2015-01-18T08:53:39Z</time>
      </trkpt>
      <trkpt lat="48.64847" lon="-3.28789">
        <ele>89</ele>
        <time>2015-01-18T08:53:40Z</time>
      </trkpt>
      <trkpt lat="48.64855" lon="-3.28795">
        <ele>89</ele>
        <time>2015-01-18T08:53:41Z</time>
      </trkpt>
      <trkpt lat="48.64862" lon="-3.288">
        <ele>89</ele>
        <time>2015-01-18T08:53:42Z</time>
      </trkpt>
      <trkpt lat="48.6487" lon="-3.28803">
        <ele>89</ele>
        <time>2015-01-18T08:53:43Z</time>
      </trkpt>
      <trkpt lat="48.64878" lon="-3.28804">
        <ele>89</ele>
        <time>2015-01-18T08:53:44Z</time>
      </trkpt>
      <trkpt lat="48.64886" lon="-3.28803">
        <ele>89</ele>
        <time>2015-01-18T08:53:45Z</time>
      </trkpt>
      <trkpt lat="48.64894" lon="-3.28799">
        <ele>89</ele>
        <time>2015-01-18T08:53:46Z</time>
      </trkpt>
      <trkpt lat="48.64901" lon="-3.28794">
        <ele>89</ele>
        <time>2015-01-18T08:53:47Z</time>
      </trkpt>
      <trkpt lat="48.64908" lon="-3.28786">
        <ele>89</ele>
        <time>2015-01-18T08:53:48Z</time>
      </trkpt>
      <trkpt lat="48.64914" lon="-3.28779">
        <ele>89</ele>
        <time>2015-01-18T08:53:49Z</time>
      </trkpt>
      <trkpt lat="48.6492" lon="-3.2877">
        <ele>89</ele>
        <time>2015-01-18T08:53:50Z</time>
      </trkpt>
      <trkpt lat="48.64927" lon="-3.28761">
        <ele>89</ele>
        <time>2015-01-18T08:53:51Z</time>
      </trkpt>
      <trkpt lat="48.64933" lon="-3.28753">
        <ele>89</ele>
        <time>2015-01-18T08:53:52Z</time>
      </trkpt>
      <trkpt lat="48.64939" lon="-3.28746">
        <ele>89</ele>
        <time>2015-01-18T08:53:53Z</time>
      </trkpt>
      <trkpt lat="48.64946" lon="-3.2874">
        <ele>89</ele>
        <time>2015-01-18T08:53:54Z</time>
      </trkpt>
      <trkpt lat="48.64952" lon="-3.28734">
        <ele>89</ele>
        <time>2015-01-18T08:53:55Z</time>
      </trkpt>
      <trkpt lat="48.64959" lon="-3.2873">
        <ele>89</ele>
        <time>2015-01-18T08:53:56Z</time>
      </trkpt>
      <trkpt lat="48.64966" lon="-3.28726">
        <ele>89</ele>
        <time>2015-01-18T08:53:57Z</time>
      </trkpt>
      <trkpt lat="48.64973" lon="-3.28722">
        <ele>89</ele>
        <time>2015-01-18T08:53:58Z</time>
      </trkpt>
      <trkpt lat="48.6498" lon="-3.28718">
        <ele>89</ele>
        <time>2015-01-18T08:53:59Z</time>
      </trkpt>
      <trkpt lat="48.64986" lon="-3.28714">
        <ele>89</ele>
        <time>2015-01-18T08:54:00Z</time>
      </trkpt>
      <trkpt lat="48.64993" lon="-3.28711">
        <ele>89</ele>
        <time>2015-01-18T08:54:01Z</time>
      </trkpt>
      <trkpt lat="48.64999" lon="-3.28708">
        <ele>89</ele>
        <time>2015-01-18T08:54:02Z</time>
      </trkpt>
      <trkpt lat="48.65006" lon="-3.28704">
        <ele>89</ele>
        <time>2015-01-18T08:54:03Z</time>
      </trkpt>
      <trkpt lat="48.65012" lon="-3.28701">
        <ele>89</ele>
        <time>2015-01-18T08:54:04Z</time>
      </trkpt>
      <trkpt lat="48.65019" lon="-3.28697">
        <ele>89</ele>
        <time>2015-01-18T08:54:05Z</time>
      </trkpt>
      <trkpt lat="48.65026" lon="-3.28694">
        <ele>89</ele>
        <time>2015-01-18T08:54:06Z</time>
      </trkpt>
      <trkpt lat="48.65033" lon="-3.28691">
        <ele>89</ele>
        <time>2015-01-18T08:54:07Z</time>
      </trkpt>
      <trkpt lat="48.6504" lon="-3.28688">
        <ele>89</ele>
        <time>2015-01-18T08:54:08Z</time>
      </trkpt>
      <trkpt lat="48.65047" lon="-3.28686">
        <ele>89</ele>
        <time>2015-01-18T08:54:09Z</time>
      </trkpt>
      <trkpt lat="48.65054" lon="-3.28684">
        <ele>89</ele>
        <time>2015-01-18T08:54:10Z</time>
      </trkpt>
      <trkpt lat="48.65062" lon="-3.28683">
        <ele>89</ele>
        <time>2015-01-18T08:54:11Z</time>
      </trkpt>
      <trkpt lat="48.65069" lon="-3.28682">
        <ele>89</ele>
        <time>2015-01-18T08:54:12Z</time>
      </trkpt>
      <trkpt lat="48.65077" lon="-3.28683">
        <ele>89</ele>
        <time>2015-01-18T08:54:13Z</time>
      </trkpt>
      <trkpt lat="48.65085" lon="-3.28684">
        <ele>89</ele>
        <time>2015-01-18T08:54:14Z</time>
      </trkpt>
      <trkpt lat="48.65092" lon="-3.28686">
        <ele>89</ele>
        <time>2015-01-18T08:54:15Z</time>
      </trkpt>
      <trkpt lat="48.651" lon="-3.28689">
        <ele>89</ele>
        <time>2015-01-18T08:54:16Z</time>
      </trkpt>
      <trkpt lat="48.65107" lon="-3.28692">
        <ele>89</ele>
        <time>2015-01-18T08:54:17Z</time>
      </trkpt>
      <trkpt lat="48.65113" lon="-3.28696">
        <ele>89</ele>
        <time>2015-01-18T08:54:18Z</time>
      </trkpt>
      <trkpt lat="48.65119" lon="-3.28701">
        <ele>89</ele>
        <time>2015-01-18T08:54:19Z</time>
      </trkpt>
      <trkpt lat="48.65125" lon="-3.28706">
        <ele>89</ele>
        <time>2015-01-18T08:54:20Z</time>
      </trkpt>
      <trkpt lat="48.65132" lon="-3.28711">
        <ele>89</ele>
        <time>2015-01-18T08:54:21Z</time>
      </trkpt>
      <trkpt lat="48.65139" lon="-3.28716">
        <ele>89</ele>
        <time>2015-01-18T08:54:22Z</time>
      </trkpt>
      <trkpt lat="48.65147" lon="-3.2872">
        <ele>89</ele>
        <time>2015-01-18T08:54:23Z</time>
      </trkpt>
      <trkpt lat="48.65154" lon="-3.28724">
        <ele>89</ele>
        <time>2015-01-18T08:54:24Z</time>
      </trkpt>
      <trkpt lat="48.65162" lon="-3.28727">
        <ele>89</ele>
        <time>2015-01-18T08:54:25Z</time>
      </trkpt>
      <trkpt lat="48.6517" lon="-3.2873">
        <ele>89</ele>
        <time>2015-01-18T08:54:26Z</time>
      </trkpt>
      <trkpt lat="48.65178" lon="-3.28732">
        <ele>89</ele>
        <time>2015-01-18T08:54:27Z</time>
      </trkpt>
      <trkpt lat="48.65186" lon="-3.28736">
        <ele>89</ele>
        <time>2015-01-18T08:54:28Z</time>
      </trkpt>
      <trkpt lat="48.65195" lon="-3.28739">
        <ele>89</ele>
        <time>2015-01-18T08:54:29Z</time>
      </trkpt>
      <trkpt lat="48.65203" lon="-3.28743">
        <ele>89</ele>
        <time>2015-01-18T08:54:30Z</time>
      </trkpt>
      <trkpt lat="48.65211" lon="-3.28746">
        <ele>89</ele>
        <time>2015-01-18T08:54:31Z</time>
      </trkpt>
      <trkpt lat="48.65219" lon="-3.28749">
        <ele>89</ele>
        <time>2015-01-18T08:54:32Z</time>
      </trkpt>
      <trkpt lat="48.65228" lon="-3.28752">
        <ele>89</ele>
        <time>2015-01-18T08:54:33Z</time>
      </trkpt>
      <trkpt lat="48.65236" lon="-3.28754">
        <ele>89</ele>
        <time>2015-01-18T08:54:34Z</time>
      </trkpt>
      <trkpt lat="48.65244" lon="-3.28755">
        <ele>89</ele>
        <time>2015-01-18T08:54:35Z</time>
      </trkpt>
      <trkpt lat="48.65252" lon="-3.28756">
        <ele>89</ele>
        <time>2015-01-18T08:54:36Z</time>
      </trkpt>
      <trkpt lat="48.65259" lon="-3.28758">
        <ele>89</ele>
        <time>2015-01-18T08:54:37Z</time>
      </trkpt>
      <trkpt lat="48.65267" lon="-3.28761">
        <ele>89</ele>
        <time>2015-01-18T08:54:38Z</time>
      </trkpt>
      <trkpt lat="48.65274" lon="-3.28764">
        <ele>89</ele>
        <time>2015-01-18T08:54:39Z</time>
      </trkpt>
      <trkpt lat="48.65281" lon="-3.28769">
        <ele>89</ele>
        <time>2015-01-18T08:54:40Z</time>
      </trkpt>
      <trkpt lat="48.65287" lon="-3.28774">
        <ele>90</ele>
        <time>2015-01-18T08:54:41Z</time>
      </trkpt>
      <trkpt lat="48.65293" lon="-3.28781">
        <ele>90</ele>
        <time>2015-01-18T08:54:42Z</time>
      </trkpt>
      <trkpt lat="48.653" lon="-3.28788">
        <ele>90</ele>
        <time>2015-01-18T08:54:43Z</time>
      </trkpt>
      <trkpt lat="48.65306" lon="-3.28795">
        <ele>91</ele>
        <time>2015-01-18T08:54:44Z</time>
      </trkpt>
      <trkpt lat="48.65313" lon="-3.28802">
        <ele>91</ele>
        <time>2015-01-18T08:54:45Z</time>
      </trkpt>
      <trkpt lat="48.6532" lon="-3.28809">
        <ele>91</ele>
        <time>2015-01-18T08:54:46Z</time>
      </trkpt>
      <trkpt lat="48.65327" lon="-3.28815">
        <ele>91</ele>
        <time>2015-01-18T08:54:47Z</time>
      </trkpt>
      <trkpt lat="48.65335" lon="-3.28822">
        <ele>91</ele>
        <time>2015-01-18T08:54:48Z</time>
      </trkpt>
      <trkpt lat="48.65343" lon="-3.28829">
        <ele>91</ele>
        <time>2015-01-18T08:54:49Z</time>
      </trkpt>
      <trkpt lat="48.65351" lon="-3.28835">
        <ele>91</ele>
        <time>2015-01-18T08:54:50Z</time>
      </trkpt>
      <trkpt lat="48.65359" lon="-3.28841">
        <ele>91</ele>
        <time>2015-01-18T08:54:51Z</time>
      </trkpt>
      <trkpt lat="48.65367" lon="-3.28848">
        <ele>91</ele>
        <time>2015-01-18T08:54:52Z</time>
      </trkpt>
      <trkpt lat="48.65375" lon="-3.28853">
        <ele>91</ele>
        <time>2015-01-18T08:54:53Z</time>
      </trkpt>
      <trkpt lat="48.65384" lon="-3.28858">
        <ele>91</ele>
        <time>2015-01-18T08:54:54Z</time>
      </trkpt>
      <trkpt lat="48.65393" lon="-3.28862">
        <ele>91</ele>
        <time>2015-01-18T08:54:55Z</time>
      </trkpt>
      <trkpt lat="48.65401" lon="-3.28865">
        <ele>91</ele>
        <time>2015-01-18T08:54:56Z</time>
      </trkpt>
      <trkpt lat="48.6541" lon="-3.28867">
        <ele>91</ele>
        <time>2015-01-18T08:54:57Z</time>
      </trkpt>
      <trkpt lat="48.65419" lon="-3.28869">
        <ele>91</ele>
        <time>2015-01-18T08:54:58Z</time>
      </trkpt>
      <trkpt lat="48.65428" lon="-3.28869">
        <ele>91</ele>
        <time>2015-01-18T08:54:59Z</time>
      </trkpt>
      <trkpt lat="48.65437" lon="-3.2887">
        <ele>91</ele>
        <time>2015-01-18T08:55:00Z</time>
      </trkpt>
      <trkpt lat="48.65445" lon="-3.2887">
        <ele>91</ele>
        <time>2015-01-18T08:55:01Z</time>
      </trkpt>
      <trkpt lat="48.65455" lon="-3.28871">
        <ele>91</ele>
        <time>2015-01-18T08:55:02Z</time>
      </trkpt>
      <trkpt lat="48.65464" lon="-3.28872">
        <ele>91</ele>
        <time>2015-01-18T08:55:03Z</time>
      </trkpt>
      <trkpt lat="48.65472" lon="-3.28874">
        <ele>91</ele>
        <time>2015-01-18T08:55:04Z</time>
      </trkpt>
      <trkpt lat="48.65481" lon="-3.28876">
        <ele>91</ele>
        <time>2015-01-18T08:55:05Z</time>
      </trkpt>
      <trkpt lat="48.6549" lon="-3.28879">
        <ele>91</ele>
        <time>2015-01-18T08:55:06Z</time>
      </trkpt>
      <trkpt lat="48.65498" lon="-3.28881">
        <ele>91</ele>
        <time>2015-01-18T08:55:07Z</time>
      </trkpt>
      <trkpt lat="48.65506" lon="-3.28883">
        <ele>91</ele>
        <time>2015-01-18T08:55:08Z</time>
      </trkpt>
      <trkpt lat="48.65515" lon="-3.28885">
        <ele>91</ele>
        <time>2015-01-18T08:55:09Z</time>
      </trkpt>
      <trkpt lat="48.65523" lon="-3.28887">
        <ele>91</ele>
        <time>2015-01-18T08:55:10Z</time>
      </trkpt>
      <trkpt lat="48.65532" lon="-3.28889">
        <ele>91</ele>
        <time>2015-01-18T08:55:11Z</time>
      </trkpt>
      <trkpt lat="48.65541" lon="-3.28892">
        <ele>91</ele>
        <time>2015-01-18T08:55:12Z</time>
      </trkpt>
      <trkpt lat="48.6555" lon="-3.28895">
        <ele>91</ele>
        <time>2015-01-18T08:55:13Z</time>
      </trkpt>
      <trkpt lat="48.65559" lon="-3.28898">
        <ele>91</ele>
        <time>2015-01-18T08:55:14Z</time>
      </trkpt>
      <trkpt lat="48.65568" lon="-3.28902">
        <ele>91</ele>
        <time>2015-01-18T08:55:15Z</time>
      </trkpt>
      <trkpt lat="48.65577" lon="-3.28906">
        <ele>90</ele>
        <time>2015-01-18T08:55:16Z</time>
      </trkpt>
      <trkpt lat="48.65585" lon="-3.2891">
        <ele>90</ele>
        <time>2015-01-18T08:55:17Z</time>
      </trkpt>
      <trkpt lat="48.65595" lon="-3.28916">
        <ele>90</ele>
        <time>2015-01-18T08:55:18Z</time>
      </trkpt>
      <trkpt lat="48.65604" lon="-3.28921">
        <ele>90</ele>
        <time>2015-01-18T08:55:19Z</time>
      </trkpt>
      <trkpt lat="48.65612" lon="-3.28925">
        <ele>89</ele>
        <time>2015-01-18T08:55:20Z</time>
      </trkpt>
      <trkpt lat="48.65622" lon="-3.28931">
        <ele>89</ele>
        <time>2015-01-18T08:55:21Z</time>
      </trkpt>
      <trkpt lat="48.6563" lon="-3.28935">
        <ele>89</ele>
        <time>2015-01-18T08:55:22Z</time>
      </trkpt>
      <trkpt lat="48.6564" lon="-3.2894">
        <ele>89</ele>
        <time>2015-01-18T08:55:23Z</time>
      </trkpt>
      <trkpt lat="48.65649" lon="-3.28945">
        <ele>88</ele>
        <time>2015-01-18T08:55:24Z</time>
      </trkpt>
      <trkpt lat="48.65658" lon="-3.2895">
        <ele>88</ele>
        <time>2015-01-18T08:55:25Z</time>
      </trkpt>
      <trkpt lat="48.65667" lon="-3.28955">
        <ele>88</ele>
        <time>2015-01-18T08:55:26Z</time>
      </trkpt>
      <trkpt lat="48.65676" lon="-3.28959">
        <ele>88</ele>
        <time>2015-01-18T08:55:27Z</time>
      </trkpt>
      <trkpt lat="48.65685" lon="-3.28964">
        <ele>88</ele>
        <time>2015-01-18T08:55:28Z</time>
      </trkpt>
      <trkpt lat="48.65694" lon="-3.28968">
        <ele>88</ele>
        <time>2015-01-18T08:55:29Z</time>
      </trkpt>
      <trkpt lat="48.65703" lon="-3.28972">
        <ele>88</ele>
        <time>2015-01-18T08:55:30Z</time>
      </trkpt>
      <trkpt lat="48.65712" lon="-3.28975">
        <ele>88</ele>
        <time>2015-01-18T08:55:31Z</time>
      </trkpt>
      <trkpt lat="48.65721" lon="-3.28977">
        <ele>88</ele>
        <time>2015-01-18T08:55:32Z</time>
      </trkpt>
      <trkpt lat="48.6573" lon="-3.28979">
        <ele>88</ele>
        <time>2015-01-18T08:55:33Z</time>
      </trkpt>
      <trkpt lat="48.65739" lon="-3.2898">
        <ele>88</ele>
        <time>2015-01-18T08:55:34Z</time>
      </trkpt>
      <trkpt lat="48.65748" lon="-3.28981">
        <ele>88</ele>
        <time>2015-01-18T08:55:35Z</time>
      </trkpt>
      <trkpt lat="48.65757" lon="-3.28982">
        <ele>88</ele>
        <time>2015-01-18T08:55:36Z</time>
      </trkpt>
      <trkpt lat="48.65766" lon="-3.28983">
        <ele>88</ele>
        <time>2015-01-18T08:55:37Z</time>
      </trkpt>
      <trkpt lat="48.65775" lon="-3.28985">
        <ele>88</ele>
        <time>2015-01-18T08:55:38Z</time>
      </trkpt>
      <trkpt lat="48.65783" lon="-3.28986">
        <ele>88</ele>
        <time>2015-01-18T08:55:39Z</time>
      </trkpt>
      <trkpt lat="48.65792" lon="-3.28988">
        <ele>88</ele>
        <time>2015-01-18T08:55:40Z</time>
      </trkpt>
      <trkpt lat="48.65801" lon="-3.2899">
        <ele>88</ele>
        <time>2015-01-18T08:55:41Z</time>
      </trkpt>
      <trkpt lat="48.65809" lon="-3.28991">
        <ele>88</ele>
        <time>2015-01-18T08:55:42Z</time>
      </trkpt>
      <trkpt lat="48.65818" lon="-3.28992">
        <ele>88</ele>
        <time>2015-01-18T08:55:43Z</time>
      </trkpt>
      <trkpt lat="48.65826" lon="-3.28994">
        <ele>88</ele>
        <time>2015-01-18T08:55:44Z</time>
      </trkpt>
      <trkpt lat="48.65834" lon="-3.28995">
        <ele>88</ele>
        <time>2015-01-18T08:55:45Z</time>
      </trkpt>
      <trkpt lat="48.65842" lon="-3.28997">
        <ele>88</ele>
        <time>2015-01-18T08:55:46Z</time>
      </trkpt>
      <trkpt lat="48.6585" lon="-3.28998">
        <ele>88</ele>
        <time>2015-01-18T08:55:47Z</time>
      </trkpt>
      <trkpt lat="48.65859" lon="-3.29">
        <ele>88</ele>
        <time>2015-01-18T08:55:48Z</time>
      </trkpt>
      <trkpt lat="48.65867" lon="-3.29001">
        <ele>88</ele>
        <time>2015-01-18T08:55:49Z</time>
      </trkpt>
      <trkpt lat="48.65875" lon="-3.29002">
        <ele>88</ele>
        <time>2015-01-18T08:55:50Z</time>
      </trkpt>
      <trkpt lat="48.65884" lon="-3.29003">
        <ele>88</ele>
        <time>2015-01-18T08:55:51Z</time>
      </trkpt>
      <trkpt lat="48.65892" lon="-3.29004">
        <ele>88</ele>
        <time>2015-01-18T08:55:52Z</time>
      </trkpt>
      <trkpt lat="48.659" lon="-3.29005">
        <ele>88</ele>
        <time>2015-01-18T08:55:53Z</time>
      </trkpt>
      <trkpt lat="48.65908" lon="-3.29006">
        <ele>88</ele>
        <time>2015-01-18T08:55:54Z</time>
      </trkpt>
      <trkpt lat="48.65917" lon="-3.29006">
        <ele>88</ele>
        <time>2015-01-18T08:55:55Z</time>
      </trkpt>
      <trkpt lat="48.65925" lon="-3.29007">
        <ele>88</ele>
        <time>2015-01-18T08:55:56Z</time>
      </trkpt>
      <trkpt lat="48.65942" lon="-3.29006">
        <ele>88</ele>
        <time>2015-01-18T08:55:58Z</time>
      </trkpt>
      <trkpt lat="48.6595" lon="-3.29006">
        <ele>88</ele>
        <time>2015-01-18T08:55:59Z</time>
      </trkpt>
      <trkpt lat="48.65959" lon="-3.29004">
        <ele>88</ele>
        <time>2015-01-18T08:56:00Z</time>
      </trkpt>
      <trkpt lat="48.65967" lon="-3.29003">
        <ele>88</ele>
        <time>2015-01-18T08:56:01Z</time>
      </trkpt>
      <trkpt lat="48.65976" lon="-3.29001">
        <ele>88</ele>
        <time>2015-01-18T08:56:02Z</time>
      </trkpt>
      <trkpt lat="48.65984" lon="-3.29">
        <ele>88</ele>
        <time>2015-01-18T08:56:03Z</time>
      </trkpt>
      <trkpt lat="48.65992" lon="-3.29">
        <ele>88</ele>
        <time>2015-01-18T08:56:04Z</time>
      </trkpt>
      <trkpt lat="48.66001" lon="-3.29001">
        <ele>88</ele>
        <time>2015-01-18T08:56:05Z</time>
      </trkpt>
      <trkpt lat="48.6601" lon="-3.29003">
        <ele>88</ele>
        <time>2015-01-18T08:56:06Z</time>
      </trkpt>
      <trkpt lat="48.66018" lon="-3.29006">
        <ele>88</ele>
        <time>2015-01-18T08:56:07Z</time>
      </trkpt>
      <trkpt lat="48.66027" lon="-3.2901">
        <ele>88</ele>
        <time>2015-01-18T08:56:08Z</time>
      </trkpt>
      <trkpt lat="48.66034" lon="-3.29016">
        <ele>88</ele>
        <time>2015-01-18T08:56:09Z</time>
      </trkpt>
      <trkpt lat="48.66042" lon="-3.29022">
        <ele>88</ele>
        <time>2015-01-18T08:56:10Z</time>
      </trkpt>
      <trkpt lat="48.6605" lon="-3.29027">
        <ele>88</ele>
        <time>2015-01-18T08:56:11Z</time>
      </trkpt>
      <trkpt lat="48.66058" lon="-3.29032">
        <ele>88</ele>
        <time>2015-01-18T08:56:12Z</time>
      </trkpt>
      <trkpt lat="48.66066" lon="-3.29037">
        <ele>87</ele>
        <time>2015-01-18T08:56:13Z</time>
      </trkpt>
      <trkpt lat="48.66074" lon="-3.29041">
        <ele>87</ele>
        <time>2015-01-18T08:56:14Z</time>
      </trkpt>
      <trkpt lat="48.66082" lon="-3.29043">
        <ele>87</ele>
        <time>2015-01-18T08:56:15Z</time>
      </trkpt>
      <trkpt lat="48.6609" lon="-3.29045">
        <ele>87</ele>
        <time>2015-01-18T08:56:16Z</time>
      </trkpt>
      <trkpt lat="48.66099" lon="-3.29045">
        <ele>87</ele>
        <time>2015-01-18T08:56:17Z</time>
      </trkpt>
      <trkpt lat="48.66108" lon="-3.29044">
        <ele>87</ele>
        <time>2015-01-18T08:56:18Z</time>
      </trkpt>
      <trkpt lat="48.66116" lon="-3.29043">
        <ele>87</ele>
        <time>2015-01-18T08:56:19Z</time>
      </trkpt>
      <trkpt lat="48.66125" lon="-3.29042">
        <ele>87</ele>
        <time>2015-01-18T08:56:20Z</time>
      </trkpt>
      <trkpt lat="48.66133" lon="-3.2904">
        <ele>87</ele>
        <time>2015-01-18T08:56:21Z</time>
      </trkpt>
      <trkpt lat="48.66142" lon="-3.29039">
        <ele>87</ele>
        <time>2015-01-18T08:56:22Z</time>
      </trkpt>
      <trkpt lat="48.6615" lon="-3.29037">
        <ele>87</ele>
        <time>2015-01-18T08:56:23Z</time>
      </trkpt>
      <trkpt lat="48.66158" lon="-3.29036">
        <ele>87</ele>
        <time>2015-01-18T08:56:24Z</time>
      </trkpt>
      <trkpt lat="48.66167" lon="-3.29034">
        <ele>87</ele>
        <time>2015-01-18T08:56:25Z</time>
      </trkpt>
      <trkpt lat="48.66175" lon="-3.29032">
        <ele>87</ele>
        <time>2015-01-18T08:56:26Z</time>
      </trkpt>
      <trkpt lat="48.66184" lon="-3.2903">
        <ele>87</ele>
        <time>2015-01-18T08:56:27Z</time>
      </trkpt>
      <trkpt lat="48.66193" lon="-3.29029">
        <ele>87</ele>
        <time>2015-01-18T08:56:28Z</time>
      </trkpt>
      <trkpt lat="48.66201" lon="-3.29027">
        <ele>87</ele>
        <time>2015-01-18T08:56:29Z</time>
      </trkpt>
      <trkpt lat="48.66209" lon="-3.29024">
        <ele>87</ele>
        <time>2015-01-18T08:56:30Z</time>
      </trkpt>
      <trkpt lat="48.66217" lon="-3.29022">
        <ele>87</ele>
        <time>2015-01-18T08:56:31Z</time>
      </trkpt>
      <trkpt lat="48.66225" lon="-3.29019">
        <ele>87</ele>
        <time>2015-01-18T08:56:32Z</time>
      </trkpt>
      <trkpt lat="48.66233" lon="-3.29016">
        <ele>87</ele>
        <time>2015-01-18T08:56:33Z</time>
      </trkpt>
      <trkpt lat="48.66241" lon="-3.29013">
        <ele>87</ele>
        <time>2015-01-18T08:56:34Z</time>
      </trkpt>
      <trkpt lat="48.66249" lon="-3.29011">
        <ele>87</ele>
        <time>2015-01-18T08:56:35Z</time>
      </trkpt>
      <trkpt lat="48.66258" lon="-3.29008">
        <ele>87</ele>
        <time>2015-01-18T08:56:36Z</time>
      </trkpt>
      <trkpt lat="48.66266" lon="-3.29005">
        <ele>87</ele>
        <time>2015-01-18T08:56:37Z</time>
      </trkpt>
      <trkpt lat="48.66275" lon="-3.29001">
        <ele>87</ele>
        <time>2015-01-18T08:56:38Z</time>
      </trkpt>
      <trkpt lat="48.66283" lon="-3.28998">
        <ele>87</ele>
        <time>2015-01-18T08:56:39Z</time>
      </trkpt>
      <trkpt lat="48.66292" lon="-3.28994">
        <ele>87</ele>
        <time>2015-01-18T08:56:40Z</time>
      </trkpt>
      <trkpt lat="48.663" lon="-3.28991">
        <ele>87</ele>
        <time>2015-01-18T08:56:41Z</time>
      </trkpt>
      <trkpt lat="48.66309" lon="-3.28988">
        <ele>87</ele>
        <time>2015-01-18T08:56:42Z</time>
      </trkpt>
      <trkpt lat="48.66317" lon="-3.28986">
        <ele>87</ele>
        <time>2015-01-18T08:56:43Z</time>
      </trkpt>
      <trkpt lat="48.66325" lon="-3.28986">
        <ele>86</ele>
        <time>2015-01-18T08:56:44Z</time>
      </trkpt>
      <trkpt lat="48.66333" lon="-3.28987">
        <ele>86</ele>
        <time>2015-01-18T08:56:45Z</time>
      </trkpt>
      <trkpt lat="48.6634" lon="-3.28987">
        <ele>85</ele>
        <time>2015-01-18T08:56:46Z</time>
      </trkpt>
      <trkpt lat="48.66348" lon="-3.28988">
        <ele>85</ele>
        <time>2015-01-18T08:56:47Z</time>
      </trkpt>
      <trkpt lat="48.66354" lon="-3.28989">
        <ele>85</ele>
        <time>2015-01-18T08:56:48Z</time>
      </trkpt>
      <trkpt lat="48.66361" lon="-3.2899">
        <ele>84</ele>
        <time>2015-01-18T08:56:49Z</time>
      </trkpt>
      <trkpt lat="48.66367" lon="-3.28991">
        <ele>84</ele>
        <time>2015-01-18T08:56:50Z</time>
      </trkpt>
      <trkpt lat="48.66374" lon="-3.28992">
        <ele>84</ele>
        <time>2015-01-18T08:56:51Z</time>
      </trkpt>
      <trkpt lat="48.6638" lon="-3.28993">
        <ele>83</ele>
        <time>2015-01-18T08:56:52Z</time>
      </trkpt>
      <trkpt lat="48.66386" lon="-3.28994">
        <ele>83</ele>
        <time>2015-01-18T08:56:53Z</time>
      </trkpt>
      <trkpt lat="48.66393" lon="-3.28995">
        <ele>83</ele>
        <time>2015-01-18T08:56:54Z</time>
      </trkpt>
      <trkpt lat="48.66399" lon="-3.28996">
        <ele>82</ele>
        <time>2015-01-18T08:56:55Z</time>
      </trkpt>
      <trkpt lat="48.66405" lon="-3.28996">
        <ele>82</ele>
        <time>2015-01-18T08:56:56Z</time>
      </trkpt>
      <trkpt lat="48.6641" lon="-3.28997">
        <ele>82</ele>
        <time>2015-01-18T08:56:57Z</time>
      </trkpt>
      <trkpt lat="48.66415" lon="-3.28999">
        <ele>81</ele>
        <time>2015-01-18T08:56:58Z</time>
      </trkpt>
      <trkpt lat="48.6642" lon="-3.29">
        <ele>81</ele>
        <time>2015-01-18T08:56:59Z</time>
      </trkpt>
      <trkpt lat="48.66424" lon="-3.29001">
        <ele>81</ele>
        <time>2015-01-18T08:57:00Z</time>
      </trkpt>
      <trkpt lat="48.66428" lon="-3.29001">
        <ele>80</ele>
        <time>2015-01-18T08:57:01Z</time>
      </trkpt>
      <trkpt lat="48.66432" lon="-3.29002">
        <ele>80</ele>
        <time>2015-01-18T08:57:02Z</time>
      </trkpt>
      <trkpt lat="48.66436" lon="-3.29003">
        <ele>80</ele>
        <time>2015-01-18T08:57:03Z</time>
      </trkpt>
      <trkpt lat="48.66439" lon="-3.29003">
        <ele>80</ele>
        <time>2015-01-18T08:57:04Z</time>
      </trkpt>
      <trkpt lat="48.66443" lon="-3.29004">
        <ele>80</ele>
        <time>2015-01-18T08:57:05Z</time>
      </trkpt>
      <trkpt lat="48.66446" lon="-3.29004">
        <ele>80</ele>
        <time>2015-01-18T08:57:06Z</time>
      </trkpt>
      <trkpt lat="48.66449" lon="-3.29004">
        <ele>79</ele>
        <time>2015-01-18T08:57:07Z</time>
      </trkpt>
      <trkpt lat="48.66452" lon="-3.29005">
        <ele>79</ele>
        <time>2015-01-18T08:57:08Z</time>
      </trkpt>
      <trkpt lat="48.66455" lon="-3.29005">
        <ele>79</ele>
        <time>2015-01-18T08:57:09Z</time>
      </trkpt>
      <trkpt lat="48.66458" lon="-3.29005">
        <ele>79</ele>
        <time>2015-01-18T08:57:10Z</time>
      </trkpt>
      <trkpt lat="48.66461" lon="-3.29006">
        <ele>79</ele>
        <time>2015-01-18T08:57:11Z</time>
      </trkpt>
      <trkpt lat="48.66464" lon="-3.29006">
        <ele>79</ele>
        <time>2015-01-18T08:57:12Z</time>
      </trkpt>
      <trkpt lat="48.66467" lon="-3.29007">
        <ele>78</ele>
        <time>2015-01-18T08:57:13Z</time>
      </trkpt>
      <trkpt lat="48.6647" lon="-3.29007">
        <ele>78</ele>
        <time>2015-01-18T08:57:14Z</time>
      </trkpt>
      <trkpt lat="48.66474" lon="-3.29007">
        <ele>78</ele>
        <time>2015-01-18T08:57:15Z</time>
      </trkpt>
      <trkpt lat="48.66481" lon="-3.29007">
        <ele>78</ele>
        <time>2015-01-18T08:57:17Z</time>
      </trkpt>
      <trkpt lat="48.66485" lon="-3.29006">
        <ele>77</ele>
        <time>2015-01-18T08:57:18Z</time>
      </trkpt>
      <trkpt lat="48.6649" lon="-3.29006">
        <ele>77</ele>
        <time>2015-01-18T08:57:19Z</time>
      </trkpt>
      <trkpt lat="48.66495" lon="-3.29006">
        <ele>77</ele>
        <time>2015-01-18T08:57:20Z</time>
      </trkpt>
      <trkpt lat="48.665" lon="-3.29005">
        <ele>77</ele>
        <time>2015-01-18T08:57:21Z</time>
      </trkpt>
      <trkpt lat="48.66505" lon="-3.29005">
        <ele>77</ele>
        <time>2015-01-18T08:57:22Z</time>
      </trkpt>
      <trkpt lat="48.66511" lon="-3.29004">
        <ele>76</ele>
        <time>2015-01-18T08:57:23Z</time>
      </trkpt>
      <trkpt lat="48.66517" lon="-3.29004">
        <ele>76</ele>
        <time>2015-01-18T08:57:24Z</time>
      </trkpt>
      <trkpt lat="48.66523" lon="-3.29004">
        <ele>76</ele>
        <time>2015-01-18T08:57:25Z</time>
      </trkpt>
      <trkpt lat="48.66529" lon="-3.29003">
        <ele>76</ele>
        <time>2015-01-18T08:57:26Z</time>
      </trkpt>
      <trkpt lat="48.66536" lon="-3.29003">
        <ele>76</ele>
        <time>2015-01-18T08:57:27Z</time>
      </trkpt>
      <trkpt lat="48.66542" lon="-3.29003">
        <ele>75</ele>
        <time>2015-01-18T08:57:28Z</time>
      </trkpt>
      <trkpt lat="48.66549" lon="-3.29002">
        <ele>75</ele>
        <time>2015-01-18T08:57:29Z</time>
      </trkpt>
      <trkpt lat="48.66555" lon="-3.29001">
        <ele>75</ele>
        <time>2015-01-18T08:57:30Z</time>
      </trkpt>
      <trkpt lat="48.66561" lon="-3.29001">
        <ele>75</ele>
        <time>2015-01-18T08:57:31Z</time>
      </trkpt>
      <trkpt lat="48.66566" lon="-3.29">
        <ele>75</ele>
        <time>2015-01-18T08:57:32Z</time>
      </trkpt>
      <trkpt lat="48.66571" lon="-3.28998">
        <ele>75</ele>
        <time>2015-01-18T08:57:33Z</time>
      </trkpt>
      <trkpt lat="48.66576" lon="-3.28997">
        <ele>75</ele>
        <time>2015-01-18T08:57:34Z</time>
      </trkpt>
      <trkpt lat="48.66581" lon="-3.28996">
        <ele>75</ele>
        <time>2015-01-18T08:57:35Z</time>
      </trkpt>
      <trkpt lat="48.66586" lon="-3.28994">
        <ele>75</ele>
        <time>2015-01-18T08:57:36Z</time>
      </trkpt>
      <trkpt lat="48.66591" lon="-3.28993">
        <ele>75</ele>
        <time>2015-01-18T08:57:37Z</time>
      </trkpt>
      <trkpt lat="48.66595" lon="-3.2899">
        <ele>75</ele>
        <time>2015-01-18T08:57:38Z</time>
      </trkpt>
      <trkpt lat="48.666" lon="-3.28989">
        <ele>75</ele>
        <time>2015-01-18T08:57:39Z</time>
      </trkpt>
      <trkpt lat="48.66605" lon="-3.28987">
        <ele>75</ele>
        <time>2015-01-18T08:57:40Z</time>
      </trkpt>
      <trkpt lat="48.66609" lon="-3.28985">
        <ele>75</ele>
        <time>2015-01-18T08:57:41Z</time>
      </trkpt>
      <trkpt lat="48.66614" lon="-3.28983">
        <ele>75</ele>
        <time>2015-01-18T08:57:42Z</time>
      </trkpt>
      <trkpt lat="48.66619" lon="-3.28981">
        <ele>75</ele>
        <time>2015-01-18T08:57:43Z</time>
      </trkpt>
      <trkpt lat="48.66624" lon="-3.28979">
        <ele>75</ele>
        <time>2015-01-18T08:57:44Z</time>
      </trkpt>
      <trkpt lat="48.66628" lon="-3.28978">
        <ele>75</ele>
        <time>2015-01-18T08:57:45Z</time>
      </trkpt>
      <trkpt lat="48.66633" lon="-3.28976">
        <ele>75</ele>
        <time>2015-01-18T08:57:46Z</time>
      </trkpt>
      <trkpt lat="48.66638" lon="-3.28975">
        <ele>75</ele>
        <time>2015-01-18T08:57:47Z</time>
      </trkpt>
      <trkpt lat="48.66642" lon="-3.28974">
        <ele>75</ele>
        <time>2015-01-18T08:57:48Z</time>
      </trkpt>
      <trkpt lat="48.66647" lon="-3.28972">
        <ele>75</ele>
        <time>2015-01-18T08:57:49Z</time>
      </trkpt>
      <trkpt lat="48.66651" lon="-3.28971">
        <ele>75</ele>
        <time>2015-01-18T08:57:50Z</time>
      </trkpt>
      <trkpt lat="48.66655" lon="-3.2897">
        <ele>75</ele>
        <time>2015-01-18T08:57:51Z</time>
      </trkpt>
      <trkpt lat="48.66659" lon="-3.28969">
        <ele>75</ele>
        <time>2015-01-18T08:57:52Z</time>
      </trkpt>
      <trkpt lat="48.66661" lon="-3.28967">
        <ele>75</ele>
        <time>2015-01-18T08:57:53Z</time>
      </trkpt>
      <trkpt lat="48.66663" lon="-3.28966">
        <ele>75</ele>
        <time>2015-01-18T08:57:54Z</time>
      </trkpt>
      <trkpt lat="48.66665" lon="-3.28965">
        <ele>75</ele>
        <time>2015-01-18T08:57:55Z</time>
      </trkpt>
      <trkpt lat="48.67091" lon="-3.28905">
        <ele>67</ele>
        <time>2015-01-18T08:58:01Z</time>
      </trkpt>
      <trkpt lat="48.67098" lon="-3.28897">
        <ele>67</ele>
        <time>2015-01-18T08:58:02Z</time>
      </trkpt>
      <trkpt lat="48.67105" lon="-3.28889">
        <ele>66</ele>
        <time>2015-01-18T08:58:03Z</time>
      </trkpt>
      <trkpt lat="48.67112" lon="-3.2888">
        <ele>66</ele>
        <time>2015-01-18T08:58:04Z</time>
      </trkpt>
      <trkpt lat="48.67119" lon="-3.28872">
        <ele>65</ele>
        <time>2015-01-18T08:58:05Z</time>
      </trkpt>
      <trkpt lat="48.67126" lon="-3.28864">
        <ele>65</ele>
        <time>2015-01-18T08:58:06Z</time>
      </trkpt>
      <trkpt lat="48.67133" lon="-3.28857">
        <ele>65</ele>
        <time>2015-01-18T08:58:07Z</time>
      </trkpt>
      <trkpt lat="48.67141" lon="-3.28853">
        <ele>65</ele>
        <time>2015-01-18T08:58:08Z</time>
      </trkpt>
      <trkpt lat="48.67149" lon="-3.28851">
        <ele>65</ele>
        <time>2015-01-18T08:58:09Z</time>
      </trkpt>
      <trkpt lat="48.67157" lon="-3.28852">
        <ele>65</ele>
        <time>2015-01-18T08:58:10Z</time>
      </trkpt>
      <trkpt lat="48.67165" lon="-3.28855">
        <ele>65</ele>
        <time>2015-01-18T08:58:11Z</time>
      </trkpt>
      <trkpt lat="48.67173" lon="-3.28858">
        <ele>65</ele>
        <time>2015-01-18T08:58:12Z</time>
      </trkpt>
      <trkpt lat="48.6718" lon="-3.28863">
        <ele>65</ele>
        <time>2015-01-18T08:58:13Z</time>
      </trkpt>
      <trkpt lat="48.67187" lon="-3.28867">
        <ele>65</ele>
        <time>2015-01-18T08:58:14Z</time>
      </trkpt>
      <trkpt lat="48.67194" lon="-3.28871">
        <ele>65</ele>
        <time>2015-01-18T08:58:15Z</time>
      </trkpt>
      <trkpt lat="48.672" lon="-3.28876">
        <ele>65</ele>
        <time>2015-01-18T08:58:16Z</time>
      </trkpt>
      <trkpt lat="48.67207" lon="-3.28881">
        <ele>65</ele>
        <time>2015-01-18T08:58:17Z</time>
      </trkpt>
      <trkpt lat="48.67213" lon="-3.28886">
        <ele>65</ele>
        <time>2015-01-18T08:58:18Z</time>
      </trkpt>
      <trkpt lat="48.67218" lon="-3.28891">
        <ele>65</ele>
        <time>2015-01-18T08:58:19Z</time>
      </trkpt>
      <trkpt lat="48.67223" lon="-3.28896">
        <ele>65</ele>
        <time>2015-01-18T08:58:20Z</time>
      </trkpt>
      <trkpt lat="48.67228" lon="-3.28901">
        <ele>65</ele>
        <time>2015-01-18T08:58:21Z</time>
      </trkpt>
      <trkpt lat="48.67234" lon="-3.28905">
        <ele>65</ele>
        <time>2015-01-18T08:58:22Z</time>
      </trkpt>
      <trkpt lat="48.67238" lon="-3.28909">
        <ele>65</ele>
        <time>2015-01-18T08:58:23Z</time>
      </trkpt>
      <trkpt lat="48.67243" lon="-3.28913">
        <ele>65</ele>
        <time>2015-01-18T08:58:24Z</time>
      </trkpt>
      <trkpt lat="48.67247" lon="-3.28917">
        <ele>65</ele>
        <time>2015-01-18T08:58:25Z</time>
      </trkpt>
      <trkpt lat="48.6725" lon="-3.2892">
        <ele>65</ele>
        <time>2015-01-18T08:58:26Z</time>
      </trkpt>
      <trkpt lat="48.67254" lon="-3.28923">
        <ele>65</ele>
        <time>2015-01-18T08:58:27Z</time>
      </trkpt>
      <trkpt lat="48.67258" lon="-3.28926">
        <ele>65</ele>
        <time>2015-01-18T08:58:28Z</time>
      </trkpt>
      <trkpt lat="48.67261" lon="-3.28929">
        <ele>65</ele>
        <time>2015-01-18T08:58:29Z</time>
      </trkpt>
      <trkpt lat="48.67264" lon="-3.28932">
        <ele>65</ele>
        <time>2015-01-18T08:58:30Z</time>
      </trkpt>
      <trkpt lat="48.67266" lon="-3.28935">
        <ele>65</ele>
        <time>2015-01-18T08:58:31Z</time>
      </trkpt>
      <trkpt lat="48.67269" lon="-3.28937">
        <ele>65</ele>
        <time>2015-01-18T08:58:32Z</time>
      </trkpt>
      <trkpt lat="48.67272" lon="-3.2894">
        <ele>65</ele>
        <time>2015-01-18T08:58:33Z</time>
      </trkpt>
      <trkpt lat="48.67274" lon="-3.28943">
        <ele>65</ele>
        <time>2015-01-18T08:58:34Z</time>
      </trkpt>
      <trkpt lat="48.67276" lon="-3.28945">
        <ele>65</ele>
        <time>2015-01-18T08:58:35Z</time>
      </trkpt>
      <trkpt lat="48.67279" lon="-3.28948">
        <ele>65</ele>
        <time>2015-01-18T08:58:36Z</time>
      </trkpt>
      <trkpt lat="48.67281" lon="-3.28951">
        <ele>65</ele>
        <time>2015-01-18T08:58:37Z</time>
      </trkpt>
      <trkpt lat="48.67284" lon="-3.28954">
        <ele>65</ele>
        <time>2015-01-18T08:58:38Z</time>
      </trkpt>
      <trkpt lat="48.67286" lon="-3.28957">
        <ele>65</ele>
        <time>2015-01-18T08:58:39Z</time>
      </trkpt>
      <trkpt lat="48.67289" lon="-3.28961">
        <ele>65</ele>
        <time>2015-01-18T08:58:40Z</time>
      </trkpt>
      <trkpt lat="48.67292" lon="-3.28965">
        <ele>65</ele>
        <time>2015-01-18T08:58:41Z</time>
      </trkpt>
      <trkpt lat="48.67295" lon="-3.28968">
        <ele>65</ele>
        <time>2015-01-18T08:58:42Z</time>
      </trkpt>
      <trkpt lat="48.67299" lon="-3.28973">
        <ele>65</ele>
        <time>2015-01-18T08:58:43Z</time>
      </trkpt>
      <trkpt lat="48.67301" lon="-3.28978">
        <ele>65</ele>
        <time>2015-01-18T08:58:44Z</time>
      </trkpt>
      <trkpt lat="48.67304" lon="-3.28982">
        <ele>65</ele>
        <time>2015-01-18T08:58:45Z</time>
      </trkpt>
      <trkpt lat="48.67308" lon="-3.28988">
        <ele>65</ele>
        <time>2015-01-18T08:58:46Z</time>
      </trkpt>
      <trkpt lat="48.67312" lon="-3.28993">
        <ele>65</ele>
        <time>2015-01-18T08:58:47Z</time>
      </trkpt>
      <trkpt lat="48.67316" lon="-3.28998">
        <ele>65</ele>
        <time>2015-01-18T08:58:48Z</time>
      </trkpt>
      <trkpt lat="48.67319" lon="-3.29004">
        <ele>65</ele>
        <time>2015-01-18T08:58:49Z</time>
      </trkpt>
      <trkpt lat="48.67323" lon="-3.29009">
        <ele>65</ele>
        <time>2015-01-18T08:58:50Z</time>
      </trkpt>
      <trkpt lat="48.67327" lon="-3.29015">
        <ele>65</ele>
        <time>2015-01-18T08:58:51Z</time>
      </trkpt>
      <trkpt lat="48.67332" lon="-3.29021">
        <ele>65</ele>
        <time>2015-01-18T08:58:52Z</time>
      </trkpt>
      <trkpt lat="48.67336" lon="-3.29027">
        <ele>65</ele>
        <time>2015-01-18T08:58:53Z</time>
      </trkpt>
      <trkpt lat="48.6734" lon="-3.29034">
        <ele>65</ele>
        <time>2015-01-18T08:58:54Z</time>
      </trkpt>
      <trkpt lat="48.67344" lon="-3.29041">
        <ele>65</ele>
        <time>2015-01-18T08:58:55Z</time>
      </trkpt>
      <trkpt lat="48.67347" lon="-3.29048">
        <ele>65</ele>
        <time>2015-01-18T08:58:56Z</time>
      </trkpt>
      <trkpt lat="48.67351" lon="-3.29055">
        <ele>65</ele>
        <time>2015-01-18T08:58:57Z</time>
      </trkpt>
      <trkpt lat="48.67355" lon="-3.29062">
        <ele>65</ele>
        <time>2015-01-18T08:58:58Z</time>
      </trkpt>
      <trkpt lat="48.67359" lon="-3.2907">
        <ele>65</ele>
        <time>2015-01-18T08:58:59Z</time>
      </trkpt>
      <trkpt lat="48.67363" lon="-3.29077">
        <ele>65</ele>
        <time>2015-01-18T08:59:00Z</time>
      </trkpt>
      <trkpt lat="48.67366" lon="-3.29083">
        <ele>65</ele>
        <time>2015-01-18T08:59:01Z</time>
      </trkpt>
      <trkpt lat="48.6737" lon="-3.2909">
        <ele>65</ele>
        <time>2015-01-18T08:59:02Z</time>
      </trkpt>
      <trkpt lat="48.67374" lon="-3.29097">
        <ele>65</ele>
        <time>2015-01-18T08:59:03Z</time>
      </trkpt>
      <trkpt lat="48.67377" lon="-3.29103">
        <ele>65</ele>
        <time>2015-01-18T08:59:04Z</time>
      </trkpt>
      <trkpt lat="48.67382" lon="-3.29109">
        <ele>65</ele>
        <time>2015-01-18T08:59:05Z</time>
      </trkpt>
      <trkpt lat="48.67386" lon="-3.29116">
        <ele>65</ele>
        <time>2015-01-18T08:59:06Z</time>
      </trkpt>
      <trkpt lat="48.6739" lon="-3.29123">
        <ele>65</ele>
        <time>2015-01-18T08:59:07Z</time>
      </trkpt>
      <trkpt lat="48.67394" lon="-3.2913">
        <ele>65</ele>
        <time>2015-01-18T08:59:08Z</time>
      </trkpt>
      <trkpt lat="48.67399" lon="-3.29137">
        <ele>65</ele>
        <time>2015-01-18T08:59:09Z</time>
      </trkpt>
      <trkpt lat="48.67404" lon="-3.29144">
        <ele>65</ele>
        <time>2015-01-18T08:59:10Z</time>
      </trkpt>
      <trkpt lat="48.67409" lon="-3.29151">
        <ele>65</ele>
        <time>2015-01-18T08:59:11Z</time>
      </trkpt>
      <trkpt lat="48.67415" lon="-3.29158">
        <ele>65</ele>
        <time>2015-01-18T08:59:12Z</time>
      </trkpt>
      <trkpt lat="48.67421" lon="-3.29164">
        <ele>65</ele>
        <time>2015-01-18T08:59:13Z</time>
      </trkpt>
      <trkpt lat="48.67427" lon="-3.29169">
        <ele>65</ele>
        <time>2015-01-18T08:59:14Z</time>
      </trkpt>
      <trkpt lat="48.67434" lon="-3.29175">
        <ele>65</ele>
        <time>2015-01-18T08:59:15Z</time>
      </trkpt>
      <trkpt lat="48.6744" lon="-3.2918">
        <ele>65</ele>
        <time>2015-01-18T08:59:16Z</time>
      </trkpt>
      <trkpt lat="48.67447" lon="-3.29185">
        <ele>65</ele>
        <time>2015-01-18T08:59:17Z</time>
      </trkpt>
      <trkpt lat="48.67454" lon="-3.2919">
        <ele>65</ele>
        <time>2015-01-18T08:59:18Z</time>
      </trkpt>
      <trkpt lat="48.67461" lon="-3.29195">
        <ele>65</ele>
        <time>2015-01-18T08:59:19Z</time>
      </trkpt>
      <trkpt lat="48.67467" lon="-3.29201">
        <ele>65</ele>
        <time>2015-01-18T08:59:20Z</time>
      </trkpt>
      <trkpt lat="48.67473" lon="-3.29208">
        <ele>65</ele>
        <time>2015-01-18T08:59:21Z</time>
      </trkpt>
      <trkpt lat="48.67479" lon="-3.29216">
        <ele>65</ele>
        <time>2015-01-18T08:59:22Z</time>
      </trkpt>
      <trkpt lat="48.67483" lon="-3.29224">
        <ele>65</ele>
        <time>2015-01-18T08:59:23Z</time>
      </trkpt>
      <trkpt lat="48.67486" lon="-3.29233">
        <ele>65</ele>
        <time>2015-01-18T08:59:24Z</time>
      </trkpt>
      <trkpt lat="48.67489" lon="-3.29243">
        <ele>65</ele>
        <time>2015-01-18T08:59:25Z</time>
      </trkpt>
      <trkpt lat="48.6749" lon="-3.29252">
        <ele>65</ele>
        <time>2015-01-18T08:59:26Z</time>
      </trkpt>
      <trkpt lat="48.6749" lon="-3.29262">
        <ele>65</ele>
        <time>2015-01-18T08:59:27Z</time>
      </trkpt>
      <trkpt lat="48.6749" lon="-3.29271">
        <ele>66</ele>
        <time>2015-01-18T08:59:28Z</time>
      </trkpt>
      <trkpt lat="48.67489" lon="-3.2928">
        <ele>66</ele>
        <time>2015-01-18T08:59:29Z</time>
      </trkpt>
      <trkpt lat="48.67488" lon="-3.2929">
        <ele>66</ele>
        <time>2015-01-18T08:59:30Z</time>
      </trkpt>
      <trkpt lat="48.67487" lon="-3.29299">
        <ele>67</ele>
        <time>2015-01-18T08:59:31Z</time>
      </trkpt>
      <trkpt lat="48.67488" lon="-3.29345">
        <ele>68</ele>
        <time>2015-01-18T08:59:36Z</time>
      </trkpt>
      <trkpt lat="48.67489" lon="-3.29354">
        <ele>69</ele>
        <time>2015-01-18T08:59:37Z</time>
      </trkpt>
      <trkpt lat="48.6749" lon="-3.29362">
        <ele>69</ele>
        <time>2015-01-18T08:59:38Z</time>
      </trkpt>
      <trkpt lat="48.67492" lon="-3.2937">
        <ele>69</ele>
        <time>2015-01-18T08:59:39Z</time>
      </trkpt>
      <trkpt lat="48.67494" lon="-3.29378">
        <ele>70</ele>
        <time>2015-01-18T08:59:40Z</time>
      </trkpt>
      <trkpt lat="48.67496" lon="-3.29385">
        <ele>70</ele>
        <time>2015-01-18T08:59:41Z</time>
      </trkpt>
      <trkpt lat="48.67498" lon="-3.29391">
        <ele>71</ele>
        <time>2015-01-18T08:59:42Z</time>
      </trkpt>
      <trkpt lat="48.67501" lon="-3.29398">
        <ele>71</ele>
        <time>2015-01-18T08:59:43Z</time>
      </trkpt>
      <trkpt lat="48.67503" lon="-3.29404">
        <ele>71</ele>
        <time>2015-01-18T08:59:44Z</time>
      </trkpt>
      <trkpt lat="48.67506" lon="-3.2941">
        <ele>71</ele>
        <time>2015-01-18T08:59:45Z</time>
      </trkpt>
      <trkpt lat="48.67509" lon="-3.29416">
        <ele>72</ele>
        <time>2015-01-18T08:59:46Z</time>
      </trkpt>
      <trkpt lat="48.67512" lon="-3.29423">
        <ele>72</ele>
        <time>2015-01-18T08:59:47Z</time>
      </trkpt>
      <trkpt lat="48.67514" lon="-3.29429">
        <ele>72</ele>
        <time>2015-01-18T08:59:48Z</time>
      </trkpt>
      <trkpt lat="48.67517" lon="-3.29435">
        <ele>72</ele>
        <time>2015-01-18T08:59:49Z</time>
      </trkpt>
      <trkpt lat="48.67519" lon="-3.29442">
        <ele>72</ele>
        <time>2015-01-18T08:59:50Z</time>
      </trkpt>
      <trkpt lat="48.67522" lon="-3.29448">
        <ele>73</ele>
        <time>2015-01-18T08:59:51Z</time>
      </trkpt>
      <trkpt lat="48.67524" lon="-3.29453">
        <ele>73</ele>
        <time>2015-01-18T08:59:52Z</time>
      </trkpt>
      <trkpt lat="48.67526" lon="-3.29459">
        <ele>73</ele>
        <time>2015-01-18T08:59:53Z</time>
      </trkpt>
      <trkpt lat="48.67528" lon="-3.29465">
        <ele>73</ele>
        <time>2015-01-18T08:59:54Z</time>
      </trkpt>
      <trkpt lat="48.6753" lon="-3.29471">
        <ele>73</ele>
        <time>2015-01-18T08:59:55Z</time>
      </trkpt>
      <trkpt lat="48.67532" lon="-3.29477">
        <ele>73</ele>
        <time>2015-01-18T08:59:56Z</time>
      </trkpt>
      <trkpt lat="48.67534" lon="-3.29484">
        <ele>74</ele>
        <time>2015-01-18T08:59:57Z</time>
      </trkpt>
      <trkpt lat="48.67536" lon="-3.2949">
        <ele>74</ele>
        <time>2015-01-18T08:59:58Z</time>
      </trkpt>
      <trkpt lat="48.67538" lon="-3.29496">
        <ele>74</ele>
        <time>2015-01-18T08:59:59Z</time>
      </trkpt>
      <trkpt lat="48.67541" lon="-3.29503">
        <ele>74</ele>
        <time>2015-01-18T09:00:00Z</time>
      </trkpt>
      <trkpt lat="48.67544" lon="-3.29509">
        <ele>74</ele>
        <time>2015-01-18T09:00:01Z</time>
      </trkpt>
      <trkpt lat="48.67546" lon="-3.29515">
        <ele>74</ele>
        <time>2015-01-18T09:00:02Z</time>
      </trkpt>
      <trkpt lat="48.67548" lon="-3.29521">
        <ele>74</ele>
        <time>2015-01-18T09:00:03Z</time>
      </trkpt>
      <trkpt lat="48.67551" lon="-3.29528">
        <ele>74</ele>
        <time>2015-01-18T09:00:04Z</time>
      </trkpt>
      <trkpt lat="48.67553" lon="-3.29534">
        <ele>75</ele>
        <time>2015-01-18T09:00:05Z</time>
      </trkpt>
      <trkpt lat="48.67555" lon="-3.29541">
        <ele>75</ele>
        <time>2015-01-18T09:00:06Z</time>
      </trkpt>
      <trkpt lat="48.67557" lon="-3.29547">
        <ele>75</ele>
        <time>2015-01-18T09:00:07Z</time>
      </trkpt>
      <trkpt lat="48.67559" lon="-3.29554">
        <ele>75</ele>
        <time>2015-01-18T09:00:08Z</time>
      </trkpt>
      <trkpt lat="48.67561" lon="-3.29561">
        <ele>75</ele>
        <time>2015-01-18T09:00:09Z</time>
      </trkpt>
      <trkpt lat="48.67563" lon="-3.29568">
        <ele>75</ele>
        <time>2015-01-18T09:00:10Z</time>
      </trkpt>
      <trkpt lat="48.67564" lon="-3.29574">
        <ele>75</ele>
        <time>2015-01-18T09:00:11Z</time>
      </trkpt>
      <trkpt lat="48.67566" lon="-3.29581">
        <ele>75</ele>
        <time>2015-01-18T09:00:12Z</time>
      </trkpt>
      <trkpt lat="48.67568" lon="-3.29587">
        <ele>75</ele>
        <time>2015-01-18T09:00:13Z</time>
      </trkpt>
      <trkpt lat="48.67569" lon="-3.29593">
        <ele>76</ele>
        <time>2015-01-18T09:00:14Z</time>
      </trkpt>
      <trkpt lat="48.67571" lon="-3.296">
        <ele>76</ele>
        <time>2015-01-18T09:00:15Z</time>
      </trkpt>
      <trkpt lat="48.67573" lon="-3.29606">
        <ele>76</ele>
        <time>2015-01-18T09:00:16Z</time>
      </trkpt>
      <trkpt lat="48.67574" lon="-3.29611">
        <ele>76</ele>
        <time>2015-01-18T09:00:17Z</time>
      </trkpt>
      <trkpt lat="48.67576" lon="-3.29617">
        <ele>76</ele>
        <time>2015-01-18T09:00:18Z</time>
      </trkpt>
      <trkpt lat="48.67577" lon="-3.29622">
        <ele>76</ele>
        <time>2015-01-18T09:00:19Z</time>
      </trkpt>
      <trkpt lat="48.67578" lon="-3.29626">
        <ele>77</ele>
        <time>2015-01-18T09:00:20Z</time>
      </trkpt>
      <trkpt lat="48.6758" lon="-3.2963">
        <ele>77</ele>
        <time>2015-01-18T09:00:21Z</time>
      </trkpt>
      <trkpt lat="48.67581" lon="-3.29634">
        <ele>77</ele>
        <time>2015-01-18T09:00:22Z</time>
      </trkpt>
      <trkpt lat="48.67583" lon="-3.29637">
        <ele>77</ele>
        <time>2015-01-18T09:00:23Z</time>
      </trkpt>
      <trkpt lat="48.67585" lon="-3.29639">
        <ele>77</ele>
        <time>2015-01-18T09:00:24Z</time>
      </trkpt>
      <trkpt lat="48.67588" lon="-3.29639">
        <ele>77</ele>
        <time>2015-01-18T09:00:25Z</time>
      </trkpt>
      <trkpt lat="48.67591" lon="-3.2964">
        <ele>77</ele>
        <time>2015-01-18T09:00:26Z</time>
      </trkpt>
      <trkpt lat="48.67594" lon="-3.29642">
        <ele>77</ele>
        <time>2015-01-18T09:00:27Z</time>
      </trkpt>
      <trkpt lat="48.67598" lon="-3.29643">
        <ele>77</ele>
        <time>2015-01-18T09:00:28Z</time>
      </trkpt>
      <trkpt lat="48.67601" lon="-3.29645">
        <ele>77</ele>
        <time>2015-01-18T09:00:29Z</time>
      </trkpt>
      <trkpt lat="48.67604" lon="-3.29647">
        <ele>77</ele>
        <time>2015-01-18T09:00:30Z</time>
      </trkpt>
      <trkpt lat="48.67608" lon="-3.29649">
        <ele>77</ele>
        <time>2015-01-18T09:00:31Z</time>
      </trkpt>
      <trkpt lat="48.67611" lon="-3.29652">
        <ele>77</ele>
        <time>2015-01-18T09:00:32Z</time>
      </trkpt>
      <trkpt lat="48.67614" lon="-3.29654">
        <ele>77</ele>
        <time>2015-01-18T09:00:33Z</time>
      </trkpt>
      <trkpt lat="48.67618" lon="-3.29657">
        <ele>77</ele>
        <time>2015-01-18T09:00:34Z</time>
      </trkpt>
      <trkpt lat="48.67621" lon="-3.29659">
        <ele>77</ele>
        <time>2015-01-18T09:00:35Z</time>
      </trkpt>
      <trkpt lat="48.67624" lon="-3.29661">
        <ele>77</ele>
        <time>2015-01-18T09:00:36Z</time>
      </trkpt>
      <trkpt lat="48.67627" lon="-3.29662">
        <ele>77</ele>
        <time>2015-01-18T09:00:37Z</time>
      </trkpt>
      <trkpt lat="48.67631" lon="-3.29664">
        <ele>77</ele>
        <time>2015-01-18T09:00:38Z</time>
      </trkpt>
      <trkpt lat="48.67634" lon="-3.29666">
        <ele>77</ele>
        <time>2015-01-18T09:00:39Z</time>
      </trkpt>
      <trkpt lat="48.67637" lon="-3.29669">
        <ele>77</ele>
        <time>2015-01-18T09:00:40Z</time>
      </trkpt>
      <trkpt lat="48.67639" lon="-3.29671">
        <ele>77</ele>
        <time>2015-01-18T09:00:41Z</time>
      </trkpt>
      <trkpt lat="48.67642" lon="-3.29672">
        <ele>77</ele>
        <time>2015-01-18T09:00:42Z</time>
      </trkpt>
      <trkpt lat="48.67644" lon="-3.29674">
        <ele>77</ele>
        <time>2015-01-18T09:00:43Z</time>
      </trkpt>
      <trkpt lat="48.67647" lon="-3.29676">
        <ele>77</ele>
        <time>2015-01-18T09:00:44Z</time>
      </trkpt>
      <trkpt lat="48.67649" lon="-3.29678">
        <ele>77</ele>
        <time>2015-01-18T09:00:45Z</time>
      </trkpt>
      <trkpt lat="48.67651" lon="-3.29679">
        <ele>77</ele>
        <time>2015-01-18T09:00:46Z</time>
      </trkpt>
      <trkpt lat="48.67653" lon="-3.2968">
        <ele>77</ele>
        <time>2015-01-18T09:00:47Z</time>
      </trkpt>
      <trkpt lat="48.67656" lon="-3.2968">
        <ele>77</ele>
        <time>2015-01-18T09:00:48Z</time>
      </trkpt>
      <trkpt lat="48.67658" lon="-3.29681">
        <ele>77</ele>
        <time>2015-01-18T09:00:49Z</time>
      </trkpt>
      <trkpt lat="48.67661" lon="-3.29682">
        <ele>77</ele>
        <time>2015-01-18T09:00:50Z</time>
      </trkpt>
      <trkpt lat="48.67664" lon="-3.29684">
        <ele>77</ele>
        <time>2015-01-18T09:00:51Z</time>
      </trkpt>
      <trkpt lat="48.67668" lon="-3.29686">
        <ele>77</ele>
        <time>2015-01-18T09:00:52Z</time>
      </trkpt>
      <trkpt lat="48.67672" lon="-3.29689">
        <ele>77</ele>
        <time>2015-01-18T09:00:53Z</time>
      </trkpt>
      <trkpt lat="48.67675" lon="-3.29691">
        <ele>77</ele>
        <time>2015-01-18T09:00:54Z</time>
      </trkpt>
      <trkpt lat="48.67679" lon="-3.29693">
        <ele>77</ele>
        <time>2015-01-18T09:00:55Z</time>
      </trkpt>
      <trkpt lat="48.67682" lon="-3.29696">
        <ele>77</ele>
        <time>2015-01-18T09:00:56Z</time>
      </trkpt>
      <trkpt lat="48.67686" lon="-3.29698">
        <ele>77</ele>
        <time>2015-01-18T09:00:57Z</time>
      </trkpt>
      <trkpt lat="48.6769" lon="-3.297">
        <ele>77</ele>
        <time>2015-01-18T09:00:58Z</time>
      </trkpt>
      <trkpt lat="48.67693" lon="-3.29703">
        <ele>77</ele>
        <time>2015-01-18T09:00:59Z</time>
      </trkpt>
      <trkpt lat="48.67696" lon="-3.29706">
        <ele>77</ele>
        <time>2015-01-18T09:01:00Z</time>
      </trkpt>
      <trkpt lat="48.67699" lon="-3.2971">
        <ele>77</ele>
        <time>2015-01-18T09:01:01Z</time>
      </trkpt>
      <trkpt lat="48.67703" lon="-3.29714">
        <ele>77</ele>
        <time>2015-01-18T09:01:02Z</time>
      </trkpt>
      <trkpt lat="48.67706" lon="-3.29718">
        <ele>77</ele>
        <time>2015-01-18T09:01:03Z</time>
      </trkpt>
      <trkpt lat="48.67709" lon="-3.29723">
        <ele>77</ele>
        <time>2015-01-18T09:01:04Z</time>
      </trkpt>
      <trkpt lat="48.67712" lon="-3.29728">
        <ele>77</ele>
        <time>2015-01-18T09:01:05Z</time>
      </trkpt>
      <trkpt lat="48.67714" lon="-3.29733">
        <ele>77</ele>
        <time>2015-01-18T09:01:06Z</time>
      </trkpt>
      <trkpt lat="48.67717" lon="-3.29738">
        <ele>77</ele>
        <time>2015-01-18T09:01:07Z</time>
      </trkpt>
      <trkpt lat="48.6772" lon="-3.29743">
        <ele>77</ele>
        <time>2015-01-18T09:01:08Z</time>
      </trkpt>
      <trkpt lat="48.67722" lon="-3.29748">
        <ele>77</ele>
        <time>2015-01-18T09:01:09Z</time>
      </trkpt>
      <trkpt lat="48.67724" lon="-3.29753">
        <ele>77</ele>
        <time>2015-01-18T09:01:10Z</time>
      </trkpt>
      <trkpt lat="48.67725" lon="-3.29758">
        <ele>77</ele>
        <time>2015-01-18T09:01:11Z</time>
      </trkpt>
      <trkpt lat="48.67727" lon="-3.29763">
        <ele>77</ele>
        <time>2015-01-18T09:01:12Z</time>
      </trkpt>
      <trkpt lat="48.67728" lon="-3.29768">
        <ele>77</ele>
        <time>2015-01-18T09:01:13Z</time>
      </trkpt>
      <trkpt lat="48.67728" lon="-3.29773">
        <ele>77</ele>
        <time>2015-01-18T09:01:14Z</time>
      </trkpt>
      <trkpt lat="48.67729" lon="-3.29778">
        <ele>77</ele>
        <time>2015-01-18T09:01:15Z</time>
      </trkpt>
      <trkpt lat="48.6773" lon="-3.29782">
        <ele>77</ele>
        <time>2015-01-18T09:01:16Z</time>
      </trkpt>
      <trkpt lat="48.67731" lon="-3.29786">
        <ele>77</ele>
        <time>2015-01-18T09:01:17Z</time>
      </trkpt>
      <trkpt lat="48.67732" lon="-3.29791">
        <ele>77</ele>
        <time>2015-01-18T09:01:18Z</time>
      </trkpt>
      <trkpt lat="48.67733" lon="-3.29794">
        <ele>77</ele>
        <time>2015-01-18T09:01:19Z</time>
      </trkpt>
      <trkpt lat="48.67735" lon="-3.29797">
        <ele>77</ele>
        <time>2015-01-18T09:01:20Z</time>
      </trkpt>
      <trkpt lat="48.67736" lon="-3.298">
        <ele>77</ele>
        <time>2015-01-18T09:01:21Z</time>
      </trkpt>
      <trkpt lat="48.67737" lon="-3.29802">
        <ele>77</ele>
        <time>2015-01-18T09:01:22Z</time>
      </trkpt>
      <trkpt lat="48.67739" lon="-3.29805">
        <ele>77</ele>
        <time>2015-01-18T09:01:23Z</time>
      </trkpt>
      <trkpt lat="48.67741" lon="-3.29808">
        <ele>77</ele>
        <time>2015-01-18T09:01:24Z</time>
      </trkpt>
      <trkpt lat="48.67743" lon="-3.29811">
        <ele>77</ele>
        <time>2015-01-18T09:01:25Z</time>
      </trkpt>
      <trkpt lat="48.67746" lon="-3.29814">
        <ele>77</ele>
        <time>2015-01-18T09:01:26Z</time>
      </trkpt>
      <trkpt lat="48.67749" lon="-3.29818">
        <ele>77</ele>
        <time>2015-01-18T09:01:27Z</time>
      </trkpt>
      <trkpt lat="48.67751" lon="-3.29821">
        <ele>77</ele>
        <time>2015-01-18T09:01:28Z</time>
      </trkpt>
      <trkpt lat="48.67754" lon="-3.29824">
        <ele>77</ele>
        <time>2015-01-18T09:01:29Z</time>
      </trkpt>
      <trkpt lat="48.67757" lon="-3.29828">
        <ele>77</ele>
        <time>2015-01-18T09:01:30Z</time>
      </trkpt>
      <trkpt lat="48.67761" lon="-3.29832">
        <ele>77</ele>
        <time>2015-01-18T09:01:31Z</time>
      </trkpt>
      <trkpt lat="48.67764" lon="-3.29835">
        <ele>77</ele>
        <time>2015-01-18T09:01:32Z</time>
      </trkpt>
      <trkpt lat="48.67767" lon="-3.29839">
        <ele>77</ele>
        <time>2015-01-18T09:01:33Z</time>
      </trkpt>
      <trkpt lat="48.6777" lon="-3.29843">
        <ele>77</ele>
        <time>2015-01-18T09:01:34Z</time>
      </trkpt>
      <trkpt lat="48.67774" lon="-3.29848">
        <ele>77</ele>
        <time>2015-01-18T09:01:35Z</time>
      </trkpt>
      <trkpt lat="48.67777" lon="-3.29852">
        <ele>77</ele>
        <time>2015-01-18T09:01:36Z</time>
      </trkpt>
      <trkpt lat="48.67781" lon="-3.29856">
        <ele>77</ele>
        <time>2015-01-18T09:01:37Z</time>
      </trkpt>
      <trkpt lat="48.67785" lon="-3.29861">
        <ele>77</ele>
        <time>2015-01-18T09:01:38Z</time>
      </trkpt>
      <trkpt lat="48.67789" lon="-3.29865">
        <ele>77</ele>
        <time>2015-01-18T09:01:39Z</time>
      </trkpt>
      <trkpt lat="48.67794" lon="-3.29869">
        <ele>77</ele>
        <time>2015-01-18T09:01:40Z</time>
      </trkpt>
      <trkpt lat="48.67798" lon="-3.29874">
        <ele>78</ele>
        <time>2015-01-18T09:01:41Z</time>
      </trkpt>
      <trkpt lat="48.67802" lon="-3.29879">
        <ele>78</ele>
        <time>2015-01-18T09:01:42Z</time>
      </trkpt>
      <trkpt lat="48.67807" lon="-3.29883">
        <ele>78</ele>
        <time>2015-01-18T09:01:43Z</time>
      </trkpt>
      <trkpt lat="48.67811" lon="-3.29888">
        <ele>78</ele>
        <time>2015-01-18T09:01:44Z</time>
      </trkpt>
      <trkpt lat="48.67815" lon="-3.29892">
        <ele>78</ele>
        <time>2015-01-18T09:01:45Z</time>
      </trkpt>
      <trkpt lat="48.6782" lon="-3.29897">
        <ele>78</ele>
        <time>2015-01-18T09:01:46Z</time>
      </trkpt>
      <trkpt lat="48.67823" lon="-3.29902">
        <ele>79</ele>
        <time>2015-01-18T09:01:47Z</time>
      </trkpt>
      <trkpt lat="48.67828" lon="-3.29908">
        <ele>79</ele>
        <time>2015-01-18T09:01:48Z</time>
      </trkpt>
      <trkpt lat="48.67832" lon="-3.29913">
        <ele>79</ele>
        <time>2015-01-18T09:01:49Z</time>
      </trkpt>
      <trkpt lat="48.67836" lon="-3.29919">
        <ele>79</ele>
        <time>2015-01-18T09:01:50Z</time>
      </trkpt>
      <trkpt lat="48.6784" lon="-3.29925">
        <ele>79</ele>
        <time>2015-01-18T09:01:51Z</time>
      </trkpt>
      <trkpt lat="48.67844" lon="-3.29931">
        <ele>79</ele>
        <time>2015-01-18T09:01:52Z</time>
      </trkpt>
      <trkpt lat="48.67848" lon="-3.29937">
        <ele>79</ele>
        <time>2015-01-18T09:01:53Z</time>
      </trkpt>
      <trkpt lat="48.67853" lon="-3.29944">
        <ele>79</ele>
        <time>2015-01-18T09:01:54Z</time>
      </trkpt>
      <trkpt lat="48.67858" lon="-3.2995">
        <ele>79</ele>
        <time>2015-01-18T09:01:55Z</time>
      </trkpt>
      <trkpt lat="48.67863" lon="-3.29956">
        <ele>79</ele>
        <time>2015-01-18T09:01:56Z</time>
      </trkpt>
      <trkpt lat="48.67868" lon="-3.29962">
        <ele>79</ele>
        <time>2015-01-18T09:01:57Z</time>
      </trkpt>
      <trkpt lat="48.67874" lon="-3.29969">
        <ele>79</ele>
        <time>2015-01-18T09:01:58Z</time>
      </trkpt>
      <trkpt lat="48.67879" lon="-3.29975">
        <ele>79</ele>
        <time>2015-01-18T09:01:59Z</time>
      </trkpt>
      <trkpt lat="48.67885" lon="-3.29983">
        <ele>79</ele>
        <time>2015-01-18T09:02:00Z</time>
      </trkpt>
      <trkpt lat="48.6789" lon="-3.29991">
        <ele>79</ele>
        <time>2015-01-18T09:02:01Z</time>
      </trkpt>
      <trkpt lat="48.67895" lon="-3.29999">
        <ele>79</ele>
        <time>2015-01-18T09:02:02Z</time>
      </trkpt>
      <trkpt lat="48.679" lon="-3.30008">
        <ele>79</ele>
        <time>2015-01-18T09:02:03Z</time>
      </trkpt>
      <trkpt lat="48.67905" lon="-3.30018">
        <ele>79</ele>
        <time>2015-01-18T09:02:04Z</time>
      </trkpt>
      <trkpt lat="48.6791" lon="-3.30027">
        <ele>79</ele>
        <time>2015-01-18T09:02:05Z</time>
      </trkpt>
      <trkpt lat="48.67915" lon="-3.30036">
        <ele>79</ele>
        <time>2015-01-18T09:02:06Z</time>
      </trkpt>
      <trkpt lat="48.6792" lon="-3.30046">
        <ele>79</ele>
        <time>2015-01-18T09:02:07Z</time>
      </trkpt>
      <trkpt lat="48.67925" lon="-3.30055">
        <ele>79</ele>
        <time>2015-01-18T09:02:08Z</time>
      </trkpt>
      <trkpt lat="48.6793" lon="-3.30065">
        <ele>79</ele>
        <time>2015-01-18T09:02:09Z</time>
      </trkpt>
      <trkpt lat="48.67935" lon="-3.30074">
        <ele>79</ele>
        <time>2015-01-18T09:02:10Z</time>
      </trkpt>
      <trkpt lat="48.6794" lon="-3.30083">
        <ele>79</ele>
        <time>2015-01-18T09:02:11Z</time>
      </trkpt>
      <trkpt lat="48.67944" lon="-3.30093">
        <ele>79</ele>
        <time>2015-01-18T09:02:12Z</time>
      </trkpt>
      <trkpt lat="48.67949" lon="-3.30101">
        <ele>79</ele>
        <time>2015-01-18T09:02:13Z</time>
      </trkpt>
      <trkpt lat="48.67954" lon="-3.3011">
        <ele>79</ele>
        <time>2015-01-18T09:02:14Z</time>
      </trkpt>
      <trkpt lat="48.67958" lon="-3.30118">
        <ele>79</ele>
        <time>2015-01-18T09:02:15Z</time>
      </trkpt>
      <trkpt lat="48.67962" lon="-3.30125">
        <ele>79</ele>
        <time>2015-01-18T09:02:16Z</time>
      </trkpt>
      <trkpt lat="48.67966" lon="-3.30133">
        <ele>79</ele>
        <time>2015-01-18T09:02:17Z</time>
      </trkpt>
      <trkpt lat="48.6797" lon="-3.30139">
        <ele>79</ele>
        <time>2015-01-18T09:02:18Z</time>
      </trkpt>
      <trkpt lat="48.67974" lon="-3.30146">
        <ele>79</ele>
        <time>2015-01-18T09:02:19Z</time>
      </trkpt>
      <trkpt lat="48.67978" lon="-3.30152">
        <ele>79</ele>
        <time>2015-01-18T09:02:20Z</time>
      </trkpt>
      <trkpt lat="48.67981" lon="-3.30159">
        <ele>79</ele>
        <time>2015-01-18T09:02:21Z</time>
      </trkpt>
      <trkpt lat="48.67986" lon="-3.30166">
        <ele>79</ele>
        <time>2015-01-18T09:02:22Z</time>
      </trkpt>
      <trkpt lat="48.67989" lon="-3.30173">
        <ele>80</ele>
        <time>2015-01-18T09:02:23Z</time>
      </trkpt>
      <trkpt lat="48.67993" lon="-3.3018">
        <ele>80</ele>
        <time>2015-01-18T09:02:24Z</time>
      </trkpt>
      <trkpt lat="48.67997" lon="-3.30187">
        <ele>80</ele>
        <time>2015-01-18T09:02:25Z</time>
      </trkpt>
      <trkpt lat="48.68001" lon="-3.30195">
        <ele>80</ele>
        <time>2015-01-18T09:02:26Z</time>
      </trkpt>
      <trkpt lat="48.68005" lon="-3.30202">
        <ele>80</ele>
        <time>2015-01-18T09:02:27Z</time>
      </trkpt>
      <trkpt lat="48.68009" lon="-3.30209">
        <ele>80</ele>
        <time>2015-01-18T09:02:28Z</time>
      </trkpt>
      <trkpt lat="48.68013" lon="-3.30217">
        <ele>80</ele>
        <time>2015-01-18T09:02:29Z</time>
      </trkpt>
      <trkpt lat="48.68017" lon="-3.30224">
        <ele>80</ele>
        <time>2015-01-18T09:02:30Z</time>
      </trkpt>
      <trkpt lat="48.68021" lon="-3.30231">
        <ele>80</ele>
        <time>2015-01-18T09:02:31Z</time>
      </trkpt>
      <trkpt lat="48.68025" lon="-3.30238">
        <ele>80</ele>
        <time>2015-01-18T09:02:32Z</time>
      </trkpt>
      <trkpt lat="48.68029" lon="-3.30245">
        <ele>80</ele>
        <time>2015-01-18T09:02:33Z</time>
      </trkpt>
      <trkpt lat="48.68033" lon="-3.30253">
        <ele>80</ele>
        <time>2015-01-18T09:02:34Z</time>
      </trkpt>
      <trkpt lat="48.68037" lon="-3.30259">
        <ele>80</ele>
        <time>2015-01-18T09:02:35Z</time>
      </trkpt>
      <trkpt lat="48.68041" lon="-3.30266">
        <ele>80</ele>
        <time>2015-01-18T09:02:36Z</time>
      </trkpt>
      <trkpt lat="48.68045" lon="-3.30273">
        <ele>80</ele>
        <time>2015-01-18T09:02:37Z</time>
      </trkpt>
      <trkpt lat="48.68049" lon="-3.30279">
        <ele>80</ele>
        <time>2015-01-18T09:02:38Z</time>
      </trkpt>
      <trkpt lat="48.68053" lon="-3.30285">
        <ele>80</ele>
        <time>2015-01-18T09:02:39Z</time>
      </trkpt>
      <trkpt lat="48.68057" lon="-3.30291">
        <ele>80</ele>
        <time>2015-01-18T09:02:40Z</time>
      </trkpt>
      <trkpt lat="48.68061" lon="-3.30297">
        <ele>81</ele>
        <time>2015-01-18T09:02:41Z</time>
      </trkpt>
      <trkpt lat="48.68065" lon="-3.30303">
        <ele>81</ele>
        <time>2015-01-18T09:02:42Z</time>
      </trkpt>
      <trkpt lat="48.68069" lon="-3.30308">
        <ele>81</ele>
        <time>2015-01-18T09:02:43Z</time>
      </trkpt>
      <trkpt lat="48.68074" lon="-3.30313">
        <ele>81</ele>
        <time>2015-01-18T09:02:44Z</time>
      </trkpt>
      <trkpt lat="48.68078" lon="-3.30319">
        <ele>81</ele>
        <time>2015-01-18T09:02:45Z</time>
      </trkpt>
      <trkpt lat="48.68082" lon="-3.30325">
        <ele>81</ele>
        <time>2015-01-18T09:02:46Z</time>
      </trkpt>
      <trkpt lat="48.68086" lon="-3.3033">
        <ele>81</ele>
        <time>2015-01-18T09:02:47Z</time>
      </trkpt>
      <trkpt lat="48.68091" lon="-3.30336">
        <ele>81</ele>
        <time>2015-01-18T09:02:48Z</time>
      </trkpt>
      <trkpt lat="48.68095" lon="-3.30341">
        <ele>81</ele>
        <time>2015-01-18T09:02:49Z</time>
      </trkpt>
      <trkpt lat="48.68099" lon="-3.30346">
        <ele>81</ele>
        <time>2015-01-18T09:02:50Z</time>
      </trkpt>
      <trkpt lat="48.68104" lon="-3.30351">
        <ele>82</ele>
        <time>2015-01-18T09:02:51Z</time>
      </trkpt>
      <trkpt lat="48.68108" lon="-3.30357">
        <ele>82</ele>
        <time>2015-01-18T09:02:52Z</time>
      </trkpt>
      <trkpt lat="48.68112" lon="-3.30362">
        <ele>82</ele>
        <time>2015-01-18T09:02:53Z</time>
      </trkpt>
      <trkpt lat="48.68117" lon="-3.30367">
        <ele>82</ele>
        <time>2015-01-18T09:02:54Z</time>
      </trkpt>
      <trkpt lat="48.68121" lon="-3.30373">
        <ele>83</ele>
        <time>2015-01-18T09:02:55Z</time>
      </trkpt>
      <trkpt lat="48.68126" lon="-3.30378">
        <ele>83</ele>
        <time>2015-01-18T09:02:56Z</time>
      </trkpt>
      <trkpt lat="48.6813" lon="-3.30383">
        <ele>83</ele>
        <time>2015-01-18T09:02:57Z</time>
      </trkpt>
      <trkpt lat="48.68134" lon="-3.30389">
        <ele>83</ele>
        <time>2015-01-18T09:02:58Z</time>
      </trkpt>
      <trkpt lat="48.68139" lon="-3.30394">
        <ele>83</ele>
        <time>2015-01-18T09:02:59Z</time>
      </trkpt>
      <trkpt lat="48.68143" lon="-3.30399">
        <ele>83</ele>
        <time>2015-01-18T09:03:00Z</time>
      </trkpt>
      <trkpt lat="48.68148" lon="-3.30405">
        <ele>83</ele>
        <time>2015-01-18T09:03:01Z</time>
      </trkpt>
      <trkpt lat="48.68152" lon="-3.3041">
        <ele>84</ele>
        <time>2015-01-18T09:03:02Z</time>
      </trkpt>
      <trkpt lat="48.68156" lon="-3.30415">
        <ele>84</ele>
        <time>2015-01-18T09:03:03Z</time>
      </trkpt>
      <trkpt lat="48.68161" lon="-3.3042">
        <ele>84</ele>
        <time>2015-01-18T09:03:04Z</time>
      </trkpt>
      <trkpt lat="48.68166" lon="-3.30426">
        <ele>84</ele>
        <time>2015-01-18T09:03:05Z</time>
      </trkpt>
      <trkpt lat="48.6817" lon="-3.30431">
        <ele>84</ele>
        <time>2015-01-18T09:03:06Z</time>
      </trkpt>
      <trkpt lat="48.68175" lon="-3.30435">
        <ele>84</ele>
        <time>2015-01-18T09:03:07Z</time>
      </trkpt>
      <trkpt lat="48.68179" lon="-3.3044">
        <ele>84</ele>
        <time>2015-01-18T09:03:08Z</time>
      </trkpt>
      <trkpt lat="48.68183" lon="-3.30445">
        <ele>84</ele>
        <time>2015-01-18T09:03:09Z</time>
      </trkpt>
      <trkpt lat="48.68187" lon="-3.3045">
        <ele>84</ele>
        <time>2015-01-18T09:03:10Z</time>
      </trkpt>
      <trkpt lat="48.68192" lon="-3.30455">
        <ele>84</ele>
        <time>2015-01-18T09:03:11Z</time>
      </trkpt>
      <trkpt lat="48.68196" lon="-3.3046">
        <ele>84</ele>
        <time>2015-01-18T09:03:12Z</time>
      </trkpt>
      <trkpt lat="48.682" lon="-3.30466">
        <ele>84</ele>
        <time>2015-01-18T09:03:13Z</time>
      </trkpt>
      <trkpt lat="48.68204" lon="-3.30472">
        <ele>84</ele>
        <time>2015-01-18T09:03:14Z</time>
      </trkpt>
      <trkpt lat="48.68208" lon="-3.30479">
        <ele>84</ele>
        <time>2015-01-18T09:03:15Z</time>
      </trkpt>
      <trkpt lat="48.68212" lon="-3.30485">
        <ele>84</ele>
        <time>2015-01-18T09:03:16Z</time>
      </trkpt>
      <trkpt lat="48.68216" lon="-3.30491">
        <ele>84</ele>
        <time>2015-01-18T09:03:17Z</time>
      </trkpt>
      <trkpt lat="48.6822" lon="-3.30498">
        <ele>84</ele>
        <time>2015-01-18T09:03:18Z</time>
      </trkpt>
      <trkpt lat="48.68224" lon="-3.30504">
        <ele>85</ele>
        <time>2015-01-18T09:03:19Z</time>
      </trkpt>
      <trkpt lat="48.68228" lon="-3.3051">
        <ele>85</ele>
        <time>2015-01-18T09:03:20Z</time>
      </trkpt>
      <trkpt lat="48.68232" lon="-3.30516">
        <ele>85</ele>
        <time>2015-01-18T09:03:21Z</time>
      </trkpt>
      <trkpt lat="48.68235" lon="-3.30521">
        <ele>85</ele>
        <time>2015-01-18T09:03:22Z</time>
      </trkpt>
      <trkpt lat="48.68239" lon="-3.30527">
        <ele>85</ele>
        <time>2015-01-18T09:03:23Z</time>
      </trkpt>
      <trkpt lat="48.68243" lon="-3.30533">
        <ele>85</ele>
        <time>2015-01-18T09:03:24Z</time>
      </trkpt>
      <trkpt lat="48.68247" lon="-3.30538">
        <ele>85</ele>
        <time>2015-01-18T09:03:25Z</time>
      </trkpt>
      <trkpt lat="48.68251" lon="-3.30543">
        <ele>85</ele>
        <time>2015-01-18T09:03:26Z</time>
      </trkpt>
      <trkpt lat="48.68256" lon="-3.30549">
        <ele>85</ele>
        <time>2015-01-18T09:03:27Z</time>
      </trkpt>
      <trkpt lat="48.6826" lon="-3.30555">
        <ele>85</ele>
        <time>2015-01-18T09:03:28Z</time>
      </trkpt>
      <trkpt lat="48.68264" lon="-3.30561">
        <ele>86</ele>
        <time>2015-01-18T09:03:29Z</time>
      </trkpt>
      <trkpt lat="48.68268" lon="-3.30567">
        <ele>86</ele>
        <time>2015-01-18T09:03:30Z</time>
      </trkpt>
      <trkpt lat="48.68272" lon="-3.30573">
        <ele>86</ele>
        <time>2015-01-18T09:03:31Z</time>
      </trkpt>
      <trkpt lat="48.68277" lon="-3.30579">
        <ele>86</ele>
        <time>2015-01-18T09:03:32Z</time>
      </trkpt>
      <trkpt lat="48.68281" lon="-3.30585">
        <ele>87</ele>
        <time>2015-01-18T09:03:33Z</time>
      </trkpt>
      <trkpt lat="48.68286" lon="-3.30591">
        <ele>87</ele>
        <time>2015-01-18T09:03:34Z</time>
      </trkpt>
      <trkpt lat="48.6829" lon="-3.30596">
        <ele>87</ele>
        <time>2015-01-18T09:03:35Z</time>
      </trkpt>
      <trkpt lat="48.68295" lon="-3.30602">
        <ele>87</ele>
        <time>2015-01-18T09:03:36Z</time>
      </trkpt>
      <trkpt lat="48.68299" lon="-3.30608">
        <ele>88</ele>
        <time>2015-01-18T09:03:37Z</time>
      </trkpt>
      <trkpt lat="48.68304" lon="-3.30614">
        <ele>88</ele>
        <time>2015-01-18T09:03:38Z</time>
      </trkpt>
      <trkpt lat="48.68308" lon="-3.3062">
        <ele>88</ele>
        <time>2015-01-18T09:03:39Z</time>
      </trkpt>
      <trkpt lat="48.68313" lon="-3.30626">
        <ele>88</ele>
        <time>2015-01-18T09:03:40Z</time>
      </trkpt>
      <trkpt lat="48.68317" lon="-3.30631">
        <ele>89</ele>
        <time>2015-01-18T09:03:41Z</time>
      </trkpt>
      <trkpt lat="48.68322" lon="-3.30638">
        <ele>89</ele>
        <time>2015-01-18T09:03:42Z</time>
      </trkpt>
      <trkpt lat="48.68326" lon="-3.30644">
        <ele>89</ele>
        <time>2015-01-18T09:03:43Z</time>
      </trkpt>
      <trkpt lat="48.6833" lon="-3.30651">
        <ele>89</ele>
        <time>2015-01-18T09:03:44Z</time>
      </trkpt>
      <trkpt lat="48.68333" lon="-3.30657">
        <ele>89</ele>
        <time>2015-01-18T09:03:45Z</time>
      </trkpt>
      <trkpt lat="48.68337" lon="-3.30664">
        <ele>89</ele>
        <time>2015-01-18T09:03:46Z</time>
      </trkpt>
      <trkpt lat="48.68341" lon="-3.30671">
        <ele>90</ele>
        <time>2015-01-18T09:03:47Z</time>
      </trkpt>
      <trkpt lat="48.68344" lon="-3.30678">
        <ele>90</ele>
        <time>2015-01-18T09:03:48Z</time>
      </trkpt>
      <trkpt lat="48.68348" lon="-3.30686">
        <ele>90</ele>
        <time>2015-01-18T09:03:49Z</time>
      </trkpt>
      <trkpt lat="48.68351" lon="-3.30693">
        <ele>90</ele>
        <time>2015-01-18T09:03:50Z</time>
      </trkpt>
      <trkpt lat="48.68354" lon="-3.30701">
        <ele>90</ele>
        <time>2015-01-18T09:03:51Z</time>
      </trkpt>
      <trkpt lat="48.68357" lon="-3.30709">
        <ele>90</ele>
        <time>2015-01-18T09:03:52Z</time>
      </trkpt>
      <trkpt lat="48.68361" lon="-3.30717">
        <ele>90</ele>
        <time>2015-01-18T09:03:53Z</time>
      </trkpt>
      <trkpt lat="48.68364" lon="-3.30725">
        <ele>90</ele>
        <time>2015-01-18T09:03:54Z</time>
      </trkpt>
      <trkpt lat="48.68367" lon="-3.30734">
        <ele>90</ele>
        <time>2015-01-18T09:03:55Z</time>
      </trkpt>
      <trkpt lat="48.6837" lon="-3.30742">
        <ele>90</ele>
        <time>2015-01-18T09:03:56Z</time>
      </trkpt>
      <trkpt lat="48.68373" lon="-3.30751">
        <ele>90</ele>
        <time>2015-01-18T09:03:57Z</time>
      </trkpt>
      <trkpt lat="48.68376" lon="-3.30761">
        <ele>90</ele>
        <time>2015-01-18T09:03:58Z</time>
      </trkpt>
      <trkpt lat="48.68379" lon="-3.3077">
        <ele>90</ele>
        <time>2015-01-18T09:03:59Z</time>
      </trkpt>
      <trkpt lat="48.68382" lon="-3.30779">
        <ele>90</ele>
        <time>2015-01-18T09:04:00Z</time>
      </trkpt>
      <trkpt lat="48.68385" lon="-3.30788">
        <ele>90</ele>
        <time>2015-01-18T09:04:01Z</time>
      </trkpt>
      <trkpt lat="48.68388" lon="-3.30797">
        <ele>90</ele>
        <time>2015-01-18T09:04:02Z</time>
      </trkpt>
      <trkpt lat="48.68391" lon="-3.30805">
        <ele>90</ele>
        <time>2015-01-18T09:04:03Z</time>
      </trkpt>
      <trkpt lat="48.68395" lon="-3.30814">
        <ele>90</ele>
        <time>2015-01-18T09:04:04Z</time>
      </trkpt>
      <trkpt lat="48.68398" lon="-3.30822">
        <ele>90</ele>
        <time>2015-01-18T09:04:05Z</time>
      </trkpt>
      <trkpt lat="48.68402" lon="-3.30831">
        <ele>90</ele>
        <time>2015-01-18T09:04:06Z</time>
      </trkpt>
      <trkpt lat="48.68406" lon="-3.30839">
        <ele>90</ele>
        <time>2015-01-18T09:04:07Z</time>
      </trkpt>
      <trkpt lat="48.6841" lon="-3.30846">
        <ele>91</ele>
        <time>2015-01-18T09:04:08Z</time>
      </trkpt>
      <trkpt lat="48.68414" lon="-3.30854">
        <ele>91</ele>
        <time>2015-01-18T09:04:09Z</time>
      </trkpt>
      <trkpt lat="48.68419" lon="-3.30861">
        <ele>91</ele>
        <time>2015-01-18T09:04:10Z</time>
      </trkpt>
      <trkpt lat="48.68423" lon="-3.30869">
        <ele>91</ele>
        <time>2015-01-18T09:04:11Z</time>
      </trkpt>
      <trkpt lat="48.68427" lon="-3.30875">
        <ele>91</ele>
        <time>2015-01-18T09:04:12Z</time>
      </trkpt>
      <trkpt lat="48.68432" lon="-3.30883">
        <ele>91</ele>
        <time>2015-01-18T09:04:13Z</time>
      </trkpt>
      <trkpt lat="48.68436" lon="-3.30889">
        <ele>91</ele>
        <time>2015-01-18T09:04:14Z</time>
      </trkpt>
      <trkpt lat="48.6844" lon="-3.30896">
        <ele>91</ele>
        <time>2015-01-18T09:04:15Z</time>
      </trkpt>
      <trkpt lat="48.68445" lon="-3.30903">
        <ele>92</ele>
        <time>2015-01-18T09:04:16Z</time>
      </trkpt>
      <trkpt lat="48.68449" lon="-3.3091">
        <ele>92</ele>
        <time>2015-01-18T09:04:17Z</time>
      </trkpt>
      <trkpt lat="48.68453" lon="-3.30917">
        <ele>92</ele>
        <time>2015-01-18T09:04:18Z</time>
      </trkpt>
      <trkpt lat="48.68458" lon="-3.30924">
        <ele>92</ele>
        <time>2015-01-18T09:04:19Z</time>
      </trkpt>
      <trkpt lat="48.68462" lon="-3.30931">
        <ele>92</ele>
        <time>2015-01-18T09:04:20Z</time>
      </trkpt>
      <trkpt lat="48.68466" lon="-3.30938">
        <ele>92</ele>
        <time>2015-01-18T09:04:21Z</time>
      </trkpt>
      <trkpt lat="48.68471" lon="-3.30945">
        <ele>92</ele>
        <time>2015-01-18T09:04:22Z</time>
      </trkpt>
      <trkpt lat="48.68475" lon="-3.30952">
        <ele>92</ele>
        <time>2015-01-18T09:04:23Z</time>
      </trkpt>
      <trkpt lat="48.6848" lon="-3.30958">
        <ele>93</ele>
        <time>2015-01-18T09:04:24Z</time>
      </trkpt>
      <trkpt lat="48.68484" lon="-3.30965">
        <ele>93</ele>
        <time>2015-01-18T09:04:25Z</time>
      </trkpt>
      <trkpt lat="48.68488" lon="-3.30972">
        <ele>93</ele>
        <time>2015-01-18T09:04:26Z</time>
      </trkpt>
      <trkpt lat="48.68492" lon="-3.30979">
        <ele>93</ele>
        <time>2015-01-18T09:04:27Z</time>
      </trkpt>
      <trkpt lat="48.68497" lon="-3.30986">
        <ele>93</ele>
        <time>2015-01-18T09:04:28Z</time>
      </trkpt>
      <trkpt lat="48.68501" lon="-3.30992">
        <ele>93</ele>
        <time>2015-01-18T09:04:29Z</time>
      </trkpt>
      <trkpt lat="48.68505" lon="-3.30999">
        <ele>93</ele>
        <time>2015-01-18T09:04:30Z</time>
      </trkpt>
      <trkpt lat="48.68509" lon="-3.31006">
        <ele>93</ele>
        <time>2015-01-18T09:04:31Z</time>
      </trkpt>
      <trkpt lat="48.68513" lon="-3.31013">
        <ele>93</ele>
        <time>2015-01-18T09:04:32Z</time>
      </trkpt>
      <trkpt lat="48.68517" lon="-3.3102">
        <ele>93</ele>
        <time>2015-01-18T09:04:33Z</time>
      </trkpt>
      <trkpt lat="48.6852" lon="-3.31027">
        <ele>93</ele>
        <time>2015-01-18T09:04:34Z</time>
      </trkpt>
      <trkpt lat="48.68524" lon="-3.31034">
        <ele>94</ele>
        <time>2015-01-18T09:04:35Z</time>
      </trkpt>
      <trkpt lat="48.68527" lon="-3.31042">
        <ele>94</ele>
        <time>2015-01-18T09:04:36Z</time>
      </trkpt>
      <trkpt lat="48.6853" lon="-3.3105">
        <ele>94</ele>
        <time>2015-01-18T09:04:37Z</time>
      </trkpt>
      <trkpt lat="48.68533" lon="-3.31059">
        <ele>94</ele>
        <time>2015-01-18T09:04:38Z</time>
      </trkpt>
      <trkpt lat="48.68536" lon="-3.31067">
        <ele>94</ele>
        <time>2015-01-18T09:04:39Z</time>
      </trkpt>
      <trkpt lat="48.68539" lon="-3.31075">
        <ele>94</ele>
        <time>2015-01-18T09:04:40Z</time>
      </trkpt>
      <trkpt lat="48.68542" lon="-3.31083">
        <ele>94</ele>
        <time>2015-01-18T09:04:41Z</time>
      </trkpt>
      <trkpt lat="48.68545" lon="-3.31092">
        <ele>95</ele>
        <time>2015-01-18T09:04:42Z</time>
      </trkpt>
      <trkpt lat="48.68548" lon="-3.311">
        <ele>95</ele>
        <time>2015-01-18T09:04:43Z</time>
      </trkpt>
      <trkpt lat="48.68551" lon="-3.31108">
        <ele>95</ele>
        <time>2015-01-18T09:04:44Z</time>
      </trkpt>
      <trkpt lat="48.68555" lon="-3.31115">
        <ele>95</ele>
        <time>2015-01-18T09:04:45Z</time>
      </trkpt>
      <trkpt lat="48.68559" lon="-3.31123">
        <ele>95</ele>
        <time>2015-01-18T09:04:46Z</time>
      </trkpt>
      <trkpt lat="48.68563" lon="-3.3113">
        <ele>95</ele>
        <time>2015-01-18T09:04:47Z</time>
      </trkpt>
      <trkpt lat="48.68567" lon="-3.31136">
        <ele>95</ele>
        <time>2015-01-18T09:04:48Z</time>
      </trkpt>
      <trkpt lat="48.68572" lon="-3.31143">
        <ele>95</ele>
        <time>2015-01-18T09:04:49Z</time>
      </trkpt>
      <trkpt lat="48.68577" lon="-3.3115">
        <ele>96</ele>
        <time>2015-01-18T09:04:50Z</time>
      </trkpt>
      <trkpt lat="48.68581" lon="-3.31156">
        <ele>96</ele>
        <time>2015-01-18T09:04:51Z</time>
      </trkpt>
      <trkpt lat="48.68587" lon="-3.31162">
        <ele>96</ele>
        <time>2015-01-18T09:04:52Z</time>
      </trkpt>
      <trkpt lat="48.68592" lon="-3.31168">
        <ele>96</ele>
        <time>2015-01-18T09:04:53Z</time>
      </trkpt>
      <trkpt lat="48.68597" lon="-3.31173">
        <ele>96</ele>
        <time>2015-01-18T09:04:54Z</time>
      </trkpt>
      <trkpt lat="48.68603" lon="-3.31179">
        <ele>96</ele>
        <time>2015-01-18T09:04:55Z</time>
      </trkpt>
      <trkpt lat="48.68608" lon="-3.31185">
        <ele>96</ele>
        <time>2015-01-18T09:04:56Z</time>
      </trkpt>
      <trkpt lat="48.68614" lon="-3.31191">
        <ele>96</ele>
        <time>2015-01-18T09:04:57Z</time>
      </trkpt>
      <trkpt lat="48.68619" lon="-3.31198">
        <ele>96</ele>
        <time>2015-01-18T09:04:58Z</time>
      </trkpt>
      <trkpt lat="48.68625" lon="-3.31204">
        <ele>96</ele>
        <time>2015-01-18T09:04:59Z</time>
      </trkpt>
      <trkpt lat="48.68631" lon="-3.31211">
        <ele>96</ele>
        <time>2015-01-18T09:05:00Z</time>
      </trkpt>
      <trkpt lat="48.68636" lon="-3.31218">
        <ele>96</ele>
        <time>2015-01-18T09:05:01Z</time>
      </trkpt>
      <trkpt lat="48.68642" lon="-3.31224">
        <ele>96</ele>
        <time>2015-01-18T09:05:02Z</time>
      </trkpt>
      <trkpt lat="48.68649" lon="-3.31231">
        <ele>96</ele>
        <time>2015-01-18T09:05:03Z</time>
      </trkpt>
      <trkpt lat="48.68655" lon="-3.31238">
        <ele>96</ele>
        <time>2015-01-18T09:05:04Z</time>
      </trkpt>
      <trkpt lat="48.68661" lon="-3.31245">
        <ele>96</ele>
        <time>2015-01-18T09:05:05Z</time>
      </trkpt>
      <trkpt lat="48.68667" lon="-3.31253">
        <ele>96</ele>
        <time>2015-01-18T09:05:06Z</time>
      </trkpt>
      <trkpt lat="48.68674" lon="-3.3126">
        <ele>96</ele>
        <time>2015-01-18T09:05:07Z</time>
      </trkpt>
      <trkpt lat="48.6868" lon="-3.31267">
        <ele>96</ele>
        <time>2015-01-18T09:05:08Z</time>
      </trkpt>
      <trkpt lat="48.68687" lon="-3.31274">
        <ele>96</ele>
        <time>2015-01-18T09:05:09Z</time>
      </trkpt>
      <trkpt lat="48.68693" lon="-3.31282">
        <ele>96</ele>
        <time>2015-01-18T09:05:10Z</time>
      </trkpt>
      <trkpt lat="48.687" lon="-3.31289">
        <ele>96</ele>
        <time>2015-01-18T09:05:11Z</time>
      </trkpt>
      <trkpt lat="48.68706" lon="-3.31296">
        <ele>96</ele>
        <time>2015-01-18T09:05:12Z</time>
      </trkpt>
      <trkpt lat="48.68713" lon="-3.31303">
        <ele>96</ele>
        <time>2015-01-18T09:05:13Z</time>
      </trkpt>
      <trkpt lat="48.68719" lon="-3.31311">
        <ele>96</ele>
        <time>2015-01-18T09:05:14Z</time>
      </trkpt>
      <trkpt lat="48.68726" lon="-3.31318">
        <ele>96</ele>
        <time>2015-01-18T09:05:15Z</time>
      </trkpt>
      <trkpt lat="48.68733" lon="-3.31326">
        <ele>96</ele>
        <time>2015-01-18T09:05:16Z</time>
      </trkpt>
      <trkpt lat="48.68739" lon="-3.31333">
        <ele>96</ele>
        <time>2015-01-18T09:05:17Z</time>
      </trkpt>
      <trkpt lat="48.68746" lon="-3.31341">
        <ele>96</ele>
        <time>2015-01-18T09:05:18Z</time>
      </trkpt>
      <trkpt lat="48.68753" lon="-3.31348">
        <ele>96</ele>
        <time>2015-01-18T09:05:19Z</time>
      </trkpt>
      <trkpt lat="48.6876" lon="-3.31356">
        <ele>96</ele>
        <time>2015-01-18T09:05:20Z</time>
      </trkpt>
      <trkpt lat="48.68767" lon="-3.31364">
        <ele>96</ele>
        <time>2015-01-18T09:05:21Z</time>
      </trkpt>
      <trkpt lat="48.68774" lon="-3.31371">
        <ele>96</ele>
        <time>2015-01-18T09:05:22Z</time>
      </trkpt>
      <trkpt lat="48.6878" lon="-3.31379">
        <ele>96</ele>
        <time>2015-01-18T09:05:23Z</time>
      </trkpt>
      <trkpt lat="48.68787" lon="-3.31387">
        <ele>96</ele>
        <time>2015-01-18T09:05:24Z</time>
      </trkpt>
      <trkpt lat="48.68793" lon="-3.31396">
        <ele>96</ele>
        <time>2015-01-18T09:05:25Z</time>
      </trkpt>
      <trkpt lat="48.68799" lon="-3.31405">
        <ele>96</ele>
        <time>2015-01-18T09:05:26Z</time>
      </trkpt>
      <trkpt lat="48.68805" lon="-3.31414">
        <ele>96</ele>
        <time>2015-01-18T09:05:27Z</time>
      </trkpt>
      <trkpt lat="48.6881" lon="-3.31424">
        <ele>96</ele>
        <time>2015-01-18T09:05:28Z</time>
      </trkpt>
      <trkpt lat="48.68815" lon="-3.31434">
        <ele>96</ele>
        <time>2015-01-18T09:05:29Z</time>
      </trkpt>
      <trkpt lat="48.68819" lon="-3.31444">
        <ele>96</ele>
        <time>2015-01-18T09:05:30Z</time>
      </trkpt>
      <trkpt lat="48.68822" lon="-3.31455">
        <ele>96</ele>
        <time>2015-01-18T09:05:31Z</time>
      </trkpt>
      <trkpt lat="48.68825" lon="-3.31466">
        <ele>96</ele>
        <time>2015-01-18T09:05:32Z</time>
      </trkpt>
      <trkpt lat="48.68828" lon="-3.31477">
        <ele>96</ele>
        <time>2015-01-18T09:05:33Z</time>
      </trkpt>
      <trkpt lat="48.68831" lon="-3.31488">
        <ele>96</ele>
        <time>2015-01-18T09:05:34Z</time>
      </trkpt>
      <trkpt lat="48.68833" lon="-3.315">
        <ele>96</ele>
        <time>2015-01-18T09:05:35Z</time>
      </trkpt>
      <trkpt lat="48.68834" lon="-3.31511">
        <ele>96</ele>
        <time>2015-01-18T09:05:36Z</time>
      </trkpt>
      <trkpt lat="48.68835" lon="-3.31523">
        <ele>96</ele>
        <time>2015-01-18T09:05:37Z</time>
      </trkpt>
      <trkpt lat="48.68836" lon="-3.31535">
        <ele>96</ele>
        <time>2015-01-18T09:05:38Z</time>
      </trkpt>
      <trkpt lat="48.68835" lon="-3.31559">
        <ele>96</ele>
        <time>2015-01-18T09:05:40Z</time>
      </trkpt>
      <trkpt lat="48.68835" lon="-3.3157">
        <ele>96</ele>
        <time>2015-01-18T09:05:41Z</time>
      </trkpt>
      <trkpt lat="48.68835" lon="-3.31581">
        <ele>96</ele>
        <time>2015-01-18T09:05:42Z</time>
      </trkpt>
      <trkpt lat="48.68834" lon="-3.31591">
        <ele>96</ele>
        <time>2015-01-18T09:05:43Z</time>
      </trkpt>
      <trkpt lat="48.68833" lon="-3.31601">
        <ele>96</ele>
        <time>2015-01-18T09:05:44Z</time>
      </trkpt>
      <trkpt lat="48.68832" lon="-3.31609">
        <ele>96</ele>
        <time>2015-01-18T09:05:45Z</time>
      </trkpt>
      <trkpt lat="48.68832" lon="-3.31618">
        <ele>96</ele>
        <time>2015-01-18T09:05:46Z</time>
      </trkpt>
      <trkpt lat="48.6883" lon="-3.31626">
        <ele>96</ele>
        <time>2015-01-18T09:05:47Z</time>
      </trkpt>
      <trkpt lat="48.68829" lon="-3.31634">
        <ele>96</ele>
        <time>2015-01-18T09:05:48Z</time>
      </trkpt>
      <trkpt lat="48.68828" lon="-3.31641">
        <ele>96</ele>
        <time>2015-01-18T09:05:49Z</time>
      </trkpt>
      <trkpt lat="48.68827" lon="-3.31649">
        <ele>96</ele>
        <time>2015-01-18T09:05:50Z</time>
      </trkpt>
      <trkpt lat="48.68826" lon="-3.31658">
        <ele>96</ele>
        <time>2015-01-18T09:05:51Z</time>
      </trkpt>
      <trkpt lat="48.68825" lon="-3.31667">
        <ele>96</ele>
        <time>2015-01-18T09:05:52Z</time>
      </trkpt>
      <trkpt lat="48.68824" lon="-3.31676">
        <ele>96</ele>
        <time>2015-01-18T09:05:53Z</time>
      </trkpt>
      <trkpt lat="48.68824" lon="-3.31684">
        <ele>96</ele>
        <time>2015-01-18T09:05:54Z</time>
      </trkpt>
      <trkpt lat="48.68824" lon="-3.31692">
        <ele>96</ele>
        <time>2015-01-18T09:05:55Z</time>
      </trkpt>
      <trkpt lat="48.68823" lon="-3.31699">
        <ele>96</ele>
        <time>2015-01-18T09:05:56Z</time>
      </trkpt>
      <trkpt lat="48.68823" lon="-3.31706">
        <ele>96</ele>
        <time>2015-01-18T09:05:57Z</time>
      </trkpt>
      <trkpt lat="48.68822" lon="-3.31713">
        <ele>96</ele>
        <time>2015-01-18T09:05:58Z</time>
      </trkpt>
      <trkpt lat="48.68823" lon="-3.31726">
        <ele>96</ele>
        <time>2015-01-18T09:06:00Z</time>
      </trkpt>
      <trkpt lat="48.68825" lon="-3.31733">
        <ele>96</ele>
        <time>2015-01-18T09:06:01Z</time>
      </trkpt>
      <trkpt lat="48.68827" lon="-3.31738">
        <ele>96</ele>
        <time>2015-01-18T09:06:02Z</time>
      </trkpt>
      <trkpt lat="48.68831" lon="-3.31741">
        <ele>96</ele>
        <time>2015-01-18T09:06:03Z</time>
      </trkpt>
      <trkpt lat="48.68835" lon="-3.31744">
        <ele>96</ele>
        <time>2015-01-18T09:06:04Z</time>
      </trkpt>
      <trkpt lat="48.68839" lon="-3.31746">
        <ele>96</ele>
        <time>2015-01-18T09:06:05Z</time>
      </trkpt>
      <trkpt lat="48.68844" lon="-3.31747">
        <ele>96</ele>
        <time>2015-01-18T09:06:06Z</time>
      </trkpt>
      <trkpt lat="48.6885" lon="-3.31747">
        <ele>96</ele>
        <time>2015-01-18T09:06:07Z</time>
      </trkpt>
      <trkpt lat="48.68863" lon="-3.31748">
        <ele>96</ele>
        <time>2015-01-18T09:06:09Z</time>
      </trkpt>
      <trkpt lat="48.6887" lon="-3.31748">
        <ele>96</ele>
        <time>2015-01-18T09:06:10Z</time>
      </trkpt>
      <trkpt lat="48.68877" lon="-3.31749">
        <ele>96</ele>
        <time>2015-01-18T09:06:11Z</time>
      </trkpt>
      <trkpt lat="48.68885" lon="-3.3175">
        <ele>96</ele>
        <time>2015-01-18T09:06:12Z</time>
      </trkpt>
      <trkpt lat="48.68892" lon="-3.31751">
        <ele>96</ele>
        <time>2015-01-18T09:06:13Z</time>
      </trkpt>
      <trkpt lat="48.689" lon="-3.31753">
        <ele>96</ele>
        <time>2015-01-18T09:06:14Z</time>
      </trkpt>
      <trkpt lat="48.68908" lon="-3.31754">
        <ele>96</ele>
        <time>2015-01-18T09:06:15Z</time>
      </trkpt>
      <trkpt lat="48.68915" lon="-3.31755">
        <ele>96</ele>
        <time>2015-01-18T09:06:16Z</time>
      </trkpt>
      <trkpt lat="48.68923" lon="-3.31756">
        <ele>96</ele>
        <time>2015-01-18T09:06:17Z</time>
      </trkpt>
      <trkpt lat="48.68931" lon="-3.31758">
        <ele>96</ele>
        <time>2015-01-18T09:06:18Z</time>
      </trkpt>
      <trkpt lat="48.68939" lon="-3.31759">
        <ele>96</ele>
        <time>2015-01-18T09:06:19Z</time>
      </trkpt>
      <trkpt lat="48.68947" lon="-3.3176">
        <ele>96</ele>
        <time>2015-01-18T09:06:20Z</time>
      </trkpt>
      <trkpt lat="48.68955" lon="-3.31761">
        <ele>96</ele>
        <time>2015-01-18T09:06:21Z</time>
      </trkpt>
      <trkpt lat="48.68962" lon="-3.31762">
        <ele>96</ele>
        <time>2015-01-18T09:06:22Z</time>
      </trkpt>
      <trkpt lat="48.6897" lon="-3.31764">
        <ele>96</ele>
        <time>2015-01-18T09:06:23Z</time>
      </trkpt>
      <trkpt lat="48.68978" lon="-3.31765">
        <ele>96</ele>
        <time>2015-01-18T09:06:24Z</time>
      </trkpt>
      <trkpt lat="48.68986" lon="-3.31767">
        <ele>96</ele>
        <time>2015-01-18T09:06:25Z</time>
      </trkpt>
      <trkpt lat="48.68994" lon="-3.31768">
        <ele>96</ele>
        <time>2015-01-18T09:06:26Z</time>
      </trkpt>
      <trkpt lat="48.69002" lon="-3.31769">
        <ele>96</ele>
        <time>2015-01-18T09:06:27Z</time>
      </trkpt>
      <trkpt lat="48.6901" lon="-3.31771">
        <ele>96</ele>
        <time>2015-01-18T09:06:28Z</time>
      </trkpt>
      <trkpt lat="48.69018" lon="-3.31772">
        <ele>96</ele>
        <time>2015-01-18T09:06:29Z</time>
      </trkpt>
      <trkpt lat="48.69026" lon="-3.31774">
        <ele>96</ele>
        <time>2015-01-18T09:06:30Z</time>
      </trkpt>
      <trkpt lat="48.69034" lon="-3.31775">
        <ele>96</ele>
        <time>2015-01-18T09:06:31Z</time>
      </trkpt>
      <trkpt lat="48.69043" lon="-3.31776">
        <ele>96</ele>
        <time>2015-01-18T09:06:32Z</time>
      </trkpt>
      <trkpt lat="48.69051" lon="-3.31778">
        <ele>96</ele>
        <time>2015-01-18T09:06:33Z</time>
      </trkpt>
      <trkpt lat="48.69059" lon="-3.31779">
        <ele>96</ele>
        <time>2015-01-18T09:06:34Z</time>
      </trkpt>
      <trkpt lat="48.69067" lon="-3.3178">
        <ele>96</ele>
        <time>2015-01-18T09:06:35Z</time>
      </trkpt>
      <trkpt lat="48.69076" lon="-3.31781">
        <ele>96</ele>
        <time>2015-01-18T09:06:36Z</time>
      </trkpt>
      <trkpt lat="48.69085" lon="-3.31781">
        <ele>96</ele>
        <time>2015-01-18T09:06:37Z</time>
      </trkpt>
      <trkpt lat="48.69093" lon="-3.31782">
        <ele>96</ele>
        <time>2015-01-18T09:06:38Z</time>
      </trkpt>
      <trkpt lat="48.69102" lon="-3.31783">
        <ele>96</ele>
        <time>2015-01-18T09:06:39Z</time>
      </trkpt>
      <trkpt lat="48.69111" lon="-3.31783">
        <ele>96</ele>
        <time>2015-01-18T09:06:40Z</time>
      </trkpt>
      <trkpt lat="48.6912" lon="-3.31783">
        <ele>96</ele>
        <time>2015-01-18T09:06:41Z</time>
      </trkpt>
      <trkpt lat="48.69128" lon="-3.31784">
        <ele>96</ele>
        <time>2015-01-18T09:06:42Z</time>
      </trkpt>
      <trkpt lat="48.69137" lon="-3.31784">
        <ele>96</ele>
        <time>2015-01-18T09:06:43Z</time>
      </trkpt>
      <trkpt lat="48.69146" lon="-3.31784">
        <ele>95</ele>
        <time>2015-01-18T09:06:44Z</time>
      </trkpt>
      <trkpt lat="48.69155" lon="-3.31783">
        <ele>95</ele>
        <time>2015-01-18T09:06:45Z</time>
      </trkpt>
      <trkpt lat="48.69164" lon="-3.31783">
        <ele>95</ele>
        <time>2015-01-18T09:06:46Z</time>
      </trkpt>
      <trkpt lat="48.69173" lon="-3.31782">
        <ele>95</ele>
        <time>2015-01-18T09:06:47Z</time>
      </trkpt>
      <trkpt lat="48.69182" lon="-3.3178">
        <ele>95</ele>
        <time>2015-01-18T09:06:48Z</time>
      </trkpt>
      <trkpt lat="48.69191" lon="-3.31779">
        <ele>95</ele>
        <time>2015-01-18T09:06:49Z</time>
      </trkpt>
      <trkpt lat="48.69199" lon="-3.31777">
        <ele>95</ele>
        <time>2015-01-18T09:06:50Z</time>
      </trkpt>
      <trkpt lat="48.69208" lon="-3.31775">
        <ele>95</ele>
        <time>2015-01-18T09:06:51Z</time>
      </trkpt>
      <trkpt lat="48.69217" lon="-3.31772">
        <ele>95</ele>
        <time>2015-01-18T09:06:52Z</time>
      </trkpt>
      <trkpt lat="48.69226" lon="-3.31769">
        <ele>95</ele>
        <time>2015-01-18T09:06:53Z</time>
      </trkpt>
      <trkpt lat="48.69234" lon="-3.31767">
        <ele>95</ele>
        <time>2015-01-18T09:06:54Z</time>
      </trkpt>
      <trkpt lat="48.69243" lon="-3.31764">
        <ele>95</ele>
        <time>2015-01-18T09:06:55Z</time>
      </trkpt>
      <trkpt lat="48.69251" lon="-3.31761">
        <ele>95</ele>
        <time>2015-01-18T09:06:56Z</time>
      </trkpt>
      <trkpt lat="48.6926" lon="-3.31759">
        <ele>95</ele>
        <time>2015-01-18T09:06:57Z</time>
      </trkpt>
      <trkpt lat="48.69268" lon="-3.31756">
        <ele>95</ele>
        <time>2015-01-18T09:06:58Z</time>
      </trkpt>
      <trkpt lat="48.69277" lon="-3.31753">
        <ele>95</ele>
        <time>2015-01-18T09:06:59Z</time>
      </trkpt>
      <trkpt lat="48.69286" lon="-3.3175">
        <ele>95</ele>
        <time>2015-01-18T09:07:00Z</time>
      </trkpt>
      <trkpt lat="48.69295" lon="-3.31747">
        <ele>95</ele>
        <time>2015-01-18T09:07:01Z</time>
      </trkpt>
      <trkpt lat="48.69303" lon="-3.31744">
        <ele>95</ele>
        <time>2015-01-18T09:07:02Z</time>
      </trkpt>
      <trkpt lat="48.69312" lon="-3.31742">
        <ele>94</ele>
        <time>2015-01-18T09:07:03Z</time>
      </trkpt>
      <trkpt lat="48.69321" lon="-3.31739">
        <ele>94</ele>
        <time>2015-01-18T09:07:04Z</time>
      </trkpt>
      <trkpt lat="48.69329" lon="-3.31737">
        <ele>94</ele>
        <time>2015-01-18T09:07:05Z</time>
      </trkpt>
      <trkpt lat="48.69338" lon="-3.31736">
        <ele>94</ele>
        <time>2015-01-18T09:07:06Z</time>
      </trkpt>
      <trkpt lat="48.69346" lon="-3.31735">
        <ele>94</ele>
        <time>2015-01-18T09:07:07Z</time>
      </trkpt>
      <trkpt lat="48.69355" lon="-3.31734">
        <ele>94</ele>
        <time>2015-01-18T09:07:08Z</time>
      </trkpt>
      <trkpt lat="48.69363" lon="-3.31733">
        <ele>94</ele>
        <time>2015-01-18T09:07:09Z</time>
      </trkpt>
      <trkpt lat="48.69371" lon="-3.31732">
        <ele>94</ele>
        <time>2015-01-18T09:07:10Z</time>
      </trkpt>
      <trkpt lat="48.6938" lon="-3.31732">
        <ele>94</ele>
        <time>2015-01-18T09:07:11Z</time>
      </trkpt>
      <trkpt lat="48.69388" lon="-3.31731">
        <ele>93</ele>
        <time>2015-01-18T09:07:12Z</time>
      </trkpt>
      <trkpt lat="48.69397" lon="-3.31731">
        <ele>93</ele>
        <time>2015-01-18T09:07:13Z</time>
      </trkpt>
      <trkpt lat="48.69405" lon="-3.31731">
        <ele>93</ele>
        <time>2015-01-18T09:07:14Z</time>
      </trkpt>
      <trkpt lat="48.69413" lon="-3.3173">
        <ele>93</ele>
        <time>2015-01-18T09:07:15Z</time>
      </trkpt>
      <trkpt lat="48.69422" lon="-3.3173">
        <ele>93</ele>
        <time>2015-01-18T09:07:16Z</time>
      </trkpt>
      <trkpt lat="48.69429" lon="-3.3173">
        <ele>93</ele>
        <time>2015-01-18T09:07:17Z</time>
      </trkpt>
      <trkpt lat="48.69437" lon="-3.31729">
        <ele>93</ele>
        <time>2015-01-18T09:07:18Z</time>
      </trkpt>
      <trkpt lat="48.69444" lon="-3.31728">
        <ele>93</ele>
        <time>2015-01-18T09:07:19Z</time>
      </trkpt>
      <trkpt lat="48.69452" lon="-3.31727">
        <ele>93</ele>
        <time>2015-01-18T09:07:20Z</time>
      </trkpt>
      <trkpt lat="48.69459" lon="-3.31725">
        <ele>93</ele>
        <time>2015-01-18T09:07:21Z</time>
      </trkpt>
      <trkpt lat="48.69466" lon="-3.31722">
        <ele>93</ele>
        <time>2015-01-18T09:07:22Z</time>
      </trkpt>
      <trkpt lat="48.69473" lon="-3.31719">
        <ele>93</ele>
        <time>2015-01-18T09:07:23Z</time>
      </trkpt>
      <trkpt lat="48.6948" lon="-3.31715">
        <ele>93</ele>
        <time>2015-01-18T09:07:24Z</time>
      </trkpt>
      <trkpt lat="48.69487" lon="-3.3171">
        <ele>93</ele>
        <time>2015-01-18T09:07:25Z</time>
      </trkpt>
      <trkpt lat="48.69493" lon="-3.31705">
        <ele>92</ele>
        <time>2015-01-18T09:07:26Z</time>
      </trkpt>
      <trkpt lat="48.695" lon="-3.31699">
        <ele>92</ele>
        <time>2015-01-18T09:07:27Z</time>
      </trkpt>
      <trkpt lat="48.69508" lon="-3.31694">
        <ele>92</ele>
        <time>2015-01-18T09:07:28Z</time>
      </trkpt>
      <trkpt lat="48.69515" lon="-3.31688">
        <ele>91</ele>
        <time>2015-01-18T09:07:29Z</time>
      </trkpt>
      <trkpt lat="48.69522" lon="-3.31682">
        <ele>91</ele>
        <time>2015-01-18T09:07:30Z</time>
      </trkpt>
      <trkpt lat="48.69529" lon="-3.31676">
        <ele>91</ele>
        <time>2015-01-18T09:07:31Z</time>
      </trkpt>
      <trkpt lat="48.69536" lon="-3.31669">
        <ele>90</ele>
        <time>2015-01-18T09:07:32Z</time>
      </trkpt>
      <trkpt lat="48.69543" lon="-3.31662">
        <ele>90</ele>
        <time>2015-01-18T09:07:33Z</time>
      </trkpt>
      <trkpt lat="48.69551" lon="-3.31654">
        <ele>89</ele>
        <time>2015-01-18T09:07:34Z</time>
      </trkpt>
      <trkpt lat="48.69558" lon="-3.31645">
        <ele>89</ele>
        <time>2015-01-18T09:07:35Z</time>
      </trkpt>
      <trkpt lat="48.69565" lon="-3.31636">
        <ele>88</ele>
        <time>2015-01-18T09:07:36Z</time>
      </trkpt>
      <trkpt lat="48.69572" lon="-3.31627">
        <ele>88</ele>
        <time>2015-01-18T09:07:37Z</time>
      </trkpt>
      <trkpt lat="48.69579" lon="-3.31617">
        <ele>87</ele>
        <time>2015-01-18T09:07:38Z</time>
      </trkpt>
      <trkpt lat="48.69585" lon="-3.31606">
        <ele>87</ele>
        <time>2015-01-18T09:07:39Z</time>
      </trkpt>
      <trkpt lat="48.69593" lon="-3.31596">
        <ele>87</ele>
        <time>2015-01-18T09:07:40Z</time>
      </trkpt>
      <trkpt lat="48.696" lon="-3.31587">
        <ele>86</ele>
        <time>2015-01-18T09:07:41Z</time>
      </trkpt>
      <trkpt lat="48.69607" lon="-3.31578">
        <ele>86</ele>
        <time>2015-01-18T09:07:42Z</time>
      </trkpt>
      <trkpt lat="48.69615" lon="-3.3157">
        <ele>86</ele>
        <time>2015-01-18T09:07:43Z</time>
      </trkpt>
      <trkpt lat="48.69623" lon="-3.31563">
        <ele>86</ele>
        <time>2015-01-18T09:07:44Z</time>
      </trkpt>
      <trkpt lat="48.69631" lon="-3.31555">
        <ele>86</ele>
        <time>2015-01-18T09:07:45Z</time>
      </trkpt>
      <trkpt lat="48.69639" lon="-3.31548">
        <ele>85</ele>
        <time>2015-01-18T09:07:46Z</time>
      </trkpt>
      <trkpt lat="48.69647" lon="-3.3154">
        <ele>85</ele>
        <time>2015-01-18T09:07:47Z</time>
      </trkpt>
      <trkpt lat="48.69654" lon="-3.31532">
        <ele>85</ele>
        <time>2015-01-18T09:07:48Z</time>
      </trkpt>
      <trkpt lat="48.69662" lon="-3.31523">
        <ele>85</ele>
        <time>2015-01-18T09:07:49Z</time>
      </trkpt>
      <trkpt lat="48.69669" lon="-3.31514">
        <ele>85</ele>
        <time>2015-01-18T09:07:50Z</time>
      </trkpt>
      <trkpt lat="48.69676" lon="-3.31505">
        <ele>85</ele>
        <time>2015-01-18T09:07:51Z</time>
      </trkpt>
      <trkpt lat="48.69683" lon="-3.31495">
        <ele>85</ele>
        <time>2015-01-18T09:07:52Z</time>
      </trkpt>
      <trkpt lat="48.6969" lon="-3.31486">
        <ele>85</ele>
        <time>2015-01-18T09:07:53Z</time>
      </trkpt>
      <trkpt lat="48.69697" lon="-3.31476">
        <ele>85</ele>
        <time>2015-01-18T09:07:54Z</time>
      </trkpt>
      <trkpt lat="48.69704" lon="-3.31467">
        <ele>85</ele>
        <time>2015-01-18T09:07:55Z</time>
      </trkpt>
      <trkpt lat="48.69711" lon="-3.31457">
        <ele>85</ele>
        <time>2015-01-18T09:07:56Z</time>
      </trkpt>
      <trkpt lat="48.69717" lon="-3.31448">
        <ele>85</ele>
        <time>2015-01-18T09:07:57Z</time>
      </trkpt>
      <trkpt lat="48.69724" lon="-3.31438">
        <ele>85</ele>
        <time>2015-01-18T09:07:58Z</time>
      </trkpt>
      <trkpt lat="48.6973" lon="-3.3143">
        <ele>85</ele>
        <time>2015-01-18T09:07:59Z</time>
      </trkpt>
      <trkpt lat="48.69737" lon="-3.3142">
        <ele>85</ele>
        <time>2015-01-18T09:08:00Z</time>
      </trkpt>
      <trkpt lat="48.69744" lon="-3.31412">
        <ele>85</ele>
        <time>2015-01-18T09:08:01Z</time>
      </trkpt>
      <trkpt lat="48.69752" lon="-3.31403">
        <ele>85</ele>
        <time>2015-01-18T09:08:02Z</time>
      </trkpt>
      <trkpt lat="48.6976" lon="-3.31395">
        <ele>85</ele>
        <time>2015-01-18T09:08:03Z</time>
      </trkpt>
      <trkpt lat="48.69768" lon="-3.31388">
        <ele>84</ele>
        <time>2015-01-18T09:08:04Z</time>
      </trkpt>
      <trkpt lat="48.69777" lon="-3.3138">
        <ele>84</ele>
        <time>2015-01-18T09:08:05Z</time>
      </trkpt>
      <trkpt lat="48.69785" lon="-3.31373">
        <ele>84</ele>
        <time>2015-01-18T09:08:06Z</time>
      </trkpt>
      <trkpt lat="48.69793" lon="-3.31366">
        <ele>84</ele>
        <time>2015-01-18T09:08:07Z</time>
      </trkpt>
      <trkpt lat="48.69801" lon="-3.3136">
        <ele>84</ele>
        <time>2015-01-18T09:08:08Z</time>
      </trkpt>
      <trkpt lat="48.69809" lon="-3.31354">
        <ele>84</ele>
        <time>2015-01-18T09:08:09Z</time>
      </trkpt>
      <trkpt lat="48.69817" lon="-3.31347">
        <ele>84</ele>
        <time>2015-01-18T09:08:10Z</time>
      </trkpt>
      <trkpt lat="48.69825" lon="-3.3134">
        <ele>84</ele>
        <time>2015-01-18T09:08:11Z</time>
      </trkpt>
      <trkpt lat="48.69833" lon="-3.31334">
        <ele>84</ele>
        <time>2015-01-18T09:08:12Z</time>
      </trkpt>
      <trkpt lat="48.69841" lon="-3.31327">
        <ele>84</ele>
        <time>2015-01-18T09:08:13Z</time>
      </trkpt>
      <trkpt lat="48.69849" lon="-3.3132">
        <ele>84</ele>
        <time>2015-01-18T09:08:14Z</time>
      </trkpt>
      <trkpt lat="48.69857" lon="-3.31312">
        <ele>83</ele>
        <time>2015-01-18T09:08:15Z</time>
      </trkpt>
      <trkpt lat="48.69864" lon="-3.31304">
        <ele>83</ele>
        <time>2015-01-18T09:08:16Z</time>
      </trkpt>
      <trkpt lat="48.69872" lon="-3.31295">
        <ele>83</ele>
        <time>2015-01-18T09:08:17Z</time>
      </trkpt>
      <trkpt lat="48.69879" lon="-3.31286">
        <ele>83</ele>
        <time>2015-01-18T09:08:18Z</time>
      </trkpt>
      <trkpt lat="48.69886" lon="-3.31277">
        <ele>82</ele>
        <time>2015-01-18T09:08:19Z</time>
      </trkpt>
      <trkpt lat="48.69893" lon="-3.31267">
        <ele>82</ele>
        <time>2015-01-18T09:08:20Z</time>
      </trkpt>
      <trkpt lat="48.69899" lon="-3.31257">
        <ele>82</ele>
        <time>2015-01-18T09:08:21Z</time>
      </trkpt>
      <trkpt lat="48.69906" lon="-3.31248">
        <ele>82</ele>
        <time>2015-01-18T09:08:22Z</time>
      </trkpt>
      <trkpt lat="48.69913" lon="-3.31238">
        <ele>82</ele>
        <time>2015-01-18T09:08:23Z</time>
      </trkpt>
      <trkpt lat="48.6992" lon="-3.31229">
        <ele>82</ele>
        <time>2015-01-18T09:08:24Z</time>
      </trkpt>
      <trkpt lat="48.69927" lon="-3.3122">
        <ele>82</ele>
        <time>2015-01-18T09:08:25Z</time>
      </trkpt>
      <trkpt lat="48.69934" lon="-3.3121">
        <ele>82</ele>
        <time>2015-01-18T09:08:26Z</time>
      </trkpt>
      <trkpt lat="48.69942" lon="-3.31201">
        <ele>81</ele>
        <time>2015-01-18T09:08:27Z</time>
      </trkpt>
      <trkpt lat="48.6995" lon="-3.31191">
        <ele>81</ele>
        <time>2015-01-18T09:08:28Z</time>
      </trkpt>
      <trkpt lat="48.69957" lon="-3.31182">
        <ele>81</ele>
        <time>2015-01-18T09:08:29Z</time>
      </trkpt>
      <trkpt lat="48.69965" lon="-3.31172">
        <ele>81</ele>
        <time>2015-01-18T09:08:30Z</time>
      </trkpt>
      <trkpt lat="48.69972" lon="-3.31162">
        <ele>81</ele>
        <time>2015-01-18T09:08:31Z</time>
      </trkpt>
      <trkpt lat="48.69979" lon="-3.31151">
        <ele>81</ele>
        <time>2015-01-18T09:08:32Z</time>
      </trkpt>
      <trkpt lat="48.69986" lon="-3.3114">
        <ele>81</ele>
        <time>2015-01-18T09:08:33Z</time>
      </trkpt>
      <trkpt lat="48.69992" lon="-3.3113">
        <ele>81</ele>
        <time>2015-01-18T09:08:34Z</time>
      </trkpt>
      <trkpt lat="48.69999" lon="-3.3112">
        <ele>81</ele>
        <time>2015-01-18T09:08:35Z</time>
      </trkpt>
      <trkpt lat="48.70006" lon="-3.3111">
        <ele>81</ele>
        <time>2015-01-18T09:08:36Z</time>
      </trkpt>
      <trkpt lat="48.70013" lon="-3.311">
        <ele>81</ele>
        <time>2015-01-18T09:08:37Z</time>
      </trkpt>
      <trkpt lat="48.7002" lon="-3.3109">
        <ele>81</ele>
        <time>2015-01-18T09:08:38Z</time>
      </trkpt>
      <trkpt lat="48.70026" lon="-3.3108">
        <ele>81</ele>
        <time>2015-01-18T09:08:39Z</time>
      </trkpt>
      <trkpt lat="48.70033" lon="-3.3107">
        <ele>81</ele>
        <time>2015-01-18T09:08:40Z</time>
      </trkpt>
      <trkpt lat="48.7004" lon="-3.3106">
        <ele>81</ele>
        <time>2015-01-18T09:08:41Z</time>
      </trkpt>
      <trkpt lat="48.70047" lon="-3.3105">
        <ele>81</ele>
        <time>2015-01-18T09:08:42Z</time>
      </trkpt>
      <trkpt lat="48.70053" lon="-3.3104">
        <ele>81</ele>
        <time>2015-01-18T09:08:43Z</time>
      </trkpt>
      <trkpt lat="48.7006" lon="-3.31029">
        <ele>81</ele>
        <time>2015-01-18T09:08:44Z</time>
      </trkpt>
      <trkpt lat="48.70066" lon="-3.31019">
        <ele>81</ele>
        <time>2015-01-18T09:08:45Z</time>
      </trkpt>
      <trkpt lat="48.70073" lon="-3.31009">
        <ele>81</ele>
        <time>2015-01-18T09:08:46Z</time>
      </trkpt>
      <trkpt lat="48.70079" lon="-3.30998">
        <ele>81</ele>
        <time>2015-01-18T09:08:47Z</time>
      </trkpt>
      <trkpt lat="48.70085" lon="-3.30988">
        <ele>81</ele>
        <time>2015-01-18T09:08:48Z</time>
      </trkpt>
      <trkpt lat="48.70091" lon="-3.30978">
        <ele>81</ele>
        <time>2015-01-18T09:08:49Z</time>
      </trkpt>
      <trkpt lat="48.70096" lon="-3.30967">
        <ele>81</ele>
        <time>2015-01-18T09:08:50Z</time>
      </trkpt>
      <trkpt lat="48.70102" lon="-3.30957">
        <ele>81</ele>
        <time>2015-01-18T09:08:51Z</time>
      </trkpt>
      <trkpt lat="48.70107" lon="-3.30946">
        <ele>81</ele>
        <time>2015-01-18T09:08:52Z</time>
      </trkpt>
      <trkpt lat="48.70113" lon="-3.30936">
        <ele>81</ele>
        <time>2015-01-18T09:08:53Z</time>
      </trkpt>
      <trkpt lat="48.70118" lon="-3.30926">
        <ele>81</ele>
        <time>2015-01-18T09:08:54Z</time>
      </trkpt>
      <trkpt lat="48.70123" lon="-3.30916">
        <ele>81</ele>
        <time>2015-01-18T09:08:55Z</time>
      </trkpt>
      <trkpt lat="48.70129" lon="-3.30906">
        <ele>81</ele>
        <time>2015-01-18T09:08:56Z</time>
      </trkpt>
      <trkpt lat="48.70134" lon="-3.30896">
        <ele>81</ele>
        <time>2015-01-18T09:08:57Z</time>
      </trkpt>
      <trkpt lat="48.7014" lon="-3.30886">
        <ele>81</ele>
        <time>2015-01-18T09:08:58Z</time>
      </trkpt>
      <trkpt lat="48.70146" lon="-3.30876">
        <ele>81</ele>
        <time>2015-01-18T09:08:59Z</time>
      </trkpt>
      <trkpt lat="48.70152" lon="-3.30866">
        <ele>81</ele>
        <time>2015-01-18T09:09:00Z</time>
      </trkpt>
      <trkpt lat="48.70158" lon="-3.30857">
        <ele>81</ele>
        <time>2015-01-18T09:09:01Z</time>
      </trkpt>
      <trkpt lat="48.70165" lon="-3.30847">
        <ele>81</ele>
        <time>2015-01-18T09:09:02Z</time>
      </trkpt>
      <trkpt lat="48.70171" lon="-3.30838">
        <ele>81</ele>
        <time>2015-01-18T09:09:03Z</time>
      </trkpt>
      <trkpt lat="48.70178" lon="-3.30828">
        <ele>81</ele>
        <time>2015-01-18T09:09:04Z</time>
      </trkpt>
      <trkpt lat="48.70185" lon="-3.30819">
        <ele>81</ele>
        <time>2015-01-18T09:09:05Z</time>
      </trkpt>
      <trkpt lat="48.70192" lon="-3.30809">
        <ele>81</ele>
        <time>2015-01-18T09:09:06Z</time>
      </trkpt>
      <trkpt lat="48.70199" lon="-3.30799">
        <ele>81</ele>
        <time>2015-01-18T09:09:07Z</time>
      </trkpt>
      <trkpt lat="48.70206" lon="-3.30789">
        <ele>81</ele>
        <time>2015-01-18T09:09:08Z</time>
      </trkpt>
      <trkpt lat="48.70213" lon="-3.3078">
        <ele>81</ele>
        <time>2015-01-18T09:09:09Z</time>
      </trkpt>
      <trkpt lat="48.70221" lon="-3.3077">
        <ele>81</ele>
        <time>2015-01-18T09:09:10Z</time>
      </trkpt>
      <trkpt lat="48.70228" lon="-3.3076">
        <ele>81</ele>
        <time>2015-01-18T09:09:11Z</time>
      </trkpt>
      <trkpt lat="48.70235" lon="-3.30751">
        <ele>80</ele>
        <time>2015-01-18T09:09:12Z</time>
      </trkpt>
      <trkpt lat="48.70242" lon="-3.30741">
        <ele>80</ele>
        <time>2015-01-18T09:09:13Z</time>
      </trkpt>
      <trkpt lat="48.7025" lon="-3.30732">
        <ele>80</ele>
        <time>2015-01-18T09:09:14Z</time>
      </trkpt>
      <trkpt lat="48.70258" lon="-3.30723">
        <ele>80</ele>
        <time>2015-01-18T09:09:15Z</time>
      </trkpt>
      <trkpt lat="48.70266" lon="-3.30714">
        <ele>80</ele>
        <time>2015-01-18T09:09:16Z</time>
      </trkpt>
      <trkpt lat="48.70274" lon="-3.30705">
        <ele>80</ele>
        <time>2015-01-18T09:09:17Z</time>
      </trkpt>
      <trkpt lat="48.70282" lon="-3.30696">
        <ele>79</ele>
        <time>2015-01-18T09:09:18Z</time>
      </trkpt>
      <trkpt lat="48.7029" lon="-3.30687">
        <ele>79</ele>
        <time>2015-01-18T09:09:19Z</time>
      </trkpt>
      <trkpt lat="48.70297" lon="-3.30678">
        <ele>79</ele>
        <time>2015-01-18T09:09:20Z</time>
      </trkpt>
      <trkpt lat="48.70305" lon="-3.30669">
        <ele>79</ele>
        <time>2015-01-18T09:09:21Z</time>
      </trkpt>
      <trkpt lat="48.70313" lon="-3.30659">
        <ele>79</ele>
        <time>2015-01-18T09:09:22Z</time>
      </trkpt>
      <trkpt lat="48.7032" lon="-3.30651">
        <ele>79</ele>
        <time>2015-01-18T09:09:23Z</time>
      </trkpt>
      <trkpt lat="48.70327" lon="-3.30642">
        <ele>79</ele>
        <time>2015-01-18T09:09:24Z</time>
      </trkpt>
      <trkpt lat="48.70334" lon="-3.30633">
        <ele>79</ele>
        <time>2015-01-18T09:09:25Z</time>
      </trkpt>
      <trkpt lat="48.70341" lon="-3.30625">
        <ele>79</ele>
        <time>2015-01-18T09:09:26Z</time>
      </trkpt>
      <trkpt lat="48.70348" lon="-3.30617">
        <ele>79</ele>
        <time>2015-01-18T09:09:27Z</time>
      </trkpt>
      <trkpt lat="48.70355" lon="-3.30608">
        <ele>79</ele>
        <time>2015-01-18T09:09:28Z</time>
      </trkpt>
      <trkpt lat="48.70362" lon="-3.30601">
        <ele>79</ele>
        <time>2015-01-18T09:09:29Z</time>
      </trkpt>
      <trkpt lat="48.70368" lon="-3.30593">
        <ele>79</ele>
        <time>2015-01-18T09:09:30Z</time>
      </trkpt>
      <trkpt lat="48.70375" lon="-3.30585">
        <ele>79</ele>
        <time>2015-01-18T09:09:31Z</time>
      </trkpt>
      <trkpt lat="48.70382" lon="-3.30577">
        <ele>79</ele>
        <time>2015-01-18T09:09:32Z</time>
      </trkpt>
      <trkpt lat="48.70388" lon="-3.3057">
        <ele>78</ele>
        <time>2015-01-18T09:09:33Z</time>
      </trkpt>
      <trkpt lat="48.70395" lon="-3.30563">
        <ele>78</ele>
        <time>2015-01-18T09:09:34Z</time>
      </trkpt>
      <trkpt lat="48.70403" lon="-3.30556">
        <ele>78</ele>
        <time>2015-01-18T09:09:35Z</time>
      </trkpt>
      <trkpt lat="48.7041" lon="-3.30548">
        <ele>78</ele>
        <time>2015-01-18T09:09:36Z</time>
      </trkpt>
      <trkpt lat="48.70417" lon="-3.30541">
        <ele>77</ele>
        <time>2015-01-18T09:09:37Z</time>
      </trkpt>
      <trkpt lat="48.70425" lon="-3.30534">
        <ele>77</ele>
        <time>2015-01-18T09:09:38Z</time>
      </trkpt>
      <trkpt lat="48.70433" lon="-3.30527">
        <ele>77</ele>
        <time>2015-01-18T09:09:39Z</time>
      </trkpt>
      <trkpt lat="48.70441" lon="-3.30521">
        <ele>77</ele>
        <time>2015-01-18T09:09:40Z</time>
      </trkpt>
      <trkpt lat="48.70448" lon="-3.30514">
        <ele>77</ele>
        <time>2015-01-18T09:09:41Z</time>
      </trkpt>
      <trkpt lat="48.70456" lon="-3.30507">
        <ele>76</ele>
        <time>2015-01-18T09:09:42Z</time>
      </trkpt>
      <trkpt lat="48.70464" lon="-3.305">
        <ele>76</ele>
        <time>2015-01-18T09:09:43Z</time>
      </trkpt>
      <trkpt lat="48.70472" lon="-3.30493">
        <ele>76</ele>
        <time>2015-01-18T09:09:44Z</time>
      </trkpt>
      <trkpt lat="48.7048" lon="-3.30486">
        <ele>76</ele>
        <time>2015-01-18T09:09:45Z</time>
      </trkpt>
      <trkpt lat="48.70487" lon="-3.30479">
        <ele>76</ele>
        <time>2015-01-18T09:09:46Z</time>
      </trkpt>
      <trkpt lat="48.70495" lon="-3.30472">
        <ele>75</ele>
        <time>2015-01-18T09:09:47Z</time>
      </trkpt>
      <trkpt lat="48.70503" lon="-3.30464">
        <ele>75</ele>
        <time>2015-01-18T09:09:48Z</time>
      </trkpt>
      <trkpt lat="48.70511" lon="-3.30457">
        <ele>75</ele>
        <time>2015-01-18T09:09:49Z</time>
      </trkpt>
      <trkpt lat="48.70519" lon="-3.30449">
        <ele>75</ele>
        <time>2015-01-18T09:09:50Z</time>
      </trkpt>
      <trkpt lat="48.70527" lon="-3.30441">
        <ele>74</ele>
        <time>2015-01-18T09:09:51Z</time>
      </trkpt>
      <trkpt lat="48.70535" lon="-3.30432">
        <ele>74</ele>
        <time>2015-01-18T09:09:52Z</time>
      </trkpt>
      <trkpt lat="48.70543" lon="-3.30424">
        <ele>74</ele>
        <time>2015-01-18T09:09:53Z</time>
      </trkpt>
      <trkpt lat="48.70551" lon="-3.30415">
        <ele>74</ele>
        <time>2015-01-18T09:09:54Z</time>
      </trkpt>
      <trkpt lat="48.70559" lon="-3.30406">
        <ele>73</ele>
        <time>2015-01-18T09:09:55Z</time>
      </trkpt>
      <trkpt lat="48.70567" lon="-3.30398">
        <ele>73</ele>
        <time>2015-01-18T09:09:56Z</time>
      </trkpt>
      <trkpt lat="48.70575" lon="-3.3039">
        <ele>73</ele>
        <time>2015-01-18T09:09:57Z</time>
      </trkpt>
      <trkpt lat="48.70584" lon="-3.30382">
        <ele>73</ele>
        <time>2015-01-18T09:09:58Z</time>
      </trkpt>
      <trkpt lat="48.70593" lon="-3.30375">
        <ele>73</ele>
        <time>2015-01-18T09:09:59Z</time>
      </trkpt>
      <trkpt lat="48.70601" lon="-3.30368">
        <ele>73</ele>
        <time>2015-01-18T09:10:00Z</time>
      </trkpt>
      <trkpt lat="48.7061" lon="-3.30361">
        <ele>73</ele>
        <time>2015-01-18T09:10:01Z</time>
      </trkpt>
      <trkpt lat="48.70618" lon="-3.30355">
        <ele>73</ele>
        <time>2015-01-18T09:10:02Z</time>
      </trkpt>
      <trkpt lat="48.70626" lon="-3.30349">
        <ele>73</ele>
        <time>2015-01-18T09:10:03Z</time>
      </trkpt>
      <trkpt lat="48.70634" lon="-3.30343">
        <ele>73</ele>
        <time>2015-01-18T09:10:04Z</time>
      </trkpt>
      <trkpt lat="48.70642" lon="-3.30337">
        <ele>73</ele>
        <time>2015-01-18T09:10:05Z</time>
      </trkpt>
      <trkpt lat="48.7065" lon="-3.30331">
        <ele>73</ele>
        <time>2015-01-18T09:10:06Z</time>
      </trkpt>
      <trkpt lat="48.70658" lon="-3.30326">
        <ele>73</ele>
        <time>2015-01-18T09:10:07Z</time>
      </trkpt>
      <trkpt lat="48.70665" lon="-3.3032">
        <ele>73</ele>
        <time>2015-01-18T09:10:08Z</time>
      </trkpt>
      <trkpt lat="48.70673" lon="-3.30315">
        <ele>73</ele>
        <time>2015-01-18T09:10:09Z</time>
      </trkpt>
      <trkpt lat="48.7068" lon="-3.30309">
        <ele>73</ele>
        <time>2015-01-18T09:10:10Z</time>
      </trkpt>
      <trkpt lat="48.70687" lon="-3.30304">
        <ele>73</ele>
        <time>2015-01-18T09:10:11Z</time>
      </trkpt>
      <trkpt lat="48.70694" lon="-3.30299">
        <ele>73</ele>
        <time>2015-01-18T09:10:12Z</time>
      </trkpt>
      <trkpt lat="48.707" lon="-3.30294">
        <ele>73</ele>
        <time>2015-01-18T09:10:13Z</time>
      </trkpt>
      <trkpt lat="48.70706" lon="-3.30289">
        <ele>73</ele>
        <time>2015-01-18T09:10:14Z</time>
      </trkpt>
      <trkpt lat="48.70713" lon="-3.30284">
        <ele>73</ele>
        <time>2015-01-18T09:10:15Z</time>
      </trkpt>
      <trkpt lat="48.70719" lon="-3.3028">
        <ele>73</ele>
        <time>2015-01-18T09:10:16Z</time>
      </trkpt>
      <trkpt lat="48.70726" lon="-3.30275">
        <ele>73</ele>
        <time>2015-01-18T09:10:17Z</time>
      </trkpt>
      <trkpt lat="48.70732" lon="-3.3027">
        <ele>73</ele>
        <time>2015-01-18T09:10:18Z</time>
      </trkpt>
      <trkpt lat="48.70739" lon="-3.30266">
        <ele>73</ele>
        <time>2015-01-18T09:10:19Z</time>
      </trkpt>
      <trkpt lat="48.70746" lon="-3.30261">
        <ele>73</ele>
        <time>2015-01-18T09:10:20Z</time>
      </trkpt>
      <trkpt lat="48.70753" lon="-3.30256">
        <ele>73</ele>
        <time>2015-01-18T09:10:21Z</time>
      </trkpt>
      <trkpt lat="48.7076" lon="-3.30252">
        <ele>73</ele>
        <time>2015-01-18T09:10:22Z</time>
      </trkpt>
      <trkpt lat="48.70767" lon="-3.30248">
        <ele>74</ele>
        <time>2015-01-18T09:10:23Z</time>
      </trkpt>
      <trkpt lat="48.70774" lon="-3.30244">
        <ele>74</ele>
        <time>2015-01-18T09:10:24Z</time>
      </trkpt>
      <trkpt lat="48.70781" lon="-3.3024">
        <ele>74</ele>
        <time>2015-01-18T09:10:25Z</time>
      </trkpt>
      <trkpt lat="48.70788" lon="-3.30236">
        <ele>74</ele>
        <time>2015-01-18T09:10:26Z</time>
      </trkpt>
      <trkpt lat="48.70795" lon="-3.30232">
        <ele>74</ele>
        <time>2015-01-18T09:10:27Z</time>
      </trkpt>
      <trkpt lat="48.70803" lon="-3.30228">
        <ele>74</ele>
        <time>2015-01-18T09:10:28Z</time>
      </trkpt>
      <trkpt lat="48.7081" lon="-3.30224">
        <ele>75</ele>
        <time>2015-01-18T09:10:29Z</time>
      </trkpt>
      <trkpt lat="48.70818" lon="-3.3022">
        <ele>75</ele>
        <time>2015-01-18T09:10:30Z</time>
      </trkpt>
      <trkpt lat="48.70825" lon="-3.30216">
        <ele>75</ele>
        <time>2015-01-18T09:10:31Z</time>
      </trkpt>
      <trkpt lat="48.70833" lon="-3.30212">
        <ele>75</ele>
        <time>2015-01-18T09:10:32Z</time>
      </trkpt>
      <trkpt lat="48.70841" lon="-3.30207">
        <ele>75</ele>
        <time>2015-01-18T09:10:33Z</time>
      </trkpt>
      <trkpt lat="48.70849" lon="-3.30203">
        <ele>76</ele>
        <time>2015-01-18T09:10:34Z</time>
      </trkpt>
      <trkpt lat="48.70857" lon="-3.30199">
        <ele>76</ele>
        <time>2015-01-18T09:10:35Z</time>
      </trkpt>
      <trkpt lat="48.70865" lon="-3.30195">
        <ele>76</ele>
        <time>2015-01-18T09:10:36Z</time>
      </trkpt>
      <trkpt lat="48.70873" lon="-3.30191">
        <ele>76</ele>
        <time>2015-01-18T09:10:37Z</time>
      </trkpt>
      <trkpt lat="48.7088" lon="-3.30188">
        <ele>76</ele>
        <time>2015-01-18T09:10:38Z</time>
      </trkpt>
      <trkpt lat="48.70887" lon="-3.30184">
        <ele>76</ele>
        <time>2015-01-18T09:10:39Z</time>
      </trkpt>
      <trkpt lat="48.70895" lon="-3.30179">
        <ele>76</ele>
        <time>2015-01-18T09:10:40Z</time>
      </trkpt>
      <trkpt lat="48.70902" lon="-3.30175">
        <ele>77</ele>
        <time>2015-01-18T09:10:41Z</time>
      </trkpt>
      <trkpt lat="48.7091" lon="-3.3017">
        <ele>77</ele>
        <time>2015-01-18T09:10:42Z</time>
      </trkpt>
      <trkpt lat="48.70917" lon="-3.30165">
        <ele>77</ele>
        <time>2015-01-18T09:10:43Z</time>
      </trkpt>
      <trkpt lat="48.70924" lon="-3.3016">
        <ele>77</ele>
        <time>2015-01-18T09:10:44Z</time>
      </trkpt>
      <trkpt lat="48.70932" lon="-3.30155">
        <ele>77</ele>
        <time>2015-01-18T09:10:45Z</time>
      </trkpt>
      <trkpt lat="48.70939" lon="-3.30149">
        <ele>78</ele>
        <time>2015-01-18T09:10:46Z</time>
      </trkpt>
      <trkpt lat="48.70946" lon="-3.30143">
        <ele>78</ele>
        <time>2015-01-18T09:10:47Z</time>
      </trkpt>
      <trkpt lat="48.70953" lon="-3.30137">
        <ele>78</ele>
        <time>2015-01-18T09:10:48Z</time>
      </trkpt>
      <trkpt lat="48.70959" lon="-3.30131">
        <ele>78</ele>
        <time>2015-01-18T09:10:49Z</time>
      </trkpt>
      <trkpt lat="48.70966" lon="-3.30124">
        <ele>78</ele>
        <time>2015-01-18T09:10:50Z</time>
      </trkpt>
      <trkpt lat="48.70972" lon="-3.30117">
        <ele>78</ele>
        <time>2015-01-18T09:10:51Z</time>
      </trkpt>
      <trkpt lat="48.70979" lon="-3.3011">
        <ele>79</ele>
        <time>2015-01-18T09:10:52Z</time>
      </trkpt>
      <trkpt lat="48.70985" lon="-3.30103">
        <ele>79</ele>
        <time>2015-01-18T09:10:53Z</time>
      </trkpt>
      <trkpt lat="48.70991" lon="-3.30096">
        <ele>79</ele>
        <time>2015-01-18T09:10:54Z</time>
      </trkpt>
      <trkpt lat="48.70997" lon="-3.30088">
        <ele>79</ele>
        <time>2015-01-18T09:10:55Z</time>
      </trkpt>
      <trkpt lat="48.71003" lon="-3.3008">
        <ele>79</ele>
        <time>2015-01-18T09:10:56Z</time>
      </trkpt>
      <trkpt lat="48.71009" lon="-3.30072">
        <ele>79</ele>
        <time>2015-01-18T09:10:57Z</time>
      </trkpt>
      <trkpt lat="48.71016" lon="-3.30063">
        <ele>79</ele>
        <time>2015-01-18T09:10:58Z</time>
      </trkpt>
      <trkpt lat="48.71022" lon="-3.30054">
        <ele>79</ele>
        <time>2015-01-18T09:10:59Z</time>
      </trkpt>
      <trkpt lat="48.71029" lon="-3.30045">
        <ele>79</ele>
        <time>2015-01-18T09:11:00Z</time>
      </trkpt>
      <trkpt lat="48.71035" lon="-3.30035">
        <ele>79</ele>
        <time>2015-01-18T09:11:01Z</time>
      </trkpt>
      <trkpt lat="48.71041" lon="-3.30025">
        <ele>79</ele>
        <time>2015-01-18T09:11:02Z</time>
      </trkpt>
      <trkpt lat="48.71048" lon="-3.30015">
        <ele>79</ele>
        <time>2015-01-18T09:11:03Z</time>
      </trkpt>
      <trkpt lat="48.71054" lon="-3.30005">
        <ele>79</ele>
        <time>2015-01-18T09:11:04Z</time>
      </trkpt>
      <trkpt lat="48.71061" lon="-3.29995">
        <ele>79</ele>
        <time>2015-01-18T09:11:05Z</time>
      </trkpt>
      <trkpt lat="48.71067" lon="-3.29986">
        <ele>79</ele>
        <time>2015-01-18T09:11:06Z</time>
      </trkpt>
      <trkpt lat="48.71074" lon="-3.29976">
        <ele>79</ele>
        <time>2015-01-18T09:11:07Z</time>
      </trkpt>
      <trkpt lat="48.7108" lon="-3.29966">
        <ele>79</ele>
        <time>2015-01-18T09:11:08Z</time>
      </trkpt>
      <trkpt lat="48.71087" lon="-3.29956">
        <ele>79</ele>
        <time>2015-01-18T09:11:09Z</time>
      </trkpt>
      <trkpt lat="48.71094" lon="-3.29946">
        <ele>79</ele>
        <time>2015-01-18T09:11:10Z</time>
      </trkpt>
      <trkpt lat="48.71101" lon="-3.29937">
        <ele>79</ele>
        <time>2015-01-18T09:11:11Z</time>
      </trkpt>
      <trkpt lat="48.71108" lon="-3.29927">
        <ele>79</ele>
        <time>2015-01-18T09:11:12Z</time>
      </trkpt>
      <trkpt lat="48.71116" lon="-3.29918">
        <ele>79</ele>
        <time>2015-01-18T09:11:13Z</time>
      </trkpt>
      <trkpt lat="48.71123" lon="-3.29908">
        <ele>79</ele>
        <time>2015-01-18T09:11:14Z</time>
      </trkpt>
      <trkpt lat="48.71131" lon="-3.29899">
        <ele>79</ele>
        <time>2015-01-18T09:11:15Z</time>
      </trkpt>
      <trkpt lat="48.71138" lon="-3.2989">
        <ele>79</ele>
        <time>2015-01-18T09:11:16Z</time>
      </trkpt>
      <trkpt lat="48.71146" lon="-3.29882">
        <ele>79</ele>
        <time>2015-01-18T09:11:17Z</time>
      </trkpt>
      <trkpt lat="48.71154" lon="-3.29873">
        <ele>79</ele>
        <time>2015-01-18T09:11:18Z</time>
      </trkpt>
      <trkpt lat="48.71162" lon="-3.29865">
        <ele>79</ele>
        <time>2015-01-18T09:11:19Z</time>
      </trkpt>
      <trkpt lat="48.71169" lon="-3.29856">
        <ele>79</ele>
        <time>2015-01-18T09:11:20Z</time>
      </trkpt>
      <trkpt lat="48.71177" lon="-3.29848">
        <ele>79</ele>
        <time>2015-01-18T09:11:21Z</time>
      </trkpt>
      <trkpt lat="48.71185" lon="-3.2984">
        <ele>79</ele>
        <time>2015-01-18T09:11:22Z</time>
      </trkpt>
      <trkpt lat="48.71192" lon="-3.29831">
        <ele>79</ele>
        <time>2015-01-18T09:11:23Z</time>
      </trkpt>
      <trkpt lat="48.712" lon="-3.29823">
        <ele>79</ele>
        <time>2015-01-18T09:11:24Z</time>
      </trkpt>
      <trkpt lat="48.71207" lon="-3.29814">
        <ele>79</ele>
        <time>2015-01-18T09:11:25Z</time>
      </trkpt>
      <trkpt lat="48.71215" lon="-3.29806">
        <ele>79</ele>
        <time>2015-01-18T09:11:26Z</time>
      </trkpt>
      <trkpt lat="48.71222" lon="-3.29797">
        <ele>79</ele>
        <time>2015-01-18T09:11:27Z</time>
      </trkpt>
      <trkpt lat="48.7123" lon="-3.29788">
        <ele>79</ele>
        <time>2015-01-18T09:11:28Z</time>
      </trkpt>
      <trkpt lat="48.71237" lon="-3.29779">
        <ele>79</ele>
        <time>2015-01-18T09:11:29Z</time>
      </trkpt>
      <trkpt lat="48.71244" lon="-3.29769">
        <ele>79</ele>
        <time>2015-01-18T09:11:30Z</time>
      </trkpt>
      <trkpt lat="48.7125" lon="-3.2976">
        <ele>79</ele>
        <time>2015-01-18T09:11:31Z</time>
      </trkpt>
      <trkpt lat="48.71257" lon="-3.29751">
        <ele>79</ele>
        <time>2015-01-18T09:11:32Z</time>
      </trkpt>
      <trkpt lat="48.71264" lon="-3.29741">
        <ele>79</ele>
        <time>2015-01-18T09:11:33Z</time>
      </trkpt>
      <trkpt lat="48.7127" lon="-3.29732">
        <ele>79</ele>
        <time>2015-01-18T09:11:34Z</time>
      </trkpt>
      <trkpt lat="48.71277" lon="-3.29723">
        <ele>79</ele>
        <time>2015-01-18T09:11:35Z</time>
      </trkpt>
      <trkpt lat="48.71283" lon="-3.29713">
        <ele>79</ele>
        <time>2015-01-18T09:11:36Z</time>
      </trkpt>
      <trkpt lat="48.71289" lon="-3.29704">
        <ele>79</ele>
        <time>2015-01-18T09:11:37Z</time>
      </trkpt>
      <trkpt lat="48.71296" lon="-3.29695">
        <ele>79</ele>
        <time>2015-01-18T09:11:38Z</time>
      </trkpt>
      <trkpt lat="48.71302" lon="-3.29685">
        <ele>79</ele>
        <time>2015-01-18T09:11:39Z</time>
      </trkpt>
      <trkpt lat="48.71309" lon="-3.29676">
        <ele>79</ele>
        <time>2015-01-18T09:11:40Z</time>
      </trkpt>
      <trkpt lat="48.71316" lon="-3.29667">
        <ele>79</ele>
        <time>2015-01-18T09:11:41Z</time>
      </trkpt>
      <trkpt lat="48.71322" lon="-3.29657">
        <ele>80</ele>
        <time>2015-01-18T09:11:42Z</time>
      </trkpt>
      <trkpt lat="48.71329" lon="-3.29647">
        <ele>80</ele>
        <time>2015-01-18T09:11:43Z</time>
      </trkpt>
      <trkpt lat="48.71336" lon="-3.29638">
        <ele>80</ele>
        <time>2015-01-18T09:11:44Z</time>
      </trkpt>
      <trkpt lat="48.71342" lon="-3.29628">
        <ele>80</ele>
        <time>2015-01-18T09:11:45Z</time>
      </trkpt>
      <trkpt lat="48.71349" lon="-3.29618">
        <ele>80</ele>
        <time>2015-01-18T09:11:46Z</time>
      </trkpt>
      <trkpt lat="48.71356" lon="-3.29608">
        <ele>80</ele>
        <time>2015-01-18T09:11:47Z</time>
      </trkpt>
      <trkpt lat="48.71362" lon="-3.29599">
        <ele>80</ele>
        <time>2015-01-18T09:11:48Z</time>
      </trkpt>
      <trkpt lat="48.71369" lon="-3.29589">
        <ele>80</ele>
        <time>2015-01-18T09:11:49Z</time>
      </trkpt>
      <trkpt lat="48.71376" lon="-3.2958">
        <ele>80</ele>
        <time>2015-01-18T09:11:50Z</time>
      </trkpt>
      <trkpt lat="48.71383" lon="-3.29571">
        <ele>80</ele>
        <time>2015-01-18T09:11:51Z</time>
      </trkpt>
      <trkpt lat="48.71389" lon="-3.29561">
        <ele>80</ele>
        <time>2015-01-18T09:11:52Z</time>
      </trkpt>
      <trkpt lat="48.71395" lon="-3.29552">
        <ele>80</ele>
        <time>2015-01-18T09:11:53Z</time>
      </trkpt>
      <trkpt lat="48.71402" lon="-3.29543">
        <ele>80</ele>
        <time>2015-01-18T09:11:54Z</time>
      </trkpt>
      <trkpt lat="48.71408" lon="-3.29534">
        <ele>80</ele>
        <time>2015-01-18T09:11:55Z</time>
      </trkpt>
      <trkpt lat="48.71414" lon="-3.29525">
        <ele>80</ele>
        <time>2015-01-18T09:11:56Z</time>
      </trkpt>
      <trkpt lat="48.71421" lon="-3.29516">
        <ele>80</ele>
        <time>2015-01-18T09:11:57Z</time>
      </trkpt>
      <trkpt lat="48.71426" lon="-3.29507">
        <ele>80</ele>
        <time>2015-01-18T09:11:58Z</time>
      </trkpt>
      <trkpt lat="48.71432" lon="-3.29499">
        <ele>80</ele>
        <time>2015-01-18T09:11:59Z</time>
      </trkpt>
      <trkpt lat="48.71438" lon="-3.2949">
        <ele>80</ele>
        <time>2015-01-18T09:12:00Z</time>
      </trkpt>
      <trkpt lat="48.71444" lon="-3.29482">
        <ele>80</ele>
        <time>2015-01-18T09:12:01Z</time>
      </trkpt>
      <trkpt lat="48.71451" lon="-3.29473">
        <ele>80</ele>
        <time>2015-01-18T09:12:02Z</time>
      </trkpt>
      <trkpt lat="48.71457" lon="-3.29464">
        <ele>80</ele>
        <time>2015-01-18T09:12:03Z</time>
      </trkpt>
      <trkpt lat="48.71463" lon="-3.29454">
        <ele>80</ele>
        <time>2015-01-18T09:12:04Z</time>
      </trkpt>
      <trkpt lat="48.7147" lon="-3.29446">
        <ele>80</ele>
        <time>2015-01-18T09:12:05Z</time>
      </trkpt>
      <trkpt lat="48.71476" lon="-3.29436">
        <ele>80</ele>
        <time>2015-01-18T09:12:06Z</time>
      </trkpt>
      <trkpt lat="48.71482" lon="-3.29428">
        <ele>80</ele>
        <time>2015-01-18T09:12:07Z</time>
      </trkpt>
      <trkpt lat="48.71489" lon="-3.29418">
        <ele>80</ele>
        <time>2015-01-18T09:12:08Z</time>
      </trkpt>
      <trkpt lat="48.71495" lon="-3.29409">
        <ele>80</ele>
        <time>2015-01-18T09:12:09Z</time>
      </trkpt>
      <trkpt lat="48.71501" lon="-3.294">
        <ele>80</ele>
        <time>2015-01-18T09:12:10Z</time>
      </trkpt>
      <trkpt lat="48.71508" lon="-3.29391">
        <ele>80</ele>
        <time>2015-01-18T09:12:11Z</time>
      </trkpt>
      <trkpt lat="48.71514" lon="-3.29382">
        <ele>80</ele>
        <time>2015-01-18T09:12:12Z</time>
      </trkpt>
      <trkpt lat="48.71521" lon="-3.29373">
        <ele>80</ele>
        <time>2015-01-18T09:12:13Z</time>
      </trkpt>
      <trkpt lat="48.71528" lon="-3.29363">
        <ele>80</ele>
        <time>2015-01-18T09:12:14Z</time>
      </trkpt>
      <trkpt lat="48.71535" lon="-3.29355">
        <ele>80</ele>
        <time>2015-01-18T09:12:15Z</time>
      </trkpt>
      <trkpt lat="48.71542" lon="-3.29346">
        <ele>80</ele>
        <time>2015-01-18T09:12:16Z</time>
      </trkpt>
      <trkpt lat="48.7155" lon="-3.29338">
        <ele>80</ele>
        <time>2015-01-18T09:12:17Z</time>
      </trkpt>
      <trkpt lat="48.71558" lon="-3.2933">
        <ele>80</ele>
        <time>2015-01-18T09:12:18Z</time>
      </trkpt>
      <trkpt lat="48.71565" lon="-3.29322">
        <ele>80</ele>
        <time>2015-01-18T09:12:19Z</time>
      </trkpt>
      <trkpt lat="48.71573" lon="-3.29314">
        <ele>80</ele>
        <time>2015-01-18T09:12:20Z</time>
      </trkpt>
      <trkpt lat="48.71581" lon="-3.29306">
        <ele>80</ele>
        <time>2015-01-18T09:12:21Z</time>
      </trkpt>
      <trkpt lat="48.71589" lon="-3.29299">
        <ele>80</ele>
        <time>2015-01-18T09:12:22Z</time>
      </trkpt>
      <trkpt lat="48.71597" lon="-3.29292">
        <ele>80</ele>
        <time>2015-01-18T09:12:23Z</time>
      </trkpt>
      <trkpt lat="48.71605" lon="-3.29285">
        <ele>80</ele>
        <time>2015-01-18T09:12:24Z</time>
      </trkpt>
      <trkpt lat="48.71613" lon="-3.29278">
        <ele>80</ele>
        <time>2015-01-18T09:12:25Z</time>
      </trkpt>
      <trkpt lat="48.71621" lon="-3.29272">
        <ele>80</ele>
        <time>2015-01-18T09:12:26Z</time>
      </trkpt>
      <trkpt lat="48.7163" lon="-3.29266">
        <ele>80</ele>
        <time>2015-01-18T09:12:27Z</time>
      </trkpt>
      <trkpt lat="48.71638" lon="-3.2926">
        <ele>80</ele>
        <time>2015-01-18T09:12:28Z</time>
      </trkpt>
      <trkpt lat="48.71646" lon="-3.29255">
        <ele>80</ele>
        <time>2015-01-18T09:12:29Z</time>
      </trkpt>
      <trkpt lat="48.71655" lon="-3.29249">
        <ele>80</ele>
        <time>2015-01-18T09:12:30Z</time>
      </trkpt>
      <trkpt lat="48.71664" lon="-3.29244">
        <ele>80</ele>
        <time>2015-01-18T09:12:31Z</time>
      </trkpt>
      <trkpt lat="48.71672" lon="-3.2924">
        <ele>80</ele>
        <time>2015-01-18T09:12:32Z</time>
      </trkpt>
      <trkpt lat="48.71681" lon="-3.29235">
        <ele>80</ele>
        <time>2015-01-18T09:12:33Z</time>
      </trkpt>
      <trkpt lat="48.7169" lon="-3.29231">
        <ele>80</ele>
        <time>2015-01-18T09:12:34Z</time>
      </trkpt>
      <trkpt lat="48.71699" lon="-3.29227">
        <ele>80</ele>
        <time>2015-01-18T09:12:35Z</time>
      </trkpt>
      <trkpt lat="48.71708" lon="-3.29223">
        <ele>80</ele>
        <time>2015-01-18T09:12:36Z</time>
      </trkpt>
      <trkpt lat="48.71717" lon="-3.2922">
        <ele>80</ele>
        <time>2015-01-18T09:12:37Z</time>
      </trkpt>
      <trkpt lat="48.71726" lon="-3.29216">
        <ele>80</ele>
        <time>2015-01-18T09:12:38Z</time>
      </trkpt>
      <trkpt lat="48.71735" lon="-3.29214">
        <ele>80</ele>
        <time>2015-01-18T09:12:39Z</time>
      </trkpt>
      <trkpt lat="48.71745" lon="-3.29211">
        <ele>80</ele>
        <time>2015-01-18T09:12:40Z</time>
      </trkpt>
      <trkpt lat="48.71754" lon="-3.29208">
        <ele>80</ele>
        <time>2015-01-18T09:12:41Z</time>
      </trkpt>
      <trkpt lat="48.71764" lon="-3.29206">
        <ele>80</ele>
        <time>2015-01-18T09:12:42Z</time>
      </trkpt>
      <trkpt lat="48.71773" lon="-3.29204">
        <ele>80</ele>
        <time>2015-01-18T09:12:43Z</time>
      </trkpt>
      <trkpt lat="48.71783" lon="-3.29202">
        <ele>80</ele>
        <time>2015-01-18T09:12:44Z</time>
      </trkpt>
      <trkpt lat="48.71793" lon="-3.292">
        <ele>80</ele>
        <time>2015-01-18T09:12:44Z</time>
      </trkpt>
      <trkpt lat="48.71803" lon="-3.29198">
        <ele>80</ele>
        <time>2015-01-18T09:12:45Z</time>
      </trkpt>
      <trkpt lat="48.71813" lon="-3.29196">
        <ele>80</ele>
        <time>2015-01-18T09:12:47Z</time>
      </trkpt>
      <trkpt lat="48.71823" lon="-3.29193">
        <ele>80</ele>
        <time>2015-01-18T09:12:47Z</time>
      </trkpt>
      <trkpt lat="48.71833" lon="-3.29191">
        <ele>80</ele>
        <time>2015-01-18T09:12:48Z</time>
      </trkpt>
      <trkpt lat="48.71844" lon="-3.29188">
        <ele>80</ele>
        <time>2015-01-18T09:12:49Z</time>
      </trkpt>
      <trkpt lat="48.71854" lon="-3.29186">
        <ele>80</ele>
        <time>2015-01-18T09:12:50Z</time>
      </trkpt>
      <trkpt lat="48.71865" lon="-3.29184">
        <ele>80</ele>
        <time>2015-01-18T09:12:52Z</time>
      </trkpt>
      <trkpt lat="48.71875" lon="-3.29182">
        <ele>80</ele>
        <time>2015-01-18T09:12:52Z</time>
      </trkpt>
      <trkpt lat="48.71886" lon="-3.29179">
        <ele>80</ele>
        <time>2015-01-18T09:12:53Z</time>
      </trkpt>
      <trkpt lat="48.71897" lon="-3.29176">
        <ele>80</ele>
        <time>2015-01-18T09:12:54Z</time>
      </trkpt>
      <trkpt lat="48.71907" lon="-3.29174">
        <ele>80</ele>
        <time>2015-01-18T09:12:55Z</time>
      </trkpt>
      <trkpt lat="48.71918" lon="-3.29171">
        <ele>80</ele>
        <time>2015-01-18T09:12:57Z</time>
      </trkpt>
      <trkpt lat="48.71929" lon="-3.29169">
        <ele>80</ele>
        <time>2015-01-18T09:12:57Z</time>
      </trkpt>
      <trkpt lat="48.71939" lon="-3.29167">
        <ele>79</ele>
        <time>2015-01-18T09:12:58Z</time>
      </trkpt>
      <trkpt lat="48.7195" lon="-3.29165">
        <ele>79</ele>
        <time>2015-01-18T09:12:59Z</time>
      </trkpt>
      <trkpt lat="48.7196" lon="-3.29163">
        <ele>79</ele>
        <time>2015-01-18T09:13:00Z</time>
      </trkpt>
      <trkpt lat="48.71971" lon="-3.29161">
        <ele>79</ele>
        <time>2015-01-18T09:13:02Z</time>
      </trkpt>
      <trkpt lat="48.71982" lon="-3.29159">
        <ele>79</ele>
        <time>2015-01-18T09:13:02Z</time>
      </trkpt>
      <trkpt lat="48.71992" lon="-3.29156">
        <ele>79</ele>
        <time>2015-01-18T09:13:03Z</time>
      </trkpt>
      <trkpt lat="48.72003" lon="-3.29153">
        <ele>79</ele>
        <time>2015-01-18T09:13:04Z</time>
      </trkpt>
      <trkpt lat="48.72013" lon="-3.2915">
        <ele>79</ele>
        <time>2015-01-18T09:13:05Z</time>
      </trkpt>
      <trkpt lat="48.72023" lon="-3.29147">
        <ele>79</ele>
        <time>2015-01-18T09:13:07Z</time>
      </trkpt>
      <trkpt lat="48.72033" lon="-3.29143">
        <ele>79</ele>
        <time>2015-01-18T09:13:07Z</time>
      </trkpt>
      <trkpt lat="48.72043" lon="-3.2914">
        <ele>79</ele>
        <time>2015-01-18T09:13:08Z</time>
      </trkpt>
      <trkpt lat="48.72053" lon="-3.29136">
        <ele>79</ele>
        <time>2015-01-18T09:13:09Z</time>
      </trkpt>
      <trkpt lat="48.72063" lon="-3.29133">
        <ele>79</ele>
        <time>2015-01-18T09:13:11Z</time>
      </trkpt>
      <trkpt lat="48.72072" lon="-3.2913">
        <ele>78</ele>
        <time>2015-01-18T09:13:12Z</time>
      </trkpt>
      <trkpt lat="48.72082" lon="-3.29126">
        <ele>78</ele>
        <time>2015-01-18T09:13:13Z</time>
      </trkpt>
      <trkpt lat="48.72091" lon="-3.29122">
        <ele>78</ele>
        <time>2015-01-18T09:13:14Z</time>
      </trkpt>
      <trkpt lat="48.721" lon="-3.29118">
        <ele>78</ele>
        <time>2015-01-18T09:13:15Z</time>
      </trkpt>
      <trkpt lat="48.72109" lon="-3.29113">
        <ele>78</ele>
        <time>2015-01-18T09:13:16Z</time>
      </trkpt>
      <trkpt lat="48.72118" lon="-3.29108">
        <ele>78</ele>
        <time>2015-01-18T09:13:17Z</time>
      </trkpt>
      <trkpt lat="48.72126" lon="-3.29103">
        <ele>78</ele>
        <time>2015-01-18T09:13:18Z</time>
      </trkpt>
      <trkpt lat="48.72135" lon="-3.29097">
        <ele>78</ele>
        <time>2015-01-18T09:13:19Z</time>
      </trkpt>
      <trkpt lat="48.72143" lon="-3.29091">
        <ele>78</ele>
        <time>2015-01-18T09:13:20Z</time>
      </trkpt>
      <trkpt lat="48.72152" lon="-3.29085">
        <ele>78</ele>
        <time>2015-01-18T09:13:21Z</time>
      </trkpt>
      <trkpt lat="48.7216" lon="-3.29079">
        <ele>78</ele>
        <time>2015-01-18T09:13:22Z</time>
      </trkpt>
      <trkpt lat="48.72168" lon="-3.29072">
        <ele>78</ele>
        <time>2015-01-18T09:13:23Z</time>
      </trkpt>
      <trkpt lat="48.72177" lon="-3.29066">
        <ele>78</ele>
        <time>2015-01-18T09:13:24Z</time>
      </trkpt>
      <trkpt lat="48.72186" lon="-3.2906">
        <ele>78</ele>
        <time>2015-01-18T09:13:25Z</time>
      </trkpt>
      <trkpt lat="48.72194" lon="-3.29054">
        <ele>78</ele>
        <time>2015-01-18T09:13:26Z</time>
      </trkpt>
      <trkpt lat="48.72203" lon="-3.29047">
        <ele>78</ele>
        <time>2015-01-18T09:13:27Z</time>
      </trkpt>
      <trkpt lat="48.72212" lon="-3.29041">
        <ele>78</ele>
        <time>2015-01-18T09:13:28Z</time>
      </trkpt>
      <trkpt lat="48.7222" lon="-3.29034">
        <ele>78</ele>
        <time>2015-01-18T09:13:29Z</time>
      </trkpt>
      <trkpt lat="48.72229" lon="-3.29028">
        <ele>78</ele>
        <time>2015-01-18T09:13:30Z</time>
      </trkpt>
      <trkpt lat="48.72238" lon="-3.29021">
        <ele>78</ele>
        <time>2015-01-18T09:13:31Z</time>
      </trkpt>
      <trkpt lat="48.72246" lon="-3.29014">
        <ele>78</ele>
        <time>2015-01-18T09:13:32Z</time>
      </trkpt>
      <trkpt lat="48.72255" lon="-3.29007">
        <ele>78</ele>
        <time>2015-01-18T09:13:33Z</time>
      </trkpt>
      <trkpt lat="48.72264" lon="-3.29">
        <ele>78</ele>
        <time>2015-01-18T09:13:34Z</time>
      </trkpt>
      <trkpt lat="48.72272" lon="-3.28993">
        <ele>78</ele>
        <time>2015-01-18T09:13:35Z</time>
      </trkpt>
      <trkpt lat="48.72281" lon="-3.28987">
        <ele>78</ele>
        <time>2015-01-18T09:13:36Z</time>
      </trkpt>
      <trkpt lat="48.72289" lon="-3.28979">
        <ele>77</ele>
        <time>2015-01-18T09:13:37Z</time>
      </trkpt>
      <trkpt lat="48.72298" lon="-3.28972">
        <ele>77</ele>
        <time>2015-01-18T09:13:38Z</time>
      </trkpt>
      <trkpt lat="48.72306" lon="-3.28965">
        <ele>77</ele>
        <time>2015-01-18T09:13:39Z</time>
      </trkpt>
      <trkpt lat="48.72314" lon="-3.28958">
        <ele>77</ele>
        <time>2015-01-18T09:13:40Z</time>
      </trkpt>
      <trkpt lat="48.72322" lon="-3.2895">
        <ele>77</ele>
        <time>2015-01-18T09:13:41Z</time>
      </trkpt>
      <trkpt lat="48.72331" lon="-3.28943">
        <ele>77</ele>
        <time>2015-01-18T09:13:42Z</time>
      </trkpt>
      <trkpt lat="48.72339" lon="-3.28935">
        <ele>76</ele>
        <time>2015-01-18T09:13:43Z</time>
      </trkpt>
      <trkpt lat="48.72348" lon="-3.28927">
        <ele>76</ele>
        <time>2015-01-18T09:13:44Z</time>
      </trkpt>
      <trkpt lat="48.72356" lon="-3.2892">
        <ele>76</ele>
        <time>2015-01-18T09:13:45Z</time>
      </trkpt>
      <trkpt lat="48.72365" lon="-3.28912">
        <ele>75</ele>
        <time>2015-01-18T09:13:45Z</time>
      </trkpt>
      <trkpt lat="48.72374" lon="-3.28904">
        <ele>75</ele>
        <time>2015-01-18T09:13:46Z</time>
      </trkpt>
      <trkpt lat="48.72382" lon="-3.28896">
        <ele>74</ele>
        <time>2015-01-18T09:13:48Z</time>
      </trkpt>
      <trkpt lat="48.72392" lon="-3.28887">
        <ele>74</ele>
        <time>2015-01-18T09:13:48Z</time>
      </trkpt>
      <trkpt lat="48.72401" lon="-3.28879">
        <ele>73</ele>
        <time>2015-01-18T09:13:49Z</time>
      </trkpt>
      <trkpt lat="48.7241" lon="-3.2887">
        <ele>73</ele>
        <time>2015-01-18T09:13:50Z</time>
      </trkpt>
      <trkpt lat="48.72419" lon="-3.28861">
        <ele>72</ele>
        <time>2015-01-18T09:13:51Z</time>
      </trkpt>
      <trkpt lat="48.72428" lon="-3.28851">
        <ele>72</ele>
        <time>2015-01-18T09:13:53Z</time>
      </trkpt>
      <trkpt lat="48.72438" lon="-3.28841">
        <ele>71</ele>
        <time>2015-01-18T09:13:53Z</time>
      </trkpt>
      <trkpt lat="48.72447" lon="-3.28831">
        <ele>70</ele>
        <time>2015-01-18T09:13:54Z</time>
      </trkpt>
      <trkpt lat="48.72456" lon="-3.2882">
        <ele>70</ele>
        <time>2015-01-18T09:13:55Z</time>
      </trkpt>
      <trkpt lat="48.72466" lon="-3.28809">
        <ele>69</ele>
        <time>2015-01-18T09:13:56Z</time>
      </trkpt>
      <trkpt lat="48.72476" lon="-3.28798">
        <ele>68</ele>
        <time>2015-01-18T09:13:58Z</time>
      </trkpt>
      <trkpt lat="48.72486" lon="-3.28787">
        <ele>67</ele>
        <time>2015-01-18T09:13:58Z</time>
      </trkpt>
      <trkpt lat="48.72496" lon="-3.28777">
        <ele>67</ele>
        <time>2015-01-18T09:13:59Z</time>
      </trkpt>
      <trkpt lat="48.72507" lon="-3.28766">
        <ele>66</ele>
        <time>2015-01-18T09:14:00Z</time>
      </trkpt>
      <trkpt lat="48.72517" lon="-3.28755">
        <ele>65</ele>
        <time>2015-01-18T09:14:01Z</time>
      </trkpt>
      <trkpt lat="48.72528" lon="-3.28745">
        <ele>64</ele>
        <time>2015-01-18T09:14:03Z</time>
      </trkpt>
      <trkpt lat="48.72539" lon="-3.28733">
        <ele>63</ele>
        <time>2015-01-18T09:14:03Z</time>
      </trkpt>
      <trkpt lat="48.7255" lon="-3.28722">
        <ele>62</ele>
        <time>2015-01-18T09:14:04Z</time>
      </trkpt>
      <trkpt lat="48.72561" lon="-3.28712">
        <ele>61</ele>
        <time>2015-01-18T09:14:05Z</time>
      </trkpt>
      <trkpt lat="48.72572" lon="-3.28702">
        <ele>60</ele>
        <time>2015-01-18T09:14:06Z</time>
      </trkpt>
      <trkpt lat="48.72583" lon="-3.28692">
        <ele>59</ele>
        <time>2015-01-18T09:14:08Z</time>
      </trkpt>
      <trkpt lat="48.72595" lon="-3.28684">
        <ele>58</ele>
        <time>2015-01-18T09:14:08Z</time>
      </trkpt>
      <trkpt lat="48.72607" lon="-3.28675">
        <ele>57</ele>
        <time>2015-01-18T09:14:09Z</time>
      </trkpt>
      <trkpt lat="48.72619" lon="-3.28667">
        <ele>56</ele>
        <time>2015-01-18T09:14:10Z</time>
      </trkpt>
      <trkpt lat="48.72632" lon="-3.2866">
        <ele>55</ele>
        <time>2015-01-18T09:14:11Z</time>
      </trkpt>
      <trkpt lat="48.72644" lon="-3.28652">
        <ele>54</ele>
        <time>2015-01-18T09:14:13Z</time>
      </trkpt>
      <trkpt lat="48.72657" lon="-3.28645">
        <ele>54</ele>
        <time>2015-01-18T09:14:13Z</time>
      </trkpt>
      <trkpt lat="48.7267" lon="-3.28637">
        <ele>53</ele>
        <time>2015-01-18T09:14:14Z</time>
      </trkpt>
      <trkpt lat="48.72682" lon="-3.28629">
        <ele>52</ele>
        <time>2015-01-18T09:14:15Z</time>
      </trkpt>
      <trkpt lat="48.72695" lon="-3.28621">
        <ele>51</ele>
        <time>2015-01-18T09:14:16Z</time>
      </trkpt>
      <trkpt lat="48.72707" lon="-3.28613">
        <ele>51</ele>
        <time>2015-01-18T09:14:18Z</time>
      </trkpt>
      <trkpt lat="48.72718" lon="-3.28604">
        <ele>50</ele>
        <time>2015-01-18T09:14:18Z</time>
      </trkpt>
      <trkpt lat="48.7273" lon="-3.28596">
        <ele>49</ele>
        <time>2015-01-18T09:14:19Z</time>
      </trkpt>
      <trkpt lat="48.72742" lon="-3.28587">
        <ele>48</ele>
        <time>2015-01-18T09:14:20Z</time>
      </trkpt>
      <trkpt lat="48.72754" lon="-3.28577">
        <ele>48</ele>
        <time>2015-01-18T09:14:22Z</time>
      </trkpt>
      <trkpt lat="48.72765" lon="-3.28567">
        <ele>47</ele>
        <time>2015-01-18T09:14:23Z</time>
      </trkpt>
      <trkpt lat="48.72776" lon="-3.28557">
        <ele>47</ele>
        <time>2015-01-18T09:14:23Z</time>
      </trkpt>
      <trkpt lat="48.72786" lon="-3.28547">
        <ele>46</ele>
        <time>2015-01-18T09:14:24Z</time>
      </trkpt>
      <trkpt lat="48.72798" lon="-3.28537">
        <ele>46</ele>
        <time>2015-01-18T09:14:25Z</time>
      </trkpt>
      <trkpt lat="48.72809" lon="-3.28528">
        <ele>45</ele>
        <time>2015-01-18T09:14:26Z</time>
      </trkpt>
      <trkpt lat="48.7282" lon="-3.28519">
        <ele>44</ele>
        <time>2015-01-18T09:14:28Z</time>
      </trkpt>
      <trkpt lat="48.72831" lon="-3.28511">
        <ele>43</ele>
        <time>2015-01-18T09:14:28Z</time>
      </trkpt>
      <trkpt lat="48.72843" lon="-3.28503">
        <ele>43</ele>
        <time>2015-01-18T09:14:29Z</time>
      </trkpt>
      <trkpt lat="48.72855" lon="-3.28497">
        <ele>42</ele>
        <time>2015-01-18T09:14:30Z</time>
      </trkpt>
      <trkpt lat="48.72868" lon="-3.28491">
        <ele>41</ele>
        <time>2015-01-18T09:14:31Z</time>
      </trkpt>
      <trkpt lat="48.7288" lon="-3.28485">
        <ele>40</ele>
        <time>2015-01-18T09:14:33Z</time>
      </trkpt>
      <trkpt lat="48.72892" lon="-3.2848">
        <ele>39</ele>
        <time>2015-01-18T09:14:33Z</time>
      </trkpt>
      <trkpt lat="48.72905" lon="-3.28475">
        <ele>38</ele>
        <time>2015-01-18T09:14:34Z</time>
      </trkpt>
      <trkpt lat="48.72917" lon="-3.28468">
        <ele>37</ele>
        <time>2015-01-18T09:14:35Z</time>
      </trkpt>
      <trkpt lat="48.7293" lon="-3.28462">
        <ele>36</ele>
        <time>2015-01-18T09:14:36Z</time>
      </trkpt>
      <trkpt lat="48.72943" lon="-3.28454">
        <ele>35</ele>
        <time>2015-01-18T09:14:37Z</time>
      </trkpt>
      <trkpt lat="48.72956" lon="-3.28445">
        <ele>34</ele>
        <time>2015-01-18T09:14:38Z</time>
      </trkpt>
      <trkpt lat="48.72969" lon="-3.28436">
        <ele>33</ele>
        <time>2015-01-18T09:14:39Z</time>
      </trkpt>
      <trkpt lat="48.72981" lon="-3.28426">
        <ele>32</ele>
        <time>2015-01-18T09:14:40Z</time>
      </trkpt>
      <trkpt lat="48.72994" lon="-3.28415">
        <ele>31</ele>
        <time>2015-01-18T09:14:41Z</time>
      </trkpt>
      <trkpt lat="48.73007" lon="-3.28405">
        <ele>31</ele>
        <time>2015-01-18T09:14:42Z</time>
      </trkpt>
      <trkpt lat="48.73019" lon="-3.28394">
        <ele>30</ele>
        <time>2015-01-18T09:14:43Z</time>
      </trkpt>
      <trkpt lat="48.73031" lon="-3.28383">
        <ele>29</ele>
        <time>2015-01-18T09:14:44Z</time>
      </trkpt>
      <trkpt lat="48.73043" lon="-3.28371">
        <ele>28</ele>
        <time>2015-01-18T09:14:45Z</time>
      </trkpt>
      <trkpt lat="48.73054" lon="-3.28358">
        <ele>27</ele>
        <time>2015-01-18T09:14:46Z</time>
      </trkpt>
      <trkpt lat="48.73064" lon="-3.28344">
        <ele>27</ele>
        <time>2015-01-18T09:14:48Z</time>
      </trkpt>
      <trkpt lat="48.73073" lon="-3.28329">
        <ele>26</ele>
        <time>2015-01-18T09:14:48Z</time>
      </trkpt>
      <trkpt lat="48.73082" lon="-3.28313">
        <ele>25</ele>
        <time>2015-01-18T09:14:49Z</time>
      </trkpt>
      <trkpt lat="48.7309" lon="-3.28296">
        <ele>25</ele>
        <time>2015-01-18T09:14:50Z</time>
      </trkpt>
      <trkpt lat="48.73097" lon="-3.28279">
        <ele>24</ele>
        <time>2015-01-18T09:14:51Z</time>
      </trkpt>
      <trkpt lat="48.73103" lon="-3.28261">
        <ele>24</ele>
        <time>2015-01-18T09:14:53Z</time>
      </trkpt>
      <trkpt lat="48.7311" lon="-3.28244">
        <ele>23</ele>
        <time>2015-01-18T09:14:53Z</time>
      </trkpt>
      <trkpt lat="48.73116" lon="-3.28226">
        <ele>23</ele>
        <time>2015-01-18T09:14:54Z</time>
      </trkpt>
      <trkpt lat="48.73122" lon="-3.28208">
        <ele>22</ele>
        <time>2015-01-18T09:14:55Z</time>
      </trkpt>
      <trkpt lat="48.73129" lon="-3.2819">
        <ele>21</ele>
        <time>2015-01-18T09:14:56Z</time>
      </trkpt>
      <trkpt lat="48.73134" lon="-3.28173">
        <ele>21</ele>
        <time>2015-01-18T09:14:57Z</time>
      </trkpt>
      <trkpt lat="48.7314" lon="-3.28155">
        <ele>20</ele>
        <time>2015-01-18T09:14:58Z</time>
      </trkpt>
      <trkpt lat="48.73146" lon="-3.28138">
        <ele>20</ele>
        <time>2015-01-18T09:14:59Z</time>
      </trkpt>
      <trkpt lat="48.73151" lon="-3.28122">
        <ele>20</ele>
        <time>2015-01-18T09:15:00Z</time>
      </trkpt>
      <trkpt lat="48.73156" lon="-3.28106">
        <ele>19</ele>
        <time>2015-01-18T09:15:01Z</time>
      </trkpt>
      <trkpt lat="48.73162" lon="-3.2809">
        <ele>19</ele>
        <time>2015-01-18T09:15:03Z</time>
      </trkpt>
      <trkpt lat="48.73168" lon="-3.28075">
        <ele>18</ele>
        <time>2015-01-18T09:15:03Z</time>
      </trkpt>
      <trkpt lat="48.73174" lon="-3.2806">
        <ele>18</ele>
        <time>2015-01-18T09:15:04Z</time>
      </trkpt>
      <trkpt lat="48.7318" lon="-3.28045">
        <ele>18</ele>
        <time>2015-01-18T09:15:05Z</time>
      </trkpt>
      <trkpt lat="48.73186" lon="-3.2803">
        <ele>17</ele>
        <time>2015-01-18T09:15:06Z</time>
      </trkpt>
      <trkpt lat="48.73193" lon="-3.28017">
        <ele>17</ele>
        <time>2015-01-18T09:15:08Z</time>
      </trkpt>
      <trkpt lat="48.732" lon="-3.28004">
        <ele>17</ele>
        <time>2015-01-18T09:15:08Z</time>
      </trkpt>
      <trkpt lat="48.73208" lon="-3.27991">
        <ele>16</ele>
        <time>2015-01-18T09:15:09Z</time>
      </trkpt>
      <trkpt lat="48.73216" lon="-3.27979">
        <ele>16</ele>
        <time>2015-01-18T09:15:10Z</time>
      </trkpt>
      <trkpt lat="48.73223" lon="-3.27967">
        <ele>16</ele>
        <time>2015-01-18T09:15:11Z</time>
      </trkpt>
      <trkpt lat="48.73231" lon="-3.27956">
        <ele>15</ele>
        <time>2015-01-18T09:15:13Z</time>
      </trkpt>
      <trkpt lat="48.73238" lon="-3.27944">
        <ele>15</ele>
        <time>2015-01-18T09:15:13Z</time>
      </trkpt>
      <trkpt lat="48.73246" lon="-3.27933">
        <ele>15</ele>
        <time>2015-01-18T09:15:14Z</time>
      </trkpt>
      <trkpt lat="48.73252" lon="-3.27922">
        <ele>15</ele>
        <time>2015-01-18T09:15:16Z</time>
      </trkpt>
      <trkpt lat="48.73259" lon="-3.27912">
        <ele>14</ele>
        <time>2015-01-18T09:15:17Z</time>
      </trkpt>
      <trkpt lat="48.73265" lon="-3.27901">
        <ele>14</ele>
        <time>2015-01-18T09:15:18Z</time>
      </trkpt>
      <trkpt lat="48.73271" lon="-3.27889">
        <ele>14</ele>
        <time>2015-01-18T09:15:19Z</time>
      </trkpt>
      <trkpt lat="48.73276" lon="-3.27878">
        <ele>14</ele>
        <time>2015-01-18T09:15:20Z</time>
      </trkpt>
      <trkpt lat="48.73281" lon="-3.27866">
        <ele>13</ele>
        <time>2015-01-18T09:15:21Z</time>
      </trkpt>
      <trkpt lat="48.73287" lon="-3.27855">
        <ele>13</ele>
        <time>2015-01-18T09:15:22Z</time>
      </trkpt>
      <trkpt lat="48.73293" lon="-3.27844">
        <ele>13</ele>
        <time>2015-01-18T09:15:23Z</time>
      </trkpt>
      <trkpt lat="48.73299" lon="-3.27834">
        <ele>12</ele>
        <time>2015-01-18T09:15:24Z</time>
      </trkpt>
      <trkpt lat="48.73306" lon="-3.27824">
        <ele>12</ele>
        <time>2015-01-18T09:15:25Z</time>
      </trkpt>
      <trkpt lat="48.73313" lon="-3.27813">
        <ele>11</ele>
        <time>2015-01-18T09:15:26Z</time>
      </trkpt>
      <trkpt lat="48.7332" lon="-3.27803">
        <ele>11</ele>
        <time>2015-01-18T09:15:27Z</time>
      </trkpt>
      <trkpt lat="48.73328" lon="-3.27793">
        <ele>10</ele>
        <time>2015-01-18T09:15:28Z</time>
      </trkpt>
      <trkpt lat="48.73335" lon="-3.27784">
        <ele>10</ele>
        <time>2015-01-18T09:15:29Z</time>
      </trkpt>
      <trkpt lat="48.73343" lon="-3.27775">
        <ele>10</ele>
        <time>2015-01-18T09:15:30Z</time>
      </trkpt>
      <trkpt lat="48.73352" lon="-3.27766">
        <ele>9</ele>
        <time>2015-01-18T09:15:30Z</time>
      </trkpt>
      <trkpt lat="48.7336" lon="-3.27758">
        <ele>9</ele>
        <time>2015-01-18T09:15:31Z</time>
      </trkpt>
      <trkpt lat="48.73369" lon="-3.27751">
        <ele>9</ele>
        <time>2015-01-18T09:15:32Z</time>
      </trkpt>
      <trkpt lat="48.73379" lon="-3.27745">
        <ele>9</ele>
        <time>2015-01-18T09:15:34Z</time>
      </trkpt>
      <trkpt lat="48.73388" lon="-3.27741">
        <ele>9</ele>
        <time>2015-01-18T09:15:35Z</time>
      </trkpt>
      <trkpt lat="48.73398" lon="-3.27736">
        <ele>9</ele>
        <time>2015-01-18T09:15:36Z</time>
      </trkpt>
      <trkpt lat="48.73407" lon="-3.27732">
        <ele>9</ele>
        <time>2015-01-18T09:15:37Z</time>
      </trkpt>
      <trkpt lat="48.73416" lon="-3.27728">
        <ele>9</ele>
        <time>2015-01-18T09:15:38Z</time>
      </trkpt>
      <trkpt lat="48.73425" lon="-3.27725">
        <ele>9</ele>
        <time>2015-01-18T09:15:39Z</time>
      </trkpt>
      <trkpt lat="48.73433" lon="-3.27721">
        <ele>9</ele>
        <time>2015-01-18T09:15:40Z</time>
      </trkpt>
      <trkpt lat="48.73441" lon="-3.27717">
        <ele>9</ele>
        <time>2015-01-18T09:15:41Z</time>
      </trkpt>
      <trkpt lat="48.73448" lon="-3.27713">
        <ele>9</ele>
        <time>2015-01-18T09:15:42Z</time>
      </trkpt>
      <trkpt lat="48.73456" lon="-3.27709">
        <ele>9</ele>
        <time>2015-01-18T09:15:43Z</time>
      </trkpt>
      <trkpt lat="48.73464" lon="-3.27704">
        <ele>9</ele>
        <time>2015-01-18T09:15:44Z</time>
      </trkpt>
      <trkpt lat="48.73471" lon="-3.27698">
        <ele>9</ele>
        <time>2015-01-18T09:15:45Z</time>
      </trkpt>
      <trkpt lat="48.73479" lon="-3.27692">
        <ele>9</ele>
        <time>2015-01-18T09:15:46Z</time>
      </trkpt>
      <trkpt lat="48.73486" lon="-3.27685">
        <ele>9</ele>
        <time>2015-01-18T09:15:47Z</time>
      </trkpt>
      <trkpt lat="48.73493" lon="-3.27678">
        <ele>9</ele>
        <time>2015-01-18T09:15:48Z</time>
      </trkpt>
      <trkpt lat="48.735" lon="-3.27671">
        <ele>9</ele>
        <time>2015-01-18T09:15:49Z</time>
      </trkpt>
      <trkpt lat="48.73507" lon="-3.27663">
        <ele>9</ele>
        <time>2015-01-18T09:15:50Z</time>
      </trkpt>
      <trkpt lat="48.73514" lon="-3.27655">
        <ele>9</ele>
        <time>2015-01-18T09:15:51Z</time>
      </trkpt>
      <trkpt lat="48.7352" lon="-3.27646">
        <ele>9</ele>
        <time>2015-01-18T09:15:52Z</time>
      </trkpt>
      <trkpt lat="48.73527" lon="-3.27638">
        <ele>9</ele>
        <time>2015-01-18T09:15:53Z</time>
      </trkpt>
      <trkpt lat="48.73534" lon="-3.27629">
        <ele>9</ele>
        <time>2015-01-18T09:15:54Z</time>
      </trkpt>
      <trkpt lat="48.7354" lon="-3.2762">
        <ele>9</ele>
        <time>2015-01-18T09:15:55Z</time>
      </trkpt>
      <trkpt lat="48.73547" lon="-3.27611">
        <ele>9</ele>
        <time>2015-01-18T09:15:56Z</time>
      </trkpt>
      <trkpt lat="48.73552" lon="-3.27603">
        <ele>9</ele>
        <time>2015-01-18T09:15:57Z</time>
      </trkpt>
      <trkpt lat="48.73558" lon="-3.27594">
        <ele>9</ele>
        <time>2015-01-18T09:15:58Z</time>
      </trkpt>
      <trkpt lat="48.73564" lon="-3.27585">
        <ele>9</ele>
        <time>2015-01-18T09:15:59Z</time>
      </trkpt>
      <trkpt lat="48.73569" lon="-3.27575">
        <ele>9</ele>
        <time>2015-01-18T09:16:00Z</time>
      </trkpt>
      <trkpt lat="48.73574" lon="-3.27566">
        <ele>9</ele>
        <time>2015-01-18T09:16:01Z</time>
      </trkpt>
      <trkpt lat="48.73579" lon="-3.27556">
        <ele>9</ele>
        <time>2015-01-18T09:16:02Z</time>
      </trkpt>
      <trkpt lat="48.73584" lon="-3.27547">
        <ele>9</ele>
        <time>2015-01-18T09:16:03Z</time>
      </trkpt>
      <trkpt lat="48.73589" lon="-3.27537">
        <ele>9</ele>
        <time>2015-01-18T09:16:04Z</time>
      </trkpt>
      <trkpt lat="48.73593" lon="-3.27527">
        <ele>9</ele>
        <time>2015-01-18T09:16:05Z</time>
      </trkpt>
      <trkpt lat="48.73598" lon="-3.27517">
        <ele>9</ele>
        <time>2015-01-18T09:16:06Z</time>
      </trkpt>
      <trkpt lat="48.73603" lon="-3.27507">
        <ele>9</ele>
        <time>2015-01-18T09:16:07Z</time>
      </trkpt>
      <trkpt lat="48.73607" lon="-3.27496">
        <ele>9</ele>
        <time>2015-01-18T09:16:08Z</time>
      </trkpt>
      <trkpt lat="48.73611" lon="-3.27486">
        <ele>9</ele>
        <time>2015-01-18T09:16:09Z</time>
      </trkpt>
      <trkpt lat="48.73616" lon="-3.27475">
        <ele>9</ele>
        <time>2015-01-18T09:16:10Z</time>
      </trkpt>
      <trkpt lat="48.7362" lon="-3.27464">
        <ele>9</ele>
        <time>2015-01-18T09:16:11Z</time>
      </trkpt>
      <trkpt lat="48.73625" lon="-3.27453">
        <ele>9</ele>
        <time>2015-01-18T09:16:12Z</time>
      </trkpt>
      <trkpt lat="48.7363" lon="-3.27442">
        <ele>9</ele>
        <time>2015-01-18T09:16:13Z</time>
      </trkpt>
      <trkpt lat="48.73635" lon="-3.27432">
        <ele>9</ele>
        <time>2015-01-18T09:16:14Z</time>
      </trkpt>
      <trkpt lat="48.7364" lon="-3.27421">
        <ele>9</ele>
        <time>2015-01-18T09:16:15Z</time>
      </trkpt>
      <trkpt lat="48.73645" lon="-3.27411">
        <ele>9</ele>
        <time>2015-01-18T09:16:16Z</time>
      </trkpt>
      <trkpt lat="48.73651" lon="-3.27401">
        <ele>9</ele>
        <time>2015-01-18T09:16:17Z</time>
      </trkpt>
      <trkpt lat="48.73656" lon="-3.27391">
        <ele>9</ele>
        <time>2015-01-18T09:16:18Z</time>
      </trkpt>
      <trkpt lat="48.73662" lon="-3.27382">
        <ele>9</ele>
        <time>2015-01-18T09:16:19Z</time>
      </trkpt>
      <trkpt lat="48.73668" lon="-3.27372">
        <ele>9</ele>
        <time>2015-01-18T09:16:20Z</time>
      </trkpt>
      <trkpt lat="48.73674" lon="-3.27362">
        <ele>9</ele>
        <time>2015-01-18T09:16:21Z</time>
      </trkpt>
      <trkpt lat="48.73679" lon="-3.27354">
        <ele>9</ele>
        <time>2015-01-18T09:16:22Z</time>
      </trkpt>
      <trkpt lat="48.73684" lon="-3.27344">
        <ele>9</ele>
        <time>2015-01-18T09:16:23Z</time>
      </trkpt>
      <trkpt lat="48.7369" lon="-3.27335">
        <ele>9</ele>
        <time>2015-01-18T09:16:24Z</time>
      </trkpt>
      <trkpt lat="48.73694" lon="-3.27326">
        <ele>9</ele>
        <time>2015-01-18T09:16:25Z</time>
      </trkpt>
      <trkpt lat="48.73699" lon="-3.27316">
        <ele>9</ele>
        <time>2015-01-18T09:16:26Z</time>
      </trkpt>
      <trkpt lat="48.73703" lon="-3.27306">
        <ele>9</ele>
        <time>2015-01-18T09:16:27Z</time>
      </trkpt>
      <trkpt lat="48.73708" lon="-3.27297">
        <ele>9</ele>
        <time>2015-01-18T09:16:28Z</time>
      </trkpt>
      <trkpt lat="48.73711" lon="-3.27287">
        <ele>9</ele>
        <time>2015-01-18T09:16:29Z</time>
      </trkpt>
      <trkpt lat="48.73715" lon="-3.27277">
        <ele>9</ele>
        <time>2015-01-18T09:16:30Z</time>
      </trkpt>
      <trkpt lat="48.73719" lon="-3.27267">
        <ele>9</ele>
        <time>2015-01-18T09:16:31Z</time>
      </trkpt>
      <trkpt lat="48.73722" lon="-3.27257">
        <ele>9</ele>
        <time>2015-01-18T09:16:32Z</time>
      </trkpt>
      <trkpt lat="48.73726" lon="-3.27247">
        <ele>9</ele>
        <time>2015-01-18T09:16:33Z</time>
      </trkpt>
      <trkpt lat="48.7373" lon="-3.27237">
        <ele>9</ele>
        <time>2015-01-18T09:16:34Z</time>
      </trkpt>
      <trkpt lat="48.73734" lon="-3.27227">
        <ele>9</ele>
        <time>2015-01-18T09:16:35Z</time>
      </trkpt>
      <trkpt lat="48.73738" lon="-3.27216">
        <ele>9</ele>
        <time>2015-01-18T09:16:36Z</time>
      </trkpt>
      <trkpt lat="48.73741" lon="-3.27205">
        <ele>9</ele>
        <time>2015-01-18T09:16:37Z</time>
      </trkpt>
      <trkpt lat="48.73745" lon="-3.27194">
        <ele>9</ele>
        <time>2015-01-18T09:16:38Z</time>
      </trkpt>
      <trkpt lat="48.73748" lon="-3.27183">
        <ele>9</ele>
        <time>2015-01-18T09:16:39Z</time>
      </trkpt>
      <trkpt lat="48.73751" lon="-3.27171">
        <ele>9</ele>
        <time>2015-01-18T09:16:40Z</time>
      </trkpt>
      <trkpt lat="48.73754" lon="-3.2716">
        <ele>9</ele>
        <time>2015-01-18T09:16:41Z</time>
      </trkpt>
      <trkpt lat="48.73756" lon="-3.27148">
        <ele>9</ele>
        <time>2015-01-18T09:16:42Z</time>
      </trkpt>
      <trkpt lat="48.73759" lon="-3.27137">
        <ele>9</ele>
        <time>2015-01-18T09:16:43Z</time>
      </trkpt>
      <trkpt lat="48.73762" lon="-3.27126">
        <ele>9</ele>
        <time>2015-01-18T09:16:44Z</time>
      </trkpt>
      <trkpt lat="48.73764" lon="-3.27116">
        <ele>9</ele>
        <time>2015-01-18T09:16:45Z</time>
      </trkpt>
      <trkpt lat="48.73766" lon="-3.27105">
        <ele>9</ele>
        <time>2015-01-18T09:16:46Z</time>
      </trkpt>
      <trkpt lat="48.73769" lon="-3.27095">
        <ele>9</ele>
        <time>2015-01-18T09:16:47Z</time>
      </trkpt>
      <trkpt lat="48.73771" lon="-3.27084">
        <ele>9</ele>
        <time>2015-01-18T09:16:48Z</time>
      </trkpt>
      <trkpt lat="48.73773" lon="-3.27074">
        <ele>9</ele>
        <time>2015-01-18T09:16:49Z</time>
      </trkpt>
      <trkpt lat="48.73775" lon="-3.27064">
        <ele>10</ele>
        <time>2015-01-18T09:16:50Z</time>
      </trkpt>
      <trkpt lat="48.73777" lon="-3.27054">
        <ele>10</ele>
        <time>2015-01-18T09:16:51Z</time>
      </trkpt>
      <trkpt lat="48.7378" lon="-3.27045">
        <ele>10</ele>
        <time>2015-01-18T09:16:52Z</time>
      </trkpt>
      <trkpt lat="48.73782" lon="-3.27035">
        <ele>10</ele>
        <time>2015-01-18T09:16:53Z</time>
      </trkpt>
      <trkpt lat="48.73784" lon="-3.27025">
        <ele>10</ele>
        <time>2015-01-18T09:16:54Z</time>
      </trkpt>
      <trkpt lat="48.73786" lon="-3.27015">
        <ele>11</ele>
        <time>2015-01-18T09:16:55Z</time>
      </trkpt>
      <trkpt lat="48.73789" lon="-3.27006">
        <ele>11</ele>
        <time>2015-01-18T09:16:56Z</time>
      </trkpt>
      <trkpt lat="48.73792" lon="-3.26997">
        <ele>11</ele>
        <time>2015-01-18T09:16:57Z</time>
      </trkpt>
      <trkpt lat="48.73795" lon="-3.26989">
        <ele>11</ele>
        <time>2015-01-18T09:16:58Z</time>
      </trkpt>
      <trkpt lat="48.73798" lon="-3.26982">
        <ele>12</ele>
        <time>2015-01-18T09:16:59Z</time>
      </trkpt>
      <trkpt lat="48.73801" lon="-3.26975">
        <ele>12</ele>
        <time>2015-01-18T09:17:00Z</time>
      </trkpt>
      <trkpt lat="48.73805" lon="-3.26968">
        <ele>12</ele>
        <time>2015-01-18T09:17:01Z</time>
      </trkpt>
      <trkpt lat="48.73809" lon="-3.26962">
        <ele>13</ele>
        <time>2015-01-18T09:17:02Z</time>
      </trkpt>
      <trkpt lat="48.73813" lon="-3.26956">
        <ele>13</ele>
        <time>2015-01-18T09:17:03Z</time>
      </trkpt>
      <trkpt lat="48.73817" lon="-3.2695">
        <ele>14</ele>
        <time>2015-01-18T09:17:04Z</time>
      </trkpt>
      <trkpt lat="48.73822" lon="-3.26944">
        <ele>14</ele>
        <time>2015-01-18T09:17:05Z</time>
      </trkpt>
      <trkpt lat="48.73827" lon="-3.26938">
        <ele>14</ele>
        <time>2015-01-18T09:17:06Z</time>
      </trkpt>
      <trkpt lat="48.73831" lon="-3.26932">
        <ele>15</ele>
        <time>2015-01-18T09:17:07Z</time>
      </trkpt>
      <trkpt lat="48.73836" lon="-3.26926">
        <ele>15</ele>
        <time>2015-01-18T09:17:08Z</time>
      </trkpt>
      <trkpt lat="48.73841" lon="-3.26921">
        <ele>16</ele>
        <time>2015-01-18T09:17:09Z</time>
      </trkpt>
      <trkpt lat="48.73846" lon="-3.26915">
        <ele>16</ele>
        <time>2015-01-18T09:17:10Z</time>
      </trkpt>
      <trkpt lat="48.73851" lon="-3.2691">
        <ele>16</ele>
        <time>2015-01-18T09:17:11Z</time>
      </trkpt>
      <trkpt lat="48.73856" lon="-3.26905">
        <ele>16</ele>
        <time>2015-01-18T09:17:12Z</time>
      </trkpt>
      <trkpt lat="48.73861" lon="-3.269">
        <ele>17</ele>
        <time>2015-01-18T09:17:13Z</time>
      </trkpt>
      <trkpt lat="48.73867" lon="-3.26895">
        <ele>17</ele>
        <time>2015-01-18T09:17:14Z</time>
      </trkpt>
      <trkpt lat="48.73872" lon="-3.2689">
        <ele>17</ele>
        <time>2015-01-18T09:17:15Z</time>
      </trkpt>
      <trkpt lat="48.73878" lon="-3.26886">
        <ele>17</ele>
        <time>2015-01-18T09:17:16Z</time>
      </trkpt>
      <trkpt lat="48.73884" lon="-3.26882">
        <ele>17</ele>
        <time>2015-01-18T09:17:17Z</time>
      </trkpt>
      <trkpt lat="48.73889" lon="-3.26878">
        <ele>18</ele>
        <time>2015-01-18T09:17:18Z</time>
      </trkpt>
      <trkpt lat="48.73895" lon="-3.26873">
        <ele>18</ele>
        <time>2015-01-18T09:17:19Z</time>
      </trkpt>
      <trkpt lat="48.739" lon="-3.2687">
        <ele>18</ele>
        <time>2015-01-18T09:17:20Z</time>
      </trkpt>
      <trkpt lat="48.73906" lon="-3.26866">
        <ele>18</ele>
        <time>2015-01-18T09:17:21Z</time>
      </trkpt>
      <trkpt lat="48.73911" lon="-3.26862">
        <ele>18</ele>
        <time>2015-01-18T09:17:22Z</time>
      </trkpt>
      <trkpt lat="48.73917" lon="-3.26858">
        <ele>19</ele>
        <time>2015-01-18T09:17:23Z</time>
      </trkpt>
      <trkpt lat="48.73922" lon="-3.26854">
        <ele>19</ele>
        <time>2015-01-18T09:17:24Z</time>
      </trkpt>
      <trkpt lat="48.73928" lon="-3.26851">
        <ele>19</ele>
        <time>2015-01-18T09:17:25Z</time>
      </trkpt>
      <trkpt lat="48.73934" lon="-3.26847">
        <ele>19</ele>
        <time>2015-01-18T09:17:26Z</time>
      </trkpt>
      <trkpt lat="48.73939" lon="-3.26843">
        <ele>19</ele>
        <time>2015-01-18T09:17:27Z</time>
      </trkpt>
      <trkpt lat="48.73945" lon="-3.26839">
        <ele>20</ele>
        <time>2015-01-18T09:17:28Z</time>
      </trkpt>
      <trkpt lat="48.73951" lon="-3.26835">
        <ele>20</ele>
        <time>2015-01-18T09:17:29Z</time>
      </trkpt>
      <trkpt lat="48.73956" lon="-3.26831">
        <ele>20</ele>
        <time>2015-01-18T09:17:30Z</time>
      </trkpt>
      <trkpt lat="48.73962" lon="-3.26826">
        <ele>20</ele>
        <time>2015-01-18T09:17:31Z</time>
      </trkpt>
      <trkpt lat="48.73967" lon="-3.26822">
        <ele>20</ele>
        <time>2015-01-18T09:17:32Z</time>
      </trkpt>
      <trkpt lat="48.73972" lon="-3.26817">
        <ele>20</ele>
        <time>2015-01-18T09:17:33Z</time>
      </trkpt>
      <trkpt lat="48.73978" lon="-3.26812">
        <ele>20</ele>
        <time>2015-01-18T09:17:34Z</time>
      </trkpt>
      <trkpt lat="48.73983" lon="-3.26808">
        <ele>20</ele>
        <time>2015-01-18T09:17:35Z</time>
      </trkpt>
      <trkpt lat="48.73988" lon="-3.26803">
        <ele>20</ele>
        <time>2015-01-18T09:17:36Z</time>
      </trkpt>
      <trkpt lat="48.73994" lon="-3.26798">
        <ele>20</ele>
        <time>2015-01-18T09:17:37Z</time>
      </trkpt>
      <trkpt lat="48.73999" lon="-3.26793">
        <ele>20</ele>
        <time>2015-01-18T09:17:38Z</time>
      </trkpt>
      <trkpt lat="48.74004" lon="-3.26788">
        <ele>20</ele>
        <time>2015-01-18T09:17:39Z</time>
      </trkpt>
      <trkpt lat="48.74009" lon="-3.26783">
        <ele>21</ele>
        <time>2015-01-18T09:17:40Z</time>
      </trkpt>
      <trkpt lat="48.74015" lon="-3.26777">
        <ele>21</ele>
        <time>2015-01-18T09:17:41Z</time>
      </trkpt>
      <trkpt lat="48.7402" lon="-3.26772">
        <ele>21</ele>
        <time>2015-01-18T09:17:42Z</time>
      </trkpt>
      <trkpt lat="48.74026" lon="-3.26765">
        <ele>21</ele>
        <time>2015-01-18T09:17:43Z</time>
      </trkpt>
      <trkpt lat="48.74031" lon="-3.26759">
        <ele>21</ele>
        <time>2015-01-18T09:17:44Z</time>
      </trkpt>
      <trkpt lat="48.74036" lon="-3.26752">
        <ele>21</ele>
        <time>2015-01-18T09:17:45Z</time>
      </trkpt>
      <trkpt lat="48.74042" lon="-3.26745">
        <ele>21</ele>
        <time>2015-01-18T09:17:46Z</time>
      </trkpt>
      <trkpt lat="48.74047" lon="-3.26738">
        <ele>21</ele>
        <time>2015-01-18T09:17:47Z</time>
      </trkpt>
      <trkpt lat="48.74053" lon="-3.26731">
        <ele>21</ele>
        <time>2015-01-18T09:17:48Z</time>
      </trkpt>
      <trkpt lat="48.74059" lon="-3.26724">
        <ele>21</ele>
        <time>2015-01-18T09:17:49Z</time>
      </trkpt>
      <trkpt lat="48.74065" lon="-3.26716">
        <ele>21</ele>
        <time>2015-01-18T09:17:50Z</time>
      </trkpt>
      <trkpt lat="48.74071" lon="-3.26708">
        <ele>21</ele>
        <time>2015-01-18T09:17:51Z</time>
      </trkpt>
      <trkpt lat="48.74077" lon="-3.267">
        <ele>21</ele>
        <time>2015-01-18T09:17:52Z</time>
      </trkpt>
      <trkpt lat="48.74083" lon="-3.2669">
        <ele>21</ele>
        <time>2015-01-18T09:17:53Z</time>
      </trkpt>
      <trkpt lat="48.7409" lon="-3.26679">
        <ele>21</ele>
        <time>2015-01-18T09:17:54Z</time>
      </trkpt>
      <trkpt lat="48.74095" lon="-3.26668">
        <ele>21</ele>
        <time>2015-01-18T09:17:55Z</time>
      </trkpt>
      <trkpt lat="48.741" lon="-3.26656">
        <ele>21</ele>
        <time>2015-01-18T09:17:56Z</time>
      </trkpt>
      <trkpt lat="48.74106" lon="-3.26643">
        <ele>20</ele>
        <time>2015-01-18T09:17:57Z</time>
      </trkpt>
      <trkpt lat="48.74111" lon="-3.26631">
        <ele>20</ele>
        <time>2015-01-18T09:17:58Z</time>
      </trkpt>
      <trkpt lat="48.74116" lon="-3.26618">
        <ele>20</ele>
        <time>2015-01-18T09:17:59Z</time>
      </trkpt>
      <trkpt lat="48.74121" lon="-3.26606">
        <ele>20</ele>
        <time>2015-01-18T09:18:00Z</time>
      </trkpt>
      <trkpt lat="48.74127" lon="-3.26595">
        <ele>20</ele>
        <time>2015-01-18T09:18:01Z</time>
      </trkpt>
      <trkpt lat="48.74132" lon="-3.26584">
        <ele>20</ele>
        <time>2015-01-18T09:18:02Z</time>
      </trkpt>
      <trkpt lat="48.74138" lon="-3.26574">
        <ele>20</ele>
        <time>2015-01-18T09:18:03Z</time>
      </trkpt>
      <trkpt lat="48.74144" lon="-3.26566">
        <ele>20</ele>
        <time>2015-01-18T09:18:04Z</time>
      </trkpt>
      <trkpt lat="48.74151" lon="-3.26558">
        <ele>20</ele>
        <time>2015-01-18T09:18:05Z</time>
      </trkpt>
      <trkpt lat="48.74157" lon="-3.26552">
        <ele>20</ele>
        <time>2015-01-18T09:18:06Z</time>
      </trkpt>
      <trkpt lat="48.74163" lon="-3.26546">
        <ele>20</ele>
        <time>2015-01-18T09:18:07Z</time>
      </trkpt>
      <trkpt lat="48.7417" lon="-3.2654">
        <ele>20</ele>
        <time>2015-01-18T09:18:08Z</time>
      </trkpt>
      <trkpt lat="48.74177" lon="-3.26535">
        <ele>20</ele>
        <time>2015-01-18T09:18:09Z</time>
      </trkpt>
      <trkpt lat="48.74184" lon="-3.2653">
        <ele>20</ele>
        <time>2015-01-18T09:18:10Z</time>
      </trkpt>
      <trkpt lat="48.74192" lon="-3.26526">
        <ele>20</ele>
        <time>2015-01-18T09:18:11Z</time>
      </trkpt>
      <trkpt lat="48.74199" lon="-3.26522">
        <ele>20</ele>
        <time>2015-01-18T09:18:12Z</time>
      </trkpt>
      <trkpt lat="48.74206" lon="-3.26518">
        <ele>20</ele>
        <time>2015-01-18T09:18:13Z</time>
      </trkpt>
      <trkpt lat="48.74213" lon="-3.26514">
        <ele>20</ele>
        <time>2015-01-18T09:18:14Z</time>
      </trkpt>
      <trkpt lat="48.7422" lon="-3.2651">
        <ele>20</ele>
        <time>2015-01-18T09:18:15Z</time>
      </trkpt>
      <trkpt lat="48.74226" lon="-3.26506">
        <ele>20</ele>
        <time>2015-01-18T09:18:16Z</time>
      </trkpt>
      <trkpt lat="48.74232" lon="-3.26501">
        <ele>20</ele>
        <time>2015-01-18T09:18:17Z</time>
      </trkpt>
      <trkpt lat="48.74237" lon="-3.26495">
        <ele>20</ele>
        <time>2015-01-18T09:18:18Z</time>
      </trkpt>
      <trkpt lat="48.74242" lon="-3.26489">
        <ele>20</ele>
        <time>2015-01-18T09:18:19Z</time>
      </trkpt>
      <trkpt lat="48.74247" lon="-3.26483">
        <ele>20</ele>
        <time>2015-01-18T09:18:20Z</time>
      </trkpt>
      <trkpt lat="48.74252" lon="-3.26476">
        <ele>20</ele>
        <time>2015-01-18T09:18:21Z</time>
      </trkpt>
      <trkpt lat="48.74257" lon="-3.26469">
        <ele>20</ele>
        <time>2015-01-18T09:18:22Z</time>
      </trkpt>
      <trkpt lat="48.74261" lon="-3.26462">
        <ele>20</ele>
        <time>2015-01-18T09:18:23Z</time>
      </trkpt>
      <trkpt lat="48.74266" lon="-3.26455">
        <ele>20</ele>
        <time>2015-01-18T09:18:24Z</time>
      </trkpt>
      <trkpt lat="48.74271" lon="-3.26448">
        <ele>20</ele>
        <time>2015-01-18T09:18:25Z</time>
      </trkpt>
      <trkpt lat="48.74276" lon="-3.26442">
        <ele>20</ele>
        <time>2015-01-18T09:18:26Z</time>
      </trkpt>
      <trkpt lat="48.7428" lon="-3.26435">
        <ele>20</ele>
        <time>2015-01-18T09:18:27Z</time>
      </trkpt>
      <trkpt lat="48.74284" lon="-3.26428">
        <ele>20</ele>
        <time>2015-01-18T09:18:28Z</time>
      </trkpt>
      <trkpt lat="48.74288" lon="-3.26422">
        <ele>20</ele>
        <time>2015-01-18T09:18:29Z</time>
      </trkpt>
      <trkpt lat="48.74292" lon="-3.26415">
        <ele>20</ele>
        <time>2015-01-18T09:18:30Z</time>
      </trkpt>
      <trkpt lat="48.74297" lon="-3.26409">
        <ele>20</ele>
        <time>2015-01-18T09:18:31Z</time>
      </trkpt>
      <trkpt lat="48.74301" lon="-3.26403">
        <ele>20</ele>
        <time>2015-01-18T09:18:32Z</time>
      </trkpt>
      <trkpt lat="48.74305" lon="-3.26398">
        <ele>20</ele>
        <time>2015-01-18T09:18:33Z</time>
      </trkpt>
      <trkpt lat="48.7431" lon="-3.26391">
        <ele>20</ele>
        <time>2015-01-18T09:18:34Z</time>
      </trkpt>
      <trkpt lat="48.74315" lon="-3.26385">
        <ele>20</ele>
        <time>2015-01-18T09:18:35Z</time>
      </trkpt>
      <trkpt lat="48.7432" lon="-3.2638">
        <ele>20</ele>
        <time>2015-01-18T09:18:36Z</time>
      </trkpt>
      <trkpt lat="48.74325" lon="-3.26375">
        <ele>20</ele>
        <time>2015-01-18T09:18:37Z</time>
      </trkpt>
      <trkpt lat="48.74331" lon="-3.26371">
        <ele>20</ele>
        <time>2015-01-18T09:18:38Z</time>
      </trkpt>
      <trkpt lat="48.74337" lon="-3.26367">
        <ele>20</ele>
        <time>2015-01-18T09:18:39Z</time>
      </trkpt>
      <trkpt lat="48.74344" lon="-3.26364">
        <ele>20</ele>
        <time>2015-01-18T09:18:40Z</time>
      </trkpt>
      <trkpt lat="48.7435" lon="-3.26361">
        <ele>20</ele>
        <time>2015-01-18T09:18:41Z</time>
      </trkpt>
      <trkpt lat="48.74356" lon="-3.26358">
        <ele>20</ele>
        <time>2015-01-18T09:18:42Z</time>
      </trkpt>
      <trkpt lat="48.74362" lon="-3.26354">
        <ele>20</ele>
        <time>2015-01-18T09:18:43Z</time>
      </trkpt>
      <trkpt lat="48.74368" lon="-3.2635">
        <ele>20</ele>
        <time>2015-01-18T09:18:44Z</time>
      </trkpt>
      <trkpt lat="48.74374" lon="-3.26346">
        <ele>19</ele>
        <time>2015-01-18T09:18:45Z</time>
      </trkpt>
      <trkpt lat="48.7438" lon="-3.26342">
        <ele>19</ele>
        <time>2015-01-18T09:18:46Z</time>
      </trkpt>
      <trkpt lat="48.74386" lon="-3.26337">
        <ele>18</ele>
        <time>2015-01-18T09:18:47Z</time>
      </trkpt>
      <trkpt lat="48.74392" lon="-3.26332">
        <ele>17</ele>
        <time>2015-01-18T09:18:48Z</time>
      </trkpt>
      <trkpt lat="48.74398" lon="-3.26326">
        <ele>16</ele>
        <time>2015-01-18T09:18:49Z</time>
      </trkpt>
      <trkpt lat="48.74404" lon="-3.26321">
        <ele>16</ele>
        <time>2015-01-18T09:18:50Z</time>
      </trkpt>
      <trkpt lat="48.7441" lon="-3.26316">
        <ele>15</ele>
        <time>2015-01-18T09:18:51Z</time>
      </trkpt>
      <trkpt lat="48.74415" lon="-3.26311">
        <ele>14</ele>
        <time>2015-01-18T09:18:52Z</time>
      </trkpt>
      <trkpt lat="48.74421" lon="-3.26307">
        <ele>13</ele>
        <time>2015-01-18T09:18:53Z</time>
      </trkpt>
      <trkpt lat="48.74425" lon="-3.26303">
        <ele>13</ele>
        <time>2015-01-18T09:18:54Z</time>
      </trkpt>
      <trkpt lat="48.7443" lon="-3.263">
        <ele>12</ele>
        <time>2015-01-18T09:18:55Z</time>
      </trkpt>
      <trkpt lat="48.74434" lon="-3.26298">
        <ele>11</ele>
        <time>2015-01-18T09:18:56Z</time>
      </trkpt>
      <trkpt lat="48.74439" lon="-3.26299">
        <ele>11</ele>
        <time>2015-01-18T09:18:57Z</time>
      </trkpt>
      <trkpt lat="48.74444" lon="-3.26303">
        <ele>10</ele>
        <time>2015-01-18T09:18:58Z</time>
      </trkpt>
      <trkpt lat="48.74448" lon="-3.26308">
        <ele>10</ele>
        <time>2015-01-18T09:18:59Z</time>
      </trkpt>
      <trkpt lat="48.7445" lon="-3.26315">
        <ele>10</ele>
        <time>2015-01-18T09:19:00Z</time>
      </trkpt>
      <trkpt lat="48.74453" lon="-3.26323">
        <ele>10</ele>
        <time>2015-01-18T09:19:01Z</time>
      </trkpt>
      <trkpt lat="48.74455" lon="-3.26331">
        <ele>10</ele>
        <time>2015-01-18T09:19:02Z</time>
      </trkpt>
      <trkpt lat="48.74458" lon="-3.26339">
        <ele>10</ele>
        <time>2015-01-18T09:19:03Z</time>
      </trkpt>
      <trkpt lat="48.74461" lon="-3.26347">
        <ele>10</ele>
        <time>2015-01-18T09:19:04Z</time>
      </trkpt>
      <trkpt lat="48.74464" lon="-3.26355">
        <ele>10</ele>
        <time>2015-01-18T09:19:05Z</time>
      </trkpt>
      <trkpt lat="48.74467" lon="-3.26363">
        <ele>10</ele>
        <time>2015-01-18T09:19:06Z</time>
      </trkpt>
      <trkpt lat="48.74471" lon="-3.26371">
        <ele>10</ele>
        <time>2015-01-18T09:19:07Z</time>
      </trkpt>
      <trkpt lat="48.74474" lon="-3.26379">
        <ele>10</ele>
        <time>2015-01-18T09:19:08Z</time>
      </trkpt>
      <trkpt lat="48.74477" lon="-3.26387">
        <ele>10</ele>
        <time>2015-01-18T09:19:09Z</time>
      </trkpt>
      <trkpt lat="48.7448" lon="-3.26395">
        <ele>10</ele>
        <time>2015-01-18T09:19:10Z</time>
      </trkpt>
      <trkpt lat="48.74483" lon="-3.26403">
        <ele>10</ele>
        <time>2015-01-18T09:19:11Z</time>
      </trkpt>
      <trkpt lat="48.74487" lon="-3.26409">
        <ele>10</ele>
        <time>2015-01-18T09:19:12Z</time>
      </trkpt>
      <trkpt lat="48.74491" lon="-3.26414">
        <ele>10</ele>
        <time>2015-01-18T09:19:13Z</time>
      </trkpt>
      <trkpt lat="48.74495" lon="-3.2642">
        <ele>10</ele>
        <time>2015-01-18T09:19:14Z</time>
      </trkpt>
      <trkpt lat="48.74498" lon="-3.26425">
        <ele>10</ele>
        <time>2015-01-18T09:19:15Z</time>
      </trkpt>
      <trkpt lat="48.74502" lon="-3.2643">
        <ele>10</ele>
        <time>2015-01-18T09:19:16Z</time>
      </trkpt>
      <trkpt lat="48.74506" lon="-3.26436">
        <ele>10</ele>
        <time>2015-01-18T09:19:17Z</time>
      </trkpt>
      <trkpt lat="48.7451" lon="-3.26441">
        <ele>10</ele>
        <time>2015-01-18T09:19:18Z</time>
      </trkpt>
      <trkpt lat="48.74514" lon="-3.26448">
        <ele>10</ele>
        <time>2015-01-18T09:19:19Z</time>
      </trkpt>
      <trkpt lat="48.74518" lon="-3.26454">
        <ele>10</ele>
        <time>2015-01-18T09:19:20Z</time>
      </trkpt>
      <trkpt lat="48.74523" lon="-3.2646">
        <ele>10</ele>
        <time>2015-01-18T09:19:21Z</time>
      </trkpt>
      <trkpt lat="48.74527" lon="-3.26466">
        <ele>10</ele>
        <time>2015-01-18T09:19:22Z</time>
      </trkpt>
      <trkpt lat="48.74532" lon="-3.26472">
        <ele>10</ele>
        <time>2015-01-18T09:19:23Z</time>
      </trkpt>
      <trkpt lat="48.74537" lon="-3.26479">
        <ele>10</ele>
        <time>2015-01-18T09:19:24Z</time>
      </trkpt>
      <trkpt lat="48.74542" lon="-3.26487">
        <ele>10</ele>
        <time>2015-01-18T09:19:25Z</time>
      </trkpt>
      <trkpt lat="48.74547" lon="-3.26495">
        <ele>10</ele>
        <time>2015-01-18T09:19:26Z</time>
      </trkpt>
      <trkpt lat="48.74553" lon="-3.26503">
        <ele>10</ele>
        <time>2015-01-18T09:19:27Z</time>
      </trkpt>
      <trkpt lat="48.74557" lon="-3.26512">
        <ele>10</ele>
        <time>2015-01-18T09:19:28Z</time>
      </trkpt>
      <trkpt lat="48.74562" lon="-3.26521">
        <ele>10</ele>
        <time>2015-01-18T09:19:29Z</time>
      </trkpt>
      <trkpt lat="48.74566" lon="-3.2653">
        <ele>10</ele>
        <time>2015-01-18T09:19:30Z</time>
      </trkpt>
      <trkpt lat="48.74569" lon="-3.26539">
        <ele>10</ele>
        <time>2015-01-18T09:19:31Z</time>
      </trkpt>
      <trkpt lat="48.74573" lon="-3.26549">
        <ele>9</ele>
        <time>2015-01-18T09:19:32Z</time>
      </trkpt>
      <trkpt lat="48.74577" lon="-3.26558">
        <ele>9</ele>
        <time>2015-01-18T09:19:33Z</time>
      </trkpt>
      <trkpt lat="48.74581" lon="-3.26568">
        <ele>9</ele>
        <time>2015-01-18T09:19:34Z</time>
      </trkpt>
      <trkpt lat="48.74585" lon="-3.26578">
        <ele>9</ele>
        <time>2015-01-18T09:19:35Z</time>
      </trkpt>
      <trkpt lat="48.74589" lon="-3.26587">
        <ele>9</ele>
        <time>2015-01-18T09:19:36Z</time>
      </trkpt>
      <trkpt lat="48.74593" lon="-3.26596">
        <ele>9</ele>
        <time>2015-01-18T09:19:37Z</time>
      </trkpt>
      <trkpt lat="48.74598" lon="-3.26604">
        <ele>9</ele>
        <time>2015-01-18T09:19:38Z</time>
      </trkpt>
      <trkpt lat="48.74604" lon="-3.26611">
        <ele>9</ele>
        <time>2015-01-18T09:19:39Z</time>
      </trkpt>
      <trkpt lat="48.74609" lon="-3.26618">
        <ele>9</ele>
        <time>2015-01-18T09:19:40Z</time>
      </trkpt>
      <trkpt lat="48.74615" lon="-3.26624">
        <ele>9</ele>
        <time>2015-01-18T09:19:41Z</time>
      </trkpt>
      <trkpt lat="48.74621" lon="-3.26631">
        <ele>9</ele>
        <time>2015-01-18T09:19:42Z</time>
      </trkpt>
      <trkpt lat="48.74627" lon="-3.26636">
        <ele>9</ele>
        <time>2015-01-18T09:19:43Z</time>
      </trkpt>
      <trkpt lat="48.74633" lon="-3.26642">
        <ele>9</ele>
        <time>2015-01-18T09:19:44Z</time>
      </trkpt>
      <trkpt lat="48.74638" lon="-3.26647">
        <ele>9</ele>
        <time>2015-01-18T09:19:45Z</time>
      </trkpt>
      <trkpt lat="48.74644" lon="-3.26652">
        <ele>9</ele>
        <time>2015-01-18T09:19:46Z</time>
      </trkpt>
      <trkpt lat="48.7465" lon="-3.26657">
        <ele>9</ele>
        <time>2015-01-18T09:19:47Z</time>
      </trkpt>
      <trkpt lat="48.74656" lon="-3.26662">
        <ele>9</ele>
        <time>2015-01-18T09:19:48Z</time>
      </trkpt>
      <trkpt lat="48.74661" lon="-3.26668">
        <ele>9</ele>
        <time>2015-01-18T09:19:49Z</time>
      </trkpt>
      <trkpt lat="48.74667" lon="-3.26673">
        <ele>9</ele>
        <time>2015-01-18T09:19:50Z</time>
      </trkpt>
      <trkpt lat="48.74672" lon="-3.26679">
        <ele>9</ele>
        <time>2015-01-18T09:19:51Z</time>
      </trkpt>
      <trkpt lat="48.74677" lon="-3.26685">
        <ele>9</ele>
        <time>2015-01-18T09:19:52Z</time>
      </trkpt>
      <trkpt lat="48.74683" lon="-3.26692">
        <ele>9</ele>
        <time>2015-01-18T09:19:53Z</time>
      </trkpt>
      <trkpt lat="48.74688" lon="-3.26698">
        <ele>9</ele>
        <time>2015-01-18T09:19:54Z</time>
      </trkpt>
      <trkpt lat="48.74692" lon="-3.26706">
        <ele>9</ele>
        <time>2015-01-18T09:19:55Z</time>
      </trkpt>
      <trkpt lat="48.74697" lon="-3.26712">
        <ele>9</ele>
        <time>2015-01-18T09:19:56Z</time>
      </trkpt>
      <trkpt lat="48.74702" lon="-3.2672">
        <ele>9</ele>
        <time>2015-01-18T09:19:57Z</time>
      </trkpt>
      <trkpt lat="48.74706" lon="-3.26727">
        <ele>9</ele>
        <time>2015-01-18T09:19:58Z</time>
      </trkpt>
      <trkpt lat="48.7471" lon="-3.26734">
        <ele>9</ele>
        <time>2015-01-18T09:19:59Z</time>
      </trkpt>
      <trkpt lat="48.74715" lon="-3.26741">
        <ele>9</ele>
        <time>2015-01-18T09:20:00Z</time>
      </trkpt>
      <trkpt lat="48.74719" lon="-3.26749">
        <ele>9</ele>
        <time>2015-01-18T09:20:01Z</time>
      </trkpt>
      <trkpt lat="48.74723" lon="-3.26756">
        <ele>9</ele>
        <time>2015-01-18T09:20:02Z</time>
      </trkpt>
      <trkpt lat="48.74727" lon="-3.26764">
        <ele>9</ele>
        <time>2015-01-18T09:20:03Z</time>
      </trkpt>
      <trkpt lat="48.74732" lon="-3.26771">
        <ele>9</ele>
        <time>2015-01-18T09:20:04Z</time>
      </trkpt>
      <trkpt lat="48.74736" lon="-3.26778">
        <ele>9</ele>
        <time>2015-01-18T09:20:05Z</time>
      </trkpt>
      <trkpt lat="48.7474" lon="-3.26785">
        <ele>9</ele>
        <time>2015-01-18T09:20:06Z</time>
      </trkpt>
      <trkpt lat="48.74744" lon="-3.26793">
        <ele>9</ele>
        <time>2015-01-18T09:20:07Z</time>
      </trkpt>
      <trkpt lat="48.74748" lon="-3.268">
        <ele>9</ele>
        <time>2015-01-18T09:20:08Z</time>
      </trkpt>
      <trkpt lat="48.74752" lon="-3.26806">
        <ele>9</ele>
        <time>2015-01-18T09:20:09Z</time>
      </trkpt>
      <trkpt lat="48.74755" lon="-3.26813">
        <ele>9</ele>
        <time>2015-01-18T09:20:10Z</time>
      </trkpt>
      <trkpt lat="48.74759" lon="-3.26819">
        <ele>9</ele>
        <time>2015-01-18T09:20:11Z</time>
      </trkpt>
      <trkpt lat="48.74763" lon="-3.26826">
        <ele>9</ele>
        <time>2015-01-18T09:20:12Z</time>
      </trkpt>
      <trkpt lat="48.74766" lon="-3.26833">
        <ele>9</ele>
        <time>2015-01-18T09:20:13Z</time>
      </trkpt>
      <trkpt lat="48.7477" lon="-3.26839">
        <ele>9</ele>
        <time>2015-01-18T09:20:14Z</time>
      </trkpt>
      <trkpt lat="48.74773" lon="-3.26846">
        <ele>9</ele>
        <time>2015-01-18T09:20:15Z</time>
      </trkpt>
      <trkpt lat="48.74777" lon="-3.26853">
        <ele>9</ele>
        <time>2015-01-18T09:20:16Z</time>
      </trkpt>
      <trkpt lat="48.74781" lon="-3.26859">
        <ele>9</ele>
        <time>2015-01-18T09:20:17Z</time>
      </trkpt>
      <trkpt lat="48.74784" lon="-3.26866">
        <ele>9</ele>
        <time>2015-01-18T09:20:18Z</time>
      </trkpt>
      <trkpt lat="48.74788" lon="-3.26873">
        <ele>9</ele>
        <time>2015-01-18T09:20:19Z</time>
      </trkpt>
      <trkpt lat="48.74792" lon="-3.2688">
        <ele>9</ele>
        <time>2015-01-18T09:20:20Z</time>
      </trkpt>
      <trkpt lat="48.74796" lon="-3.26887">
        <ele>9</ele>
        <time>2015-01-18T09:20:21Z</time>
      </trkpt>
      <trkpt lat="48.748" lon="-3.26893">
        <ele>9</ele>
        <time>2015-01-18T09:20:22Z</time>
      </trkpt>
      <trkpt lat="48.74804" lon="-3.269">
        <ele>9</ele>
        <time>2015-01-18T09:20:23Z</time>
      </trkpt>
      <trkpt lat="48.74809" lon="-3.26906">
        <ele>9</ele>
        <time>2015-01-18T09:20:24Z</time>
      </trkpt>
      <trkpt lat="48.74813" lon="-3.26913">
        <ele>9</ele>
        <time>2015-01-18T09:20:25Z</time>
      </trkpt>
      <trkpt lat="48.74817" lon="-3.26919">
        <ele>9</ele>
        <time>2015-01-18T09:20:26Z</time>
      </trkpt>
      <trkpt lat="48.74822" lon="-3.26924">
        <ele>9</ele>
        <time>2015-01-18T09:20:27Z</time>
      </trkpt>
      <trkpt lat="48.74827" lon="-3.2693">
        <ele>9</ele>
        <time>2015-01-18T09:20:28Z</time>
      </trkpt>
      <trkpt lat="48.74832" lon="-3.26935">
        <ele>9</ele>
        <time>2015-01-18T09:20:29Z</time>
      </trkpt>
      <trkpt lat="48.74837" lon="-3.2694">
        <ele>9</ele>
        <time>2015-01-18T09:20:30Z</time>
      </trkpt>
      <trkpt lat="48.74841" lon="-3.26944">
        <ele>9</ele>
        <time>2015-01-18T09:20:31Z</time>
      </trkpt>
      <trkpt lat="48.74846" lon="-3.26949">
        <ele>9</ele>
        <time>2015-01-18T09:20:32Z</time>
      </trkpt>
      <trkpt lat="48.7485" lon="-3.26953">
        <ele>9</ele>
        <time>2015-01-18T09:20:33Z</time>
      </trkpt>
      <trkpt lat="48.74854" lon="-3.26957">
        <ele>9</ele>
        <time>2015-01-18T09:20:34Z</time>
      </trkpt>
      <trkpt lat="48.74858" lon="-3.26961">
        <ele>9</ele>
        <time>2015-01-18T09:20:35Z</time>
      </trkpt>
      <trkpt lat="48.74862" lon="-3.26965">
        <ele>9</ele>
        <time>2015-01-18T09:20:36Z</time>
      </trkpt>
      <trkpt lat="48.74865" lon="-3.26968">
        <ele>9</ele>
        <time>2015-01-18T09:20:37Z</time>
      </trkpt>
      <trkpt lat="48.74868" lon="-3.26971">
        <ele>9</ele>
        <time>2015-01-18T09:20:38Z</time>
      </trkpt>
      <trkpt lat="48.74872" lon="-3.26974">
        <ele>9</ele>
        <time>2015-01-18T09:20:39Z</time>
      </trkpt>
      <trkpt lat="48.74875" lon="-3.26977">
        <ele>9</ele>
        <time>2015-01-18T09:20:40Z</time>
      </trkpt>
      <trkpt lat="48.74878" lon="-3.26979">
        <ele>9</ele>
        <time>2015-01-18T09:20:41Z</time>
      </trkpt>
      <trkpt lat="48.74881" lon="-3.26982">
        <ele>9</ele>
        <time>2015-01-18T09:20:42Z</time>
      </trkpt>
      <trkpt lat="48.74884" lon="-3.26985">
        <ele>9</ele>
        <time>2015-01-18T09:20:43Z</time>
      </trkpt>
      <trkpt lat="48.74887" lon="-3.26987">
        <ele>9</ele>
        <time>2015-01-18T09:20:44Z</time>
      </trkpt>
      <trkpt lat="48.74889" lon="-3.26989">
        <ele>9</ele>
        <time>2015-01-18T09:20:45Z</time>
      </trkpt>
      <trkpt lat="48.74892" lon="-3.2699">
        <ele>9</ele>
        <time>2015-01-18T09:20:46Z</time>
      </trkpt>
      <trkpt lat="48.74895" lon="-3.2699">
        <ele>9</ele>
        <time>2015-01-18T09:20:47Z</time>
      </trkpt>
      <trkpt lat="48.74898" lon="-3.26988">
        <ele>9</ele>
        <time>2015-01-18T09:20:48Z</time>
      </trkpt>
      <trkpt lat="48.74901" lon="-3.26985">
        <ele>9</ele>
        <time>2015-01-18T09:20:49Z</time>
      </trkpt>
      <trkpt lat="48.74903" lon="-3.2698">
        <ele>9</ele>
        <time>2015-01-18T09:20:50Z</time>
      </trkpt>
      <trkpt lat="48.74905" lon="-3.26973">
        <ele>9</ele>
        <time>2015-01-18T09:20:51Z</time>
      </trkpt>
      <trkpt lat="48.74907" lon="-3.26964">
        <ele>9</ele>
        <time>2015-01-18T09:20:52Z</time>
      </trkpt>
      <trkpt lat="48.74908" lon="-3.26955">
        <ele>9</ele>
        <time>2015-01-18T09:20:53Z</time>
      </trkpt>
      <trkpt lat="48.74908" lon="-3.26945">
        <ele>9</ele>
        <time>2015-01-18T09:20:54Z</time>
      </trkpt>
      <trkpt lat="48.7491" lon="-3.26935">
        <ele>9</ele>
        <time>2015-01-18T09:20:55Z</time>
      </trkpt>
      <trkpt lat="48.74911" lon="-3.26925">
        <ele>9</ele>
        <time>2015-01-18T09:20:56Z</time>
      </trkpt>
      <trkpt lat="48.74913" lon="-3.26914">
        <ele>9</ele>
        <time>2015-01-18T09:20:57Z</time>
      </trkpt>
      <trkpt lat="48.74914" lon="-3.26903">
        <ele>9</ele>
        <time>2015-01-18T09:20:58Z</time>
      </trkpt>
      <trkpt lat="48.74915" lon="-3.26893">
        <ele>9</ele>
        <time>2015-01-18T09:20:59Z</time>
      </trkpt>
      <trkpt lat="48.74917" lon="-3.26882">
        <ele>9</ele>
        <time>2015-01-18T09:21:00Z</time>
      </trkpt>
      <trkpt lat="48.74919" lon="-3.26872">
        <ele>9</ele>
        <time>2015-01-18T09:21:01Z</time>
      </trkpt>
      <trkpt lat="48.74921" lon="-3.26862">
        <ele>9</ele>
        <time>2015-01-18T09:21:02Z</time>
      </trkpt>
      <trkpt lat="48.74924" lon="-3.26853">
        <ele>9</ele>
        <time>2015-01-18T09:21:03Z</time>
      </trkpt>
      <trkpt lat="48.74928" lon="-3.26844">
        <ele>9</ele>
        <time>2015-01-18T09:21:04Z</time>
      </trkpt>
      <trkpt lat="48.74931" lon="-3.26836">
        <ele>9</ele>
        <time>2015-01-18T09:21:05Z</time>
      </trkpt>
      <trkpt lat="48.74935" lon="-3.26829">
        <ele>9</ele>
        <time>2015-01-18T09:21:06Z</time>
      </trkpt>
      <trkpt lat="48.7494" lon="-3.26822">
        <ele>9</ele>
        <time>2015-01-18T09:21:07Z</time>
      </trkpt>
      <trkpt lat="48.74945" lon="-3.26816">
        <ele>9</ele>
        <time>2015-01-18T09:21:08Z</time>
      </trkpt>
      <trkpt lat="48.74949" lon="-3.2681">
        <ele>9</ele>
        <time>2015-01-18T09:21:09Z</time>
      </trkpt>
      <trkpt lat="48.74954" lon="-3.26805">
        <ele>9</ele>
        <time>2015-01-18T09:21:10Z</time>
      </trkpt>
      <trkpt lat="48.74959" lon="-3.268">
        <ele>9</ele>
        <time>2015-01-18T09:21:11Z</time>
      </trkpt>
      <trkpt lat="48.74964" lon="-3.26797">
        <ele>9</ele>
        <time>2015-01-18T09:21:12Z</time>
      </trkpt>
      <trkpt lat="48.74969" lon="-3.26794">
        <ele>9</ele>
        <time>2015-01-18T09:21:13Z</time>
      </trkpt>
      <trkpt lat="48.74974" lon="-3.2679">
        <ele>9</ele>
        <time>2015-01-18T09:21:14Z</time>
      </trkpt>
      <trkpt lat="48.74978" lon="-3.26787">
        <ele>9</ele>
        <time>2015-01-18T09:21:15Z</time>
      </trkpt>
      <trkpt lat="48.74982" lon="-3.26783">
        <ele>9</ele>
        <time>2015-01-18T09:21:16Z</time>
      </trkpt>
      <trkpt lat="48.74985" lon="-3.26778">
        <ele>9</ele>
        <time>2015-01-18T09:21:17Z</time>
      </trkpt>
      <trkpt lat="48.74988" lon="-3.26774">
        <ele>9</ele>
        <time>2015-01-18T09:21:18Z</time>
      </trkpt>
      <trkpt lat="48.74992" lon="-3.26769">
        <ele>9</ele>
        <time>2015-01-18T09:21:19Z</time>
      </trkpt>
      <trkpt lat="48.74996" lon="-3.26765">
        <ele>9</ele>
        <time>2015-01-18T09:21:20Z</time>
      </trkpt>
      <trkpt lat="48.75001" lon="-3.26763">
        <ele>9</ele>
        <time>2015-01-18T09:21:21Z</time>
      </trkpt>
      <trkpt lat="48.75007" lon="-3.26762">
        <ele>9</ele>
        <time>2015-01-18T09:21:22Z</time>
      </trkpt>
      <trkpt lat="48.75013" lon="-3.26761">
        <ele>9</ele>
        <time>2015-01-18T09:21:23Z</time>
      </trkpt>
      <trkpt lat="48.7502" lon="-3.26759">
        <ele>9</ele>
        <time>2015-01-18T09:21:24Z</time>
      </trkpt>
      <trkpt lat="48.75026" lon="-3.26756">
        <ele>9</ele>
        <time>2015-01-18T09:21:25Z</time>
      </trkpt>
      <trkpt lat="48.75033" lon="-3.26752">
        <ele>9</ele>
        <time>2015-01-18T09:21:26Z</time>
      </trkpt>
      <trkpt lat="48.75039" lon="-3.26747">
        <ele>9</ele>
        <time>2015-01-18T09:21:27Z</time>
      </trkpt>
      <trkpt lat="48.75045" lon="-3.26743">
        <ele>9</ele>
        <time>2015-01-18T09:21:28Z</time>
      </trkpt>
      <trkpt lat="48.75051" lon="-3.26738">
        <ele>9</ele>
        <time>2015-01-18T09:21:29Z</time>
      </trkpt>
      <trkpt lat="48.75057" lon="-3.26734">
        <ele>9</ele>
        <time>2015-01-18T09:21:30Z</time>
      </trkpt>
      <trkpt lat="48.75064" lon="-3.26729">
        <ele>9</ele>
        <time>2015-01-18T09:21:31Z</time>
      </trkpt>
      <trkpt lat="48.7507" lon="-3.26725">
        <ele>9</ele>
        <time>2015-01-18T09:21:32Z</time>
      </trkpt>
      <trkpt lat="48.75077" lon="-3.2672">
        <ele>9</ele>
        <time>2015-01-18T09:21:33Z</time>
      </trkpt>
      <trkpt lat="48.75084" lon="-3.26716">
        <ele>9</ele>
        <time>2015-01-18T09:21:34Z</time>
      </trkpt>
      <trkpt lat="48.7509" lon="-3.26712">
        <ele>9</ele>
        <time>2015-01-18T09:21:35Z</time>
      </trkpt>
      <trkpt lat="48.75098" lon="-3.26708">
        <ele>9</ele>
        <time>2015-01-18T09:21:36Z</time>
      </trkpt>
      <trkpt lat="48.75105" lon="-3.26704">
        <ele>9</ele>
        <time>2015-01-18T09:21:37Z</time>
      </trkpt>
      <trkpt lat="48.75112" lon="-3.267">
        <ele>9</ele>
        <time>2015-01-18T09:21:38Z</time>
      </trkpt>
      <trkpt lat="48.75119" lon="-3.26696">
        <ele>9</ele>
        <time>2015-01-18T09:21:39Z</time>
      </trkpt>
      <trkpt lat="48.75126" lon="-3.26692">
        <ele>9</ele>
        <time>2015-01-18T09:21:40Z</time>
      </trkpt>
      <trkpt lat="48.75133" lon="-3.26688">
        <ele>9</ele>
        <time>2015-01-18T09:21:41Z</time>
      </trkpt>
      <trkpt lat="48.7514" lon="-3.26683">
        <ele>9</ele>
        <time>2015-01-18T09:21:42Z</time>
      </trkpt>
      <trkpt lat="48.75147" lon="-3.26678">
        <ele>9</ele>
        <time>2015-01-18T09:21:43Z</time>
      </trkpt>
      <trkpt lat="48.75154" lon="-3.26674">
        <ele>8</ele>
        <time>2015-01-18T09:21:44Z</time>
      </trkpt>
      <trkpt lat="48.7516" lon="-3.26669">
        <ele>8</ele>
        <time>2015-01-18T09:21:45Z</time>
      </trkpt>
      <trkpt lat="48.75167" lon="-3.26663">
        <ele>8</ele>
        <time>2015-01-18T09:21:46Z</time>
      </trkpt>
      <trkpt lat="48.75173" lon="-3.26657">
        <ele>8</ele>
        <time>2015-01-18T09:21:47Z</time>
      </trkpt>
      <trkpt lat="48.75179" lon="-3.26651">
        <ele>8</ele>
        <time>2015-01-18T09:21:48Z</time>
      </trkpt>
      <trkpt lat="48.75184" lon="-3.26644">
        <ele>8</ele>
        <time>2015-01-18T09:21:49Z</time>
      </trkpt>
      <trkpt lat="48.7519" lon="-3.26637">
        <ele>8</ele>
        <time>2015-01-18T09:21:50Z</time>
      </trkpt>
      <trkpt lat="48.75195" lon="-3.26629">
        <ele>8</ele>
        <time>2015-01-18T09:21:51Z</time>
      </trkpt>
      <trkpt lat="48.752" lon="-3.26621">
        <ele>8</ele>
        <time>2015-01-18T09:21:52Z</time>
      </trkpt>
      <trkpt lat="48.75204" lon="-3.26613">
        <ele>8</ele>
        <time>2015-01-18T09:21:53Z</time>
      </trkpt>
      <trkpt lat="48.75209" lon="-3.26604">
        <ele>8</ele>
        <time>2015-01-18T09:21:54Z</time>
      </trkpt>
      <trkpt lat="48.75213" lon="-3.26595">
        <ele>8</ele>
        <time>2015-01-18T09:21:55Z</time>
      </trkpt>
      <trkpt lat="48.75217" lon="-3.26587">
        <ele>8</ele>
        <time>2015-01-18T09:21:56Z</time>
      </trkpt>
      <trkpt lat="48.75222" lon="-3.26578">
        <ele>8</ele>
        <time>2015-01-18T09:21:57Z</time>
      </trkpt>
      <trkpt lat="48.75226" lon="-3.26569">
        <ele>8</ele>
        <time>2015-01-18T09:21:58Z</time>
      </trkpt>
      <trkpt lat="48.75231" lon="-3.2656">
        <ele>8</ele>
        <time>2015-01-18T09:21:59Z</time>
      </trkpt>
      <trkpt lat="48.75235" lon="-3.26552">
        <ele>8</ele>
        <time>2015-01-18T09:22:00Z</time>
      </trkpt>
      <trkpt lat="48.75239" lon="-3.26544">
        <ele>8</ele>
        <time>2015-01-18T09:22:01Z</time>
      </trkpt>
      <trkpt lat="48.75243" lon="-3.26535">
        <ele>8</ele>
        <time>2015-01-18T09:22:02Z</time>
      </trkpt>
      <trkpt lat="48.75247" lon="-3.26527">
        <ele>8</ele>
        <time>2015-01-18T09:22:03Z</time>
      </trkpt>
      <trkpt lat="48.75251" lon="-3.26519">
        <ele>8</ele>
        <time>2015-01-18T09:22:04Z</time>
      </trkpt>
      <trkpt lat="48.75255" lon="-3.2651">
        <ele>8</ele>
        <time>2015-01-18T09:22:05Z</time>
      </trkpt>
      <trkpt lat="48.75258" lon="-3.26502">
        <ele>8</ele>
        <time>2015-01-18T09:22:06Z</time>
      </trkpt>
      <trkpt lat="48.75262" lon="-3.26493">
        <ele>8</ele>
        <time>2015-01-18T09:22:07Z</time>
      </trkpt>
      <trkpt lat="48.75264" lon="-3.26483">
        <ele>8</ele>
        <time>2015-01-18T09:22:08Z</time>
      </trkpt>
      <trkpt lat="48.75267" lon="-3.26474">
        <ele>8</ele>
        <time>2015-01-18T09:22:09Z</time>
      </trkpt>
      <trkpt lat="48.75269" lon="-3.26463">
        <ele>8</ele>
        <time>2015-01-18T09:22:10Z</time>
      </trkpt>
      <trkpt lat="48.75271" lon="-3.26452">
        <ele>8</ele>
        <time>2015-01-18T09:22:11Z</time>
      </trkpt>
      <trkpt lat="48.75272" lon="-3.26442">
        <ele>8</ele>
        <time>2015-01-18T09:22:12Z</time>
      </trkpt>
      <trkpt lat="48.75272" lon="-3.26431">
        <ele>8</ele>
        <time>2015-01-18T09:22:13Z</time>
      </trkpt>
      <trkpt lat="48.75272" lon="-3.26408">
        <ele>8</ele>
        <time>2015-01-18T09:22:15Z</time>
      </trkpt>
      <trkpt lat="48.7527" lon="-3.26397">
        <ele>8</ele>
        <time>2015-01-18T09:22:16Z</time>
      </trkpt>
      <trkpt lat="48.75269" lon="-3.26387">
        <ele>8</ele>
        <time>2015-01-18T09:22:17Z</time>
      </trkpt>
      <trkpt lat="48.75266" lon="-3.26377">
        <ele>8</ele>
        <time>2015-01-18T09:22:18Z</time>
      </trkpt>
      <trkpt lat="48.75264" lon="-3.26368">
        <ele>8</ele>
        <time>2015-01-18T09:22:19Z</time>
      </trkpt>
      <trkpt lat="48.75262" lon="-3.26359">
        <ele>8</ele>
        <time>2015-01-18T09:22:20Z</time>
      </trkpt>
      <trkpt lat="48.75259" lon="-3.26351">
        <ele>8</ele>
        <time>2015-01-18T09:22:21Z</time>
      </trkpt>
      <trkpt lat="48.75257" lon="-3.26342">
        <ele>8</ele>
        <time>2015-01-18T09:22:22Z</time>
      </trkpt>
      <trkpt lat="48.75255" lon="-3.26334">
        <ele>8</ele>
        <time>2015-01-18T09:22:23Z</time>
      </trkpt>
      <trkpt lat="48.75253" lon="-3.26326">
        <ele>8</ele>
        <time>2015-01-18T09:22:24Z</time>
      </trkpt>
      <trkpt lat="48.75251" lon="-3.2632">
        <ele>8</ele>
        <time>2015-01-18T09:22:25Z</time>
      </trkpt>
      <trkpt lat="48.75249" lon="-3.26313">
        <ele>8</ele>
        <time>2015-01-18T09:22:26Z</time>
      </trkpt>
      <trkpt lat="48.75247" lon="-3.26306">
        <ele>8</ele>
        <time>2015-01-18T09:22:27Z</time>
      </trkpt>
      <trkpt lat="48.75245" lon="-3.263">
        <ele>8</ele>
        <time>2015-01-18T09:22:28Z</time>
      </trkpt>
      <trkpt lat="48.75244" lon="-3.26293">
        <ele>8</ele>
        <time>2015-01-18T09:22:29Z</time>
      </trkpt>
      <trkpt lat="48.75242" lon="-3.26287">
        <ele>8</ele>
        <time>2015-01-18T09:22:30Z</time>
      </trkpt>
      <trkpt lat="48.7524" lon="-3.2628">
        <ele>8</ele>
        <time>2015-01-18T09:22:31Z</time>
      </trkpt>
      <trkpt lat="48.75239" lon="-3.26274">
        <ele>8</ele>
        <time>2015-01-18T09:22:32Z</time>
      </trkpt>
      <trkpt lat="48.75238" lon="-3.26268">
        <ele>8</ele>
        <time>2015-01-18T09:22:33Z</time>
      </trkpt>
      <trkpt lat="48.75236" lon="-3.26261">
        <ele>8</ele>
        <time>2015-01-18T09:22:34Z</time>
      </trkpt>
      <trkpt lat="48.75235" lon="-3.26254">
        <ele>8</ele>
        <time>2015-01-18T09:22:35Z</time>
      </trkpt>
      <trkpt lat="48.75233" lon="-3.26247">
        <ele>8</ele>
        <time>2015-01-18T09:22:36Z</time>
      </trkpt>
      <trkpt lat="48.75231" lon="-3.2624">
        <ele>8</ele>
        <time>2015-01-18T09:22:37Z</time>
      </trkpt>
      <trkpt lat="48.7523" lon="-3.26233">
        <ele>8</ele>
        <time>2015-01-18T09:22:38Z</time>
      </trkpt>
      <trkpt lat="48.7523" lon="-3.26226">
        <ele>8</ele>
        <time>2015-01-18T09:22:39Z</time>
      </trkpt>
      <trkpt lat="48.75229" lon="-3.26218">
        <ele>8</ele>
        <time>2015-01-18T09:22:40Z</time>
      </trkpt>
      <trkpt lat="48.75229" lon="-3.26192">
        <ele>8</ele>
        <time>2015-01-18T09:22:43Z</time>
      </trkpt>
      <trkpt lat="48.7523" lon="-3.26184">
        <ele>8</ele>
        <time>2015-01-18T09:22:44Z</time>
      </trkpt>
      <trkpt lat="48.75232" lon="-3.26177">
        <ele>8</ele>
        <time>2015-01-18T09:22:45Z</time>
      </trkpt>
      <trkpt lat="48.75234" lon="-3.2617">
        <ele>8</ele>
        <time>2015-01-18T09:22:46Z</time>
      </trkpt>
      <trkpt lat="48.75237" lon="-3.26163">
        <ele>8</ele>
        <time>2015-01-18T09:22:47Z</time>
      </trkpt>
      <trkpt lat="48.75239" lon="-3.26157">
        <ele>8</ele>
        <time>2015-01-18T09:22:48Z</time>
      </trkpt>
      <trkpt lat="48.7524" lon="-3.2615">
        <ele>8</ele>
        <time>2015-01-18T09:22:49Z</time>
      </trkpt>
      <trkpt lat="48.75242" lon="-3.26144">
        <ele>8</ele>
        <time>2015-01-18T09:22:50Z</time>
      </trkpt>
      <trkpt lat="48.75244" lon="-3.26138">
        <ele>8</ele>
        <time>2015-01-18T09:22:51Z</time>
      </trkpt>
      <trkpt lat="48.75246" lon="-3.26132">
        <ele>8</ele>
        <time>2015-01-18T09:22:52Z</time>
      </trkpt>
      <trkpt lat="48.75249" lon="-3.26128">
        <ele>8</ele>
        <time>2015-01-18T09:22:53Z</time>
      </trkpt>
      <trkpt lat="48.75252" lon="-3.26124">
        <ele>8</ele>
        <time>2015-01-18T09:22:54Z</time>
      </trkpt>
      <trkpt lat="48.75256" lon="-3.2612">
        <ele>8</ele>
        <time>2015-01-18T09:22:55Z</time>
      </trkpt>
      <trkpt lat="48.7526" lon="-3.26117">
        <ele>8</ele>
        <time>2015-01-18T09:22:56Z</time>
      </trkpt>
      <trkpt lat="48.75264" lon="-3.26116">
        <ele>8</ele>
        <time>2015-01-18T09:22:57Z</time>
      </trkpt>
      <trkpt lat="48.75269" lon="-3.26116">
        <ele>8</ele>
        <time>2015-01-18T09:22:58Z</time>
      </trkpt>
      <trkpt lat="48.75273" lon="-3.26118">
        <ele>8</ele>
        <time>2015-01-18T09:22:59Z</time>
      </trkpt>
      <trkpt lat="48.75277" lon="-3.26121">
        <ele>8</ele>
        <time>2015-01-18T09:23:00Z</time>
      </trkpt>
      <trkpt lat="48.75281" lon="-3.26125">
        <ele>8</ele>
        <time>2015-01-18T09:23:01Z</time>
      </trkpt>
      <trkpt lat="48.75285" lon="-3.2613">
        <ele>8</ele>
        <time>2015-01-18T09:23:02Z</time>
      </trkpt>
      <trkpt lat="48.75287" lon="-3.26136">
        <ele>8</ele>
        <time>2015-01-18T09:23:03Z</time>
      </trkpt>
      <trkpt lat="48.75289" lon="-3.26143">
        <ele>8</ele>
        <time>2015-01-18T09:23:04Z</time>
      </trkpt>
      <trkpt lat="48.7529" lon="-3.26149">
        <ele>8</ele>
        <time>2015-01-18T09:23:05Z</time>
      </trkpt>
      <trkpt lat="48.75289" lon="-3.26156">
        <ele>8</ele>
        <time>2015-01-18T09:23:06Z</time>
      </trkpt>
      <trkpt lat="48.75288" lon="-3.26163">
        <ele>8</ele>
        <time>2015-01-18T09:23:07Z</time>
      </trkpt>
      <trkpt lat="48.75286" lon="-3.26169">
        <ele>8</ele>
        <time>2015-01-18T09:23:08Z</time>
      </trkpt>
      <trkpt lat="48.75283" lon="-3.26175">
        <ele>8</ele>
        <time>2015-01-18T09:23:09Z</time>
      </trkpt>
      <trkpt lat="48.75279" lon="-3.26179">
        <ele>8</ele>
        <time>2015-01-18T09:23:10Z</time>
      </trkpt>
      <trkpt lat="48.75275" lon="-3.26182">
        <ele>8</ele>
        <time>2015-01-18T09:23:11Z</time>
      </trkpt>
      <trkpt lat="48.75271" lon="-3.26184">
        <ele>8</ele>
        <time>2015-01-18T09:23:12Z</time>
      </trkpt>
      <trkpt lat="48.75267" lon="-3.26185">
        <ele>8</ele>
        <time>2015-01-18T09:23:13Z</time>
      </trkpt>
      <trkpt lat="48.75262" lon="-3.26184">
        <ele>8</ele>
        <time>2015-01-18T09:23:14Z</time>
      </trkpt>
      <trkpt lat="48.75257" lon="-3.26182">
        <ele>8</ele>
        <time>2015-01-18T09:23:15Z</time>
      </trkpt>
      <trkpt lat="48.75253" lon="-3.26178">
        <ele>8</ele>
        <time>2015-01-18T09:23:16Z</time>
      </trkpt>
      <trkpt lat="48.7525" lon="-3.26172">
        <ele>8</ele>
        <time>2015-01-18T09:23:17Z</time>
      </trkpt>
      <trkpt lat="48.75247" lon="-3.26165">
        <ele>8</ele>
        <time>2015-01-18T09:23:18Z</time>
      </trkpt>
      <trkpt lat="48.75245" lon="-3.26158">
        <ele>8</ele>
        <time>2015-01-18T09:23:19Z</time>
      </trkpt>
      <trkpt lat="48.75245" lon="-3.2615">
        <ele>8</ele>
        <time>2015-01-18T09:23:20Z</time>
      </trkpt>
      <trkpt lat="48.75246" lon="-3.26142">
        <ele>8</ele>
        <time>2015-01-18T09:23:21Z</time>
      </trkpt>
      <trkpt lat="48.75248" lon="-3.26135">
        <ele>8</ele>
        <time>2015-01-18T09:23:22Z</time>
      </trkpt>
      <trkpt lat="48.75251" lon="-3.26129">
        <ele>8</ele>
        <time>2015-01-18T09:23:23Z</time>
      </trkpt>
      <trkpt lat="48.75256" lon="-3.26124">
        <ele>8</ele>
        <time>2015-01-18T09:23:24Z</time>
      </trkpt>
      <trkpt lat="48.75261" lon="-3.2612">
        <ele>8</ele>
        <time>2015-01-18T09:23:25Z</time>
      </trkpt>
      <trkpt lat="48.75266" lon="-3.26118">
        <ele>8</ele>
        <time>2015-01-18T09:23:26Z</time>
      </trkpt>
      <trkpt lat="48.75271" lon="-3.26116">
        <ele>8</ele>
        <time>2015-01-18T09:23:27Z</time>
      </trkpt>
      <trkpt lat="48.75277" lon="-3.26114">
        <ele>8</ele>
        <time>2015-01-18T09:23:28Z</time>
      </trkpt>
      <trkpt lat="48.75283" lon="-3.26113">
        <ele>8</ele>
        <time>2015-01-18T09:23:29Z</time>
      </trkpt>
      <trkpt lat="48.75288" lon="-3.26111">
        <ele>8</ele>
        <time>2015-01-18T09:23:30Z</time>
      </trkpt>
      <trkpt lat="48.75294" lon="-3.2611">
        <ele>8</ele>
        <time>2015-01-18T09:23:31Z</time>
      </trkpt>
      <trkpt lat="48.75299" lon="-3.26108">
        <ele>8</ele>
        <time>2015-01-18T09:23:32Z</time>
      </trkpt>
      <trkpt lat="48.75305" lon="-3.26107">
        <ele>8</ele>
        <time>2015-01-18T09:23:33Z</time>
      </trkpt>
      <trkpt lat="48.7531" lon="-3.26106">
        <ele>8</ele>
        <time>2015-01-18T09:23:34Z</time>
      </trkpt>
      <trkpt lat="48.75315" lon="-3.26105">
        <ele>8</ele>
        <time>2015-01-18T09:23:35Z</time>
      </trkpt>
      <trkpt lat="48.7532" lon="-3.26104">
        <ele>8</ele>
        <time>2015-01-18T09:23:36Z</time>
      </trkpt>
      <trkpt lat="48.75325" lon="-3.26103">
        <ele>8</ele>
        <time>2015-01-18T09:23:37Z</time>
      </trkpt>
      <trkpt lat="48.7533" lon="-3.26103">
        <ele>8</ele>
        <time>2015-01-18T09:23:38Z</time>
      </trkpt>
      <trkpt lat="48.75334" lon="-3.26102">
        <ele>8</ele>
        <time>2015-01-18T09:23:39Z</time>
      </trkpt>
      <trkpt lat="48.75339" lon="-3.26102">
        <ele>8</ele>
        <time>2015-01-18T09:23:40Z</time>
      </trkpt>
      <trkpt lat="48.75343" lon="-3.26101">
        <ele>8</ele>
        <time>2015-01-18T09:23:41Z</time>
      </trkpt>
      <trkpt lat="48.75348" lon="-3.26101">
        <ele>8</ele>
        <time>2015-01-18T09:23:42Z</time>
      </trkpt>
      <trkpt lat="48.75353" lon="-3.261">
        <ele>8</ele>
        <time>2015-01-18T09:23:43Z</time>
      </trkpt>
      <trkpt lat="48.75357" lon="-3.26099">
        <ele>8</ele>
        <time>2015-01-18T09:23:44Z</time>
      </trkpt>
      <trkpt lat="48.75362" lon="-3.26097">
        <ele>8</ele>
        <time>2015-01-18T09:23:45Z</time>
      </trkpt>
      <trkpt lat="48.75366" lon="-3.26096">
        <ele>8</ele>
        <time>2015-01-18T09:23:46Z</time>
      </trkpt>
      <trkpt lat="48.75371" lon="-3.26096">
        <ele>8</ele>
        <time>2015-01-18T09:23:47Z</time>
      </trkpt>
      <trkpt lat="48.75376" lon="-3.26095">
        <ele>8</ele>
        <time>2015-01-18T09:23:48Z</time>
      </trkpt>
      <trkpt lat="48.75381" lon="-3.26094">
        <ele>8</ele>
        <time>2015-01-18T09:23:49Z</time>
      </trkpt>
      <trkpt lat="48.75386" lon="-3.26093">
        <ele>8</ele>
        <time>2015-01-18T09:23:50Z</time>
      </trkpt>
      <trkpt lat="48.75391" lon="-3.26092">
        <ele>8</ele>
        <time>2015-01-18T09:23:51Z</time>
      </trkpt>
      <trkpt lat="48.75397" lon="-3.26091">
        <ele>8</ele>
        <time>2015-01-18T09:23:52Z</time>
      </trkpt>
      <trkpt lat="48.75402" lon="-3.2609">
        <ele>8</ele>
        <time>2015-01-18T09:23:53Z</time>
      </trkpt>
      <trkpt lat="48.75408" lon="-3.26089">
        <ele>8</ele>
        <time>2015-01-18T09:23:54Z</time>
      </trkpt>
      <trkpt lat="48.75414" lon="-3.26088">
        <ele>8</ele>
        <time>2015-01-18T09:23:55Z</time>
      </trkpt>
      <trkpt lat="48.75419" lon="-3.26087">
        <ele>8</ele>
        <time>2015-01-18T09:23:56Z</time>
      </trkpt>
      <trkpt lat="48.75424" lon="-3.26086">
        <ele>8</ele>
        <time>2015-01-18T09:23:57Z</time>
      </trkpt>
      <trkpt lat="48.7543" lon="-3.26086">
        <ele>8</ele>
        <time>2015-01-18T09:23:58Z</time>
      </trkpt>
      <trkpt lat="48.75436" lon="-3.26085">
        <ele>8</ele>
        <time>2015-01-18T09:23:59Z</time>
      </trkpt>
      <trkpt lat="48.75441" lon="-3.26083">
        <ele>8</ele>
        <time>2015-01-18T09:24:00Z</time>
      </trkpt>
      <trkpt lat="48.75447" lon="-3.26082">
        <ele>8</ele>
        <time>2015-01-18T09:24:01Z</time>
      </trkpt>
      <trkpt lat="48.75453" lon="-3.26081">
        <ele>8</ele>
        <time>2015-01-18T09:24:02Z</time>
      </trkpt>
      <trkpt lat="48.75458" lon="-3.2608">
        <ele>8</ele>
        <time>2015-01-18T09:24:03Z</time>
      </trkpt>
      <trkpt lat="48.75464" lon="-3.26079">
        <ele>8</ele>
        <time>2015-01-18T09:24:04Z</time>
      </trkpt>
      <trkpt lat="48.7547" lon="-3.26078">
        <ele>8</ele>
        <time>2015-01-18T09:24:05Z</time>
      </trkpt>
      <trkpt lat="48.75475" lon="-3.26077">
        <ele>8</ele>
        <time>2015-01-18T09:24:06Z</time>
      </trkpt>
      <trkpt lat="48.75481" lon="-3.26076">
        <ele>8</ele>
        <time>2015-01-18T09:24:07Z</time>
      </trkpt>
      <trkpt lat="48.75487" lon="-3.26075">
        <ele>8</ele>
        <time>2015-01-18T09:24:08Z</time>
      </trkpt>
      <trkpt lat="48.75492" lon="-3.26074">
        <ele>8</ele>
        <time>2015-01-18T09:24:09Z</time>
      </trkpt>
      <trkpt lat="48.75498" lon="-3.26073">
        <ele>8</ele>
        <time>2015-01-18T09:24:10Z</time>
      </trkpt>
      <trkpt lat="48.75504" lon="-3.26072">
        <ele>8</ele>
        <time>2015-01-18T09:24:11Z</time>
      </trkpt>
      <trkpt lat="48.7551" lon="-3.26071">
        <ele>8</ele>
        <time>2015-01-18T09:24:12Z</time>
      </trkpt>
      <trkpt lat="48.75515" lon="-3.26069">
        <ele>8</ele>
        <time>2015-01-18T09:24:13Z</time>
      </trkpt>
      <trkpt lat="48.75521" lon="-3.26068">
        <ele>8</ele>
        <time>2015-01-18T09:24:14Z</time>
      </trkpt>
      <trkpt lat="48.75526" lon="-3.26067">
        <ele>8</ele>
        <time>2015-01-18T09:24:15Z</time>
      </trkpt>
      <trkpt lat="48.75532" lon="-3.26066">
        <ele>8</ele>
        <time>2015-01-18T09:24:16Z</time>
      </trkpt>
      <trkpt lat="48.75537" lon="-3.26065">
        <ele>8</ele>
        <time>2015-01-18T09:24:17Z</time>
      </trkpt>
      <trkpt lat="48.75543" lon="-3.26064">
        <ele>8</ele>
        <time>2015-01-18T09:24:18Z</time>
      </trkpt>
      <trkpt lat="48.75548" lon="-3.26063">
        <ele>8</ele>
        <time>2015-01-18T09:24:19Z</time>
      </trkpt>
      <trkpt lat="48.75554" lon="-3.26062">
        <ele>8</ele>
        <time>2015-01-18T09:24:20Z</time>
      </trkpt>
      <trkpt lat="48.75559" lon="-3.26061">
        <ele>8</ele>
        <time>2015-01-18T09:24:21Z</time>
      </trkpt>
      <trkpt lat="48.75564" lon="-3.2606">
        <ele>8</ele>
        <time>2015-01-18T09:24:22Z</time>
      </trkpt>
      <trkpt lat="48.7557" lon="-3.26059">
        <ele>8</ele>
        <time>2015-01-18T09:24:23Z</time>
      </trkpt>
      <trkpt lat="48.75575" lon="-3.26058">
        <ele>8</ele>
        <time>2015-01-18T09:24:24Z</time>
      </trkpt>
      <trkpt lat="48.7558" lon="-3.26058">
        <ele>8</ele>
        <time>2015-01-18T09:24:25Z</time>
      </trkpt>
      <trkpt lat="48.75585" lon="-3.26057">
        <ele>8</ele>
        <time>2015-01-18T09:24:26Z</time>
      </trkpt>
      <trkpt lat="48.7559" lon="-3.26056">
        <ele>8</ele>
        <time>2015-01-18T09:24:27Z</time>
      </trkpt>
      <trkpt lat="48.75595" lon="-3.26055">
        <ele>8</ele>
        <time>2015-01-18T09:24:28Z</time>
      </trkpt>
      <trkpt lat="48.756" lon="-3.26054">
        <ele>8</ele>
        <time>2015-01-18T09:24:29Z</time>
      </trkpt>
      <trkpt lat="48.75605" lon="-3.26053">
        <ele>8</ele>
        <time>2015-01-18T09:24:30Z</time>
      </trkpt>
      <trkpt lat="48.75609" lon="-3.26053">
        <ele>8</ele>
        <time>2015-01-18T09:24:31Z</time>
      </trkpt>
      <trkpt lat="48.75614" lon="-3.26052">
        <ele>8</ele>
        <time>2015-01-18T09:24:32Z</time>
      </trkpt>
      <trkpt lat="48.75618" lon="-3.26051">
        <ele>8</ele>
        <time>2015-01-18T09:24:33Z</time>
      </trkpt>
      <trkpt lat="48.75623" lon="-3.2605">
        <ele>8</ele>
        <time>2015-01-18T09:24:34Z</time>
      </trkpt>
      <trkpt lat="48.75628" lon="-3.26049">
        <ele>8</ele>
        <time>2015-01-18T09:24:35Z</time>
      </trkpt>
      <trkpt lat="48.75633" lon="-3.26049">
        <ele>8</ele>
        <time>2015-01-18T09:24:36Z</time>
      </trkpt>
      <trkpt lat="48.75637" lon="-3.26048">
        <ele>8</ele>
        <time>2015-01-18T09:24:37Z</time>
      </trkpt>
      <trkpt lat="48.75642" lon="-3.26048">
        <ele>8</ele>
        <time>2015-01-18T09:24:38Z</time>
      </trkpt>
      <trkpt lat="48.75646" lon="-3.26047">
        <ele>8</ele>
        <time>2015-01-18T09:24:39Z</time>
      </trkpt>
      <trkpt lat="48.75651" lon="-3.26046">
        <ele>8</ele>
        <time>2015-01-18T09:24:40Z</time>
      </trkpt>
      <trkpt lat="48.75655" lon="-3.26045">
        <ele>8</ele>
        <time>2015-01-18T09:24:41Z</time>
      </trkpt>
      <trkpt lat="48.7566" lon="-3.26044">
        <ele>8</ele>
        <time>2015-01-18T09:24:42Z</time>
      </trkpt>
      <trkpt lat="48.75665" lon="-3.26043">
        <ele>8</ele>
        <time>2015-01-18T09:24:43Z</time>
      </trkpt>
      <trkpt lat="48.7567" lon="-3.26042">
        <ele>8</ele>
        <time>2015-01-18T09:24:44Z</time>
      </trkpt>
      <trkpt lat="48.75676" lon="-3.2604">
        <ele>8</ele>
        <time>2015-01-18T09:24:45Z</time>
      </trkpt>
      <trkpt lat="48.7568" lon="-3.26038">
        <ele>8</ele>
        <time>2015-01-18T09:24:46Z</time>
      </trkpt>
      <trkpt lat="48.75685" lon="-3.26036">
        <ele>8</ele>
        <time>2015-01-18T09:24:47Z</time>
      </trkpt>
      <trkpt lat="48.7569" lon="-3.26034">
        <ele>8</ele>
        <time>2015-01-18T09:24:48Z</time>
      </trkpt>
      <trkpt lat="48.75695" lon="-3.26032">
        <ele>8</ele>
        <time>2015-01-18T09:24:49Z</time>
      </trkpt>
      <trkpt lat="48.757" lon="-3.26029">
        <ele>9</ele>
        <time>2015-01-18T09:24:50Z</time>
      </trkpt>
      <trkpt lat="48.75704" lon="-3.26027">
        <ele>9</ele>
        <time>2015-01-18T09:24:51Z</time>
      </trkpt>
      <trkpt lat="48.75709" lon="-3.26024">
        <ele>9</ele>
        <time>2015-01-18T09:24:52Z</time>
      </trkpt>
      <trkpt lat="48.75713" lon="-3.26021">
        <ele>9</ele>
        <time>2015-01-18T09:24:53Z</time>
      </trkpt>
      <trkpt lat="48.75718" lon="-3.26018">
        <ele>9</ele>
        <time>2015-01-18T09:24:54Z</time>
      </trkpt>
      <trkpt lat="48.75723" lon="-3.26014">
        <ele>9</ele>
        <time>2015-01-18T09:24:55Z</time>
      </trkpt>
      <trkpt lat="48.75727" lon="-3.2601">
        <ele>9</ele>
        <time>2015-01-18T09:24:56Z</time>
      </trkpt>
      <trkpt lat="48.75732" lon="-3.26007">
        <ele>9</ele>
        <time>2015-01-18T09:24:57Z</time>
      </trkpt>
      <trkpt lat="48.75736" lon="-3.26003">
        <ele>9</ele>
        <time>2015-01-18T09:24:58Z</time>
      </trkpt>
      <trkpt lat="48.7574" lon="-3.25998">
        <ele>9</ele>
        <time>2015-01-18T09:24:59Z</time>
      </trkpt>
      <trkpt lat="48.75745" lon="-3.25993">
        <ele>9</ele>
        <time>2015-01-18T09:25:00Z</time>
      </trkpt>
      <trkpt lat="48.75749" lon="-3.25988">
        <ele>9</ele>
        <time>2015-01-18T09:25:01Z</time>
      </trkpt>
      <trkpt lat="48.75753" lon="-3.25982">
        <ele>9</ele>
        <time>2015-01-18T09:25:02Z</time>
      </trkpt>
      <trkpt lat="48.75757" lon="-3.25977">
        <ele>9</ele>
        <time>2015-01-18T09:25:03Z</time>
      </trkpt>
      <trkpt lat="48.75761" lon="-3.25971">
        <ele>9</ele>
        <time>2015-01-18T09:25:04Z</time>
      </trkpt>
      <trkpt lat="48.75765" lon="-3.25965">
        <ele>9</ele>
        <time>2015-01-18T09:25:05Z</time>
      </trkpt>
      <trkpt lat="48.75769" lon="-3.25959">
        <ele>9</ele>
        <time>2015-01-18T09:25:06Z</time>
      </trkpt>
      <trkpt lat="48.75772" lon="-3.25953">
        <ele>9</ele>
        <time>2015-01-18T09:25:07Z</time>
      </trkpt>
      <trkpt lat="48.75776" lon="-3.25946">
        <ele>9</ele>
        <time>2015-01-18T09:25:08Z</time>
      </trkpt>
      <trkpt lat="48.75779" lon="-3.2594">
        <ele>9</ele>
        <time>2015-01-18T09:25:09Z</time>
      </trkpt>
      <trkpt lat="48.75783" lon="-3.25933">
        <ele>9</ele>
        <time>2015-01-18T09:25:10Z</time>
      </trkpt>
      <trkpt lat="48.75786" lon="-3.25926">
        <ele>9</ele>
        <time>2015-01-18T09:25:11Z</time>
      </trkpt>
      <trkpt lat="48.75789" lon="-3.25918">
        <ele>9</ele>
        <time>2015-01-18T09:25:12Z</time>
      </trkpt>
      <trkpt lat="48.75792" lon="-3.25911">
        <ele>9</ele>
        <time>2015-01-18T09:25:13Z</time>
      </trkpt>
      <trkpt lat="48.75795" lon="-3.25903">
        <ele>9</ele>
        <time>2015-01-18T09:25:14Z</time>
      </trkpt>
      <trkpt lat="48.75798" lon="-3.25895">
        <ele>9</ele>
        <time>2015-01-18T09:25:15Z</time>
      </trkpt>
      <trkpt lat="48.758" lon="-3.25887">
        <ele>9</ele>
        <time>2015-01-18T09:25:16Z</time>
      </trkpt>
      <trkpt lat="48.75803" lon="-3.25878">
        <ele>9</ele>
        <time>2015-01-18T09:25:17Z</time>
      </trkpt>
      <trkpt lat="48.75806" lon="-3.2587">
        <ele>9</ele>
        <time>2015-01-18T09:25:18Z</time>
      </trkpt>
      <trkpt lat="48.75808" lon="-3.25861">
        <ele>9</ele>
        <time>2015-01-18T09:25:19Z</time>
      </trkpt>
      <trkpt lat="48.75811" lon="-3.25853">
        <ele>9</ele>
        <time>2015-01-18T09:25:20Z</time>
      </trkpt>
      <trkpt lat="48.75813" lon="-3.25844">
        <ele>9</ele>
        <time>2015-01-18T09:25:21Z</time>
      </trkpt>
      <trkpt lat="48.75815" lon="-3.25836">
        <ele>9</ele>
        <time>2015-01-18T09:25:22Z</time>
      </trkpt>
      <trkpt lat="48.75818" lon="-3.25827">
        <ele>9</ele>
        <time>2015-01-18T09:25:23Z</time>
      </trkpt>
      <trkpt lat="48.7582" lon="-3.25819">
        <ele>9</ele>
        <time>2015-01-18T09:25:24Z</time>
      </trkpt>
      <trkpt lat="48.75823" lon="-3.2581">
        <ele>9</ele>
        <time>2015-01-18T09:25:25Z</time>
      </trkpt>
      <trkpt lat="48.75825" lon="-3.25802">
        <ele>9</ele>
        <time>2015-01-18T09:25:26Z</time>
      </trkpt>
      <trkpt lat="48.75828" lon="-3.25793">
        <ele>9</ele>
        <time>2015-01-18T09:25:27Z</time>
      </trkpt>
      <trkpt lat="48.7583" lon="-3.25784">
        <ele>9</ele>
        <time>2015-01-18T09:25:28Z</time>
      </trkpt>
      <trkpt lat="48.75833" lon="-3.25776">
        <ele>9</ele>
        <time>2015-01-18T09:25:29Z</time>
      </trkpt>
      <trkpt lat="48.75836" lon="-3.25767">
        <ele>9</ele>
        <time>2015-01-18T09:25:30Z</time>
      </trkpt>
      <trkpt lat="48.75838" lon="-3.25758">
        <ele>9</ele>
        <time>2015-01-18T09:25:31Z</time>
      </trkpt>
      <trkpt lat="48.75841" lon="-3.25749">
        <ele>9</ele>
        <time>2015-01-18T09:25:32Z</time>
      </trkpt>
      <trkpt lat="48.75844" lon="-3.2574">
        <ele>9</ele>
        <time>2015-01-18T09:25:33Z</time>
      </trkpt>
      <trkpt lat="48.75847" lon="-3.2573">
        <ele>9</ele>
        <time>2015-01-18T09:25:34Z</time>
      </trkpt>
      <trkpt lat="48.75849" lon="-3.25721">
        <ele>9</ele>
        <time>2015-01-18T09:25:35Z</time>
      </trkpt>
      <trkpt lat="48.75852" lon="-3.25712">
        <ele>9</ele>
        <time>2015-01-18T09:25:36Z</time>
      </trkpt>
      <trkpt lat="48.75855" lon="-3.25702">
        <ele>9</ele>
        <time>2015-01-18T09:25:37Z</time>
      </trkpt>
      <trkpt lat="48.75858" lon="-3.25693">
        <ele>9</ele>
        <time>2015-01-18T09:25:38Z</time>
      </trkpt>
      <trkpt lat="48.75861" lon="-3.25683">
        <ele>9</ele>
        <time>2015-01-18T09:25:39Z</time>
      </trkpt>
      <trkpt lat="48.75863" lon="-3.25673">
        <ele>9</ele>
        <time>2015-01-18T09:25:40Z</time>
      </trkpt>
      <trkpt lat="48.75866" lon="-3.25664">
        <ele>9</ele>
        <time>2015-01-18T09:25:41Z</time>
      </trkpt>
      <trkpt lat="48.75869" lon="-3.25654">
        <ele>9</ele>
        <time>2015-01-18T09:25:42Z</time>
      </trkpt>
      <trkpt lat="48.75872" lon="-3.25645">
        <ele>9</ele>
        <time>2015-01-18T09:25:43Z</time>
      </trkpt>
      <trkpt lat="48.75874" lon="-3.25635">
        <ele>9</ele>
        <time>2015-01-18T09:25:44Z</time>
      </trkpt>
      <trkpt lat="48.75877" lon="-3.25625">
        <ele>9</ele>
        <time>2015-01-18T09:25:45Z</time>
      </trkpt>
      <trkpt lat="48.7588" lon="-3.25616">
        <ele>9</ele>
        <time>2015-01-18T09:25:46Z</time>
      </trkpt>
      <trkpt lat="48.75883" lon="-3.25606">
        <ele>9</ele>
        <time>2015-01-18T09:25:47Z</time>
      </trkpt>
      <trkpt lat="48.75886" lon="-3.25596">
        <ele>9</ele>
        <time>2015-01-18T09:25:48Z</time>
      </trkpt>
      <trkpt lat="48.75888" lon="-3.25587">
        <ele>9</ele>
        <time>2015-01-18T09:25:49Z</time>
      </trkpt>
      <trkpt lat="48.75891" lon="-3.25577">
        <ele>9</ele>
        <time>2015-01-18T09:25:50Z</time>
      </trkpt>
      <trkpt lat="48.75893" lon="-3.25567">
        <ele>9</ele>
        <time>2015-01-18T09:25:51Z</time>
      </trkpt>
      <trkpt lat="48.75896" lon="-3.25557">
        <ele>9</ele>
        <time>2015-01-18T09:25:52Z</time>
      </trkpt>
      <trkpt lat="48.75898" lon="-3.25548">
        <ele>9</ele>
        <time>2015-01-18T09:25:53Z</time>
      </trkpt>
      <trkpt lat="48.75901" lon="-3.25538">
        <ele>9</ele>
        <time>2015-01-18T09:25:54Z</time>
      </trkpt>
      <trkpt lat="48.75903" lon="-3.25529">
        <ele>9</ele>
        <time>2015-01-18T09:25:55Z</time>
      </trkpt>
      <trkpt lat="48.75905" lon="-3.25519">
        <ele>9</ele>
        <time>2015-01-18T09:25:56Z</time>
      </trkpt>
      <trkpt lat="48.75907" lon="-3.2551">
        <ele>9</ele>
        <time>2015-01-18T09:25:57Z</time>
      </trkpt>
      <trkpt lat="48.75909" lon="-3.255">
        <ele>9</ele>
        <time>2015-01-18T09:25:58Z</time>
      </trkpt>
      <trkpt lat="48.75911" lon="-3.25491">
        <ele>9</ele>
        <time>2015-01-18T09:25:59Z</time>
      </trkpt>
      <trkpt lat="48.75913" lon="-3.25482">
        <ele>9</ele>
        <time>2015-01-18T09:26:00Z</time>
      </trkpt>
      <trkpt lat="48.75915" lon="-3.25473">
        <ele>9</ele>
        <time>2015-01-18T09:26:01Z</time>
      </trkpt>
      <trkpt lat="48.75916" lon="-3.25464">
        <ele>9</ele>
        <time>2015-01-18T09:26:02Z</time>
      </trkpt>
      <trkpt lat="48.75918" lon="-3.25456">
        <ele>9</ele>
        <time>2015-01-18T09:26:03Z</time>
      </trkpt>
      <trkpt lat="48.7592" lon="-3.25447">
        <ele>9</ele>
        <time>2015-01-18T09:26:04Z</time>
      </trkpt>
      <trkpt lat="48.75921" lon="-3.25439">
        <ele>9</ele>
        <time>2015-01-18T09:26:05Z</time>
      </trkpt>
      <trkpt lat="48.75923" lon="-3.2543">
        <ele>9</ele>
        <time>2015-01-18T09:26:06Z</time>
      </trkpt>
      <trkpt lat="48.75925" lon="-3.25422">
        <ele>9</ele>
        <time>2015-01-18T09:26:07Z</time>
      </trkpt>
      <trkpt lat="48.75926" lon="-3.25414">
        <ele>9</ele>
        <time>2015-01-18T09:26:08Z</time>
      </trkpt>
      <trkpt lat="48.75928" lon="-3.25406">
        <ele>9</ele>
        <time>2015-01-18T09:26:09Z</time>
      </trkpt>
      <trkpt lat="48.75929" lon="-3.25398">
        <ele>10</ele>
        <time>2015-01-18T09:26:10Z</time>
      </trkpt>
      <trkpt lat="48.75931" lon="-3.25391">
        <ele>10</ele>
        <time>2015-01-18T09:26:11Z</time>
      </trkpt>
      <trkpt lat="48.75932" lon="-3.25383">
        <ele>10</ele>
        <time>2015-01-18T09:26:12Z</time>
      </trkpt>
      <trkpt lat="48.75934" lon="-3.25375">
        <ele>10</ele>
        <time>2015-01-18T09:26:13Z</time>
      </trkpt>
      <trkpt lat="48.75936" lon="-3.25368">
        <ele>11</ele>
        <time>2015-01-18T09:26:14Z</time>
      </trkpt>
      <trkpt lat="48.75937" lon="-3.2536">
        <ele>11</ele>
        <time>2015-01-18T09:26:15Z</time>
      </trkpt>
      <trkpt lat="48.75939" lon="-3.25352">
        <ele>11</ele>
        <time>2015-01-18T09:26:16Z</time>
      </trkpt>
      <trkpt lat="48.75941" lon="-3.25345">
        <ele>12</ele>
        <time>2015-01-18T09:26:17Z</time>
      </trkpt>
      <trkpt lat="48.75943" lon="-3.25337">
        <ele>12</ele>
        <time>2015-01-18T09:26:18Z</time>
      </trkpt>
      <trkpt lat="48.75945" lon="-3.2533">
        <ele>12</ele>
        <time>2015-01-18T09:26:19Z</time>
      </trkpt>
      <trkpt lat="48.75948" lon="-3.25322">
        <ele>12</ele>
        <time>2015-01-18T09:26:20Z</time>
      </trkpt>
      <trkpt lat="48.7595" lon="-3.25315">
        <ele>13</ele>
        <time>2015-01-18T09:26:21Z</time>
      </trkpt>
      <trkpt lat="48.75952" lon="-3.25307">
        <ele>13</ele>
        <time>2015-01-18T09:26:22Z</time>
      </trkpt>
      <trkpt lat="48.75955" lon="-3.253">
        <ele>13</ele>
        <time>2015-01-18T09:26:23Z</time>
      </trkpt>
      <trkpt lat="48.75957" lon="-3.25293">
        <ele>13</ele>
        <time>2015-01-18T09:26:24Z</time>
      </trkpt>
      <trkpt lat="48.7596" lon="-3.25286">
        <ele>14</ele>
        <time>2015-01-18T09:26:25Z</time>
      </trkpt>
      <trkpt lat="48.75963" lon="-3.25279">
        <ele>14</ele>
        <time>2015-01-18T09:26:26Z</time>
      </trkpt>
      <trkpt lat="48.75966" lon="-3.25272">
        <ele>14</ele>
        <time>2015-01-18T09:26:27Z</time>
      </trkpt>
      <trkpt lat="48.75969" lon="-3.25265">
        <ele>14</ele>
        <time>2015-01-18T09:26:28Z</time>
      </trkpt>
      <trkpt lat="48.75972" lon="-3.25258">
        <ele>15</ele>
        <time>2015-01-18T09:26:29Z</time>
      </trkpt>
      <trkpt lat="48.75976" lon="-3.25251">
        <ele>15</ele>
        <time>2015-01-18T09:26:30Z</time>
      </trkpt>
      <trkpt lat="48.75979" lon="-3.25245">
        <ele>15</ele>
        <time>2015-01-18T09:26:31Z</time>
      </trkpt>
      <trkpt lat="48.75983" lon="-3.25238">
        <ele>15</ele>
        <time>2015-01-18T09:26:32Z</time>
      </trkpt>
      <trkpt lat="48.75986" lon="-3.25231">
        <ele>16</ele>
        <time>2015-01-18T09:26:33Z</time>
      </trkpt>
      <trkpt lat="48.7599" lon="-3.25225">
        <ele>16</ele>
        <time>2015-01-18T09:26:34Z</time>
      </trkpt>
      <trkpt lat="48.75994" lon="-3.25218">
        <ele>16</ele>
        <time>2015-01-18T09:26:35Z</time>
      </trkpt>
      <trkpt lat="48.75998" lon="-3.25212">
        <ele>16</ele>
        <time>2015-01-18T09:26:36Z</time>
      </trkpt>
      <trkpt lat="48.76002" lon="-3.25205">
        <ele>16</ele>
        <time>2015-01-18T09:26:37Z</time>
      </trkpt>
      <trkpt lat="48.76006" lon="-3.25199">
        <ele>17</ele>
        <time>2015-01-18T09:26:38Z</time>
      </trkpt>
      <trkpt lat="48.76011" lon="-3.25193">
        <ele>17</ele>
        <time>2015-01-18T09:26:39Z</time>
      </trkpt>
      <trkpt lat="48.76015" lon="-3.25187">
        <ele>17</ele>
        <time>2015-01-18T09:26:40Z</time>
      </trkpt>
      <trkpt lat="48.7602" lon="-3.25182">
        <ele>17</ele>
        <time>2015-01-18T09:26:41Z</time>
      </trkpt>
      <trkpt lat="48.76024" lon="-3.25176">
        <ele>17</ele>
        <time>2015-01-18T09:26:42Z</time>
      </trkpt>
      <trkpt lat="48.76029" lon="-3.2517">
        <ele>18</ele>
        <time>2015-01-18T09:26:43Z</time>
      </trkpt>
      <trkpt lat="48.76033" lon="-3.25164">
        <ele>18</ele>
        <time>2015-01-18T09:26:44Z</time>
      </trkpt>
      <trkpt lat="48.76038" lon="-3.25158">
        <ele>18</ele>
        <time>2015-01-18T09:26:45Z</time>
      </trkpt>
      <trkpt lat="48.76043" lon="-3.25152">
        <ele>18</ele>
        <time>2015-01-18T09:26:46Z</time>
      </trkpt>
      <trkpt lat="48.76048" lon="-3.25146">
        <ele>18</ele>
        <time>2015-01-18T09:26:47Z</time>
      </trkpt>
      <trkpt lat="48.76053" lon="-3.25139">
        <ele>18</ele>
        <time>2015-01-18T09:26:48Z</time>
      </trkpt>
      <trkpt lat="48.76058" lon="-3.25133">
        <ele>19</ele>
        <time>2015-01-18T09:26:49Z</time>
      </trkpt>
      <trkpt lat="48.76063" lon="-3.25126">
        <ele>19</ele>
        <time>2015-01-18T09:26:50Z</time>
      </trkpt>
      <trkpt lat="48.76068" lon="-3.2512">
        <ele>19</ele>
        <time>2015-01-18T09:26:51Z</time>
      </trkpt>
      <trkpt lat="48.76073" lon="-3.25114">
        <ele>19</ele>
        <time>2015-01-18T09:26:52Z</time>
      </trkpt>
      <trkpt lat="48.76078" lon="-3.25107">
        <ele>19</ele>
        <time>2015-01-18T09:26:53Z</time>
      </trkpt>
      <trkpt lat="48.76082" lon="-3.25101">
        <ele>19</ele>
        <time>2015-01-18T09:26:54Z</time>
      </trkpt>
      <trkpt lat="48.76087" lon="-3.25096">
        <ele>19</ele>
        <time>2015-01-18T09:26:55Z</time>
      </trkpt>
      <trkpt lat="48.76091" lon="-3.2509">
        <ele>20</ele>
        <time>2015-01-18T09:26:56Z</time>
      </trkpt>
      <trkpt lat="48.76095" lon="-3.25085">
        <ele>20</ele>
        <time>2015-01-18T09:26:57Z</time>
      </trkpt>
      <trkpt lat="48.76099" lon="-3.25079">
        <ele>20</ele>
        <time>2015-01-18T09:26:58Z</time>
      </trkpt>
      <trkpt lat="48.76104" lon="-3.25075">
        <ele>20</ele>
        <time>2015-01-18T09:26:59Z</time>
      </trkpt>
      <trkpt lat="48.76108" lon="-3.25069">
        <ele>20</ele>
        <time>2015-01-18T09:27:00Z</time>
      </trkpt>
      <trkpt lat="48.76112" lon="-3.25064">
        <ele>20</ele>
        <time>2015-01-18T09:27:01Z</time>
      </trkpt>
      <trkpt lat="48.76116" lon="-3.25059">
        <ele>20</ele>
        <time>2015-01-18T09:27:02Z</time>
      </trkpt>
      <trkpt lat="48.7612" lon="-3.25054">
        <ele>21</ele>
        <time>2015-01-18T09:27:03Z</time>
      </trkpt>
      <trkpt lat="48.76124" lon="-3.25049">
        <ele>21</ele>
        <time>2015-01-18T09:27:04Z</time>
      </trkpt>
      <trkpt lat="48.76128" lon="-3.25044">
        <ele>21</ele>
        <time>2015-01-18T09:27:05Z</time>
      </trkpt>
      <trkpt lat="48.76132" lon="-3.25039">
        <ele>21</ele>
        <time>2015-01-18T09:27:06Z</time>
      </trkpt>
      <trkpt lat="48.76136" lon="-3.25033">
        <ele>21</ele>
        <time>2015-01-18T09:27:07Z</time>
      </trkpt>
      <trkpt lat="48.7614" lon="-3.25028">
        <ele>21</ele>
        <time>2015-01-18T09:27:08Z</time>
      </trkpt>
      <trkpt lat="48.76144" lon="-3.25023">
        <ele>21</ele>
        <time>2015-01-18T09:27:09Z</time>
      </trkpt>
      <trkpt lat="48.76149" lon="-3.25018">
        <ele>21</ele>
        <time>2015-01-18T09:27:10Z</time>
      </trkpt>
      <trkpt lat="48.76152" lon="-3.25013">
        <ele>21</ele>
        <time>2015-01-18T09:27:11Z</time>
      </trkpt>
      <trkpt lat="48.76157" lon="-3.25007">
        <ele>21</ele>
        <time>2015-01-18T09:27:12Z</time>
      </trkpt>
      <trkpt lat="48.76161" lon="-3.25002">
        <ele>21</ele>
        <time>2015-01-18T09:27:13Z</time>
      </trkpt>
      <trkpt lat="48.76165" lon="-3.24996">
        <ele>21</ele>
        <time>2015-01-18T09:27:14Z</time>
      </trkpt>
      <trkpt lat="48.7617" lon="-3.2499">
        <ele>21</ele>
        <time>2015-01-18T09:27:15Z</time>
      </trkpt>
      <trkpt lat="48.76175" lon="-3.24984">
        <ele>21</ele>
        <time>2015-01-18T09:27:16Z</time>
      </trkpt>
      <trkpt lat="48.76179" lon="-3.24978">
        <ele>21</ele>
        <time>2015-01-18T09:27:17Z</time>
      </trkpt>
      <trkpt lat="48.76184" lon="-3.24973">
        <ele>21</ele>
        <time>2015-01-18T09:27:18Z</time>
      </trkpt>
      <trkpt lat="48.76189" lon="-3.24967">
        <ele>22</ele>
        <time>2015-01-18T09:27:19Z</time>
      </trkpt>
      <trkpt lat="48.76193" lon="-3.24961">
        <ele>22</ele>
        <time>2015-01-18T09:27:20Z</time>
      </trkpt>
      <trkpt lat="48.76198" lon="-3.24955">
        <ele>22</ele>
        <time>2015-01-18T09:27:21Z</time>
      </trkpt>
      <trkpt lat="48.76203" lon="-3.24949">
        <ele>22</ele>
        <time>2015-01-18T09:27:22Z</time>
      </trkpt>
      <trkpt lat="48.76207" lon="-3.24942">
        <ele>22</ele>
        <time>2015-01-18T09:27:23Z</time>
      </trkpt>
      <trkpt lat="48.76212" lon="-3.24936">
        <ele>22</ele>
        <time>2015-01-18T09:27:24Z</time>
      </trkpt>
      <trkpt lat="48.76217" lon="-3.2493">
        <ele>22</ele>
        <time>2015-01-18T09:27:25Z</time>
      </trkpt>
      <trkpt lat="48.76222" lon="-3.24924">
        <ele>22</ele>
        <time>2015-01-18T09:27:26Z</time>
      </trkpt>
      <trkpt lat="48.76226" lon="-3.24918">
        <ele>22</ele>
        <time>2015-01-18T09:27:27Z</time>
      </trkpt>
      <trkpt lat="48.76231" lon="-3.24913">
        <ele>22</ele>
        <time>2015-01-18T09:27:28Z</time>
      </trkpt>
      <trkpt lat="48.76236" lon="-3.24906">
        <ele>22</ele>
        <time>2015-01-18T09:27:29Z</time>
      </trkpt>
      <trkpt lat="48.76241" lon="-3.249">
        <ele>22</ele>
        <time>2015-01-18T09:27:30Z</time>
      </trkpt>
      <trkpt lat="48.76246" lon="-3.24894">
        <ele>22</ele>
        <time>2015-01-18T09:27:31Z</time>
      </trkpt>
      <trkpt lat="48.76251" lon="-3.24887">
        <ele>22</ele>
        <time>2015-01-18T09:27:32Z</time>
      </trkpt>
      <trkpt lat="48.76256" lon="-3.24881">
        <ele>22</ele>
        <time>2015-01-18T09:27:33Z</time>
      </trkpt>
      <trkpt lat="48.76261" lon="-3.24875">
        <ele>22</ele>
        <time>2015-01-18T09:27:34Z</time>
      </trkpt>
      <trkpt lat="48.76266" lon="-3.24868">
        <ele>22</ele>
        <time>2015-01-18T09:27:35Z</time>
      </trkpt>
      <trkpt lat="48.76271" lon="-3.24861">
        <ele>22</ele>
        <time>2015-01-18T09:27:36Z</time>
      </trkpt>
      <trkpt lat="48.76276" lon="-3.24855">
        <ele>22</ele>
        <time>2015-01-18T09:27:37Z</time>
      </trkpt>
      <trkpt lat="48.76281" lon="-3.24848">
        <ele>22</ele>
        <time>2015-01-18T09:27:38Z</time>
      </trkpt>
      <trkpt lat="48.76286" lon="-3.24842">
        <ele>22</ele>
        <time>2015-01-18T09:27:39Z</time>
      </trkpt>
      <trkpt lat="48.76291" lon="-3.24835">
        <ele>22</ele>
        <time>2015-01-18T09:27:40Z</time>
      </trkpt>
      <trkpt lat="48.76296" lon="-3.24829">
        <ele>22</ele>
        <time>2015-01-18T09:27:41Z</time>
      </trkpt>
      <trkpt lat="48.76301" lon="-3.24823">
        <ele>23</ele>
        <time>2015-01-18T09:27:42Z</time>
      </trkpt>
      <trkpt lat="48.76306" lon="-3.24816">
        <ele>23</ele>
        <time>2015-01-18T09:27:43Z</time>
      </trkpt>
      <trkpt lat="48.76311" lon="-3.2481">
        <ele>23</ele>
        <time>2015-01-18T09:27:44Z</time>
      </trkpt>
      <trkpt lat="48.76316" lon="-3.24804">
        <ele>23</ele>
        <time>2015-01-18T09:27:45Z</time>
      </trkpt>
      <trkpt lat="48.76321" lon="-3.24798">
        <ele>23</ele>
        <time>2015-01-18T09:27:46Z</time>
      </trkpt>
      <trkpt lat="48.76326" lon="-3.24792">
        <ele>23</ele>
        <time>2015-01-18T09:27:47Z</time>
      </trkpt>
      <trkpt lat="48.76331" lon="-3.24785">
        <ele>23</ele>
        <time>2015-01-18T09:27:48Z</time>
      </trkpt>
      <trkpt lat="48.76336" lon="-3.24779">
        <ele>23</ele>
        <time>2015-01-18T09:27:49Z</time>
      </trkpt>
      <trkpt lat="48.76341" lon="-3.24773">
        <ele>23</ele>
        <time>2015-01-18T09:27:50Z</time>
      </trkpt>
      <trkpt lat="48.76345" lon="-3.24766">
        <ele>23</ele>
        <time>2015-01-18T09:27:51Z</time>
      </trkpt>
      <trkpt lat="48.7635" lon="-3.2476">
        <ele>23</ele>
        <time>2015-01-18T09:27:52Z</time>
      </trkpt>
      <trkpt lat="48.76355" lon="-3.24754">
        <ele>23</ele>
        <time>2015-01-18T09:27:53Z</time>
      </trkpt>
      <trkpt lat="48.7636" lon="-3.24748">
        <ele>23</ele>
        <time>2015-01-18T09:27:54Z</time>
      </trkpt>
      <trkpt lat="48.76365" lon="-3.24742">
        <ele>23</ele>
        <time>2015-01-18T09:27:55Z</time>
      </trkpt>
      <trkpt lat="48.7637" lon="-3.24735">
        <ele>23</ele>
        <time>2015-01-18T09:27:56Z</time>
      </trkpt>
      <trkpt lat="48.76374" lon="-3.24729">
        <ele>23</ele>
        <time>2015-01-18T09:27:57Z</time>
      </trkpt>
      <trkpt lat="48.76379" lon="-3.24723">
        <ele>23</ele>
        <time>2015-01-18T09:27:58Z</time>
      </trkpt>
      <trkpt lat="48.76384" lon="-3.24717">
        <ele>23</ele>
        <time>2015-01-18T09:27:59Z</time>
      </trkpt>
      <trkpt lat="48.76389" lon="-3.24711">
        <ele>23</ele>
        <time>2015-01-18T09:28:00Z</time>
      </trkpt>
      <trkpt lat="48.76393" lon="-3.24706">
        <ele>23</ele>
        <time>2015-01-18T09:28:01Z</time>
      </trkpt>
      <trkpt lat="48.76397" lon="-3.247">
        <ele>23</ele>
        <time>2015-01-18T09:28:02Z</time>
      </trkpt>
      <trkpt lat="48.76402" lon="-3.24694">
        <ele>23</ele>
        <time>2015-01-18T09:28:03Z</time>
      </trkpt>
      <trkpt lat="48.76406" lon="-3.24689">
        <ele>23</ele>
        <time>2015-01-18T09:28:04Z</time>
      </trkpt>
      <trkpt lat="48.7641" lon="-3.24684">
        <ele>24</ele>
        <time>2015-01-18T09:28:05Z</time>
      </trkpt>
      <trkpt lat="48.76415" lon="-3.24678">
        <ele>24</ele>
        <time>2015-01-18T09:28:06Z</time>
      </trkpt>
      <trkpt lat="48.76419" lon="-3.24673">
        <ele>24</ele>
        <time>2015-01-18T09:28:07Z</time>
      </trkpt>
      <trkpt lat="48.76424" lon="-3.24667">
        <ele>24</ele>
        <time>2015-01-18T09:28:08Z</time>
      </trkpt>
      <trkpt lat="48.76428" lon="-3.24661">
        <ele>24</ele>
        <time>2015-01-18T09:28:09Z</time>
      </trkpt>
      <trkpt lat="48.76432" lon="-3.24656">
        <ele>24</ele>
        <time>2015-01-18T09:28:10Z</time>
      </trkpt>
      <trkpt lat="48.76437" lon="-3.2465">
        <ele>24</ele>
        <time>2015-01-18T09:28:11Z</time>
      </trkpt>
      <trkpt lat="48.76442" lon="-3.24643">
        <ele>24</ele>
        <time>2015-01-18T09:28:12Z</time>
      </trkpt>
      <trkpt lat="48.76446" lon="-3.24637">
        <ele>24</ele>
        <time>2015-01-18T09:28:13Z</time>
      </trkpt>
      <trkpt lat="48.76451" lon="-3.24631">
        <ele>24</ele>
        <time>2015-01-18T09:28:14Z</time>
      </trkpt>
      <trkpt lat="48.76456" lon="-3.24625">
        <ele>24</ele>
        <time>2015-01-18T09:28:15Z</time>
      </trkpt>
      <trkpt lat="48.76461" lon="-3.24619">
        <ele>24</ele>
        <time>2015-01-18T09:28:16Z</time>
      </trkpt>
      <trkpt lat="48.76466" lon="-3.24613">
        <ele>24</ele>
        <time>2015-01-18T09:28:17Z</time>
      </trkpt>
      <trkpt lat="48.76471" lon="-3.24606">
        <ele>24</ele>
        <time>2015-01-18T09:28:18Z</time>
      </trkpt>
      <trkpt lat="48.76477" lon="-3.246">
        <ele>24</ele>
        <time>2015-01-18T09:28:19Z</time>
      </trkpt>
      <trkpt lat="48.76482" lon="-3.24593">
        <ele>24</ele>
        <time>2015-01-18T09:28:20Z</time>
      </trkpt>
      <trkpt lat="48.76487" lon="-3.24586">
        <ele>24</ele>
        <time>2015-01-18T09:28:21Z</time>
      </trkpt>
      <trkpt lat="48.76493" lon="-3.24579">
        <ele>24</ele>
        <time>2015-01-18T09:28:22Z</time>
      </trkpt>
      <trkpt lat="48.76498" lon="-3.24572">
        <ele>24</ele>
        <time>2015-01-18T09:28:23Z</time>
      </trkpt>
      <trkpt lat="48.76504" lon="-3.24565">
        <ele>24</ele>
        <time>2015-01-18T09:28:24Z</time>
      </trkpt>
      <trkpt lat="48.76509" lon="-3.24558">
        <ele>24</ele>
        <time>2015-01-18T09:28:25Z</time>
      </trkpt>
      <trkpt lat="48.76515" lon="-3.2455">
        <ele>24</ele>
        <time>2015-01-18T09:28:26Z</time>
      </trkpt>
      <trkpt lat="48.7652" lon="-3.24543">
        <ele>24</ele>
        <time>2015-01-18T09:28:27Z</time>
      </trkpt>
      <trkpt lat="48.76526" lon="-3.24536">
        <ele>24</ele>
        <time>2015-01-18T09:28:28Z</time>
      </trkpt>
      <trkpt lat="48.76532" lon="-3.24529">
        <ele>25</ele>
        <time>2015-01-18T09:28:29Z</time>
      </trkpt>
      <trkpt lat="48.76537" lon="-3.24522">
        <ele>25</ele>
        <time>2015-01-18T09:28:30Z</time>
      </trkpt>
      <trkpt lat="48.76543" lon="-3.24515">
        <ele>25</ele>
        <time>2015-01-18T09:28:31Z</time>
      </trkpt>
      <trkpt lat="48.76548" lon="-3.24508">
        <ele>25</ele>
        <time>2015-01-18T09:28:32Z</time>
      </trkpt>
      <trkpt lat="48.76553" lon="-3.24501">
        <ele>25</ele>
        <time>2015-01-18T09:28:33Z</time>
      </trkpt>
      <trkpt lat="48.76559" lon="-3.24494">
        <ele>25</ele>
        <time>2015-01-18T09:28:34Z</time>
      </trkpt>
      <trkpt lat="48.76565" lon="-3.24487">
        <ele>25</ele>
        <time>2015-01-18T09:28:35Z</time>
      </trkpt>
      <trkpt lat="48.76571" lon="-3.2448">
        <ele>25</ele>
        <time>2015-01-18T09:28:36Z</time>
      </trkpt>
      <trkpt lat="48.76576" lon="-3.24473">
        <ele>25</ele>
        <time>2015-01-18T09:28:37Z</time>
      </trkpt>
      <trkpt lat="48.76582" lon="-3.24465">
        <ele>25</ele>
        <time>2015-01-18T09:28:38Z</time>
      </trkpt>
      <trkpt lat="48.76587" lon="-3.24458">
        <ele>25</ele>
        <time>2015-01-18T09:28:39Z</time>
      </trkpt>
      <trkpt lat="48.76593" lon="-3.24451">
        <ele>25</ele>
        <time>2015-01-18T09:28:40Z</time>
      </trkpt>
      <trkpt lat="48.76598" lon="-3.24444">
        <ele>25</ele>
        <time>2015-01-18T09:28:41Z</time>
      </trkpt>
      <trkpt lat="48.76604" lon="-3.24437">
        <ele>25</ele>
        <time>2015-01-18T09:28:42Z</time>
      </trkpt>
      <trkpt lat="48.76609" lon="-3.2443">
        <ele>25</ele>
        <time>2015-01-18T09:28:43Z</time>
      </trkpt>
      <trkpt lat="48.76615" lon="-3.24424">
        <ele>25</ele>
        <time>2015-01-18T09:28:44Z</time>
      </trkpt>
      <trkpt lat="48.7662" lon="-3.24417">
        <ele>25</ele>
        <time>2015-01-18T09:28:45Z</time>
      </trkpt>
      <trkpt lat="48.76625" lon="-3.2441">
        <ele>26</ele>
        <time>2015-01-18T09:28:46Z</time>
      </trkpt>
      <trkpt lat="48.76631" lon="-3.24403">
        <ele>26</ele>
        <time>2015-01-18T09:28:47Z</time>
      </trkpt>
      <trkpt lat="48.76636" lon="-3.24397">
        <ele>26</ele>
        <time>2015-01-18T09:28:48Z</time>
      </trkpt>
      <trkpt lat="48.76641" lon="-3.2439">
        <ele>26</ele>
        <time>2015-01-18T09:28:49Z</time>
      </trkpt>
      <trkpt lat="48.76646" lon="-3.24384">
        <ele>26</ele>
        <time>2015-01-18T09:28:50Z</time>
      </trkpt>
      <trkpt lat="48.76651" lon="-3.24377">
        <ele>26</ele>
        <time>2015-01-18T09:28:51Z</time>
      </trkpt>
      <trkpt lat="48.76656" lon="-3.2437">
        <ele>26</ele>
        <time>2015-01-18T09:28:52Z</time>
      </trkpt>
      <trkpt lat="48.76662" lon="-3.24363">
        <ele>26</ele>
        <time>2015-01-18T09:28:53Z</time>
      </trkpt>
      <trkpt lat="48.76667" lon="-3.24356">
        <ele>26</ele>
        <time>2015-01-18T09:28:54Z</time>
      </trkpt>
      <trkpt lat="48.76672" lon="-3.2435">
        <ele>26</ele>
        <time>2015-01-18T09:28:55Z</time>
      </trkpt>
      <trkpt lat="48.76678" lon="-3.24343">
        <ele>26</ele>
        <time>2015-01-18T09:28:56Z</time>
      </trkpt>
      <trkpt lat="48.76683" lon="-3.24336">
        <ele>26</ele>
        <time>2015-01-18T09:28:57Z</time>
      </trkpt>
      <trkpt lat="48.76688" lon="-3.24329">
        <ele>26</ele>
        <time>2015-01-18T09:28:58Z</time>
      </trkpt>
      <trkpt lat="48.76693" lon="-3.24322">
        <ele>26</ele>
        <time>2015-01-18T09:28:59Z</time>
      </trkpt>
      <trkpt lat="48.76699" lon="-3.24315">
        <ele>26</ele>
        <time>2015-01-18T09:29:00Z</time>
      </trkpt>
      <trkpt lat="48.76704" lon="-3.24308">
        <ele>26</ele>
        <time>2015-01-18T09:29:01Z</time>
      </trkpt>
      <trkpt lat="48.76709" lon="-3.24302">
        <ele>26</ele>
        <time>2015-01-18T09:29:02Z</time>
      </trkpt>
      <trkpt lat="48.76715" lon="-3.24295">
        <ele>26</ele>
        <time>2015-01-18T09:29:03Z</time>
      </trkpt>
      <trkpt lat="48.7672" lon="-3.24288">
        <ele>26</ele>
        <time>2015-01-18T09:29:04Z</time>
      </trkpt>
      <trkpt lat="48.76725" lon="-3.24282">
        <ele>26</ele>
        <time>2015-01-18T09:29:05Z</time>
      </trkpt>
      <trkpt lat="48.76731" lon="-3.24275">
        <ele>26</ele>
        <time>2015-01-18T09:29:06Z</time>
      </trkpt>
      <trkpt lat="48.76736" lon="-3.24268">
        <ele>26</ele>
        <time>2015-01-18T09:29:07Z</time>
      </trkpt>
      <trkpt lat="48.76741" lon="-3.24261">
        <ele>26</ele>
        <time>2015-01-18T09:29:08Z</time>
      </trkpt>
      <trkpt lat="48.76747" lon="-3.24254">
        <ele>26</ele>
        <time>2015-01-18T09:29:09Z</time>
      </trkpt>
      <trkpt lat="48.76752" lon="-3.24247">
        <ele>26</ele>
        <time>2015-01-18T09:29:10Z</time>
      </trkpt>
      <trkpt lat="48.76758" lon="-3.2424">
        <ele>26</ele>
        <time>2015-01-18T09:29:11Z</time>
      </trkpt>
      <trkpt lat="48.76763" lon="-3.24234">
        <ele>26</ele>
        <time>2015-01-18T09:29:12Z</time>
      </trkpt>
      <trkpt lat="48.76768" lon="-3.24227">
        <ele>26</ele>
        <time>2015-01-18T09:29:13Z</time>
      </trkpt>
      <trkpt lat="48.76774" lon="-3.2422">
        <ele>27</ele>
        <time>2015-01-18T09:29:14Z</time>
      </trkpt>
      <trkpt lat="48.76779" lon="-3.24213">
        <ele>27</ele>
        <time>2015-01-18T09:29:15Z</time>
      </trkpt>
      <trkpt lat="48.76785" lon="-3.24205">
        <ele>27</ele>
        <time>2015-01-18T09:29:16Z</time>
      </trkpt>
      <trkpt lat="48.7679" lon="-3.24198">
        <ele>27</ele>
        <time>2015-01-18T09:29:17Z</time>
      </trkpt>
      <trkpt lat="48.76796" lon="-3.24191">
        <ele>27</ele>
        <time>2015-01-18T09:29:18Z</time>
      </trkpt>
      <trkpt lat="48.76801" lon="-3.24184">
        <ele>27</ele>
        <time>2015-01-18T09:29:19Z</time>
      </trkpt>
      <trkpt lat="48.76807" lon="-3.24178">
        <ele>27</ele>
        <time>2015-01-18T09:29:20Z</time>
      </trkpt>
      <trkpt lat="48.76812" lon="-3.24171">
        <ele>27</ele>
        <time>2015-01-18T09:29:21Z</time>
      </trkpt>
      <trkpt lat="48.76817" lon="-3.24164">
        <ele>27</ele>
        <time>2015-01-18T09:29:22Z</time>
      </trkpt>
      <trkpt lat="48.76823" lon="-3.24157">
        <ele>27</ele>
        <time>2015-01-18T09:29:23Z</time>
      </trkpt>
      <trkpt lat="48.76828" lon="-3.2415">
        <ele>27</ele>
        <time>2015-01-18T09:29:24Z</time>
      </trkpt>
      <trkpt lat="48.76834" lon="-3.24144">
        <ele>27</ele>
        <time>2015-01-18T09:29:25Z</time>
      </trkpt>
      <trkpt lat="48.7684" lon="-3.24137">
        <ele>27</ele>
        <time>2015-01-18T09:29:26Z</time>
      </trkpt>
      <trkpt lat="48.76845" lon="-3.24131">
        <ele>27</ele>
        <time>2015-01-18T09:29:27Z</time>
      </trkpt>
      <trkpt lat="48.76851" lon="-3.24124">
        <ele>27</ele>
        <time>2015-01-18T09:29:28Z</time>
      </trkpt>
      <trkpt lat="48.76857" lon="-3.24117">
        <ele>27</ele>
        <time>2015-01-18T09:29:29Z</time>
      </trkpt>
      <trkpt lat="48.76862" lon="-3.24111">
        <ele>27</ele>
        <time>2015-01-18T09:29:30Z</time>
      </trkpt>
      <trkpt lat="48.76868" lon="-3.24104">
        <ele>27</ele>
        <time>2015-01-18T09:29:31Z</time>
      </trkpt>
      <trkpt lat="48.76874" lon="-3.24098">
        <ele>27</ele>
        <time>2015-01-18T09:29:32Z</time>
      </trkpt>
      <trkpt lat="48.76881" lon="-3.24091">
        <ele>27</ele>
        <time>2015-01-18T09:29:33Z</time>
      </trkpt>
      <trkpt lat="48.76887" lon="-3.24085">
        <ele>27</ele>
        <time>2015-01-18T09:29:34Z</time>
      </trkpt>
      <trkpt lat="48.76893" lon="-3.24078">
        <ele>27</ele>
        <time>2015-01-18T09:29:35Z</time>
      </trkpt>
      <trkpt lat="48.76899" lon="-3.24072">
        <ele>27</ele>
        <time>2015-01-18T09:29:36Z</time>
      </trkpt>
      <trkpt lat="48.76905" lon="-3.24065">
        <ele>27</ele>
        <time>2015-01-18T09:29:37Z</time>
      </trkpt>
      <trkpt lat="48.76911" lon="-3.24059">
        <ele>27</ele>
        <time>2015-01-18T09:29:38Z</time>
      </trkpt>
      <trkpt lat="48.76918" lon="-3.24053">
        <ele>27</ele>
        <time>2015-01-18T09:29:39Z</time>
      </trkpt>
      <trkpt lat="48.76924" lon="-3.24047">
        <ele>28</ele>
        <time>2015-01-18T09:29:40Z</time>
      </trkpt>
      <trkpt lat="48.7693" lon="-3.24041">
        <ele>28</ele>
        <time>2015-01-18T09:29:41Z</time>
      </trkpt>
      <trkpt lat="48.76936" lon="-3.24035">
        <ele>28</ele>
        <time>2015-01-18T09:29:42Z</time>
      </trkpt>
      <trkpt lat="48.76942" lon="-3.2403">
        <ele>28</ele>
        <time>2015-01-18T09:29:43Z</time>
      </trkpt>
      <trkpt lat="48.76948" lon="-3.24024">
        <ele>28</ele>
        <time>2015-01-18T09:29:44Z</time>
      </trkpt>
      <trkpt lat="48.76954" lon="-3.24018">
        <ele>28</ele>
        <time>2015-01-18T09:29:45Z</time>
      </trkpt>
      <trkpt lat="48.7696" lon="-3.24012">
        <ele>28</ele>
        <time>2015-01-18T09:29:46Z</time>
      </trkpt>
      <trkpt lat="48.76967" lon="-3.24007">
        <ele>28</ele>
        <time>2015-01-18T09:29:47Z</time>
      </trkpt>
      <trkpt lat="48.76973" lon="-3.24002">
        <ele>28</ele>
        <time>2015-01-18T09:29:48Z</time>
      </trkpt>
      <trkpt lat="48.76979" lon="-3.23996">
        <ele>28</ele>
        <time>2015-01-18T09:29:49Z</time>
      </trkpt>
      <trkpt lat="48.76985" lon="-3.23991">
        <ele>28</ele>
        <time>2015-01-18T09:29:50Z</time>
      </trkpt>
      <trkpt lat="48.76992" lon="-3.23986">
        <ele>28</ele>
        <time>2015-01-18T09:29:51Z</time>
      </trkpt>
      <trkpt lat="48.76998" lon="-3.23981">
        <ele>28</ele>
        <time>2015-01-18T09:29:52Z</time>
      </trkpt>
      <trkpt lat="48.77004" lon="-3.23975">
        <ele>28</ele>
        <time>2015-01-18T09:29:53Z</time>
      </trkpt>
      <trkpt lat="48.7701" lon="-3.23971">
        <ele>28</ele>
        <time>2015-01-18T09:29:54Z</time>
      </trkpt>
      <trkpt lat="48.77016" lon="-3.23966">
        <ele>29</ele>
        <time>2015-01-18T09:29:55Z</time>
      </trkpt>
      <trkpt lat="48.77022" lon="-3.23961">
        <ele>29</ele>
        <time>2015-01-18T09:29:56Z</time>
      </trkpt>
      <trkpt lat="48.77028" lon="-3.23957">
        <ele>29</ele>
        <time>2015-01-18T09:29:57Z</time>
      </trkpt>
      <trkpt lat="48.77034" lon="-3.23952">
        <ele>29</ele>
        <time>2015-01-18T09:29:58Z</time>
      </trkpt>
      <trkpt lat="48.7704" lon="-3.23948">
        <ele>29</ele>
        <time>2015-01-18T09:29:59Z</time>
      </trkpt>
      <trkpt lat="48.77047" lon="-3.23943">
        <ele>29</ele>
        <time>2015-01-18T09:30:00Z</time>
      </trkpt>
      <trkpt lat="48.77053" lon="-3.23939">
        <ele>29</ele>
        <time>2015-01-18T09:30:01Z</time>
      </trkpt>
      <trkpt lat="48.77059" lon="-3.23935">
        <ele>29</ele>
        <time>2015-01-18T09:30:02Z</time>
      </trkpt>
      <trkpt lat="48.77065" lon="-3.2393">
        <ele>29</ele>
        <time>2015-01-18T09:30:03Z</time>
      </trkpt>
      <trkpt lat="48.77071" lon="-3.23926">
        <ele>29</ele>
        <time>2015-01-18T09:30:04Z</time>
      </trkpt>
      <trkpt lat="48.77078" lon="-3.23921">
        <ele>29</ele>
        <time>2015-01-18T09:30:05Z</time>
      </trkpt>
      <trkpt lat="48.77084" lon="-3.23918">
        <ele>30</ele>
        <time>2015-01-18T09:30:06Z</time>
      </trkpt>
      <trkpt lat="48.77091" lon="-3.23913">
        <ele>30</ele>
        <time>2015-01-18T09:30:07Z</time>
      </trkpt>
      <trkpt lat="48.77097" lon="-3.23909">
        <ele>30</ele>
        <time>2015-01-18T09:30:08Z</time>
      </trkpt>
      <trkpt lat="48.77103" lon="-3.23905">
        <ele>30</ele>
        <time>2015-01-18T09:30:09Z</time>
      </trkpt>
      <trkpt lat="48.7711" lon="-3.239">
        <ele>30</ele>
        <time>2015-01-18T09:30:10Z</time>
      </trkpt>
      <trkpt lat="48.77116" lon="-3.23896">
        <ele>30</ele>
        <time>2015-01-18T09:30:11Z</time>
      </trkpt>
      <trkpt lat="48.77122" lon="-3.23892">
        <ele>31</ele>
        <time>2015-01-18T09:30:12Z</time>
      </trkpt>
      <trkpt lat="48.77129" lon="-3.23887">
        <ele>31</ele>
        <time>2015-01-18T09:30:13Z</time>
      </trkpt>
      <trkpt lat="48.77135" lon="-3.23883">
        <ele>31</ele>
        <time>2015-01-18T09:30:14Z</time>
      </trkpt>
      <trkpt lat="48.77142" lon="-3.23879">
        <ele>31</ele>
        <time>2015-01-18T09:30:15Z</time>
      </trkpt>
      <trkpt lat="48.77148" lon="-3.23875">
        <ele>31</ele>
        <time>2015-01-18T09:30:16Z</time>
      </trkpt>
      <trkpt lat="48.77155" lon="-3.2387">
        <ele>31</ele>
        <time>2015-01-18T09:30:17Z</time>
      </trkpt>
      <trkpt lat="48.77161" lon="-3.23866">
        <ele>32</ele>
        <time>2015-01-18T09:30:18Z</time>
      </trkpt>
      <trkpt lat="48.77168" lon="-3.23861">
        <ele>32</ele>
        <time>2015-01-18T09:30:19Z</time>
      </trkpt>
      <trkpt lat="48.77175" lon="-3.23857">
        <ele>32</ele>
        <time>2015-01-18T09:30:20Z</time>
      </trkpt>
      <trkpt lat="48.77181" lon="-3.23852">
        <ele>32</ele>
        <time>2015-01-18T09:30:21Z</time>
      </trkpt>
      <trkpt lat="48.77188" lon="-3.23848">
        <ele>32</ele>
        <time>2015-01-18T09:30:22Z</time>
      </trkpt>
      <trkpt lat="48.77194" lon="-3.23844">
        <ele>32</ele>
        <time>2015-01-18T09:30:23Z</time>
      </trkpt>
      <trkpt lat="48.772" lon="-3.23839">
        <ele>33</ele>
        <time>2015-01-18T09:30:24Z</time>
      </trkpt>
      <trkpt lat="48.77207" lon="-3.23835">
        <ele>33</ele>
        <time>2015-01-18T09:30:25Z</time>
      </trkpt>
      <trkpt lat="48.77213" lon="-3.23831">
        <ele>33</ele>
        <time>2015-01-18T09:30:26Z</time>
      </trkpt>
      <trkpt lat="48.77219" lon="-3.23827">
        <ele>33</ele>
        <time>2015-01-18T09:30:27Z</time>
      </trkpt>
      <trkpt lat="48.77225" lon="-3.23824">
        <ele>34</ele>
        <time>2015-01-18T09:30:28Z</time>
      </trkpt>
      <trkpt lat="48.7723" lon="-3.23821">
        <ele>34</ele>
        <time>2015-01-18T09:30:29Z</time>
      </trkpt>
      <trkpt lat="48.77235" lon="-3.23817">
        <ele>34</ele>
        <time>2015-01-18T09:30:30Z</time>
      </trkpt>
      <trkpt lat="48.77239" lon="-3.23814">
        <ele>34</ele>
        <time>2015-01-18T09:30:31Z</time>
      </trkpt>
      <trkpt lat="48.77243" lon="-3.23811">
        <ele>35</ele>
        <time>2015-01-18T09:30:32Z</time>
      </trkpt>
      <trkpt lat="48.77247" lon="-3.23807">
        <ele>35</ele>
        <time>2015-01-18T09:30:33Z</time>
      </trkpt>
      <trkpt lat="48.77251" lon="-3.23803">
        <ele>35</ele>
        <time>2015-01-18T09:30:34Z</time>
      </trkpt>
      <trkpt lat="48.77255" lon="-3.23798">
        <ele>35</ele>
        <time>2015-01-18T09:30:35Z</time>
      </trkpt>
      <trkpt lat="48.77258" lon="-3.23792">
        <ele>36</ele>
        <time>2015-01-18T09:30:36Z</time>
      </trkpt>
      <trkpt lat="48.7726" lon="-3.23785">
        <ele>36</ele>
        <time>2015-01-18T09:30:37Z</time>
      </trkpt>
      <trkpt lat="48.77261" lon="-3.23777">
        <ele>36</ele>
        <time>2015-01-18T09:30:38Z</time>
      </trkpt>
      <trkpt lat="48.77261" lon="-3.2377">
        <ele>36</ele>
        <time>2015-01-18T09:30:39Z</time>
      </trkpt>
      <trkpt lat="48.7726" lon="-3.23756">
        <ele>37</ele>
        <time>2015-01-18T09:30:41Z</time>
      </trkpt>
      <trkpt lat="48.77258" lon="-3.23748">
        <ele>37</ele>
        <time>2015-01-18T09:30:42Z</time>
      </trkpt>
      <trkpt lat="48.77255" lon="-3.23741">
        <ele>37</ele>
        <time>2015-01-18T09:30:43Z</time>
      </trkpt>
      <trkpt lat="48.77253" lon="-3.23734">
        <ele>37</ele>
        <time>2015-01-18T09:30:44Z</time>
      </trkpt>
      <trkpt lat="48.7725" lon="-3.23726">
        <ele>37</ele>
        <time>2015-01-18T09:30:45Z</time>
      </trkpt>
      <trkpt lat="48.77247" lon="-3.23719">
        <ele>37</ele>
        <time>2015-01-18T09:30:46Z</time>
      </trkpt>
      <trkpt lat="48.77244" lon="-3.23711">
        <ele>37</ele>
        <time>2015-01-18T09:30:47Z</time>
      </trkpt>
      <trkpt lat="48.7724" lon="-3.23703">
        <ele>37</ele>
        <time>2015-01-18T09:30:48Z</time>
      </trkpt>
      <trkpt lat="48.77237" lon="-3.23696">
        <ele>37</ele>
        <time>2015-01-18T09:30:49Z</time>
      </trkpt>
      <trkpt lat="48.77234" lon="-3.23688">
        <ele>37</ele>
        <time>2015-01-18T09:30:50Z</time>
      </trkpt>
      <trkpt lat="48.7723" lon="-3.23681">
        <ele>37</ele>
        <time>2015-01-18T09:30:51Z</time>
      </trkpt>
      <trkpt lat="48.77227" lon="-3.23673">
        <ele>37</ele>
        <time>2015-01-18T09:30:52Z</time>
      </trkpt>
      <trkpt lat="48.77223" lon="-3.23665">
        <ele>37</ele>
        <time>2015-01-18T09:30:53Z</time>
      </trkpt>
      <trkpt lat="48.7722" lon="-3.23658">
        <ele>37</ele>
        <time>2015-01-18T09:30:54Z</time>
      </trkpt>
      <trkpt lat="48.77217" lon="-3.2365">
        <ele>37</ele>
        <time>2015-01-18T09:30:55Z</time>
      </trkpt>
      <trkpt lat="48.77214" lon="-3.23642">
        <ele>37</ele>
        <time>2015-01-18T09:30:56Z</time>
      </trkpt>
      <trkpt lat="48.77211" lon="-3.23634">
        <ele>37</ele>
        <time>2015-01-18T09:30:57Z</time>
      </trkpt>
      <trkpt lat="48.77207" lon="-3.23625">
        <ele>37</ele>
        <time>2015-01-18T09:30:58Z</time>
      </trkpt>
      <trkpt lat="48.77203" lon="-3.23617">
        <ele>37</ele>
        <time>2015-01-18T09:30:59Z</time>
      </trkpt>
      <trkpt lat="48.772" lon="-3.23609">
        <ele>37</ele>
        <time>2015-01-18T09:31:00Z</time>
      </trkpt>
      <trkpt lat="48.77197" lon="-3.236">
        <ele>37</ele>
        <time>2015-01-18T09:31:01Z</time>
      </trkpt>
      <trkpt lat="48.77193" lon="-3.23591">
        <ele>37</ele>
        <time>2015-01-18T09:31:02Z</time>
      </trkpt>
      <trkpt lat="48.77191" lon="-3.23582">
        <ele>37</ele>
        <time>2015-01-18T09:31:03Z</time>
      </trkpt>
      <trkpt lat="48.77189" lon="-3.23572">
        <ele>37</ele>
        <time>2015-01-18T09:31:04Z</time>
      </trkpt>
      <trkpt lat="48.77189" lon="-3.23563">
        <ele>37</ele>
        <time>2015-01-18T09:31:05Z</time>
      </trkpt>
      <trkpt lat="48.7719" lon="-3.23554">
        <ele>37</ele>
        <time>2015-01-18T09:31:06Z</time>
      </trkpt>
      <trkpt lat="48.77192" lon="-3.23545">
        <ele>37</ele>
        <time>2015-01-18T09:31:07Z</time>
      </trkpt>
      <trkpt lat="48.77196" lon="-3.23537">
        <ele>37</ele>
        <time>2015-01-18T09:31:08Z</time>
      </trkpt>
      <trkpt lat="48.772" lon="-3.23529">
        <ele>37</ele>
        <time>2015-01-18T09:31:09Z</time>
      </trkpt>
      <trkpt lat="48.77206" lon="-3.23521">
        <ele>37</ele>
        <time>2015-01-18T09:31:10Z</time>
      </trkpt>
      <trkpt lat="48.77211" lon="-3.23514">
        <ele>37</ele>
        <time>2015-01-18T09:31:11Z</time>
      </trkpt>
      <trkpt lat="48.77217" lon="-3.23507">
        <ele>37</ele>
        <time>2015-01-18T09:31:12Z</time>
      </trkpt>
      <trkpt lat="48.77223" lon="-3.235">
        <ele>37</ele>
        <time>2015-01-18T09:31:13Z</time>
      </trkpt>
      <trkpt lat="48.77229" lon="-3.23492">
        <ele>37</ele>
        <time>2015-01-18T09:31:14Z</time>
      </trkpt>
      <trkpt lat="48.77234" lon="-3.23484">
        <ele>37</ele>
        <time>2015-01-18T09:31:15Z</time>
      </trkpt>
      <trkpt lat="48.77239" lon="-3.23476">
        <ele>37</ele>
        <time>2015-01-18T09:31:16Z</time>
      </trkpt>
      <trkpt lat="48.77243" lon="-3.23467">
        <ele>37</ele>
        <time>2015-01-18T09:31:17Z</time>
      </trkpt>
      <trkpt lat="48.77248" lon="-3.23458">
        <ele>37</ele>
        <time>2015-01-18T09:31:18Z</time>
      </trkpt>
      <trkpt lat="48.77251" lon="-3.23448">
        <ele>37</ele>
        <time>2015-01-18T09:31:19Z</time>
      </trkpt>
      <trkpt lat="48.77255" lon="-3.23439">
        <ele>37</ele>
        <time>2015-01-18T09:31:20Z</time>
      </trkpt>
      <trkpt lat="48.77259" lon="-3.23428">
        <ele>37</ele>
        <time>2015-01-18T09:31:21Z</time>
      </trkpt>
      <trkpt lat="48.77262" lon="-3.23418">
        <ele>37</ele>
        <time>2015-01-18T09:31:22Z</time>
      </trkpt>
      <trkpt lat="48.77265" lon="-3.23408">
        <ele>37</ele>
        <time>2015-01-18T09:31:23Z</time>
      </trkpt>
      <trkpt lat="48.77268" lon="-3.23396">
        <ele>37</ele>
        <time>2015-01-18T09:31:24Z</time>
      </trkpt>
      <trkpt lat="48.7727" lon="-3.23385">
        <ele>37</ele>
        <time>2015-01-18T09:31:25Z</time>
      </trkpt>
      <trkpt lat="48.77272" lon="-3.23374">
        <ele>37</ele>
        <time>2015-01-18T09:31:26Z</time>
      </trkpt>
      <trkpt lat="48.77273" lon="-3.23362">
        <ele>37</ele>
        <time>2015-01-18T09:31:27Z</time>
      </trkpt>
      <trkpt lat="48.77274" lon="-3.2335">
        <ele>37</ele>
        <time>2015-01-18T09:31:28Z</time>
      </trkpt>
      <trkpt lat="48.77275" lon="-3.23338">
        <ele>37</ele>
        <time>2015-01-18T09:31:29Z</time>
      </trkpt>
      <trkpt lat="48.77276" lon="-3.23325">
        <ele>37</ele>
        <time>2015-01-18T09:31:30Z</time>
      </trkpt>
      <trkpt lat="48.77277" lon="-3.23313">
        <ele>37</ele>
        <time>2015-01-18T09:31:31Z</time>
      </trkpt>
      <trkpt lat="48.77279" lon="-3.233">
        <ele>37</ele>
        <time>2015-01-18T09:31:32Z</time>
      </trkpt>
      <trkpt lat="48.7728" lon="-3.23288">
        <ele>37</ele>
        <time>2015-01-18T09:31:33Z</time>
      </trkpt>
      <trkpt lat="48.77282" lon="-3.23276">
        <ele>37</ele>
        <time>2015-01-18T09:31:34Z</time>
      </trkpt>
      <trkpt lat="48.77285" lon="-3.23265">
        <ele>37</ele>
        <time>2015-01-18T09:31:35Z</time>
      </trkpt>
      <trkpt lat="48.77287" lon="-3.23253">
        <ele>37</ele>
        <time>2015-01-18T09:31:36Z</time>
      </trkpt>
      <trkpt lat="48.7729" lon="-3.23242">
        <ele>37</ele>
        <time>2015-01-18T09:31:37Z</time>
      </trkpt>
      <trkpt lat="48.77292" lon="-3.23231">
        <ele>37</ele>
        <time>2015-01-18T09:31:38Z</time>
      </trkpt>
      <trkpt lat="48.77295" lon="-3.2322">
        <ele>37</ele>
        <time>2015-01-18T09:31:39Z</time>
      </trkpt>
      <trkpt lat="48.77298" lon="-3.23209">
        <ele>37</ele>
        <time>2015-01-18T09:31:40Z</time>
      </trkpt>
      <trkpt lat="48.773" lon="-3.23198">
        <ele>37</ele>
        <time>2015-01-18T09:31:41Z</time>
      </trkpt>
      <trkpt lat="48.77303" lon="-3.23187">
        <ele>37</ele>
        <time>2015-01-18T09:31:42Z</time>
      </trkpt>
      <trkpt lat="48.77305" lon="-3.23177">
        <ele>37</ele>
        <time>2015-01-18T09:31:43Z</time>
      </trkpt>
      <trkpt lat="48.77307" lon="-3.23166">
        <ele>37</ele>
        <time>2015-01-18T09:31:44Z</time>
      </trkpt>
      <trkpt lat="48.7731" lon="-3.23156">
        <ele>37</ele>
        <time>2015-01-18T09:31:45Z</time>
      </trkpt>
      <trkpt lat="48.77312" lon="-3.23146">
        <ele>37</ele>
        <time>2015-01-18T09:31:46Z</time>
      </trkpt>
      <trkpt lat="48.77314" lon="-3.23136">
        <ele>37</ele>
        <time>2015-01-18T09:31:47Z</time>
      </trkpt>
      <trkpt lat="48.77317" lon="-3.23127">
        <ele>37</ele>
        <time>2015-01-18T09:31:48Z</time>
      </trkpt>
      <trkpt lat="48.77319" lon="-3.23117">
        <ele>37</ele>
        <time>2015-01-18T09:31:49Z</time>
      </trkpt>
      <trkpt lat="48.77322" lon="-3.23108">
        <ele>37</ele>
        <time>2015-01-18T09:31:50Z</time>
      </trkpt>
      <trkpt lat="48.77325" lon="-3.23099">
        <ele>37</ele>
        <time>2015-01-18T09:31:51Z</time>
      </trkpt>
      <trkpt lat="48.77329" lon="-3.23089">
        <ele>37</ele>
        <time>2015-01-18T09:31:52Z</time>
      </trkpt>
      <trkpt lat="48.77332" lon="-3.2308">
        <ele>37</ele>
        <time>2015-01-18T09:31:53Z</time>
      </trkpt>
      <trkpt lat="48.77336" lon="-3.2307">
        <ele>37</ele>
        <time>2015-01-18T09:31:54Z</time>
      </trkpt>
      <trkpt lat="48.77339" lon="-3.2306">
        <ele>36</ele>
        <time>2015-01-18T09:31:55Z</time>
      </trkpt>
      <trkpt lat="48.77342" lon="-3.2305">
        <ele>36</ele>
        <time>2015-01-18T09:31:56Z</time>
      </trkpt>
      <trkpt lat="48.77345" lon="-3.23039">
        <ele>36</ele>
        <time>2015-01-18T09:31:57Z</time>
      </trkpt>
      <trkpt lat="48.77348" lon="-3.23029">
        <ele>36</ele>
        <time>2015-01-18T09:31:58Z</time>
      </trkpt>
      <trkpt lat="48.77351" lon="-3.23019">
        <ele>35</ele>
        <time>2015-01-18T09:31:59Z</time>
      </trkpt>
      <trkpt lat="48.77354" lon="-3.23008">
        <ele>35</ele>
        <time>2015-01-18T09:32:00Z</time>
      </trkpt>
      <trkpt lat="48.77357" lon="-3.22998">
        <ele>35</ele>
        <time>2015-01-18T09:32:01Z</time>
      </trkpt>
      <trkpt lat="48.7736" lon="-3.22987">
        <ele>35</ele>
        <time>2015-01-18T09:32:02Z</time>
      </trkpt>
      <trkpt lat="48.77363" lon="-3.22976">
        <ele>34</ele>
        <time>2015-01-18T09:32:03Z</time>
      </trkpt>
      <trkpt lat="48.77365" lon="-3.22964">
        <ele>34</ele>
        <time>2015-01-18T09:32:04Z</time>
      </trkpt>
      <trkpt lat="48.77367" lon="-3.22952">
        <ele>34</ele>
        <time>2015-01-18T09:32:05Z</time>
      </trkpt>
      <trkpt lat="48.77368" lon="-3.2294">
        <ele>34</ele>
        <time>2015-01-18T09:32:06Z</time>
      </trkpt>
      <trkpt lat="48.77369" lon="-3.22927">
        <ele>33</ele>
        <time>2015-01-18T09:32:07Z</time>
      </trkpt>
      <trkpt lat="48.7737" lon="-3.22915">
        <ele>33</ele>
        <time>2015-01-18T09:32:08Z</time>
      </trkpt>
      <trkpt lat="48.7737" lon="-3.22889">
        <ele>33</ele>
        <time>2015-01-18T09:32:10Z</time>
      </trkpt>
      <trkpt lat="48.7737" lon="-3.22814">
        <ele>31</ele>
        <time>2015-01-18T09:32:16Z</time>
      </trkpt>
      <trkpt lat="48.77371" lon="-3.22767">
        <ele>31</ele>
        <time>2015-01-18T09:32:20Z</time>
      </trkpt>
      <trkpt lat="48.77371" lon="-3.2272">
        <ele>30</ele>
        <time>2015-01-18T09:32:24Z</time>
      </trkpt>
      <trkpt lat="48.77372" lon="-3.22708">
        <ele>29</ele>
        <time>2015-01-18T09:32:25Z</time>
      </trkpt>
      <trkpt lat="48.77372" lon="-3.22684">
        <ele>29</ele>
        <time>2015-01-18T09:32:27Z</time>
      </trkpt>
      <trkpt lat="48.77372" lon="-3.22648">
        <ele>28</ele>
        <time>2015-01-18T09:32:30Z</time>
      </trkpt>
      <trkpt lat="48.77373" lon="-3.22636">
        <ele>28</ele>
        <time>2015-01-18T09:32:31Z</time>
      </trkpt>
      <trkpt lat="48.77374" lon="-3.22624">
        <ele>28</ele>
        <time>2015-01-18T09:32:32Z</time>
      </trkpt>
      <trkpt lat="48.77375" lon="-3.22612">
        <ele>27</ele>
        <time>2015-01-18T09:32:33Z</time>
      </trkpt>
      <trkpt lat="48.77377" lon="-3.22601">
        <ele>27</ele>
        <time>2015-01-18T09:32:34Z</time>
      </trkpt>
      <trkpt lat="48.7738" lon="-3.22589">
        <ele>27</ele>
        <time>2015-01-18T09:32:35Z</time>
      </trkpt>
      <trkpt lat="48.77383" lon="-3.22578">
        <ele>27</ele>
        <time>2015-01-18T09:32:36Z</time>
      </trkpt>
      <trkpt lat="48.77386" lon="-3.22567">
        <ele>27</ele>
        <time>2015-01-18T09:32:37Z</time>
      </trkpt>
      <trkpt lat="48.7739" lon="-3.22556">
        <ele>27</ele>
        <time>2015-01-18T09:32:38Z</time>
      </trkpt>
      <trkpt lat="48.77394" lon="-3.22545">
        <ele>27</ele>
        <time>2015-01-18T09:32:39Z</time>
      </trkpt>
      <trkpt lat="48.77398" lon="-3.22535">
        <ele>27</ele>
        <time>2015-01-18T09:32:40Z</time>
      </trkpt>
      <trkpt lat="48.77403" lon="-3.22526">
        <ele>27</ele>
        <time>2015-01-18T09:32:41Z</time>
      </trkpt>
      <trkpt lat="48.77408" lon="-3.22517">
        <ele>27</ele>
        <time>2015-01-18T09:32:42Z</time>
      </trkpt>
      <trkpt lat="48.77413" lon="-3.22509">
        <ele>27</ele>
        <time>2015-01-18T09:32:43Z</time>
      </trkpt>
      <trkpt lat="48.77419" lon="-3.22501">
        <ele>27</ele>
        <time>2015-01-18T09:32:44Z</time>
      </trkpt>
      <trkpt lat="48.77425" lon="-3.22494">
        <ele>27</ele>
        <time>2015-01-18T09:32:45Z</time>
      </trkpt>
      <trkpt lat="48.77431" lon="-3.22488">
        <ele>27</ele>
        <time>2015-01-18T09:32:46Z</time>
      </trkpt>
      <trkpt lat="48.77437" lon="-3.22481">
        <ele>27</ele>
        <time>2015-01-18T09:32:47Z</time>
      </trkpt>
      <trkpt lat="48.77443" lon="-3.22476">
        <ele>27</ele>
        <time>2015-01-18T09:32:48Z</time>
      </trkpt>
      <trkpt lat="48.7745" lon="-3.22471">
        <ele>27</ele>
        <time>2015-01-18T09:32:49Z</time>
      </trkpt>
      <trkpt lat="48.77456" lon="-3.22466">
        <ele>27</ele>
        <time>2015-01-18T09:32:50Z</time>
      </trkpt>
      <trkpt lat="48.77463" lon="-3.22462">
        <ele>27</ele>
        <time>2015-01-18T09:32:51Z</time>
      </trkpt>
      <trkpt lat="48.77469" lon="-3.22459">
        <ele>27</ele>
        <time>2015-01-18T09:32:52Z</time>
      </trkpt>
      <trkpt lat="48.77476" lon="-3.22456">
        <ele>27</ele>
        <time>2015-01-18T09:32:53Z</time>
      </trkpt>
      <trkpt lat="48.77483" lon="-3.22454">
        <ele>27</ele>
        <time>2015-01-18T09:32:54Z</time>
      </trkpt>
      <trkpt lat="48.77489" lon="-3.22453">
        <ele>27</ele>
        <time>2015-01-18T09:32:55Z</time>
      </trkpt>
      <trkpt lat="48.77496" lon="-3.22452">
        <ele>26</ele>
        <time>2015-01-18T09:32:56Z</time>
      </trkpt>
      <trkpt lat="48.77503" lon="-3.22451">
        <ele>26</ele>
        <time>2015-01-18T09:32:57Z</time>
      </trkpt>
      <trkpt lat="48.7751" lon="-3.22451">
        <ele>26</ele>
        <time>2015-01-18T09:32:58Z</time>
      </trkpt>
      <trkpt lat="48.77517" lon="-3.22451">
        <ele>26</ele>
        <time>2015-01-18T09:32:59Z</time>
      </trkpt>
      <trkpt lat="48.77524" lon="-3.22452">
        <ele>25</ele>
        <time>2015-01-18T09:33:00Z</time>
      </trkpt>
      <trkpt lat="48.77531" lon="-3.22453">
        <ele>25</ele>
        <time>2015-01-18T09:33:01Z</time>
      </trkpt>
      <trkpt lat="48.77538" lon="-3.22456">
        <ele>25</ele>
        <time>2015-01-18T09:33:02Z</time>
      </trkpt>
      <trkpt lat="48.77545" lon="-3.22459">
        <ele>25</ele>
        <time>2015-01-18T09:33:03Z</time>
      </trkpt>
      <trkpt lat="48.77552" lon="-3.22463">
        <ele>25</ele>
        <time>2015-01-18T09:33:04Z</time>
      </trkpt>
      <trkpt lat="48.77559" lon="-3.22467">
        <ele>25</ele>
        <time>2015-01-18T09:33:05Z</time>
      </trkpt>
      <trkpt lat="48.77566" lon="-3.22472">
        <ele>25</ele>
        <time>2015-01-18T09:33:06Z</time>
      </trkpt>
      <trkpt lat="48.77573" lon="-3.22476">
        <ele>25</ele>
        <time>2015-01-18T09:33:07Z</time>
      </trkpt>
      <trkpt lat="48.7758" lon="-3.22479">
        <ele>25</ele>
        <time>2015-01-18T09:33:08Z</time>
      </trkpt>
      <trkpt lat="48.77588" lon="-3.22481">
        <ele>25</ele>
        <time>2015-01-18T09:33:09Z</time>
      </trkpt>
      <trkpt lat="48.77595" lon="-3.22483">
        <ele>25</ele>
        <time>2015-01-18T09:33:10Z</time>
      </trkpt>
      <trkpt lat="48.77602" lon="-3.22485">
        <ele>25</ele>
        <time>2015-01-18T09:33:11Z</time>
      </trkpt>
      <trkpt lat="48.7761" lon="-3.22486">
        <ele>25</ele>
        <time>2015-01-18T09:33:12Z</time>
      </trkpt>
      <trkpt lat="48.77617" lon="-3.22487">
        <ele>25</ele>
        <time>2015-01-18T09:33:13Z</time>
      </trkpt>
      <trkpt lat="48.77624" lon="-3.22488">
        <ele>25</ele>
        <time>2015-01-18T09:33:14Z</time>
      </trkpt>
      <trkpt lat="48.77631" lon="-3.22489">
        <ele>25</ele>
        <time>2015-01-18T09:33:15Z</time>
      </trkpt>
      <trkpt lat="48.77638" lon="-3.2249">
        <ele>25</ele>
        <time>2015-01-18T09:33:16Z</time>
      </trkpt>
      <trkpt lat="48.77645" lon="-3.2249">
        <ele>25</ele>
        <time>2015-01-18T09:33:17Z</time>
      </trkpt>
      <trkpt lat="48.77653" lon="-3.2249">
        <ele>25</ele>
        <time>2015-01-18T09:33:18Z</time>
      </trkpt>
      <trkpt lat="48.77669" lon="-3.2249">
        <ele>25</ele>
        <time>2015-01-18T09:33:20Z</time>
      </trkpt>
      <trkpt lat="48.77677" lon="-3.22488">
        <ele>25</ele>
        <time>2015-01-18T09:33:21Z</time>
      </trkpt>
      <trkpt lat="48.77685" lon="-3.22486">
        <ele>25</ele>
        <time>2015-01-18T09:33:22Z</time>
      </trkpt>
      <trkpt lat="48.77693" lon="-3.22484">
        <ele>25</ele>
        <time>2015-01-18T09:33:23Z</time>
      </trkpt>
      <trkpt lat="48.77701" lon="-3.22481">
        <ele>24</ele>
        <time>2015-01-18T09:33:24Z</time>
      </trkpt>
      <trkpt lat="48.7771" lon="-3.22477">
        <ele>24</ele>
        <time>2015-01-18T09:33:25Z</time>
      </trkpt>
      <trkpt lat="48.77718" lon="-3.22472">
        <ele>23</ele>
        <time>2015-01-18T09:33:26Z</time>
      </trkpt>
      <trkpt lat="48.77726" lon="-3.22467">
        <ele>23</ele>
        <time>2015-01-18T09:33:27Z</time>
      </trkpt>
      <trkpt lat="48.77734" lon="-3.22461">
        <ele>23</ele>
        <time>2015-01-18T09:33:28Z</time>
      </trkpt>
      <trkpt lat="48.77743" lon="-3.22455">
        <ele>22</ele>
        <time>2015-01-18T09:33:29Z</time>
      </trkpt>
      <trkpt lat="48.7775" lon="-3.22448">
        <ele>22</ele>
        <time>2015-01-18T09:33:30Z</time>
      </trkpt>
      <trkpt lat="48.77758" lon="-3.22441">
        <ele>22</ele>
        <time>2015-01-18T09:33:31Z</time>
      </trkpt>
      <trkpt lat="48.77766" lon="-3.22434">
        <ele>21</ele>
        <time>2015-01-18T09:33:32Z</time>
      </trkpt>
      <trkpt lat="48.77773" lon="-3.22427">
        <ele>21</ele>
        <time>2015-01-18T09:33:33Z</time>
      </trkpt>
      <trkpt lat="48.77781" lon="-3.22419">
        <ele>21</ele>
        <time>2015-01-18T09:33:34Z</time>
      </trkpt>
      <trkpt lat="48.77788" lon="-3.22412">
        <ele>21</ele>
        <time>2015-01-18T09:33:35Z</time>
      </trkpt>
      <trkpt lat="48.77795" lon="-3.22405">
        <ele>20</ele>
        <time>2015-01-18T09:33:36Z</time>
      </trkpt>
      <trkpt lat="48.77802" lon="-3.22398">
        <ele>20</ele>
        <time>2015-01-18T09:33:37Z</time>
      </trkpt>
      <trkpt lat="48.7781" lon="-3.22391">
        <ele>20</ele>
        <time>2015-01-18T09:33:38Z</time>
      </trkpt>
      <trkpt lat="48.77817" lon="-3.22384">
        <ele>20</ele>
        <time>2015-01-18T09:33:39Z</time>
      </trkpt>
      <trkpt lat="48.77825" lon="-3.22377">
        <ele>19</ele>
        <time>2015-01-18T09:33:40Z</time>
      </trkpt>
      <trkpt lat="48.77832" lon="-3.2237">
        <ele>19</ele>
        <time>2015-01-18T09:33:41Z</time>
      </trkpt>
      <trkpt lat="48.7784" lon="-3.22362">
        <ele>19</ele>
        <time>2015-01-18T09:33:42Z</time>
      </trkpt>
      <trkpt lat="48.77847" lon="-3.22355">
        <ele>19</ele>
        <time>2015-01-18T09:33:43Z</time>
      </trkpt>
      <trkpt lat="48.77855" lon="-3.22348">
        <ele>19</ele>
        <time>2015-01-18T09:33:44Z</time>
      </trkpt>
      <trkpt lat="48.77863" lon="-3.2234">
        <ele>18</ele>
        <time>2015-01-18T09:33:45Z</time>
      </trkpt>
      <trkpt lat="48.7787" lon="-3.22333">
        <ele>18</ele>
        <time>2015-01-18T09:33:46Z</time>
      </trkpt>
      <trkpt lat="48.77878" lon="-3.22326">
        <ele>18</ele>
        <time>2015-01-18T09:33:47Z</time>
      </trkpt>
      <trkpt lat="48.77885" lon="-3.22319">
        <ele>18</ele>
        <time>2015-01-18T09:33:48Z</time>
      </trkpt>
      <trkpt lat="48.77893" lon="-3.22313">
        <ele>18</ele>
        <time>2015-01-18T09:33:49Z</time>
      </trkpt>
      <trkpt lat="48.77901" lon="-3.22307">
        <ele>18</ele>
        <time>2015-01-18T09:33:50Z</time>
      </trkpt>
      <trkpt lat="48.77909" lon="-3.22302">
        <ele>18</ele>
        <time>2015-01-18T09:33:51Z</time>
      </trkpt>
      <trkpt lat="48.77918" lon="-3.22299">
        <ele>17</ele>
        <time>2015-01-18T09:33:52Z</time>
      </trkpt>
      <trkpt lat="48.77927" lon="-3.22296">
        <ele>17</ele>
        <time>2015-01-18T09:33:53Z</time>
      </trkpt>
      <trkpt lat="48.77937" lon="-3.22294">
        <ele>17</ele>
        <time>2015-01-18T09:33:54Z</time>
      </trkpt>
      <trkpt lat="48.77946" lon="-3.22293">
        <ele>16</ele>
        <time>2015-01-18T09:33:55Z</time>
      </trkpt>
      <trkpt lat="48.77956" lon="-3.22294">
        <ele>16</ele>
        <time>2015-01-18T09:33:56Z</time>
      </trkpt>
      <trkpt lat="48.77966" lon="-3.22295">
        <ele>16</ele>
        <time>2015-01-18T09:33:57Z</time>
      </trkpt>
      <trkpt lat="48.77975" lon="-3.22297">
        <ele>15</ele>
        <time>2015-01-18T09:33:58Z</time>
      </trkpt>
      <trkpt lat="48.77985" lon="-3.22299">
        <ele>15</ele>
        <time>2015-01-18T09:33:59Z</time>
      </trkpt>
      <trkpt lat="48.77995" lon="-3.22302">
        <ele>15</ele>
        <time>2015-01-18T09:34:00Z</time>
      </trkpt>
      <trkpt lat="48.78005" lon="-3.22305">
        <ele>15</ele>
        <time>2015-01-18T09:34:01Z</time>
      </trkpt>
      <trkpt lat="48.78014" lon="-3.22309">
        <ele>14</ele>
        <time>2015-01-18T09:34:02Z</time>
      </trkpt>
      <trkpt lat="48.78024" lon="-3.22312">
        <ele>14</ele>
        <time>2015-01-18T09:34:03Z</time>
      </trkpt>
      <trkpt lat="48.78033" lon="-3.22316">
        <ele>14</ele>
        <time>2015-01-18T09:34:04Z</time>
      </trkpt>
      <trkpt lat="48.78043" lon="-3.22319">
        <ele>13</ele>
        <time>2015-01-18T09:34:05Z</time>
      </trkpt>
      <trkpt lat="48.78052" lon="-3.22323">
        <ele>13</ele>
        <time>2015-01-18T09:34:06Z</time>
      </trkpt>
      <trkpt lat="48.78062" lon="-3.22326">
        <ele>13</ele>
        <time>2015-01-18T09:34:07Z</time>
      </trkpt>
      <trkpt lat="48.7807" lon="-3.22329">
        <ele>13</ele>
        <time>2015-01-18T09:34:08Z</time>
      </trkpt>
      <trkpt lat="48.78079" lon="-3.22332">
        <ele>13</ele>
        <time>2015-01-18T09:34:09Z</time>
      </trkpt>
      <trkpt lat="48.78088" lon="-3.22336">
        <ele>13</ele>
        <time>2015-01-18T09:34:10Z</time>
      </trkpt>
      <trkpt lat="48.78096" lon="-3.22339">
        <ele>13</ele>
        <time>2015-01-18T09:34:11Z</time>
      </trkpt>
      <trkpt lat="48.78104" lon="-3.22341">
        <ele>13</ele>
        <time>2015-01-18T09:34:12Z</time>
      </trkpt>
      <trkpt lat="48.78112" lon="-3.22343">
        <ele>13</ele>
        <time>2015-01-18T09:34:13Z</time>
      </trkpt>
      <trkpt lat="48.7812" lon="-3.22345">
        <ele>13</ele>
        <time>2015-01-18T09:34:14Z</time>
      </trkpt>
      <trkpt lat="48.78128" lon="-3.22346">
        <ele>13</ele>
        <time>2015-01-18T09:34:15Z</time>
      </trkpt>
      <trkpt lat="48.78136" lon="-3.22346">
        <ele>13</ele>
        <time>2015-01-18T09:34:16Z</time>
      </trkpt>
      <trkpt lat="48.78151" lon="-3.22346">
        <ele>13</ele>
        <time>2015-01-18T09:34:18Z</time>
      </trkpt>
      <trkpt lat="48.78159" lon="-3.22344">
        <ele>13</ele>
        <time>2015-01-18T09:34:19Z</time>
      </trkpt>
      <trkpt lat="48.78168" lon="-3.22341">
        <ele>13</ele>
        <time>2015-01-18T09:34:20Z</time>
      </trkpt>
      <trkpt lat="48.78176" lon="-3.22338">
        <ele>13</ele>
        <time>2015-01-18T09:34:21Z</time>
      </trkpt>
      <trkpt lat="48.78184" lon="-3.22335">
        <ele>13</ele>
        <time>2015-01-18T09:34:22Z</time>
      </trkpt>
      <trkpt lat="48.78192" lon="-3.22331">
        <ele>13</ele>
        <time>2015-01-18T09:34:23Z</time>
      </trkpt>
      <trkpt lat="48.782" lon="-3.22328">
        <ele>13</ele>
        <time>2015-01-18T09:34:24Z</time>
      </trkpt>
      <trkpt lat="48.78207" lon="-3.22325">
        <ele>13</ele>
        <time>2015-01-18T09:34:25Z</time>
      </trkpt>
      <trkpt lat="48.78215" lon="-3.22322">
        <ele>13</ele>
        <time>2015-01-18T09:34:26Z</time>
      </trkpt>
      <trkpt lat="48.78223" lon="-3.22319">
        <ele>13</ele>
        <time>2015-01-18T09:34:26Z</time>
      </trkpt>
      <trkpt lat="48.78231" lon="-3.22317">
        <ele>13</ele>
        <time>2015-01-18T09:34:27Z</time>
      </trkpt>
      <trkpt lat="48.78239" lon="-3.22314">
        <ele>13</ele>
        <time>2015-01-18T09:34:28Z</time>
      </trkpt>
      <trkpt lat="48.78246" lon="-3.22311">
        <ele>13</ele>
        <time>2015-01-18T09:34:30Z</time>
      </trkpt>
      <trkpt lat="48.78254" lon="-3.22308">
        <ele>13</ele>
        <time>2015-01-18T09:34:31Z</time>
      </trkpt>
      <trkpt lat="48.78262" lon="-3.22306">
        <ele>13</ele>
        <time>2015-01-18T09:34:32Z</time>
      </trkpt>
      <trkpt lat="48.78269" lon="-3.22303">
        <ele>13</ele>
        <time>2015-01-18T09:34:33Z</time>
      </trkpt>
      <trkpt lat="48.78277" lon="-3.22301">
        <ele>13</ele>
        <time>2015-01-18T09:34:34Z</time>
      </trkpt>
      <trkpt lat="48.78284" lon="-3.22298">
        <ele>13</ele>
        <time>2015-01-18T09:34:35Z</time>
      </trkpt>
      <trkpt lat="48.78291" lon="-3.22296">
        <ele>13</ele>
        <time>2015-01-18T09:34:36Z</time>
      </trkpt>
      <trkpt lat="48.78299" lon="-3.22293">
        <ele>13</ele>
        <time>2015-01-18T09:34:37Z</time>
      </trkpt>
      <trkpt lat="48.78306" lon="-3.22291">
        <ele>13</ele>
        <time>2015-01-18T09:34:38Z</time>
      </trkpt>
      <trkpt lat="48.78313" lon="-3.22288">
        <ele>13</ele>
        <time>2015-01-18T09:34:39Z</time>
      </trkpt>
      <trkpt lat="48.7832" lon="-3.22286">
        <ele>13</ele>
        <time>2015-01-18T09:34:40Z</time>
      </trkpt>
      <trkpt lat="48.78327" lon="-3.22284">
        <ele>13</ele>
        <time>2015-01-18T09:34:41Z</time>
      </trkpt>
      <trkpt lat="48.78334" lon="-3.22281">
        <ele>13</ele>
        <time>2015-01-18T09:34:42Z</time>
      </trkpt>
      <trkpt lat="48.7834" lon="-3.22278">
        <ele>13</ele>
        <time>2015-01-18T09:34:43Z</time>
      </trkpt>
      <trkpt lat="48.78346" lon="-3.22276">
        <ele>13</ele>
        <time>2015-01-18T09:34:44Z</time>
      </trkpt>
      <trkpt lat="48.78352" lon="-3.22273">
        <ele>13</ele>
        <time>2015-01-18T09:34:45Z</time>
      </trkpt>
      <trkpt lat="48.78359" lon="-3.2227">
        <ele>12</ele>
        <time>2015-01-18T09:34:46Z</time>
      </trkpt>
      <trkpt lat="48.78366" lon="-3.22268">
        <ele>12</ele>
        <time>2015-01-18T09:34:47Z</time>
      </trkpt>
      <trkpt lat="48.78373" lon="-3.22265">
        <ele>12</ele>
        <time>2015-01-18T09:34:48Z</time>
      </trkpt>
      <trkpt lat="48.7838" lon="-3.22262">
        <ele>12</ele>
        <time>2015-01-18T09:34:49Z</time>
      </trkpt>
      <trkpt lat="48.78387" lon="-3.22259">
        <ele>12</ele>
        <time>2015-01-18T09:34:50Z</time>
      </trkpt>
      <trkpt lat="48.78395" lon="-3.22257">
        <ele>12</ele>
        <time>2015-01-18T09:34:51Z</time>
      </trkpt>
      <trkpt lat="48.78402" lon="-3.22255">
        <ele>12</ele>
        <time>2015-01-18T09:34:52Z</time>
      </trkpt>
      <trkpt lat="48.78408" lon="-3.22254">
        <ele>12</ele>
        <time>2015-01-18T09:34:52Z</time>
      </trkpt>
      <trkpt lat="48.78414" lon="-3.22255">
        <ele>12</ele>
        <time>2015-01-18T09:34:53Z</time>
      </trkpt>
      <trkpt lat="48.78418" lon="-3.22257">
        <ele>12</ele>
        <time>2015-01-18T09:34:55Z</time>
      </trkpt>
      <trkpt lat="48.78421" lon="-3.22259">
        <ele>12</ele>
        <time>2015-01-18T09:34:56Z</time>
      </trkpt>
      <trkpt lat="48.78424" lon="-3.2226">
        <ele>12</ele>
        <time>2015-01-18T09:34:57Z</time>
      </trkpt>
      <trkpt lat="48.78426" lon="-3.22261">
        <ele>12</ele>
        <time>2015-01-18T09:34:58Z</time>
      </trkpt>
      <trkpt lat="48.78428" lon="-3.22261">
        <ele>12</ele>
        <time>2015-01-18T09:34:59Z</time>
      </trkpt>
      <trkpt lat="48.78431" lon="-3.22262">
        <ele>12</ele>
        <time>2015-01-18T09:35:00Z</time>
      </trkpt>
      <trkpt lat="48.78434" lon="-3.22261">
        <ele>12</ele>
        <time>2015-01-18T09:35:01Z</time>
      </trkpt>
      <trkpt lat="48.78437" lon="-3.22259">
        <ele>12</ele>
        <time>2015-01-18T09:35:02Z</time>
      </trkpt>
      <trkpt lat="48.78441" lon="-3.22256">
        <ele>12</ele>
        <time>2015-01-18T09:35:03Z</time>
      </trkpt>
      <trkpt lat="48.78445" lon="-3.22253">
        <ele>12</ele>
        <time>2015-01-18T09:35:04Z</time>
      </trkpt>
      <trkpt lat="48.78449" lon="-3.22249">
        <ele>12</ele>
        <time>2015-01-18T09:35:05Z</time>
      </trkpt>
      <trkpt lat="48.78453" lon="-3.22244">
        <ele>12</ele>
        <time>2015-01-18T09:35:06Z</time>
      </trkpt>
      <trkpt lat="48.78457" lon="-3.22239">
        <ele>12</ele>
        <time>2015-01-18T09:35:07Z</time>
      </trkpt>
      <trkpt lat="48.7846" lon="-3.22232">
        <ele>12</ele>
        <time>2015-01-18T09:35:07Z</time>
      </trkpt>
      <trkpt lat="48.78463" lon="-3.22224">
        <ele>11</ele>
        <time>2015-01-18T09:35:09Z</time>
      </trkpt>
      <trkpt lat="48.78466" lon="-3.22217">
        <ele>11</ele>
        <time>2015-01-18T09:35:09Z</time>
      </trkpt>
      <trkpt lat="48.78471" lon="-3.22213">
        <ele>11</ele>
        <time>2015-01-18T09:35:11Z</time>
      </trkpt>
      <trkpt lat="48.78476" lon="-3.22211">
        <ele>10</ele>
        <time>2015-01-18T09:35:12Z</time>
      </trkpt>
      <trkpt lat="48.78482" lon="-3.22213">
        <ele>10</ele>
        <time>2015-01-18T09:35:12Z</time>
      </trkpt>
      <trkpt lat="48.78487" lon="-3.22218">
        <ele>10</ele>
        <time>2015-01-18T09:35:14Z</time>
      </trkpt>
      <trkpt lat="48.78492" lon="-3.22224">
        <ele>10</ele>
        <time>2015-01-18T09:35:15Z</time>
      </trkpt>
      <trkpt lat="48.78498" lon="-3.22229">
        <ele>10</ele>
        <time>2015-01-18T09:35:16Z</time>
      </trkpt>
      <trkpt lat="48.78504" lon="-3.22233">
        <ele>10</ele>
        <time>2015-01-18T09:35:17Z</time>
      </trkpt>
      <trkpt lat="48.7851" lon="-3.22238">
        <ele>10</ele>
        <time>2015-01-18T09:35:18Z</time>
      </trkpt>
      <trkpt lat="48.78516" lon="-3.22243">
        <ele>10</ele>
        <time>2015-01-18T09:35:19Z</time>
      </trkpt>
      <trkpt lat="48.78523" lon="-3.22249">
        <ele>10</ele>
        <time>2015-01-18T09:35:20Z</time>
      </trkpt>
      <trkpt lat="48.78529" lon="-3.22254">
        <ele>10</ele>
        <time>2015-01-18T09:35:21Z</time>
      </trkpt>
      <trkpt lat="48.78536" lon="-3.2226">
        <ele>10</ele>
        <time>2015-01-18T09:35:22Z</time>
      </trkpt>
      <trkpt lat="48.78543" lon="-3.22266">
        <ele>10</ele>
        <time>2015-01-18T09:35:23Z</time>
      </trkpt>
      <trkpt lat="48.7855" lon="-3.22271">
        <ele>10</ele>
        <time>2015-01-18T09:35:24Z</time>
      </trkpt>
      <trkpt lat="48.78558" lon="-3.22278">
        <ele>10</ele>
        <time>2015-01-18T09:35:25Z</time>
      </trkpt>
      <trkpt lat="48.78566" lon="-3.22284">
        <ele>10</ele>
        <time>2015-01-18T09:35:26Z</time>
      </trkpt>
      <trkpt lat="48.78573" lon="-3.2229">
        <ele>9</ele>
        <time>2015-01-18T09:35:27Z</time>
      </trkpt>
      <trkpt lat="48.78581" lon="-3.22296">
        <ele>9</ele>
        <time>2015-01-18T09:35:28Z</time>
      </trkpt>
      <trkpt lat="48.78589" lon="-3.22303">
        <ele>9</ele>
        <time>2015-01-18T09:35:29Z</time>
      </trkpt>
      <trkpt lat="48.78597" lon="-3.22309">
        <ele>9</ele>
        <time>2015-01-18T09:35:30Z</time>
      </trkpt>
      <trkpt lat="48.78604" lon="-3.22315">
        <ele>9</ele>
        <time>2015-01-18T09:35:31Z</time>
      </trkpt>
      <trkpt lat="48.78611" lon="-3.22321">
        <ele>9</ele>
        <time>2015-01-18T09:35:32Z</time>
      </trkpt>
      <trkpt lat="48.78619" lon="-3.22327">
        <ele>9</ele>
        <time>2015-01-18T09:35:33Z</time>
      </trkpt>
      <trkpt lat="48.78626" lon="-3.22333">
        <ele>9</ele>
        <time>2015-01-18T09:35:34Z</time>
      </trkpt>
      <trkpt lat="48.78633" lon="-3.22338">
        <ele>9</ele>
        <time>2015-01-18T09:35:35Z</time>
      </trkpt>
      <trkpt lat="48.7864" lon="-3.22344">
        <ele>9</ele>
        <time>2015-01-18T09:35:36Z</time>
      </trkpt>
      <trkpt lat="48.78647" lon="-3.22349">
        <ele>9</ele>
        <time>2015-01-18T09:35:37Z</time>
      </trkpt>
      <trkpt lat="48.78653" lon="-3.22355">
        <ele>9</ele>
        <time>2015-01-18T09:35:38Z</time>
      </trkpt>
      <trkpt lat="48.7866" lon="-3.2236">
        <ele>9</ele>
        <time>2015-01-18T09:35:39Z</time>
      </trkpt>
      <trkpt lat="48.78667" lon="-3.22366">
        <ele>9</ele>
        <time>2015-01-18T09:35:40Z</time>
      </trkpt>
      <trkpt lat="48.78673" lon="-3.22371">
        <ele>9</ele>
        <time>2015-01-18T09:35:41Z</time>
      </trkpt>
      <trkpt lat="48.7868" lon="-3.22376">
        <ele>9</ele>
        <time>2015-01-18T09:35:42Z</time>
      </trkpt>
      <trkpt lat="48.78686" lon="-3.22382">
        <ele>9</ele>
        <time>2015-01-18T09:35:43Z</time>
      </trkpt>
      <trkpt lat="48.78693" lon="-3.22387">
        <ele>9</ele>
        <time>2015-01-18T09:35:44Z</time>
      </trkpt>
      <trkpt lat="48.78699" lon="-3.22392">
        <ele>9</ele>
        <time>2015-01-18T09:35:45Z</time>
      </trkpt>
      <trkpt lat="48.78706" lon="-3.22397">
        <ele>9</ele>
        <time>2015-01-18T09:35:46Z</time>
      </trkpt>
      <trkpt lat="48.78712" lon="-3.22403">
        <ele>9</ele>
        <time>2015-01-18T09:35:47Z</time>
      </trkpt>
      <trkpt lat="48.78719" lon="-3.22409">
        <ele>9</ele>
        <time>2015-01-18T09:35:48Z</time>
      </trkpt>
      <trkpt lat="48.78726" lon="-3.22414">
        <ele>9</ele>
        <time>2015-01-18T09:35:49Z</time>
      </trkpt>
      <trkpt lat="48.78733" lon="-3.2242">
        <ele>9</ele>
        <time>2015-01-18T09:35:50Z</time>
      </trkpt>
      <trkpt lat="48.78739" lon="-3.22425">
        <ele>9</ele>
        <time>2015-01-18T09:35:51Z</time>
      </trkpt>
      <trkpt lat="48.78746" lon="-3.22431">
        <ele>9</ele>
        <time>2015-01-18T09:35:52Z</time>
      </trkpt>
      <trkpt lat="48.78753" lon="-3.22436">
        <ele>9</ele>
        <time>2015-01-18T09:35:53Z</time>
      </trkpt>
      <trkpt lat="48.7876" lon="-3.22442">
        <ele>9</ele>
        <time>2015-01-18T09:35:54Z</time>
      </trkpt>
      <trkpt lat="48.78766" lon="-3.22448">
        <ele>9</ele>
        <time>2015-01-18T09:35:55Z</time>
      </trkpt>
      <trkpt lat="48.78773" lon="-3.22454">
        <ele>9</ele>
        <time>2015-01-18T09:35:56Z</time>
      </trkpt>
      <trkpt lat="48.7878" lon="-3.22459">
        <ele>9</ele>
        <time>2015-01-18T09:35:57Z</time>
      </trkpt>
      <trkpt lat="48.78786" lon="-3.22465">
        <ele>9</ele>
        <time>2015-01-18T09:35:58Z</time>
      </trkpt>
      <trkpt lat="48.78793" lon="-3.22471">
        <ele>9</ele>
        <time>2015-01-18T09:35:59Z</time>
      </trkpt>
      <trkpt lat="48.78799" lon="-3.22477">
        <ele>9</ele>
        <time>2015-01-18T09:36:00Z</time>
      </trkpt>
      <trkpt lat="48.78805" lon="-3.22483">
        <ele>9</ele>
        <time>2015-01-18T09:36:00Z</time>
      </trkpt>
      <trkpt lat="48.78812" lon="-3.22489">
        <ele>9</ele>
        <time>2015-01-18T09:36:02Z</time>
      </trkpt>
      <trkpt lat="48.78818" lon="-3.22496">
        <ele>9</ele>
        <time>2015-01-18T09:36:03Z</time>
      </trkpt>
      <trkpt lat="48.78824" lon="-3.22502">
        <ele>9</ele>
        <time>2015-01-18T09:36:03Z</time>
      </trkpt>
      <trkpt lat="48.7883" lon="-3.22509">
        <ele>9</ele>
        <time>2015-01-18T09:36:04Z</time>
      </trkpt>
      <trkpt lat="48.78836" lon="-3.22515">
        <ele>9</ele>
        <time>2015-01-18T09:36:05Z</time>
      </trkpt>
      <trkpt lat="48.78842" lon="-3.22522">
        <ele>9</ele>
        <time>2015-01-18T09:36:07Z</time>
      </trkpt>
      <trkpt lat="48.78848" lon="-3.22528">
        <ele>9</ele>
        <time>2015-01-18T09:36:08Z</time>
      </trkpt>
      <trkpt lat="48.78853" lon="-3.22534">
        <ele>9</ele>
        <time>2015-01-18T09:36:09Z</time>
      </trkpt>
      <trkpt lat="48.78859" lon="-3.22541">
        <ele>9</ele>
        <time>2015-01-18T09:36:10Z</time>
      </trkpt>
      <trkpt lat="48.78864" lon="-3.22548">
        <ele>9</ele>
        <time>2015-01-18T09:36:11Z</time>
      </trkpt>
      <trkpt lat="48.78869" lon="-3.22555">
        <ele>9</ele>
        <time>2015-01-18T09:36:12Z</time>
      </trkpt>
      <trkpt lat="48.78875" lon="-3.22563">
        <ele>9</ele>
        <time>2015-01-18T09:36:13Z</time>
      </trkpt>
      <trkpt lat="48.7888" lon="-3.2257">
        <ele>9</ele>
        <time>2015-01-18T09:36:13Z</time>
      </trkpt>
      <trkpt lat="48.78885" lon="-3.22577">
        <ele>9</ele>
        <time>2015-01-18T09:36:15Z</time>
      </trkpt>
      <trkpt lat="48.78891" lon="-3.22585">
        <ele>9</ele>
        <time>2015-01-18T09:36:15Z</time>
      </trkpt>
      <trkpt lat="48.78896" lon="-3.22592">
        <ele>9</ele>
        <time>2015-01-18T09:36:16Z</time>
      </trkpt>
      <trkpt lat="48.78902" lon="-3.226">
        <ele>9</ele>
        <time>2015-01-18T09:36:18Z</time>
      </trkpt>
      <trkpt lat="48.78907" lon="-3.22607">
        <ele>9</ele>
        <time>2015-01-18T09:36:18Z</time>
      </trkpt>
      <trkpt lat="48.78912" lon="-3.22615">
        <ele>9</ele>
        <time>2015-01-18T09:36:19Z</time>
      </trkpt>
      <trkpt lat="48.78918" lon="-3.22623">
        <ele>9</ele>
        <time>2015-01-18T09:36:20Z</time>
      </trkpt>
      <trkpt lat="48.78924" lon="-3.2263">
        <ele>9</ele>
        <time>2015-01-18T09:36:21Z</time>
      </trkpt>
      <trkpt lat="48.78929" lon="-3.22638">
        <ele>9</ele>
        <time>2015-01-18T09:36:23Z</time>
      </trkpt>
      <trkpt lat="48.78935" lon="-3.22645">
        <ele>9</ele>
        <time>2015-01-18T09:36:23Z</time>
      </trkpt>
      <trkpt lat="48.7894" lon="-3.22653">
        <ele>9</ele>
        <time>2015-01-18T09:36:24Z</time>
      </trkpt>
      <trkpt lat="48.78946" lon="-3.2266">
        <ele>9</ele>
        <time>2015-01-18T09:36:25Z</time>
      </trkpt>
      <trkpt lat="48.78951" lon="-3.22668">
        <ele>9</ele>
        <time>2015-01-18T09:36:27Z</time>
      </trkpt>
      <trkpt lat="48.78957" lon="-3.22675">
        <ele>9</ele>
        <time>2015-01-18T09:36:28Z</time>
      </trkpt>
      <trkpt lat="48.78962" lon="-3.22682">
        <ele>9</ele>
        <time>2015-01-18T09:36:29Z</time>
      </trkpt>
      <trkpt lat="48.78968" lon="-3.22689">
        <ele>9</ele>
        <time>2015-01-18T09:36:29Z</time>
      </trkpt>
      <trkpt lat="48.78973" lon="-3.22696">
        <ele>9</ele>
        <time>2015-01-18T09:36:31Z</time>
      </trkpt>
      <trkpt lat="48.78978" lon="-3.22703">
        <ele>9</ele>
        <time>2015-01-18T09:36:31Z</time>
      </trkpt>
      <trkpt lat="48.78983" lon="-3.22709">
        <ele>9</ele>
        <time>2015-01-18T09:36:33Z</time>
      </trkpt>
      <trkpt lat="48.78988" lon="-3.22716">
        <ele>9</ele>
        <time>2015-01-18T09:36:34Z</time>
      </trkpt>
      <trkpt lat="48.78993" lon="-3.22722">
        <ele>9</ele>
        <time>2015-01-18T09:36:34Z</time>
      </trkpt>
      <trkpt lat="48.78998" lon="-3.22729">
        <ele>9</ele>
        <time>2015-01-18T09:36:35Z</time>
      </trkpt>
      <trkpt lat="48.79002" lon="-3.22735">
        <ele>9</ele>
        <time>2015-01-18T09:36:36Z</time>
      </trkpt>
      <trkpt lat="48.79007" lon="-3.22741">
        <ele>9</ele>
        <time>2015-01-18T09:36:37Z</time>
      </trkpt>
      <trkpt lat="48.79011" lon="-3.22745">
        <ele>9</ele>
        <time>2015-01-18T09:36:39Z</time>
      </trkpt>
      <trkpt lat="48.79015" lon="-3.22749">
        <ele>9</ele>
        <time>2015-01-18T09:36:39Z</time>
      </trkpt>
      <trkpt lat="48.7902" lon="-3.2275">
        <ele>9</ele>
        <time>2015-01-18T09:36:40Z</time>
      </trkpt>
      <trkpt lat="48.79025" lon="-3.22749">
        <ele>9</ele>
        <time>2015-01-18T09:36:41Z</time>
      </trkpt>
      <trkpt lat="48.7903" lon="-3.2275">
        <ele>9</ele>
        <time>2015-01-18T09:36:42Z</time>
      </trkpt>
      <trkpt lat="48.79035" lon="-3.22753">
        <ele>9</ele>
        <time>2015-01-18T09:36:44Z</time>
      </trkpt>
      <trkpt lat="48.79039" lon="-3.22759">
        <ele>9</ele>
        <time>2015-01-18T09:36:45Z</time>
      </trkpt>
      <trkpt lat="48.79042" lon="-3.22766">
        <ele>9</ele>
        <time>2015-01-18T09:36:45Z</time>
      </trkpt>
      <trkpt lat="48.79046" lon="-3.22775">
        <ele>9</ele>
        <time>2015-01-18T09:36:46Z</time>
      </trkpt>
      <trkpt lat="48.7905" lon="-3.22783">
        <ele>9</ele>
        <time>2015-01-18T09:36:47Z</time>
      </trkpt>
      <trkpt lat="48.79055" lon="-3.22791">
        <ele>9</ele>
        <time>2015-01-18T09:36:48Z</time>
      </trkpt>
      <trkpt lat="48.79059" lon="-3.22799">
        <ele>9</ele>
        <time>2015-01-18T09:36:50Z</time>
      </trkpt>
      <trkpt lat="48.79063" lon="-3.22808">
        <ele>9</ele>
        <time>2015-01-18T09:36:50Z</time>
      </trkpt>
      <trkpt lat="48.79067" lon="-3.22816">
        <ele>9</ele>
        <time>2015-01-18T09:36:51Z</time>
      </trkpt>
      <trkpt lat="48.79071" lon="-3.22825">
        <ele>9</ele>
        <time>2015-01-18T09:36:52Z</time>
      </trkpt>
      <trkpt lat="48.79075" lon="-3.22833">
        <ele>9</ele>
        <time>2015-01-18T09:36:53Z</time>
      </trkpt>
      <trkpt lat="48.7908" lon="-3.2284">
        <ele>9</ele>
        <time>2015-01-18T09:36:55Z</time>
      </trkpt>
      <trkpt lat="48.79084" lon="-3.22847">
        <ele>9</ele>
        <time>2015-01-18T09:36:55Z</time>
      </trkpt>
      <trkpt lat="48.79089" lon="-3.22854">
        <ele>9</ele>
        <time>2015-01-18T09:36:56Z</time>
      </trkpt>
      <trkpt lat="48.79094" lon="-3.22861">
        <ele>9</ele>
        <time>2015-01-18T09:36:57Z</time>
      </trkpt>
      <trkpt lat="48.791" lon="-3.22868">
        <ele>9</ele>
        <time>2015-01-18T09:36:59Z</time>
      </trkpt>
      <trkpt lat="48.79105" lon="-3.22875">
        <ele>9</ele>
        <time>2015-01-18T09:37:00Z</time>
      </trkpt>
      <trkpt lat="48.79109" lon="-3.22883">
        <ele>9</ele>
        <time>2015-01-18T09:37:00Z</time>
      </trkpt>
      <trkpt lat="48.79113" lon="-3.22892">
        <ele>9</ele>
        <time>2015-01-18T09:37:01Z</time>
      </trkpt>
      <trkpt lat="48.79116" lon="-3.22902">
        <ele>9</ele>
        <time>2015-01-18T09:37:02Z</time>
      </trkpt>
      <trkpt lat="48.79118" lon="-3.22912">
        <ele>9</ele>
        <time>2015-01-18T09:37:04Z</time>
      </trkpt>
      <trkpt lat="48.79119" lon="-3.22922">
        <ele>9</ele>
        <time>2015-01-18T09:37:05Z</time>
      </trkpt>
      <trkpt lat="48.79119" lon="-3.22933">
        <ele>9</ele>
        <time>2015-01-18T09:37:05Z</time>
      </trkpt>
      <trkpt lat="48.79119" lon="-3.22943">
        <ele>9</ele>
        <time>2015-01-18T09:37:07Z</time>
      </trkpt>
      <trkpt lat="48.79118" lon="-3.22953">
        <ele>9</ele>
        <time>2015-01-18T09:37:07Z</time>
      </trkpt>
      <trkpt lat="48.79115" lon="-3.22963">
        <ele>9</ele>
        <time>2015-01-18T09:37:08Z</time>
      </trkpt>
      <trkpt lat="48.79113" lon="-3.22972">
        <ele>9</ele>
        <time>2015-01-18T09:37:10Z</time>
      </trkpt>
      <trkpt lat="48.7911" lon="-3.2298">
        <ele>9</ele>
        <time>2015-01-18T09:37:11Z</time>
      </trkpt>
      <trkpt lat="48.79107" lon="-3.22988">
        <ele>9</ele>
        <time>2015-01-18T09:37:12Z</time>
      </trkpt>
      <trkpt lat="48.79104" lon="-3.22996">
        <ele>9</ele>
        <time>2015-01-18T09:37:12Z</time>
      </trkpt>
      <trkpt lat="48.79101" lon="-3.23005">
        <ele>9</ele>
        <time>2015-01-18T09:37:13Z</time>
      </trkpt>
      <trkpt lat="48.79099" lon="-3.23014">
        <ele>9</ele>
        <time>2015-01-18T09:37:15Z</time>
      </trkpt>
      <trkpt lat="48.79097" lon="-3.23023">
        <ele>9</ele>
        <time>2015-01-18T09:37:15Z</time>
      </trkpt>
      <trkpt lat="48.79095" lon="-3.23033">
        <ele>9</ele>
        <time>2015-01-18T09:37:17Z</time>
      </trkpt>
      <trkpt lat="48.79094" lon="-3.23042">
        <ele>9</ele>
        <time>2015-01-18T09:37:18Z</time>
      </trkpt>
      <trkpt lat="48.79094" lon="-3.23052">
        <ele>9</ele>
        <time>2015-01-18T09:37:19Z</time>
      </trkpt>
      <trkpt lat="48.79094" lon="-3.23072">
        <ele>9</ele>
        <time>2015-01-18T09:37:21Z</time>
      </trkpt>
      <trkpt lat="48.79095" lon="-3.23082">
        <ele>9</ele>
        <time>2015-01-18T09:37:22Z</time>
      </trkpt>
      <trkpt lat="48.79095" lon="-3.23091">
        <ele>9</ele>
        <time>2015-01-18T09:37:23Z</time>
      </trkpt>
      <trkpt lat="48.79095" lon="-3.23101">
        <ele>9</ele>
        <time>2015-01-18T09:37:24Z</time>
      </trkpt>
      <trkpt lat="48.79096" lon="-3.23111">
        <ele>9</ele>
        <time>2015-01-18T09:37:25Z</time>
      </trkpt>
      <trkpt lat="48.79097" lon="-3.23121">
        <ele>9</ele>
        <time>2015-01-18T09:37:26Z</time>
      </trkpt>
      <trkpt lat="48.79097" lon="-3.2313">
        <ele>9</ele>
        <time>2015-01-18T09:37:27Z</time>
      </trkpt>
      <trkpt lat="48.79097" lon="-3.2314">
        <ele>9</ele>
        <time>2015-01-18T09:37:28Z</time>
      </trkpt>
      <trkpt lat="48.79098" lon="-3.23149">
        <ele>9</ele>
        <time>2015-01-18T09:37:29Z</time>
      </trkpt>
      <trkpt lat="48.79099" lon="-3.23159">
        <ele>9</ele>
        <time>2015-01-18T09:37:30Z</time>
      </trkpt>
      <trkpt lat="48.79099" lon="-3.23168">
        <ele>9</ele>
        <time>2015-01-18T09:37:31Z</time>
      </trkpt>
      <trkpt lat="48.79099" lon="-3.23178">
        <ele>9</ele>
        <time>2015-01-18T09:37:32Z</time>
      </trkpt>
      <trkpt lat="48.79098" lon="-3.23207">
        <ele>9</ele>
        <time>2015-01-18T09:37:35Z</time>
      </trkpt>
      <trkpt lat="48.79096" lon="-3.23216">
        <ele>9</ele>
        <time>2015-01-18T09:37:36Z</time>
      </trkpt>
      <trkpt lat="48.79093" lon="-3.23224">
        <ele>9</ele>
        <time>2015-01-18T09:37:36Z</time>
      </trkpt>
      <trkpt lat="48.7909" lon="-3.23232">
        <ele>9</ele>
        <time>2015-01-18T09:37:37Z</time>
      </trkpt>
      <trkpt lat="48.79087" lon="-3.23239">
        <ele>9</ele>
        <time>2015-01-18T09:37:38Z</time>
      </trkpt>
      <trkpt lat="48.79083" lon="-3.23246">
        <ele>9</ele>
        <time>2015-01-18T09:37:39Z</time>
      </trkpt>
      <trkpt lat="48.79079" lon="-3.23253">
        <ele>9</ele>
        <time>2015-01-18T09:37:41Z</time>
      </trkpt>
      <trkpt lat="48.79076" lon="-3.23259">
        <ele>10</ele>
        <time>2015-01-18T09:37:41Z</time>
      </trkpt>
      <trkpt lat="48.79073" lon="-3.23266">
        <ele>10</ele>
        <time>2015-01-18T09:37:42Z</time>
      </trkpt>
      <trkpt lat="48.7907" lon="-3.23272">
        <ele>10</ele>
        <time>2015-01-18T09:37:43Z</time>
      </trkpt>
      <trkpt lat="48.79067" lon="-3.23278">
        <ele>10</ele>
        <time>2015-01-18T09:37:44Z</time>
      </trkpt>
      <trkpt lat="48.79065" lon="-3.23284">
        <ele>10</ele>
        <time>2015-01-18T09:37:46Z</time>
      </trkpt>
      <trkpt lat="48.79063" lon="-3.2329">
        <ele>10</ele>
        <time>2015-01-18T09:37:47Z</time>
      </trkpt>
      <trkpt lat="48.7906" lon="-3.23297">
        <ele>10</ele>
        <time>2015-01-18T09:37:48Z</time>
      </trkpt>
      <trkpt lat="48.79058" lon="-3.23303">
        <ele>11</ele>
        <time>2015-01-18T09:37:48Z</time>
      </trkpt>
      <trkpt lat="48.79057" lon="-3.2331">
        <ele>11</ele>
        <time>2015-01-18T09:37:49Z</time>
      </trkpt>
      <trkpt lat="48.79055" lon="-3.23317">
        <ele>11</ele>
        <time>2015-01-18T09:37:51Z</time>
      </trkpt>
      <trkpt lat="48.79054" lon="-3.23324">
        <ele>11</ele>
        <time>2015-01-18T09:37:51Z</time>
      </trkpt>
      <trkpt lat="48.79052" lon="-3.23331">
        <ele>11</ele>
        <time>2015-01-18T09:37:52Z</time>
      </trkpt>
      <trkpt lat="48.79051" lon="-3.23338">
        <ele>12</ele>
        <time>2015-01-18T09:37:53Z</time>
      </trkpt>
      <trkpt lat="48.7905" lon="-3.23344">
        <ele>12</ele>
        <time>2015-01-18T09:37:54Z</time>
      </trkpt>
      <trkpt lat="48.79049" lon="-3.23351">
        <ele>12</ele>
        <time>2015-01-18T09:37:56Z</time>
      </trkpt>
      <trkpt lat="48.79048" lon="-3.23358">
        <ele>12</ele>
        <time>2015-01-18T09:37:57Z</time>
      </trkpt>
      <trkpt lat="48.79047" lon="-3.23364">
        <ele>13</ele>
        <time>2015-01-18T09:37:58Z</time>
      </trkpt>
      <trkpt lat="48.79046" lon="-3.2337">
        <ele>13</ele>
        <time>2015-01-18T09:37:58Z</time>
      </trkpt>
      <trkpt lat="48.79045" lon="-3.23376">
        <ele>13</ele>
        <time>2015-01-18T09:38:00Z</time>
      </trkpt>
      <trkpt lat="48.79044" lon="-3.23382">
        <ele>13</ele>
        <time>2015-01-18T09:38:01Z</time>
      </trkpt>
      <trkpt lat="48.79043" lon="-3.23388">
        <ele>13</ele>
        <time>2015-01-18T09:38:02Z</time>
      </trkpt>
      <trkpt lat="48.79042" lon="-3.23394">
        <ele>14</ele>
        <time>2015-01-18T09:38:03Z</time>
      </trkpt>
      <trkpt lat="48.79041" lon="-3.234">
        <ele>14</ele>
        <time>2015-01-18T09:38:04Z</time>
      </trkpt>
      <trkpt lat="48.7904" lon="-3.23406">
        <ele>14</ele>
        <time>2015-01-18T09:38:05Z</time>
      </trkpt>
      <trkpt lat="48.79039" lon="-3.23412">
        <ele>14</ele>
        <time>2015-01-18T09:38:05Z</time>
      </trkpt>
      <trkpt lat="48.79038" lon="-3.23418">
        <ele>15</ele>
        <time>2015-01-18T09:38:07Z</time>
      </trkpt>
      <trkpt lat="48.79036" lon="-3.23424">
        <ele>15</ele>
        <time>2015-01-18T09:38:07Z</time>
      </trkpt>
      <trkpt lat="48.79036" lon="-3.2343">
        <ele>15</ele>
        <time>2015-01-18T09:38:09Z</time>
      </trkpt>
      <trkpt lat="48.79035" lon="-3.23436">
        <ele>15</ele>
        <time>2015-01-18T09:38:10Z</time>
      </trkpt>
      <trkpt lat="48.79034" lon="-3.23441">
        <ele>16</ele>
        <time>2015-01-18T09:38:11Z</time>
      </trkpt>
      <trkpt lat="48.79034" lon="-3.23447">
        <ele>16</ele>
        <time>2015-01-18T09:38:12Z</time>
      </trkpt>
      <trkpt lat="48.79033" lon="-3.23453">
        <ele>16</ele>
        <time>2015-01-18T09:38:13Z</time>
      </trkpt>
      <trkpt lat="48.79034" lon="-3.23464">
        <ele>17</ele>
        <time>2015-01-18T09:38:15Z</time>
      </trkpt>
      <trkpt lat="48.79034" lon="-3.23471">
        <ele>17</ele>
        <time>2015-01-18T09:38:16Z</time>
      </trkpt>
      <trkpt lat="48.79034" lon="-3.23477">
        <ele>17</ele>
        <time>2015-01-18T09:38:16Z</time>
      </trkpt>
      <trkpt lat="48.79035" lon="-3.23482">
        <ele>17</ele>
        <time>2015-01-18T09:38:18Z</time>
      </trkpt>
      <trkpt lat="48.79036" lon="-3.23488">
        <ele>18</ele>
        <time>2015-01-18T09:38:19Z</time>
      </trkpt>
      <trkpt lat="48.79037" lon="-3.23494">
        <ele>18</ele>
        <time>2015-01-18T09:38:20Z</time>
      </trkpt>
      <trkpt lat="48.79039" lon="-3.23499">
        <ele>18</ele>
        <time>2015-01-18T09:38:21Z</time>
      </trkpt>
      <trkpt lat="48.7904" lon="-3.23504">
        <ele>19</ele>
        <time>2015-01-18T09:38:21Z</time>
      </trkpt>
      <trkpt lat="48.79042" lon="-3.2351">
        <ele>19</ele>
        <time>2015-01-18T09:38:22Z</time>
      </trkpt>
      <trkpt lat="48.79044" lon="-3.23515">
        <ele>19</ele>
        <time>2015-01-18T09:38:24Z</time>
      </trkpt>
      <trkpt lat="48.79047" lon="-3.2352">
        <ele>20</ele>
        <time>2015-01-18T09:38:24Z</time>
      </trkpt>
      <trkpt lat="48.7905" lon="-3.23525">
        <ele>20</ele>
        <time>2015-01-18T09:38:25Z</time>
      </trkpt>
      <trkpt lat="48.79053" lon="-3.23529">
        <ele>21</ele>
        <time>2015-01-18T09:38:27Z</time>
      </trkpt>
      <trkpt lat="48.79057" lon="-3.23533">
        <ele>21</ele>
        <time>2015-01-18T09:38:27Z</time>
      </trkpt>
      <trkpt lat="48.79062" lon="-3.23536">
        <ele>21</ele>
        <time>2015-01-18T09:38:28Z</time>
      </trkpt>
      <trkpt lat="48.79066" lon="-3.23538">
        <ele>22</ele>
        <time>2015-01-18T09:38:30Z</time>
      </trkpt>
      <trkpt lat="48.79071" lon="-3.23541">
        <ele>22</ele>
        <time>2015-01-18T09:38:30Z</time>
      </trkpt>
      <trkpt lat="48.79075" lon="-3.23544">
        <ele>22</ele>
        <time>2015-01-18T09:38:31Z</time>
      </trkpt>
      <trkpt lat="48.7908" lon="-3.23546">
        <ele>22</ele>
        <time>2015-01-18T09:38:32Z</time>
      </trkpt>
      <trkpt lat="48.79085" lon="-3.23549">
        <ele>23</ele>
        <time>2015-01-18T09:38:33Z</time>
      </trkpt>
      <trkpt lat="48.79089" lon="-3.23551">
        <ele>23</ele>
        <time>2015-01-18T09:38:35Z</time>
      </trkpt>
      <trkpt lat="48.79094" lon="-3.23553">
        <ele>23</ele>
        <time>2015-01-18T09:38:35Z</time>
      </trkpt>
      <trkpt lat="48.79099" lon="-3.23556">
        <ele>24</ele>
        <time>2015-01-18T09:38:36Z</time>
      </trkpt>
      <trkpt lat="48.79104" lon="-3.23558">
        <ele>24</ele>
        <time>2015-01-18T09:38:37Z</time>
      </trkpt>
      <trkpt lat="48.79109" lon="-3.2356">
        <ele>24</ele>
        <time>2015-01-18T09:38:39Z</time>
      </trkpt>
      <trkpt lat="48.79114" lon="-3.23562">
        <ele>25</ele>
        <time>2015-01-18T09:38:40Z</time>
      </trkpt>
      <trkpt lat="48.79119" lon="-3.23564">
        <ele>25</ele>
        <time>2015-01-18T09:38:40Z</time>
      </trkpt>
      <trkpt lat="48.79124" lon="-3.23566">
        <ele>25</ele>
        <time>2015-01-18T09:38:41Z</time>
      </trkpt>
      <trkpt lat="48.79129" lon="-3.23568">
        <ele>26</ele>
        <time>2015-01-18T09:38:42Z</time>
      </trkpt>
      <trkpt lat="48.79134" lon="-3.2357">
        <ele>26</ele>
        <time>2015-01-18T09:38:43Z</time>
      </trkpt>
      <trkpt lat="48.79138" lon="-3.23572">
        <ele>26</ele>
        <time>2015-01-18T09:38:45Z</time>
      </trkpt>
      <trkpt lat="48.79143" lon="-3.23575">
        <ele>27</ele>
        <time>2015-01-18T09:38:45Z</time>
      </trkpt>
      <trkpt lat="48.79148" lon="-3.23577">
        <ele>27</ele>
        <time>2015-01-18T09:38:46Z</time>
      </trkpt>
      <trkpt lat="48.79153" lon="-3.23579">
        <ele>27</ele>
        <time>2015-01-18T09:38:47Z</time>
      </trkpt>
      <trkpt lat="48.79157" lon="-3.23581">
        <ele>28</ele>
        <time>2015-01-18T09:38:48Z</time>
      </trkpt>
      <trkpt lat="48.79162" lon="-3.23583">
        <ele>28</ele>
        <time>2015-01-18T09:38:50Z</time>
      </trkpt>
      <trkpt lat="48.79167" lon="-3.23585">
        <ele>28</ele>
        <time>2015-01-18T09:38:50Z</time>
      </trkpt>
      <trkpt lat="48.79172" lon="-3.23587">
        <ele>29</ele>
        <time>2015-01-18T09:38:51Z</time>
      </trkpt>
      <trkpt lat="48.79176" lon="-3.23589">
        <ele>29</ele>
        <time>2015-01-18T09:38:52Z</time>
      </trkpt>
      <trkpt lat="48.79181" lon="-3.23592">
        <ele>29</ele>
        <time>2015-01-18T09:38:53Z</time>
      </trkpt>
      <trkpt lat="48.79186" lon="-3.23594">
        <ele>30</ele>
        <time>2015-01-18T09:38:55Z</time>
      </trkpt>
      <trkpt lat="48.79191" lon="-3.23596">
        <ele>30</ele>
        <time>2015-01-18T09:38:55Z</time>
      </trkpt>
      <trkpt lat="48.79195" lon="-3.23598">
        <ele>31</ele>
        <time>2015-01-18T09:38:56Z</time>
      </trkpt>
      <trkpt lat="48.792" lon="-3.236">
        <ele>31</ele>
        <time>2015-01-18T09:38:57Z</time>
      </trkpt>
      <trkpt lat="48.79205" lon="-3.23603">
        <ele>31</ele>
        <time>2015-01-18T09:38:58Z</time>
      </trkpt>
      <trkpt lat="48.79209" lon="-3.23604">
        <ele>32</ele>
        <time>2015-01-18T09:39:00Z</time>
      </trkpt>
      <trkpt lat="48.79214" lon="-3.23606">
        <ele>32</ele>
        <time>2015-01-18T09:39:00Z</time>
      </trkpt>
      <trkpt lat="48.79219" lon="-3.23608">
        <ele>32</ele>
        <time>2015-01-18T09:39:01Z</time>
      </trkpt>
      <trkpt lat="48.79223" lon="-3.23611">
        <ele>33</ele>
        <time>2015-01-18T09:39:02Z</time>
      </trkpt>
      <trkpt lat="48.79227" lon="-3.23612">
        <ele>33</ele>
        <time>2015-01-18T09:39:03Z</time>
      </trkpt>
      <trkpt lat="48.79232" lon="-3.23613">
        <ele>33</ele>
        <time>2015-01-18T09:39:05Z</time>
      </trkpt>
      <trkpt lat="48.79237" lon="-3.23614">
        <ele>34</ele>
        <time>2015-01-18T09:39:05Z</time>
      </trkpt>
      <trkpt lat="48.79242" lon="-3.23614">
        <ele>34</ele>
        <time>2015-01-18T09:39:06Z</time>
      </trkpt>
      <trkpt lat="48.79246" lon="-3.23614">
        <ele>34</ele>
        <time>2015-01-18T09:39:07Z</time>
      </trkpt>
      <trkpt lat="48.79251" lon="-3.23613">
        <ele>35</ele>
        <time>2015-01-18T09:39:09Z</time>
      </trkpt>
      <trkpt lat="48.79256" lon="-3.23612">
        <ele>35</ele>
        <time>2015-01-18T09:39:10Z</time>
      </trkpt>
      <trkpt lat="48.7926" lon="-3.23611">
        <ele>35</ele>
        <time>2015-01-18T09:39:10Z</time>
      </trkpt>
      <trkpt lat="48.79264" lon="-3.23609">
        <ele>35</ele>
        <time>2015-01-18T09:39:11Z</time>
      </trkpt>
      <trkpt lat="48.79269" lon="-3.23607">
        <ele>36</ele>
        <time>2015-01-18T09:39:12Z</time>
      </trkpt>
      <trkpt lat="48.79273" lon="-3.23604">
        <ele>36</ele>
        <time>2015-01-18T09:39:13Z</time>
      </trkpt>
      <trkpt lat="48.79277" lon="-3.23601">
        <ele>36</ele>
        <time>2015-01-18T09:39:15Z</time>
      </trkpt>
      <trkpt lat="48.79281" lon="-3.23598">
        <ele>36</ele>
        <time>2015-01-18T09:39:15Z</time>
      </trkpt>
      <trkpt lat="48.79285" lon="-3.23594">
        <ele>37</ele>
        <time>2015-01-18T09:39:16Z</time>
      </trkpt>
      <trkpt lat="48.79288" lon="-3.2359">
        <ele>37</ele>
        <time>2015-01-18T09:39:17Z</time>
      </trkpt>
      <trkpt lat="48.79292" lon="-3.23586">
        <ele>37</ele>
        <time>2015-01-18T09:39:18Z</time>
      </trkpt>
      <trkpt lat="48.79296" lon="-3.23582">
        <ele>37</ele>
        <time>2015-01-18T09:39:20Z</time>
      </trkpt>
      <trkpt lat="48.793" lon="-3.23578">
        <ele>38</ele>
        <time>2015-01-18T09:39:20Z</time>
      </trkpt>
      <trkpt lat="48.79304" lon="-3.23574">
        <ele>38</ele>
        <time>2015-01-18T09:39:21Z</time>
      </trkpt>
      <trkpt lat="48.79308" lon="-3.2357">
        <ele>38</ele>
        <time>2015-01-18T09:39:22Z</time>
      </trkpt>
      <trkpt lat="48.79313" lon="-3.23566">
        <ele>38</ele>
        <time>2015-01-18T09:39:23Z</time>
      </trkpt>
      <trkpt lat="48.79317" lon="-3.23564">
        <ele>38</ele>
        <time>2015-01-18T09:39:25Z</time>
      </trkpt>
      <trkpt lat="48.79322" lon="-3.23561">
        <ele>38</ele>
        <time>2015-01-18T09:39:25Z</time>
      </trkpt>
      <trkpt lat="48.79327" lon="-3.23559">
        <ele>38</ele>
        <time>2015-01-18T09:39:26Z</time>
      </trkpt>
      <trkpt lat="48.79332" lon="-3.23558">
        <ele>38</ele>
        <time>2015-01-18T09:39:27Z</time>
      </trkpt>
      <trkpt lat="48.79336" lon="-3.23556">
        <ele>38</ele>
        <time>2015-01-18T09:39:28Z</time>
      </trkpt>
      <trkpt lat="48.79341" lon="-3.23556">
        <ele>39</ele>
        <time>2015-01-18T09:39:30Z</time>
      </trkpt>
      <trkpt lat="48.79345" lon="-3.23556">
        <ele>39</ele>
        <time>2015-01-18T09:39:30Z</time>
      </trkpt>
      <trkpt lat="48.7935" lon="-3.23556">
        <ele>39</ele>
        <time>2015-01-18T09:39:31Z</time>
      </trkpt>
      <trkpt lat="48.79355" lon="-3.23557">
        <ele>40</ele>
        <time>2015-01-18T09:39:32Z</time>
      </trkpt>
      <trkpt lat="48.7936" lon="-3.23557">
        <ele>40</ele>
        <time>2015-01-18T09:39:33Z</time>
      </trkpt>
      <trkpt lat="48.79365" lon="-3.23558">
        <ele>41</ele>
        <time>2015-01-18T09:39:35Z</time>
      </trkpt>
      <trkpt lat="48.7937" lon="-3.23558">
        <ele>41</ele>
        <time>2015-01-18T09:39:35Z</time>
      </trkpt>
      <trkpt lat="48.79374" lon="-3.23559">
        <ele>41</ele>
        <time>2015-01-18T09:39:36Z</time>
      </trkpt>
      <trkpt lat="48.79379" lon="-3.23561">
        <ele>42</ele>
        <time>2015-01-18T09:39:37Z</time>
      </trkpt>
      <trkpt lat="48.79384" lon="-3.23562">
        <ele>42</ele>
        <time>2015-01-18T09:39:38Z</time>
      </trkpt>
      <trkpt lat="48.79388" lon="-3.23564">
        <ele>42</ele>
        <time>2015-01-18T09:39:40Z</time>
      </trkpt>
      <trkpt lat="48.79393" lon="-3.23565">
        <ele>43</ele>
        <time>2015-01-18T09:39:40Z</time>
      </trkpt>
      <trkpt lat="48.79397" lon="-3.23567">
        <ele>43</ele>
        <time>2015-01-18T09:39:41Z</time>
      </trkpt>
      <trkpt lat="48.79402" lon="-3.23568">
        <ele>43</ele>
        <time>2015-01-18T09:39:42Z</time>
      </trkpt>
      <trkpt lat="48.79406" lon="-3.2357">
        <ele>44</ele>
        <time>2015-01-18T09:39:43Z</time>
      </trkpt>
      <trkpt lat="48.79411" lon="-3.23571">
        <ele>44</ele>
        <time>2015-01-18T09:39:45Z</time>
      </trkpt>
      <trkpt lat="48.79415" lon="-3.23572">
        <ele>44</ele>
        <time>2015-01-18T09:39:45Z</time>
      </trkpt>
      <trkpt lat="48.7942" lon="-3.23574">
        <ele>45</ele>
        <time>2015-01-18T09:39:46Z</time>
      </trkpt>
      <trkpt lat="48.79424" lon="-3.23576">
        <ele>45</ele>
        <time>2015-01-18T09:39:47Z</time>
      </trkpt>
      <trkpt lat="48.79429" lon="-3.23578">
        <ele>45</ele>
        <time>2015-01-18T09:39:48Z</time>
      </trkpt>
      <trkpt lat="48.79433" lon="-3.2358">
        <ele>46</ele>
        <time>2015-01-18T09:39:50Z</time>
      </trkpt>
      <trkpt lat="48.79438" lon="-3.23582">
        <ele>46</ele>
        <time>2015-01-18T09:39:50Z</time>
      </trkpt>
      <trkpt lat="48.79443" lon="-3.23584">
        <ele>46</ele>
        <time>2015-01-18T09:39:51Z</time>
      </trkpt>
      <trkpt lat="48.79447" lon="-3.23586">
        <ele>47</ele>
        <time>2015-01-18T09:39:52Z</time>
      </trkpt>
      <trkpt lat="48.79452" lon="-3.23588">
        <ele>47</ele>
        <time>2015-01-18T09:39:53Z</time>
      </trkpt>
      <trkpt lat="48.79456" lon="-3.2359">
        <ele>48</ele>
        <time>2015-01-18T09:39:55Z</time>
      </trkpt>
      <trkpt lat="48.79461" lon="-3.23592">
        <ele>48</ele>
        <time>2015-01-18T09:39:55Z</time>
      </trkpt>
      <trkpt lat="48.79465" lon="-3.23595">
        <ele>48</ele>
        <time>2015-01-18T09:39:56Z</time>
      </trkpt>
      <trkpt lat="48.7947" lon="-3.23598">
        <ele>48</ele>
        <time>2015-01-18T09:39:57Z</time>
      </trkpt>
      <trkpt lat="48.79474" lon="-3.23601">
        <ele>49</ele>
        <time>2015-01-18T09:39:58Z</time>
      </trkpt>
      <trkpt lat="48.79478" lon="-3.23604">
        <ele>49</ele>
        <time>2015-01-18T09:40:00Z</time>
      </trkpt>
      <trkpt lat="48.79482" lon="-3.23608">
        <ele>49</ele>
        <time>2015-01-18T09:40:00Z</time>
      </trkpt>
      <trkpt lat="48.79487" lon="-3.23612">
        <ele>49</ele>
        <time>2015-01-18T09:40:01Z</time>
      </trkpt>
      <trkpt lat="48.79491" lon="-3.23616">
        <ele>50</ele>
        <time>2015-01-18T09:40:03Z</time>
      </trkpt>
      <trkpt lat="48.79495" lon="-3.2362">
        <ele>50</ele>
        <time>2015-01-18T09:40:03Z</time>
      </trkpt>
      <trkpt lat="48.79499" lon="-3.23623">
        <ele>50</ele>
        <time>2015-01-18T09:40:05Z</time>
      </trkpt>
      <trkpt lat="48.79503" lon="-3.23627">
        <ele>50</ele>
        <time>2015-01-18T09:40:05Z</time>
      </trkpt>
      <trkpt lat="48.79507" lon="-3.23631">
        <ele>51</ele>
        <time>2015-01-18T09:40:06Z</time>
      </trkpt>
      <trkpt lat="48.79511" lon="-3.23636">
        <ele>51</ele>
        <time>2015-01-18T09:40:07Z</time>
      </trkpt>
      <trkpt lat="48.79515" lon="-3.2364">
        <ele>51</ele>
        <time>2015-01-18T09:40:08Z</time>
      </trkpt>
      <trkpt lat="48.79519" lon="-3.23644">
        <ele>51</ele>
        <time>2015-01-18T09:40:10Z</time>
      </trkpt>
      <trkpt lat="48.79523" lon="-3.23648">
        <ele>52</ele>
        <time>2015-01-18T09:40:10Z</time>
      </trkpt>
      <trkpt lat="48.79528" lon="-3.23652">
        <ele>52</ele>
        <time>2015-01-18T09:40:11Z</time>
      </trkpt>
      <trkpt lat="48.79531" lon="-3.23656">
        <ele>52</ele>
        <time>2015-01-18T09:40:12Z</time>
      </trkpt>
      <trkpt lat="48.79536" lon="-3.2366">
        <ele>52</ele>
        <time>2015-01-18T09:40:13Z</time>
      </trkpt>
      <trkpt lat="48.79539" lon="-3.23664">
        <ele>52</ele>
        <time>2015-01-18T09:40:15Z</time>
      </trkpt>
      <trkpt lat="48.79543" lon="-3.23668">
        <ele>52</ele>
        <time>2015-01-18T09:40:15Z</time>
      </trkpt>
      <trkpt lat="48.79547" lon="-3.23672">
        <ele>53</ele>
        <time>2015-01-18T09:40:16Z</time>
      </trkpt>
      <trkpt lat="48.79551" lon="-3.23675">
        <ele>53</ele>
        <time>2015-01-18T09:40:17Z</time>
      </trkpt>
      <trkpt lat="48.79556" lon="-3.23676">
        <ele>53</ele>
        <time>2015-01-18T09:40:18Z</time>
      </trkpt>
      <trkpt lat="48.79561" lon="-3.23677">
        <ele>53</ele>
        <time>2015-01-18T09:40:19Z</time>
      </trkpt>
      <trkpt lat="48.79565" lon="-3.23678">
        <ele>54</ele>
        <time>2015-01-18T09:40:21Z</time>
      </trkpt>
      <trkpt lat="48.79575" lon="-3.23678">
        <ele>54</ele>
        <time>2015-01-18T09:40:22Z</time>
      </trkpt>
      <trkpt lat="48.7958" lon="-3.23678">
        <ele>54</ele>
        <time>2015-01-18T09:40:23Z</time>
      </trkpt>
      <trkpt lat="48.79585" lon="-3.23677">
        <ele>54</ele>
        <time>2015-01-18T09:40:24Z</time>
      </trkpt>
      <trkpt lat="48.79616" lon="-3.23677">
        <ele>55</ele>
        <time>2015-01-18T09:40:30Z</time>
      </trkpt>
      <trkpt lat="48.79622" lon="-3.23677">
        <ele>56</ele>
        <time>2015-01-18T09:40:31Z</time>
      </trkpt>
      <trkpt lat="48.79627" lon="-3.23676">
        <ele>56</ele>
        <time>2015-01-18T09:40:32Z</time>
      </trkpt>
      <trkpt lat="48.79632" lon="-3.23676">
        <ele>56</ele>
        <time>2015-01-18T09:40:33Z</time>
      </trkpt>
      <trkpt lat="48.79638" lon="-3.23676">
        <ele>56</ele>
        <time>2015-01-18T09:40:34Z</time>
      </trkpt>
      <trkpt lat="48.79643" lon="-3.23676">
        <ele>56</ele>
        <time>2015-01-18T09:40:36Z</time>
      </trkpt>
      <trkpt lat="48.79648" lon="-3.23675">
        <ele>57</ele>
        <time>2015-01-18T09:40:36Z</time>
      </trkpt>
      <trkpt lat="48.79654" lon="-3.23675">
        <ele>57</ele>
        <time>2015-01-18T09:40:37Z</time>
      </trkpt>
      <trkpt lat="48.79659" lon="-3.23675">
        <ele>57</ele>
        <time>2015-01-18T09:40:38Z</time>
      </trkpt>
      <trkpt lat="48.79664" lon="-3.23674">
        <ele>57</ele>
        <time>2015-01-18T09:40:39Z</time>
      </trkpt>
      <trkpt lat="48.79669" lon="-3.23675">
        <ele>57</ele>
        <time>2015-01-18T09:40:41Z</time>
      </trkpt>
      <trkpt lat="48.79674" lon="-3.23677">
        <ele>57</ele>
        <time>2015-01-18T09:40:41Z</time>
      </trkpt>
      <trkpt lat="48.79679" lon="-3.2368">
        <ele>57</ele>
        <time>2015-01-18T09:40:42Z</time>
      </trkpt>
      <trkpt lat="48.79683" lon="-3.23684">
        <ele>58</ele>
        <time>2015-01-18T09:40:43Z</time>
      </trkpt>
      <trkpt lat="48.79686" lon="-3.23689">
        <ele>58</ele>
        <time>2015-01-18T09:40:44Z</time>
      </trkpt>
      <trkpt lat="48.7969" lon="-3.23695">
        <ele>58</ele>
        <time>2015-01-18T09:40:45Z</time>
      </trkpt>
      <trkpt lat="48.79692" lon="-3.23701">
        <ele>58</ele>
        <time>2015-01-18T09:40:46Z</time>
      </trkpt>
      <trkpt lat="48.79695" lon="-3.23707">
        <ele>59</ele>
        <time>2015-01-18T09:40:48Z</time>
      </trkpt>
      <trkpt lat="48.79698" lon="-3.23714">
        <ele>59</ele>
        <time>2015-01-18T09:40:48Z</time>
      </trkpt>
      <trkpt lat="48.797" lon="-3.23721">
        <ele>59</ele>
        <time>2015-01-18T09:40:49Z</time>
      </trkpt>
      <trkpt lat="48.79702" lon="-3.23727">
        <ele>59</ele>
        <time>2015-01-18T09:40:51Z</time>
      </trkpt>
      <trkpt lat="48.79705" lon="-3.23734">
        <ele>59</ele>
        <time>2015-01-18T09:40:51Z</time>
      </trkpt>
      <trkpt lat="48.79707" lon="-3.23741">
        <ele>59</ele>
        <time>2015-01-18T09:40:52Z</time>
      </trkpt>
      <trkpt lat="48.79709" lon="-3.23748">
        <ele>59</ele>
        <time>2015-01-18T09:40:53Z</time>
      </trkpt>
      <trkpt lat="48.79711" lon="-3.23754">
        <ele>59</ele>
        <time>2015-01-18T09:40:54Z</time>
      </trkpt>
      <trkpt lat="48.79713" lon="-3.23761">
        <ele>59</ele>
        <time>2015-01-18T09:40:56Z</time>
      </trkpt>
      <trkpt lat="48.79715" lon="-3.23768">
        <ele>59</ele>
        <time>2015-01-18T09:40:56Z</time>
      </trkpt>
      <trkpt lat="48.79717" lon="-3.23774">
        <ele>60</ele>
        <time>2015-01-18T09:40:57Z</time>
      </trkpt>
      <trkpt lat="48.79718" lon="-3.23781">
        <ele>60</ele>
        <time>2015-01-18T09:40:58Z</time>
      </trkpt>
      <trkpt lat="48.7972" lon="-3.23787">
        <ele>60</ele>
        <time>2015-01-18T09:40:59Z</time>
      </trkpt>
      <trkpt lat="48.7972" lon="-3.23794">
        <ele>60</ele>
        <time>2015-01-18T09:41:01Z</time>
      </trkpt>
      <trkpt lat="48.79721" lon="-3.238">
        <ele>60</ele>
        <time>2015-01-18T09:41:01Z</time>
      </trkpt>
      <trkpt lat="48.79722" lon="-3.23806">
        <ele>60</ele>
        <time>2015-01-18T09:41:02Z</time>
      </trkpt>
      <trkpt lat="48.79723" lon="-3.23812">
        <ele>60</ele>
        <time>2015-01-18T09:41:03Z</time>
      </trkpt>
      <trkpt lat="48.79723" lon="-3.23818">
        <ele>61</ele>
        <time>2015-01-18T09:41:04Z</time>
      </trkpt>
      <trkpt lat="48.79724" lon="-3.23824">
        <ele>61</ele>
        <time>2015-01-18T09:41:06Z</time>
      </trkpt>
      <trkpt lat="48.79725" lon="-3.23831">
        <ele>61</ele>
        <time>2015-01-18T09:41:06Z</time>
      </trkpt>
      <trkpt lat="48.79726" lon="-3.23837">
        <ele>61</ele>
        <time>2015-01-18T09:41:07Z</time>
      </trkpt>
      <trkpt lat="48.79727" lon="-3.23842">
        <ele>61</ele>
        <time>2015-01-18T09:41:09Z</time>
      </trkpt>
      <trkpt lat="48.79728" lon="-3.23847">
        <ele>61</ele>
        <time>2015-01-18T09:41:09Z</time>
      </trkpt>
      <trkpt lat="48.7973" lon="-3.23851">
        <ele>62</ele>
        <time>2015-01-18T09:41:11Z</time>
      </trkpt>
      <trkpt lat="48.79732" lon="-3.23855">
        <ele>62</ele>
        <time>2015-01-18T09:41:11Z</time>
      </trkpt>
      <trkpt lat="48.79735" lon="-3.23858">
        <ele>62</ele>
        <time>2015-01-18T09:41:12Z</time>
      </trkpt>
      <trkpt lat="48.79738" lon="-3.23861">
        <ele>62</ele>
        <time>2015-01-18T09:41:13Z</time>
      </trkpt>
      <trkpt lat="48.79742" lon="-3.23863">
        <ele>62</ele>
        <time>2015-01-18T09:41:14Z</time>
      </trkpt>
      <trkpt lat="48.79745" lon="-3.23866">
        <ele>62</ele>
        <time>2015-01-18T09:41:16Z</time>
      </trkpt>
      <trkpt lat="48.79748" lon="-3.23869">
        <ele>63</ele>
        <time>2015-01-18T09:41:16Z</time>
      </trkpt>
      <trkpt lat="48.7975" lon="-3.23875">
        <ele>63</ele>
        <time>2015-01-18T09:41:17Z</time>
      </trkpt>
      <trkpt lat="48.79748" lon="-3.23887">
        <ele>63</ele>
        <time>2015-01-18T09:41:19Z</time>
      </trkpt>
      <trkpt lat="48.79744" lon="-3.23892">
        <ele>63</ele>
        <time>2015-01-18T09:41:21Z</time>
      </trkpt>
      <trkpt lat="48.7974" lon="-3.23896">
        <ele>63</ele>
        <time>2015-01-18T09:41:21Z</time>
      </trkpt>
      <trkpt lat="48.79736" lon="-3.23901">
        <ele>64</ele>
        <time>2015-01-18T09:41:22Z</time>
      </trkpt>
      <trkpt lat="48.79733" lon="-3.23907">
        <ele>64</ele>
        <time>2015-01-18T09:41:23Z</time>
      </trkpt>
      <trkpt lat="48.79731" lon="-3.23914">
        <ele>64</ele>
        <time>2015-01-18T09:41:24Z</time>
      </trkpt>
      <trkpt lat="48.79729" lon="-3.23922">
        <ele>64</ele>
        <time>2015-01-18T09:41:26Z</time>
      </trkpt>
      <trkpt lat="48.79728" lon="-3.2393">
        <ele>64</ele>
        <time>2015-01-18T09:41:26Z</time>
      </trkpt>
      <trkpt lat="48.79726" lon="-3.23938">
        <ele>64</ele>
        <time>2015-01-18T09:41:27Z</time>
      </trkpt>
      <trkpt lat="48.79725" lon="-3.23945">
        <ele>64</ele>
        <time>2015-01-18T09:41:28Z</time>
      </trkpt>
      <trkpt lat="48.79723" lon="-3.23953">
        <ele>64</ele>
        <time>2015-01-18T09:41:29Z</time>
      </trkpt>
      <trkpt lat="48.79722" lon="-3.23961">
        <ele>64</ele>
        <time>2015-01-18T09:41:31Z</time>
      </trkpt>
      <trkpt lat="48.79721" lon="-3.23968">
        <ele>64</ele>
        <time>2015-01-18T09:41:31Z</time>
      </trkpt>
      <trkpt lat="48.79719" lon="-3.23975">
        <ele>64</ele>
        <time>2015-01-18T09:41:32Z</time>
      </trkpt>
      <trkpt lat="48.79718" lon="-3.23983">
        <ele>64</ele>
        <time>2015-01-18T09:41:33Z</time>
      </trkpt>
      <trkpt lat="48.79716" lon="-3.2399">
        <ele>64</ele>
        <time>2015-01-18T09:41:34Z</time>
      </trkpt>
      <trkpt lat="48.79715" lon="-3.23997">
        <ele>64</ele>
        <time>2015-01-18T09:41:36Z</time>
      </trkpt>
      <trkpt lat="48.79714" lon="-3.24003">
        <ele>64</ele>
        <time>2015-01-18T09:41:36Z</time>
      </trkpt>
      <trkpt lat="48.79713" lon="-3.2401">
        <ele>64</ele>
        <time>2015-01-18T09:41:37Z</time>
      </trkpt>
      <trkpt lat="48.79712" lon="-3.24017">
        <ele>64</ele>
        <time>2015-01-18T09:41:39Z</time>
      </trkpt>
      <trkpt lat="48.7971" lon="-3.24024">
        <ele>64</ele>
        <time>2015-01-18T09:41:39Z</time>
      </trkpt>
      <trkpt lat="48.79709" lon="-3.24031">
        <ele>64</ele>
        <time>2015-01-18T09:41:41Z</time>
      </trkpt>
      <trkpt lat="48.79707" lon="-3.24038">
        <ele>64</ele>
        <time>2015-01-18T09:41:41Z</time>
      </trkpt>
      <trkpt lat="48.79706" lon="-3.24045">
        <ele>64</ele>
        <time>2015-01-18T09:41:42Z</time>
      </trkpt>
      <trkpt lat="48.79705" lon="-3.24052">
        <ele>64</ele>
        <time>2015-01-18T09:41:43Z</time>
      </trkpt>
      <trkpt lat="48.79704" lon="-3.24059">
        <ele>64</ele>
        <time>2015-01-18T09:41:44Z</time>
      </trkpt>
      <trkpt lat="48.79702" lon="-3.24066">
        <ele>64</ele>
        <time>2015-01-18T09:41:45Z</time>
      </trkpt>
      <trkpt lat="48.79701" lon="-3.24073">
        <ele>64</ele>
        <time>2015-01-18T09:41:46Z</time>
      </trkpt>
      <trkpt lat="48.797" lon="-3.2408">
        <ele>64</ele>
        <time>2015-01-18T09:41:47Z</time>
      </trkpt>
      <trkpt lat="48.79699" lon="-3.24087">
        <ele>64</ele>
        <time>2015-01-18T09:41:48Z</time>
      </trkpt>
      <trkpt lat="48.79698" lon="-3.24094">
        <ele>64</ele>
        <time>2015-01-18T09:41:49Z</time>
      </trkpt>
      <trkpt lat="48.79697" lon="-3.24101">
        <ele>64</ele>
        <time>2015-01-18T09:41:51Z</time>
      </trkpt>
      <trkpt lat="48.79696" lon="-3.24108">
        <ele>64</ele>
        <time>2015-01-18T09:41:51Z</time>
      </trkpt>
      <trkpt lat="48.79695" lon="-3.24115">
        <ele>64</ele>
        <time>2015-01-18T09:41:52Z</time>
      </trkpt>
      <trkpt lat="48.79695" lon="-3.24122">
        <ele>64</ele>
        <time>2015-01-18T09:41:53Z</time>
      </trkpt>
      <trkpt lat="48.79694" lon="-3.24129">
        <ele>64</ele>
        <time>2015-01-18T09:41:54Z</time>
      </trkpt>
      <trkpt lat="48.79693" lon="-3.24136">
        <ele>64</ele>
        <time>2015-01-18T09:41:56Z</time>
      </trkpt>
      <trkpt lat="48.79692" lon="-3.24143">
        <ele>64</ele>
        <time>2015-01-18T09:41:56Z</time>
      </trkpt>
      <trkpt lat="48.79691" lon="-3.2415">
        <ele>64</ele>
        <time>2015-01-18T09:41:57Z</time>
      </trkpt>
      <trkpt lat="48.7969" lon="-3.24157">
        <ele>64</ele>
        <time>2015-01-18T09:41:58Z</time>
      </trkpt>
      <trkpt lat="48.79689" lon="-3.24163">
        <ele>64</ele>
        <time>2015-01-18T09:41:59Z</time>
      </trkpt>
      <trkpt lat="48.79688" lon="-3.24169">
        <ele>64</ele>
        <time>2015-01-18T09:42:01Z</time>
      </trkpt>
      <trkpt lat="48.79687" lon="-3.24175">
        <ele>64</ele>
        <time>2015-01-18T09:42:01Z</time>
      </trkpt>
      <trkpt lat="48.79686" lon="-3.24181">
        <ele>64</ele>
        <time>2015-01-18T09:42:02Z</time>
      </trkpt>
      <trkpt lat="48.79686" lon="-3.24187">
        <ele>64</ele>
        <time>2015-01-18T09:42:03Z</time>
      </trkpt>
      <trkpt lat="48.79685" lon="-3.24194">
        <ele>64</ele>
        <time>2015-01-18T09:42:04Z</time>
      </trkpt>
      <trkpt lat="48.79684" lon="-3.242">
        <ele>64</ele>
        <time>2015-01-18T09:42:06Z</time>
      </trkpt>
      <trkpt lat="48.79683" lon="-3.24205">
        <ele>64</ele>
        <time>2015-01-18T09:42:06Z</time>
      </trkpt>
      <trkpt lat="48.79681" lon="-3.24211">
        <ele>64</ele>
        <time>2015-01-18T09:42:07Z</time>
      </trkpt>
      <trkpt lat="48.79679" lon="-3.24217">
        <ele>64</ele>
        <time>2015-01-18T09:42:08Z</time>
      </trkpt>
      <trkpt lat="48.79677" lon="-3.24222">
        <ele>64</ele>
        <time>2015-01-18T09:42:09Z</time>
      </trkpt>
      <trkpt lat="48.79676" lon="-3.24229">
        <ele>64</ele>
        <time>2015-01-18T09:42:11Z</time>
      </trkpt>
      <trkpt lat="48.79674" lon="-3.24235">
        <ele>64</ele>
        <time>2015-01-18T09:42:11Z</time>
      </trkpt>
      <trkpt lat="48.79673" lon="-3.24242">
        <ele>64</ele>
        <time>2015-01-18T09:42:12Z</time>
      </trkpt>
      <trkpt lat="48.79671" lon="-3.24248">
        <ele>64</ele>
        <time>2015-01-18T09:42:13Z</time>
      </trkpt>
      <trkpt lat="48.79668" lon="-3.24255">
        <ele>64</ele>
        <time>2015-01-18T09:42:14Z</time>
      </trkpt>
      <trkpt lat="48.79666" lon="-3.24261">
        <ele>64</ele>
        <time>2015-01-18T09:42:16Z</time>
      </trkpt>
      <trkpt lat="48.79663" lon="-3.24267">
        <ele>64</ele>
        <time>2015-01-18T09:42:16Z</time>
      </trkpt>
      <trkpt lat="48.79661" lon="-3.24273">
        <ele>64</ele>
        <time>2015-01-18T09:42:17Z</time>
      </trkpt>
      <trkpt lat="48.79658" lon="-3.24279">
        <ele>64</ele>
        <time>2015-01-18T09:42:18Z</time>
      </trkpt>
      <trkpt lat="48.79655" lon="-3.24284">
        <ele>64</ele>
        <time>2015-01-18T09:42:19Z</time>
      </trkpt>
      <trkpt lat="48.79652" lon="-3.2429">
        <ele>64</ele>
        <time>2015-01-18T09:42:21Z</time>
      </trkpt>
      <trkpt lat="48.7965" lon="-3.24297">
        <ele>64</ele>
        <time>2015-01-18T09:42:21Z</time>
      </trkpt>
      <trkpt lat="48.79647" lon="-3.24303">
        <ele>64</ele>
        <time>2015-01-18T09:42:22Z</time>
      </trkpt>
      <trkpt lat="48.79645" lon="-3.2431">
        <ele>64</ele>
        <time>2015-01-18T09:42:23Z</time>
      </trkpt>
      <trkpt lat="48.79642" lon="-3.24316">
        <ele>64</ele>
        <time>2015-01-18T09:42:24Z</time>
      </trkpt>
      <trkpt lat="48.7964" lon="-3.24323">
        <ele>64</ele>
        <time>2015-01-18T09:42:26Z</time>
      </trkpt>
      <trkpt lat="48.79638" lon="-3.24329">
        <ele>64</ele>
        <time>2015-01-18T09:42:26Z</time>
      </trkpt>
      <trkpt lat="48.79636" lon="-3.24335">
        <ele>64</ele>
        <time>2015-01-18T09:42:27Z</time>
      </trkpt>
      <trkpt lat="48.79633" lon="-3.24342">
        <ele>64</ele>
        <time>2015-01-18T09:42:28Z</time>
      </trkpt>
      <trkpt lat="48.79631" lon="-3.24348">
        <ele>64</ele>
        <time>2015-01-18T09:42:29Z</time>
      </trkpt>
      <trkpt lat="48.79629" lon="-3.24354">
        <ele>64</ele>
        <time>2015-01-18T09:42:30Z</time>
      </trkpt>
      <trkpt lat="48.79628" lon="-3.24361">
        <ele>64</ele>
        <time>2015-01-18T09:42:31Z</time>
      </trkpt>
      <trkpt lat="48.79627" lon="-3.24368">
        <ele>64</ele>
        <time>2015-01-18T09:42:32Z</time>
      </trkpt>
      <trkpt lat="48.79626" lon="-3.24376">
        <ele>64</ele>
        <time>2015-01-18T09:42:33Z</time>
      </trkpt>
      <trkpt lat="48.79627" lon="-3.24405">
        <ele>64</ele>
        <time>2015-01-18T09:42:37Z</time>
      </trkpt>
      <trkpt lat="48.79627" lon="-3.24413">
        <ele>64</ele>
        <time>2015-01-18T09:42:38Z</time>
      </trkpt>
      <trkpt lat="48.79628" lon="-3.2442">
        <ele>64</ele>
        <time>2015-01-18T09:42:39Z</time>
      </trkpt>
      <trkpt lat="48.79628" lon="-3.24435">
        <ele>64</ele>
        <time>2015-01-18T09:42:41Z</time>
      </trkpt>
      <trkpt lat="48.79629" lon="-3.24449">
        <ele>64</ele>
        <time>2015-01-18T09:42:43Z</time>
      </trkpt>
      <trkpt lat="48.7963" lon="-3.24463">
        <ele>64</ele>
        <time>2015-01-18T09:42:46Z</time>
      </trkpt>
      <trkpt lat="48.7963" lon="-3.24471">
        <ele>64</ele>
        <time>2015-01-18T09:42:46Z</time>
      </trkpt>
      <trkpt lat="48.7963" lon="-3.24478">
        <ele>64</ele>
        <time>2015-01-18T09:42:47Z</time>
      </trkpt>
      <trkpt lat="48.79631" lon="-3.24485">
        <ele>64</ele>
        <time>2015-01-18T09:42:48Z</time>
      </trkpt>
      <trkpt lat="48.79631" lon="-3.24493">
        <ele>64</ele>
        <time>2015-01-18T09:42:49Z</time>
      </trkpt>
      <trkpt lat="48.79631" lon="-3.245">
        <ele>64</ele>
        <time>2015-01-18T09:42:51Z</time>
      </trkpt>
      <trkpt lat="48.79632" lon="-3.24523">
        <ele>64</ele>
        <time>2015-01-18T09:42:53Z</time>
      </trkpt>
      <trkpt lat="48.79632" lon="-3.2453">
        <ele>64</ele>
        <time>2015-01-18T09:42:54Z</time>
      </trkpt>
      <trkpt lat="48.79632" lon="-3.24581">
        <ele>64</ele>
        <time>2015-01-18T09:43:01Z</time>
      </trkpt>
      <trkpt lat="48.79631" lon="-3.24588">
        <ele>64</ele>
        <time>2015-01-18T09:43:02Z</time>
      </trkpt>
      <trkpt lat="48.79631" lon="-3.24595">
        <ele>64</ele>
        <time>2015-01-18T09:43:03Z</time>
      </trkpt>
      <trkpt lat="48.7963" lon="-3.24603">
        <ele>64</ele>
        <time>2015-01-18T09:43:04Z</time>
      </trkpt>
      <trkpt lat="48.79629" lon="-3.24609">
        <ele>64</ele>
        <time>2015-01-18T09:43:06Z</time>
      </trkpt>
      <trkpt lat="48.79628" lon="-3.24616">
        <ele>64</ele>
        <time>2015-01-18T09:43:06Z</time>
      </trkpt>
      <trkpt lat="48.79628" lon="-3.24623">
        <ele>64</ele>
        <time>2015-01-18T09:43:07Z</time>
      </trkpt>
      <trkpt lat="48.79627" lon="-3.24629">
        <ele>64</ele>
        <time>2015-01-18T09:43:08Z</time>
      </trkpt>
      <trkpt lat="48.79626" lon="-3.24635">
        <ele>64</ele>
        <time>2015-01-18T09:43:09Z</time>
      </trkpt>
      <trkpt lat="48.79625" lon="-3.24641">
        <ele>64</ele>
        <time>2015-01-18T09:43:10Z</time>
      </trkpt>
      <trkpt lat="48.79625" lon="-3.24647">
        <ele>64</ele>
        <time>2015-01-18T09:43:11Z</time>
      </trkpt>
      <trkpt lat="48.79624" lon="-3.24653">
        <ele>64</ele>
        <time>2015-01-18T09:43:12Z</time>
      </trkpt>
      <trkpt lat="48.79623" lon="-3.24659">
        <ele>64</ele>
        <time>2015-01-18T09:43:13Z</time>
      </trkpt>
      <trkpt lat="48.79623" lon="-3.24666">
        <ele>64</ele>
        <time>2015-01-18T09:43:14Z</time>
      </trkpt>
      <trkpt lat="48.79622" lon="-3.24672">
        <ele>64</ele>
        <time>2015-01-18T09:43:16Z</time>
      </trkpt>
      <trkpt lat="48.79621" lon="-3.24678">
        <ele>64</ele>
        <time>2015-01-18T09:43:16Z</time>
      </trkpt>
      <trkpt lat="48.79621" lon="-3.24684">
        <ele>64</ele>
        <time>2015-01-18T09:43:17Z</time>
      </trkpt>
      <trkpt lat="48.7962" lon="-3.2469">
        <ele>64</ele>
        <time>2015-01-18T09:43:18Z</time>
      </trkpt>
      <trkpt lat="48.7962" lon="-3.24696">
        <ele>64</ele>
        <time>2015-01-18T09:43:19Z</time>
      </trkpt>
      <trkpt lat="48.7962" lon="-3.24702">
        <ele>64</ele>
        <time>2015-01-18T09:43:21Z</time>
      </trkpt>
      <trkpt lat="48.79619" lon="-3.24707">
        <ele>64</ele>
        <time>2015-01-18T09:43:21Z</time>
      </trkpt>
      <trkpt lat="48.79619" lon="-3.24713">
        <ele>64</ele>
        <time>2015-01-18T09:43:22Z</time>
      </trkpt>
      <trkpt lat="48.79618" lon="-3.24719">
        <ele>64</ele>
        <time>2015-01-18T09:43:23Z</time>
      </trkpt>
      <trkpt lat="48.79618" lon="-3.24725">
        <ele>64</ele>
        <time>2015-01-18T09:43:24Z</time>
      </trkpt>
      <trkpt lat="48.79618" lon="-3.2473">
        <ele>64</ele>
        <time>2015-01-18T09:43:25Z</time>
      </trkpt>
      <trkpt lat="48.79617" lon="-3.24736">
        <ele>64</ele>
        <time>2015-01-18T09:43:26Z</time>
      </trkpt>
      <trkpt lat="48.79617" lon="-3.24742">
        <ele>64</ele>
        <time>2015-01-18T09:43:27Z</time>
      </trkpt>
      <trkpt lat="48.79617" lon="-3.24771">
        <ele>64</ele>
        <time>2015-01-18T09:43:32Z</time>
      </trkpt>
      <trkpt lat="48.79616" lon="-3.24816">
        <ele>64</ele>
        <time>2015-01-18T09:43:39Z</time>
      </trkpt>
      <trkpt lat="48.79616" lon="-3.24847">
        <ele>64</ele>
        <time>2015-01-18T09:43:44Z</time>
      </trkpt>
      <trkpt lat="48.79615" lon="-3.24853">
        <ele>64</ele>
        <time>2015-01-18T09:43:45Z</time>
      </trkpt>
      <trkpt lat="48.79615" lon="-3.24859">
        <ele>64</ele>
        <time>2015-01-18T09:43:46Z</time>
      </trkpt>
      <trkpt lat="48.79615" lon="-3.24864">
        <ele>64</ele>
        <time>2015-01-18T09:43:47Z</time>
      </trkpt>
      <trkpt lat="48.79614" lon="-3.2487">
        <ele>64</ele>
        <time>2015-01-18T09:43:48Z</time>
      </trkpt>
      <trkpt lat="48.79614" lon="-3.24876">
        <ele>64</ele>
        <time>2015-01-18T09:43:49Z</time>
      </trkpt>
      <trkpt lat="48.79613" lon="-3.24892">
        <ele>64</ele>
        <time>2015-01-18T09:43:52Z</time>
      </trkpt>
      <trkpt lat="48.79613" lon="-3.24897">
        <ele>64</ele>
        <time>2015-01-18T09:43:53Z</time>
      </trkpt>
      <trkpt lat="48.79612" lon="-3.24902">
        <ele>64</ele>
        <time>2015-01-18T09:43:54Z</time>
      </trkpt>
      <trkpt lat="48.79612" lon="-3.24907">
        <ele>64</ele>
        <time>2015-01-18T09:43:55Z</time>
      </trkpt>
      <trkpt lat="48.79611" lon="-3.24912">
        <ele>64</ele>
        <time>2015-01-18T09:43:56Z</time>
      </trkpt>
      <trkpt lat="48.79611" lon="-3.24916">
        <ele>64</ele>
        <time>2015-01-18T09:43:57Z</time>
      </trkpt>
      <trkpt lat="48.7961" lon="-3.24921">
        <ele>64</ele>
        <time>2015-01-18T09:43:58Z</time>
      </trkpt>
      <trkpt lat="48.7961" lon="-3.24925">
        <ele>64</ele>
        <time>2015-01-18T09:43:59Z</time>
      </trkpt>
      <trkpt lat="48.7961" lon="-3.2493">
        <ele>64</ele>
        <time>2015-01-18T09:44:01Z</time>
      </trkpt>
      <trkpt lat="48.79609" lon="-3.24935">
        <ele>64</ele>
        <time>2015-01-18T09:44:01Z</time>
      </trkpt>
      <trkpt lat="48.79608" lon="-3.2494">
        <ele>64</ele>
        <time>2015-01-18T09:44:02Z</time>
      </trkpt>
      <trkpt lat="48.79608" lon="-3.24946">
        <ele>64</ele>
        <time>2015-01-18T09:44:03Z</time>
      </trkpt>
      <trkpt lat="48.79607" lon="-3.24952">
        <ele>64</ele>
        <time>2015-01-18T09:44:04Z</time>
      </trkpt>
      <trkpt lat="48.79607" lon="-3.24958">
        <ele>64</ele>
        <time>2015-01-18T09:44:05Z</time>
      </trkpt>
      <trkpt lat="48.79606" lon="-3.24964">
        <ele>64</ele>
        <time>2015-01-18T09:44:06Z</time>
      </trkpt>
      <trkpt lat="48.79606" lon="-3.24971">
        <ele>64</ele>
        <time>2015-01-18T09:44:07Z</time>
      </trkpt>
      <trkpt lat="48.79605" lon="-3.24977">
        <ele>64</ele>
        <time>2015-01-18T09:44:08Z</time>
      </trkpt>
      <trkpt lat="48.79604" lon="-3.24985">
        <ele>64</ele>
        <time>2015-01-18T09:44:09Z</time>
      </trkpt>
      <trkpt lat="48.79603" lon="-3.24992">
        <ele>64</ele>
        <time>2015-01-18T09:44:11Z</time>
      </trkpt>
      <trkpt lat="48.79603" lon="-3.25">
        <ele>64</ele>
        <time>2015-01-18T09:44:11Z</time>
      </trkpt>
      <trkpt lat="48.79602" lon="-3.25008">
        <ele>64</ele>
        <time>2015-01-18T09:44:12Z</time>
      </trkpt>
      <trkpt lat="48.79601" lon="-3.25016">
        <ele>64</ele>
        <time>2015-01-18T09:44:13Z</time>
      </trkpt>
      <trkpt lat="48.79601" lon="-3.25025">
        <ele>64</ele>
        <time>2015-01-18T09:44:14Z</time>
      </trkpt>
      <trkpt lat="48.796" lon="-3.25034">
        <ele>64</ele>
        <time>2015-01-18T09:44:15Z</time>
      </trkpt>
      <trkpt lat="48.79599" lon="-3.25043">
        <ele>64</ele>
        <time>2015-01-18T09:44:16Z</time>
      </trkpt>
      <trkpt lat="48.79598" lon="-3.25052">
        <ele>64</ele>
        <time>2015-01-18T09:44:17Z</time>
      </trkpt>
      <trkpt lat="48.79597" lon="-3.25061">
        <ele>64</ele>
        <time>2015-01-18T09:44:18Z</time>
      </trkpt>
      <trkpt lat="48.79597" lon="-3.25071">
        <ele>64</ele>
        <time>2015-01-18T09:44:19Z</time>
      </trkpt>
      <trkpt lat="48.79596" lon="-3.2508">
        <ele>64</ele>
        <time>2015-01-18T09:44:21Z</time>
      </trkpt>
      <trkpt lat="48.79597" lon="-3.2514">
        <ele>64</ele>
        <time>2015-01-18T09:44:27Z</time>
      </trkpt>
      <trkpt lat="48.79596" lon="-3.2518">
        <ele>64</ele>
        <time>2015-01-18T09:44:31Z</time>
      </trkpt>
      <trkpt lat="48.79596" lon="-3.25191">
        <ele>64</ele>
        <time>2015-01-18T09:44:32Z</time>
      </trkpt>
      <trkpt lat="48.79595" lon="-3.25201">
        <ele>64</ele>
        <time>2015-01-18T09:44:33Z</time>
      </trkpt>
      <trkpt lat="48.79595" lon="-3.25212">
        <ele>64</ele>
        <time>2015-01-18T09:44:34Z</time>
      </trkpt>
      <trkpt lat="48.79594" lon="-3.25224">
        <ele>64</ele>
        <time>2015-01-18T09:44:36Z</time>
      </trkpt>
      <trkpt lat="48.79593" lon="-3.25236">
        <ele>64</ele>
        <time>2015-01-18T09:44:36Z</time>
      </trkpt>
      <trkpt lat="48.79592" lon="-3.25247">
        <ele>64</ele>
        <time>2015-01-18T09:44:37Z</time>
      </trkpt>
      <trkpt lat="48.79591" lon="-3.25259">
        <ele>64</ele>
        <time>2015-01-18T09:44:38Z</time>
      </trkpt>
      <trkpt lat="48.79589" lon="-3.25271">
        <ele>64</ele>
        <time>2015-01-18T09:44:39Z</time>
      </trkpt>
      <trkpt lat="48.79588" lon="-3.25283">
        <ele>64</ele>
        <time>2015-01-18T09:44:40Z</time>
      </trkpt>
      <trkpt lat="48.79587" lon="-3.25294">
        <ele>64</ele>
        <time>2015-01-18T09:44:41Z</time>
      </trkpt>
      <trkpt lat="48.79586" lon="-3.25306">
        <ele>64</ele>
        <time>2015-01-18T09:44:42Z</time>
      </trkpt>
      <trkpt lat="48.79585" lon="-3.25317">
        <ele>64</ele>
        <time>2015-01-18T09:44:43Z</time>
      </trkpt>
      <trkpt lat="48.79583" lon="-3.25328">
        <ele>64</ele>
        <time>2015-01-18T09:44:44Z</time>
      </trkpt>
      <trkpt lat="48.79582" lon="-3.25339">
        <ele>64</ele>
        <time>2015-01-18T09:44:45Z</time>
      </trkpt>
      <trkpt lat="48.79581" lon="-3.2535">
        <ele>64</ele>
        <time>2015-01-18T09:44:46Z</time>
      </trkpt>
      <trkpt lat="48.7958" lon="-3.2536">
        <ele>64</ele>
        <time>2015-01-18T09:44:47Z</time>
      </trkpt>
      <trkpt lat="48.79579" lon="-3.25371">
        <ele>64</ele>
        <time>2015-01-18T09:44:48Z</time>
      </trkpt>
      <trkpt lat="48.79578" lon="-3.25381">
        <ele>64</ele>
        <time>2015-01-18T09:44:49Z</time>
      </trkpt>
      <trkpt lat="48.79577" lon="-3.25391">
        <ele>64</ele>
        <time>2015-01-18T09:44:51Z</time>
      </trkpt>
      <trkpt lat="48.79575" lon="-3.254">
        <ele>64</ele>
        <time>2015-01-18T09:44:51Z</time>
      </trkpt>
      <trkpt lat="48.79573" lon="-3.25409">
        <ele>64</ele>
        <time>2015-01-18T09:44:52Z</time>
      </trkpt>
      <trkpt lat="48.79572" lon="-3.25417">
        <ele>64</ele>
        <time>2015-01-18T09:44:53Z</time>
      </trkpt>
      <trkpt lat="48.7957" lon="-3.25425">
        <ele>64</ele>
        <time>2015-01-18T09:44:54Z</time>
      </trkpt>
      <trkpt lat="48.79568" lon="-3.25433">
        <ele>64</ele>
        <time>2015-01-18T09:44:55Z</time>
      </trkpt>
      <trkpt lat="48.79566" lon="-3.25442">
        <ele>64</ele>
        <time>2015-01-18T09:44:56Z</time>
      </trkpt>
      <trkpt lat="48.79564" lon="-3.2545">
        <ele>64</ele>
        <time>2015-01-18T09:44:57Z</time>
      </trkpt>
      <trkpt lat="48.79562" lon="-3.25459">
        <ele>64</ele>
        <time>2015-01-18T09:44:58Z</time>
      </trkpt>
      <trkpt lat="48.7956" lon="-3.25468">
        <ele>64</ele>
        <time>2015-01-18T09:44:59Z</time>
      </trkpt>
      <trkpt lat="48.79557" lon="-3.25477">
        <ele>64</ele>
        <time>2015-01-18T09:45:00Z</time>
      </trkpt>
      <trkpt lat="48.79555" lon="-3.25485">
        <ele>64</ele>
        <time>2015-01-18T09:45:01Z</time>
      </trkpt>
      <trkpt lat="48.79553" lon="-3.25494">
        <ele>64</ele>
        <time>2015-01-18T09:45:02Z</time>
      </trkpt>
      <trkpt lat="48.79551" lon="-3.25502">
        <ele>64</ele>
        <time>2015-01-18T09:45:03Z</time>
      </trkpt>
      <trkpt lat="48.79549" lon="-3.25511">
        <ele>64</ele>
        <time>2015-01-18T09:45:04Z</time>
      </trkpt>
      <trkpt lat="48.79547" lon="-3.25519">
        <ele>64</ele>
        <time>2015-01-18T09:45:05Z</time>
      </trkpt>
      <trkpt lat="48.79545" lon="-3.25528">
        <ele>64</ele>
        <time>2015-01-18T09:45:06Z</time>
      </trkpt>
      <trkpt lat="48.79543" lon="-3.25537">
        <ele>64</ele>
        <time>2015-01-18T09:45:07Z</time>
      </trkpt>
      <trkpt lat="48.7954" lon="-3.25546">
        <ele>64</ele>
        <time>2015-01-18T09:45:08Z</time>
      </trkpt>
      <trkpt lat="48.79538" lon="-3.25555">
        <ele>64</ele>
        <time>2015-01-18T09:45:09Z</time>
      </trkpt>
      <trkpt lat="48.79536" lon="-3.25565">
        <ele>64</ele>
        <time>2015-01-18T09:45:10Z</time>
      </trkpt>
      <trkpt lat="48.79533" lon="-3.25574">
        <ele>64</ele>
        <time>2015-01-18T09:45:11Z</time>
      </trkpt>
      <trkpt lat="48.79531" lon="-3.25584">
        <ele>64</ele>
        <time>2015-01-18T09:45:12Z</time>
      </trkpt>
      <trkpt lat="48.79529" lon="-3.25594">
        <ele>64</ele>
        <time>2015-01-18T09:45:13Z</time>
      </trkpt>
      <trkpt lat="48.79526" lon="-3.25604">
        <ele>64</ele>
        <time>2015-01-18T09:45:14Z</time>
      </trkpt>
      <trkpt lat="48.79523" lon="-3.25614">
        <ele>64</ele>
        <time>2015-01-18T09:45:15Z</time>
      </trkpt>
      <trkpt lat="48.79521" lon="-3.25623">
        <ele>64</ele>
        <time>2015-01-18T09:45:16Z</time>
      </trkpt>
      <trkpt lat="48.79518" lon="-3.25634">
        <ele>64</ele>
        <time>2015-01-18T09:45:17Z</time>
      </trkpt>
      <trkpt lat="48.79515" lon="-3.25643">
        <ele>64</ele>
        <time>2015-01-18T09:45:18Z</time>
      </trkpt>
      <trkpt lat="48.79511" lon="-3.25653">
        <ele>64</ele>
        <time>2015-01-18T09:45:19Z</time>
      </trkpt>
      <trkpt lat="48.79507" lon="-3.25663">
        <ele>64</ele>
        <time>2015-01-18T09:45:20Z</time>
      </trkpt>
      <trkpt lat="48.79503" lon="-3.25672">
        <ele>64</ele>
        <time>2015-01-18T09:45:21Z</time>
      </trkpt>
      <trkpt lat="48.79499" lon="-3.25682">
        <ele>64</ele>
        <time>2015-01-18T09:45:22Z</time>
      </trkpt>
      <trkpt lat="48.79494" lon="-3.25691">
        <ele>64</ele>
        <time>2015-01-18T09:45:23Z</time>
      </trkpt>
      <trkpt lat="48.7949" lon="-3.257">
        <ele>64</ele>
        <time>2015-01-18T09:45:24Z</time>
      </trkpt>
      <trkpt lat="48.79485" lon="-3.2571">
        <ele>64</ele>
        <time>2015-01-18T09:45:25Z</time>
      </trkpt>
      <trkpt lat="48.7948" lon="-3.25719">
        <ele>64</ele>
        <time>2015-01-18T09:45:26Z</time>
      </trkpt>
      <trkpt lat="48.79475" lon="-3.25729">
        <ele>64</ele>
        <time>2015-01-18T09:45:27Z</time>
      </trkpt>
      <trkpt lat="48.79471" lon="-3.25739">
        <ele>64</ele>
        <time>2015-01-18T09:45:28Z</time>
      </trkpt>
      <trkpt lat="48.79467" lon="-3.25749">
        <ele>64</ele>
        <time>2015-01-18T09:45:29Z</time>
      </trkpt>
      <trkpt lat="48.79464" lon="-3.25759">
        <ele>64</ele>
        <time>2015-01-18T09:45:30Z</time>
      </trkpt>
      <trkpt lat="48.7946" lon="-3.25769">
        <ele>64</ele>
        <time>2015-01-18T09:45:31Z</time>
      </trkpt>
      <trkpt lat="48.79458" lon="-3.2578">
        <ele>64</ele>
        <time>2015-01-18T09:45:32Z</time>
      </trkpt>
      <trkpt lat="48.79455" lon="-3.25791">
        <ele>64</ele>
        <time>2015-01-18T09:45:33Z</time>
      </trkpt>
      <trkpt lat="48.79453" lon="-3.25801">
        <ele>64</ele>
        <time>2015-01-18T09:45:34Z</time>
      </trkpt>
      <trkpt lat="48.7945" lon="-3.25812">
        <ele>64</ele>
        <time>2015-01-18T09:45:35Z</time>
      </trkpt>
      <trkpt lat="48.79448" lon="-3.25823">
        <ele>64</ele>
        <time>2015-01-18T09:45:36Z</time>
      </trkpt>
      <trkpt lat="48.79446" lon="-3.25833">
        <ele>64</ele>
        <time>2015-01-18T09:45:37Z</time>
      </trkpt>
      <trkpt lat="48.79444" lon="-3.25844">
        <ele>64</ele>
        <time>2015-01-18T09:45:38Z</time>
      </trkpt>
      <trkpt lat="48.79441" lon="-3.25854">
        <ele>64</ele>
        <time>2015-01-18T09:45:39Z</time>
      </trkpt>
      <trkpt lat="48.79439" lon="-3.25864">
        <ele>64</ele>
        <time>2015-01-18T09:45:40Z</time>
      </trkpt>
      <trkpt lat="48.79436" lon="-3.25874">
        <ele>64</ele>
        <time>2015-01-18T09:45:41Z</time>
      </trkpt>
      <trkpt lat="48.79433" lon="-3.25885">
        <ele>64</ele>
        <time>2015-01-18T09:45:42Z</time>
      </trkpt>
      <trkpt lat="48.7943" lon="-3.25895">
        <ele>64</ele>
        <time>2015-01-18T09:45:43Z</time>
      </trkpt>
      <trkpt lat="48.79427" lon="-3.25905">
        <ele>64</ele>
        <time>2015-01-18T09:45:44Z</time>
      </trkpt>
      <trkpt lat="48.79424" lon="-3.25916">
        <ele>64</ele>
        <time>2015-01-18T09:45:45Z</time>
      </trkpt>
      <trkpt lat="48.7942" lon="-3.25926">
        <ele>64</ele>
        <time>2015-01-18T09:45:46Z</time>
      </trkpt>
      <trkpt lat="48.79417" lon="-3.25936">
        <ele>64</ele>
        <time>2015-01-18T09:45:47Z</time>
      </trkpt>
      <trkpt lat="48.79413" lon="-3.25946">
        <ele>64</ele>
        <time>2015-01-18T09:45:48Z</time>
      </trkpt>
      <trkpt lat="48.7941" lon="-3.25956">
        <ele>64</ele>
        <time>2015-01-18T09:45:49Z</time>
      </trkpt>
      <trkpt lat="48.79406" lon="-3.25966">
        <ele>64</ele>
        <time>2015-01-18T09:45:50Z</time>
      </trkpt>
      <trkpt lat="48.79403" lon="-3.25975">
        <ele>64</ele>
        <time>2015-01-18T09:45:51Z</time>
      </trkpt>
      <trkpt lat="48.794" lon="-3.25985">
        <ele>64</ele>
        <time>2015-01-18T09:45:52Z</time>
      </trkpt>
      <trkpt lat="48.79396" lon="-3.25995">
        <ele>64</ele>
        <time>2015-01-18T09:45:53Z</time>
      </trkpt>
      <trkpt lat="48.79393" lon="-3.26005">
        <ele>64</ele>
        <time>2015-01-18T09:45:54Z</time>
      </trkpt>
      <trkpt lat="48.79389" lon="-3.26015">
        <ele>64</ele>
        <time>2015-01-18T09:45:55Z</time>
      </trkpt>
      <trkpt lat="48.79385" lon="-3.26025">
        <ele>64</ele>
        <time>2015-01-18T09:45:56Z</time>
      </trkpt>
      <trkpt lat="48.79382" lon="-3.26035">
        <ele>64</ele>
        <time>2015-01-18T09:45:57Z</time>
      </trkpt>
      <trkpt lat="48.79378" lon="-3.26045">
        <ele>64</ele>
        <time>2015-01-18T09:45:58Z</time>
      </trkpt>
      <trkpt lat="48.79374" lon="-3.26056">
        <ele>64</ele>
        <time>2015-01-18T09:45:59Z</time>
      </trkpt>
      <trkpt lat="48.79371" lon="-3.26066">
        <ele>64</ele>
        <time>2015-01-18T09:46:00Z</time>
      </trkpt>
      <trkpt lat="48.79367" lon="-3.26076">
        <ele>64</ele>
        <time>2015-01-18T09:46:01Z</time>
      </trkpt>
      <trkpt lat="48.79364" lon="-3.26087">
        <ele>64</ele>
        <time>2015-01-18T09:46:02Z</time>
      </trkpt>
      <trkpt lat="48.7936" lon="-3.26097">
        <ele>64</ele>
        <time>2015-01-18T09:46:03Z</time>
      </trkpt>
      <trkpt lat="48.79357" lon="-3.26108">
        <ele>64</ele>
        <time>2015-01-18T09:46:04Z</time>
      </trkpt>
      <trkpt lat="48.79354" lon="-3.26119">
        <ele>64</ele>
        <time>2015-01-18T09:46:05Z</time>
      </trkpt>
      <trkpt lat="48.79351" lon="-3.2613">
        <ele>64</ele>
        <time>2015-01-18T09:46:06Z</time>
      </trkpt>
      <trkpt lat="48.79347" lon="-3.26141">
        <ele>64</ele>
        <time>2015-01-18T09:46:07Z</time>
      </trkpt>
      <trkpt lat="48.79344" lon="-3.26151">
        <ele>64</ele>
        <time>2015-01-18T09:46:08Z</time>
      </trkpt>
      <trkpt lat="48.79341" lon="-3.26163">
        <ele>64</ele>
        <time>2015-01-18T09:46:09Z</time>
      </trkpt>
      <trkpt lat="48.79338" lon="-3.26173">
        <ele>64</ele>
        <time>2015-01-18T09:46:10Z</time>
      </trkpt>
      <trkpt lat="48.79335" lon="-3.26184">
        <ele>64</ele>
        <time>2015-01-18T09:46:11Z</time>
      </trkpt>
      <trkpt lat="48.79332" lon="-3.26195">
        <ele>64</ele>
        <time>2015-01-18T09:46:12Z</time>
      </trkpt>
      <trkpt lat="48.79328" lon="-3.26206">
        <ele>64</ele>
        <time>2015-01-18T09:46:13Z</time>
      </trkpt>
      <trkpt lat="48.79325" lon="-3.26217">
        <ele>64</ele>
        <time>2015-01-18T09:46:14Z</time>
      </trkpt>
      <trkpt lat="48.79322" lon="-3.26228">
        <ele>64</ele>
        <time>2015-01-18T09:46:15Z</time>
      </trkpt>
      <trkpt lat="48.79319" lon="-3.26238">
        <ele>64</ele>
        <time>2015-01-18T09:46:16Z</time>
      </trkpt>
      <trkpt lat="48.79316" lon="-3.26248">
        <ele>64</ele>
        <time>2015-01-18T09:46:17Z</time>
      </trkpt>
      <trkpt lat="48.79312" lon="-3.26258">
        <ele>64</ele>
        <time>2015-01-18T09:46:18Z</time>
      </trkpt>
      <trkpt lat="48.79309" lon="-3.26268">
        <ele>64</ele>
        <time>2015-01-18T09:46:19Z</time>
      </trkpt>
      <trkpt lat="48.79305" lon="-3.26278">
        <ele>64</ele>
        <time>2015-01-18T09:46:20Z</time>
      </trkpt>
      <trkpt lat="48.79302" lon="-3.26288">
        <ele>64</ele>
        <time>2015-01-18T09:46:21Z</time>
      </trkpt>
      <trkpt lat="48.79298" lon="-3.26297">
        <ele>64</ele>
        <time>2015-01-18T09:46:22Z</time>
      </trkpt>
      <trkpt lat="48.79294" lon="-3.26307">
        <ele>64</ele>
        <time>2015-01-18T09:46:23Z</time>
      </trkpt>
      <trkpt lat="48.79291" lon="-3.26317">
        <ele>64</ele>
        <time>2015-01-18T09:46:24Z</time>
      </trkpt>
      <trkpt lat="48.79287" lon="-3.26327">
        <ele>64</ele>
        <time>2015-01-18T09:46:25Z</time>
      </trkpt>
      <trkpt lat="48.79284" lon="-3.26338">
        <ele>64</ele>
        <time>2015-01-18T09:46:26Z</time>
      </trkpt>
      <trkpt lat="48.79281" lon="-3.26348">
        <ele>64</ele>
        <time>2015-01-18T09:46:27Z</time>
      </trkpt>
      <trkpt lat="48.79278" lon="-3.26359">
        <ele>64</ele>
        <time>2015-01-18T09:46:28Z</time>
      </trkpt>
      <trkpt lat="48.79276" lon="-3.26369">
        <ele>64</ele>
        <time>2015-01-18T09:46:29Z</time>
      </trkpt>
      <trkpt lat="48.79273" lon="-3.2638">
        <ele>64</ele>
        <time>2015-01-18T09:46:30Z</time>
      </trkpt>
      <trkpt lat="48.79271" lon="-3.26391">
        <ele>64</ele>
        <time>2015-01-18T09:46:31Z</time>
      </trkpt>
      <trkpt lat="48.79268" lon="-3.26402">
        <ele>64</ele>
        <time>2015-01-18T09:46:32Z</time>
      </trkpt>
      <trkpt lat="48.79266" lon="-3.26412">
        <ele>64</ele>
        <time>2015-01-18T09:46:33Z</time>
      </trkpt>
      <trkpt lat="48.79263" lon="-3.26423">
        <ele>64</ele>
        <time>2015-01-18T09:46:34Z</time>
      </trkpt>
      <trkpt lat="48.79261" lon="-3.26433">
        <ele>65</ele>
        <time>2015-01-18T09:46:35Z</time>
      </trkpt>
      <trkpt lat="48.79258" lon="-3.26443">
        <ele>65</ele>
        <time>2015-01-18T09:46:36Z</time>
      </trkpt>
      <trkpt lat="48.79254" lon="-3.26454">
        <ele>65</ele>
        <time>2015-01-18T09:46:37Z</time>
      </trkpt>
      <trkpt lat="48.79251" lon="-3.26464">
        <ele>65</ele>
        <time>2015-01-18T09:46:38Z</time>
      </trkpt>
      <trkpt lat="48.79248" lon="-3.26474">
        <ele>65</ele>
        <time>2015-01-18T09:46:39Z</time>
      </trkpt>
      <trkpt lat="48.79244" lon="-3.26484">
        <ele>65</ele>
        <time>2015-01-18T09:46:40Z</time>
      </trkpt>
      <trkpt lat="48.79241" lon="-3.26494">
        <ele>65</ele>
        <time>2015-01-18T09:46:41Z</time>
      </trkpt>
      <trkpt lat="48.79237" lon="-3.26504">
        <ele>65</ele>
        <time>2015-01-18T09:46:42Z</time>
      </trkpt>
      <trkpt lat="48.79234" lon="-3.26514">
        <ele>65</ele>
        <time>2015-01-18T09:46:43Z</time>
      </trkpt>
      <trkpt lat="48.7923" lon="-3.26523">
        <ele>66</ele>
        <time>2015-01-18T09:46:44Z</time>
      </trkpt>
      <trkpt lat="48.79227" lon="-3.26533">
        <ele>66</ele>
        <time>2015-01-18T09:46:45Z</time>
      </trkpt>
      <trkpt lat="48.79223" lon="-3.26543">
        <ele>66</ele>
        <time>2015-01-18T09:46:46Z</time>
      </trkpt>
      <trkpt lat="48.79219" lon="-3.26553">
        <ele>66</ele>
        <time>2015-01-18T09:46:47Z</time>
      </trkpt>
      <trkpt lat="48.79215" lon="-3.26563">
        <ele>66</ele>
        <time>2015-01-18T09:46:48Z</time>
      </trkpt>
      <trkpt lat="48.79212" lon="-3.26573">
        <ele>66</ele>
        <time>2015-01-18T09:46:49Z</time>
      </trkpt>
      <trkpt lat="48.79208" lon="-3.26584">
        <ele>66</ele>
        <time>2015-01-18T09:46:50Z</time>
      </trkpt>
      <trkpt lat="48.79205" lon="-3.26594">
        <ele>66</ele>
        <time>2015-01-18T09:46:51Z</time>
      </trkpt>
      <trkpt lat="48.79203" lon="-3.26605">
        <ele>66</ele>
        <time>2015-01-18T09:46:52Z</time>
      </trkpt>
      <trkpt lat="48.792" lon="-3.26615">
        <ele>66</ele>
        <time>2015-01-18T09:46:53Z</time>
      </trkpt>
      <trkpt lat="48.79197" lon="-3.26625">
        <ele>66</ele>
        <time>2015-01-18T09:46:54Z</time>
      </trkpt>
      <trkpt lat="48.79194" lon="-3.26636">
        <ele>66</ele>
        <time>2015-01-18T09:46:55Z</time>
      </trkpt>
      <trkpt lat="48.79191" lon="-3.26646">
        <ele>66</ele>
        <time>2015-01-18T09:46:56Z</time>
      </trkpt>
      <trkpt lat="48.79187" lon="-3.26656">
        <ele>67</ele>
        <time>2015-01-18T09:46:57Z</time>
      </trkpt>
      <trkpt lat="48.79184" lon="-3.26665">
        <ele>67</ele>
        <time>2015-01-18T09:46:58Z</time>
      </trkpt>
      <trkpt lat="48.7918" lon="-3.26674">
        <ele>67</ele>
        <time>2015-01-18T09:46:59Z</time>
      </trkpt>
      <trkpt lat="48.79175" lon="-3.26683">
        <ele>67</ele>
        <time>2015-01-18T09:47:00Z</time>
      </trkpt>
      <trkpt lat="48.79171" lon="-3.26692">
        <ele>67</ele>
        <time>2015-01-18T09:47:01Z</time>
      </trkpt>
      <trkpt lat="48.79166" lon="-3.26701">
        <ele>67</ele>
        <time>2015-01-18T09:47:02Z</time>
      </trkpt>
      <trkpt lat="48.79161" lon="-3.26711">
        <ele>67</ele>
        <time>2015-01-18T09:47:03Z</time>
      </trkpt>
      <trkpt lat="48.79157" lon="-3.2672">
        <ele>67</ele>
        <time>2015-01-18T09:47:04Z</time>
      </trkpt>
      <trkpt lat="48.79153" lon="-3.2673">
        <ele>67</ele>
        <time>2015-01-18T09:47:05Z</time>
      </trkpt>
      <trkpt lat="48.7915" lon="-3.2674">
        <ele>67</ele>
        <time>2015-01-18T09:47:06Z</time>
      </trkpt>
      <trkpt lat="48.79147" lon="-3.2675">
        <ele>67</ele>
        <time>2015-01-18T09:47:07Z</time>
      </trkpt>
      <trkpt lat="48.79144" lon="-3.2676">
        <ele>67</ele>
        <time>2015-01-18T09:47:08Z</time>
      </trkpt>
      <trkpt lat="48.79142" lon="-3.26771">
        <ele>67</ele>
        <time>2015-01-18T09:47:09Z</time>
      </trkpt>
      <trkpt lat="48.7914" lon="-3.26782">
        <ele>67</ele>
        <time>2015-01-18T09:47:10Z</time>
      </trkpt>
      <trkpt lat="48.79139" lon="-3.26793">
        <ele>67</ele>
        <time>2015-01-18T09:47:11Z</time>
      </trkpt>
      <trkpt lat="48.79137" lon="-3.26804">
        <ele>67</ele>
        <time>2015-01-18T09:47:12Z</time>
      </trkpt>
      <trkpt lat="48.79137" lon="-3.26815">
        <ele>67</ele>
        <time>2015-01-18T09:47:13Z</time>
      </trkpt>
      <trkpt lat="48.79136" lon="-3.26826">
        <ele>67</ele>
        <time>2015-01-18T09:47:14Z</time>
      </trkpt>
      <trkpt lat="48.79136" lon="-3.26837">
        <ele>67</ele>
        <time>2015-01-18T09:47:15Z</time>
      </trkpt>
      <trkpt lat="48.79135" lon="-3.26848">
        <ele>67</ele>
        <time>2015-01-18T09:47:16Z</time>
      </trkpt>
      <trkpt lat="48.79134" lon="-3.2686">
        <ele>67</ele>
        <time>2015-01-18T09:47:17Z</time>
      </trkpt>
      <trkpt lat="48.79133" lon="-3.26871">
        <ele>67</ele>
        <time>2015-01-18T09:47:18Z</time>
      </trkpt>
      <trkpt lat="48.79132" lon="-3.26882">
        <ele>67</ele>
        <time>2015-01-18T09:47:19Z</time>
      </trkpt>
      <trkpt lat="48.79131" lon="-3.26893">
        <ele>67</ele>
        <time>2015-01-18T09:47:20Z</time>
      </trkpt>
      <trkpt lat="48.79131" lon="-3.26904">
        <ele>67</ele>
        <time>2015-01-18T09:47:21Z</time>
      </trkpt>
      <trkpt lat="48.79129" lon="-3.26915">
        <ele>67</ele>
        <time>2015-01-18T09:47:22Z</time>
      </trkpt>
      <trkpt lat="48.79128" lon="-3.26926">
        <ele>67</ele>
        <time>2015-01-18T09:47:23Z</time>
      </trkpt>
      <trkpt lat="48.79127" lon="-3.26938">
        <ele>67</ele>
        <time>2015-01-18T09:47:24Z</time>
      </trkpt>
      <trkpt lat="48.79126" lon="-3.26949">
        <ele>67</ele>
        <time>2015-01-18T09:47:25Z</time>
      </trkpt>
      <trkpt lat="48.79124" lon="-3.2696">
        <ele>67</ele>
        <time>2015-01-18T09:47:26Z</time>
      </trkpt>
      <trkpt lat="48.79123" lon="-3.26971">
        <ele>67</ele>
        <time>2015-01-18T09:47:27Z</time>
      </trkpt>
      <trkpt lat="48.79121" lon="-3.26982">
        <ele>67</ele>
        <time>2015-01-18T09:47:28Z</time>
      </trkpt>
      <trkpt lat="48.7912" lon="-3.26993">
        <ele>67</ele>
        <time>2015-01-18T09:47:29Z</time>
      </trkpt>
      <trkpt lat="48.79119" lon="-3.27004">
        <ele>67</ele>
        <time>2015-01-18T09:47:30Z</time>
      </trkpt>
      <trkpt lat="48.79118" lon="-3.27016">
        <ele>67</ele>
        <time>2015-01-18T09:47:31Z</time>
      </trkpt>
      <trkpt lat="48.79117" lon="-3.27027">
        <ele>67</ele>
        <time>2015-01-18T09:47:32Z</time>
      </trkpt>
      <trkpt lat="48.79116" lon="-3.27038">
        <ele>67</ele>
        <time>2015-01-18T09:47:33Z</time>
      </trkpt>
      <trkpt lat="48.79116" lon="-3.2705">
        <ele>67</ele>
        <time>2015-01-18T09:47:34Z</time>
      </trkpt>
      <trkpt lat="48.79115" lon="-3.27061">
        <ele>67</ele>
        <time>2015-01-18T09:47:35Z</time>
      </trkpt>
      <trkpt lat="48.79115" lon="-3.27072">
        <ele>67</ele>
        <time>2015-01-18T09:47:36Z</time>
      </trkpt>
      <trkpt lat="48.79115" lon="-3.27083">
        <ele>67</ele>
        <time>2015-01-18T09:47:37Z</time>
      </trkpt>
      <trkpt lat="48.79115" lon="-3.27118">
        <ele>67</ele>
        <time>2015-01-18T09:47:40Z</time>
      </trkpt>
      <trkpt lat="48.79115" lon="-3.27129">
        <ele>67</ele>
        <time>2015-01-18T09:47:41Z</time>
      </trkpt>
      <trkpt lat="48.79116" lon="-3.27141">
        <ele>67</ele>
        <time>2015-01-18T09:47:42Z</time>
      </trkpt>
      <trkpt lat="48.79116" lon="-3.27152">
        <ele>67</ele>
        <time>2015-01-18T09:47:43Z</time>
      </trkpt>
      <trkpt lat="48.79117" lon="-3.27164">
        <ele>67</ele>
        <time>2015-01-18T09:47:44Z</time>
      </trkpt>
      <trkpt lat="48.79119" lon="-3.27175">
        <ele>67</ele>
        <time>2015-01-18T09:47:45Z</time>
      </trkpt>
      <trkpt lat="48.7912" lon="-3.27187">
        <ele>67</ele>
        <time>2015-01-18T09:47:46Z</time>
      </trkpt>
      <trkpt lat="48.79122" lon="-3.27198">
        <ele>67</ele>
        <time>2015-01-18T09:47:47Z</time>
      </trkpt>
      <trkpt lat="48.79124" lon="-3.2721">
        <ele>67</ele>
        <time>2015-01-18T09:47:48Z</time>
      </trkpt>
      <trkpt lat="48.79126" lon="-3.27222">
        <ele>67</ele>
        <time>2015-01-18T09:47:49Z</time>
      </trkpt>
      <trkpt lat="48.79129" lon="-3.27234">
        <ele>67</ele>
        <time>2015-01-18T09:47:50Z</time>
      </trkpt>
      <trkpt lat="48.79132" lon="-3.27245">
        <ele>67</ele>
        <time>2015-01-18T09:47:51Z</time>
      </trkpt>
      <trkpt lat="48.79134" lon="-3.27257">
        <ele>67</ele>
        <time>2015-01-18T09:47:52Z</time>
      </trkpt>
      <trkpt lat="48.79137" lon="-3.27269">
        <ele>67</ele>
        <time>2015-01-18T09:47:53Z</time>
      </trkpt>
      <trkpt lat="48.79141" lon="-3.2728">
        <ele>67</ele>
        <time>2015-01-18T09:47:54Z</time>
      </trkpt>
      <trkpt lat="48.79144" lon="-3.27292">
        <ele>67</ele>
        <time>2015-01-18T09:47:55Z</time>
      </trkpt>
      <trkpt lat="48.79147" lon="-3.27303">
        <ele>67</ele>
        <time>2015-01-18T09:47:56Z</time>
      </trkpt>
      <trkpt lat="48.7915" lon="-3.27315">
        <ele>67</ele>
        <time>2015-01-18T09:47:57Z</time>
      </trkpt>
      <trkpt lat="48.79154" lon="-3.27326">
        <ele>67</ele>
        <time>2015-01-18T09:47:58Z</time>
      </trkpt>
      <trkpt lat="48.79157" lon="-3.27338">
        <ele>67</ele>
        <time>2015-01-18T09:47:59Z</time>
      </trkpt>
      <trkpt lat="48.79161" lon="-3.27349">
        <ele>67</ele>
        <time>2015-01-18T09:48:00Z</time>
      </trkpt>
      <trkpt lat="48.79164" lon="-3.2736">
        <ele>67</ele>
        <time>2015-01-18T09:48:01Z</time>
      </trkpt>
      <trkpt lat="48.79168" lon="-3.27372">
        <ele>67</ele>
        <time>2015-01-18T09:48:02Z</time>
      </trkpt>
      <trkpt lat="48.79171" lon="-3.27383">
        <ele>67</ele>
        <time>2015-01-18T09:48:03Z</time>
      </trkpt>
      <trkpt lat="48.79175" lon="-3.27394">
        <ele>67</ele>
        <time>2015-01-18T09:48:04Z</time>
      </trkpt>
      <trkpt lat="48.79178" lon="-3.27406">
        <ele>67</ele>
        <time>2015-01-18T09:48:05Z</time>
      </trkpt>
      <trkpt lat="48.79182" lon="-3.27417">
        <ele>67</ele>
        <time>2015-01-18T09:48:06Z</time>
      </trkpt>
      <trkpt lat="48.79185" lon="-3.27429">
        <ele>67</ele>
        <time>2015-01-18T09:48:07Z</time>
      </trkpt>
      <trkpt lat="48.79189" lon="-3.27441">
        <ele>67</ele>
        <time>2015-01-18T09:48:08Z</time>
      </trkpt>
      <trkpt lat="48.79192" lon="-3.27453">
        <ele>67</ele>
        <time>2015-01-18T09:48:09Z</time>
      </trkpt>
      <trkpt lat="48.79196" lon="-3.27465">
        <ele>67</ele>
        <time>2015-01-18T09:48:10Z</time>
      </trkpt>
      <trkpt lat="48.792" lon="-3.27477">
        <ele>67</ele>
        <time>2015-01-18T09:48:11Z</time>
      </trkpt>
      <trkpt lat="48.79203" lon="-3.27489">
        <ele>67</ele>
        <time>2015-01-18T09:48:12Z</time>
      </trkpt>
      <trkpt lat="48.79207" lon="-3.27502">
        <ele>67</ele>
        <time>2015-01-18T09:48:13Z</time>
      </trkpt>
      <trkpt lat="48.79211" lon="-3.27514">
        <ele>67</ele>
        <time>2015-01-18T09:48:14Z</time>
      </trkpt>
      <trkpt lat="48.79215" lon="-3.27526">
        <ele>67</ele>
        <time>2015-01-18T09:48:15Z</time>
      </trkpt>
      <trkpt lat="48.79219" lon="-3.27538">
        <ele>67</ele>
        <time>2015-01-18T09:48:16Z</time>
      </trkpt>
      <trkpt lat="48.79223" lon="-3.27551">
        <ele>67</ele>
        <time>2015-01-18T09:48:17Z</time>
      </trkpt>
      <trkpt lat="48.79227" lon="-3.27563">
        <ele>67</ele>
        <time>2015-01-18T09:48:18Z</time>
      </trkpt>
      <trkpt lat="48.79232" lon="-3.27574">
        <ele>67</ele>
        <time>2015-01-18T09:48:19Z</time>
      </trkpt>
      <trkpt lat="48.79236" lon="-3.27586">
        <ele>67</ele>
        <time>2015-01-18T09:48:20Z</time>
      </trkpt>
      <trkpt lat="48.7924" lon="-3.27598">
        <ele>67</ele>
        <time>2015-01-18T09:48:21Z</time>
      </trkpt>
      <trkpt lat="48.79243" lon="-3.2761">
        <ele>67</ele>
        <time>2015-01-18T09:48:22Z</time>
      </trkpt>
      <trkpt lat="48.79247" lon="-3.27622">
        <ele>67</ele>
        <time>2015-01-18T09:48:23Z</time>
      </trkpt>
      <trkpt lat="48.79251" lon="-3.27634">
        <ele>67</ele>
        <time>2015-01-18T09:48:24Z</time>
      </trkpt>
      <trkpt lat="48.79254" lon="-3.27645">
        <ele>67</ele>
        <time>2015-01-18T09:48:25Z</time>
      </trkpt>
      <trkpt lat="48.79258" lon="-3.27658">
        <ele>67</ele>
        <time>2015-01-18T09:48:26Z</time>
      </trkpt>
      <trkpt lat="48.79261" lon="-3.2767">
        <ele>67</ele>
        <time>2015-01-18T09:48:27Z</time>
      </trkpt>
      <trkpt lat="48.79265" lon="-3.27683">
        <ele>67</ele>
        <time>2015-01-18T09:48:28Z</time>
      </trkpt>
      <trkpt lat="48.79269" lon="-3.27695">
        <ele>67</ele>
        <time>2015-01-18T09:48:29Z</time>
      </trkpt>
      <trkpt lat="48.79272" lon="-3.27707">
        <ele>67</ele>
        <time>2015-01-18T09:48:30Z</time>
      </trkpt>
      <trkpt lat="48.79276" lon="-3.2772">
        <ele>67</ele>
        <time>2015-01-18T09:48:31Z</time>
      </trkpt>
      <trkpt lat="48.79279" lon="-3.27732">
        <ele>67</ele>
        <time>2015-01-18T09:48:32Z</time>
      </trkpt>
      <trkpt lat="48.79282" lon="-3.27745">
        <ele>67</ele>
        <time>2015-01-18T09:48:33Z</time>
      </trkpt>
      <trkpt lat="48.79285" lon="-3.27757">
        <ele>67</ele>
        <time>2015-01-18T09:48:34Z</time>
      </trkpt>
      <trkpt lat="48.79288" lon="-3.27769">
        <ele>67</ele>
        <time>2015-01-18T09:48:35Z</time>
      </trkpt>
      <trkpt lat="48.79292" lon="-3.27781">
        <ele>67</ele>
        <time>2015-01-18T09:48:36Z</time>
      </trkpt>
      <trkpt lat="48.79295" lon="-3.27794">
        <ele>67</ele>
        <time>2015-01-18T09:48:37Z</time>
      </trkpt>
      <trkpt lat="48.79298" lon="-3.27806">
        <ele>67</ele>
        <time>2015-01-18T09:48:38Z</time>
      </trkpt>
      <trkpt lat="48.79301" lon="-3.27818">
        <ele>67</ele>
        <time>2015-01-18T09:48:39Z</time>
      </trkpt>
      <trkpt lat="48.79304" lon="-3.27829">
        <ele>67</ele>
        <time>2015-01-18T09:48:40Z</time>
      </trkpt>
      <trkpt lat="48.79308" lon="-3.27841">
        <ele>67</ele>
        <time>2015-01-18T09:48:41Z</time>
      </trkpt>
      <trkpt lat="48.79311" lon="-3.27852">
        <ele>67</ele>
        <time>2015-01-18T09:48:42Z</time>
      </trkpt>
      <trkpt lat="48.79315" lon="-3.27864">
        <ele>67</ele>
        <time>2015-01-18T09:48:43Z</time>
      </trkpt>
      <trkpt lat="48.79319" lon="-3.27876">
        <ele>67</ele>
        <time>2015-01-18T09:48:44Z</time>
      </trkpt>
      <trkpt lat="48.79322" lon="-3.27888">
        <ele>67</ele>
        <time>2015-01-18T09:48:45Z</time>
      </trkpt>
      <trkpt lat="48.79327" lon="-3.279">
        <ele>67</ele>
        <time>2015-01-18T09:48:46Z</time>
      </trkpt>
      <trkpt lat="48.79331" lon="-3.27913">
        <ele>67</ele>
        <time>2015-01-18T09:48:47Z</time>
      </trkpt>
      <trkpt lat="48.79335" lon="-3.27925">
        <ele>67</ele>
        <time>2015-01-18T09:48:48Z</time>
      </trkpt>
      <trkpt lat="48.79339" lon="-3.27937">
        <ele>67</ele>
        <time>2015-01-18T09:48:49Z</time>
      </trkpt>
      <trkpt lat="48.79343" lon="-3.27949">
        <ele>67</ele>
        <time>2015-01-18T09:48:50Z</time>
      </trkpt>
      <trkpt lat="48.79346" lon="-3.27961">
        <ele>67</ele>
        <time>2015-01-18T09:48:51Z</time>
      </trkpt>
      <trkpt lat="48.7935" lon="-3.27972">
        <ele>67</ele>
        <time>2015-01-18T09:48:52Z</time>
      </trkpt>
      <trkpt lat="48.79354" lon="-3.27984">
        <ele>67</ele>
        <time>2015-01-18T09:48:53Z</time>
      </trkpt>
      <trkpt lat="48.79357" lon="-3.27994">
        <ele>67</ele>
        <time>2015-01-18T09:48:54Z</time>
      </trkpt>
      <trkpt lat="48.79361" lon="-3.28005">
        <ele>67</ele>
        <time>2015-01-18T09:48:55Z</time>
      </trkpt>
      <trkpt lat="48.79364" lon="-3.28016">
        <ele>67</ele>
        <time>2015-01-18T09:48:56Z</time>
      </trkpt>
      <trkpt lat="48.79368" lon="-3.28027">
        <ele>67</ele>
        <time>2015-01-18T09:48:57Z</time>
      </trkpt>
      <trkpt lat="48.79371" lon="-3.28037">
        <ele>67</ele>
        <time>2015-01-18T09:48:58Z</time>
      </trkpt>
      <trkpt lat="48.79375" lon="-3.28047">
        <ele>67</ele>
        <time>2015-01-18T09:48:59Z</time>
      </trkpt>
      <trkpt lat="48.79379" lon="-3.28058">
        <ele>67</ele>
        <time>2015-01-18T09:49:00Z</time>
      </trkpt>
      <trkpt lat="48.79383" lon="-3.28068">
        <ele>67</ele>
        <time>2015-01-18T09:49:01Z</time>
      </trkpt>
      <trkpt lat="48.79388" lon="-3.28078">
        <ele>67</ele>
        <time>2015-01-18T09:49:02Z</time>
      </trkpt>
      <trkpt lat="48.79393" lon="-3.28087">
        <ele>67</ele>
        <time>2015-01-18T09:49:03Z</time>
      </trkpt>
      <trkpt lat="48.79398" lon="-3.28096">
        <ele>67</ele>
        <time>2015-01-18T09:49:04Z</time>
      </trkpt>
      <trkpt lat="48.79404" lon="-3.28104">
        <ele>67</ele>
        <time>2015-01-18T09:49:05Z</time>
      </trkpt>
      <trkpt lat="48.7941" lon="-3.28113">
        <ele>67</ele>
        <time>2015-01-18T09:49:06Z</time>
      </trkpt>
      <trkpt lat="48.79417" lon="-3.28121">
        <ele>67</ele>
        <time>2015-01-18T09:49:07Z</time>
      </trkpt>
      <trkpt lat="48.79423" lon="-3.2813">
        <ele>67</ele>
        <time>2015-01-18T09:49:08Z</time>
      </trkpt>
      <trkpt lat="48.79429" lon="-3.28138">
        <ele>67</ele>
        <time>2015-01-18T09:49:09Z</time>
      </trkpt>
      <trkpt lat="48.79435" lon="-3.28148">
        <ele>67</ele>
        <time>2015-01-18T09:49:10Z</time>
      </trkpt>
      <trkpt lat="48.7944" lon="-3.28157">
        <ele>67</ele>
        <time>2015-01-18T09:49:11Z</time>
      </trkpt>
      <trkpt lat="48.79446" lon="-3.28166">
        <ele>67</ele>
        <time>2015-01-18T09:49:12Z</time>
      </trkpt>
      <trkpt lat="48.79451" lon="-3.28176">
        <ele>67</ele>
        <time>2015-01-18T09:49:13Z</time>
      </trkpt>
      <trkpt lat="48.79456" lon="-3.28187">
        <ele>67</ele>
        <time>2015-01-18T09:49:14Z</time>
      </trkpt>
      <trkpt lat="48.79461" lon="-3.28197">
        <ele>67</ele>
        <time>2015-01-18T09:49:15Z</time>
      </trkpt>
      <trkpt lat="48.79465" lon="-3.28208">
        <ele>67</ele>
        <time>2015-01-18T09:49:16Z</time>
      </trkpt>
      <trkpt lat="48.7947" lon="-3.28219">
        <ele>67</ele>
        <time>2015-01-18T09:49:17Z</time>
      </trkpt>
      <trkpt lat="48.79474" lon="-3.2823">
        <ele>67</ele>
        <time>2015-01-18T09:49:18Z</time>
      </trkpt>
      <trkpt lat="48.79478" lon="-3.2824">
        <ele>67</ele>
        <time>2015-01-18T09:49:19Z</time>
      </trkpt>
      <trkpt lat="48.79483" lon="-3.28251">
        <ele>67</ele>
        <time>2015-01-18T09:49:20Z</time>
      </trkpt>
      <trkpt lat="48.79487" lon="-3.28261">
        <ele>67</ele>
        <time>2015-01-18T09:49:21Z</time>
      </trkpt>
      <trkpt lat="48.79491" lon="-3.28273">
        <ele>67</ele>
        <time>2015-01-18T09:49:22Z</time>
      </trkpt>
      <trkpt lat="48.79496" lon="-3.28283">
        <ele>67</ele>
        <time>2015-01-18T09:49:23Z</time>
      </trkpt>
      <trkpt lat="48.795" lon="-3.28294">
        <ele>67</ele>
        <time>2015-01-18T09:49:24Z</time>
      </trkpt>
      <trkpt lat="48.79504" lon="-3.28306">
        <ele>67</ele>
        <time>2015-01-18T09:49:25Z</time>
      </trkpt>
      <trkpt lat="48.79508" lon="-3.28317">
        <ele>67</ele>
        <time>2015-01-18T09:49:26Z</time>
      </trkpt>
      <trkpt lat="48.79511" lon="-3.28328">
        <ele>67</ele>
        <time>2015-01-18T09:49:27Z</time>
      </trkpt>
      <trkpt lat="48.79514" lon="-3.2834">
        <ele>67</ele>
        <time>2015-01-18T09:49:28Z</time>
      </trkpt>
      <trkpt lat="48.79517" lon="-3.28352">
        <ele>67</ele>
        <time>2015-01-18T09:49:29Z</time>
      </trkpt>
      <trkpt lat="48.79519" lon="-3.28364">
        <ele>67</ele>
        <time>2015-01-18T09:49:30Z</time>
      </trkpt>
      <trkpt lat="48.79521" lon="-3.28376">
        <ele>67</ele>
        <time>2015-01-18T09:49:31Z</time>
      </trkpt>
      <trkpt lat="48.79523" lon="-3.28389">
        <ele>67</ele>
        <time>2015-01-18T09:49:32Z</time>
      </trkpt>
      <trkpt lat="48.79524" lon="-3.28401">
        <ele>67</ele>
        <time>2015-01-18T09:49:33Z</time>
      </trkpt>
      <trkpt lat="48.79525" lon="-3.28414">
        <ele>67</ele>
        <time>2015-01-18T09:49:34Z</time>
      </trkpt>
      <trkpt lat="48.79525" lon="-3.28426">
        <ele>67</ele>
        <time>2015-01-18T09:49:35Z</time>
      </trkpt>
      <trkpt lat="48.79525" lon="-3.28451">
        <ele>67</ele>
        <time>2015-01-18T09:49:37Z</time>
      </trkpt>
      <trkpt lat="48.79524" lon="-3.28477">
        <ele>67</ele>
        <time>2015-01-18T09:49:39Z</time>
      </trkpt>
      <trkpt lat="48.79524" lon="-3.28489">
        <ele>67</ele>
        <time>2015-01-18T09:49:40Z</time>
      </trkpt>
      <trkpt lat="48.79523" lon="-3.28513">
        <ele>67</ele>
        <time>2015-01-18T09:49:42Z</time>
      </trkpt>
      <trkpt lat="48.79523" lon="-3.28537">
        <ele>67</ele>
        <time>2015-01-18T09:49:44Z</time>
      </trkpt>
      <trkpt lat="48.79523" lon="-3.28549">
        <ele>67</ele>
        <time>2015-01-18T09:49:45Z</time>
      </trkpt>
      <trkpt lat="48.79522" lon="-3.2856">
        <ele>67</ele>
        <time>2015-01-18T09:49:46Z</time>
      </trkpt>
      <trkpt lat="48.79522" lon="-3.28572">
        <ele>67</ele>
        <time>2015-01-18T09:49:47Z</time>
      </trkpt>
      <trkpt lat="48.79522" lon="-3.28583">
        <ele>67</ele>
        <time>2015-01-18T09:49:48Z</time>
      </trkpt>
      <trkpt lat="48.79521" lon="-3.28626">
        <ele>67</ele>
        <time>2015-01-18T09:49:52Z</time>
      </trkpt>
      <trkpt lat="48.79521" lon="-3.28647">
        <ele>67</ele>
        <time>2015-01-18T09:49:54Z</time>
      </trkpt>
      <trkpt lat="48.7952" lon="-3.28669">
        <ele>67</ele>
        <time>2015-01-18T09:49:56Z</time>
      </trkpt>
      <trkpt lat="48.7952" lon="-3.2868">
        <ele>67</ele>
        <time>2015-01-18T09:49:57Z</time>
      </trkpt>
      <trkpt lat="48.7952" lon="-3.28702">
        <ele>67</ele>
        <time>2015-01-18T09:49:59Z</time>
      </trkpt>
      <trkpt lat="48.79519" lon="-3.28724">
        <ele>68</ele>
        <time>2015-01-18T09:50:01Z</time>
      </trkpt>
      <trkpt lat="48.79519" lon="-3.28734">
        <ele>68</ele>
        <time>2015-01-18T09:50:02Z</time>
      </trkpt>
      <trkpt lat="48.79518" lon="-3.28753">
        <ele>68</ele>
        <time>2015-01-18T09:50:04Z</time>
      </trkpt>
      <trkpt lat="48.79517" lon="-3.28761">
        <ele>69</ele>
        <time>2015-01-18T09:50:05Z</time>
      </trkpt>
      <trkpt lat="48.79516" lon="-3.28769">
        <ele>69</ele>
        <time>2015-01-18T09:50:06Z</time>
      </trkpt>
      <trkpt lat="48.79515" lon="-3.28777">
        <ele>69</ele>
        <time>2015-01-18T09:50:07Z</time>
      </trkpt>
      <trkpt lat="48.79514" lon="-3.28784">
        <ele>69</ele>
        <time>2015-01-18T09:50:08Z</time>
      </trkpt>
      <trkpt lat="48.79515" lon="-3.28792">
        <ele>70</ele>
        <time>2015-01-18T09:50:09Z</time>
      </trkpt>
      <trkpt lat="48.79517" lon="-3.288">
        <ele>70</ele>
        <time>2015-01-18T09:50:10Z</time>
      </trkpt>
      <trkpt lat="48.79517" lon="-3.28807">
        <ele>70</ele>
        <time>2015-01-18T09:50:11Z</time>
      </trkpt>
      <trkpt lat="48.79517" lon="-3.28823">
        <ele>70</ele>
        <time>2015-01-18T09:50:13Z</time>
      </trkpt>
      <trkpt lat="48.79515" lon="-3.2883">
        <ele>70</ele>
        <time>2015-01-18T09:50:14Z</time>
      </trkpt>
      <trkpt lat="48.79514" lon="-3.28838">
        <ele>71</ele>
        <time>2015-01-18T09:50:15Z</time>
      </trkpt>
      <trkpt lat="48.79513" lon="-3.28845">
        <ele>71</ele>
        <time>2015-01-18T09:50:16Z</time>
      </trkpt>
      <trkpt lat="48.79512" lon="-3.28852">
        <ele>71</ele>
        <time>2015-01-18T09:50:17Z</time>
      </trkpt>
      <trkpt lat="48.79512" lon="-3.28859">
        <ele>71</ele>
        <time>2015-01-18T09:50:18Z</time>
      </trkpt>
      <trkpt lat="48.79511" lon="-3.28866">
        <ele>71</ele>
        <time>2015-01-18T09:50:19Z</time>
      </trkpt>
      <trkpt lat="48.79511" lon="-3.28889">
        <ele>71</ele>
        <time>2015-01-18T09:50:22Z</time>
      </trkpt>
      <trkpt lat="48.79511" lon="-3.28922">
        <ele>71</ele>
        <time>2015-01-18T09:50:26Z</time>
      </trkpt>
      <trkpt lat="48.7951" lon="-3.28949">
        <ele>71</ele>
        <time>2015-01-18T09:50:29Z</time>
      </trkpt>
      <trkpt lat="48.79511" lon="-3.28968">
        <ele>71</ele>
        <time>2015-01-18T09:50:31Z</time>
      </trkpt>
      <trkpt lat="48.79511" lon="-3.28979">
        <ele>71</ele>
        <time>2015-01-18T09:50:32Z</time>
      </trkpt>
      <trkpt lat="48.79511" lon="-3.28989">
        <ele>71</ele>
        <time>2015-01-18T09:50:33Z</time>
      </trkpt>
      <trkpt lat="48.79512" lon="-3.29">
        <ele>71</ele>
        <time>2015-01-18T09:50:34Z</time>
      </trkpt>
      <trkpt lat="48.79514" lon="-3.2901">
        <ele>71</ele>
        <time>2015-01-18T09:50:35Z</time>
      </trkpt>
      <trkpt lat="48.79515" lon="-3.2902">
        <ele>71</ele>
        <time>2015-01-18T09:50:36Z</time>
      </trkpt>
      <trkpt lat="48.79518" lon="-3.2903">
        <ele>71</ele>
        <time>2015-01-18T09:50:37Z</time>
      </trkpt>
      <trkpt lat="48.7952" lon="-3.2904">
        <ele>71</ele>
        <time>2015-01-18T09:50:38Z</time>
      </trkpt>
      <trkpt lat="48.79522" lon="-3.2905">
        <ele>71</ele>
        <time>2015-01-18T09:50:39Z</time>
      </trkpt>
      <trkpt lat="48.79524" lon="-3.2906">
        <ele>71</ele>
        <time>2015-01-18T09:50:40Z</time>
      </trkpt>
      <trkpt lat="48.79526" lon="-3.2907">
        <ele>71</ele>
        <time>2015-01-18T09:50:41Z</time>
      </trkpt>
      <trkpt lat="48.79528" lon="-3.29081">
        <ele>71</ele>
        <time>2015-01-18T09:50:42Z</time>
      </trkpt>
      <trkpt lat="48.7953" lon="-3.29091">
        <ele>71</ele>
        <time>2015-01-18T09:50:43Z</time>
      </trkpt>
      <trkpt lat="48.79531" lon="-3.29102">
        <ele>71</ele>
        <time>2015-01-18T09:50:44Z</time>
      </trkpt>
      <trkpt lat="48.79532" lon="-3.29113">
        <ele>71</ele>
        <time>2015-01-18T09:50:45Z</time>
      </trkpt>
      <trkpt lat="48.79532" lon="-3.29123">
        <ele>71</ele>
        <time>2015-01-18T09:50:46Z</time>
      </trkpt>
      <trkpt lat="48.79532" lon="-3.29134">
        <ele>71</ele>
        <time>2015-01-18T09:50:47Z</time>
      </trkpt>
      <trkpt lat="48.79531" lon="-3.29145">
        <ele>71</ele>
        <time>2015-01-18T09:50:48Z</time>
      </trkpt>
      <trkpt lat="48.7953" lon="-3.29155">
        <ele>71</ele>
        <time>2015-01-18T09:50:49Z</time>
      </trkpt>
      <trkpt lat="48.7953" lon="-3.29164">
        <ele>71</ele>
        <time>2015-01-18T09:50:50Z</time>
      </trkpt>
      <trkpt lat="48.79528" lon="-3.29173">
        <ele>71</ele>
        <time>2015-01-18T09:50:51Z</time>
      </trkpt>
      <trkpt lat="48.79527" lon="-3.29181">
        <ele>71</ele>
        <time>2015-01-18T09:50:52Z</time>
      </trkpt>
      <trkpt lat="48.79526" lon="-3.2919">
        <ele>71</ele>
        <time>2015-01-18T09:50:53Z</time>
      </trkpt>
      <trkpt lat="48.79525" lon="-3.29198">
        <ele>71</ele>
        <time>2015-01-18T09:50:54Z</time>
      </trkpt>
      <trkpt lat="48.79523" lon="-3.29207">
        <ele>71</ele>
        <time>2015-01-18T09:50:55Z</time>
      </trkpt>
      <trkpt lat="48.79521" lon="-3.29216">
        <ele>71</ele>
        <time>2015-01-18T09:50:56Z</time>
      </trkpt>
      <trkpt lat="48.7952" lon="-3.29225">
        <ele>71</ele>
        <time>2015-01-18T09:50:57Z</time>
      </trkpt>
      <trkpt lat="48.79518" lon="-3.29234">
        <ele>71</ele>
        <time>2015-01-18T09:50:58Z</time>
      </trkpt>
      <trkpt lat="48.79517" lon="-3.29243">
        <ele>71</ele>
        <time>2015-01-18T09:50:59Z</time>
      </trkpt>
      <trkpt lat="48.79515" lon="-3.29253">
        <ele>71</ele>
        <time>2015-01-18T09:51:00Z</time>
      </trkpt>
      <trkpt lat="48.79513" lon="-3.29262">
        <ele>71</ele>
        <time>2015-01-18T09:51:01Z</time>
      </trkpt>
      <trkpt lat="48.79511" lon="-3.29272">
        <ele>71</ele>
        <time>2015-01-18T09:51:02Z</time>
      </trkpt>
      <trkpt lat="48.7951" lon="-3.29281">
        <ele>71</ele>
        <time>2015-01-18T09:51:03Z</time>
      </trkpt>
      <trkpt lat="48.79509" lon="-3.29291">
        <ele>71</ele>
        <time>2015-01-18T09:51:04Z</time>
      </trkpt>
      <trkpt lat="48.79508" lon="-3.29299">
        <ele>71</ele>
        <time>2015-01-18T09:51:05Z</time>
      </trkpt>
      <trkpt lat="48.79507" lon="-3.29308">
        <ele>71</ele>
        <time>2015-01-18T09:51:06Z</time>
      </trkpt>
      <trkpt lat="48.79508" lon="-3.29336">
        <ele>71</ele>
        <time>2015-01-18T09:51:09Z</time>
      </trkpt>
      <trkpt lat="48.79509" lon="-3.29345">
        <ele>71</ele>
        <time>2015-01-18T09:51:10Z</time>
      </trkpt>
      <trkpt lat="48.79511" lon="-3.29354">
        <ele>71</ele>
        <time>2015-01-18T09:51:11Z</time>
      </trkpt>
      <trkpt lat="48.79513" lon="-3.29363">
        <ele>71</ele>
        <time>2015-01-18T09:51:12Z</time>
      </trkpt>
      <trkpt lat="48.79515" lon="-3.29371">
        <ele>71</ele>
        <time>2015-01-18T09:51:13Z</time>
      </trkpt>
      <trkpt lat="48.79517" lon="-3.2938">
        <ele>71</ele>
        <time>2015-01-18T09:51:14Z</time>
      </trkpt>
      <trkpt lat="48.79519" lon="-3.29388">
        <ele>71</ele>
        <time>2015-01-18T09:51:15Z</time>
      </trkpt>
      <trkpt lat="48.79521" lon="-3.29397">
        <ele>71</ele>
        <time>2015-01-18T09:51:16Z</time>
      </trkpt>
      <trkpt lat="48.79523" lon="-3.29405">
        <ele>71</ele>
        <time>2015-01-18T09:51:17Z</time>
      </trkpt>
      <trkpt lat="48.79525" lon="-3.29414">
        <ele>71</ele>
        <time>2015-01-18T09:51:18Z</time>
      </trkpt>
      <trkpt lat="48.79528" lon="-3.29422">
        <ele>72</ele>
        <time>2015-01-18T09:51:19Z</time>
      </trkpt>
      <trkpt lat="48.7953" lon="-3.29431">
        <ele>72</ele>
        <time>2015-01-18T09:51:20Z</time>
      </trkpt>
      <trkpt lat="48.79532" lon="-3.2944">
        <ele>72</ele>
        <time>2015-01-18T09:51:21Z</time>
      </trkpt>
      <trkpt lat="48.79534" lon="-3.29449">
        <ele>72</ele>
        <time>2015-01-18T09:51:22Z</time>
      </trkpt>
      <trkpt lat="48.79536" lon="-3.29457">
        <ele>73</ele>
        <time>2015-01-18T09:51:23Z</time>
      </trkpt>
      <trkpt lat="48.79538" lon="-3.29466">
        <ele>73</ele>
        <time>2015-01-18T09:51:24Z</time>
      </trkpt>
      <trkpt lat="48.7954" lon="-3.29475">
        <ele>73</ele>
        <time>2015-01-18T09:51:25Z</time>
      </trkpt>
      <trkpt lat="48.79542" lon="-3.29484">
        <ele>73</ele>
        <time>2015-01-18T09:51:26Z</time>
      </trkpt>
      <trkpt lat="48.79544" lon="-3.29492">
        <ele>74</ele>
        <time>2015-01-18T09:51:27Z</time>
      </trkpt>
      <trkpt lat="48.79546" lon="-3.295">
        <ele>74</ele>
        <time>2015-01-18T09:51:28Z</time>
      </trkpt>
      <trkpt lat="48.79548" lon="-3.29508">
        <ele>74</ele>
        <time>2015-01-18T09:51:29Z</time>
      </trkpt>
      <trkpt lat="48.7955" lon="-3.29516">
        <ele>75</ele>
        <time>2015-01-18T09:51:30Z</time>
      </trkpt>
      <trkpt lat="48.79552" lon="-3.29524">
        <ele>75</ele>
        <time>2015-01-18T09:51:31Z</time>
      </trkpt>
      <trkpt lat="48.79554" lon="-3.29532">
        <ele>75</ele>
        <time>2015-01-18T09:51:32Z</time>
      </trkpt>
      <trkpt lat="48.79556" lon="-3.2954">
        <ele>75</ele>
        <time>2015-01-18T09:51:33Z</time>
      </trkpt>
      <trkpt lat="48.79557" lon="-3.29549">
        <ele>76</ele>
        <time>2015-01-18T09:51:34Z</time>
      </trkpt>
      <trkpt lat="48.79559" lon="-3.29557">
        <ele>76</ele>
        <time>2015-01-18T09:51:35Z</time>
      </trkpt>
      <trkpt lat="48.79561" lon="-3.29565">
        <ele>76</ele>
        <time>2015-01-18T09:51:36Z</time>
      </trkpt>
      <trkpt lat="48.79562" lon="-3.29573">
        <ele>76</ele>
        <time>2015-01-18T09:51:37Z</time>
      </trkpt>
      <trkpt lat="48.79563" lon="-3.29582">
        <ele>77</ele>
        <time>2015-01-18T09:51:38Z</time>
      </trkpt>
      <trkpt lat="48.79565" lon="-3.29591">
        <ele>77</ele>
        <time>2015-01-18T09:51:39Z</time>
      </trkpt>
      <trkpt lat="48.79566" lon="-3.296">
        <ele>77</ele>
        <time>2015-01-18T09:51:40Z</time>
      </trkpt>
      <trkpt lat="48.79567" lon="-3.2961">
        <ele>77</ele>
        <time>2015-01-18T09:51:41Z</time>
      </trkpt>
      <trkpt lat="48.79568" lon="-3.29621">
        <ele>77</ele>
        <time>2015-01-18T09:51:42Z</time>
      </trkpt>
      <trkpt lat="48.7957" lon="-3.29631">
        <ele>77</ele>
        <time>2015-01-18T09:51:43Z</time>
      </trkpt>
      <trkpt lat="48.79571" lon="-3.29641">
        <ele>77</ele>
        <time>2015-01-18T09:51:44Z</time>
      </trkpt>
      <trkpt lat="48.79572" lon="-3.29651">
        <ele>77</ele>
        <time>2015-01-18T09:51:45Z</time>
      </trkpt>
      <trkpt lat="48.79573" lon="-3.29661">
        <ele>77</ele>
        <time>2015-01-18T09:51:46Z</time>
      </trkpt>
      <trkpt lat="48.79575" lon="-3.29671">
        <ele>77</ele>
        <time>2015-01-18T09:51:47Z</time>
      </trkpt>
      <trkpt lat="48.79576" lon="-3.29681">
        <ele>77</ele>
        <time>2015-01-18T09:51:48Z</time>
      </trkpt>
      <trkpt lat="48.79578" lon="-3.29691">
        <ele>77</ele>
        <time>2015-01-18T09:51:49Z</time>
      </trkpt>
      <trkpt lat="48.79579" lon="-3.297">
        <ele>77</ele>
        <time>2015-01-18T09:51:50Z</time>
      </trkpt>
      <trkpt lat="48.79581" lon="-3.29708">
        <ele>77</ele>
        <time>2015-01-18T09:51:51Z</time>
      </trkpt>
      <trkpt lat="48.79582" lon="-3.29716">
        <ele>77</ele>
        <time>2015-01-18T09:51:52Z</time>
      </trkpt>
      <trkpt lat="48.79584" lon="-3.29724">
        <ele>77</ele>
        <time>2015-01-18T09:51:53Z</time>
      </trkpt>
      <trkpt lat="48.79585" lon="-3.29732">
        <ele>77</ele>
        <time>2015-01-18T09:51:54Z</time>
      </trkpt>
      <trkpt lat="48.79586" lon="-3.2974">
        <ele>77</ele>
        <time>2015-01-18T09:51:55Z</time>
      </trkpt>
      <trkpt lat="48.79588" lon="-3.29748">
        <ele>77</ele>
        <time>2015-01-18T09:51:56Z</time>
      </trkpt>
      <trkpt lat="48.79589" lon="-3.29757">
        <ele>77</ele>
        <time>2015-01-18T09:51:57Z</time>
      </trkpt>
      <trkpt lat="48.79591" lon="-3.29766">
        <ele>77</ele>
        <time>2015-01-18T09:51:58Z</time>
      </trkpt>
      <trkpt lat="48.79592" lon="-3.29776">
        <ele>77</ele>
        <time>2015-01-18T09:51:59Z</time>
      </trkpt>
      <trkpt lat="48.79594" lon="-3.29785">
        <ele>77</ele>
        <time>2015-01-18T09:52:00Z</time>
      </trkpt>
      <trkpt lat="48.79595" lon="-3.29795">
        <ele>77</ele>
        <time>2015-01-18T09:52:01Z</time>
      </trkpt>
      <trkpt lat="48.79596" lon="-3.29805">
        <ele>77</ele>
        <time>2015-01-18T09:52:02Z</time>
      </trkpt>
      <trkpt lat="48.79597" lon="-3.29815">
        <ele>77</ele>
        <time>2015-01-18T09:52:03Z</time>
      </trkpt>
      <trkpt lat="48.79597" lon="-3.29826">
        <ele>77</ele>
        <time>2015-01-18T09:52:04Z</time>
      </trkpt>
      <trkpt lat="48.79598" lon="-3.29836">
        <ele>77</ele>
        <time>2015-01-18T09:52:05Z</time>
      </trkpt>
      <trkpt lat="48.79598" lon="-3.29865">
        <ele>77</ele>
        <time>2015-01-18T09:52:08Z</time>
      </trkpt>
      <trkpt lat="48.79599" lon="-3.29885">
        <ele>77</ele>
        <time>2015-01-18T09:52:10Z</time>
      </trkpt>
      <trkpt lat="48.79599" lon="-3.29895">
        <ele>77</ele>
        <time>2015-01-18T09:52:11Z</time>
      </trkpt>
      <trkpt lat="48.796" lon="-3.29905">
        <ele>77</ele>
        <time>2015-01-18T09:52:12Z</time>
      </trkpt>
      <trkpt lat="48.796" lon="-3.29914">
        <ele>77</ele>
        <time>2015-01-18T09:52:13Z</time>
      </trkpt>
      <trkpt lat="48.79601" lon="-3.29924">
        <ele>77</ele>
        <time>2015-01-18T09:52:14Z</time>
      </trkpt>
      <trkpt lat="48.79601" lon="-3.29933">
        <ele>77</ele>
        <time>2015-01-18T09:52:15Z</time>
      </trkpt>
      <trkpt lat="48.79602" lon="-3.29942">
        <ele>77</ele>
        <time>2015-01-18T09:52:16Z</time>
      </trkpt>
      <trkpt lat="48.79602" lon="-3.29951">
        <ele>77</ele>
        <time>2015-01-18T09:52:17Z</time>
      </trkpt>
      <trkpt lat="48.79602" lon="-3.2996">
        <ele>77</ele>
        <time>2015-01-18T09:52:18Z</time>
      </trkpt>
      <trkpt lat="48.79603" lon="-3.29969">
        <ele>77</ele>
        <time>2015-01-18T09:52:19Z</time>
      </trkpt>
      <trkpt lat="48.79603" lon="-3.29977">
        <ele>77</ele>
        <time>2015-01-18T09:52:20Z</time>
      </trkpt>
      <trkpt lat="48.79604" lon="-3.29986">
        <ele>77</ele>
        <time>2015-01-18T09:52:21Z</time>
      </trkpt>
      <trkpt lat="48.79604" lon="-3.30003">
        <ele>77</ele>
        <time>2015-01-18T09:52:23Z</time>
      </trkpt>
      <trkpt lat="48.79605" lon="-3.30012">
        <ele>77</ele>
        <time>2015-01-18T09:52:24Z</time>
      </trkpt>
      <trkpt lat="48.79605" lon="-3.3002">
        <ele>77</ele>
        <time>2015-01-18T09:52:25Z</time>
      </trkpt>
      <trkpt lat="48.79606" lon="-3.30029">
        <ele>77</ele>
        <time>2015-01-18T09:52:26Z</time>
      </trkpt>
      <trkpt lat="48.79607" lon="-3.30037">
        <ele>77</ele>
        <time>2015-01-18T09:52:27Z</time>
      </trkpt>
      <trkpt lat="48.79607" lon="-3.30045">
        <ele>77</ele>
        <time>2015-01-18T09:52:28Z</time>
      </trkpt>
      <trkpt lat="48.79608" lon="-3.30053">
        <ele>77</ele>
        <time>2015-01-18T09:52:29Z</time>
      </trkpt>
      <trkpt lat="48.79609" lon="-3.30061">
        <ele>77</ele>
        <time>2015-01-18T09:52:30Z</time>
      </trkpt>
      <trkpt lat="48.7961" lon="-3.30069">
        <ele>77</ele>
        <time>2015-01-18T09:52:31Z</time>
      </trkpt>
      <trkpt lat="48.7961" lon="-3.30077">
        <ele>77</ele>
        <time>2015-01-18T09:52:32Z</time>
      </trkpt>
      <trkpt lat="48.79611" lon="-3.30084">
        <ele>77</ele>
        <time>2015-01-18T09:52:33Z</time>
      </trkpt>
      <trkpt lat="48.79612" lon="-3.30092">
        <ele>77</ele>
        <time>2015-01-18T09:52:34Z</time>
      </trkpt>
      <trkpt lat="48.79613" lon="-3.301">
        <ele>77</ele>
        <time>2015-01-18T09:52:35Z</time>
      </trkpt>
      <trkpt lat="48.79613" lon="-3.30108">
        <ele>77</ele>
        <time>2015-01-18T09:52:36Z</time>
      </trkpt>
      <trkpt lat="48.79614" lon="-3.30117">
        <ele>77</ele>
        <time>2015-01-18T09:52:37Z</time>
      </trkpt>
      <trkpt lat="48.79615" lon="-3.30125">
        <ele>77</ele>
        <time>2015-01-18T09:52:38Z</time>
      </trkpt>
      <trkpt lat="48.79615" lon="-3.30133">
        <ele>77</ele>
        <time>2015-01-18T09:52:39Z</time>
      </trkpt>
      <trkpt lat="48.79616" lon="-3.30141">
        <ele>77</ele>
        <time>2015-01-18T09:52:40Z</time>
      </trkpt>
      <trkpt lat="48.79617" lon="-3.3015">
        <ele>78</ele>
        <time>2015-01-18T09:52:41Z</time>
      </trkpt>
      <trkpt lat="48.79618" lon="-3.30158">
        <ele>78</ele>
        <time>2015-01-18T09:52:42Z</time>
      </trkpt>
      <trkpt lat="48.79618" lon="-3.30167">
        <ele>78</ele>
        <time>2015-01-18T09:52:43Z</time>
      </trkpt>
      <trkpt lat="48.7962" lon="-3.30176">
        <ele>78</ele>
        <time>2015-01-18T09:52:44Z</time>
      </trkpt>
      <trkpt lat="48.7962" lon="-3.30185">
        <ele>78</ele>
        <time>2015-01-18T09:52:45Z</time>
      </trkpt>
      <trkpt lat="48.79621" lon="-3.30194">
        <ele>78</ele>
        <time>2015-01-18T09:52:46Z</time>
      </trkpt>
      <trkpt lat="48.79622" lon="-3.30203">
        <ele>78</ele>
        <time>2015-01-18T09:52:47Z</time>
      </trkpt>
      <trkpt lat="48.79623" lon="-3.30212">
        <ele>78</ele>
        <time>2015-01-18T09:52:48Z</time>
      </trkpt>
      <trkpt lat="48.79624" lon="-3.30222">
        <ele>78</ele>
        <time>2015-01-18T09:52:49Z</time>
      </trkpt>
      <trkpt lat="48.79625" lon="-3.30232">
        <ele>78</ele>
        <time>2015-01-18T09:52:50Z</time>
      </trkpt>
      <trkpt lat="48.79626" lon="-3.30241">
        <ele>78</ele>
        <time>2015-01-18T09:52:51Z</time>
      </trkpt>
      <trkpt lat="48.79627" lon="-3.30252">
        <ele>78</ele>
        <time>2015-01-18T09:52:52Z</time>
      </trkpt>
      <trkpt lat="48.79628" lon="-3.30262">
        <ele>78</ele>
        <time>2015-01-18T09:52:53Z</time>
      </trkpt>
      <trkpt lat="48.79628" lon="-3.30272">
        <ele>78</ele>
        <time>2015-01-18T09:52:54Z</time>
      </trkpt>
      <trkpt lat="48.79629" lon="-3.30282">
        <ele>78</ele>
        <time>2015-01-18T09:52:55Z</time>
      </trkpt>
      <trkpt lat="48.7963" lon="-3.30292">
        <ele>78</ele>
        <time>2015-01-18T09:52:56Z</time>
      </trkpt>
      <trkpt lat="48.79631" lon="-3.30302">
        <ele>78</ele>
        <time>2015-01-18T09:52:57Z</time>
      </trkpt>
      <trkpt lat="48.79632" lon="-3.30312">
        <ele>78</ele>
        <time>2015-01-18T09:52:58Z</time>
      </trkpt>
      <trkpt lat="48.79633" lon="-3.30322">
        <ele>78</ele>
        <time>2015-01-18T09:52:59Z</time>
      </trkpt>
      <trkpt lat="48.79634" lon="-3.30332">
        <ele>78</ele>
        <time>2015-01-18T09:53:00Z</time>
      </trkpt>
      <trkpt lat="48.79635" lon="-3.30342">
        <ele>78</ele>
        <time>2015-01-18T09:53:01Z</time>
      </trkpt>
      <trkpt lat="48.79636" lon="-3.30352">
        <ele>78</ele>
        <time>2015-01-18T09:53:02Z</time>
      </trkpt>
      <trkpt lat="48.79637" lon="-3.30361">
        <ele>78</ele>
        <time>2015-01-18T09:53:03Z</time>
      </trkpt>
      <trkpt lat="48.79639" lon="-3.30371">
        <ele>78</ele>
        <time>2015-01-18T09:53:04Z</time>
      </trkpt>
      <trkpt lat="48.79641" lon="-3.30381">
        <ele>78</ele>
        <time>2015-01-18T09:53:05Z</time>
      </trkpt>
      <trkpt lat="48.79642" lon="-3.3039">
        <ele>78</ele>
        <time>2015-01-18T09:53:06Z</time>
      </trkpt>
      <trkpt lat="48.79644" lon="-3.304">
        <ele>78</ele>
        <time>2015-01-18T09:53:07Z</time>
      </trkpt>
      <trkpt lat="48.79646" lon="-3.30409">
        <ele>78</ele>
        <time>2015-01-18T09:53:08Z</time>
      </trkpt>
      <trkpt lat="48.79647" lon="-3.30419">
        <ele>78</ele>
        <time>2015-01-18T09:53:09Z</time>
      </trkpt>
      <trkpt lat="48.79649" lon="-3.30429">
        <ele>78</ele>
        <time>2015-01-18T09:53:10Z</time>
      </trkpt>
      <trkpt lat="48.79651" lon="-3.30439">
        <ele>78</ele>
        <time>2015-01-18T09:53:11Z</time>
      </trkpt>
      <trkpt lat="48.79651" lon="-3.30449">
        <ele>79</ele>
        <time>2015-01-18T09:53:12Z</time>
      </trkpt>
      <trkpt lat="48.79652" lon="-3.30459">
        <ele>79</ele>
        <time>2015-01-18T09:53:13Z</time>
      </trkpt>
      <trkpt lat="48.79652" lon="-3.3047">
        <ele>79</ele>
        <time>2015-01-18T09:53:14Z</time>
      </trkpt>
      <trkpt lat="48.79653" lon="-3.30502">
        <ele>79</ele>
        <time>2015-01-18T09:53:17Z</time>
      </trkpt>
      <trkpt lat="48.79652" lon="-3.30512">
        <ele>79</ele>
        <time>2015-01-18T09:53:18Z</time>
      </trkpt>
      <trkpt lat="48.79652" lon="-3.30546">
        <ele>79</ele>
        <time>2015-01-18T09:53:21Z</time>
      </trkpt>
      <trkpt lat="48.79652" lon="-3.30557">
        <ele>80</ele>
        <time>2015-01-18T09:53:22Z</time>
      </trkpt>
      <trkpt lat="48.79651" lon="-3.30569">
        <ele>80</ele>
        <time>2015-01-18T09:53:23Z</time>
      </trkpt>
      <trkpt lat="48.79651" lon="-3.3058">
        <ele>80</ele>
        <time>2015-01-18T09:53:24Z</time>
      </trkpt>
      <trkpt lat="48.7965" lon="-3.30592">
        <ele>80</ele>
        <time>2015-01-18T09:53:25Z</time>
      </trkpt>
      <trkpt lat="48.79649" lon="-3.30603">
        <ele>80</ele>
        <time>2015-01-18T09:53:26Z</time>
      </trkpt>
      <trkpt lat="48.79647" lon="-3.30613">
        <ele>80</ele>
        <time>2015-01-18T09:53:27Z</time>
      </trkpt>
      <trkpt lat="48.79645" lon="-3.30624">
        <ele>80</ele>
        <time>2015-01-18T09:53:28Z</time>
      </trkpt>
      <trkpt lat="48.79643" lon="-3.30635">
        <ele>80</ele>
        <time>2015-01-18T09:53:29Z</time>
      </trkpt>
      <trkpt lat="48.79641" lon="-3.30646">
        <ele>81</ele>
        <time>2015-01-18T09:53:30Z</time>
      </trkpt>
      <trkpt lat="48.79639" lon="-3.30657">
        <ele>81</ele>
        <time>2015-01-18T09:53:31Z</time>
      </trkpt>
      <trkpt lat="48.79637" lon="-3.30667">
        <ele>81</ele>
        <time>2015-01-18T09:53:32Z</time>
      </trkpt>
      <trkpt lat="48.79636" lon="-3.30679">
        <ele>81</ele>
        <time>2015-01-18T09:53:33Z</time>
      </trkpt>
      <trkpt lat="48.79635" lon="-3.3069">
        <ele>81</ele>
        <time>2015-01-18T09:53:34Z</time>
      </trkpt>
      <trkpt lat="48.79636" lon="-3.30724">
        <ele>81</ele>
        <time>2015-01-18T09:53:37Z</time>
      </trkpt>
      <trkpt lat="48.79636" lon="-3.30735">
        <ele>81</ele>
        <time>2015-01-18T09:53:38Z</time>
      </trkpt>
      <trkpt lat="48.79637" lon="-3.30746">
        <ele>81</ele>
        <time>2015-01-18T09:53:39Z</time>
      </trkpt>
      <trkpt lat="48.79638" lon="-3.30757">
        <ele>81</ele>
        <time>2015-01-18T09:53:40Z</time>
      </trkpt>
      <trkpt lat="48.79639" lon="-3.30768">
        <ele>81</ele>
        <time>2015-01-18T09:53:41Z</time>
      </trkpt>
      <trkpt lat="48.79639" lon="-3.3078">
        <ele>81</ele>
        <time>2015-01-18T09:53:42Z</time>
      </trkpt>
      <trkpt lat="48.7964" lon="-3.30791">
        <ele>81</ele>
        <time>2015-01-18T09:53:43Z</time>
      </trkpt>
      <trkpt lat="48.79641" lon="-3.30802">
        <ele>82</ele>
        <time>2015-01-18T09:53:44Z</time>
      </trkpt>
      <trkpt lat="48.79642" lon="-3.30814">
        <ele>82</ele>
        <time>2015-01-18T09:53:45Z</time>
      </trkpt>
      <trkpt lat="48.79643" lon="-3.30826">
        <ele>82</ele>
        <time>2015-01-18T09:53:46Z</time>
      </trkpt>
      <trkpt lat="48.79645" lon="-3.30838">
        <ele>82</ele>
        <time>2015-01-18T09:53:47Z</time>
      </trkpt>
      <trkpt lat="48.79647" lon="-3.3085">
        <ele>82</ele>
        <time>2015-01-18T09:53:48Z</time>
      </trkpt>
      <trkpt lat="48.79649" lon="-3.30862">
        <ele>82</ele>
        <time>2015-01-18T09:53:49Z</time>
      </trkpt>
      <trkpt lat="48.79651" lon="-3.30873">
        <ele>82</ele>
        <time>2015-01-18T09:53:50Z</time>
      </trkpt>
      <trkpt lat="48.79654" lon="-3.30884">
        <ele>82</ele>
        <time>2015-01-18T09:53:51Z</time>
      </trkpt>
      <trkpt lat="48.79657" lon="-3.30895">
        <ele>82</ele>
        <time>2015-01-18T09:53:52Z</time>
      </trkpt>
      <trkpt lat="48.79659" lon="-3.30906">
        <ele>82</ele>
        <time>2015-01-18T09:53:53Z</time>
      </trkpt>
      <trkpt lat="48.79662" lon="-3.30918">
        <ele>82</ele>
        <time>2015-01-18T09:53:54Z</time>
      </trkpt>
      <trkpt lat="48.79664" lon="-3.30929">
        <ele>83</ele>
        <time>2015-01-18T09:53:55Z</time>
      </trkpt>
      <trkpt lat="48.79665" lon="-3.3094">
        <ele>83</ele>
        <time>2015-01-18T09:53:56Z</time>
      </trkpt>
      <trkpt lat="48.79667" lon="-3.30951">
        <ele>83</ele>
        <time>2015-01-18T09:53:57Z</time>
      </trkpt>
      <trkpt lat="48.79668" lon="-3.30962">
        <ele>83</ele>
        <time>2015-01-18T09:53:58Z</time>
      </trkpt>
      <trkpt lat="48.7967" lon="-3.30973">
        <ele>83</ele>
        <time>2015-01-18T09:53:59Z</time>
      </trkpt>
      <trkpt lat="48.79671" lon="-3.30984">
        <ele>83</ele>
        <time>2015-01-18T09:54:00Z</time>
      </trkpt>
      <trkpt lat="48.79672" lon="-3.30996">
        <ele>83</ele>
        <time>2015-01-18T09:54:01Z</time>
      </trkpt>
      <trkpt lat="48.79673" lon="-3.31007">
        <ele>83</ele>
        <time>2015-01-18T09:54:02Z</time>
      </trkpt>
      <trkpt lat="48.79675" lon="-3.31018">
        <ele>84</ele>
        <time>2015-01-18T09:54:03Z</time>
      </trkpt>
      <trkpt lat="48.79676" lon="-3.3103">
        <ele>84</ele>
        <time>2015-01-18T09:54:04Z</time>
      </trkpt>
      <trkpt lat="48.79677" lon="-3.31041">
        <ele>84</ele>
        <time>2015-01-18T09:54:05Z</time>
      </trkpt>
      <trkpt lat="48.79678" lon="-3.31052">
        <ele>84</ele>
        <time>2015-01-18T09:54:06Z</time>
      </trkpt>
      <trkpt lat="48.79679" lon="-3.31064">
        <ele>84</ele>
        <time>2015-01-18T09:54:07Z</time>
      </trkpt>
      <trkpt lat="48.79681" lon="-3.31076">
        <ele>84</ele>
        <time>2015-01-18T09:54:08Z</time>
      </trkpt>
      <trkpt lat="48.79682" lon="-3.31087">
        <ele>84</ele>
        <time>2015-01-18T09:54:09Z</time>
      </trkpt>
      <trkpt lat="48.79684" lon="-3.31099">
        <ele>84</ele>
        <time>2015-01-18T09:54:10Z</time>
      </trkpt>
      <trkpt lat="48.79685" lon="-3.31111">
        <ele>84</ele>
        <time>2015-01-18T09:54:11Z</time>
      </trkpt>
      <trkpt lat="48.79687" lon="-3.31122">
        <ele>85</ele>
        <time>2015-01-18T09:54:12Z</time>
      </trkpt>
      <trkpt lat="48.79689" lon="-3.31134">
        <ele>85</ele>
        <time>2015-01-18T09:54:13Z</time>
      </trkpt>
      <trkpt lat="48.7969" lon="-3.31145">
        <ele>85</ele>
        <time>2015-01-18T09:54:14Z</time>
      </trkpt>
      <trkpt lat="48.79692" lon="-3.31156">
        <ele>85</ele>
        <time>2015-01-18T09:54:15Z</time>
      </trkpt>
      <trkpt lat="48.79694" lon="-3.31167">
        <ele>85</ele>
        <time>2015-01-18T09:54:16Z</time>
      </trkpt>
      <trkpt lat="48.79696" lon="-3.31178">
        <ele>85</ele>
        <time>2015-01-18T09:54:17Z</time>
      </trkpt>
      <trkpt lat="48.79697" lon="-3.31188">
        <ele>85</ele>
        <time>2015-01-18T09:54:18Z</time>
      </trkpt>
      <trkpt lat="48.797" lon="-3.31199">
        <ele>85</ele>
        <time>2015-01-18T09:54:19Z</time>
      </trkpt>
      <trkpt lat="48.79702" lon="-3.31209">
        <ele>85</ele>
        <time>2015-01-18T09:54:20Z</time>
      </trkpt>
      <trkpt lat="48.79705" lon="-3.3122">
        <ele>85</ele>
        <time>2015-01-18T09:54:21Z</time>
      </trkpt>
      <trkpt lat="48.79707" lon="-3.3123">
        <ele>85</ele>
        <time>2015-01-18T09:54:22Z</time>
      </trkpt>
      <trkpt lat="48.79708" lon="-3.3124">
        <ele>85</ele>
        <time>2015-01-18T09:54:23Z</time>
      </trkpt>
      <trkpt lat="48.7971" lon="-3.3125">
        <ele>85</ele>
        <time>2015-01-18T09:54:24Z</time>
      </trkpt>
      <trkpt lat="48.79712" lon="-3.31259">
        <ele>85</ele>
        <time>2015-01-18T09:54:25Z</time>
      </trkpt>
      <trkpt lat="48.79713" lon="-3.31269">
        <ele>85</ele>
        <time>2015-01-18T09:54:26Z</time>
      </trkpt>
      <trkpt lat="48.79715" lon="-3.31278">
        <ele>85</ele>
        <time>2015-01-18T09:54:27Z</time>
      </trkpt>
      <trkpt lat="48.79717" lon="-3.31287">
        <ele>85</ele>
        <time>2015-01-18T09:54:28Z</time>
      </trkpt>
      <trkpt lat="48.79718" lon="-3.31295">
        <ele>85</ele>
        <time>2015-01-18T09:54:29Z</time>
      </trkpt>
      <trkpt lat="48.79719" lon="-3.31304">
        <ele>85</ele>
        <time>2015-01-18T09:54:30Z</time>
      </trkpt>
      <trkpt lat="48.79719" lon="-3.31312">
        <ele>85</ele>
        <time>2015-01-18T09:54:31Z</time>
      </trkpt>
      <trkpt lat="48.79716" lon="-3.31319">
        <ele>85</ele>
        <time>2015-01-18T09:54:32Z</time>
      </trkpt>
      <trkpt lat="48.79711" lon="-3.31325">
        <ele>85</ele>
        <time>2015-01-18T09:54:33Z</time>
      </trkpt>
      <trkpt lat="48.79705" lon="-3.31329">
        <ele>85</ele>
        <time>2015-01-18T09:54:34Z</time>
      </trkpt>
      <trkpt lat="48.79699" lon="-3.31332">
        <ele>85</ele>
        <time>2015-01-18T09:54:35Z</time>
      </trkpt>
      <trkpt lat="48.79692" lon="-3.31336">
        <ele>85</ele>
        <time>2015-01-18T09:54:36Z</time>
      </trkpt>
      <trkpt lat="48.79685" lon="-3.3134">
        <ele>85</ele>
        <time>2015-01-18T09:54:37Z</time>
      </trkpt>
      <trkpt lat="48.79678" lon="-3.31345">
        <ele>85</ele>
        <time>2015-01-18T09:54:38Z</time>
      </trkpt>
      <trkpt lat="48.79672" lon="-3.31349">
        <ele>85</ele>
        <time>2015-01-18T09:54:39Z</time>
      </trkpt>
      <trkpt lat="48.79665" lon="-3.31353">
        <ele>85</ele>
        <time>2015-01-18T09:54:40Z</time>
      </trkpt>
      <trkpt lat="48.79658" lon="-3.31357">
        <ele>85</ele>
        <time>2015-01-18T09:54:41Z</time>
      </trkpt>
      <trkpt lat="48.79651" lon="-3.31362">
        <ele>85</ele>
        <time>2015-01-18T09:54:42Z</time>
      </trkpt>
      <trkpt lat="48.79644" lon="-3.31366">
        <ele>85</ele>
        <time>2015-01-18T09:54:43Z</time>
      </trkpt>
      <trkpt lat="48.79636" lon="-3.31371">
        <ele>85</ele>
        <time>2015-01-18T09:54:44Z</time>
      </trkpt>
      <trkpt lat="48.79629" lon="-3.31376">
        <ele>85</ele>
        <time>2015-01-18T09:54:45Z</time>
      </trkpt>
      <trkpt lat="48.79622" lon="-3.3138">
        <ele>85</ele>
        <time>2015-01-18T09:54:46Z</time>
      </trkpt>
      <trkpt lat="48.79614" lon="-3.31383">
        <ele>85</ele>
        <time>2015-01-18T09:54:47Z</time>
      </trkpt>
      <trkpt lat="48.79607" lon="-3.31387">
        <ele>85</ele>
        <time>2015-01-18T09:54:48Z</time>
      </trkpt>
      <trkpt lat="48.79599" lon="-3.31391">
        <ele>85</ele>
        <time>2015-01-18T09:54:49Z</time>
      </trkpt>
      <trkpt lat="48.79591" lon="-3.31394">
        <ele>85</ele>
        <time>2015-01-18T09:54:50Z</time>
      </trkpt>
      <trkpt lat="48.79584" lon="-3.31398">
        <ele>85</ele>
        <time>2015-01-18T09:54:51Z</time>
      </trkpt>
      <trkpt lat="48.79576" lon="-3.31402">
        <ele>85</ele>
        <time>2015-01-18T09:54:52Z</time>
      </trkpt>
      <trkpt lat="48.79568" lon="-3.31405">
        <ele>85</ele>
        <time>2015-01-18T09:54:53Z</time>
      </trkpt>
      <trkpt lat="48.79561" lon="-3.31409">
        <ele>85</ele>
        <time>2015-01-18T09:54:54Z</time>
      </trkpt>
      <trkpt lat="48.79553" lon="-3.31413">
        <ele>85</ele>
        <time>2015-01-18T09:54:55Z</time>
      </trkpt>
      <trkpt lat="48.79546" lon="-3.31417">
        <ele>85</ele>
        <time>2015-01-18T09:54:56Z</time>
      </trkpt>
      <trkpt lat="48.79538" lon="-3.31421">
        <ele>85</ele>
        <time>2015-01-18T09:54:57Z</time>
      </trkpt>
      <trkpt lat="48.7953" lon="-3.31424">
        <ele>85</ele>
        <time>2015-01-18T09:54:58Z</time>
      </trkpt>
      <trkpt lat="48.79523" lon="-3.31428">
        <ele>85</ele>
        <time>2015-01-18T09:54:59Z</time>
      </trkpt>
      <trkpt lat="48.79515" lon="-3.31432">
        <ele>85</ele>
        <time>2015-01-18T09:55:00Z</time>
      </trkpt>
      <trkpt lat="48.79508" lon="-3.31435">
        <ele>85</ele>
        <time>2015-01-18T09:55:01Z</time>
      </trkpt>
      <trkpt lat="48.79501" lon="-3.31439">
        <ele>85</ele>
        <time>2015-01-18T09:55:02Z</time>
      </trkpt>
      <trkpt lat="48.79494" lon="-3.31443">
        <ele>85</ele>
        <time>2015-01-18T09:55:03Z</time>
      </trkpt>
      <trkpt lat="48.79487" lon="-3.31448">
        <ele>85</ele>
        <time>2015-01-18T09:55:04Z</time>
      </trkpt>
      <trkpt lat="48.7948" lon="-3.31452">
        <ele>85</ele>
        <time>2015-01-18T09:55:05Z</time>
      </trkpt>
      <trkpt lat="48.79473" lon="-3.31457">
        <ele>85</ele>
        <time>2015-01-18T09:55:06Z</time>
      </trkpt>
      <trkpt lat="48.79466" lon="-3.31461">
        <ele>85</ele>
        <time>2015-01-18T09:55:07Z</time>
      </trkpt>
      <trkpt lat="48.79459" lon="-3.31466">
        <ele>85</ele>
        <time>2015-01-18T09:55:08Z</time>
      </trkpt>
      <trkpt lat="48.79452" lon="-3.31471">
        <ele>85</ele>
        <time>2015-01-18T09:55:09Z</time>
      </trkpt>
      <trkpt lat="48.79445" lon="-3.31476">
        <ele>85</ele>
        <time>2015-01-18T09:55:10Z</time>
      </trkpt>
      <trkpt lat="48.79438" lon="-3.31481">
        <ele>85</ele>
        <time>2015-01-18T09:55:11Z</time>
      </trkpt>
      <trkpt lat="48.7943" lon="-3.31487">
        <ele>85</ele>
        <time>2015-01-18T09:55:12Z</time>
      </trkpt>
      <trkpt lat="48.79424" lon="-3.31493">
        <ele>85</ele>
        <time>2015-01-18T09:55:13Z</time>
      </trkpt>
      <trkpt lat="48.79417" lon="-3.315">
        <ele>85</ele>
        <time>2015-01-18T09:55:14Z</time>
      </trkpt>
      <trkpt lat="48.7941" lon="-3.31507">
        <ele>85</ele>
        <time>2015-01-18T09:55:15Z</time>
      </trkpt>
      <trkpt lat="48.79404" lon="-3.31516">
        <ele>85</ele>
        <time>2015-01-18T09:55:16Z</time>
      </trkpt>
      <trkpt lat="48.79398" lon="-3.31524">
        <ele>85</ele>
        <time>2015-01-18T09:55:17Z</time>
      </trkpt>
      <trkpt lat="48.79392" lon="-3.31534">
        <ele>85</ele>
        <time>2015-01-18T09:55:18Z</time>
      </trkpt>
      <trkpt lat="48.79387" lon="-3.31543">
        <ele>85</ele>
        <time>2015-01-18T09:55:19Z</time>
      </trkpt>
      <trkpt lat="48.79381" lon="-3.31552">
        <ele>85</ele>
        <time>2015-01-18T09:55:20Z</time>
      </trkpt>
      <trkpt lat="48.79376" lon="-3.31562">
        <ele>85</ele>
        <time>2015-01-18T09:55:21Z</time>
      </trkpt>
      <trkpt lat="48.79371" lon="-3.31572">
        <ele>85</ele>
        <time>2015-01-18T09:55:22Z</time>
      </trkpt>
      <trkpt lat="48.79366" lon="-3.31582">
        <ele>85</ele>
        <time>2015-01-18T09:55:23Z</time>
      </trkpt>
      <trkpt lat="48.79361" lon="-3.31591">
        <ele>85</ele>
        <time>2015-01-18T09:55:24Z</time>
      </trkpt>
      <trkpt lat="48.79356" lon="-3.31601">
        <ele>85</ele>
        <time>2015-01-18T09:55:25Z</time>
      </trkpt>
      <trkpt lat="48.79352" lon="-3.31611">
        <ele>85</ele>
        <time>2015-01-18T09:55:26Z</time>
      </trkpt>
      <trkpt lat="48.79347" lon="-3.3162">
        <ele>85</ele>
        <time>2015-01-18T09:55:27Z</time>
      </trkpt>
      <trkpt lat="48.79343" lon="-3.3163">
        <ele>85</ele>
        <time>2015-01-18T09:55:28Z</time>
      </trkpt>
      <trkpt lat="48.79338" lon="-3.31639">
        <ele>85</ele>
        <time>2015-01-18T09:55:29Z</time>
      </trkpt>
      <trkpt lat="48.79333" lon="-3.31649">
        <ele>85</ele>
        <time>2015-01-18T09:55:30Z</time>
      </trkpt>
      <trkpt lat="48.79329" lon="-3.31658">
        <ele>85</ele>
        <time>2015-01-18T09:55:31Z</time>
      </trkpt>
      <trkpt lat="48.79324" lon="-3.31667">
        <ele>85</ele>
        <time>2015-01-18T09:55:32Z</time>
      </trkpt>
      <trkpt lat="48.7932" lon="-3.31677">
        <ele>85</ele>
        <time>2015-01-18T09:55:33Z</time>
      </trkpt>
      <trkpt lat="48.79315" lon="-3.31687">
        <ele>85</ele>
        <time>2015-01-18T09:55:34Z</time>
      </trkpt>
      <trkpt lat="48.79311" lon="-3.31697">
        <ele>85</ele>
        <time>2015-01-18T09:55:35Z</time>
      </trkpt>
      <trkpt lat="48.79306" lon="-3.31707">
        <ele>85</ele>
        <time>2015-01-18T09:55:36Z</time>
      </trkpt>
      <trkpt lat="48.79302" lon="-3.31716">
        <ele>85</ele>
        <time>2015-01-18T09:55:37Z</time>
      </trkpt>
      <trkpt lat="48.79297" lon="-3.31726">
        <ele>85</ele>
        <time>2015-01-18T09:55:38Z</time>
      </trkpt>
      <trkpt lat="48.79293" lon="-3.31736">
        <ele>85</ele>
        <time>2015-01-18T09:55:39Z</time>
      </trkpt>
      <trkpt lat="48.79288" lon="-3.31746">
        <ele>85</ele>
        <time>2015-01-18T09:55:40Z</time>
      </trkpt>
      <trkpt lat="48.79283" lon="-3.31756">
        <ele>85</ele>
        <time>2015-01-18T09:55:41Z</time>
      </trkpt>
      <trkpt lat="48.79279" lon="-3.31766">
        <ele>85</ele>
        <time>2015-01-18T09:55:42Z</time>
      </trkpt>
      <trkpt lat="48.79274" lon="-3.31776">
        <ele>85</ele>
        <time>2015-01-18T09:55:43Z</time>
      </trkpt>
      <trkpt lat="48.79269" lon="-3.31786">
        <ele>85</ele>
        <time>2015-01-18T09:55:44Z</time>
      </trkpt>
      <trkpt lat="48.79265" lon="-3.31796">
        <ele>85</ele>
        <time>2015-01-18T09:55:45Z</time>
      </trkpt>
      <trkpt lat="48.7926" lon="-3.31806">
        <ele>85</ele>
        <time>2015-01-18T09:55:46Z</time>
      </trkpt>
      <trkpt lat="48.79256" lon="-3.31816">
        <ele>85</ele>
        <time>2015-01-18T09:55:47Z</time>
      </trkpt>
      <trkpt lat="48.79251" lon="-3.31826">
        <ele>85</ele>
        <time>2015-01-18T09:55:48Z</time>
      </trkpt>
      <trkpt lat="48.79246" lon="-3.31836">
        <ele>85</ele>
        <time>2015-01-18T09:55:49Z</time>
      </trkpt>
      <trkpt lat="48.79241" lon="-3.31845">
        <ele>85</ele>
        <time>2015-01-18T09:55:50Z</time>
      </trkpt>
      <trkpt lat="48.79236" lon="-3.31854">
        <ele>85</ele>
        <time>2015-01-18T09:55:51Z</time>
      </trkpt>
      <trkpt lat="48.79231" lon="-3.31864">
        <ele>85</ele>
        <time>2015-01-18T09:55:52Z</time>
      </trkpt>
      <trkpt lat="48.79226" lon="-3.31873">
        <ele>85</ele>
        <time>2015-01-18T09:55:53Z</time>
      </trkpt>
      <trkpt lat="48.79221" lon="-3.31881">
        <ele>85</ele>
        <time>2015-01-18T09:55:54Z</time>
      </trkpt>
      <trkpt lat="48.79216" lon="-3.3189">
        <ele>85</ele>
        <time>2015-01-18T09:55:55Z</time>
      </trkpt>
      <trkpt lat="48.7921" lon="-3.31899">
        <ele>85</ele>
        <time>2015-01-18T09:55:56Z</time>
      </trkpt>
      <trkpt lat="48.79205" lon="-3.31908">
        <ele>85</ele>
        <time>2015-01-18T09:55:57Z</time>
      </trkpt>
      <trkpt lat="48.79199" lon="-3.31916">
        <ele>85</ele>
        <time>2015-01-18T09:55:58Z</time>
      </trkpt>
      <trkpt lat="48.79194" lon="-3.31925">
        <ele>85</ele>
        <time>2015-01-18T09:55:59Z</time>
      </trkpt>
      <trkpt lat="48.79188" lon="-3.31934">
        <ele>85</ele>
        <time>2015-01-18T09:56:00Z</time>
      </trkpt>
      <trkpt lat="48.79182" lon="-3.31943">
        <ele>86</ele>
        <time>2015-01-18T09:56:01Z</time>
      </trkpt>
      <trkpt lat="48.79177" lon="-3.31952">
        <ele>86</ele>
        <time>2015-01-18T09:56:02Z</time>
      </trkpt>
      <trkpt lat="48.79171" lon="-3.3196">
        <ele>86</ele>
        <time>2015-01-18T09:56:03Z</time>
      </trkpt>
      <trkpt lat="48.79166" lon="-3.31969">
        <ele>86</ele>
        <time>2015-01-18T09:56:04Z</time>
      </trkpt>
      <trkpt lat="48.7916" lon="-3.31977">
        <ele>86</ele>
        <time>2015-01-18T09:56:05Z</time>
      </trkpt>
      <trkpt lat="48.79154" lon="-3.31986">
        <ele>86</ele>
        <time>2015-01-18T09:56:06Z</time>
      </trkpt>
      <trkpt lat="48.79149" lon="-3.31994">
        <ele>86</ele>
        <time>2015-01-18T09:56:07Z</time>
      </trkpt>
      <trkpt lat="48.79143" lon="-3.32003">
        <ele>86</ele>
        <time>2015-01-18T09:56:08Z</time>
      </trkpt>
      <trkpt lat="48.79137" lon="-3.32011">
        <ele>86</ele>
        <time>2015-01-18T09:56:09Z</time>
      </trkpt>
      <trkpt lat="48.79131" lon="-3.32018">
        <ele>86</ele>
        <time>2015-01-18T09:56:10Z</time>
      </trkpt>
      <trkpt lat="48.79125" lon="-3.32026">
        <ele>86</ele>
        <time>2015-01-18T09:56:11Z</time>
      </trkpt>
      <trkpt lat="48.79119" lon="-3.32034">
        <ele>86</ele>
        <time>2015-01-18T09:56:12Z</time>
      </trkpt>
      <trkpt lat="48.79113" lon="-3.32042">
        <ele>86</ele>
        <time>2015-01-18T09:56:13Z</time>
      </trkpt>
      <trkpt lat="48.79107" lon="-3.32049">
        <ele>86</ele>
        <time>2015-01-18T09:56:14Z</time>
      </trkpt>
      <trkpt lat="48.79101" lon="-3.32056">
        <ele>86</ele>
        <time>2015-01-18T09:56:15Z</time>
      </trkpt>
      <trkpt lat="48.79095" lon="-3.32064">
        <ele>86</ele>
        <time>2015-01-18T09:56:16Z</time>
      </trkpt>
      <trkpt lat="48.79089" lon="-3.32071">
        <ele>86</ele>
        <time>2015-01-18T09:56:17Z</time>
      </trkpt>
      <trkpt lat="48.79083" lon="-3.32078">
        <ele>86</ele>
        <time>2015-01-18T09:56:18Z</time>
      </trkpt>
      <trkpt lat="48.79077" lon="-3.32085">
        <ele>87</ele>
        <time>2015-01-18T09:56:19Z</time>
      </trkpt>
      <trkpt lat="48.79071" lon="-3.32093">
        <ele>87</ele>
        <time>2015-01-18T09:56:20Z</time>
      </trkpt>
      <trkpt lat="48.79065" lon="-3.321">
        <ele>87</ele>
        <time>2015-01-18T09:56:21Z</time>
      </trkpt>
      <trkpt lat="48.79058" lon="-3.32107">
        <ele>87</ele>
        <time>2015-01-18T09:56:22Z</time>
      </trkpt>
      <trkpt lat="48.79052" lon="-3.32114">
        <ele>87</ele>
        <time>2015-01-18T09:56:23Z</time>
      </trkpt>
      <trkpt lat="48.79046" lon="-3.32121">
        <ele>87</ele>
        <time>2015-01-18T09:56:24Z</time>
      </trkpt>
      <trkpt lat="48.7904" lon="-3.32128">
        <ele>87</ele>
        <time>2015-01-18T09:56:25Z</time>
      </trkpt>
      <trkpt lat="48.79034" lon="-3.32136">
        <ele>87</ele>
        <time>2015-01-18T09:56:26Z</time>
      </trkpt>
      <trkpt lat="48.79027" lon="-3.32143">
        <ele>87</ele>
        <time>2015-01-18T09:56:27Z</time>
      </trkpt>
      <trkpt lat="48.79021" lon="-3.32151">
        <ele>87</ele>
        <time>2015-01-18T09:56:28Z</time>
      </trkpt>
      <trkpt lat="48.79015" lon="-3.32158">
        <ele>87</ele>
        <time>2015-01-18T09:56:29Z</time>
      </trkpt>
      <trkpt lat="48.79008" lon="-3.32165">
        <ele>87</ele>
        <time>2015-01-18T09:56:30Z</time>
      </trkpt>
      <trkpt lat="48.79002" lon="-3.32173">
        <ele>87</ele>
        <time>2015-01-18T09:56:31Z</time>
      </trkpt>
      <trkpt lat="48.78996" lon="-3.32181">
        <ele>87</ele>
        <time>2015-01-18T09:56:32Z</time>
      </trkpt>
      <trkpt lat="48.78989" lon="-3.32188">
        <ele>87</ele>
        <time>2015-01-18T09:56:33Z</time>
      </trkpt>
      <trkpt lat="48.78983" lon="-3.32196">
        <ele>88</ele>
        <time>2015-01-18T09:56:34Z</time>
      </trkpt>
      <trkpt lat="48.78976" lon="-3.32203">
        <ele>88</ele>
        <time>2015-01-18T09:56:35Z</time>
      </trkpt>
      <trkpt lat="48.7897" lon="-3.32211">
        <ele>88</ele>
        <time>2015-01-18T09:56:36Z</time>
      </trkpt>
      <trkpt lat="48.78963" lon="-3.32218">
        <ele>88</ele>
        <time>2015-01-18T09:56:37Z</time>
      </trkpt>
      <trkpt lat="48.78957" lon="-3.32225">
        <ele>88</ele>
        <time>2015-01-18T09:56:38Z</time>
      </trkpt>
      <trkpt lat="48.78951" lon="-3.32233">
        <ele>88</ele>
        <time>2015-01-18T09:56:39Z</time>
      </trkpt>
      <trkpt lat="48.78944" lon="-3.3224">
        <ele>88</ele>
        <time>2015-01-18T09:56:40Z</time>
      </trkpt>
      <trkpt lat="48.78938" lon="-3.32247">
        <ele>88</ele>
        <time>2015-01-18T09:56:41Z</time>
      </trkpt>
      <trkpt lat="48.78932" lon="-3.32255">
        <ele>88</ele>
        <time>2015-01-18T09:56:42Z</time>
      </trkpt>
      <trkpt lat="48.78926" lon="-3.32262">
        <ele>88</ele>
        <time>2015-01-18T09:56:43Z</time>
      </trkpt>
      <trkpt lat="48.7892" lon="-3.3227">
        <ele>88</ele>
        <time>2015-01-18T09:56:44Z</time>
      </trkpt>
      <trkpt lat="48.78914" lon="-3.32277">
        <ele>88</ele>
        <time>2015-01-18T09:56:45Z</time>
      </trkpt>
      <trkpt lat="48.78908" lon="-3.32285">
        <ele>88</ele>
        <time>2015-01-18T09:56:46Z</time>
      </trkpt>
      <trkpt lat="48.78902" lon="-3.32294">
        <ele>88</ele>
        <time>2015-01-18T09:56:47Z</time>
      </trkpt>
      <trkpt lat="48.78897" lon="-3.32302">
        <ele>88</ele>
        <time>2015-01-18T09:56:48Z</time>
      </trkpt>
      <trkpt lat="48.78891" lon="-3.3231">
        <ele>88</ele>
        <time>2015-01-18T09:56:49Z</time>
      </trkpt>
      <trkpt lat="48.78885" lon="-3.32318">
        <ele>88</ele>
        <time>2015-01-18T09:56:50Z</time>
      </trkpt>
      <trkpt lat="48.7888" lon="-3.32327">
        <ele>88</ele>
        <time>2015-01-18T09:56:51Z</time>
      </trkpt>
      <trkpt lat="48.78874" lon="-3.32335">
        <ele>88</ele>
        <time>2015-01-18T09:56:52Z</time>
      </trkpt>
      <trkpt lat="48.78868" lon="-3.32344">
        <ele>88</ele>
        <time>2015-01-18T09:56:53Z</time>
      </trkpt>
      <trkpt lat="48.78862" lon="-3.32352">
        <ele>88</ele>
        <time>2015-01-18T09:56:54Z</time>
      </trkpt>
      <trkpt lat="48.78857" lon="-3.32361">
        <ele>88</ele>
        <time>2015-01-18T09:56:55Z</time>
      </trkpt>
      <trkpt lat="48.78851" lon="-3.32369">
        <ele>88</ele>
        <time>2015-01-18T09:56:56Z</time>
      </trkpt>
      <trkpt lat="48.78846" lon="-3.32378">
        <ele>88</ele>
        <time>2015-01-18T09:56:57Z</time>
      </trkpt>
      <trkpt lat="48.7884" lon="-3.32386">
        <ele>88</ele>
        <time>2015-01-18T09:56:58Z</time>
      </trkpt>
      <trkpt lat="48.78834" lon="-3.32395">
        <ele>88</ele>
        <time>2015-01-18T09:56:59Z</time>
      </trkpt>
      <trkpt lat="48.78829" lon="-3.32403">
        <ele>89</ele>
        <time>2015-01-18T09:57:00Z</time>
      </trkpt>
      <trkpt lat="48.78823" lon="-3.32412">
        <ele>89</ele>
        <time>2015-01-18T09:57:01Z</time>
      </trkpt>
      <trkpt lat="48.78818" lon="-3.3242">
        <ele>89</ele>
        <time>2015-01-18T09:57:02Z</time>
      </trkpt>
      <trkpt lat="48.78812" lon="-3.32428">
        <ele>89</ele>
        <time>2015-01-18T09:57:03Z</time>
      </trkpt>
      <trkpt lat="48.78807" lon="-3.32435">
        <ele>89</ele>
        <time>2015-01-18T09:57:04Z</time>
      </trkpt>
      <trkpt lat="48.78802" lon="-3.32443">
        <ele>89</ele>
        <time>2015-01-18T09:57:05Z</time>
      </trkpt>
      <trkpt lat="48.78797" lon="-3.3245">
        <ele>89</ele>
        <time>2015-01-18T09:57:06Z</time>
      </trkpt>
      <trkpt lat="48.78791" lon="-3.32458">
        <ele>90</ele>
        <time>2015-01-18T09:57:07Z</time>
      </trkpt>
      <trkpt lat="48.78786" lon="-3.32467">
        <ele>90</ele>
        <time>2015-01-18T09:57:08Z</time>
      </trkpt>
      <trkpt lat="48.7878" lon="-3.32475">
        <ele>90</ele>
        <time>2015-01-18T09:57:09Z</time>
      </trkpt>
      <trkpt lat="48.78774" lon="-3.32483">
        <ele>90</ele>
        <time>2015-01-18T09:57:10Z</time>
      </trkpt>
      <trkpt lat="48.78768" lon="-3.32491">
        <ele>90</ele>
        <time>2015-01-18T09:57:11Z</time>
      </trkpt>
      <trkpt lat="48.78762" lon="-3.32499">
        <ele>90</ele>
        <time>2015-01-18T09:57:12Z</time>
      </trkpt>
      <trkpt lat="48.78755" lon="-3.32506">
        <ele>90</ele>
        <time>2015-01-18T09:57:13Z</time>
      </trkpt>
      <trkpt lat="48.78748" lon="-3.32513">
        <ele>91</ele>
        <time>2015-01-18T09:57:14Z</time>
      </trkpt>
      <trkpt lat="48.78742" lon="-3.32519">
        <ele>91</ele>
        <time>2015-01-18T09:57:15Z</time>
      </trkpt>
      <trkpt lat="48.78735" lon="-3.32525">
        <ele>91</ele>
        <time>2015-01-18T09:57:16Z</time>
      </trkpt>
      <trkpt lat="48.78728" lon="-3.32532">
        <ele>91</ele>
        <time>2015-01-18T09:57:17Z</time>
      </trkpt>
      <trkpt lat="48.78721" lon="-3.32538">
        <ele>91</ele>
        <time>2015-01-18T09:57:18Z</time>
      </trkpt>
      <trkpt lat="48.78714" lon="-3.32544">
        <ele>91</ele>
        <time>2015-01-18T09:57:19Z</time>
      </trkpt>
      <trkpt lat="48.78708" lon="-3.3255">
        <ele>91</ele>
        <time>2015-01-18T09:57:20Z</time>
      </trkpt>
      <trkpt lat="48.78701" lon="-3.32556">
        <ele>91</ele>
        <time>2015-01-18T09:57:21Z</time>
      </trkpt>
      <trkpt lat="48.78695" lon="-3.32562">
        <ele>92</ele>
        <time>2015-01-18T09:57:22Z</time>
      </trkpt>
      <trkpt lat="48.78689" lon="-3.32567">
        <ele>92</ele>
        <time>2015-01-18T09:57:23Z</time>
      </trkpt>
      <trkpt lat="48.78683" lon="-3.32573">
        <ele>92</ele>
        <time>2015-01-18T09:57:24Z</time>
      </trkpt>
      <trkpt lat="48.78677" lon="-3.32578">
        <ele>92</ele>
        <time>2015-01-18T09:57:25Z</time>
      </trkpt>
      <trkpt lat="48.78671" lon="-3.32584">
        <ele>92</ele>
        <time>2015-01-18T09:57:26Z</time>
      </trkpt>
      <trkpt lat="48.78664" lon="-3.32589">
        <ele>93</ele>
        <time>2015-01-18T09:57:27Z</time>
      </trkpt>
      <trkpt lat="48.78658" lon="-3.32595">
        <ele>93</ele>
        <time>2015-01-18T09:57:28Z</time>
      </trkpt>
      <trkpt lat="48.78651" lon="-3.32601">
        <ele>93</ele>
        <time>2015-01-18T09:57:29Z</time>
      </trkpt>
      <trkpt lat="48.78644" lon="-3.32608">
        <ele>93</ele>
        <time>2015-01-18T09:57:30Z</time>
      </trkpt>
      <trkpt lat="48.78638" lon="-3.32616">
        <ele>94</ele>
        <time>2015-01-18T09:57:31Z</time>
      </trkpt>
      <trkpt lat="48.78632" lon="-3.32624">
        <ele>94</ele>
        <time>2015-01-18T09:57:32Z</time>
      </trkpt>
      <trkpt lat="48.78626" lon="-3.32632">
        <ele>94</ele>
        <time>2015-01-18T09:57:33Z</time>
      </trkpt>
      <trkpt lat="48.78621" lon="-3.32641">
        <ele>94</ele>
        <time>2015-01-18T09:57:34Z</time>
      </trkpt>
      <trkpt lat="48.78617" lon="-3.32649">
        <ele>95</ele>
        <time>2015-01-18T09:57:35Z</time>
      </trkpt>
      <trkpt lat="48.78613" lon="-3.32658">
        <ele>95</ele>
        <time>2015-01-18T09:57:36Z</time>
      </trkpt>
      <trkpt lat="48.78609" lon="-3.32667">
        <ele>95</ele>
        <time>2015-01-18T09:57:37Z</time>
      </trkpt>
      <trkpt lat="48.78606" lon="-3.32676">
        <ele>95</ele>
        <time>2015-01-18T09:57:38Z</time>
      </trkpt>
      <trkpt lat="48.78603" lon="-3.32684">
        <ele>96</ele>
        <time>2015-01-18T09:57:39Z</time>
      </trkpt>
      <trkpt lat="48.786" lon="-3.32693">
        <ele>96</ele>
        <time>2015-01-18T09:57:40Z</time>
      </trkpt>
      <trkpt lat="48.78598" lon="-3.32702">
        <ele>96</ele>
        <time>2015-01-18T09:57:41Z</time>
      </trkpt>
      <trkpt lat="48.78596" lon="-3.32711">
        <ele>96</ele>
        <time>2015-01-18T09:57:42Z</time>
      </trkpt>
      <trkpt lat="48.78594" lon="-3.3272">
        <ele>97</ele>
        <time>2015-01-18T09:57:43Z</time>
      </trkpt>
      <trkpt lat="48.78592" lon="-3.32729">
        <ele>97</ele>
        <time>2015-01-18T09:57:44Z</time>
      </trkpt>
      <trkpt lat="48.7859" lon="-3.32738">
        <ele>97</ele>
        <time>2015-01-18T09:57:45Z</time>
      </trkpt>
      <trkpt lat="48.78587" lon="-3.32747">
        <ele>97</ele>
        <time>2015-01-18T09:57:46Z</time>
      </trkpt>
      <trkpt lat="48.78585" lon="-3.32757">
        <ele>97</ele>
        <time>2015-01-18T09:57:47Z</time>
      </trkpt>
      <trkpt lat="48.78582" lon="-3.32766">
        <ele>98</ele>
        <time>2015-01-18T09:57:48Z</time>
      </trkpt>
      <trkpt lat="48.78579" lon="-3.32774">
        <ele>98</ele>
        <time>2015-01-18T09:57:49Z</time>
      </trkpt>
      <trkpt lat="48.78575" lon="-3.32783">
        <ele>98</ele>
        <time>2015-01-18T09:57:50Z</time>
      </trkpt>
      <trkpt lat="48.78572" lon="-3.32791">
        <ele>98</ele>
        <time>2015-01-18T09:57:51Z</time>
      </trkpt>
      <trkpt lat="48.78568" lon="-3.32799">
        <ele>99</ele>
        <time>2015-01-18T09:57:52Z</time>
      </trkpt>
      <trkpt lat="48.78564" lon="-3.32806">
        <ele>99</ele>
        <time>2015-01-18T09:57:53Z</time>
      </trkpt>
      <trkpt lat="48.7856" lon="-3.32814">
        <ele>99</ele>
        <time>2015-01-18T09:57:54Z</time>
      </trkpt>
      <trkpt lat="48.78556" lon="-3.32821">
        <ele>99</ele>
        <time>2015-01-18T09:57:55Z</time>
      </trkpt>
      <trkpt lat="48.78553" lon="-3.32828">
        <ele>99</ele>
        <time>2015-01-18T09:57:56Z</time>
      </trkpt>
      <trkpt lat="48.78549" lon="-3.32834">
        <ele>99</ele>
        <time>2015-01-18T09:57:57Z</time>
      </trkpt>
      <trkpt lat="48.78545" lon="-3.3284">
        <ele>99</ele>
        <time>2015-01-18T09:57:58Z</time>
      </trkpt>
      <trkpt lat="48.78541" lon="-3.32846">
        <ele>99</ele>
        <time>2015-01-18T09:57:59Z</time>
      </trkpt>
      <trkpt lat="48.78537" lon="-3.32852">
        <ele>99</ele>
        <time>2015-01-18T09:58:00Z</time>
      </trkpt>
      <trkpt lat="48.78534" lon="-3.32858">
        <ele>99</ele>
        <time>2015-01-18T09:58:01Z</time>
      </trkpt>
      <trkpt lat="48.7853" lon="-3.32865">
        <ele>99</ele>
        <time>2015-01-18T09:58:02Z</time>
      </trkpt>
      <trkpt lat="48.78528" lon="-3.32873">
        <ele>99</ele>
        <time>2015-01-18T09:58:03Z</time>
      </trkpt>
      <trkpt lat="48.78526" lon="-3.32881">
        <ele>99</ele>
        <time>2015-01-18T09:58:04Z</time>
      </trkpt>
      <trkpt lat="48.78525" lon="-3.32889">
        <ele>99</ele>
        <time>2015-01-18T09:58:05Z</time>
      </trkpt>
      <trkpt lat="48.78526" lon="-3.32898">
        <ele>99</ele>
        <time>2015-01-18T09:58:06Z</time>
      </trkpt>
      <trkpt lat="48.78527" lon="-3.32907">
        <ele>99</ele>
        <time>2015-01-18T09:58:07Z</time>
      </trkpt>
      <trkpt lat="48.78527" lon="-3.32916">
        <ele>99</ele>
        <time>2015-01-18T09:58:08Z</time>
      </trkpt>
      <trkpt lat="48.78527" lon="-3.32924">
        <ele>99</ele>
        <time>2015-01-18T09:58:09Z</time>
      </trkpt>
      <trkpt lat="48.78525" lon="-3.32932">
        <ele>99</ele>
        <time>2015-01-18T09:58:10Z</time>
      </trkpt>
      <trkpt lat="48.78522" lon="-3.32939">
        <ele>99</ele>
        <time>2015-01-18T09:58:11Z</time>
      </trkpt>
      <trkpt lat="48.78518" lon="-3.32944">
        <ele>99</ele>
        <time>2015-01-18T09:58:12Z</time>
      </trkpt>
      <trkpt lat="48.78513" lon="-3.32946">
        <ele>99</ele>
        <time>2015-01-18T09:58:13Z</time>
      </trkpt>
      <trkpt lat="48.78507" lon="-3.32947">
        <ele>99</ele>
        <time>2015-01-18T09:58:14Z</time>
      </trkpt>
      <trkpt lat="48.78501" lon="-3.32946">
        <ele>99</ele>
        <time>2015-01-18T09:58:15Z</time>
      </trkpt>
      <trkpt lat="48.78495" lon="-3.32946">
        <ele>99</ele>
        <time>2015-01-18T09:58:16Z</time>
      </trkpt>
      <trkpt lat="48.78489" lon="-3.32947">
        <ele>99</ele>
        <time>2015-01-18T09:58:17Z</time>
      </trkpt>
      <trkpt lat="48.78483" lon="-3.3295">
        <ele>99</ele>
        <time>2015-01-18T09:58:18Z</time>
      </trkpt>
      <trkpt lat="48.78477" lon="-3.32954">
        <ele>99</ele>
        <time>2015-01-18T09:58:19Z</time>
      </trkpt>
      <trkpt lat="48.78471" lon="-3.3296">
        <ele>99</ele>
        <time>2015-01-18T09:58:20Z</time>
      </trkpt>
      <trkpt lat="48.78466" lon="-3.32966">
        <ele>99</ele>
        <time>2015-01-18T09:58:21Z</time>
      </trkpt>
      <trkpt lat="48.78461" lon="-3.32973">
        <ele>99</ele>
        <time>2015-01-18T09:58:22Z</time>
      </trkpt>
      <trkpt lat="48.78457" lon="-3.32981">
        <ele>99</ele>
        <time>2015-01-18T09:58:23Z</time>
      </trkpt>
      <trkpt lat="48.78453" lon="-3.32989">
        <ele>99</ele>
        <time>2015-01-18T09:58:24Z</time>
      </trkpt>
      <trkpt lat="48.78449" lon="-3.32997">
        <ele>99</ele>
        <time>2015-01-18T09:58:25Z</time>
      </trkpt>
      <trkpt lat="48.78445" lon="-3.33006">
        <ele>99</ele>
        <time>2015-01-18T09:58:26Z</time>
      </trkpt>
      <trkpt lat="48.78442" lon="-3.33014">
        <ele>99</ele>
        <time>2015-01-18T09:58:27Z</time>
      </trkpt>
      <trkpt lat="48.78438" lon="-3.33022">
        <ele>99</ele>
        <time>2015-01-18T09:58:28Z</time>
      </trkpt>
      <trkpt lat="48.78434" lon="-3.3303">
        <ele>99</ele>
        <time>2015-01-18T09:58:29Z</time>
      </trkpt>
      <trkpt lat="48.78431" lon="-3.33039">
        <ele>99</ele>
        <time>2015-01-18T09:58:30Z</time>
      </trkpt>
      <trkpt lat="48.78427" lon="-3.33047">
        <ele>99</ele>
        <time>2015-01-18T09:58:31Z</time>
      </trkpt>
      <trkpt lat="48.78423" lon="-3.33055">
        <ele>99</ele>
        <time>2015-01-18T09:58:32Z</time>
      </trkpt>
      <trkpt lat="48.7842" lon="-3.33063">
        <ele>99</ele>
        <time>2015-01-18T09:58:33Z</time>
      </trkpt>
      <trkpt lat="48.78416" lon="-3.33071">
        <ele>100</ele>
        <time>2015-01-18T09:58:34Z</time>
      </trkpt>
      <trkpt lat="48.78413" lon="-3.3308">
        <ele>100</ele>
        <time>2015-01-18T09:58:35Z</time>
      </trkpt>
      <trkpt lat="48.78409" lon="-3.33087">
        <ele>100</ele>
        <time>2015-01-18T09:58:36Z</time>
      </trkpt>
      <trkpt lat="48.78406" lon="-3.33096">
        <ele>100</ele>
        <time>2015-01-18T09:58:37Z</time>
      </trkpt>
      <trkpt lat="48.78402" lon="-3.33104">
        <ele>100</ele>
        <time>2015-01-18T09:58:38Z</time>
      </trkpt>
      <trkpt lat="48.78399" lon="-3.33112">
        <ele>100</ele>
        <time>2015-01-18T09:58:39Z</time>
      </trkpt>
      <trkpt lat="48.78396" lon="-3.3312">
        <ele>100</ele>
        <time>2015-01-18T09:58:40Z</time>
      </trkpt>
      <trkpt lat="48.78393" lon="-3.33128">
        <ele>101</ele>
        <time>2015-01-18T09:58:41Z</time>
      </trkpt>
      <trkpt lat="48.78389" lon="-3.33136">
        <ele>101</ele>
        <time>2015-01-18T09:58:42Z</time>
      </trkpt>
      <trkpt lat="48.78386" lon="-3.33143">
        <ele>101</ele>
        <time>2015-01-18T09:58:43Z</time>
      </trkpt>
      <trkpt lat="48.78382" lon="-3.33151">
        <ele>101</ele>
        <time>2015-01-18T09:58:44Z</time>
      </trkpt>
      <trkpt lat="48.78379" lon="-3.33158">
        <ele>101</ele>
        <time>2015-01-18T09:58:45Z</time>
      </trkpt>
      <trkpt lat="48.78375" lon="-3.33166">
        <ele>101</ele>
        <time>2015-01-18T09:58:46Z</time>
      </trkpt>
      <trkpt lat="48.78372" lon="-3.33174">
        <ele>101</ele>
        <time>2015-01-18T09:58:47Z</time>
      </trkpt>
      <trkpt lat="48.78369" lon="-3.33183">
        <ele>101</ele>
        <time>2015-01-18T09:58:48Z</time>
      </trkpt>
      <trkpt lat="48.78365" lon="-3.33191">
        <ele>101</ele>
        <time>2015-01-18T09:58:49Z</time>
      </trkpt>
      <trkpt lat="48.78362" lon="-3.33199">
        <ele>101</ele>
        <time>2015-01-18T09:58:50Z</time>
      </trkpt>
      <trkpt lat="48.78358" lon="-3.33207">
        <ele>101</ele>
        <time>2015-01-18T09:58:51Z</time>
      </trkpt>
      <trkpt lat="48.78355" lon="-3.33214">
        <ele>101</ele>
        <time>2015-01-18T09:58:52Z</time>
      </trkpt>
      <trkpt lat="48.78351" lon="-3.33222">
        <ele>101</ele>
        <time>2015-01-18T09:58:53Z</time>
      </trkpt>
      <trkpt lat="48.78347" lon="-3.3323">
        <ele>101</ele>
        <time>2015-01-18T09:58:54Z</time>
      </trkpt>
      <trkpt lat="48.78343" lon="-3.33238">
        <ele>101</ele>
        <time>2015-01-18T09:58:55Z</time>
      </trkpt>
      <trkpt lat="48.7834" lon="-3.33246">
        <ele>101</ele>
        <time>2015-01-18T09:58:56Z</time>
      </trkpt>
      <trkpt lat="48.78336" lon="-3.33255">
        <ele>101</ele>
        <time>2015-01-18T09:58:57Z</time>
      </trkpt>
      <trkpt lat="48.78333" lon="-3.33263">
        <ele>101</ele>
        <time>2015-01-18T09:58:58Z</time>
      </trkpt>
      <trkpt lat="48.78329" lon="-3.33271">
        <ele>101</ele>
        <time>2015-01-18T09:58:59Z</time>
      </trkpt>
      <trkpt lat="48.78325" lon="-3.33278">
        <ele>101</ele>
        <time>2015-01-18T09:59:00Z</time>
      </trkpt>
      <trkpt lat="48.78321" lon="-3.33286">
        <ele>101</ele>
        <time>2015-01-18T09:59:01Z</time>
      </trkpt>
      <trkpt lat="48.78317" lon="-3.33294">
        <ele>101</ele>
        <time>2015-01-18T09:59:02Z</time>
      </trkpt>
      <trkpt lat="48.78313" lon="-3.33302">
        <ele>101</ele>
        <time>2015-01-18T09:59:03Z</time>
      </trkpt>
      <trkpt lat="48.78309" lon="-3.3331">
        <ele>101</ele>
        <time>2015-01-18T09:59:04Z</time>
      </trkpt>
      <trkpt lat="48.78305" lon="-3.33318">
        <ele>101</ele>
        <time>2015-01-18T09:59:05Z</time>
      </trkpt>
      <trkpt lat="48.78301" lon="-3.33326">
        <ele>101</ele>
        <time>2015-01-18T09:59:06Z</time>
      </trkpt>
      <trkpt lat="48.78297" lon="-3.33333">
        <ele>101</ele>
        <time>2015-01-18T09:59:07Z</time>
      </trkpt>
      <trkpt lat="48.78294" lon="-3.33341">
        <ele>101</ele>
        <time>2015-01-18T09:59:08Z</time>
      </trkpt>
      <trkpt lat="48.78289" lon="-3.33348">
        <ele>101</ele>
        <time>2015-01-18T09:59:09Z</time>
      </trkpt>
      <trkpt lat="48.78286" lon="-3.33356">
        <ele>101</ele>
        <time>2015-01-18T09:59:10Z</time>
      </trkpt>
      <trkpt lat="48.78281" lon="-3.33364">
        <ele>101</ele>
        <time>2015-01-18T09:59:11Z</time>
      </trkpt>
      <trkpt lat="48.78278" lon="-3.33372">
        <ele>101</ele>
        <time>2015-01-18T09:59:12Z</time>
      </trkpt>
      <trkpt lat="48.78273" lon="-3.33379">
        <ele>101</ele>
        <time>2015-01-18T09:59:13Z</time>
      </trkpt>
      <trkpt lat="48.7827" lon="-3.33387">
        <ele>101</ele>
        <time>2015-01-18T09:59:14Z</time>
      </trkpt>
      <trkpt lat="48.78265" lon="-3.33395">
        <ele>101</ele>
        <time>2015-01-18T09:59:15Z</time>
      </trkpt>
      <trkpt lat="48.78261" lon="-3.33403">
        <ele>101</ele>
        <time>2015-01-18T09:59:16Z</time>
      </trkpt>
      <trkpt lat="48.78257" lon="-3.33411">
        <ele>101</ele>
        <time>2015-01-18T09:59:17Z</time>
      </trkpt>
      <trkpt lat="48.78252" lon="-3.33418">
        <ele>101</ele>
        <time>2015-01-18T09:59:18Z</time>
      </trkpt>
      <trkpt lat="48.78247" lon="-3.33425">
        <ele>101</ele>
        <time>2015-01-18T09:59:19Z</time>
      </trkpt>
      <trkpt lat="48.78241" lon="-3.33433">
        <ele>101</ele>
        <time>2015-01-18T09:59:20Z</time>
      </trkpt>
      <trkpt lat="48.78235" lon="-3.3344">
        <ele>101</ele>
        <time>2015-01-18T09:59:21Z</time>
      </trkpt>
      <trkpt lat="48.78229" lon="-3.33447">
        <ele>101</ele>
        <time>2015-01-18T09:59:22Z</time>
      </trkpt>
      <trkpt lat="48.78222" lon="-3.33454">
        <ele>101</ele>
        <time>2015-01-18T09:59:23Z</time>
      </trkpt>
      <trkpt lat="48.78215" lon="-3.33461">
        <ele>101</ele>
        <time>2015-01-18T09:59:24Z</time>
      </trkpt>
      <trkpt lat="48.78209" lon="-3.33468">
        <ele>101</ele>
        <time>2015-01-18T09:59:25Z</time>
      </trkpt>
      <trkpt lat="48.78202" lon="-3.33476">
        <ele>101</ele>
        <time>2015-01-18T09:59:26Z</time>
      </trkpt>
      <trkpt lat="48.78195" lon="-3.33484">
        <ele>101</ele>
        <time>2015-01-18T09:59:27Z</time>
      </trkpt>
      <trkpt lat="48.78189" lon="-3.33493">
        <ele>101</ele>
        <time>2015-01-18T09:59:28Z</time>
      </trkpt>
      <trkpt lat="48.78183" lon="-3.33502">
        <ele>101</ele>
        <time>2015-01-18T09:59:29Z</time>
      </trkpt>
      <trkpt lat="48.78177" lon="-3.33512">
        <ele>101</ele>
        <time>2015-01-18T09:59:30Z</time>
      </trkpt>
      <trkpt lat="48.78172" lon="-3.33522">
        <ele>101</ele>
        <time>2015-01-18T09:59:31Z</time>
      </trkpt>
      <trkpt lat="48.78167" lon="-3.33533">
        <ele>101</ele>
        <time>2015-01-18T09:59:32Z</time>
      </trkpt>
      <trkpt lat="48.78162" lon="-3.33544">
        <ele>101</ele>
        <time>2015-01-18T09:59:33Z</time>
      </trkpt>
      <trkpt lat="48.78157" lon="-3.33556">
        <ele>101</ele>
        <time>2015-01-18T09:59:34Z</time>
      </trkpt>
      <trkpt lat="48.78153" lon="-3.33568">
        <ele>101</ele>
        <time>2015-01-18T09:59:35Z</time>
      </trkpt>
      <trkpt lat="48.78149" lon="-3.3358">
        <ele>101</ele>
        <time>2015-01-18T09:59:36Z</time>
      </trkpt>
      <trkpt lat="48.78145" lon="-3.33593">
        <ele>101</ele>
        <time>2015-01-18T09:59:37Z</time>
      </trkpt>
      <trkpt lat="48.78141" lon="-3.33606">
        <ele>101</ele>
        <time>2015-01-18T09:59:38Z</time>
      </trkpt>
      <trkpt lat="48.78137" lon="-3.33619">
        <ele>101</ele>
        <time>2015-01-18T09:59:39Z</time>
      </trkpt>
      <trkpt lat="48.78133" lon="-3.33631">
        <ele>101</ele>
        <time>2015-01-18T09:59:40Z</time>
      </trkpt>
      <trkpt lat="48.78129" lon="-3.33643">
        <ele>101</ele>
        <time>2015-01-18T09:59:41Z</time>
      </trkpt>
      <trkpt lat="48.78125" lon="-3.33655">
        <ele>101</ele>
        <time>2015-01-18T09:59:42Z</time>
      </trkpt>
      <trkpt lat="48.7812" lon="-3.33666">
        <ele>101</ele>
        <time>2015-01-18T09:59:43Z</time>
      </trkpt>
      <trkpt lat="48.78116" lon="-3.33677">
        <ele>101</ele>
        <time>2015-01-18T09:59:44Z</time>
      </trkpt>
      <trkpt lat="48.78112" lon="-3.33688">
        <ele>101</ele>
        <time>2015-01-18T09:59:45Z</time>
      </trkpt>
      <trkpt lat="48.78108" lon="-3.33699">
        <ele>101</ele>
        <time>2015-01-18T09:59:46Z</time>
      </trkpt>
      <trkpt lat="48.78105" lon="-3.3371">
        <ele>101</ele>
        <time>2015-01-18T09:59:47Z</time>
      </trkpt>
      <trkpt lat="48.78101" lon="-3.3372">
        <ele>101</ele>
        <time>2015-01-18T09:59:48Z</time>
      </trkpt>
      <trkpt lat="48.78098" lon="-3.33732">
        <ele>101</ele>
        <time>2015-01-18T09:59:49Z</time>
      </trkpt>
      <trkpt lat="48.78095" lon="-3.33743">
        <ele>101</ele>
        <time>2015-01-18T09:59:50Z</time>
      </trkpt>
      <trkpt lat="48.78092" lon="-3.33755">
        <ele>101</ele>
        <time>2015-01-18T09:59:51Z</time>
      </trkpt>
      <trkpt lat="48.7809" lon="-3.33767">
        <ele>101</ele>
        <time>2015-01-18T09:59:52Z</time>
      </trkpt>
      <trkpt lat="48.78087" lon="-3.33778">
        <ele>101</ele>
        <time>2015-01-18T09:59:53Z</time>
      </trkpt>
      <trkpt lat="48.78084" lon="-3.3379">
        <ele>101</ele>
        <time>2015-01-18T09:59:54Z</time>
      </trkpt>
      <trkpt lat="48.78082" lon="-3.33802">
        <ele>101</ele>
        <time>2015-01-18T09:59:55Z</time>
      </trkpt>
      <trkpt lat="48.7808" lon="-3.33814">
        <ele>101</ele>
        <time>2015-01-18T09:59:56Z</time>
      </trkpt>
      <trkpt lat="48.78077" lon="-3.33826">
        <ele>101</ele>
        <time>2015-01-18T09:59:57Z</time>
      </trkpt>
      <trkpt lat="48.78075" lon="-3.33837">
        <ele>101</ele>
        <time>2015-01-18T09:59:58Z</time>
      </trkpt>
      <trkpt lat="48.78074" lon="-3.33848">
        <ele>101</ele>
        <time>2015-01-18T09:59:59Z</time>
      </trkpt>
      <trkpt lat="48.78072" lon="-3.33858">
        <ele>101</ele>
        <time>2015-01-18T10:00:00Z</time>
      </trkpt>
      <trkpt lat="48.7807" lon="-3.33868">
        <ele>101</ele>
        <time>2015-01-18T10:00:01Z</time>
      </trkpt>
      <trkpt lat="48.78068" lon="-3.33878">
        <ele>101</ele>
        <time>2015-01-18T10:00:02Z</time>
      </trkpt>
      <trkpt lat="48.78066" lon="-3.33888">
        <ele>101</ele>
        <time>2015-01-18T10:00:03Z</time>
      </trkpt>
      <trkpt lat="48.78064" lon="-3.33898">
        <ele>101</ele>
        <time>2015-01-18T10:00:04Z</time>
      </trkpt>
      <trkpt lat="48.78062" lon="-3.33907">
        <ele>101</ele>
        <time>2015-01-18T10:00:05Z</time>
      </trkpt>
      <trkpt lat="48.78059" lon="-3.33917">
        <ele>101</ele>
        <time>2015-01-18T10:00:06Z</time>
      </trkpt>
      <trkpt lat="48.78058" lon="-3.33927">
        <ele>101</ele>
        <time>2015-01-18T10:00:07Z</time>
      </trkpt>
      <trkpt lat="48.78056" lon="-3.33936">
        <ele>101</ele>
        <time>2015-01-18T10:00:08Z</time>
      </trkpt>
      <trkpt lat="48.78054" lon="-3.33946">
        <ele>101</ele>
        <time>2015-01-18T10:00:09Z</time>
      </trkpt>
      <trkpt lat="48.78053" lon="-3.33956">
        <ele>101</ele>
        <time>2015-01-18T10:00:10Z</time>
      </trkpt>
      <trkpt lat="48.78051" lon="-3.33966">
        <ele>101</ele>
        <time>2015-01-18T10:00:11Z</time>
      </trkpt>
      <trkpt lat="48.78049" lon="-3.33977">
        <ele>101</ele>
        <time>2015-01-18T10:00:12Z</time>
      </trkpt>
      <trkpt lat="48.78046" lon="-3.33987">
        <ele>101</ele>
        <time>2015-01-18T10:00:13Z</time>
      </trkpt>
      <trkpt lat="48.78044" lon="-3.33998">
        <ele>101</ele>
        <time>2015-01-18T10:00:14Z</time>
      </trkpt>
      <trkpt lat="48.78042" lon="-3.34009">
        <ele>101</ele>
        <time>2015-01-18T10:00:15Z</time>
      </trkpt>
      <trkpt lat="48.78039" lon="-3.3402">
        <ele>101</ele>
        <time>2015-01-18T10:00:16Z</time>
      </trkpt>
      <trkpt lat="48.78037" lon="-3.34032">
        <ele>101</ele>
        <time>2015-01-18T10:00:17Z</time>
      </trkpt>
      <trkpt lat="48.78034" lon="-3.34043">
        <ele>101</ele>
        <time>2015-01-18T10:00:18Z</time>
      </trkpt>
      <trkpt lat="48.78031" lon="-3.34054">
        <ele>101</ele>
        <time>2015-01-18T10:00:19Z</time>
      </trkpt>
      <trkpt lat="48.78028" lon="-3.34066">
        <ele>101</ele>
        <time>2015-01-18T10:00:20Z</time>
      </trkpt>
      <trkpt lat="48.78025" lon="-3.34079">
        <ele>101</ele>
        <time>2015-01-18T10:00:21Z</time>
      </trkpt>
      <trkpt lat="48.78022" lon="-3.34091">
        <ele>101</ele>
        <time>2015-01-18T10:00:22Z</time>
      </trkpt>
      <trkpt lat="48.78019" lon="-3.34104">
        <ele>101</ele>
        <time>2015-01-18T10:00:23Z</time>
      </trkpt>
      <trkpt lat="48.78018" lon="-3.34118">
        <ele>101</ele>
        <time>2015-01-18T10:00:24Z</time>
      </trkpt>
      <trkpt lat="48.78017" lon="-3.34132">
        <ele>101</ele>
        <time>2015-01-18T10:00:25Z</time>
      </trkpt>
      <trkpt lat="48.78016" lon="-3.34146">
        <ele>101</ele>
        <time>2015-01-18T10:00:26Z</time>
      </trkpt>
      <trkpt lat="48.78015" lon="-3.34159">
        <ele>101</ele>
        <time>2015-01-18T10:00:27Z</time>
      </trkpt>
      <trkpt lat="48.78014" lon="-3.34173">
        <ele>101</ele>
        <time>2015-01-18T10:00:28Z</time>
      </trkpt>
      <trkpt lat="48.78014" lon="-3.34186">
        <ele>101</ele>
        <time>2015-01-18T10:00:29Z</time>
      </trkpt>
      <trkpt lat="48.78012" lon="-3.34199">
        <ele>101</ele>
        <time>2015-01-18T10:00:30Z</time>
      </trkpt>
      <trkpt lat="48.78011" lon="-3.34212">
        <ele>101</ele>
        <time>2015-01-18T10:00:31Z</time>
      </trkpt>
      <trkpt lat="48.78009" lon="-3.34225">
        <ele>101</ele>
        <time>2015-01-18T10:00:32Z</time>
      </trkpt>
      <trkpt lat="48.78006" lon="-3.34237">
        <ele>101</ele>
        <time>2015-01-18T10:00:33Z</time>
      </trkpt>
      <trkpt lat="48.78003" lon="-3.34249">
        <ele>101</ele>
        <time>2015-01-18T10:00:34Z</time>
      </trkpt>
      <trkpt lat="48.78" lon="-3.3426">
        <ele>101</ele>
        <time>2015-01-18T10:00:35Z</time>
      </trkpt>
      <trkpt lat="48.77997" lon="-3.34272">
        <ele>101</ele>
        <time>2015-01-18T10:00:36Z</time>
      </trkpt>
      <trkpt lat="48.77993" lon="-3.34283">
        <ele>101</ele>
        <time>2015-01-18T10:00:37Z</time>
      </trkpt>
      <trkpt lat="48.77989" lon="-3.34294">
        <ele>101</ele>
        <time>2015-01-18T10:00:38Z</time>
      </trkpt>
      <trkpt lat="48.77985" lon="-3.34304">
        <ele>101</ele>
        <time>2015-01-18T10:00:39Z</time>
      </trkpt>
      <trkpt lat="48.7798" lon="-3.34315">
        <ele>101</ele>
        <time>2015-01-18T10:00:40Z</time>
      </trkpt>
      <trkpt lat="48.77976" lon="-3.34326">
        <ele>101</ele>
        <time>2015-01-18T10:00:41Z</time>
      </trkpt>
      <trkpt lat="48.77972" lon="-3.34336">
        <ele>101</ele>
        <time>2015-01-18T10:00:42Z</time>
      </trkpt>
      <trkpt lat="48.77967" lon="-3.34346">
        <ele>101</ele>
        <time>2015-01-18T10:00:43Z</time>
      </trkpt>
      <trkpt lat="48.77963" lon="-3.34356">
        <ele>101</ele>
        <time>2015-01-18T10:00:44Z</time>
      </trkpt>
      <trkpt lat="48.77959" lon="-3.34367">
        <ele>101</ele>
        <time>2015-01-18T10:00:45Z</time>
      </trkpt>
      <trkpt lat="48.77954" lon="-3.34377">
        <ele>101</ele>
        <time>2015-01-18T10:00:46Z</time>
      </trkpt>
      <trkpt lat="48.77951" lon="-3.34388">
        <ele>101</ele>
        <time>2015-01-18T10:00:47Z</time>
      </trkpt>
      <trkpt lat="48.77947" lon="-3.34398">
        <ele>101</ele>
        <time>2015-01-18T10:00:48Z</time>
      </trkpt>
      <trkpt lat="48.77943" lon="-3.34408">
        <ele>101</ele>
        <time>2015-01-18T10:00:49Z</time>
      </trkpt>
      <trkpt lat="48.7794" lon="-3.34418">
        <ele>101</ele>
        <time>2015-01-18T10:00:50Z</time>
      </trkpt>
      <trkpt lat="48.77937" lon="-3.34429">
        <ele>101</ele>
        <time>2015-01-18T10:00:51Z</time>
      </trkpt>
      <trkpt lat="48.77934" lon="-3.34439">
        <ele>101</ele>
        <time>2015-01-18T10:00:52Z</time>
      </trkpt>
      <trkpt lat="48.77931" lon="-3.34449">
        <ele>101</ele>
        <time>2015-01-18T10:00:53Z</time>
      </trkpt>
      <trkpt lat="48.77928" lon="-3.34459">
        <ele>101</ele>
        <time>2015-01-18T10:00:54Z</time>
      </trkpt>
      <trkpt lat="48.77925" lon="-3.34469">
        <ele>101</ele>
        <time>2015-01-18T10:00:55Z</time>
      </trkpt>
      <trkpt lat="48.77922" lon="-3.3448">
        <ele>101</ele>
        <time>2015-01-18T10:00:56Z</time>
      </trkpt>
      <trkpt lat="48.77919" lon="-3.3449">
        <ele>101</ele>
        <time>2015-01-18T10:00:57Z</time>
      </trkpt>
      <trkpt lat="48.77916" lon="-3.34502">
        <ele>101</ele>
        <time>2015-01-18T10:00:58Z</time>
      </trkpt>
      <trkpt lat="48.77913" lon="-3.34513">
        <ele>101</ele>
        <time>2015-01-18T10:00:59Z</time>
      </trkpt>
      <trkpt lat="48.7791" lon="-3.34523">
        <ele>101</ele>
        <time>2015-01-18T10:01:00Z</time>
      </trkpt>
      <trkpt lat="48.77907" lon="-3.34534">
        <ele>101</ele>
        <time>2015-01-18T10:01:01Z</time>
      </trkpt>
      <trkpt lat="48.77904" lon="-3.34544">
        <ele>101</ele>
        <time>2015-01-18T10:01:02Z</time>
      </trkpt>
      <trkpt lat="48.77902" lon="-3.34555">
        <ele>101</ele>
        <time>2015-01-18T10:01:03Z</time>
      </trkpt>
      <trkpt lat="48.779" lon="-3.34565">
        <ele>101</ele>
        <time>2015-01-18T10:01:04Z</time>
      </trkpt>
      <trkpt lat="48.77898" lon="-3.34576">
        <ele>101</ele>
        <time>2015-01-18T10:01:05Z</time>
      </trkpt>
      <trkpt lat="48.77897" lon="-3.34587">
        <ele>101</ele>
        <time>2015-01-18T10:01:06Z</time>
      </trkpt>
      <trkpt lat="48.77895" lon="-3.34597">
        <ele>101</ele>
        <time>2015-01-18T10:01:07Z</time>
      </trkpt>
      <trkpt lat="48.77893" lon="-3.34609">
        <ele>101</ele>
        <time>2015-01-18T10:01:08Z</time>
      </trkpt>
      <trkpt lat="48.77891" lon="-3.3462">
        <ele>101</ele>
        <time>2015-01-18T10:01:09Z</time>
      </trkpt>
      <trkpt lat="48.77889" lon="-3.34631">
        <ele>101</ele>
        <time>2015-01-18T10:01:10Z</time>
      </trkpt>
      <trkpt lat="48.77887" lon="-3.34643">
        <ele>101</ele>
        <time>2015-01-18T10:01:11Z</time>
      </trkpt>
      <trkpt lat="48.77885" lon="-3.34655">
        <ele>101</ele>
        <time>2015-01-18T10:01:12Z</time>
      </trkpt>
      <trkpt lat="48.77882" lon="-3.34667">
        <ele>101</ele>
        <time>2015-01-18T10:01:13Z</time>
      </trkpt>
      <trkpt lat="48.77879" lon="-3.34679">
        <ele>101</ele>
        <time>2015-01-18T10:01:14Z</time>
      </trkpt>
      <trkpt lat="48.77877" lon="-3.34691">
        <ele>101</ele>
        <time>2015-01-18T10:01:15Z</time>
      </trkpt>
      <trkpt lat="48.77874" lon="-3.34702">
        <ele>101</ele>
        <time>2015-01-18T10:01:16Z</time>
      </trkpt>
      <trkpt lat="48.77871" lon="-3.34714">
        <ele>101</ele>
        <time>2015-01-18T10:01:17Z</time>
      </trkpt>
      <trkpt lat="48.77868" lon="-3.34726">
        <ele>101</ele>
        <time>2015-01-18T10:01:18Z</time>
      </trkpt>
      <trkpt lat="48.77866" lon="-3.34738">
        <ele>101</ele>
        <time>2015-01-18T10:01:19Z</time>
      </trkpt>
      <trkpt lat="48.77863" lon="-3.3475">
        <ele>101</ele>
        <time>2015-01-18T10:01:20Z</time>
      </trkpt>
      <trkpt lat="48.7786" lon="-3.34761">
        <ele>101</ele>
        <time>2015-01-18T10:01:21Z</time>
      </trkpt>
      <trkpt lat="48.77857" lon="-3.34773">
        <ele>101</ele>
        <time>2015-01-18T10:01:22Z</time>
      </trkpt>
      <trkpt lat="48.77854" lon="-3.34784">
        <ele>101</ele>
        <time>2015-01-18T10:01:23Z</time>
      </trkpt>
      <trkpt lat="48.77851" lon="-3.34796">
        <ele>101</ele>
        <time>2015-01-18T10:01:24Z</time>
      </trkpt>
      <trkpt lat="48.77848" lon="-3.34807">
        <ele>101</ele>
        <time>2015-01-18T10:01:25Z</time>
      </trkpt>
      <trkpt lat="48.77846" lon="-3.34819">
        <ele>101</ele>
        <time>2015-01-18T10:01:26Z</time>
      </trkpt>
      <trkpt lat="48.77842" lon="-3.34829">
        <ele>101</ele>
        <time>2015-01-18T10:01:27Z</time>
      </trkpt>
      <trkpt lat="48.77839" lon="-3.3484">
        <ele>101</ele>
        <time>2015-01-18T10:01:28Z</time>
      </trkpt>
      <trkpt lat="48.77836" lon="-3.34851">
        <ele>101</ele>
        <time>2015-01-18T10:01:29Z</time>
      </trkpt>
      <trkpt lat="48.77833" lon="-3.34861">
        <ele>101</ele>
        <time>2015-01-18T10:01:30Z</time>
      </trkpt>
      <trkpt lat="48.77829" lon="-3.34872">
        <ele>101</ele>
        <time>2015-01-18T10:01:31Z</time>
      </trkpt>
      <trkpt lat="48.77826" lon="-3.34883">
        <ele>101</ele>
        <time>2015-01-18T10:01:32Z</time>
      </trkpt>
      <trkpt lat="48.77823" lon="-3.34893">
        <ele>101</ele>
        <time>2015-01-18T10:01:33Z</time>
      </trkpt>
      <trkpt lat="48.7782" lon="-3.34904">
        <ele>101</ele>
        <time>2015-01-18T10:01:34Z</time>
      </trkpt>
      <trkpt lat="48.77817" lon="-3.34915">
        <ele>101</ele>
        <time>2015-01-18T10:01:35Z</time>
      </trkpt>
      <trkpt lat="48.77815" lon="-3.34926">
        <ele>101</ele>
        <time>2015-01-18T10:01:36Z</time>
      </trkpt>
      <trkpt lat="48.77813" lon="-3.34937">
        <ele>101</ele>
        <time>2015-01-18T10:01:37Z</time>
      </trkpt>
      <trkpt lat="48.77812" lon="-3.34947">
        <ele>101</ele>
        <time>2015-01-18T10:01:38Z</time>
      </trkpt>
      <trkpt lat="48.77811" lon="-3.34959">
        <ele>101</ele>
        <time>2015-01-18T10:01:39Z</time>
      </trkpt>
      <trkpt lat="48.77811" lon="-3.3497">
        <ele>101</ele>
        <time>2015-01-18T10:01:40Z</time>
      </trkpt>
      <trkpt lat="48.7781" lon="-3.3499">
        <ele>101</ele>
        <time>2015-01-18T10:01:42Z</time>
      </trkpt>
      <trkpt lat="48.7781" lon="-3.3501">
        <ele>101</ele>
        <time>2015-01-18T10:01:44Z</time>
      </trkpt>
      <trkpt lat="48.7781" lon="-3.35019">
        <ele>101</ele>
        <time>2015-01-18T10:01:45Z</time>
      </trkpt>
      <trkpt lat="48.77809" lon="-3.35029">
        <ele>101</ele>
        <time>2015-01-18T10:01:46Z</time>
      </trkpt>
      <trkpt lat="48.77808" lon="-3.35038">
        <ele>101</ele>
        <time>2015-01-18T10:01:47Z</time>
      </trkpt>
      <trkpt lat="48.77807" lon="-3.35047">
        <ele>101</ele>
        <time>2015-01-18T10:01:48Z</time>
      </trkpt>
      <trkpt lat="48.77805" lon="-3.35056">
        <ele>101</ele>
        <time>2015-01-18T10:01:49Z</time>
      </trkpt>
      <trkpt lat="48.77804" lon="-3.35065">
        <ele>101</ele>
        <time>2015-01-18T10:01:50Z</time>
      </trkpt>
      <trkpt lat="48.77803" lon="-3.35074">
        <ele>101</ele>
        <time>2015-01-18T10:01:51Z</time>
      </trkpt>
      <trkpt lat="48.77801" lon="-3.35082">
        <ele>101</ele>
        <time>2015-01-18T10:01:52Z</time>
      </trkpt>
      <trkpt lat="48.77799" lon="-3.35091">
        <ele>101</ele>
        <time>2015-01-18T10:01:53Z</time>
      </trkpt>
      <trkpt lat="48.77797" lon="-3.35099">
        <ele>101</ele>
        <time>2015-01-18T10:01:54Z</time>
      </trkpt>
      <trkpt lat="48.77796" lon="-3.35108">
        <ele>101</ele>
        <time>2015-01-18T10:01:55Z</time>
      </trkpt>
      <trkpt lat="48.77794" lon="-3.35116">
        <ele>101</ele>
        <time>2015-01-18T10:01:56Z</time>
      </trkpt>
      <trkpt lat="48.77792" lon="-3.35125">
        <ele>101</ele>
        <time>2015-01-18T10:01:57Z</time>
      </trkpt>
      <trkpt lat="48.77791" lon="-3.35134">
        <ele>101</ele>
        <time>2015-01-18T10:01:58Z</time>
      </trkpt>
      <trkpt lat="48.77789" lon="-3.35142">
        <ele>101</ele>
        <time>2015-01-18T10:01:59Z</time>
      </trkpt>
      <trkpt lat="48.77787" lon="-3.35151">
        <ele>101</ele>
        <time>2015-01-18T10:02:00Z</time>
      </trkpt>
      <trkpt lat="48.77786" lon="-3.35159">
        <ele>101</ele>
        <time>2015-01-18T10:02:01Z</time>
      </trkpt>
      <trkpt lat="48.77784" lon="-3.35168">
        <ele>101</ele>
        <time>2015-01-18T10:02:02Z</time>
      </trkpt>
      <trkpt lat="48.77782" lon="-3.35176">
        <ele>101</ele>
        <time>2015-01-18T10:02:03Z</time>
      </trkpt>
      <trkpt lat="48.7778" lon="-3.35185">
        <ele>101</ele>
        <time>2015-01-18T10:02:04Z</time>
      </trkpt>
      <trkpt lat="48.77779" lon="-3.35193">
        <ele>101</ele>
        <time>2015-01-18T10:02:05Z</time>
      </trkpt>
      <trkpt lat="48.77776" lon="-3.35202">
        <ele>101</ele>
        <time>2015-01-18T10:02:06Z</time>
      </trkpt>
      <trkpt lat="48.77774" lon="-3.3521">
        <ele>101</ele>
        <time>2015-01-18T10:02:07Z</time>
      </trkpt>
      <trkpt lat="48.77772" lon="-3.35218">
        <ele>101</ele>
        <time>2015-01-18T10:02:08Z</time>
      </trkpt>
      <trkpt lat="48.77769" lon="-3.35226">
        <ele>101</ele>
        <time>2015-01-18T10:02:09Z</time>
      </trkpt>
      <trkpt lat="48.77767" lon="-3.35235">
        <ele>101</ele>
        <time>2015-01-18T10:02:10Z</time>
      </trkpt>
      <trkpt lat="48.77765" lon="-3.35243">
        <ele>101</ele>
        <time>2015-01-18T10:02:11Z</time>
      </trkpt>
      <trkpt lat="48.77762" lon="-3.35251">
        <ele>101</ele>
        <time>2015-01-18T10:02:12Z</time>
      </trkpt>
      <trkpt lat="48.77759" lon="-3.3526">
        <ele>101</ele>
        <time>2015-01-18T10:02:13Z</time>
      </trkpt>
      <trkpt lat="48.77756" lon="-3.35269">
        <ele>101</ele>
        <time>2015-01-18T10:02:14Z</time>
      </trkpt>
      <trkpt lat="48.77754" lon="-3.35278">
        <ele>101</ele>
        <time>2015-01-18T10:02:15Z</time>
      </trkpt>
      <trkpt lat="48.77751" lon="-3.35287">
        <ele>101</ele>
        <time>2015-01-18T10:02:16Z</time>
      </trkpt>
      <trkpt lat="48.77748" lon="-3.35297">
        <ele>101</ele>
        <time>2015-01-18T10:02:17Z</time>
      </trkpt>
      <trkpt lat="48.77745" lon="-3.35306">
        <ele>101</ele>
        <time>2015-01-18T10:02:18Z</time>
      </trkpt>
      <trkpt lat="48.77742" lon="-3.35316">
        <ele>101</ele>
        <time>2015-01-18T10:02:19Z</time>
      </trkpt>
      <trkpt lat="48.77739" lon="-3.35325">
        <ele>101</ele>
        <time>2015-01-18T10:02:20Z</time>
      </trkpt>
      <trkpt lat="48.77737" lon="-3.35334">
        <ele>101</ele>
        <time>2015-01-18T10:02:21Z</time>
      </trkpt>
      <trkpt lat="48.77734" lon="-3.35344">
        <ele>101</ele>
        <time>2015-01-18T10:02:22Z</time>
      </trkpt>
      <trkpt lat="48.77731" lon="-3.35353">
        <ele>101</ele>
        <time>2015-01-18T10:02:23Z</time>
      </trkpt>
      <trkpt lat="48.77727" lon="-3.35362">
        <ele>101</ele>
        <time>2015-01-18T10:02:24Z</time>
      </trkpt>
      <trkpt lat="48.77724" lon="-3.35371">
        <ele>101</ele>
        <time>2015-01-18T10:02:25Z</time>
      </trkpt>
      <trkpt lat="48.77721" lon="-3.3538">
        <ele>101</ele>
        <time>2015-01-18T10:02:26Z</time>
      </trkpt>
      <trkpt lat="48.77717" lon="-3.35389">
        <ele>101</ele>
        <time>2015-01-18T10:02:27Z</time>
      </trkpt>
      <trkpt lat="48.77713" lon="-3.35399">
        <ele>101</ele>
        <time>2015-01-18T10:02:28Z</time>
      </trkpt>
      <trkpt lat="48.77709" lon="-3.35408">
        <ele>101</ele>
        <time>2015-01-18T10:02:29Z</time>
      </trkpt>
      <trkpt lat="48.77705" lon="-3.35418">
        <ele>101</ele>
        <time>2015-01-18T10:02:30Z</time>
      </trkpt>
      <trkpt lat="48.77701" lon="-3.35427">
        <ele>101</ele>
        <time>2015-01-18T10:02:31Z</time>
      </trkpt>
      <trkpt lat="48.77697" lon="-3.35437">
        <ele>101</ele>
        <time>2015-01-18T10:02:32Z</time>
      </trkpt>
      <trkpt lat="48.77693" lon="-3.35446">
        <ele>101</ele>
        <time>2015-01-18T10:02:33Z</time>
      </trkpt>
      <trkpt lat="48.77689" lon="-3.35455">
        <ele>101</ele>
        <time>2015-01-18T10:02:34Z</time>
      </trkpt>
      <trkpt lat="48.77685" lon="-3.35465">
        <ele>101</ele>
        <time>2015-01-18T10:02:35Z</time>
      </trkpt>
      <trkpt lat="48.77681" lon="-3.35474">
        <ele>101</ele>
        <time>2015-01-18T10:02:36Z</time>
      </trkpt>
      <trkpt lat="48.77678" lon="-3.35483">
        <ele>101</ele>
        <time>2015-01-18T10:02:37Z</time>
      </trkpt>
      <trkpt lat="48.77674" lon="-3.35492">
        <ele>101</ele>
        <time>2015-01-18T10:02:38Z</time>
      </trkpt>
      <trkpt lat="48.7767" lon="-3.35501">
        <ele>101</ele>
        <time>2015-01-18T10:02:39Z</time>
      </trkpt>
      <trkpt lat="48.77667" lon="-3.3551">
        <ele>101</ele>
        <time>2015-01-18T10:02:40Z</time>
      </trkpt>
      <trkpt lat="48.77663" lon="-3.35519">
        <ele>101</ele>
        <time>2015-01-18T10:02:41Z</time>
      </trkpt>
      <trkpt lat="48.77659" lon="-3.35528">
        <ele>101</ele>
        <time>2015-01-18T10:02:42Z</time>
      </trkpt>
      <trkpt lat="48.77656" lon="-3.35537">
        <ele>101</ele>
        <time>2015-01-18T10:02:43Z</time>
      </trkpt>
      <trkpt lat="48.77652" lon="-3.35545">
        <ele>101</ele>
        <time>2015-01-18T10:02:44Z</time>
      </trkpt>
      <trkpt lat="48.77648" lon="-3.35554">
        <ele>101</ele>
        <time>2015-01-18T10:02:45Z</time>
      </trkpt>
      <trkpt lat="48.77645" lon="-3.35563">
        <ele>101</ele>
        <time>2015-01-18T10:02:46Z</time>
      </trkpt>
      <trkpt lat="48.77641" lon="-3.35573">
        <ele>101</ele>
        <time>2015-01-18T10:02:47Z</time>
      </trkpt>
      <trkpt lat="48.77637" lon="-3.35582">
        <ele>101</ele>
        <time>2015-01-18T10:02:48Z</time>
      </trkpt>
      <trkpt lat="48.77634" lon="-3.35592">
        <ele>101</ele>
        <time>2015-01-18T10:02:49Z</time>
      </trkpt>
      <trkpt lat="48.77631" lon="-3.35602">
        <ele>101</ele>
        <time>2015-01-18T10:02:50Z</time>
      </trkpt>
      <trkpt lat="48.77627" lon="-3.35613">
        <ele>101</ele>
        <time>2015-01-18T10:02:51Z</time>
      </trkpt>
      <trkpt lat="48.77624" lon="-3.35623">
        <ele>101</ele>
        <time>2015-01-18T10:02:52Z</time>
      </trkpt>
      <trkpt lat="48.77621" lon="-3.35633">
        <ele>101</ele>
        <time>2015-01-18T10:02:53Z</time>
      </trkpt>
      <trkpt lat="48.77619" lon="-3.35644">
        <ele>101</ele>
        <time>2015-01-18T10:02:54Z</time>
      </trkpt>
      <trkpt lat="48.77616" lon="-3.35655">
        <ele>101</ele>
        <time>2015-01-18T10:02:55Z</time>
      </trkpt>
      <trkpt lat="48.77613" lon="-3.35665">
        <ele>101</ele>
        <time>2015-01-18T10:02:56Z</time>
      </trkpt>
      <trkpt lat="48.7761" lon="-3.35677">
        <ele>101</ele>
        <time>2015-01-18T10:02:57Z</time>
      </trkpt>
      <trkpt lat="48.77607" lon="-3.35688">
        <ele>101</ele>
        <time>2015-01-18T10:02:58Z</time>
      </trkpt>
      <trkpt lat="48.77604" lon="-3.35699">
        <ele>101</ele>
        <time>2015-01-18T10:02:59Z</time>
      </trkpt>
      <trkpt lat="48.776" lon="-3.35711">
        <ele>101</ele>
        <time>2015-01-18T10:03:00Z</time>
      </trkpt>
      <trkpt lat="48.77597" lon="-3.35722">
        <ele>101</ele>
        <time>2015-01-18T10:03:01Z</time>
      </trkpt>
      <trkpt lat="48.77592" lon="-3.35733">
        <ele>101</ele>
        <time>2015-01-18T10:03:02Z</time>
      </trkpt>
      <trkpt lat="48.77588" lon="-3.35744">
        <ele>101</ele>
        <time>2015-01-18T10:03:03Z</time>
      </trkpt>
      <trkpt lat="48.77584" lon="-3.35755">
        <ele>101</ele>
        <time>2015-01-18T10:03:04Z</time>
      </trkpt>
      <trkpt lat="48.7758" lon="-3.35767">
        <ele>101</ele>
        <time>2015-01-18T10:03:05Z</time>
      </trkpt>
      <trkpt lat="48.77576" lon="-3.35778">
        <ele>101</ele>
        <time>2015-01-18T10:03:06Z</time>
      </trkpt>
      <trkpt lat="48.77571" lon="-3.35789">
        <ele>101</ele>
        <time>2015-01-18T10:03:07Z</time>
      </trkpt>
      <trkpt lat="48.77566" lon="-3.358">
        <ele>101</ele>
        <time>2015-01-18T10:03:08Z</time>
      </trkpt>
      <trkpt lat="48.77561" lon="-3.35811">
        <ele>101</ele>
        <time>2015-01-18T10:03:09Z</time>
      </trkpt>
      <trkpt lat="48.77556" lon="-3.35822">
        <ele>101</ele>
        <time>2015-01-18T10:03:10Z</time>
      </trkpt>
      <trkpt lat="48.77551" lon="-3.35833">
        <ele>101</ele>
        <time>2015-01-18T10:03:11Z</time>
      </trkpt>
      <trkpt lat="48.77546" lon="-3.35844">
        <ele>101</ele>
        <time>2015-01-18T10:03:12Z</time>
      </trkpt>
      <trkpt lat="48.77541" lon="-3.35855">
        <ele>101</ele>
        <time>2015-01-18T10:03:13Z</time>
      </trkpt>
      <trkpt lat="48.77536" lon="-3.35866">
        <ele>101</ele>
        <time>2015-01-18T10:03:14Z</time>
      </trkpt>
      <trkpt lat="48.77532" lon="-3.35877">
        <ele>101</ele>
        <time>2015-01-18T10:03:15Z</time>
      </trkpt>
      <trkpt lat="48.77527" lon="-3.35889">
        <ele>101</ele>
        <time>2015-01-18T10:03:16Z</time>
      </trkpt>
      <trkpt lat="48.77523" lon="-3.359">
        <ele>101</ele>
        <time>2015-01-18T10:03:17Z</time>
      </trkpt>
      <trkpt lat="48.77519" lon="-3.35912">
        <ele>101</ele>
        <time>2015-01-18T10:03:18Z</time>
      </trkpt>
      <trkpt lat="48.77516" lon="-3.35923">
        <ele>101</ele>
        <time>2015-01-18T10:03:19Z</time>
      </trkpt>
      <trkpt lat="48.77512" lon="-3.35935">
        <ele>101</ele>
        <time>2015-01-18T10:03:20Z</time>
      </trkpt>
      <trkpt lat="48.77509" lon="-3.35946">
        <ele>101</ele>
        <time>2015-01-18T10:03:21Z</time>
      </trkpt>
      <trkpt lat="48.77506" lon="-3.35958">
        <ele>101</ele>
        <time>2015-01-18T10:03:22Z</time>
      </trkpt>
      <trkpt lat="48.77503" lon="-3.35969">
        <ele>101</ele>
        <time>2015-01-18T10:03:23Z</time>
      </trkpt>
      <trkpt lat="48.77499" lon="-3.3598">
        <ele>101</ele>
        <time>2015-01-18T10:03:24Z</time>
      </trkpt>
      <trkpt lat="48.77496" lon="-3.35991">
        <ele>101</ele>
        <time>2015-01-18T10:03:25Z</time>
      </trkpt>
      <trkpt lat="48.77493" lon="-3.36002">
        <ele>101</ele>
        <time>2015-01-18T10:03:26Z</time>
      </trkpt>
      <trkpt lat="48.77489" lon="-3.36014">
        <ele>101</ele>
        <time>2015-01-18T10:03:27Z</time>
      </trkpt>
      <trkpt lat="48.77486" lon="-3.36026">
        <ele>101</ele>
        <time>2015-01-18T10:03:28Z</time>
      </trkpt>
      <trkpt lat="48.77481" lon="-3.36038">
        <ele>101</ele>
        <time>2015-01-18T10:03:29Z</time>
      </trkpt>
      <trkpt lat="48.77477" lon="-3.3605">
        <ele>101</ele>
        <time>2015-01-18T10:03:30Z</time>
      </trkpt>
      <trkpt lat="48.77473" lon="-3.36063">
        <ele>101</ele>
        <time>2015-01-18T10:03:31Z</time>
      </trkpt>
      <trkpt lat="48.77468" lon="-3.36075">
        <ele>101</ele>
        <time>2015-01-18T10:03:32Z</time>
      </trkpt>
      <trkpt lat="48.77463" lon="-3.36087">
        <ele>101</ele>
        <time>2015-01-18T10:03:33Z</time>
      </trkpt>
      <trkpt lat="48.77458" lon="-3.36098">
        <ele>101</ele>
        <time>2015-01-18T10:03:34Z</time>
      </trkpt>
      <trkpt lat="48.77452" lon="-3.3611">
        <ele>101</ele>
        <time>2015-01-18T10:03:35Z</time>
      </trkpt>
      <trkpt lat="48.77447" lon="-3.36122">
        <ele>101</ele>
        <time>2015-01-18T10:03:36Z</time>
      </trkpt>
      <trkpt lat="48.77441" lon="-3.36133">
        <ele>101</ele>
        <time>2015-01-18T10:03:37Z</time>
      </trkpt>
      <trkpt lat="48.77436" lon="-3.36145">
        <ele>101</ele>
        <time>2015-01-18T10:03:38Z</time>
      </trkpt>
      <trkpt lat="48.77431" lon="-3.36156">
        <ele>101</ele>
        <time>2015-01-18T10:03:39Z</time>
      </trkpt>
      <trkpt lat="48.77425" lon="-3.36167">
        <ele>101</ele>
        <time>2015-01-18T10:03:40Z</time>
      </trkpt>
      <trkpt lat="48.7742" lon="-3.36179">
        <ele>101</ele>
        <time>2015-01-18T10:03:41Z</time>
      </trkpt>
      <trkpt lat="48.77414" lon="-3.3619">
        <ele>101</ele>
        <time>2015-01-18T10:03:42Z</time>
      </trkpt>
      <trkpt lat="48.77409" lon="-3.36202">
        <ele>101</ele>
        <time>2015-01-18T10:03:43Z</time>
      </trkpt>
      <trkpt lat="48.77404" lon="-3.36213">
        <ele>101</ele>
        <time>2015-01-18T10:03:44Z</time>
      </trkpt>
      <trkpt lat="48.77398" lon="-3.36225">
        <ele>101</ele>
        <time>2015-01-18T10:03:45Z</time>
      </trkpt>
      <trkpt lat="48.77392" lon="-3.36237">
        <ele>101</ele>
        <time>2015-01-18T10:03:46Z</time>
      </trkpt>
      <trkpt lat="48.77386" lon="-3.36248">
        <ele>101</ele>
        <time>2015-01-18T10:03:47Z</time>
      </trkpt>
      <trkpt lat="48.77381" lon="-3.36261">
        <ele>101</ele>
        <time>2015-01-18T10:03:48Z</time>
      </trkpt>
      <trkpt lat="48.77375" lon="-3.36274">
        <ele>101</ele>
        <time>2015-01-18T10:03:49Z</time>
      </trkpt>
      <trkpt lat="48.77369" lon="-3.36286">
        <ele>101</ele>
        <time>2015-01-18T10:03:50Z</time>
      </trkpt>
      <trkpt lat="48.77362" lon="-3.36299">
        <ele>101</ele>
        <time>2015-01-18T10:03:51Z</time>
      </trkpt>
      <trkpt lat="48.77356" lon="-3.36312">
        <ele>101</ele>
        <time>2015-01-18T10:03:52Z</time>
      </trkpt>
      <trkpt lat="48.77351" lon="-3.36325">
        <ele>101</ele>
        <time>2015-01-18T10:03:53Z</time>
      </trkpt>
      <trkpt lat="48.77345" lon="-3.36337">
        <ele>101</ele>
        <time>2015-01-18T10:03:54Z</time>
      </trkpt>
      <trkpt lat="48.7734" lon="-3.3635">
        <ele>101</ele>
        <time>2015-01-18T10:03:55Z</time>
      </trkpt>
      <trkpt lat="48.77335" lon="-3.36363">
        <ele>101</ele>
        <time>2015-01-18T10:03:56Z</time>
      </trkpt>
      <trkpt lat="48.7733" lon="-3.36375">
        <ele>101</ele>
        <time>2015-01-18T10:03:57Z</time>
      </trkpt>
      <trkpt lat="48.77325" lon="-3.36387">
        <ele>101</ele>
        <time>2015-01-18T10:03:58Z</time>
      </trkpt>
      <trkpt lat="48.7732" lon="-3.36399">
        <ele>101</ele>
        <time>2015-01-18T10:03:59Z</time>
      </trkpt>
      <trkpt lat="48.77316" lon="-3.36411">
        <ele>101</ele>
        <time>2015-01-18T10:04:00Z</time>
      </trkpt>
      <trkpt lat="48.77311" lon="-3.36423">
        <ele>101</ele>
        <time>2015-01-18T10:04:01Z</time>
      </trkpt>
      <trkpt lat="48.77307" lon="-3.36434">
        <ele>101</ele>
        <time>2015-01-18T10:04:02Z</time>
      </trkpt>
      <trkpt lat="48.77302" lon="-3.36445">
        <ele>101</ele>
        <time>2015-01-18T10:04:03Z</time>
      </trkpt>
      <trkpt lat="48.77297" lon="-3.36454">
        <ele>101</ele>
        <time>2015-01-18T10:04:04Z</time>
      </trkpt>
      <trkpt lat="48.77292" lon="-3.36463">
        <ele>101</ele>
        <time>2015-01-18T10:04:05Z</time>
      </trkpt>
      <trkpt lat="48.77287" lon="-3.36471">
        <ele>101</ele>
        <time>2015-01-18T10:04:06Z</time>
      </trkpt>
      <trkpt lat="48.77282" lon="-3.36479">
        <ele>101</ele>
        <time>2015-01-18T10:04:07Z</time>
      </trkpt>
      <trkpt lat="48.77277" lon="-3.36487">
        <ele>101</ele>
        <time>2015-01-18T10:04:08Z</time>
      </trkpt>
      <trkpt lat="48.77272" lon="-3.36494">
        <ele>101</ele>
        <time>2015-01-18T10:04:09Z</time>
      </trkpt>
      <trkpt lat="48.77268" lon="-3.36501">
        <ele>101</ele>
        <time>2015-01-18T10:04:10Z</time>
      </trkpt>
      <trkpt lat="48.77264" lon="-3.36507">
        <ele>101</ele>
        <time>2015-01-18T10:04:11Z</time>
      </trkpt>
      <trkpt lat="48.7726" lon="-3.36514">
        <ele>101</ele>
        <time>2015-01-18T10:04:12Z</time>
      </trkpt>
      <trkpt lat="48.77256" lon="-3.3652">
        <ele>101</ele>
        <time>2015-01-18T10:04:13Z</time>
      </trkpt>
      <trkpt lat="48.77252" lon="-3.36526">
        <ele>101</ele>
        <time>2015-01-18T10:04:14Z</time>
      </trkpt>
      <trkpt lat="48.77248" lon="-3.36532">
        <ele>101</ele>
        <time>2015-01-18T10:04:15Z</time>
      </trkpt>
      <trkpt lat="48.77244" lon="-3.36538">
        <ele>101</ele>
        <time>2015-01-18T10:04:16Z</time>
      </trkpt>
      <trkpt lat="48.7724" lon="-3.36543">
        <ele>101</ele>
        <time>2015-01-18T10:04:17Z</time>
      </trkpt>
      <trkpt lat="48.77237" lon="-3.3655">
        <ele>101</ele>
        <time>2015-01-18T10:04:18Z</time>
      </trkpt>
      <trkpt lat="48.77233" lon="-3.36555">
        <ele>101</ele>
        <time>2015-01-18T10:04:19Z</time>
      </trkpt>
      <trkpt lat="48.7723" lon="-3.36561">
        <ele>101</ele>
        <time>2015-01-18T10:04:20Z</time>
      </trkpt>
      <trkpt lat="48.77227" lon="-3.36567">
        <ele>101</ele>
        <time>2015-01-18T10:04:21Z</time>
      </trkpt>
      <trkpt lat="48.77224" lon="-3.36572">
        <ele>101</ele>
        <time>2015-01-18T10:04:22Z</time>
      </trkpt>
      <trkpt lat="48.77221" lon="-3.36578">
        <ele>101</ele>
        <time>2015-01-18T10:04:23Z</time>
      </trkpt>
      <trkpt lat="48.77219" lon="-3.36584">
        <ele>101</ele>
        <time>2015-01-18T10:04:24Z</time>
      </trkpt>
      <trkpt lat="48.77217" lon="-3.36589">
        <ele>101</ele>
        <time>2015-01-18T10:04:25Z</time>
      </trkpt>
      <trkpt lat="48.77215" lon="-3.36595">
        <ele>101</ele>
        <time>2015-01-18T10:04:26Z</time>
      </trkpt>
      <trkpt lat="48.77213" lon="-3.36601">
        <ele>101</ele>
        <time>2015-01-18T10:04:27Z</time>
      </trkpt>
      <trkpt lat="48.77209" lon="-3.36606">
        <ele>101</ele>
        <time>2015-01-18T10:04:28Z</time>
      </trkpt>
      <trkpt lat="48.77206" lon="-3.36611">
        <ele>101</ele>
        <time>2015-01-18T10:04:29Z</time>
      </trkpt>
      <trkpt lat="48.77202" lon="-3.36615">
        <ele>101</ele>
        <time>2015-01-18T10:04:30Z</time>
      </trkpt>
      <trkpt lat="48.77198" lon="-3.3662">
        <ele>101</ele>
        <time>2015-01-18T10:04:31Z</time>
      </trkpt>
      <trkpt lat="48.77195" lon="-3.36625">
        <ele>101</ele>
        <time>2015-01-18T10:04:32Z</time>
      </trkpt>
      <trkpt lat="48.77191" lon="-3.36631">
        <ele>101</ele>
        <time>2015-01-18T10:04:33Z</time>
      </trkpt>
      <trkpt lat="48.77188" lon="-3.36639">
        <ele>101</ele>
        <time>2015-01-18T10:04:34Z</time>
      </trkpt>
      <trkpt lat="48.77185" lon="-3.36648">
        <ele>101</ele>
        <time>2015-01-18T10:04:35Z</time>
      </trkpt>
      <trkpt lat="48.77183" lon="-3.36658">
        <ele>101</ele>
        <time>2015-01-18T10:04:36Z</time>
      </trkpt>
      <trkpt lat="48.7718" lon="-3.36669">
        <ele>101</ele>
        <time>2015-01-18T10:04:37Z</time>
      </trkpt>
      <trkpt lat="48.77177" lon="-3.36679">
        <ele>101</ele>
        <time>2015-01-18T10:04:38Z</time>
      </trkpt>
      <trkpt lat="48.77174" lon="-3.3669">
        <ele>101</ele>
        <time>2015-01-18T10:04:39Z</time>
      </trkpt>
      <trkpt lat="48.77171" lon="-3.367">
        <ele>101</ele>
        <time>2015-01-18T10:04:40Z</time>
      </trkpt>
      <trkpt lat="48.77167" lon="-3.36709">
        <ele>100</ele>
        <time>2015-01-18T10:04:41Z</time>
      </trkpt>
      <trkpt lat="48.77163" lon="-3.36717">
        <ele>100</ele>
        <time>2015-01-18T10:04:42Z</time>
      </trkpt>
      <trkpt lat="48.7716" lon="-3.36724">
        <ele>100</ele>
        <time>2015-01-18T10:04:43Z</time>
      </trkpt>
      <trkpt lat="48.77157" lon="-3.36731">
        <ele>100</ele>
        <time>2015-01-18T10:04:44Z</time>
      </trkpt>
      <trkpt lat="48.77153" lon="-3.36738">
        <ele>100</ele>
        <time>2015-01-18T10:04:45Z</time>
      </trkpt>
      <trkpt lat="48.77149" lon="-3.36745">
        <ele>100</ele>
        <time>2015-01-18T10:04:46Z</time>
      </trkpt>
      <trkpt lat="48.77145" lon="-3.36751">
        <ele>100</ele>
        <time>2015-01-18T10:04:47Z</time>
      </trkpt>
      <trkpt lat="48.77141" lon="-3.36756">
        <ele>100</ele>
        <time>2015-01-18T10:04:48Z</time>
      </trkpt>
      <trkpt lat="48.77137" lon="-3.36761">
        <ele>100</ele>
        <time>2015-01-18T10:04:49Z</time>
      </trkpt>
      <trkpt lat="48.77132" lon="-3.36766">
        <ele>100</ele>
        <time>2015-01-18T10:04:50Z</time>
      </trkpt>
      <trkpt lat="48.77128" lon="-3.36771">
        <ele>100</ele>
        <time>2015-01-18T10:04:51Z</time>
      </trkpt>
      <trkpt lat="48.77124" lon="-3.36776">
        <ele>100</ele>
        <time>2015-01-18T10:04:52Z</time>
      </trkpt>
      <trkpt lat="48.77121" lon="-3.36781">
        <ele>100</ele>
        <time>2015-01-18T10:04:53Z</time>
      </trkpt>
      <trkpt lat="48.77117" lon="-3.36785">
        <ele>100</ele>
        <time>2015-01-18T10:04:54Z</time>
      </trkpt>
      <trkpt lat="48.77114" lon="-3.36789">
        <ele>100</ele>
        <time>2015-01-18T10:04:55Z</time>
      </trkpt>
      <trkpt lat="48.77111" lon="-3.36793">
        <ele>100</ele>
        <time>2015-01-18T10:04:56Z</time>
      </trkpt>
      <trkpt lat="48.77107" lon="-3.36797">
        <ele>100</ele>
        <time>2015-01-18T10:04:57Z</time>
      </trkpt>
      <trkpt lat="48.77104" lon="-3.36801">
        <ele>100</ele>
        <time>2015-01-18T10:04:58Z</time>
      </trkpt>
      <trkpt lat="48.77101" lon="-3.36804">
        <ele>100</ele>
        <time>2015-01-18T10:04:59Z</time>
      </trkpt>
      <trkpt lat="48.77098" lon="-3.36807">
        <ele>100</ele>
        <time>2015-01-18T10:05:00Z</time>
      </trkpt>
      <trkpt lat="48.77095" lon="-3.36811">
        <ele>100</ele>
        <time>2015-01-18T10:05:01Z</time>
      </trkpt>
      <trkpt lat="48.77093" lon="-3.36815">
        <ele>100</ele>
        <time>2015-01-18T10:05:02Z</time>
      </trkpt>
      <trkpt lat="48.7709" lon="-3.36818">
        <ele>100</ele>
        <time>2015-01-18T10:05:03Z</time>
      </trkpt>
      <trkpt lat="48.77087" lon="-3.36823">
        <ele>100</ele>
        <time>2015-01-18T10:05:04Z</time>
      </trkpt>
      <trkpt lat="48.77083" lon="-3.36827">
        <ele>100</ele>
        <time>2015-01-18T10:05:05Z</time>
      </trkpt>
      <trkpt lat="48.77079" lon="-3.36832">
        <ele>100</ele>
        <time>2015-01-18T10:05:06Z</time>
      </trkpt>
      <trkpt lat="48.77076" lon="-3.36837">
        <ele>100</ele>
        <time>2015-01-18T10:05:07Z</time>
      </trkpt>
      <trkpt lat="48.77072" lon="-3.36842">
        <ele>100</ele>
        <time>2015-01-18T10:05:08Z</time>
      </trkpt>
      <trkpt lat="48.77069" lon="-3.36848">
        <ele>100</ele>
        <time>2015-01-18T10:05:09Z</time>
      </trkpt>
      <trkpt lat="48.77065" lon="-3.36854">
        <ele>100</ele>
        <time>2015-01-18T10:05:10Z</time>
      </trkpt>
      <trkpt lat="48.77061" lon="-3.3686">
        <ele>100</ele>
        <time>2015-01-18T10:05:11Z</time>
      </trkpt>
      <trkpt lat="48.77058" lon="-3.36866">
        <ele>100</ele>
        <time>2015-01-18T10:05:12Z</time>
      </trkpt>
      <trkpt lat="48.77055" lon="-3.36873">
        <ele>100</ele>
        <time>2015-01-18T10:05:13Z</time>
      </trkpt>
      <trkpt lat="48.77051" lon="-3.36879">
        <ele>100</ele>
        <time>2015-01-18T10:05:14Z</time>
      </trkpt>
      <trkpt lat="48.77048" lon="-3.36887">
        <ele>100</ele>
        <time>2015-01-18T10:05:15Z</time>
      </trkpt>
      <trkpt lat="48.77044" lon="-3.36894">
        <ele>99</ele>
        <time>2015-01-18T10:05:16Z</time>
      </trkpt>
      <trkpt lat="48.7704" lon="-3.36902">
        <ele>99</ele>
        <time>2015-01-18T10:05:17Z</time>
      </trkpt>
      <trkpt lat="48.77037" lon="-3.3691">
        <ele>99</ele>
        <time>2015-01-18T10:05:18Z</time>
      </trkpt>
      <trkpt lat="48.77034" lon="-3.36916">
        <ele>99</ele>
        <time>2015-01-18T10:05:19Z</time>
      </trkpt>
      <trkpt lat="48.77031" lon="-3.36922">
        <ele>98</ele>
        <time>2015-01-18T10:05:20Z</time>
      </trkpt>
      <trkpt lat="48.77028" lon="-3.36929">
        <ele>98</ele>
        <time>2015-01-18T10:05:21Z</time>
      </trkpt>
      <trkpt lat="48.77026" lon="-3.36935">
        <ele>97</ele>
        <time>2015-01-18T10:05:22Z</time>
      </trkpt>
      <trkpt lat="48.77023" lon="-3.36942">
        <ele>97</ele>
        <time>2015-01-18T10:05:23Z</time>
      </trkpt>
      <trkpt lat="48.77019" lon="-3.36948">
        <ele>97</ele>
        <time>2015-01-18T10:05:24Z</time>
      </trkpt>
      <trkpt lat="48.77015" lon="-3.36955">
        <ele>97</ele>
        <time>2015-01-18T10:05:25Z</time>
      </trkpt>
      <trkpt lat="48.77011" lon="-3.36963">
        <ele>97</ele>
        <time>2015-01-18T10:05:26Z</time>
      </trkpt>
      <trkpt lat="48.77008" lon="-3.36971">
        <ele>97</ele>
        <time>2015-01-18T10:05:27Z</time>
      </trkpt>
      <trkpt lat="48.77003" lon="-3.36978">
        <ele>97</ele>
        <time>2015-01-18T10:05:28Z</time>
      </trkpt>
      <trkpt lat="48.76999" lon="-3.36984">
        <ele>97</ele>
        <time>2015-01-18T10:05:29Z</time>
      </trkpt>
      <trkpt lat="48.76995" lon="-3.3699">
        <ele>97</ele>
        <time>2015-01-18T10:05:30Z</time>
      </trkpt>
      <trkpt lat="48.76992" lon="-3.36996">
        <ele>97</ele>
        <time>2015-01-18T10:05:31Z</time>
      </trkpt>
      <trkpt lat="48.76989" lon="-3.37001">
        <ele>97</ele>
        <time>2015-01-18T10:05:32Z</time>
      </trkpt>
      <trkpt lat="48.76985" lon="-3.37006">
        <ele>97</ele>
        <time>2015-01-18T10:05:33Z</time>
      </trkpt>
      <trkpt lat="48.76982" lon="-3.37012">
        <ele>97</ele>
        <time>2015-01-18T10:05:34Z</time>
      </trkpt>
      <trkpt lat="48.76979" lon="-3.37017">
        <ele>97</ele>
        <time>2015-01-18T10:05:35Z</time>
      </trkpt>
      <trkpt lat="48.76976" lon="-3.37024">
        <ele>96</ele>
        <time>2015-01-18T10:05:36Z</time>
      </trkpt>
      <trkpt lat="48.76973" lon="-3.3703">
        <ele>96</ele>
        <time>2015-01-18T10:05:37Z</time>
      </trkpt>
      <trkpt lat="48.7697" lon="-3.37037">
        <ele>96</ele>
        <time>2015-01-18T10:05:38Z</time>
      </trkpt>
      <trkpt lat="48.76966" lon="-3.37044">
        <ele>96</ele>
        <time>2015-01-18T10:05:39Z</time>
      </trkpt>
      <trkpt lat="48.76963" lon="-3.37051">
        <ele>96</ele>
        <time>2015-01-18T10:05:40Z</time>
      </trkpt>
      <trkpt lat="48.7696" lon="-3.37059">
        <ele>96</ele>
        <time>2015-01-18T10:05:41Z</time>
      </trkpt>
      <trkpt lat="48.76957" lon="-3.37067">
        <ele>96</ele>
        <time>2015-01-18T10:05:42Z</time>
      </trkpt>
      <trkpt lat="48.76953" lon="-3.37074">
        <ele>96</ele>
        <time>2015-01-18T10:05:43Z</time>
      </trkpt>
      <trkpt lat="48.7695" lon="-3.37082">
        <ele>96</ele>
        <time>2015-01-18T10:05:44Z</time>
      </trkpt>
      <trkpt lat="48.76947" lon="-3.3709">
        <ele>96</ele>
        <time>2015-01-18T10:05:45Z</time>
      </trkpt>
      <trkpt lat="48.76943" lon="-3.37099">
        <ele>96</ele>
        <time>2015-01-18T10:05:46Z</time>
      </trkpt>
      <trkpt lat="48.7694" lon="-3.37107">
        <ele>96</ele>
        <time>2015-01-18T10:05:47Z</time>
      </trkpt>
      <trkpt lat="48.76937" lon="-3.37115">
        <ele>96</ele>
        <time>2015-01-18T10:05:48Z</time>
      </trkpt>
      <trkpt lat="48.76934" lon="-3.37124">
        <ele>96</ele>
        <time>2015-01-18T10:05:49Z</time>
      </trkpt>
      <trkpt lat="48.76931" lon="-3.37132">
        <ele>96</ele>
        <time>2015-01-18T10:05:50Z</time>
      </trkpt>
      <trkpt lat="48.76928" lon="-3.37141">
        <ele>96</ele>
        <time>2015-01-18T10:05:51Z</time>
      </trkpt>
      <trkpt lat="48.76925" lon="-3.3715">
        <ele>96</ele>
        <time>2015-01-18T10:05:52Z</time>
      </trkpt>
      <trkpt lat="48.76922" lon="-3.37159">
        <ele>96</ele>
        <time>2015-01-18T10:05:53Z</time>
      </trkpt>
      <trkpt lat="48.7692" lon="-3.37168">
        <ele>96</ele>
        <time>2015-01-18T10:05:54Z</time>
      </trkpt>
      <trkpt lat="48.76917" lon="-3.37177">
        <ele>96</ele>
        <time>2015-01-18T10:05:55Z</time>
      </trkpt>
      <trkpt lat="48.76915" lon="-3.37186">
        <ele>96</ele>
        <time>2015-01-18T10:05:56Z</time>
      </trkpt>
      <trkpt lat="48.76912" lon="-3.37196">
        <ele>96</ele>
        <time>2015-01-18T10:05:57Z</time>
      </trkpt>
      <trkpt lat="48.76909" lon="-3.37206">
        <ele>96</ele>
        <time>2015-01-18T10:05:58Z</time>
      </trkpt>
      <trkpt lat="48.76907" lon="-3.37216">
        <ele>96</ele>
        <time>2015-01-18T10:05:59Z</time>
      </trkpt>
      <trkpt lat="48.76905" lon="-3.37226">
        <ele>96</ele>
        <time>2015-01-18T10:06:00Z</time>
      </trkpt>
      <trkpt lat="48.76902" lon="-3.37237">
        <ele>96</ele>
        <time>2015-01-18T10:06:01Z</time>
      </trkpt>
      <trkpt lat="48.769" lon="-3.37246">
        <ele>96</ele>
        <time>2015-01-18T10:06:02Z</time>
      </trkpt>
      <trkpt lat="48.76898" lon="-3.37257">
        <ele>96</ele>
        <time>2015-01-18T10:06:03Z</time>
      </trkpt>
      <trkpt lat="48.76896" lon="-3.37266">
        <ele>96</ele>
        <time>2015-01-18T10:06:04Z</time>
      </trkpt>
      <trkpt lat="48.76893" lon="-3.37276">
        <ele>96</ele>
        <time>2015-01-18T10:06:05Z</time>
      </trkpt>
      <trkpt lat="48.7689" lon="-3.37286">
        <ele>96</ele>
        <time>2015-01-18T10:06:06Z</time>
      </trkpt>
      <trkpt lat="48.76888" lon="-3.37296">
        <ele>96</ele>
        <time>2015-01-18T10:06:07Z</time>
      </trkpt>
      <trkpt lat="48.76884" lon="-3.37306">
        <ele>96</ele>
        <time>2015-01-18T10:06:08Z</time>
      </trkpt>
      <trkpt lat="48.76881" lon="-3.37316">
        <ele>96</ele>
        <time>2015-01-18T10:06:09Z</time>
      </trkpt>
      <trkpt lat="48.76878" lon="-3.37325">
        <ele>96</ele>
        <time>2015-01-18T10:06:10Z</time>
      </trkpt>
      <trkpt lat="48.76875" lon="-3.37335">
        <ele>96</ele>
        <time>2015-01-18T10:06:11Z</time>
      </trkpt>
      <trkpt lat="48.76871" lon="-3.37345">
        <ele>96</ele>
        <time>2015-01-18T10:06:12Z</time>
      </trkpt>
      <trkpt lat="48.76868" lon="-3.37354">
        <ele>96</ele>
        <time>2015-01-18T10:06:13Z</time>
      </trkpt>
      <trkpt lat="48.76864" lon="-3.37363">
        <ele>96</ele>
        <time>2015-01-18T10:06:14Z</time>
      </trkpt>
      <trkpt lat="48.7686" lon="-3.37373">
        <ele>96</ele>
        <time>2015-01-18T10:06:15Z</time>
      </trkpt>
      <trkpt lat="48.76857" lon="-3.37382">
        <ele>96</ele>
        <time>2015-01-18T10:06:16Z</time>
      </trkpt>
      <trkpt lat="48.76853" lon="-3.37392">
        <ele>96</ele>
        <time>2015-01-18T10:06:17Z</time>
      </trkpt>
      <trkpt lat="48.76849" lon="-3.37402">
        <ele>96</ele>
        <time>2015-01-18T10:06:18Z</time>
      </trkpt>
      <trkpt lat="48.76846" lon="-3.37412">
        <ele>96</ele>
        <time>2015-01-18T10:06:19Z</time>
      </trkpt>
      <trkpt lat="48.76843" lon="-3.37422">
        <ele>96</ele>
        <time>2015-01-18T10:06:20Z</time>
      </trkpt>
      <trkpt lat="48.76839" lon="-3.37432">
        <ele>96</ele>
        <time>2015-01-18T10:06:21Z</time>
      </trkpt>
      <trkpt lat="48.76836" lon="-3.37442">
        <ele>96</ele>
        <time>2015-01-18T10:06:22Z</time>
      </trkpt>
      <trkpt lat="48.76833" lon="-3.37452">
        <ele>96</ele>
        <time>2015-01-18T10:06:23Z</time>
      </trkpt>
      <trkpt lat="48.7683" lon="-3.37463">
        <ele>96</ele>
        <time>2015-01-18T10:06:24Z</time>
      </trkpt>
      <trkpt lat="48.76827" lon="-3.37473">
        <ele>96</ele>
        <time>2015-01-18T10:06:25Z</time>
      </trkpt>
      <trkpt lat="48.76824" lon="-3.37483">
        <ele>95</ele>
        <time>2015-01-18T10:06:26Z</time>
      </trkpt>
      <trkpt lat="48.7682" lon="-3.37493">
        <ele>95</ele>
        <time>2015-01-18T10:06:27Z</time>
      </trkpt>
      <trkpt lat="48.76817" lon="-3.37504">
        <ele>95</ele>
        <time>2015-01-18T10:06:28Z</time>
      </trkpt>
      <trkpt lat="48.76814" lon="-3.37514">
        <ele>95</ele>
        <time>2015-01-18T10:06:29Z</time>
      </trkpt>
      <trkpt lat="48.76811" lon="-3.37524">
        <ele>95</ele>
        <time>2015-01-18T10:06:30Z</time>
      </trkpt>
      <trkpt lat="48.76808" lon="-3.37534">
        <ele>95</ele>
        <time>2015-01-18T10:06:31Z</time>
      </trkpt>
      <trkpt lat="48.76805" lon="-3.37544">
        <ele>95</ele>
        <time>2015-01-18T10:06:32Z</time>
      </trkpt>
      <trkpt lat="48.76802" lon="-3.37554">
        <ele>95</ele>
        <time>2015-01-18T10:06:33Z</time>
      </trkpt>
      <trkpt lat="48.76799" lon="-3.37564">
        <ele>95</ele>
        <time>2015-01-18T10:06:34Z</time>
      </trkpt>
      <trkpt lat="48.76796" lon="-3.37574">
        <ele>95</ele>
        <time>2015-01-18T10:06:35Z</time>
      </trkpt>
      <trkpt lat="48.76793" lon="-3.37583">
        <ele>95</ele>
        <time>2015-01-18T10:06:36Z</time>
      </trkpt>
      <trkpt lat="48.7679" lon="-3.37593">
        <ele>95</ele>
        <time>2015-01-18T10:06:37Z</time>
      </trkpt>
      <trkpt lat="48.76787" lon="-3.37603">
        <ele>95</ele>
        <time>2015-01-18T10:06:38Z</time>
      </trkpt>
      <trkpt lat="48.76784" lon="-3.37612">
        <ele>95</ele>
        <time>2015-01-18T10:06:39Z</time>
      </trkpt>
      <trkpt lat="48.76781" lon="-3.37622">
        <ele>95</ele>
        <time>2015-01-18T10:06:40Z</time>
      </trkpt>
      <trkpt lat="48.76778" lon="-3.37631">
        <ele>95</ele>
        <time>2015-01-18T10:06:41Z</time>
      </trkpt>
      <trkpt lat="48.76776" lon="-3.37641">
        <ele>95</ele>
        <time>2015-01-18T10:06:42Z</time>
      </trkpt>
      <trkpt lat="48.76773" lon="-3.3765">
        <ele>95</ele>
        <time>2015-01-18T10:06:43Z</time>
      </trkpt>
      <trkpt lat="48.7677" lon="-3.37659">
        <ele>95</ele>
        <time>2015-01-18T10:06:44Z</time>
      </trkpt>
      <trkpt lat="48.76767" lon="-3.37668">
        <ele>95</ele>
        <time>2015-01-18T10:06:45Z</time>
      </trkpt>
      <trkpt lat="48.76763" lon="-3.37678">
        <ele>95</ele>
        <time>2015-01-18T10:06:46Z</time>
      </trkpt>
      <trkpt lat="48.7676" lon="-3.37687">
        <ele>95</ele>
        <time>2015-01-18T10:06:47Z</time>
      </trkpt>
      <trkpt lat="48.76757" lon="-3.37697">
        <ele>95</ele>
        <time>2015-01-18T10:06:48Z</time>
      </trkpt>
      <trkpt lat="48.76754" lon="-3.37706">
        <ele>95</ele>
        <time>2015-01-18T10:06:49Z</time>
      </trkpt>
      <trkpt lat="48.76751" lon="-3.37716">
        <ele>95</ele>
        <time>2015-01-18T10:06:50Z</time>
      </trkpt>
      <trkpt lat="48.76749" lon="-3.37725">
        <ele>95</ele>
        <time>2015-01-18T10:06:51Z</time>
      </trkpt>
      <trkpt lat="48.76746" lon="-3.37735">
        <ele>95</ele>
        <time>2015-01-18T10:06:52Z</time>
      </trkpt>
      <trkpt lat="48.76743" lon="-3.37745">
        <ele>95</ele>
        <time>2015-01-18T10:06:53Z</time>
      </trkpt>
      <trkpt lat="48.7674" lon="-3.37755">
        <ele>95</ele>
        <time>2015-01-18T10:06:54Z</time>
      </trkpt>
      <trkpt lat="48.76736" lon="-3.37765">
        <ele>95</ele>
        <time>2015-01-18T10:06:55Z</time>
      </trkpt>
      <trkpt lat="48.76733" lon="-3.37775">
        <ele>95</ele>
        <time>2015-01-18T10:06:56Z</time>
      </trkpt>
      <trkpt lat="48.7673" lon="-3.37785">
        <ele>95</ele>
        <time>2015-01-18T10:06:57Z</time>
      </trkpt>
      <trkpt lat="48.76727" lon="-3.37796">
        <ele>95</ele>
        <time>2015-01-18T10:06:58Z</time>
      </trkpt>
      <trkpt lat="48.76724" lon="-3.37806">
        <ele>95</ele>
        <time>2015-01-18T10:06:59Z</time>
      </trkpt>
      <trkpt lat="48.76722" lon="-3.37816">
        <ele>95</ele>
        <time>2015-01-18T10:07:00Z</time>
      </trkpt>
      <trkpt lat="48.76719" lon="-3.37826">
        <ele>95</ele>
        <time>2015-01-18T10:07:01Z</time>
      </trkpt>
      <trkpt lat="48.76715" lon="-3.37837">
        <ele>95</ele>
        <time>2015-01-18T10:07:02Z</time>
      </trkpt>
      <trkpt lat="48.76712" lon="-3.37847">
        <ele>95</ele>
        <time>2015-01-18T10:07:03Z</time>
      </trkpt>
      <trkpt lat="48.76709" lon="-3.37857">
        <ele>95</ele>
        <time>2015-01-18T10:07:04Z</time>
      </trkpt>
      <trkpt lat="48.76706" lon="-3.37868">
        <ele>95</ele>
        <time>2015-01-18T10:07:05Z</time>
      </trkpt>
      <trkpt lat="48.76703" lon="-3.37878">
        <ele>95</ele>
        <time>2015-01-18T10:07:06Z</time>
      </trkpt>
      <trkpt lat="48.76699" lon="-3.37889">
        <ele>95</ele>
        <time>2015-01-18T10:07:07Z</time>
      </trkpt>
      <trkpt lat="48.76696" lon="-3.379">
        <ele>95</ele>
        <time>2015-01-18T10:07:08Z</time>
      </trkpt>
      <trkpt lat="48.76693" lon="-3.37911">
        <ele>95</ele>
        <time>2015-01-18T10:07:09Z</time>
      </trkpt>
      <trkpt lat="48.7669" lon="-3.37921">
        <ele>95</ele>
        <time>2015-01-18T10:07:10Z</time>
      </trkpt>
      <trkpt lat="48.76687" lon="-3.37932">
        <ele>95</ele>
        <time>2015-01-18T10:07:11Z</time>
      </trkpt>
      <trkpt lat="48.76684" lon="-3.37943">
        <ele>95</ele>
        <time>2015-01-18T10:07:12Z</time>
      </trkpt>
      <trkpt lat="48.7668" lon="-3.37954">
        <ele>95</ele>
        <time>2015-01-18T10:07:13Z</time>
      </trkpt>
      <trkpt lat="48.76677" lon="-3.37965">
        <ele>95</ele>
        <time>2015-01-18T10:07:14Z</time>
      </trkpt>
      <trkpt lat="48.76674" lon="-3.37976">
        <ele>95</ele>
        <time>2015-01-18T10:07:15Z</time>
      </trkpt>
      <trkpt lat="48.76671" lon="-3.37987">
        <ele>95</ele>
        <time>2015-01-18T10:07:16Z</time>
      </trkpt>
      <trkpt lat="48.76668" lon="-3.37998">
        <ele>95</ele>
        <time>2015-01-18T10:07:17Z</time>
      </trkpt>
      <trkpt lat="48.76664" lon="-3.38009">
        <ele>95</ele>
        <time>2015-01-18T10:07:18Z</time>
      </trkpt>
      <trkpt lat="48.76661" lon="-3.3802">
        <ele>95</ele>
        <time>2015-01-18T10:07:19Z</time>
      </trkpt>
      <trkpt lat="48.76658" lon="-3.38031">
        <ele>95</ele>
        <time>2015-01-18T10:07:20Z</time>
      </trkpt>
      <trkpt lat="48.76655" lon="-3.38042">
        <ele>95</ele>
        <time>2015-01-18T10:07:21Z</time>
      </trkpt>
      <trkpt lat="48.76652" lon="-3.38053">
        <ele>95</ele>
        <time>2015-01-18T10:07:22Z</time>
      </trkpt>
      <trkpt lat="48.76649" lon="-3.38064">
        <ele>95</ele>
        <time>2015-01-18T10:07:23Z</time>
      </trkpt>
      <trkpt lat="48.76646" lon="-3.38074">
        <ele>95</ele>
        <time>2015-01-18T10:07:24Z</time>
      </trkpt>
      <trkpt lat="48.76643" lon="-3.38085">
        <ele>95</ele>
        <time>2015-01-18T10:07:25Z</time>
      </trkpt>
      <trkpt lat="48.7664" lon="-3.38095">
        <ele>95</ele>
        <time>2015-01-18T10:07:26Z</time>
      </trkpt>
      <trkpt lat="48.76637" lon="-3.38105">
        <ele>95</ele>
        <time>2015-01-18T10:07:27Z</time>
      </trkpt>
      <trkpt lat="48.76634" lon="-3.38115">
        <ele>95</ele>
        <time>2015-01-18T10:07:28Z</time>
      </trkpt>
      <trkpt lat="48.76632" lon="-3.38125">
        <ele>95</ele>
        <time>2015-01-18T10:07:29Z</time>
      </trkpt>
      <trkpt lat="48.76629" lon="-3.38135">
        <ele>95</ele>
        <time>2015-01-18T10:07:30Z</time>
      </trkpt>
      <trkpt lat="48.76626" lon="-3.38145">
        <ele>95</ele>
        <time>2015-01-18T10:07:31Z</time>
      </trkpt>
      <trkpt lat="48.76624" lon="-3.38155">
        <ele>95</ele>
        <time>2015-01-18T10:07:32Z</time>
      </trkpt>
      <trkpt lat="48.76621" lon="-3.38164">
        <ele>95</ele>
        <time>2015-01-18T10:07:33Z</time>
      </trkpt>
      <trkpt lat="48.76618" lon="-3.38174">
        <ele>95</ele>
        <time>2015-01-18T10:07:34Z</time>
      </trkpt>
      <trkpt lat="48.76615" lon="-3.38184">
        <ele>95</ele>
        <time>2015-01-18T10:07:35Z</time>
      </trkpt>
      <trkpt lat="48.76612" lon="-3.38193">
        <ele>95</ele>
        <time>2015-01-18T10:07:36Z</time>
      </trkpt>
      <trkpt lat="48.7661" lon="-3.38203">
        <ele>95</ele>
        <time>2015-01-18T10:07:37Z</time>
      </trkpt>
      <trkpt lat="48.76607" lon="-3.38212">
        <ele>95</ele>
        <time>2015-01-18T10:07:38Z</time>
      </trkpt>
      <trkpt lat="48.76604" lon="-3.38222">
        <ele>95</ele>
        <time>2015-01-18T10:07:39Z</time>
      </trkpt>
      <trkpt lat="48.76602" lon="-3.38232">
        <ele>95</ele>
        <time>2015-01-18T10:07:40Z</time>
      </trkpt>
      <trkpt lat="48.76599" lon="-3.38241">
        <ele>95</ele>
        <time>2015-01-18T10:07:41Z</time>
      </trkpt>
      <trkpt lat="48.76596" lon="-3.38251">
        <ele>95</ele>
        <time>2015-01-18T10:07:42Z</time>
      </trkpt>
      <trkpt lat="48.76594" lon="-3.3826">
        <ele>95</ele>
        <time>2015-01-18T10:07:43Z</time>
      </trkpt>
      <trkpt lat="48.76591" lon="-3.3827">
        <ele>95</ele>
        <time>2015-01-18T10:07:44Z</time>
      </trkpt>
      <trkpt lat="48.76589" lon="-3.38279">
        <ele>95</ele>
        <time>2015-01-18T10:07:45Z</time>
      </trkpt>
      <trkpt lat="48.76586" lon="-3.38288">
        <ele>95</ele>
        <time>2015-01-18T10:07:46Z</time>
      </trkpt>
      <trkpt lat="48.76583" lon="-3.38298">
        <ele>95</ele>
        <time>2015-01-18T10:07:47Z</time>
      </trkpt>
      <trkpt lat="48.7658" lon="-3.38308">
        <ele>95</ele>
        <time>2015-01-18T10:07:48Z</time>
      </trkpt>
      <trkpt lat="48.76578" lon="-3.38317">
        <ele>95</ele>
        <time>2015-01-18T10:07:49Z</time>
      </trkpt>
      <trkpt lat="48.76575" lon="-3.38327">
        <ele>95</ele>
        <time>2015-01-18T10:07:50Z</time>
      </trkpt>
      <trkpt lat="48.76572" lon="-3.38337">
        <ele>95</ele>
        <time>2015-01-18T10:07:51Z</time>
      </trkpt>
      <trkpt lat="48.7657" lon="-3.38347">
        <ele>95</ele>
        <time>2015-01-18T10:07:52Z</time>
      </trkpt>
      <trkpt lat="48.76567" lon="-3.38356">
        <ele>95</ele>
        <time>2015-01-18T10:07:53Z</time>
      </trkpt>
      <trkpt lat="48.76564" lon="-3.38366">
        <ele>96</ele>
        <time>2015-01-18T10:07:54Z</time>
      </trkpt>
      <trkpt lat="48.76561" lon="-3.38376">
        <ele>96</ele>
        <time>2015-01-18T10:07:55Z</time>
      </trkpt>
      <trkpt lat="48.76559" lon="-3.38386">
        <ele>96</ele>
        <time>2015-01-18T10:07:56Z</time>
      </trkpt>
      <trkpt lat="48.76556" lon="-3.38396">
        <ele>96</ele>
        <time>2015-01-18T10:07:57Z</time>
      </trkpt>
      <trkpt lat="48.76553" lon="-3.38406">
        <ele>96</ele>
        <time>2015-01-18T10:07:58Z</time>
      </trkpt>
      <trkpt lat="48.7655" lon="-3.38416">
        <ele>96</ele>
        <time>2015-01-18T10:07:59Z</time>
      </trkpt>
      <trkpt lat="48.76548" lon="-3.38425">
        <ele>96</ele>
        <time>2015-01-18T10:08:00Z</time>
      </trkpt>
      <trkpt lat="48.76545" lon="-3.38435">
        <ele>96</ele>
        <time>2015-01-18T10:08:01Z</time>
      </trkpt>
      <trkpt lat="48.76542" lon="-3.38445">
        <ele>96</ele>
        <time>2015-01-18T10:08:02Z</time>
      </trkpt>
      <trkpt lat="48.76539" lon="-3.38454">
        <ele>96</ele>
        <time>2015-01-18T10:08:03Z</time>
      </trkpt>
      <trkpt lat="48.76537" lon="-3.38464">
        <ele>96</ele>
        <time>2015-01-18T10:08:04Z</time>
      </trkpt>
      <trkpt lat="48.76534" lon="-3.38473">
        <ele>96</ele>
        <time>2015-01-18T10:08:05Z</time>
      </trkpt>
      <trkpt lat="48.76532" lon="-3.38482">
        <ele>96</ele>
        <time>2015-01-18T10:08:06Z</time>
      </trkpt>
      <trkpt lat="48.76529" lon="-3.38491">
        <ele>96</ele>
        <time>2015-01-18T10:08:07Z</time>
      </trkpt>
      <trkpt lat="48.76527" lon="-3.385">
        <ele>96</ele>
        <time>2015-01-18T10:08:08Z</time>
      </trkpt>
      <trkpt lat="48.76524" lon="-3.38509">
        <ele>96</ele>
        <time>2015-01-18T10:08:09Z</time>
      </trkpt>
      <trkpt lat="48.76522" lon="-3.38518">
        <ele>96</ele>
        <time>2015-01-18T10:08:10Z</time>
      </trkpt>
      <trkpt lat="48.76519" lon="-3.38526">
        <ele>96</ele>
        <time>2015-01-18T10:08:11Z</time>
      </trkpt>
      <trkpt lat="48.76517" lon="-3.38535">
        <ele>96</ele>
        <time>2015-01-18T10:08:12Z</time>
      </trkpt>
      <trkpt lat="48.76515" lon="-3.38543">
        <ele>96</ele>
        <time>2015-01-18T10:08:13Z</time>
      </trkpt>
      <trkpt lat="48.76513" lon="-3.38551">
        <ele>96</ele>
        <time>2015-01-18T10:08:14Z</time>
      </trkpt>
      <trkpt lat="48.76511" lon="-3.38559">
        <ele>96</ele>
        <time>2015-01-18T10:08:15Z</time>
      </trkpt>
      <trkpt lat="48.76509" lon="-3.38567">
        <ele>96</ele>
        <time>2015-01-18T10:08:16Z</time>
      </trkpt>
      <trkpt lat="48.76507" lon="-3.38574">
        <ele>96</ele>
        <time>2015-01-18T10:08:17Z</time>
      </trkpt>
      <trkpt lat="48.76505" lon="-3.38582">
        <ele>96</ele>
        <time>2015-01-18T10:08:18Z</time>
      </trkpt>
      <trkpt lat="48.76503" lon="-3.38589">
        <ele>97</ele>
        <time>2015-01-18T10:08:19Z</time>
      </trkpt>
      <trkpt lat="48.76501" lon="-3.38595">
        <ele>97</ele>
        <time>2015-01-18T10:08:20Z</time>
      </trkpt>
      <trkpt lat="48.76499" lon="-3.38601">
        <ele>97</ele>
        <time>2015-01-18T10:08:21Z</time>
      </trkpt>
      <trkpt lat="48.76497" lon="-3.38607">
        <ele>97</ele>
        <time>2015-01-18T10:08:22Z</time>
      </trkpt>
      <trkpt lat="48.76496" lon="-3.38613">
        <ele>97</ele>
        <time>2015-01-18T10:08:23Z</time>
      </trkpt>
      <trkpt lat="48.76494" lon="-3.38619">
        <ele>97</ele>
        <time>2015-01-18T10:08:24Z</time>
      </trkpt>
      <trkpt lat="48.76493" lon="-3.38625">
        <ele>97</ele>
        <time>2015-01-18T10:08:25Z</time>
      </trkpt>
      <trkpt lat="48.76491" lon="-3.38631">
        <ele>97</ele>
        <time>2015-01-18T10:08:26Z</time>
      </trkpt>
      <trkpt lat="48.76489" lon="-3.38636">
        <ele>97</ele>
        <time>2015-01-18T10:08:27Z</time>
      </trkpt>
      <trkpt lat="48.76488" lon="-3.38641">
        <ele>97</ele>
        <time>2015-01-18T10:08:28Z</time>
      </trkpt>
      <trkpt lat="48.76486" lon="-3.38647">
        <ele>97</ele>
        <time>2015-01-18T10:08:29Z</time>
      </trkpt>
      <trkpt lat="48.76485" lon="-3.38653">
        <ele>97</ele>
        <time>2015-01-18T10:08:30Z</time>
      </trkpt>
      <trkpt lat="48.76483" lon="-3.38658">
        <ele>97</ele>
        <time>2015-01-18T10:08:31Z</time>
      </trkpt>
      <trkpt lat="48.76482" lon="-3.38664">
        <ele>97</ele>
        <time>2015-01-18T10:08:32Z</time>
      </trkpt>
      <trkpt lat="48.7648" lon="-3.3867">
        <ele>97</ele>
        <time>2015-01-18T10:08:33Z</time>
      </trkpt>
      <trkpt lat="48.76479" lon="-3.38676">
        <ele>97</ele>
        <time>2015-01-18T10:08:34Z</time>
      </trkpt>
      <trkpt lat="48.76477" lon="-3.38682">
        <ele>97</ele>
        <time>2015-01-18T10:08:35Z</time>
      </trkpt>
      <trkpt lat="48.76476" lon="-3.38688">
        <ele>97</ele>
        <time>2015-01-18T10:08:36Z</time>
      </trkpt>
      <trkpt lat="48.76474" lon="-3.38694">
        <ele>97</ele>
        <time>2015-01-18T10:08:37Z</time>
      </trkpt>
      <trkpt lat="48.76472" lon="-3.387">
        <ele>97</ele>
        <time>2015-01-18T10:08:38Z</time>
      </trkpt>
      <trkpt lat="48.7647" lon="-3.38707">
        <ele>97</ele>
        <time>2015-01-18T10:08:39Z</time>
      </trkpt>
      <trkpt lat="48.76468" lon="-3.38713">
        <ele>97</ele>
        <time>2015-01-18T10:08:40Z</time>
      </trkpt>
      <trkpt lat="48.76466" lon="-3.3872">
        <ele>97</ele>
        <time>2015-01-18T10:08:41Z</time>
      </trkpt>
      <trkpt lat="48.76465" lon="-3.38726">
        <ele>97</ele>
        <time>2015-01-18T10:08:42Z</time>
      </trkpt>
      <trkpt lat="48.76463" lon="-3.38733">
        <ele>97</ele>
        <time>2015-01-18T10:08:43Z</time>
      </trkpt>
      <trkpt lat="48.76461" lon="-3.3874">
        <ele>97</ele>
        <time>2015-01-18T10:08:44Z</time>
      </trkpt>
      <trkpt lat="48.76459" lon="-3.38747">
        <ele>97</ele>
        <time>2015-01-18T10:08:45Z</time>
      </trkpt>
      <trkpt lat="48.76457" lon="-3.38754">
        <ele>97</ele>
        <time>2015-01-18T10:08:46Z</time>
      </trkpt>
      <trkpt lat="48.76456" lon="-3.38761">
        <ele>97</ele>
        <time>2015-01-18T10:08:47Z</time>
      </trkpt>
      <trkpt lat="48.76453" lon="-3.38767">
        <ele>97</ele>
        <time>2015-01-18T10:08:48Z</time>
      </trkpt>
      <trkpt lat="48.76452" lon="-3.38774">
        <ele>97</ele>
        <time>2015-01-18T10:08:49Z</time>
      </trkpt>
      <trkpt lat="48.7645" lon="-3.38781">
        <ele>97</ele>
        <time>2015-01-18T10:08:50Z</time>
      </trkpt>
      <trkpt lat="48.76448" lon="-3.38788">
        <ele>97</ele>
        <time>2015-01-18T10:08:51Z</time>
      </trkpt>
      <trkpt lat="48.76446" lon="-3.38795">
        <ele>97</ele>
        <time>2015-01-18T10:08:52Z</time>
      </trkpt>
      <trkpt lat="48.76444" lon="-3.38802">
        <ele>97</ele>
        <time>2015-01-18T10:08:53Z</time>
      </trkpt>
      <trkpt lat="48.76442" lon="-3.38808">
        <ele>97</ele>
        <time>2015-01-18T10:08:54Z</time>
      </trkpt>
      <trkpt lat="48.7644" lon="-3.38815">
        <ele>97</ele>
        <time>2015-01-18T10:08:55Z</time>
      </trkpt>
      <trkpt lat="48.76438" lon="-3.38823">
        <ele>97</ele>
        <time>2015-01-18T10:08:56Z</time>
      </trkpt>
      <trkpt lat="48.76436" lon="-3.38829">
        <ele>97</ele>
        <time>2015-01-18T10:08:57Z</time>
      </trkpt>
      <trkpt lat="48.76434" lon="-3.38837">
        <ele>97</ele>
        <time>2015-01-18T10:08:58Z</time>
      </trkpt>
      <trkpt lat="48.76432" lon="-3.38844">
        <ele>97</ele>
        <time>2015-01-18T10:08:59Z</time>
      </trkpt>
      <trkpt lat="48.76429" lon="-3.38851">
        <ele>97</ele>
        <time>2015-01-18T10:09:00Z</time>
      </trkpt>
      <trkpt lat="48.76427" lon="-3.38858">
        <ele>97</ele>
        <time>2015-01-18T10:09:01Z</time>
      </trkpt>
      <trkpt lat="48.76425" lon="-3.38866">
        <ele>97</ele>
        <time>2015-01-18T10:09:02Z</time>
      </trkpt>
      <trkpt lat="48.76423" lon="-3.38873">
        <ele>97</ele>
        <time>2015-01-18T10:09:03Z</time>
      </trkpt>
      <trkpt lat="48.7642" lon="-3.38881">
        <ele>97</ele>
        <time>2015-01-18T10:09:04Z</time>
      </trkpt>
      <trkpt lat="48.76417" lon="-3.3889">
        <ele>97</ele>
        <time>2015-01-18T10:09:05Z</time>
      </trkpt>
      <trkpt lat="48.76414" lon="-3.38898">
        <ele>97</ele>
        <time>2015-01-18T10:09:06Z</time>
      </trkpt>
      <trkpt lat="48.76412" lon="-3.38907">
        <ele>97</ele>
        <time>2015-01-18T10:09:07Z</time>
      </trkpt>
      <trkpt lat="48.76409" lon="-3.38915">
        <ele>97</ele>
        <time>2015-01-18T10:09:08Z</time>
      </trkpt>
      <trkpt lat="48.76406" lon="-3.38924">
        <ele>97</ele>
        <time>2015-01-18T10:09:09Z</time>
      </trkpt>
      <trkpt lat="48.76403" lon="-3.38933">
        <ele>97</ele>
        <time>2015-01-18T10:09:10Z</time>
      </trkpt>
      <trkpt lat="48.764" lon="-3.38942">
        <ele>97</ele>
        <time>2015-01-18T10:09:11Z</time>
      </trkpt>
      <trkpt lat="48.76397" lon="-3.3895">
        <ele>97</ele>
        <time>2015-01-18T10:09:12Z</time>
      </trkpt>
      <trkpt lat="48.76393" lon="-3.38959">
        <ele>97</ele>
        <time>2015-01-18T10:09:13Z</time>
      </trkpt>
      <trkpt lat="48.7639" lon="-3.38967">
        <ele>97</ele>
        <time>2015-01-18T10:09:14Z</time>
      </trkpt>
      <trkpt lat="48.76386" lon="-3.38976">
        <ele>97</ele>
        <time>2015-01-18T10:09:15Z</time>
      </trkpt>
      <trkpt lat="48.76383" lon="-3.38984">
        <ele>97</ele>
        <time>2015-01-18T10:09:16Z</time>
      </trkpt>
      <trkpt lat="48.76379" lon="-3.38992">
        <ele>97</ele>
        <time>2015-01-18T10:09:17Z</time>
      </trkpt>
      <trkpt lat="48.76375" lon="-3.39001">
        <ele>97</ele>
        <time>2015-01-18T10:09:18Z</time>
      </trkpt>
      <trkpt lat="48.76371" lon="-3.39009">
        <ele>97</ele>
        <time>2015-01-18T10:09:19Z</time>
      </trkpt>
      <trkpt lat="48.76366" lon="-3.39017">
        <ele>97</ele>
        <time>2015-01-18T10:09:20Z</time>
      </trkpt>
      <trkpt lat="48.76362" lon="-3.39025">
        <ele>97</ele>
        <time>2015-01-18T10:09:21Z</time>
      </trkpt>
      <trkpt lat="48.76357" lon="-3.39034">
        <ele>97</ele>
        <time>2015-01-18T10:09:22Z</time>
      </trkpt>
      <trkpt lat="48.76353" lon="-3.39042">
        <ele>97</ele>
        <time>2015-01-18T10:09:23Z</time>
      </trkpt>
      <trkpt lat="48.76348" lon="-3.3905">
        <ele>97</ele>
        <time>2015-01-18T10:09:24Z</time>
      </trkpt>
      <trkpt lat="48.76344" lon="-3.39058">
        <ele>97</ele>
        <time>2015-01-18T10:09:25Z</time>
      </trkpt>
      <trkpt lat="48.76339" lon="-3.39066">
        <ele>97</ele>
        <time>2015-01-18T10:09:26Z</time>
      </trkpt>
      <trkpt lat="48.76334" lon="-3.39074">
        <ele>97</ele>
        <time>2015-01-18T10:09:27Z</time>
      </trkpt>
      <trkpt lat="48.7633" lon="-3.39082">
        <ele>97</ele>
        <time>2015-01-18T10:09:28Z</time>
      </trkpt>
      <trkpt lat="48.76325" lon="-3.3909">
        <ele>97</ele>
        <time>2015-01-18T10:09:29Z</time>
      </trkpt>
      <trkpt lat="48.76321" lon="-3.39098">
        <ele>97</ele>
        <time>2015-01-18T10:09:30Z</time>
      </trkpt>
      <trkpt lat="48.76316" lon="-3.39106">
        <ele>97</ele>
        <time>2015-01-18T10:09:31Z</time>
      </trkpt>
      <trkpt lat="48.76311" lon="-3.39114">
        <ele>97</ele>
        <time>2015-01-18T10:09:32Z</time>
      </trkpt>
      <trkpt lat="48.76307" lon="-3.39122">
        <ele>97</ele>
        <time>2015-01-18T10:09:33Z</time>
      </trkpt>
      <trkpt lat="48.76302" lon="-3.3913">
        <ele>97</ele>
        <time>2015-01-18T10:09:34Z</time>
      </trkpt>
      <trkpt lat="48.76298" lon="-3.39138">
        <ele>97</ele>
        <time>2015-01-18T10:09:35Z</time>
      </trkpt>
      <trkpt lat="48.76293" lon="-3.39146">
        <ele>97</ele>
        <time>2015-01-18T10:09:36Z</time>
      </trkpt>
      <trkpt lat="48.76289" lon="-3.39155">
        <ele>98</ele>
        <time>2015-01-18T10:09:37Z</time>
      </trkpt>
      <trkpt lat="48.76285" lon="-3.39163">
        <ele>98</ele>
        <time>2015-01-18T10:09:38Z</time>
      </trkpt>
      <trkpt lat="48.7628" lon="-3.39171">
        <ele>98</ele>
        <time>2015-01-18T10:09:39Z</time>
      </trkpt>
      <trkpt lat="48.76276" lon="-3.39179">
        <ele>98</ele>
        <time>2015-01-18T10:09:40Z</time>
      </trkpt>
      <trkpt lat="48.76271" lon="-3.39187">
        <ele>98</ele>
        <time>2015-01-18T10:09:41Z</time>
      </trkpt>
      <trkpt lat="48.76267" lon="-3.39195">
        <ele>98</ele>
        <time>2015-01-18T10:09:42Z</time>
      </trkpt>
      <trkpt lat="48.76262" lon="-3.39203">
        <ele>98</ele>
        <time>2015-01-18T10:09:43Z</time>
      </trkpt>
      <trkpt lat="48.76258" lon="-3.39211">
        <ele>98</ele>
        <time>2015-01-18T10:09:44Z</time>
      </trkpt>
      <trkpt lat="48.76253" lon="-3.39219">
        <ele>99</ele>
        <time>2015-01-18T10:09:45Z</time>
      </trkpt>
      <trkpt lat="48.76248" lon="-3.39227">
        <ele>99</ele>
        <time>2015-01-18T10:09:46Z</time>
      </trkpt>
      <trkpt lat="48.76244" lon="-3.39235">
        <ele>99</ele>
        <time>2015-01-18T10:09:47Z</time>
      </trkpt>
      <trkpt lat="48.76239" lon="-3.39243">
        <ele>99</ele>
        <time>2015-01-18T10:09:48Z</time>
      </trkpt>
      <trkpt lat="48.76234" lon="-3.3925">
        <ele>99</ele>
        <time>2015-01-18T10:09:49Z</time>
      </trkpt>
      <trkpt lat="48.76228" lon="-3.39258">
        <ele>100</ele>
        <time>2015-01-18T10:09:50Z</time>
      </trkpt>
      <trkpt lat="48.76223" lon="-3.39266">
        <ele>100</ele>
        <time>2015-01-18T10:09:51Z</time>
      </trkpt>
      <trkpt lat="48.76218" lon="-3.39274">
        <ele>100</ele>
        <time>2015-01-18T10:09:52Z</time>
      </trkpt>
      <trkpt lat="48.76212" lon="-3.39282">
        <ele>100</ele>
        <time>2015-01-18T10:09:53Z</time>
      </trkpt>
      <trkpt lat="48.76207" lon="-3.3929">
        <ele>100</ele>
        <time>2015-01-18T10:09:54Z</time>
      </trkpt>
      <trkpt lat="48.76202" lon="-3.39297">
        <ele>100</ele>
        <time>2015-01-18T10:09:55Z</time>
      </trkpt>
      <trkpt lat="48.76196" lon="-3.39305">
        <ele>100</ele>
        <time>2015-01-18T10:09:56Z</time>
      </trkpt>
      <trkpt lat="48.76191" lon="-3.39313">
        <ele>100</ele>
        <time>2015-01-18T10:09:57Z</time>
      </trkpt>
      <trkpt lat="48.76186" lon="-3.3932">
        <ele>100</ele>
        <time>2015-01-18T10:09:58Z</time>
      </trkpt>
      <trkpt lat="48.7618" lon="-3.39328">
        <ele>100</ele>
        <time>2015-01-18T10:09:59Z</time>
      </trkpt>
      <trkpt lat="48.76175" lon="-3.39335">
        <ele>101</ele>
        <time>2015-01-18T10:10:00Z</time>
      </trkpt>
      <trkpt lat="48.7617" lon="-3.39343">
        <ele>101</ele>
        <time>2015-01-18T10:10:01Z</time>
      </trkpt>
      <trkpt lat="48.76165" lon="-3.3935">
        <ele>101</ele>
        <time>2015-01-18T10:10:02Z</time>
      </trkpt>
      <trkpt lat="48.7616" lon="-3.39357">
        <ele>101</ele>
        <time>2015-01-18T10:10:03Z</time>
      </trkpt>
      <trkpt lat="48.76154" lon="-3.39365">
        <ele>101</ele>
        <time>2015-01-18T10:10:04Z</time>
      </trkpt>
      <trkpt lat="48.76149" lon="-3.39372">
        <ele>102</ele>
        <time>2015-01-18T10:10:05Z</time>
      </trkpt>
      <trkpt lat="48.76143" lon="-3.3938">
        <ele>102</ele>
        <time>2015-01-18T10:10:06Z</time>
      </trkpt>
      <trkpt lat="48.76138" lon="-3.39387">
        <ele>102</ele>
        <time>2015-01-18T10:10:07Z</time>
      </trkpt>
      <trkpt lat="48.76132" lon="-3.39395">
        <ele>102</ele>
        <time>2015-01-18T10:10:08Z</time>
      </trkpt>
      <trkpt lat="48.76126" lon="-3.39402">
        <ele>102</ele>
        <time>2015-01-18T10:10:09Z</time>
      </trkpt>
      <trkpt lat="48.7612" lon="-3.39409">
        <ele>103</ele>
        <time>2015-01-18T10:10:10Z</time>
      </trkpt>
      <trkpt lat="48.76113" lon="-3.39415">
        <ele>103</ele>
        <time>2015-01-18T10:10:11Z</time>
      </trkpt>
      <trkpt lat="48.76107" lon="-3.39421">
        <ele>103</ele>
        <time>2015-01-18T10:10:12Z</time>
      </trkpt>
      <trkpt lat="48.761" lon="-3.39426">
        <ele>103</ele>
        <time>2015-01-18T10:10:13Z</time>
      </trkpt>
      <trkpt lat="48.76094" lon="-3.3943">
        <ele>103</ele>
        <time>2015-01-18T10:10:14Z</time>
      </trkpt>
      <trkpt lat="48.76087" lon="-3.39435">
        <ele>103</ele>
        <time>2015-01-18T10:10:15Z</time>
      </trkpt>
      <trkpt lat="48.7608" lon="-3.39439">
        <ele>103</ele>
        <time>2015-01-18T10:10:16Z</time>
      </trkpt>
      <trkpt lat="48.76073" lon="-3.39444">
        <ele>103</ele>
        <time>2015-01-18T10:10:17Z</time>
      </trkpt>
      <trkpt lat="48.76067" lon="-3.39448">
        <ele>103</ele>
        <time>2015-01-18T10:10:18Z</time>
      </trkpt>
      <trkpt lat="48.7606" lon="-3.39453">
        <ele>103</ele>
        <time>2015-01-18T10:10:19Z</time>
      </trkpt>
      <trkpt lat="48.76054" lon="-3.39457">
        <ele>103</ele>
        <time>2015-01-18T10:10:20Z</time>
      </trkpt>
      <trkpt lat="48.76047" lon="-3.39462">
        <ele>104</ele>
        <time>2015-01-18T10:10:21Z</time>
      </trkpt>
      <trkpt lat="48.76041" lon="-3.39467">
        <ele>104</ele>
        <time>2015-01-18T10:10:22Z</time>
      </trkpt>
      <trkpt lat="48.76034" lon="-3.39473">
        <ele>104</ele>
        <time>2015-01-18T10:10:23Z</time>
      </trkpt>
      <trkpt lat="48.76028" lon="-3.39479">
        <ele>104</ele>
        <time>2015-01-18T10:10:24Z</time>
      </trkpt>
      <trkpt lat="48.76022" lon="-3.39486">
        <ele>104</ele>
        <time>2015-01-18T10:10:25Z</time>
      </trkpt>
      <trkpt lat="48.76017" lon="-3.39493">
        <ele>104</ele>
        <time>2015-01-18T10:10:26Z</time>
      </trkpt>
      <trkpt lat="48.76011" lon="-3.395">
        <ele>104</ele>
        <time>2015-01-18T10:10:27Z</time>
      </trkpt>
      <trkpt lat="48.76006" lon="-3.39508">
        <ele>104</ele>
        <time>2015-01-18T10:10:28Z</time>
      </trkpt>
      <trkpt lat="48.76" lon="-3.39515">
        <ele>104</ele>
        <time>2015-01-18T10:10:29Z</time>
      </trkpt>
      <trkpt lat="48.75995" lon="-3.39522">
        <ele>105</ele>
        <time>2015-01-18T10:10:30Z</time>
      </trkpt>
      <trkpt lat="48.7599" lon="-3.39529">
        <ele>105</ele>
        <time>2015-01-18T10:10:31Z</time>
      </trkpt>
      <trkpt lat="48.75984" lon="-3.39537">
        <ele>105</ele>
        <time>2015-01-18T10:10:32Z</time>
      </trkpt>
      <trkpt lat="48.75978" lon="-3.39544">
        <ele>105</ele>
        <time>2015-01-18T10:10:33Z</time>
      </trkpt>
      <trkpt lat="48.75972" lon="-3.39552">
        <ele>106</ele>
        <time>2015-01-18T10:10:34Z</time>
      </trkpt>
      <trkpt lat="48.75967" lon="-3.39559">
        <ele>106</ele>
        <time>2015-01-18T10:10:35Z</time>
      </trkpt>
      <trkpt lat="48.75961" lon="-3.39566">
        <ele>106</ele>
        <time>2015-01-18T10:10:36Z</time>
      </trkpt>
      <trkpt lat="48.75955" lon="-3.39574">
        <ele>106</ele>
        <time>2015-01-18T10:10:37Z</time>
      </trkpt>
      <trkpt lat="48.75949" lon="-3.39581">
        <ele>106</ele>
        <time>2015-01-18T10:10:38Z</time>
      </trkpt>
      <trkpt lat="48.75943" lon="-3.39588">
        <ele>106</ele>
        <time>2015-01-18T10:10:39Z</time>
      </trkpt>
      <trkpt lat="48.75937" lon="-3.39595">
        <ele>106</ele>
        <time>2015-01-18T10:10:40Z</time>
      </trkpt>
      <trkpt lat="48.75931" lon="-3.39602">
        <ele>106</ele>
        <time>2015-01-18T10:10:41Z</time>
      </trkpt>
      <trkpt lat="48.75925" lon="-3.39609">
        <ele>107</ele>
        <time>2015-01-18T10:10:42Z</time>
      </trkpt>
      <trkpt lat="48.7592" lon="-3.39616">
        <ele>107</ele>
        <time>2015-01-18T10:10:43Z</time>
      </trkpt>
      <trkpt lat="48.75914" lon="-3.39622">
        <ele>107</ele>
        <time>2015-01-18T10:10:44Z</time>
      </trkpt>
      <trkpt lat="48.75908" lon="-3.39628">
        <ele>107</ele>
        <time>2015-01-18T10:10:45Z</time>
      </trkpt>
      <trkpt lat="48.75903" lon="-3.39634">
        <ele>107</ele>
        <time>2015-01-18T10:10:46Z</time>
      </trkpt>
      <trkpt lat="48.75897" lon="-3.39641">
        <ele>107</ele>
        <time>2015-01-18T10:10:47Z</time>
      </trkpt>
      <trkpt lat="48.75891" lon="-3.39647">
        <ele>108</ele>
        <time>2015-01-18T10:10:48Z</time>
      </trkpt>
      <trkpt lat="48.75885" lon="-3.39653">
        <ele>108</ele>
        <time>2015-01-18T10:10:49Z</time>
      </trkpt>
      <trkpt lat="48.75879" lon="-3.3966">
        <ele>108</ele>
        <time>2015-01-18T10:10:50Z</time>
      </trkpt>
      <trkpt lat="48.75874" lon="-3.39667">
        <ele>108</ele>
        <time>2015-01-18T10:10:51Z</time>
      </trkpt>
      <trkpt lat="48.75868" lon="-3.39674">
        <ele>108</ele>
        <time>2015-01-18T10:10:52Z</time>
      </trkpt>
      <trkpt lat="48.75862" lon="-3.39681">
        <ele>108</ele>
        <time>2015-01-18T10:10:53Z</time>
      </trkpt>
      <trkpt lat="48.75856" lon="-3.39688">
        <ele>108</ele>
        <time>2015-01-18T10:10:54Z</time>
      </trkpt>
      <trkpt lat="48.7585" lon="-3.39695">
        <ele>108</ele>
        <time>2015-01-18T10:10:55Z</time>
      </trkpt>
      <trkpt lat="48.75843" lon="-3.39702">
        <ele>108</ele>
        <time>2015-01-18T10:10:56Z</time>
      </trkpt>
      <trkpt lat="48.75837" lon="-3.39709">
        <ele>108</ele>
        <time>2015-01-18T10:10:57Z</time>
      </trkpt>
      <trkpt lat="48.75832" lon="-3.39716">
        <ele>108</ele>
        <time>2015-01-18T10:10:58Z</time>
      </trkpt>
      <trkpt lat="48.75826" lon="-3.39722">
        <ele>109</ele>
        <time>2015-01-18T10:10:59Z</time>
      </trkpt>
      <trkpt lat="48.75819" lon="-3.39729">
        <ele>109</ele>
        <time>2015-01-18T10:11:00Z</time>
      </trkpt>
      <trkpt lat="48.75813" lon="-3.39736">
        <ele>109</ele>
        <time>2015-01-18T10:11:01Z</time>
      </trkpt>
      <trkpt lat="48.75806" lon="-3.39744">
        <ele>109</ele>
        <time>2015-01-18T10:11:02Z</time>
      </trkpt>
      <trkpt lat="48.758" lon="-3.39751">
        <ele>109</ele>
        <time>2015-01-18T10:11:03Z</time>
      </trkpt>
      <trkpt lat="48.75794" lon="-3.39758">
        <ele>109</ele>
        <time>2015-01-18T10:11:04Z</time>
      </trkpt>
      <trkpt lat="48.75788" lon="-3.39766">
        <ele>109</ele>
        <time>2015-01-18T10:11:05Z</time>
      </trkpt>
      <trkpt lat="48.75782" lon="-3.39774">
        <ele>109</ele>
        <time>2015-01-18T10:11:06Z</time>
      </trkpt>
      <trkpt lat="48.75776" lon="-3.39782">
        <ele>109</ele>
        <time>2015-01-18T10:11:07Z</time>
      </trkpt>
      <trkpt lat="48.75769" lon="-3.3979">
        <ele>109</ele>
        <time>2015-01-18T10:11:08Z</time>
      </trkpt>
      <trkpt lat="48.75763" lon="-3.39799">
        <ele>109</ele>
        <time>2015-01-18T10:11:09Z</time>
      </trkpt>
      <trkpt lat="48.75757" lon="-3.39808">
        <ele>109</ele>
        <time>2015-01-18T10:11:10Z</time>
      </trkpt>
      <trkpt lat="48.75751" lon="-3.39817">
        <ele>109</ele>
        <time>2015-01-18T10:11:11Z</time>
      </trkpt>
      <trkpt lat="48.75745" lon="-3.39826">
        <ele>109</ele>
        <time>2015-01-18T10:11:12Z</time>
      </trkpt>
      <trkpt lat="48.75739" lon="-3.39835">
        <ele>109</ele>
        <time>2015-01-18T10:11:13Z</time>
      </trkpt>
      <trkpt lat="48.75734" lon="-3.39845">
        <ele>109</ele>
        <time>2015-01-18T10:11:14Z</time>
      </trkpt>
      <trkpt lat="48.75729" lon="-3.39856">
        <ele>109</ele>
        <time>2015-01-18T10:11:15Z</time>
      </trkpt>
      <trkpt lat="48.75726" lon="-3.39868">
        <ele>109</ele>
        <time>2015-01-18T10:11:16Z</time>
      </trkpt>
      <trkpt lat="48.75723" lon="-3.3988">
        <ele>109</ele>
        <time>2015-01-18T10:11:17Z</time>
      </trkpt>
      <trkpt lat="48.75721" lon="-3.39892">
        <ele>109</ele>
        <time>2015-01-18T10:11:18Z</time>
      </trkpt>
      <trkpt lat="48.75718" lon="-3.39904">
        <ele>109</ele>
        <time>2015-01-18T10:11:19Z</time>
      </trkpt>
      <trkpt lat="48.75716" lon="-3.39917">
        <ele>109</ele>
        <time>2015-01-18T10:11:20Z</time>
      </trkpt>
      <trkpt lat="48.75713" lon="-3.39929">
        <ele>109</ele>
        <time>2015-01-18T10:11:21Z</time>
      </trkpt>
      <trkpt lat="48.7571" lon="-3.39941">
        <ele>109</ele>
        <time>2015-01-18T10:11:22Z</time>
      </trkpt>
      <trkpt lat="48.75706" lon="-3.39953">
        <ele>109</ele>
        <time>2015-01-18T10:11:23Z</time>
      </trkpt>
      <trkpt lat="48.75703" lon="-3.39966">
        <ele>109</ele>
        <time>2015-01-18T10:11:24Z</time>
      </trkpt>
      <trkpt lat="48.75699" lon="-3.39978">
        <ele>109</ele>
        <time>2015-01-18T10:11:25Z</time>
      </trkpt>
      <trkpt lat="48.75695" lon="-3.39989">
        <ele>109</ele>
        <time>2015-01-18T10:11:26Z</time>
      </trkpt>
      <trkpt lat="48.75691" lon="-3.40001">
        <ele>109</ele>
        <time>2015-01-18T10:11:27Z</time>
      </trkpt>
      <trkpt lat="48.75687" lon="-3.40013">
        <ele>109</ele>
        <time>2015-01-18T10:11:28Z</time>
      </trkpt>
      <trkpt lat="48.75683" lon="-3.40025">
        <ele>109</ele>
        <time>2015-01-18T10:11:29Z</time>
      </trkpt>
      <trkpt lat="48.75679" lon="-3.40037">
        <ele>109</ele>
        <time>2015-01-18T10:11:30Z</time>
      </trkpt>
      <trkpt lat="48.75675" lon="-3.40049">
        <ele>109</ele>
        <time>2015-01-18T10:11:31Z</time>
      </trkpt>
      <trkpt lat="48.75671" lon="-3.40061">
        <ele>109</ele>
        <time>2015-01-18T10:11:32Z</time>
      </trkpt>
      <trkpt lat="48.75666" lon="-3.40073">
        <ele>109</ele>
        <time>2015-01-18T10:11:33Z</time>
      </trkpt>
      <trkpt lat="48.75662" lon="-3.40085">
        <ele>109</ele>
        <time>2015-01-18T10:11:34Z</time>
      </trkpt>
      <trkpt lat="48.75657" lon="-3.40098">
        <ele>109</ele>
        <time>2015-01-18T10:11:35Z</time>
      </trkpt>
      <trkpt lat="48.75653" lon="-3.4011">
        <ele>109</ele>
        <time>2015-01-18T10:11:36Z</time>
      </trkpt>
      <trkpt lat="48.75648" lon="-3.40123">
        <ele>109</ele>
        <time>2015-01-18T10:11:37Z</time>
      </trkpt>
      <trkpt lat="48.75644" lon="-3.40135">
        <ele>109</ele>
        <time>2015-01-18T10:11:38Z</time>
      </trkpt>
      <trkpt lat="48.75639" lon="-3.40148">
        <ele>109</ele>
        <time>2015-01-18T10:11:39Z</time>
      </trkpt>
      <trkpt lat="48.75635" lon="-3.4016">
        <ele>109</ele>
        <time>2015-01-18T10:11:40Z</time>
      </trkpt>
      <trkpt lat="48.7563" lon="-3.40173">
        <ele>109</ele>
        <time>2015-01-18T10:11:41Z</time>
      </trkpt>
      <trkpt lat="48.75626" lon="-3.40186">
        <ele>109</ele>
        <time>2015-01-18T10:11:42Z</time>
      </trkpt>
      <trkpt lat="48.75622" lon="-3.40198">
        <ele>109</ele>
        <time>2015-01-18T10:11:43Z</time>
      </trkpt>
      <trkpt lat="48.75617" lon="-3.4021">
        <ele>109</ele>
        <time>2015-01-18T10:11:44Z</time>
      </trkpt>
      <trkpt lat="48.75613" lon="-3.40222">
        <ele>108</ele>
        <time>2015-01-18T10:11:45Z</time>
      </trkpt>
      <trkpt lat="48.75608" lon="-3.40234">
        <ele>108</ele>
        <time>2015-01-18T10:11:46Z</time>
      </trkpt>
      <trkpt lat="48.75602" lon="-3.40245">
        <ele>108</ele>
        <time>2015-01-18T10:11:47Z</time>
      </trkpt>
      <trkpt lat="48.75597" lon="-3.40256">
        <ele>108</ele>
        <time>2015-01-18T10:11:48Z</time>
      </trkpt>
      <trkpt lat="48.75592" lon="-3.40267">
        <ele>108</ele>
        <time>2015-01-18T10:11:49Z</time>
      </trkpt>
      <trkpt lat="48.75586" lon="-3.40279">
        <ele>107</ele>
        <time>2015-01-18T10:11:50Z</time>
      </trkpt>
      <trkpt lat="48.7558" lon="-3.4029">
        <ele>107</ele>
        <time>2015-01-18T10:11:51Z</time>
      </trkpt>
      <trkpt lat="48.75573" lon="-3.40301">
        <ele>107</ele>
        <time>2015-01-18T10:11:52Z</time>
      </trkpt>
      <trkpt lat="48.75567" lon="-3.40312">
        <ele>106</ele>
        <time>2015-01-18T10:11:53Z</time>
      </trkpt>
      <trkpt lat="48.75561" lon="-3.40323">
        <ele>106</ele>
        <time>2015-01-18T10:11:54Z</time>
      </trkpt>
      <trkpt lat="48.75554" lon="-3.40334">
        <ele>106</ele>
        <time>2015-01-18T10:11:55Z</time>
      </trkpt>
      <trkpt lat="48.75547" lon="-3.40345">
        <ele>106</ele>
        <time>2015-01-18T10:11:56Z</time>
      </trkpt>
      <trkpt lat="48.75541" lon="-3.40356">
        <ele>105</ele>
        <time>2015-01-18T10:11:57Z</time>
      </trkpt>
      <trkpt lat="48.75535" lon="-3.40368">
        <ele>105</ele>
        <time>2015-01-18T10:11:58Z</time>
      </trkpt>
      <trkpt lat="48.75529" lon="-3.40381">
        <ele>105</ele>
        <time>2015-01-18T10:11:59Z</time>
      </trkpt>
      <trkpt lat="48.75524" lon="-3.40393">
        <ele>105</ele>
        <time>2015-01-18T10:12:00Z</time>
      </trkpt>
      <trkpt lat="48.75519" lon="-3.40406">
        <ele>104</ele>
        <time>2015-01-18T10:12:01Z</time>
      </trkpt>
      <trkpt lat="48.75514" lon="-3.40419">
        <ele>104</ele>
        <time>2015-01-18T10:12:02Z</time>
      </trkpt>
      <trkpt lat="48.7551" lon="-3.40433">
        <ele>104</ele>
        <time>2015-01-18T10:12:03Z</time>
      </trkpt>
      <trkpt lat="48.75506" lon="-3.40446">
        <ele>104</ele>
        <time>2015-01-18T10:12:04Z</time>
      </trkpt>
      <trkpt lat="48.75503" lon="-3.40459">
        <ele>104</ele>
        <time>2015-01-18T10:12:05Z</time>
      </trkpt>
      <trkpt lat="48.75499" lon="-3.40472">
        <ele>103</ele>
        <time>2015-01-18T10:12:06Z</time>
      </trkpt>
      <trkpt lat="48.75495" lon="-3.40485">
        <ele>103</ele>
        <time>2015-01-18T10:12:07Z</time>
      </trkpt>
      <trkpt lat="48.75492" lon="-3.40497">
        <ele>103</ele>
        <time>2015-01-18T10:12:08Z</time>
      </trkpt>
      <trkpt lat="48.75488" lon="-3.4051">
        <ele>103</ele>
        <time>2015-01-18T10:12:09Z</time>
      </trkpt>
      <trkpt lat="48.75484" lon="-3.40523">
        <ele>103</ele>
        <time>2015-01-18T10:12:10Z</time>
      </trkpt>
      <trkpt lat="48.75481" lon="-3.40536">
        <ele>102</ele>
        <time>2015-01-18T10:12:11Z</time>
      </trkpt>
      <trkpt lat="48.75476" lon="-3.40548">
        <ele>102</ele>
        <time>2015-01-18T10:12:12Z</time>
      </trkpt>
      <trkpt lat="48.75472" lon="-3.40561">
        <ele>102</ele>
        <time>2015-01-18T10:12:13Z</time>
      </trkpt>
      <trkpt lat="48.75468" lon="-3.40574">
        <ele>102</ele>
        <time>2015-01-18T10:12:14Z</time>
      </trkpt>
      <trkpt lat="48.75463" lon="-3.40587">
        <ele>101</ele>
        <time>2015-01-18T10:12:15Z</time>
      </trkpt>
      <trkpt lat="48.75459" lon="-3.406">
        <ele>101</ele>
        <time>2015-01-18T10:12:16Z</time>
      </trkpt>
      <trkpt lat="48.75455" lon="-3.40613">
        <ele>101</ele>
        <time>2015-01-18T10:12:17Z</time>
      </trkpt>
      <trkpt lat="48.75451" lon="-3.40626">
        <ele>101</ele>
        <time>2015-01-18T10:12:18Z</time>
      </trkpt>
      <trkpt lat="48.75446" lon="-3.40639">
        <ele>101</ele>
        <time>2015-01-18T10:12:19Z</time>
      </trkpt>
      <trkpt lat="48.75442" lon="-3.40651">
        <ele>101</ele>
        <time>2015-01-18T10:12:20Z</time>
      </trkpt>
      <trkpt lat="48.75438" lon="-3.40664">
        <ele>100</ele>
        <time>2015-01-18T10:12:21Z</time>
      </trkpt>
      <trkpt lat="48.75434" lon="-3.40677">
        <ele>100</ele>
        <time>2015-01-18T10:12:22Z</time>
      </trkpt>
      <trkpt lat="48.75429" lon="-3.4069">
        <ele>100</ele>
        <time>2015-01-18T10:12:23Z</time>
      </trkpt>
      <trkpt lat="48.75425" lon="-3.40704">
        <ele>100</ele>
        <time>2015-01-18T10:12:24Z</time>
      </trkpt>
      <trkpt lat="48.7542" lon="-3.40717">
        <ele>99</ele>
        <time>2015-01-18T10:12:25Z</time>
      </trkpt>
      <trkpt lat="48.75415" lon="-3.4073">
        <ele>99</ele>
        <time>2015-01-18T10:12:26Z</time>
      </trkpt>
      <trkpt lat="48.7541" lon="-3.40744">
        <ele>98</ele>
        <time>2015-01-18T10:12:27Z</time>
      </trkpt>
      <trkpt lat="48.75404" lon="-3.40758">
        <ele>98</ele>
        <time>2015-01-18T10:12:28Z</time>
      </trkpt>
      <trkpt lat="48.75399" lon="-3.40771">
        <ele>97</ele>
        <time>2015-01-18T10:12:29Z</time>
      </trkpt>
      <trkpt lat="48.75393" lon="-3.40785">
        <ele>97</ele>
        <time>2015-01-18T10:12:30Z</time>
      </trkpt>
      <trkpt lat="48.75388" lon="-3.40799">
        <ele>96</ele>
        <time>2015-01-18T10:12:31Z</time>
      </trkpt>
      <trkpt lat="48.75382" lon="-3.40813">
        <ele>96</ele>
        <time>2015-01-18T10:12:32Z</time>
      </trkpt>
      <trkpt lat="48.75376" lon="-3.40826">
        <ele>95</ele>
        <time>2015-01-18T10:12:33Z</time>
      </trkpt>
      <trkpt lat="48.7537" lon="-3.4084">
        <ele>95</ele>
        <time>2015-01-18T10:12:34Z</time>
      </trkpt>
      <trkpt lat="48.75364" lon="-3.40853">
        <ele>94</ele>
        <time>2015-01-18T10:12:35Z</time>
      </trkpt>
      <trkpt lat="48.75358" lon="-3.40867">
        <ele>94</ele>
        <time>2015-01-18T10:12:36Z</time>
      </trkpt>
      <trkpt lat="48.75352" lon="-3.4088">
        <ele>94</ele>
        <time>2015-01-18T10:12:37Z</time>
      </trkpt>
      <trkpt lat="48.75347" lon="-3.40894">
        <ele>93</ele>
        <time>2015-01-18T10:12:38Z</time>
      </trkpt>
      <trkpt lat="48.75342" lon="-3.40908">
        <ele>93</ele>
        <time>2015-01-18T10:12:39Z</time>
      </trkpt>
      <trkpt lat="48.75337" lon="-3.40922">
        <ele>93</ele>
        <time>2015-01-18T10:12:40Z</time>
      </trkpt>
      <trkpt lat="48.75331" lon="-3.40936">
        <ele>92</ele>
        <time>2015-01-18T10:12:41Z</time>
      </trkpt>
      <trkpt lat="48.75325" lon="-3.4095">
        <ele>92</ele>
        <time>2015-01-18T10:12:42Z</time>
      </trkpt>
      <trkpt lat="48.7532" lon="-3.40965">
        <ele>91</ele>
        <time>2015-01-18T10:12:43Z</time>
      </trkpt>
      <trkpt lat="48.75314" lon="-3.40979">
        <ele>90</ele>
        <time>2015-01-18T10:12:44Z</time>
      </trkpt>
      <trkpt lat="48.75308" lon="-3.40994">
        <ele>90</ele>
        <time>2015-01-18T10:12:45Z</time>
      </trkpt>
      <trkpt lat="48.75303" lon="-3.41009">
        <ele>89</ele>
        <time>2015-01-18T10:12:46Z</time>
      </trkpt>
      <trkpt lat="48.75298" lon="-3.41024">
        <ele>89</ele>
        <time>2015-01-18T10:12:47Z</time>
      </trkpt>
      <trkpt lat="48.75294" lon="-3.41041">
        <ele>88</ele>
        <time>2015-01-18T10:12:48Z</time>
      </trkpt>
      <trkpt lat="48.75291" lon="-3.41057">
        <ele>87</ele>
        <time>2015-01-18T10:12:49Z</time>
      </trkpt>
      <trkpt lat="48.75288" lon="-3.41074">
        <ele>87</ele>
        <time>2015-01-18T10:12:50Z</time>
      </trkpt>
      <trkpt lat="48.75285" lon="-3.41092">
        <ele>86</ele>
        <time>2015-01-18T10:12:51Z</time>
      </trkpt>
      <trkpt lat="48.7528" lon="-3.41109">
        <ele>85</ele>
        <time>2015-01-18T10:12:52Z</time>
      </trkpt>
      <trkpt lat="48.75275" lon="-3.41125">
        <ele>85</ele>
        <time>2015-01-18T10:12:53Z</time>
      </trkpt>
      <trkpt lat="48.75268" lon="-3.4114">
        <ele>84</ele>
        <time>2015-01-18T10:12:54Z</time>
      </trkpt>
      <trkpt lat="48.75261" lon="-3.41155">
        <ele>83</ele>
        <time>2015-01-18T10:12:55Z</time>
      </trkpt>
      <trkpt lat="48.75254" lon="-3.41169">
        <ele>83</ele>
        <time>2015-01-18T10:12:56Z</time>
      </trkpt>
      <trkpt lat="48.75248" lon="-3.41182">
        <ele>83</ele>
        <time>2015-01-18T10:12:57Z</time>
      </trkpt>
      <trkpt lat="48.75241" lon="-3.41195">
        <ele>83</ele>
        <time>2015-01-18T10:12:58Z</time>
      </trkpt>
      <trkpt lat="48.75235" lon="-3.41207">
        <ele>83</ele>
        <time>2015-01-18T10:12:59Z</time>
      </trkpt>
      <trkpt lat="48.75229" lon="-3.41219">
        <ele>83</ele>
        <time>2015-01-18T10:13:00Z</time>
      </trkpt>
      <trkpt lat="48.75224" lon="-3.4123">
        <ele>83</ele>
        <time>2015-01-18T10:13:01Z</time>
      </trkpt>
      <trkpt lat="48.75219" lon="-3.41241">
        <ele>83</ele>
        <time>2015-01-18T10:13:02Z</time>
      </trkpt>
      <trkpt lat="48.75215" lon="-3.41252">
        <ele>83</ele>
        <time>2015-01-18T10:13:03Z</time>
      </trkpt>
      <trkpt lat="48.75211" lon="-3.41263">
        <ele>83</ele>
        <time>2015-01-18T10:13:04Z</time>
      </trkpt>
      <trkpt lat="48.75209" lon="-3.41273">
        <ele>83</ele>
        <time>2015-01-18T10:13:05Z</time>
      </trkpt>
      <trkpt lat="48.75206" lon="-3.41284">
        <ele>83</ele>
        <time>2015-01-18T10:13:06Z</time>
      </trkpt>
      <trkpt lat="48.75204" lon="-3.41295">
        <ele>83</ele>
        <time>2015-01-18T10:13:07Z</time>
      </trkpt>
      <trkpt lat="48.75202" lon="-3.41306">
        <ele>83</ele>
        <time>2015-01-18T10:13:08Z</time>
      </trkpt>
      <trkpt lat="48.752" lon="-3.41317">
        <ele>83</ele>
        <time>2015-01-18T10:13:09Z</time>
      </trkpt>
      <trkpt lat="48.75198" lon="-3.41328">
        <ele>83</ele>
        <time>2015-01-18T10:13:10Z</time>
      </trkpt>
      <trkpt lat="48.75197" lon="-3.41339">
        <ele>83</ele>
        <time>2015-01-18T10:13:11Z</time>
      </trkpt>
      <trkpt lat="48.75195" lon="-3.4135">
        <ele>83</ele>
        <time>2015-01-18T10:13:12Z</time>
      </trkpt>
      <trkpt lat="48.75193" lon="-3.4136">
        <ele>83</ele>
        <time>2015-01-18T10:13:13Z</time>
      </trkpt>
      <trkpt lat="48.75192" lon="-3.4137">
        <ele>83</ele>
        <time>2015-01-18T10:13:14Z</time>
      </trkpt>
      <trkpt lat="48.7519" lon="-3.41381">
        <ele>83</ele>
        <time>2015-01-18T10:13:15Z</time>
      </trkpt>
      <trkpt lat="48.75188" lon="-3.41391">
        <ele>83</ele>
        <time>2015-01-18T10:13:16Z</time>
      </trkpt>
      <trkpt lat="48.75187" lon="-3.41401">
        <ele>84</ele>
        <time>2015-01-18T10:13:17Z</time>
      </trkpt>
      <trkpt lat="48.75185" lon="-3.41411">
        <ele>84</ele>
        <time>2015-01-18T10:13:18Z</time>
      </trkpt>
      <trkpt lat="48.75183" lon="-3.41422">
        <ele>84</ele>
        <time>2015-01-18T10:13:19Z</time>
      </trkpt>
      <trkpt lat="48.75181" lon="-3.41432">
        <ele>85</ele>
        <time>2015-01-18T10:13:20Z</time>
      </trkpt>
      <trkpt lat="48.7518" lon="-3.41443">
        <ele>85</ele>
        <time>2015-01-18T10:13:21Z</time>
      </trkpt>
      <trkpt lat="48.75178" lon="-3.41454">
        <ele>85</ele>
        <time>2015-01-18T10:13:22Z</time>
      </trkpt>
      <trkpt lat="48.75176" lon="-3.41465">
        <ele>86</ele>
        <time>2015-01-18T10:13:23Z</time>
      </trkpt>
      <trkpt lat="48.75174" lon="-3.41476">
        <ele>86</ele>
        <time>2015-01-18T10:13:24Z</time>
      </trkpt>
      <trkpt lat="48.75173" lon="-3.41487">
        <ele>86</ele>
        <time>2015-01-18T10:13:25Z</time>
      </trkpt>
      <trkpt lat="48.75171" lon="-3.41499">
        <ele>87</ele>
        <time>2015-01-18T10:13:26Z</time>
      </trkpt>
      <trkpt lat="48.7517" lon="-3.41511">
        <ele>87</ele>
        <time>2015-01-18T10:13:27Z</time>
      </trkpt>
      <trkpt lat="48.75169" lon="-3.41522">
        <ele>87</ele>
        <time>2015-01-18T10:13:28Z</time>
      </trkpt>
      <trkpt lat="48.75167" lon="-3.41533">
        <ele>88</ele>
        <time>2015-01-18T10:13:29Z</time>
      </trkpt>
      <trkpt lat="48.75166" lon="-3.41545">
        <ele>88</ele>
        <time>2015-01-18T10:13:30Z</time>
      </trkpt>
      <trkpt lat="48.75165" lon="-3.41556">
        <ele>88</ele>
        <time>2015-01-18T10:13:31Z</time>
      </trkpt>
      <trkpt lat="48.75164" lon="-3.41567">
        <ele>89</ele>
        <time>2015-01-18T10:13:32Z</time>
      </trkpt>
      <trkpt lat="48.75163" lon="-3.41578">
        <ele>89</ele>
        <time>2015-01-18T10:13:33Z</time>
      </trkpt>
      <trkpt lat="48.75162" lon="-3.41589">
        <ele>89</ele>
        <time>2015-01-18T10:13:34Z</time>
      </trkpt>
      <trkpt lat="48.75161" lon="-3.416">
        <ele>90</ele>
        <time>2015-01-18T10:13:35Z</time>
      </trkpt>
      <trkpt lat="48.7516" lon="-3.4161">
        <ele>90</ele>
        <time>2015-01-18T10:13:36Z</time>
      </trkpt>
      <trkpt lat="48.75159" lon="-3.41621">
        <ele>90</ele>
        <time>2015-01-18T10:13:37Z</time>
      </trkpt>
      <trkpt lat="48.75158" lon="-3.41631">
        <ele>90</ele>
        <time>2015-01-18T10:13:38Z</time>
      </trkpt>
      <trkpt lat="48.75157" lon="-3.41642">
        <ele>91</ele>
        <time>2015-01-18T10:13:39Z</time>
      </trkpt>
      <trkpt lat="48.75156" lon="-3.41652">
        <ele>91</ele>
        <time>2015-01-18T10:13:40Z</time>
      </trkpt>
      <trkpt lat="48.75155" lon="-3.41663">
        <ele>91</ele>
        <time>2015-01-18T10:13:41Z</time>
      </trkpt>
      <trkpt lat="48.75154" lon="-3.41674">
        <ele>91</ele>
        <time>2015-01-18T10:13:42Z</time>
      </trkpt>
      <trkpt lat="48.75152" lon="-3.41685">
        <ele>91</ele>
        <time>2015-01-18T10:13:43Z</time>
      </trkpt>
      <trkpt lat="48.75151" lon="-3.41697">
        <ele>91</ele>
        <time>2015-01-18T10:13:44Z</time>
      </trkpt>
      <trkpt lat="48.75149" lon="-3.41708">
        <ele>91</ele>
        <time>2015-01-18T10:13:45Z</time>
      </trkpt>
      <trkpt lat="48.75148" lon="-3.41719">
        <ele>91</ele>
        <time>2015-01-18T10:13:46Z</time>
      </trkpt>
      <trkpt lat="48.75146" lon="-3.4173">
        <ele>91</ele>
        <time>2015-01-18T10:13:47Z</time>
      </trkpt>
      <trkpt lat="48.75143" lon="-3.41741">
        <ele>91</ele>
        <time>2015-01-18T10:13:48Z</time>
      </trkpt>
      <trkpt lat="48.75141" lon="-3.41752">
        <ele>91</ele>
        <time>2015-01-18T10:13:49Z</time>
      </trkpt>
      <trkpt lat="48.75138" lon="-3.41762">
        <ele>91</ele>
        <time>2015-01-18T10:13:50Z</time>
      </trkpt>
      <trkpt lat="48.75135" lon="-3.41773">
        <ele>91</ele>
        <time>2015-01-18T10:13:51Z</time>
      </trkpt>
      <trkpt lat="48.75131" lon="-3.41783">
        <ele>91</ele>
        <time>2015-01-18T10:13:52Z</time>
      </trkpt>
      <trkpt lat="48.75127" lon="-3.41793">
        <ele>91</ele>
        <time>2015-01-18T10:13:53Z</time>
      </trkpt>
      <trkpt lat="48.75123" lon="-3.41804">
        <ele>91</ele>
        <time>2015-01-18T10:13:54Z</time>
      </trkpt>
      <trkpt lat="48.75118" lon="-3.41814">
        <ele>91</ele>
        <time>2015-01-18T10:13:55Z</time>
      </trkpt>
      <trkpt lat="48.75113" lon="-3.41825">
        <ele>91</ele>
        <time>2015-01-18T10:13:56Z</time>
      </trkpt>
      <trkpt lat="48.75108" lon="-3.41836">
        <ele>91</ele>
        <time>2015-01-18T10:13:57Z</time>
      </trkpt>
      <trkpt lat="48.75103" lon="-3.41848">
        <ele>91</ele>
        <time>2015-01-18T10:13:58Z</time>
      </trkpt>
      <trkpt lat="48.75099" lon="-3.4186">
        <ele>91</ele>
        <time>2015-01-18T10:13:59Z</time>
      </trkpt>
      <trkpt lat="48.75095" lon="-3.41873">
        <ele>91</ele>
        <time>2015-01-18T10:14:00Z</time>
      </trkpt>
      <trkpt lat="48.75091" lon="-3.41886">
        <ele>91</ele>
        <time>2015-01-18T10:14:01Z</time>
      </trkpt>
      <trkpt lat="48.75087" lon="-3.41899">
        <ele>91</ele>
        <time>2015-01-18T10:14:02Z</time>
      </trkpt>
      <trkpt lat="48.75083" lon="-3.41912">
        <ele>91</ele>
        <time>2015-01-18T10:14:03Z</time>
      </trkpt>
      <trkpt lat="48.75078" lon="-3.41925">
        <ele>91</ele>
        <time>2015-01-18T10:14:04Z</time>
      </trkpt>
      <trkpt lat="48.75074" lon="-3.41937">
        <ele>91</ele>
        <time>2015-01-18T10:14:05Z</time>
      </trkpt>
      <trkpt lat="48.75068" lon="-3.41949">
        <ele>91</ele>
        <time>2015-01-18T10:14:06Z</time>
      </trkpt>
      <trkpt lat="48.75063" lon="-3.41961">
        <ele>91</ele>
        <time>2015-01-18T10:14:07Z</time>
      </trkpt>
      <trkpt lat="48.75058" lon="-3.41972">
        <ele>91</ele>
        <time>2015-01-18T10:14:08Z</time>
      </trkpt>
      <trkpt lat="48.75053" lon="-3.41983">
        <ele>91</ele>
        <time>2015-01-18T10:14:09Z</time>
      </trkpt>
      <trkpt lat="48.75048" lon="-3.41994">
        <ele>91</ele>
        <time>2015-01-18T10:14:10Z</time>
      </trkpt>
      <trkpt lat="48.75042" lon="-3.42003">
        <ele>91</ele>
        <time>2015-01-18T10:14:11Z</time>
      </trkpt>
      <trkpt lat="48.75037" lon="-3.42013">
        <ele>91</ele>
        <time>2015-01-18T10:14:12Z</time>
      </trkpt>
      <trkpt lat="48.75031" lon="-3.42022">
        <ele>91</ele>
        <time>2015-01-18T10:14:13Z</time>
      </trkpt>
      <trkpt lat="48.75024" lon="-3.4203">
        <ele>91</ele>
        <time>2015-01-18T10:14:14Z</time>
      </trkpt>
      <trkpt lat="48.75017" lon="-3.42037">
        <ele>91</ele>
        <time>2015-01-18T10:14:15Z</time>
      </trkpt>
      <trkpt lat="48.7501" lon="-3.42044">
        <ele>91</ele>
        <time>2015-01-18T10:14:16Z</time>
      </trkpt>
      <trkpt lat="48.75002" lon="-3.4205">
        <ele>91</ele>
        <time>2015-01-18T10:14:17Z</time>
      </trkpt>
      <trkpt lat="48.74994" lon="-3.42056">
        <ele>91</ele>
        <time>2015-01-18T10:14:18Z</time>
      </trkpt>
      <trkpt lat="48.74986" lon="-3.42063">
        <ele>91</ele>
        <time>2015-01-18T10:14:19Z</time>
      </trkpt>
      <trkpt lat="48.74978" lon="-3.4207">
        <ele>91</ele>
        <time>2015-01-18T10:14:20Z</time>
      </trkpt>
      <trkpt lat="48.74971" lon="-3.42077">
        <ele>91</ele>
        <time>2015-01-18T10:14:21Z</time>
      </trkpt>
      <trkpt lat="48.74963" lon="-3.42085">
        <ele>91</ele>
        <time>2015-01-18T10:14:22Z</time>
      </trkpt>
      <trkpt lat="48.74956" lon="-3.42094">
        <ele>91</ele>
        <time>2015-01-18T10:14:23Z</time>
      </trkpt>
      <trkpt lat="48.74948" lon="-3.42102">
        <ele>91</ele>
        <time>2015-01-18T10:14:24Z</time>
      </trkpt>
      <trkpt lat="48.74941" lon="-3.4211">
        <ele>91</ele>
        <time>2015-01-18T10:14:25Z</time>
      </trkpt>
      <trkpt lat="48.74933" lon="-3.42117">
        <ele>91</ele>
        <time>2015-01-18T10:14:26Z</time>
      </trkpt>
      <trkpt lat="48.74924" lon="-3.42123">
        <ele>91</ele>
        <time>2015-01-18T10:14:27Z</time>
      </trkpt>
      <trkpt lat="48.74915" lon="-3.42128">
        <ele>91</ele>
        <time>2015-01-18T10:14:28Z</time>
      </trkpt>
      <trkpt lat="48.74907" lon="-3.42133">
        <ele>91</ele>
        <time>2015-01-18T10:14:29Z</time>
      </trkpt>
      <trkpt lat="48.74897" lon="-3.42137">
        <ele>90</ele>
        <time>2015-01-18T10:14:30Z</time>
      </trkpt>
      <trkpt lat="48.74889" lon="-3.42142">
        <ele>90</ele>
        <time>2015-01-18T10:14:31Z</time>
      </trkpt>
      <trkpt lat="48.7488" lon="-3.42147">
        <ele>90</ele>
        <time>2015-01-18T10:14:32Z</time>
      </trkpt>
      <trkpt lat="48.74871" lon="-3.42154">
        <ele>90</ele>
        <time>2015-01-18T10:14:33Z</time>
      </trkpt>
      <trkpt lat="48.74863" lon="-3.42161">
        <ele>90</ele>
        <time>2015-01-18T10:14:34Z</time>
      </trkpt>
      <trkpt lat="48.74855" lon="-3.42169">
        <ele>90</ele>
        <time>2015-01-18T10:14:35Z</time>
      </trkpt>
      <trkpt lat="48.74847" lon="-3.42177">
        <ele>89</ele>
        <time>2015-01-18T10:14:36Z</time>
      </trkpt>
      <trkpt lat="48.7484" lon="-3.42186">
        <ele>89</ele>
        <time>2015-01-18T10:14:37Z</time>
      </trkpt>
      <trkpt lat="48.74832" lon="-3.42195">
        <ele>89</ele>
        <time>2015-01-18T10:14:38Z</time>
      </trkpt>
      <trkpt lat="48.74825" lon="-3.42204">
        <ele>89</ele>
        <time>2015-01-18T10:14:39Z</time>
      </trkpt>
      <trkpt lat="48.74817" lon="-3.42213">
        <ele>89</ele>
        <time>2015-01-18T10:14:40Z</time>
      </trkpt>
      <trkpt lat="48.74809" lon="-3.42222">
        <ele>89</ele>
        <time>2015-01-18T10:14:41Z</time>
      </trkpt>
      <trkpt lat="48.74802" lon="-3.4223">
        <ele>89</ele>
        <time>2015-01-18T10:14:42Z</time>
      </trkpt>
      <trkpt lat="48.74794" lon="-3.42238">
        <ele>88</ele>
        <time>2015-01-18T10:14:43Z</time>
      </trkpt>
      <trkpt lat="48.74785" lon="-3.42246">
        <ele>88</ele>
        <time>2015-01-18T10:14:44Z</time>
      </trkpt>
      <trkpt lat="48.74777" lon="-3.42253">
        <ele>88</ele>
        <time>2015-01-18T10:14:45Z</time>
      </trkpt>
      <trkpt lat="48.74768" lon="-3.4226">
        <ele>88</ele>
        <time>2015-01-18T10:14:46Z</time>
      </trkpt>
      <trkpt lat="48.74759" lon="-3.42266">
        <ele>88</ele>
        <time>2015-01-18T10:14:47Z</time>
      </trkpt>
      <trkpt lat="48.7475" lon="-3.42271">
        <ele>87</ele>
        <time>2015-01-18T10:14:48Z</time>
      </trkpt>
      <trkpt lat="48.74741" lon="-3.42276">
        <ele>87</ele>
        <time>2015-01-18T10:14:49Z</time>
      </trkpt>
      <trkpt lat="48.74731" lon="-3.42281">
        <ele>87</ele>
        <time>2015-01-18T10:14:50Z</time>
      </trkpt>
      <trkpt lat="48.74722" lon="-3.42286">
        <ele>87</ele>
        <time>2015-01-18T10:14:51Z</time>
      </trkpt>
      <trkpt lat="48.74712" lon="-3.42291">
        <ele>86</ele>
        <time>2015-01-18T10:14:52Z</time>
      </trkpt>
      <trkpt lat="48.74703" lon="-3.42296">
        <ele>86</ele>
        <time>2015-01-18T10:14:53Z</time>
      </trkpt>
      <trkpt lat="48.74694" lon="-3.42302">
        <ele>85</ele>
        <time>2015-01-18T10:14:54Z</time>
      </trkpt>
      <trkpt lat="48.74684" lon="-3.42307">
        <ele>85</ele>
        <time>2015-01-18T10:14:55Z</time>
      </trkpt>
      <trkpt lat="48.74675" lon="-3.42313">
        <ele>85</ele>
        <time>2015-01-18T10:14:56Z</time>
      </trkpt>
      <trkpt lat="48.74665" lon="-3.4232">
        <ele>84</ele>
        <time>2015-01-18T10:14:57Z</time>
      </trkpt>
      <trkpt lat="48.74657" lon="-3.42328">
        <ele>84</ele>
        <time>2015-01-18T10:14:58Z</time>
      </trkpt>
      <trkpt lat="48.74648" lon="-3.42337">
        <ele>83</ele>
        <time>2015-01-18T10:14:59Z</time>
      </trkpt>
      <trkpt lat="48.74639" lon="-3.42346">
        <ele>83</ele>
        <time>2015-01-18T10:15:00Z</time>
      </trkpt>
      <trkpt lat="48.74631" lon="-3.42355">
        <ele>82</ele>
        <time>2015-01-18T10:15:01Z</time>
      </trkpt>
      <trkpt lat="48.74623" lon="-3.42365">
        <ele>82</ele>
        <time>2015-01-18T10:15:02Z</time>
      </trkpt>
      <trkpt lat="48.74614" lon="-3.42374">
        <ele>81</ele>
        <time>2015-01-18T10:15:03Z</time>
      </trkpt>
      <trkpt lat="48.74605" lon="-3.42384">
        <ele>81</ele>
        <time>2015-01-18T10:15:04Z</time>
      </trkpt>
      <trkpt lat="48.74596" lon="-3.42393">
        <ele>81</ele>
        <time>2015-01-18T10:15:05Z</time>
      </trkpt>
      <trkpt lat="48.74588" lon="-3.42404">
        <ele>80</ele>
        <time>2015-01-18T10:15:06Z</time>
      </trkpt>
      <trkpt lat="48.74578" lon="-3.42414">
        <ele>80</ele>
        <time>2015-01-18T10:15:07Z</time>
      </trkpt>
      <trkpt lat="48.74569" lon="-3.42424">
        <ele>79</ele>
        <time>2015-01-18T10:15:08Z</time>
      </trkpt>
      <trkpt lat="48.7456" lon="-3.42434">
        <ele>78</ele>
        <time>2015-01-18T10:15:09Z</time>
      </trkpt>
      <trkpt lat="48.74551" lon="-3.42443">
        <ele>78</ele>
        <time>2015-01-18T10:15:10Z</time>
      </trkpt>
      <trkpt lat="48.74542" lon="-3.42453">
        <ele>77</ele>
        <time>2015-01-18T10:15:11Z</time>
      </trkpt>
      <trkpt lat="48.74533" lon="-3.42462">
        <ele>77</ele>
        <time>2015-01-18T10:15:12Z</time>
      </trkpt>
      <trkpt lat="48.74524" lon="-3.42472">
        <ele>77</ele>
        <time>2015-01-18T10:15:13Z</time>
      </trkpt>
      <trkpt lat="48.74515" lon="-3.42481">
        <ele>76</ele>
        <time>2015-01-18T10:15:14Z</time>
      </trkpt>
      <trkpt lat="48.74506" lon="-3.42491">
        <ele>76</ele>
        <time>2015-01-18T10:15:15Z</time>
      </trkpt>
      <trkpt lat="48.74497" lon="-3.42501">
        <ele>76</ele>
        <time>2015-01-18T10:15:16Z</time>
      </trkpt>
      <trkpt lat="48.74488" lon="-3.42512">
        <ele>75</ele>
        <time>2015-01-18T10:15:17Z</time>
      </trkpt>
      <trkpt lat="48.7448" lon="-3.42522">
        <ele>75</ele>
        <time>2015-01-18T10:15:18Z</time>
      </trkpt>
      <trkpt lat="48.74471" lon="-3.42532">
        <ele>74</ele>
        <time>2015-01-18T10:15:19Z</time>
      </trkpt>
      <trkpt lat="48.74462" lon="-3.42542">
        <ele>74</ele>
        <time>2015-01-18T10:15:20Z</time>
      </trkpt>
      <trkpt lat="48.74453" lon="-3.42551">
        <ele>73</ele>
        <time>2015-01-18T10:15:21Z</time>
      </trkpt>
      <trkpt lat="48.74445" lon="-3.42561">
        <ele>73</ele>
        <time>2015-01-18T10:15:22Z</time>
      </trkpt>
      <trkpt lat="48.74436" lon="-3.4257">
        <ele>73</ele>
        <time>2015-01-18T10:15:23Z</time>
      </trkpt>
      <trkpt lat="48.74427" lon="-3.42581">
        <ele>72</ele>
        <time>2015-01-18T10:15:24Z</time>
      </trkpt>
      <trkpt lat="48.74419" lon="-3.42592">
        <ele>72</ele>
        <time>2015-01-18T10:15:25Z</time>
      </trkpt>
      <trkpt lat="48.74412" lon="-3.42603">
        <ele>72</ele>
        <time>2015-01-18T10:15:26Z</time>
      </trkpt>
      <trkpt lat="48.74405" lon="-3.42616">
        <ele>71</ele>
        <time>2015-01-18T10:15:27Z</time>
      </trkpt>
      <trkpt lat="48.74399" lon="-3.42628">
        <ele>71</ele>
        <time>2015-01-18T10:15:28Z</time>
      </trkpt>
      <trkpt lat="48.74392" lon="-3.4264">
        <ele>71</ele>
        <time>2015-01-18T10:15:29Z</time>
      </trkpt>
      <trkpt lat="48.74385" lon="-3.42652">
        <ele>70</ele>
        <time>2015-01-18T10:15:30Z</time>
      </trkpt>
      <trkpt lat="48.74376" lon="-3.42662">
        <ele>70</ele>
        <time>2015-01-18T10:15:31Z</time>
      </trkpt>
      <trkpt lat="48.74367" lon="-3.4267">
        <ele>69</ele>
        <time>2015-01-18T10:15:32Z</time>
      </trkpt>
      <trkpt lat="48.74357" lon="-3.42678">
        <ele>69</ele>
        <time>2015-01-18T10:15:33Z</time>
      </trkpt>
      <trkpt lat="48.74347" lon="-3.42684">
        <ele>68</ele>
        <time>2015-01-18T10:15:34Z</time>
      </trkpt>
      <trkpt lat="48.74337" lon="-3.4269">
        <ele>67</ele>
        <time>2015-01-18T10:15:35Z</time>
      </trkpt>
      <trkpt lat="48.74326" lon="-3.42697">
        <ele>66</ele>
        <time>2015-01-18T10:15:36Z</time>
      </trkpt>
      <trkpt lat="48.74316" lon="-3.42704">
        <ele>66</ele>
        <time>2015-01-18T10:15:37Z</time>
      </trkpt>
      <trkpt lat="48.74306" lon="-3.42712">
        <ele>65</ele>
        <time>2015-01-18T10:15:38Z</time>
      </trkpt>
      <trkpt lat="48.74296" lon="-3.4272">
        <ele>64</ele>
        <time>2015-01-18T10:15:39Z</time>
      </trkpt>
      <trkpt lat="48.74287" lon="-3.42729">
        <ele>64</ele>
        <time>2015-01-18T10:15:40Z</time>
      </trkpt>
      <trkpt lat="48.74278" lon="-3.42739">
        <ele>63</ele>
        <time>2015-01-18T10:15:41Z</time>
      </trkpt>
      <trkpt lat="48.74269" lon="-3.42749">
        <ele>62</ele>
        <time>2015-01-18T10:15:42Z</time>
      </trkpt>
      <trkpt lat="48.7426" lon="-3.42759">
        <ele>62</ele>
        <time>2015-01-18T10:15:43Z</time>
      </trkpt>
      <trkpt lat="48.74251" lon="-3.4277">
        <ele>61</ele>
        <time>2015-01-18T10:15:44Z</time>
      </trkpt>
      <trkpt lat="48.74242" lon="-3.42781">
        <ele>60</ele>
        <time>2015-01-18T10:15:45Z</time>
      </trkpt>
      <trkpt lat="48.74234" lon="-3.42792">
        <ele>60</ele>
        <time>2015-01-18T10:15:46Z</time>
      </trkpt>
      <trkpt lat="48.74224" lon="-3.42802">
        <ele>59</ele>
        <time>2015-01-18T10:15:47Z</time>
      </trkpt>
      <trkpt lat="48.74215" lon="-3.42811">
        <ele>58</ele>
        <time>2015-01-18T10:15:48Z</time>
      </trkpt>
      <trkpt lat="48.74204" lon="-3.4282">
        <ele>57</ele>
        <time>2015-01-18T10:15:49Z</time>
      </trkpt>
      <trkpt lat="48.74194" lon="-3.42827">
        <ele>57</ele>
        <time>2015-01-18T10:15:50Z</time>
      </trkpt>
      <trkpt lat="48.74183" lon="-3.42834">
        <ele>56</ele>
        <time>2015-01-18T10:15:51Z</time>
      </trkpt>
      <trkpt lat="48.74173" lon="-3.42842">
        <ele>55</ele>
        <time>2015-01-18T10:15:52Z</time>
      </trkpt>
      <trkpt lat="48.74162" lon="-3.42849">
        <ele>55</ele>
        <time>2015-01-18T10:15:53Z</time>
      </trkpt>
      <trkpt lat="48.74152" lon="-3.42856">
        <ele>54</ele>
        <time>2015-01-18T10:15:54Z</time>
      </trkpt>
      <trkpt lat="48.74141" lon="-3.42863">
        <ele>53</ele>
        <time>2015-01-18T10:15:55Z</time>
      </trkpt>
      <trkpt lat="48.74131" lon="-3.4287">
        <ele>53</ele>
        <time>2015-01-18T10:15:56Z</time>
      </trkpt>
      <trkpt lat="48.7412" lon="-3.42876">
        <ele>52</ele>
        <time>2015-01-18T10:15:57Z</time>
      </trkpt>
      <trkpt lat="48.7411" lon="-3.42881">
        <ele>52</ele>
        <time>2015-01-18T10:15:58Z</time>
      </trkpt>
      <trkpt lat="48.741" lon="-3.42887">
        <ele>51</ele>
        <time>2015-01-18T10:15:59Z</time>
      </trkpt>
      <trkpt lat="48.7409" lon="-3.42893">
        <ele>51</ele>
        <time>2015-01-18T10:16:00Z</time>
      </trkpt>
      <trkpt lat="48.7408" lon="-3.42898">
        <ele>51</ele>
        <time>2015-01-18T10:16:01Z</time>
      </trkpt>
      <trkpt lat="48.74071" lon="-3.42904">
        <ele>50</ele>
        <time>2015-01-18T10:16:02Z</time>
      </trkpt>
      <trkpt lat="48.74061" lon="-3.42909">
        <ele>50</ele>
        <time>2015-01-18T10:16:03Z</time>
      </trkpt>
      <trkpt lat="48.74052" lon="-3.42915">
        <ele>50</ele>
        <time>2015-01-18T10:16:04Z</time>
      </trkpt>
      <trkpt lat="48.74043" lon="-3.4292">
        <ele>50</ele>
        <time>2015-01-18T10:16:05Z</time>
      </trkpt>
      <trkpt lat="48.74034" lon="-3.42926">
        <ele>49</ele>
        <time>2015-01-18T10:16:06Z</time>
      </trkpt>
      <trkpt lat="48.74026" lon="-3.4293">
        <ele>49</ele>
        <time>2015-01-18T10:16:07Z</time>
      </trkpt>
      <trkpt lat="48.74018" lon="-3.42935">
        <ele>48</ele>
        <time>2015-01-18T10:16:08Z</time>
      </trkpt>
      <trkpt lat="48.7401" lon="-3.42938">
        <ele>48</ele>
        <time>2015-01-18T10:16:09Z</time>
      </trkpt>
      <trkpt lat="48.74002" lon="-3.42939">
        <ele>47</ele>
        <time>2015-01-18T10:16:10Z</time>
      </trkpt>
      <trkpt lat="48.73995" lon="-3.42939">
        <ele>47</ele>
        <time>2015-01-18T10:16:11Z</time>
      </trkpt>
      <trkpt lat="48.73988" lon="-3.42937">
        <ele>46</ele>
        <time>2015-01-18T10:16:12Z</time>
      </trkpt>
      <trkpt lat="48.73983" lon="-3.42935">
        <ele>45</ele>
        <time>2015-01-18T10:16:13Z</time>
      </trkpt>
      <trkpt lat="48.73977" lon="-3.42932">
        <ele>45</ele>
        <time>2015-01-18T10:16:14Z</time>
      </trkpt>
      <trkpt lat="48.73972" lon="-3.4293">
        <ele>44</ele>
        <time>2015-01-18T10:16:15Z</time>
      </trkpt>
      <trkpt lat="48.73968" lon="-3.42929">
        <ele>44</ele>
        <time>2015-01-18T10:16:16Z</time>
      </trkpt>
      <trkpt lat="48.73964" lon="-3.4293">
        <ele>43</ele>
        <time>2015-01-18T10:16:17Z</time>
      </trkpt>
      <trkpt lat="48.7396" lon="-3.42932">
        <ele>43</ele>
        <time>2015-01-18T10:16:18Z</time>
      </trkpt>
      <trkpt lat="48.73956" lon="-3.42936">
        <ele>43</ele>
        <time>2015-01-18T10:16:19Z</time>
      </trkpt>
      <trkpt lat="48.73953" lon="-3.42942">
        <ele>42</ele>
        <time>2015-01-18T10:16:20Z</time>
      </trkpt>
      <trkpt lat="48.73949" lon="-3.42948">
        <ele>42</ele>
        <time>2015-01-18T10:16:21Z</time>
      </trkpt>
      <trkpt lat="48.73946" lon="-3.42955">
        <ele>42</ele>
        <time>2015-01-18T10:16:22Z</time>
      </trkpt>
      <trkpt lat="48.73941" lon="-3.42962">
        <ele>41</ele>
        <time>2015-01-18T10:16:23Z</time>
      </trkpt>
      <trkpt lat="48.73937" lon="-3.4297">
        <ele>41</ele>
        <time>2015-01-18T10:16:24Z</time>
      </trkpt>
      <trkpt lat="48.73933" lon="-3.42978">
        <ele>40</ele>
        <time>2015-01-18T10:16:25Z</time>
      </trkpt>
      <trkpt lat="48.73928" lon="-3.42987">
        <ele>40</ele>
        <time>2015-01-18T10:16:26Z</time>
      </trkpt>
      <trkpt lat="48.73923" lon="-3.42996">
        <ele>39</ele>
        <time>2015-01-18T10:16:27Z</time>
      </trkpt>
      <trkpt lat="48.73918" lon="-3.43006">
        <ele>38</ele>
        <time>2015-01-18T10:16:28Z</time>
      </trkpt>
      <trkpt lat="48.73913" lon="-3.43016">
        <ele>38</ele>
        <time>2015-01-18T10:16:29Z</time>
      </trkpt>
      <trkpt lat="48.73907" lon="-3.43026">
        <ele>37</ele>
        <time>2015-01-18T10:16:30Z</time>
      </trkpt>
      <trkpt lat="48.73901" lon="-3.43037">
        <ele>36</ele>
        <time>2015-01-18T10:16:31Z</time>
      </trkpt>
      <trkpt lat="48.73895" lon="-3.43049">
        <ele>36</ele>
        <time>2015-01-18T10:16:32Z</time>
      </trkpt>
      <trkpt lat="48.73889" lon="-3.4306">
        <ele>35</ele>
        <time>2015-01-18T10:16:33Z</time>
      </trkpt>
      <trkpt lat="48.73883" lon="-3.43072">
        <ele>34</ele>
        <time>2015-01-18T10:16:34Z</time>
      </trkpt>
      <trkpt lat="48.73877" lon="-3.43084">
        <ele>34</ele>
        <time>2015-01-18T10:16:35Z</time>
      </trkpt>
      <trkpt lat="48.73871" lon="-3.43096">
        <ele>33</ele>
        <time>2015-01-18T10:16:36Z</time>
      </trkpt>
      <trkpt lat="48.73864" lon="-3.43109">
        <ele>32</ele>
        <time>2015-01-18T10:16:37Z</time>
      </trkpt>
      <trkpt lat="48.73858" lon="-3.43121">
        <ele>32</ele>
        <time>2015-01-18T10:16:38Z</time>
      </trkpt>
      <trkpt lat="48.73851" lon="-3.43133">
        <ele>32</ele>
        <time>2015-01-18T10:16:39Z</time>
      </trkpt>
      <trkpt lat="48.73845" lon="-3.43144">
        <ele>32</ele>
        <time>2015-01-18T10:16:40Z</time>
      </trkpt>
      <trkpt lat="48.73839" lon="-3.43156">
        <ele>32</ele>
        <time>2015-01-18T10:16:41Z</time>
      </trkpt>
      <trkpt lat="48.73833" lon="-3.43166">
        <ele>32</ele>
        <time>2015-01-18T10:16:42Z</time>
      </trkpt>
      <trkpt lat="48.73828" lon="-3.43177">
        <ele>32</ele>
        <time>2015-01-18T10:16:43Z</time>
      </trkpt>
      <trkpt lat="48.73822" lon="-3.43187">
        <ele>32</ele>
        <time>2015-01-18T10:16:44Z</time>
      </trkpt>
      <trkpt lat="48.73817" lon="-3.43197">
        <ele>32</ele>
        <time>2015-01-18T10:16:45Z</time>
      </trkpt>
      <trkpt lat="48.73811" lon="-3.43207">
        <ele>32</ele>
        <time>2015-01-18T10:16:46Z</time>
      </trkpt>
      <trkpt lat="48.73806" lon="-3.43216">
        <ele>32</ele>
        <time>2015-01-18T10:16:47Z</time>
      </trkpt>
      <trkpt lat="48.73801" lon="-3.43226">
        <ele>32</ele>
        <time>2015-01-18T10:16:48Z</time>
      </trkpt>
      <trkpt lat="48.73796" lon="-3.43235">
        <ele>32</ele>
        <time>2015-01-18T10:16:49Z</time>
      </trkpt>
      <trkpt lat="48.73791" lon="-3.43244">
        <ele>32</ele>
        <time>2015-01-18T10:16:50Z</time>
      </trkpt>
      <trkpt lat="48.73786" lon="-3.43252">
        <ele>32</ele>
        <time>2015-01-18T10:16:51Z</time>
      </trkpt>
      <trkpt lat="48.73782" lon="-3.4326">
        <ele>32</ele>
        <time>2015-01-18T10:16:52Z</time>
      </trkpt>
      <trkpt lat="48.73777" lon="-3.43268">
        <ele>32</ele>
        <time>2015-01-18T10:16:53Z</time>
      </trkpt>
      <trkpt lat="48.73773" lon="-3.43276">
        <ele>32</ele>
        <time>2015-01-18T10:16:54Z</time>
      </trkpt>
      <trkpt lat="48.73768" lon="-3.43284">
        <ele>32</ele>
        <time>2015-01-18T10:16:55Z</time>
      </trkpt>
      <trkpt lat="48.73764" lon="-3.43292">
        <ele>32</ele>
        <time>2015-01-18T10:16:56Z</time>
      </trkpt>
      <trkpt lat="48.7376" lon="-3.433">
        <ele>32</ele>
        <time>2015-01-18T10:16:57Z</time>
      </trkpt>
      <trkpt lat="48.73756" lon="-3.43308">
        <ele>32</ele>
        <time>2015-01-18T10:16:58Z</time>
      </trkpt>
      <trkpt lat="48.73751" lon="-3.43315">
        <ele>32</ele>
        <time>2015-01-18T10:16:59Z</time>
      </trkpt>
      <trkpt lat="48.73747" lon="-3.43323">
        <ele>32</ele>
        <time>2015-01-18T10:17:00Z</time>
      </trkpt>
      <trkpt lat="48.73743" lon="-3.43331">
        <ele>32</ele>
        <time>2015-01-18T10:17:01Z</time>
      </trkpt>
      <trkpt lat="48.73739" lon="-3.43338">
        <ele>32</ele>
        <time>2015-01-18T10:17:02Z</time>
      </trkpt>
      <trkpt lat="48.73734" lon="-3.43346">
        <ele>32</ele>
        <time>2015-01-18T10:17:03Z</time>
      </trkpt>
      <trkpt lat="48.7373" lon="-3.43354">
        <ele>32</ele>
        <time>2015-01-18T10:17:04Z</time>
      </trkpt>
      <trkpt lat="48.73725" lon="-3.43362">
        <ele>32</ele>
        <time>2015-01-18T10:17:05Z</time>
      </trkpt>
      <trkpt lat="48.7372" lon="-3.43371">
        <ele>32</ele>
        <time>2015-01-18T10:17:06Z</time>
      </trkpt>
      <trkpt lat="48.73716" lon="-3.4338">
        <ele>32</ele>
        <time>2015-01-18T10:17:07Z</time>
      </trkpt>
      <trkpt lat="48.73711" lon="-3.43389">
        <ele>32</ele>
        <time>2015-01-18T10:17:08Z</time>
      </trkpt>
      <trkpt lat="48.73706" lon="-3.43398">
        <ele>32</ele>
        <time>2015-01-18T10:17:09Z</time>
      </trkpt>
      <trkpt lat="48.73701" lon="-3.43406">
        <ele>33</ele>
        <time>2015-01-18T10:17:10Z</time>
      </trkpt>
      <trkpt lat="48.73696" lon="-3.43414">
        <ele>33</ele>
        <time>2015-01-18T10:17:11Z</time>
      </trkpt>
      <trkpt lat="48.73692" lon="-3.43423">
        <ele>33</ele>
        <time>2015-01-18T10:17:12Z</time>
      </trkpt>
      <trkpt lat="48.73687" lon="-3.43431">
        <ele>34</ele>
        <time>2015-01-18T10:17:13Z</time>
      </trkpt>
      <trkpt lat="48.73682" lon="-3.43439">
        <ele>34</ele>
        <time>2015-01-18T10:17:14Z</time>
      </trkpt>
      <trkpt lat="48.73678" lon="-3.43447">
        <ele>34</ele>
        <time>2015-01-18T10:17:15Z</time>
      </trkpt>
      <trkpt lat="48.73674" lon="-3.43455">
        <ele>35</ele>
        <time>2015-01-18T10:17:16Z</time>
      </trkpt>
      <trkpt lat="48.73669" lon="-3.43463">
        <ele>35</ele>
        <time>2015-01-18T10:17:17Z</time>
      </trkpt>
      <trkpt lat="48.73665" lon="-3.43471">
        <ele>36</ele>
        <time>2015-01-18T10:17:18Z</time>
      </trkpt>
      <trkpt lat="48.73661" lon="-3.43478">
        <ele>36</ele>
        <time>2015-01-18T10:17:19Z</time>
      </trkpt>
      <trkpt lat="48.73656" lon="-3.43486">
        <ele>36</ele>
        <time>2015-01-18T10:17:20Z</time>
      </trkpt>
      <trkpt lat="48.73652" lon="-3.43493">
        <ele>37</ele>
        <time>2015-01-18T10:17:21Z</time>
      </trkpt>
      <trkpt lat="48.73648" lon="-3.435">
        <ele>37</ele>
        <time>2015-01-18T10:17:22Z</time>
      </trkpt>
      <trkpt lat="48.73644" lon="-3.43507">
        <ele>38</ele>
        <time>2015-01-18T10:17:23Z</time>
      </trkpt>
      <trkpt lat="48.7364" lon="-3.43514">
        <ele>38</ele>
        <time>2015-01-18T10:17:24Z</time>
      </trkpt>
      <trkpt lat="48.73635" lon="-3.43522">
        <ele>38</ele>
        <time>2015-01-18T10:17:25Z</time>
      </trkpt>
      <trkpt lat="48.73632" lon="-3.43529">
        <ele>39</ele>
        <time>2015-01-18T10:17:26Z</time>
      </trkpt>
      <trkpt lat="48.73627" lon="-3.43535">
        <ele>39</ele>
        <time>2015-01-18T10:17:27Z</time>
      </trkpt>
      <trkpt lat="48.73623" lon="-3.43543">
        <ele>39</ele>
        <time>2015-01-18T10:17:28Z</time>
      </trkpt>
      <trkpt lat="48.73619" lon="-3.43549">
        <ele>40</ele>
        <time>2015-01-18T10:17:29Z</time>
      </trkpt>
      <trkpt lat="48.73615" lon="-3.43556">
        <ele>40</ele>
        <time>2015-01-18T10:17:30Z</time>
      </trkpt>
      <trkpt lat="48.73611" lon="-3.43563">
        <ele>40</ele>
        <time>2015-01-18T10:17:31Z</time>
      </trkpt>
      <trkpt lat="48.73607" lon="-3.43569">
        <ele>41</ele>
        <time>2015-01-18T10:17:32Z</time>
      </trkpt>
      <trkpt lat="48.73603" lon="-3.43576">
        <ele>41</ele>
        <time>2015-01-18T10:17:33Z</time>
      </trkpt>
      <trkpt lat="48.736" lon="-3.43583">
        <ele>42</ele>
        <time>2015-01-18T10:17:34Z</time>
      </trkpt>
      <trkpt lat="48.73596" lon="-3.43589">
        <ele>42</ele>
        <time>2015-01-18T10:17:35Z</time>
      </trkpt>
      <trkpt lat="48.73592" lon="-3.43595">
        <ele>42</ele>
        <time>2015-01-18T10:17:36Z</time>
      </trkpt>
      <trkpt lat="48.73589" lon="-3.43601">
        <ele>42</ele>
        <time>2015-01-18T10:17:37Z</time>
      </trkpt>
      <trkpt lat="48.73585" lon="-3.43606">
        <ele>43</ele>
        <time>2015-01-18T10:17:38Z</time>
      </trkpt>
      <trkpt lat="48.73582" lon="-3.43612">
        <ele>43</ele>
        <time>2015-01-18T10:17:39Z</time>
      </trkpt>
      <trkpt lat="48.73579" lon="-3.43617">
        <ele>43</ele>
        <time>2015-01-18T10:17:40Z</time>
      </trkpt>
      <trkpt lat="48.73575" lon="-3.43622">
        <ele>43</ele>
        <time>2015-01-18T10:17:41Z</time>
      </trkpt>
      <trkpt lat="48.73572" lon="-3.43628">
        <ele>44</ele>
        <time>2015-01-18T10:17:42Z</time>
      </trkpt>
      <trkpt lat="48.73569" lon="-3.43633">
        <ele>44</ele>
        <time>2015-01-18T10:17:43Z</time>
      </trkpt>
      <trkpt lat="48.73566" lon="-3.43638">
        <ele>44</ele>
        <time>2015-01-18T10:17:44Z</time>
      </trkpt>
      <trkpt lat="48.73562" lon="-3.43644">
        <ele>44</ele>
        <time>2015-01-18T10:17:45Z</time>
      </trkpt>
      <trkpt lat="48.73559" lon="-3.4365">
        <ele>44</ele>
        <time>2015-01-18T10:17:46Z</time>
      </trkpt>
      <trkpt lat="48.73556" lon="-3.43655">
        <ele>44</ele>
        <time>2015-01-18T10:17:47Z</time>
      </trkpt>
      <trkpt lat="48.73553" lon="-3.43661">
        <ele>44</ele>
        <time>2015-01-18T10:17:48Z</time>
      </trkpt>
      <trkpt lat="48.73551" lon="-3.43668">
        <ele>45</ele>
        <time>2015-01-18T10:17:49Z</time>
      </trkpt>
      <trkpt lat="48.7355" lon="-3.43675">
        <ele>45</ele>
        <time>2015-01-18T10:17:50Z</time>
      </trkpt>
      <trkpt lat="48.73549" lon="-3.43683">
        <ele>45</ele>
        <time>2015-01-18T10:17:51Z</time>
      </trkpt>
      <trkpt lat="48.73549" lon="-3.43691">
        <ele>45</ele>
        <time>2015-01-18T10:17:52Z</time>
      </trkpt>
      <trkpt lat="48.73548" lon="-3.437">
        <ele>45</ele>
        <time>2015-01-18T10:17:53Z</time>
      </trkpt>
      <trkpt lat="48.73546" lon="-3.43707">
        <ele>45</ele>
        <time>2015-01-18T10:17:54Z</time>
      </trkpt>
      <trkpt lat="48.73544" lon="-3.43715">
        <ele>45</ele>
        <time>2015-01-18T10:17:55Z</time>
      </trkpt>
      <trkpt lat="48.73541" lon="-3.43722">
        <ele>45</ele>
        <time>2015-01-18T10:17:56Z</time>
      </trkpt>
      <trkpt lat="48.73537" lon="-3.43727">
        <ele>45</ele>
        <time>2015-01-18T10:17:57Z</time>
      </trkpt>
      <trkpt lat="48.73532" lon="-3.43731">
        <ele>45</ele>
        <time>2015-01-18T10:17:58Z</time>
      </trkpt>
      <trkpt lat="48.73527" lon="-3.43733">
        <ele>45</ele>
        <time>2015-01-18T10:17:59Z</time>
      </trkpt>
      <trkpt lat="48.73522" lon="-3.43734">
        <ele>45</ele>
        <time>2015-01-18T10:18:00Z</time>
      </trkpt>
      <trkpt lat="48.73518" lon="-3.43734">
        <ele>45</ele>
        <time>2015-01-18T10:18:01Z</time>
      </trkpt>
      <trkpt lat="48.73513" lon="-3.43732">
        <ele>45</ele>
        <time>2015-01-18T10:18:02Z</time>
      </trkpt>
      <trkpt lat="48.73508" lon="-3.43729">
        <ele>45</ele>
        <time>2015-01-18T10:18:03Z</time>
      </trkpt>
      <trkpt lat="48.73505" lon="-3.43724">
        <ele>45</ele>
        <time>2015-01-18T10:18:04Z</time>
      </trkpt>
      <trkpt lat="48.73502" lon="-3.43719">
        <ele>45</ele>
        <time>2015-01-18T10:18:05Z</time>
      </trkpt>
      <trkpt lat="48.73499" lon="-3.43713">
        <ele>45</ele>
        <time>2015-01-18T10:18:06Z</time>
      </trkpt>
      <trkpt lat="48.73497" lon="-3.43706">
        <ele>45</ele>
        <time>2015-01-18T10:18:07Z</time>
      </trkpt>
      <trkpt lat="48.73496" lon="-3.43698">
        <ele>45</ele>
        <time>2015-01-18T10:18:08Z</time>
      </trkpt>
      <trkpt lat="48.73497" lon="-3.43684">
        <ele>45</ele>
        <time>2015-01-18T10:18:10Z</time>
      </trkpt>
      <trkpt lat="48.73498" lon="-3.43676">
        <ele>45</ele>
        <time>2015-01-18T10:18:11Z</time>
      </trkpt>
      <trkpt lat="48.735" lon="-3.43669">
        <ele>45</ele>
        <time>2015-01-18T10:18:12Z</time>
      </trkpt>
      <trkpt lat="48.73503" lon="-3.43662">
        <ele>45</ele>
        <time>2015-01-18T10:18:13Z</time>
      </trkpt>
      <trkpt lat="48.73505" lon="-3.43654">
        <ele>45</ele>
        <time>2015-01-18T10:18:14Z</time>
      </trkpt>
      <trkpt lat="48.73505" lon="-3.43647">
        <ele>45</ele>
        <time>2015-01-18T10:18:15Z</time>
      </trkpt>
      <trkpt lat="48.73503" lon="-3.43639">
        <ele>45</ele>
        <time>2015-01-18T10:18:16Z</time>
      </trkpt>
      <trkpt lat="48.735" lon="-3.43634">
        <ele>45</ele>
        <time>2015-01-18T10:18:17Z</time>
      </trkpt>
      <trkpt lat="48.73496" lon="-3.4363">
        <ele>45</ele>
        <time>2015-01-18T10:18:18Z</time>
      </trkpt>
      <trkpt lat="48.73491" lon="-3.43627">
        <ele>45</ele>
        <time>2015-01-18T10:18:19Z</time>
      </trkpt>
      <trkpt lat="48.73486" lon="-3.43626">
        <ele>45</ele>
        <time>2015-01-18T10:18:20Z</time>
      </trkpt>
      <trkpt lat="48.73481" lon="-3.43626">
        <ele>45</ele>
        <time>2015-01-18T10:18:21Z</time>
      </trkpt>
      <trkpt lat="48.73475" lon="-3.43624">
        <ele>45</ele>
        <time>2015-01-18T10:18:22Z</time>
      </trkpt>
      <trkpt lat="48.7347" lon="-3.43621">
        <ele>45</ele>
        <time>2015-01-18T10:18:23Z</time>
      </trkpt>
      <trkpt lat="48.73465" lon="-3.43618">
        <ele>46</ele>
        <time>2015-01-18T10:18:24Z</time>
      </trkpt>
      <trkpt lat="48.73461" lon="-3.43614">
        <ele>46</ele>
        <time>2015-01-18T10:18:25Z</time>
      </trkpt>
      <trkpt lat="48.73457" lon="-3.4361">
        <ele>46</ele>
        <time>2015-01-18T10:18:26Z</time>
      </trkpt>
      <trkpt lat="48.73453" lon="-3.43605">
        <ele>46</ele>
        <time>2015-01-18T10:18:27Z</time>
      </trkpt>
      <trkpt lat="48.73449" lon="-3.43601">
        <ele>46</ele>
        <time>2015-01-18T10:18:28Z</time>
      </trkpt>
      <trkpt lat="48.73446" lon="-3.43596">
        <ele>46</ele>
        <time>2015-01-18T10:18:29Z</time>
      </trkpt>
      <trkpt lat="48.73442" lon="-3.4359">
        <ele>46</ele>
        <time>2015-01-18T10:18:30Z</time>
      </trkpt>
      <trkpt lat="48.73439" lon="-3.43585">
        <ele>47</ele>
        <time>2015-01-18T10:18:31Z</time>
      </trkpt>
      <trkpt lat="48.73436" lon="-3.43579">
        <ele>47</ele>
        <time>2015-01-18T10:18:32Z</time>
      </trkpt>
      <trkpt lat="48.73433" lon="-3.43574">
        <ele>47</ele>
        <time>2015-01-18T10:18:33Z</time>
      </trkpt>
      <trkpt lat="48.7343" lon="-3.43568">
        <ele>47</ele>
        <time>2015-01-18T10:18:34Z</time>
      </trkpt>
      <trkpt lat="48.73428" lon="-3.43562">
        <ele>47</ele>
        <time>2015-01-18T10:18:35Z</time>
      </trkpt>
      <trkpt lat="48.73425" lon="-3.43556">
        <ele>47</ele>
        <time>2015-01-18T10:18:36Z</time>
      </trkpt>
      <trkpt lat="48.73423" lon="-3.43549">
        <ele>47</ele>
        <time>2015-01-18T10:18:37Z</time>
      </trkpt>
      <trkpt lat="48.73421" lon="-3.43543">
        <ele>48</ele>
        <time>2015-01-18T10:18:38Z</time>
      </trkpt>
      <trkpt lat="48.73419" lon="-3.43535">
        <ele>48</ele>
        <time>2015-01-18T10:18:39Z</time>
      </trkpt>
      <trkpt lat="48.73418" lon="-3.43528">
        <ele>48</ele>
        <time>2015-01-18T10:18:40Z</time>
      </trkpt>
      <trkpt lat="48.73417" lon="-3.4352">
        <ele>48</ele>
        <time>2015-01-18T10:18:41Z</time>
      </trkpt>
      <trkpt lat="48.73416" lon="-3.43513">
        <ele>48</ele>
        <time>2015-01-18T10:18:42Z</time>
      </trkpt>
      <trkpt lat="48.73415" lon="-3.43505">
        <ele>48</ele>
        <time>2015-01-18T10:18:43Z</time>
      </trkpt>
      <trkpt lat="48.73414" lon="-3.43496">
        <ele>48</ele>
        <time>2015-01-18T10:18:44Z</time>
      </trkpt>
      <trkpt lat="48.73413" lon="-3.43488">
        <ele>49</ele>
        <time>2015-01-18T10:18:45Z</time>
      </trkpt>
      <trkpt lat="48.73412" lon="-3.4348">
        <ele>49</ele>
        <time>2015-01-18T10:18:46Z</time>
      </trkpt>
      <trkpt lat="48.73411" lon="-3.43472">
        <ele>49</ele>
        <time>2015-01-18T10:18:47Z</time>
      </trkpt>
      <trkpt lat="48.7341" lon="-3.43464">
        <ele>49</ele>
        <time>2015-01-18T10:18:48Z</time>
      </trkpt>
      <trkpt lat="48.73409" lon="-3.43456">
        <ele>49</ele>
        <time>2015-01-18T10:18:49Z</time>
      </trkpt>
      <trkpt lat="48.73408" lon="-3.43448">
        <ele>49</ele>
        <time>2015-01-18T10:18:50Z</time>
      </trkpt>
      <trkpt lat="48.73407" lon="-3.4344">
        <ele>49</ele>
        <time>2015-01-18T10:18:51Z</time>
      </trkpt>
      <trkpt lat="48.73406" lon="-3.43432">
        <ele>49</ele>
        <time>2015-01-18T10:18:52Z</time>
      </trkpt>
      <trkpt lat="48.73406" lon="-3.43424">
        <ele>49</ele>
        <time>2015-01-18T10:18:53Z</time>
      </trkpt>
      <trkpt lat="48.73405" lon="-3.43417">
        <ele>50</ele>
        <time>2015-01-18T10:18:54Z</time>
      </trkpt>
      <trkpt lat="48.73405" lon="-3.43409">
        <ele>50</ele>
        <time>2015-01-18T10:18:55Z</time>
      </trkpt>
      <trkpt lat="48.73405" lon="-3.43401">
        <ele>50</ele>
        <time>2015-01-18T10:18:56Z</time>
      </trkpt>
      <trkpt lat="48.73404" lon="-3.43394">
        <ele>50</ele>
        <time>2015-01-18T10:18:57Z</time>
      </trkpt>
      <trkpt lat="48.73403" lon="-3.43386">
        <ele>50</ele>
        <time>2015-01-18T10:18:58Z</time>
      </trkpt>
      <trkpt lat="48.73402" lon="-3.43379">
        <ele>50</ele>
        <time>2015-01-18T10:18:59Z</time>
      </trkpt>
      <trkpt lat="48.73401" lon="-3.43371">
        <ele>50</ele>
        <time>2015-01-18T10:19:00Z</time>
      </trkpt>
      <trkpt lat="48.734" lon="-3.43363">
        <ele>51</ele>
        <time>2015-01-18T10:19:01Z</time>
      </trkpt>
      <trkpt lat="48.73399" lon="-3.43356">
        <ele>51</ele>
        <time>2015-01-18T10:19:02Z</time>
      </trkpt>
      <trkpt lat="48.73399" lon="-3.43348">
        <ele>51</ele>
        <time>2015-01-18T10:19:03Z</time>
      </trkpt>
      <trkpt lat="48.73397" lon="-3.43341">
        <ele>51</ele>
        <time>2015-01-18T10:19:04Z</time>
      </trkpt>
      <trkpt lat="48.73396" lon="-3.43334">
        <ele>51</ele>
        <time>2015-01-18T10:19:05Z</time>
      </trkpt>
      <trkpt lat="48.73394" lon="-3.43327">
        <ele>51</ele>
        <time>2015-01-18T10:19:06Z</time>
      </trkpt>
      <trkpt lat="48.73393" lon="-3.4332">
        <ele>51</ele>
        <time>2015-01-18T10:19:07Z</time>
      </trkpt>
      <trkpt lat="48.73391" lon="-3.43314">
        <ele>52</ele>
        <time>2015-01-18T10:19:08Z</time>
      </trkpt>
      <trkpt lat="48.73391" lon="-3.43308">
        <ele>52</ele>
        <time>2015-01-18T10:19:09Z</time>
      </trkpt>
      <trkpt lat="48.73391" lon="-3.43294">
        <ele>52</ele>
        <time>2015-01-18T10:19:11Z</time>
      </trkpt>
      <trkpt lat="48.7339" lon="-3.43281">
        <ele>53</ele>
        <time>2015-01-18T10:19:13Z</time>
      </trkpt>
      <trkpt lat="48.73389" lon="-3.43274">
        <ele>53</ele>
        <time>2015-01-18T10:19:14Z</time>
      </trkpt>
      <trkpt lat="48.73389" lon="-3.43267">
        <ele>53</ele>
        <time>2015-01-18T10:19:15Z</time>
      </trkpt>
      <trkpt lat="48.73388" lon="-3.4326">
        <ele>53</ele>
        <time>2015-01-18T10:19:16Z</time>
      </trkpt>
      <trkpt lat="48.73387" lon="-3.43253">
        <ele>53</ele>
        <time>2015-01-18T10:19:17Z</time>
      </trkpt>
      <trkpt lat="48.73387" lon="-3.43245">
        <ele>54</ele>
        <time>2015-01-18T10:19:18Z</time>
      </trkpt>
      <trkpt lat="48.73386" lon="-3.43238">
        <ele>54</ele>
        <time>2015-01-18T10:19:19Z</time>
      </trkpt>
      <trkpt lat="48.73386" lon="-3.4323">
        <ele>54</ele>
        <time>2015-01-18T10:19:20Z</time>
      </trkpt>
      <trkpt lat="48.73386" lon="-3.43221">
        <ele>54</ele>
        <time>2015-01-18T10:19:21Z</time>
      </trkpt>
      <trkpt lat="48.73385" lon="-3.43213">
        <ele>55</ele>
        <time>2015-01-18T10:19:22Z</time>
      </trkpt>
      <trkpt lat="48.73384" lon="-3.43205">
        <ele>55</ele>
        <time>2015-01-18T10:19:23Z</time>
      </trkpt>
      <trkpt lat="48.73384" lon="-3.43197">
        <ele>55</ele>
        <time>2015-01-18T10:19:24Z</time>
      </trkpt>
      <trkpt lat="48.73384" lon="-3.43173">
        <ele>55</ele>
        <time>2015-01-18T10:19:27Z</time>
      </trkpt>
      <trkpt lat="48.73384" lon="-3.43165">
        <ele>55</ele>
        <time>2015-01-18T10:19:28Z</time>
      </trkpt>
      <trkpt lat="48.73384" lon="-3.43158">
        <ele>55</ele>
        <time>2015-01-18T10:19:29Z</time>
      </trkpt>
      <trkpt lat="48.73384" lon="-3.43133">
        <ele>56</ele>
        <time>2015-01-18T10:19:32Z</time>
      </trkpt>
      <trkpt lat="48.73384" lon="-3.43117">
        <ele>57</ele>
        <time>2015-01-18T10:19:34Z</time>
      </trkpt>
      <trkpt lat="48.73385" lon="-3.43109">
        <ele>57</ele>
        <time>2015-01-18T10:19:35Z</time>
      </trkpt>
      <trkpt lat="48.73385" lon="-3.431">
        <ele>57</ele>
        <time>2015-01-18T10:19:36Z</time>
      </trkpt>
      <trkpt lat="48.73386" lon="-3.43092">
        <ele>58</ele>
        <time>2015-01-18T10:19:37Z</time>
      </trkpt>
      <trkpt lat="48.73386" lon="-3.43084">
        <ele>58</ele>
        <time>2015-01-18T10:19:38Z</time>
      </trkpt>
      <trkpt lat="48.73387" lon="-3.43075">
        <ele>58</ele>
        <time>2015-01-18T10:19:39Z</time>
      </trkpt>
      <trkpt lat="48.73387" lon="-3.43059">
        <ele>58</ele>
        <time>2015-01-18T10:19:41Z</time>
      </trkpt>
      <trkpt lat="48.73388" lon="-3.43051">
        <ele>58</ele>
        <time>2015-01-18T10:19:42Z</time>
      </trkpt>
      <trkpt lat="48.73388" lon="-3.43042">
        <ele>59</ele>
        <time>2015-01-18T10:19:43Z</time>
      </trkpt>
      <trkpt lat="48.73388" lon="-3.43034">
        <ele>59</ele>
        <time>2015-01-18T10:19:44Z</time>
      </trkpt>
      <trkpt lat="48.73388" lon="-3.43016">
        <ele>59</ele>
        <time>2015-01-18T10:19:46Z</time>
      </trkpt>
      <trkpt lat="48.73388" lon="-3.43007">
        <ele>59</ele>
        <time>2015-01-18T10:19:47Z</time>
      </trkpt>
      <trkpt lat="48.73387" lon="-3.42997">
        <ele>59</ele>
        <time>2015-01-18T10:19:48Z</time>
      </trkpt>
      <trkpt lat="48.73386" lon="-3.42988">
        <ele>59</ele>
        <time>2015-01-18T10:19:49Z</time>
      </trkpt>
      <trkpt lat="48.73385" lon="-3.42979">
        <ele>59</ele>
        <time>2015-01-18T10:19:50Z</time>
      </trkpt>
      <trkpt lat="48.73384" lon="-3.42969">
        <ele>59</ele>
        <time>2015-01-18T10:19:51Z</time>
      </trkpt>
      <trkpt lat="48.73383" lon="-3.4296">
        <ele>59</ele>
        <time>2015-01-18T10:19:52Z</time>
      </trkpt>
      <trkpt lat="48.73381" lon="-3.42951">
        <ele>59</ele>
        <time>2015-01-18T10:19:53Z</time>
      </trkpt>
      <trkpt lat="48.73379" lon="-3.42942">
        <ele>59</ele>
        <time>2015-01-18T10:19:54Z</time>
      </trkpt>
      <trkpt lat="48.73378" lon="-3.42932">
        <ele>59</ele>
        <time>2015-01-18T10:19:55Z</time>
      </trkpt>
      <trkpt lat="48.73376" lon="-3.42923">
        <ele>59</ele>
        <time>2015-01-18T10:19:56Z</time>
      </trkpt>
      <trkpt lat="48.73374" lon="-3.42913">
        <ele>59</ele>
        <time>2015-01-18T10:19:57Z</time>
      </trkpt>
      <trkpt lat="48.73373" lon="-3.42904">
        <ele>59</ele>
        <time>2015-01-18T10:19:58Z</time>
      </trkpt>
      <trkpt lat="48.73371" lon="-3.42894">
        <ele>59</ele>
        <time>2015-01-18T10:19:59Z</time>
      </trkpt>
      <trkpt lat="48.73369" lon="-3.42884">
        <ele>59</ele>
        <time>2015-01-18T10:20:00Z</time>
      </trkpt>
      <trkpt lat="48.73368" lon="-3.42874">
        <ele>59</ele>
        <time>2015-01-18T10:20:01Z</time>
      </trkpt>
      <trkpt lat="48.73367" lon="-3.42863">
        <ele>59</ele>
        <time>2015-01-18T10:20:02Z</time>
      </trkpt>
      <trkpt lat="48.73366" lon="-3.42853">
        <ele>59</ele>
        <time>2015-01-18T10:20:03Z</time>
      </trkpt>
      <trkpt lat="48.73365" lon="-3.42842">
        <ele>59</ele>
        <time>2015-01-18T10:20:04Z</time>
      </trkpt>
      <trkpt lat="48.73365" lon="-3.42831">
        <ele>59</ele>
        <time>2015-01-18T10:20:05Z</time>
      </trkpt>
      <trkpt lat="48.73363" lon="-3.4282">
        <ele>59</ele>
        <time>2015-01-18T10:20:06Z</time>
      </trkpt>
      <trkpt lat="48.73362" lon="-3.42808">
        <ele>59</ele>
        <time>2015-01-18T10:20:07Z</time>
      </trkpt>
      <trkpt lat="48.73362" lon="-3.42796">
        <ele>59</ele>
        <time>2015-01-18T10:20:08Z</time>
      </trkpt>
      <trkpt lat="48.73361" lon="-3.42771">
        <ele>59</ele>
        <time>2015-01-18T10:20:10Z</time>
      </trkpt>
      <trkpt lat="48.73361" lon="-3.42758">
        <ele>59</ele>
        <time>2015-01-18T10:20:11Z</time>
      </trkpt>
      <trkpt lat="48.7336" lon="-3.42745">
        <ele>59</ele>
        <time>2015-01-18T10:20:12Z</time>
      </trkpt>
      <trkpt lat="48.73359" lon="-3.42733">
        <ele>59</ele>
        <time>2015-01-18T10:20:13Z</time>
      </trkpt>
      <trkpt lat="48.73358" lon="-3.4272">
        <ele>59</ele>
        <time>2015-01-18T10:20:14Z</time>
      </trkpt>
      <trkpt lat="48.73357" lon="-3.42708">
        <ele>59</ele>
        <time>2015-01-18T10:20:15Z</time>
      </trkpt>
      <trkpt lat="48.73357" lon="-3.42696">
        <ele>59</ele>
        <time>2015-01-18T10:20:16Z</time>
      </trkpt>
      <trkpt lat="48.73356" lon="-3.42684">
        <ele>59</ele>
        <time>2015-01-18T10:20:17Z</time>
      </trkpt>
      <trkpt lat="48.73355" lon="-3.42671">
        <ele>59</ele>
        <time>2015-01-18T10:20:18Z</time>
      </trkpt>
      <trkpt lat="48.73354" lon="-3.4266">
        <ele>59</ele>
        <time>2015-01-18T10:20:19Z</time>
      </trkpt>
      <trkpt lat="48.73353" lon="-3.42648">
        <ele>59</ele>
        <time>2015-01-18T10:20:20Z</time>
      </trkpt>
      <trkpt lat="48.73352" lon="-3.42636">
        <ele>59</ele>
        <time>2015-01-18T10:20:21Z</time>
      </trkpt>
      <trkpt lat="48.7335" lon="-3.42625">
        <ele>59</ele>
        <time>2015-01-18T10:20:22Z</time>
      </trkpt>
      <trkpt lat="48.73348" lon="-3.42614">
        <ele>59</ele>
        <time>2015-01-18T10:20:23Z</time>
      </trkpt>
      <trkpt lat="48.73347" lon="-3.42602">
        <ele>59</ele>
        <time>2015-01-18T10:20:24Z</time>
      </trkpt>
      <trkpt lat="48.73345" lon="-3.42592">
        <ele>59</ele>
        <time>2015-01-18T10:20:25Z</time>
      </trkpt>
      <trkpt lat="48.73344" lon="-3.42581">
        <ele>59</ele>
        <time>2015-01-18T10:20:26Z</time>
      </trkpt>
      <trkpt lat="48.73343" lon="-3.4257">
        <ele>59</ele>
        <time>2015-01-18T10:20:27Z</time>
      </trkpt>
      <trkpt lat="48.73342" lon="-3.4256">
        <ele>59</ele>
        <time>2015-01-18T10:20:28Z</time>
      </trkpt>
      <trkpt lat="48.73341" lon="-3.42549">
        <ele>59</ele>
        <time>2015-01-18T10:20:29Z</time>
      </trkpt>
      <trkpt lat="48.73341" lon="-3.42539">
        <ele>59</ele>
        <time>2015-01-18T10:20:30Z</time>
      </trkpt>
      <trkpt lat="48.7334" lon="-3.42528">
        <ele>59</ele>
        <time>2015-01-18T10:20:31Z</time>
      </trkpt>
      <trkpt lat="48.73339" lon="-3.42517">
        <ele>59</ele>
        <time>2015-01-18T10:20:32Z</time>
      </trkpt>
      <trkpt lat="48.73339" lon="-3.42506">
        <ele>59</ele>
        <time>2015-01-18T10:20:33Z</time>
      </trkpt>
      <trkpt lat="48.73339" lon="-3.42495">
        <ele>59</ele>
        <time>2015-01-18T10:20:34Z</time>
      </trkpt>
      <trkpt lat="48.73338" lon="-3.42484">
        <ele>59</ele>
        <time>2015-01-18T10:20:35Z</time>
      </trkpt>
      <trkpt lat="48.73338" lon="-3.4244">
        <ele>59</ele>
        <time>2015-01-18T10:20:39Z</time>
      </trkpt>
      <trkpt lat="48.73338" lon="-3.42398">
        <ele>59</ele>
        <time>2015-01-18T10:20:43Z</time>
      </trkpt>
      <trkpt lat="48.73338" lon="-3.42291">
        <ele>59</ele>
        <time>2015-01-18T10:20:53Z</time>
      </trkpt>
      <trkpt lat="48.73338" lon="-3.4228">
        <ele>59</ele>
        <time>2015-01-18T10:20:54Z</time>
      </trkpt>
      <trkpt lat="48.73337" lon="-3.42268">
        <ele>59</ele>
        <time>2015-01-18T10:20:55Z</time>
      </trkpt>
      <trkpt lat="48.73337" lon="-3.42256">
        <ele>59</ele>
        <time>2015-01-18T10:20:56Z</time>
      </trkpt>
      <trkpt lat="48.73336" lon="-3.42244">
        <ele>59</ele>
        <time>2015-01-18T10:20:57Z</time>
      </trkpt>
      <trkpt lat="48.73336" lon="-3.42232">
        <ele>59</ele>
        <time>2015-01-18T10:20:58Z</time>
      </trkpt>
      <trkpt lat="48.73337" lon="-3.42196">
        <ele>59</ele>
        <time>2015-01-18T10:21:01Z</time>
      </trkpt>
      <trkpt lat="48.73338" lon="-3.42184">
        <ele>59</ele>
        <time>2015-01-18T10:21:02Z</time>
      </trkpt>
      <trkpt lat="48.7334" lon="-3.42172">
        <ele>59</ele>
        <time>2015-01-18T10:21:03Z</time>
      </trkpt>
      <trkpt lat="48.73342" lon="-3.4216">
        <ele>59</ele>
        <time>2015-01-18T10:21:04Z</time>
      </trkpt>
      <trkpt lat="48.73345" lon="-3.42148">
        <ele>59</ele>
        <time>2015-01-18T10:21:05Z</time>
      </trkpt>
      <trkpt lat="48.73347" lon="-3.42136">
        <ele>59</ele>
        <time>2015-01-18T10:21:06Z</time>
      </trkpt>
      <trkpt lat="48.7335" lon="-3.42124">
        <ele>59</ele>
        <time>2015-01-18T10:21:07Z</time>
      </trkpt>
      <trkpt lat="48.73353" lon="-3.42111">
        <ele>59</ele>
        <time>2015-01-18T10:21:08Z</time>
      </trkpt>
      <trkpt lat="48.73355" lon="-3.42099">
        <ele>59</ele>
        <time>2015-01-18T10:21:09Z</time>
      </trkpt>
      <trkpt lat="48.73357" lon="-3.42087">
        <ele>59</ele>
        <time>2015-01-18T10:21:10Z</time>
      </trkpt>
      <trkpt lat="48.73359" lon="-3.42074">
        <ele>59</ele>
        <time>2015-01-18T10:21:11Z</time>
      </trkpt>
      <trkpt lat="48.73359" lon="-3.4206">
        <ele>59</ele>
        <time>2015-01-18T10:21:12Z</time>
      </trkpt>
      <trkpt lat="48.73359" lon="-3.42047">
        <ele>59</ele>
        <time>2015-01-18T10:21:13Z</time>
      </trkpt>
      <trkpt lat="48.73358" lon="-3.42034">
        <ele>59</ele>
        <time>2015-01-18T10:21:14Z</time>
      </trkpt>
      <trkpt lat="48.73356" lon="-3.42021">
        <ele>59</ele>
        <time>2015-01-18T10:21:15Z</time>
      </trkpt>
      <trkpt lat="48.73352" lon="-3.42008">
        <ele>59</ele>
        <time>2015-01-18T10:21:16Z</time>
      </trkpt>
      <trkpt lat="48.73348" lon="-3.41997">
        <ele>59</ele>
        <time>2015-01-18T10:21:17Z</time>
      </trkpt>
      <trkpt lat="48.73342" lon="-3.41987">
        <ele>59</ele>
        <time>2015-01-18T10:21:18Z</time>
      </trkpt>
      <trkpt lat="48.73336" lon="-3.41979">
        <ele>59</ele>
        <time>2015-01-18T10:21:19Z</time>
      </trkpt>
      <trkpt lat="48.7333" lon="-3.41972">
        <ele>59</ele>
        <time>2015-01-18T10:21:20Z</time>
      </trkpt>
      <trkpt lat="48.73324" lon="-3.41966">
        <ele>59</ele>
        <time>2015-01-18T10:21:21Z</time>
      </trkpt>
      <trkpt lat="48.73318" lon="-3.4196">
        <ele>59</ele>
        <time>2015-01-18T10:21:22Z</time>
      </trkpt>
      <trkpt lat="48.73313" lon="-3.41954">
        <ele>59</ele>
        <time>2015-01-18T10:21:23Z</time>
      </trkpt>
      <trkpt lat="48.73307" lon="-3.41948">
        <ele>59</ele>
        <time>2015-01-18T10:21:24Z</time>
      </trkpt>
      <trkpt lat="48.73301" lon="-3.41942">
        <ele>59</ele>
        <time>2015-01-18T10:21:25Z</time>
      </trkpt>
      <trkpt lat="48.73296" lon="-3.41935">
        <ele>59</ele>
        <time>2015-01-18T10:21:26Z</time>
      </trkpt>
      <trkpt lat="48.73291" lon="-3.41928">
        <ele>59</ele>
        <time>2015-01-18T10:21:27Z</time>
      </trkpt>
      <trkpt lat="48.73286" lon="-3.41921">
        <ele>59</ele>
        <time>2015-01-18T10:21:28Z</time>
      </trkpt>
      <trkpt lat="48.73282" lon="-3.41915">
        <ele>59</ele>
        <time>2015-01-18T10:21:29Z</time>
      </trkpt>
      <trkpt lat="48.73278" lon="-3.41908">
        <ele>59</ele>
        <time>2015-01-18T10:21:30Z</time>
      </trkpt>
      <trkpt lat="48.73275" lon="-3.419">
        <ele>59</ele>
        <time>2015-01-18T10:21:31Z</time>
      </trkpt>
      <trkpt lat="48.73271" lon="-3.41893">
        <ele>59</ele>
        <time>2015-01-18T10:21:32Z</time>
      </trkpt>
      <trkpt lat="48.73268" lon="-3.41885">
        <ele>59</ele>
        <time>2015-01-18T10:21:33Z</time>
      </trkpt>
      <trkpt lat="48.73264" lon="-3.41878">
        <ele>59</ele>
        <time>2015-01-18T10:21:34Z</time>
      </trkpt>
      <trkpt lat="48.73261" lon="-3.4187">
        <ele>59</ele>
        <time>2015-01-18T10:21:35Z</time>
      </trkpt>
      <trkpt lat="48.73258" lon="-3.41862">
        <ele>60</ele>
        <time>2015-01-18T10:21:36Z</time>
      </trkpt>
      <trkpt lat="48.73255" lon="-3.41854">
        <ele>60</ele>
        <time>2015-01-18T10:21:37Z</time>
      </trkpt>
      <trkpt lat="48.73252" lon="-3.41846">
        <ele>60</ele>
        <time>2015-01-18T10:21:38Z</time>
      </trkpt>
      <trkpt lat="48.73249" lon="-3.41838">
        <ele>61</ele>
        <time>2015-01-18T10:21:39Z</time>
      </trkpt>
      <trkpt lat="48.73246" lon="-3.41828">
        <ele>61</ele>
        <time>2015-01-18T10:21:40Z</time>
      </trkpt>
      <trkpt lat="48.73244" lon="-3.41819">
        <ele>61</ele>
        <time>2015-01-18T10:21:41Z</time>
      </trkpt>
      <trkpt lat="48.73242" lon="-3.4181">
        <ele>61</ele>
        <time>2015-01-18T10:21:42Z</time>
      </trkpt>
      <trkpt lat="48.7324" lon="-3.418">
        <ele>62</ele>
        <time>2015-01-18T10:21:43Z</time>
      </trkpt>
      <trkpt lat="48.73238" lon="-3.4179">
        <ele>62</ele>
        <time>2015-01-18T10:21:44Z</time>
      </trkpt>
      <trkpt lat="48.73237" lon="-3.4178">
        <ele>62</ele>
        <time>2015-01-18T10:21:45Z</time>
      </trkpt>
      <trkpt lat="48.73235" lon="-3.4177">
        <ele>62</ele>
        <time>2015-01-18T10:21:46Z</time>
      </trkpt>
      <trkpt lat="48.73234" lon="-3.41759">
        <ele>62</ele>
        <time>2015-01-18T10:21:47Z</time>
      </trkpt>
      <trkpt lat="48.73232" lon="-3.41749">
        <ele>63</ele>
        <time>2015-01-18T10:21:48Z</time>
      </trkpt>
      <trkpt lat="48.7323" lon="-3.41739">
        <ele>63</ele>
        <time>2015-01-18T10:21:49Z</time>
      </trkpt>
      <trkpt lat="48.73229" lon="-3.41729">
        <ele>63</ele>
        <time>2015-01-18T10:21:50Z</time>
      </trkpt>
      <trkpt lat="48.73227" lon="-3.41719">
        <ele>63</ele>
        <time>2015-01-18T10:21:51Z</time>
      </trkpt>
      <trkpt lat="48.73225" lon="-3.41709">
        <ele>63</ele>
        <time>2015-01-18T10:21:52Z</time>
      </trkpt>
      <trkpt lat="48.73223" lon="-3.417">
        <ele>63</ele>
        <time>2015-01-18T10:21:53Z</time>
      </trkpt>
      <trkpt lat="48.73221" lon="-3.4169">
        <ele>63</ele>
        <time>2015-01-18T10:21:54Z</time>
      </trkpt>
      <trkpt lat="48.73219" lon="-3.4168">
        <ele>64</ele>
        <time>2015-01-18T10:21:55Z</time>
      </trkpt>
      <trkpt lat="48.73217" lon="-3.41671">
        <ele>64</ele>
        <time>2015-01-18T10:21:56Z</time>
      </trkpt>
      <trkpt lat="48.73215" lon="-3.41661">
        <ele>64</ele>
        <time>2015-01-18T10:21:57Z</time>
      </trkpt>
      <trkpt lat="48.73213" lon="-3.41651">
        <ele>64</ele>
        <time>2015-01-18T10:21:58Z</time>
      </trkpt>
      <trkpt lat="48.73211" lon="-3.41642">
        <ele>64</ele>
        <time>2015-01-18T10:21:59Z</time>
      </trkpt>
      <trkpt lat="48.7321" lon="-3.41632">
        <ele>64</ele>
        <time>2015-01-18T10:22:00Z</time>
      </trkpt>
      <trkpt lat="48.73209" lon="-3.41622">
        <ele>65</ele>
        <time>2015-01-18T10:22:01Z</time>
      </trkpt>
      <trkpt lat="48.73207" lon="-3.41612">
        <ele>65</ele>
        <time>2015-01-18T10:22:02Z</time>
      </trkpt>
      <trkpt lat="48.73207" lon="-3.41601">
        <ele>65</ele>
        <time>2015-01-18T10:22:03Z</time>
      </trkpt>
      <trkpt lat="48.73206" lon="-3.41591">
        <ele>65</ele>
        <time>2015-01-18T10:22:04Z</time>
      </trkpt>
      <trkpt lat="48.73207" lon="-3.41562">
        <ele>66</ele>
        <time>2015-01-18T10:22:07Z</time>
      </trkpt>
      <trkpt lat="48.73207" lon="-3.41552">
        <ele>66</ele>
        <time>2015-01-18T10:22:08Z</time>
      </trkpt>
      <trkpt lat="48.73208" lon="-3.41543">
        <ele>66</ele>
        <time>2015-01-18T10:22:09Z</time>
      </trkpt>
      <trkpt lat="48.73208" lon="-3.41516">
        <ele>67</ele>
        <time>2015-01-18T10:22:12Z</time>
      </trkpt>
      <trkpt lat="48.73209" lon="-3.41509">
        <ele>67</ele>
        <time>2015-01-18T10:22:13Z</time>
      </trkpt>
      <trkpt lat="48.73209" lon="-3.415">
        <ele>68</ele>
        <time>2015-01-18T10:22:14Z</time>
      </trkpt>
      <trkpt lat="48.73209" lon="-3.41492">
        <ele>68</ele>
        <time>2015-01-18T10:22:15Z</time>
      </trkpt>
      <trkpt lat="48.7321" lon="-3.41483">
        <ele>68</ele>
        <time>2015-01-18T10:22:16Z</time>
      </trkpt>
      <trkpt lat="48.73211" lon="-3.41466">
        <ele>69</ele>
        <time>2015-01-18T10:22:18Z</time>
      </trkpt>
      <trkpt lat="48.73211" lon="-3.41457">
        <ele>69</ele>
        <time>2015-01-18T10:22:19Z</time>
      </trkpt>
      <trkpt lat="48.73212" lon="-3.41448">
        <ele>69</ele>
        <time>2015-01-18T10:22:20Z</time>
      </trkpt>
      <trkpt lat="48.73212" lon="-3.41428">
        <ele>70</ele>
        <time>2015-01-18T10:22:22Z</time>
      </trkpt>
      <trkpt lat="48.73213" lon="-3.41419">
        <ele>70</ele>
        <time>2015-01-18T10:22:23Z</time>
      </trkpt>
      <trkpt lat="48.73213" lon="-3.41408">
        <ele>70</ele>
        <time>2015-01-18T10:22:24Z</time>
      </trkpt>
      <trkpt lat="48.73214" lon="-3.41398">
        <ele>70</ele>
        <time>2015-01-18T10:22:25Z</time>
      </trkpt>
      <trkpt lat="48.73214" lon="-3.41376">
        <ele>70</ele>
        <time>2015-01-18T10:22:27Z</time>
      </trkpt>
      <trkpt lat="48.73214" lon="-3.41331">
        <ele>70</ele>
        <time>2015-01-18T10:22:31Z</time>
      </trkpt>
      <trkpt lat="48.73213" lon="-3.41319">
        <ele>70</ele>
        <time>2015-01-18T10:22:32Z</time>
      </trkpt>
      <trkpt lat="48.73212" lon="-3.41308">
        <ele>70</ele>
        <time>2015-01-18T10:22:33Z</time>
      </trkpt>
      <trkpt lat="48.73212" lon="-3.41297">
        <ele>70</ele>
        <time>2015-01-18T10:22:34Z</time>
      </trkpt>
      <trkpt lat="48.73211" lon="-3.41286">
        <ele>70</ele>
        <time>2015-01-18T10:22:35Z</time>
      </trkpt>
      <trkpt lat="48.7321" lon="-3.41275">
        <ele>70</ele>
        <time>2015-01-18T10:22:36Z</time>
      </trkpt>
      <trkpt lat="48.73209" lon="-3.41264">
        <ele>70</ele>
        <time>2015-01-18T10:22:37Z</time>
      </trkpt>
      <trkpt lat="48.73208" lon="-3.41253">
        <ele>70</ele>
        <time>2015-01-18T10:22:38Z</time>
      </trkpt>
      <trkpt lat="48.73207" lon="-3.41242">
        <ele>70</ele>
        <time>2015-01-18T10:22:39Z</time>
      </trkpt>
      <trkpt lat="48.73206" lon="-3.41231">
        <ele>70</ele>
        <time>2015-01-18T10:22:40Z</time>
      </trkpt>
      <trkpt lat="48.73205" lon="-3.41221">
        <ele>70</ele>
        <time>2015-01-18T10:22:41Z</time>
      </trkpt>
      <trkpt lat="48.73204" lon="-3.4121">
        <ele>70</ele>
        <time>2015-01-18T10:22:42Z</time>
      </trkpt>
      <trkpt lat="48.73204" lon="-3.412">
        <ele>70</ele>
        <time>2015-01-18T10:22:43Z</time>
      </trkpt>
      <trkpt lat="48.73203" lon="-3.4119">
        <ele>70</ele>
        <time>2015-01-18T10:22:44Z</time>
      </trkpt>
      <trkpt lat="48.73202" lon="-3.4118">
        <ele>70</ele>
        <time>2015-01-18T10:22:45Z</time>
      </trkpt>
      <trkpt lat="48.73201" lon="-3.4117">
        <ele>70</ele>
        <time>2015-01-18T10:22:46Z</time>
      </trkpt>
      <trkpt lat="48.732" lon="-3.41161">
        <ele>70</ele>
        <time>2015-01-18T10:22:47Z</time>
      </trkpt>
      <trkpt lat="48.73199" lon="-3.41151">
        <ele>70</ele>
        <time>2015-01-18T10:22:48Z</time>
      </trkpt>
      <trkpt lat="48.73198" lon="-3.41141">
        <ele>70</ele>
        <time>2015-01-18T10:22:49Z</time>
      </trkpt>
      <trkpt lat="48.73197" lon="-3.41132">
        <ele>70</ele>
        <time>2015-01-18T10:22:50Z</time>
      </trkpt>
      <trkpt lat="48.73196" lon="-3.41122">
        <ele>70</ele>
        <time>2015-01-18T10:22:51Z</time>
      </trkpt>
      <trkpt lat="48.73195" lon="-3.41112">
        <ele>70</ele>
        <time>2015-01-18T10:22:52Z</time>
      </trkpt>
      <trkpt lat="48.73194" lon="-3.41103">
        <ele>70</ele>
        <time>2015-01-18T10:22:53Z</time>
      </trkpt>
      <trkpt lat="48.73193" lon="-3.41093">
        <ele>71</ele>
        <time>2015-01-18T10:22:54Z</time>
      </trkpt>
      <trkpt lat="48.73191" lon="-3.41084">
        <ele>71</ele>
        <time>2015-01-18T10:22:55Z</time>
      </trkpt>
      <trkpt lat="48.7319" lon="-3.41073">
        <ele>71</ele>
        <time>2015-01-18T10:22:56Z</time>
      </trkpt>
      <trkpt lat="48.73188" lon="-3.41064">
        <ele>71</ele>
        <time>2015-01-18T10:22:57Z</time>
      </trkpt>
      <trkpt lat="48.73186" lon="-3.41053">
        <ele>71</ele>
        <time>2015-01-18T10:22:58Z</time>
      </trkpt>
      <trkpt lat="48.73185" lon="-3.41043">
        <ele>71</ele>
        <time>2015-01-18T10:22:59Z</time>
      </trkpt>
      <trkpt lat="48.73183" lon="-3.41033">
        <ele>71</ele>
        <time>2015-01-18T10:23:00Z</time>
      </trkpt>
      <trkpt lat="48.73181" lon="-3.41022">
        <ele>71</ele>
        <time>2015-01-18T10:23:01Z</time>
      </trkpt>
      <trkpt lat="48.73179" lon="-3.41011">
        <ele>71</ele>
        <time>2015-01-18T10:23:02Z</time>
      </trkpt>
      <trkpt lat="48.73177" lon="-3.41">
        <ele>71</ele>
        <time>2015-01-18T10:23:03Z</time>
      </trkpt>
      <trkpt lat="48.73175" lon="-3.40989">
        <ele>71</ele>
        <time>2015-01-18T10:23:04Z</time>
      </trkpt>
      <trkpt lat="48.73172" lon="-3.40978">
        <ele>71</ele>
        <time>2015-01-18T10:23:05Z</time>
      </trkpt>
      <trkpt lat="48.7317" lon="-3.40967">
        <ele>71</ele>
        <time>2015-01-18T10:23:06Z</time>
      </trkpt>
      <trkpt lat="48.73168" lon="-3.40956">
        <ele>71</ele>
        <time>2015-01-18T10:23:07Z</time>
      </trkpt>
      <trkpt lat="48.73166" lon="-3.40945">
        <ele>71</ele>
        <time>2015-01-18T10:23:08Z</time>
      </trkpt>
      <trkpt lat="48.73164" lon="-3.40934">
        <ele>71</ele>
        <time>2015-01-18T10:23:09Z</time>
      </trkpt>
      <trkpt lat="48.73161" lon="-3.40924">
        <ele>71</ele>
        <time>2015-01-18T10:23:10Z</time>
      </trkpt>
      <trkpt lat="48.73159" lon="-3.40912">
        <ele>71</ele>
        <time>2015-01-18T10:23:11Z</time>
      </trkpt>
      <trkpt lat="48.73156" lon="-3.40901">
        <ele>71</ele>
        <time>2015-01-18T10:23:12Z</time>
      </trkpt>
      <trkpt lat="48.73154" lon="-3.4089">
        <ele>71</ele>
        <time>2015-01-18T10:23:13Z</time>
      </trkpt>
      <trkpt lat="48.73151" lon="-3.40878">
        <ele>71</ele>
        <time>2015-01-18T10:23:14Z</time>
      </trkpt>
      <trkpt lat="48.73148" lon="-3.40866">
        <ele>71</ele>
        <time>2015-01-18T10:23:15Z</time>
      </trkpt>
      <trkpt lat="48.73145" lon="-3.40855">
        <ele>71</ele>
        <time>2015-01-18T10:23:16Z</time>
      </trkpt>
      <trkpt lat="48.73143" lon="-3.40843">
        <ele>71</ele>
        <time>2015-01-18T10:23:17Z</time>
      </trkpt>
      <trkpt lat="48.7314" lon="-3.40832">
        <ele>71</ele>
        <time>2015-01-18T10:23:18Z</time>
      </trkpt>
      <trkpt lat="48.73138" lon="-3.40821">
        <ele>71</ele>
        <time>2015-01-18T10:23:19Z</time>
      </trkpt>
      <trkpt lat="48.73135" lon="-3.4081">
        <ele>71</ele>
        <time>2015-01-18T10:23:20Z</time>
      </trkpt>
      <trkpt lat="48.73133" lon="-3.40799">
        <ele>71</ele>
        <time>2015-01-18T10:23:21Z</time>
      </trkpt>
      <trkpt lat="48.7313" lon="-3.40788">
        <ele>71</ele>
        <time>2015-01-18T10:23:22Z</time>
      </trkpt>
      <trkpt lat="48.73128" lon="-3.40777">
        <ele>71</ele>
        <time>2015-01-18T10:23:23Z</time>
      </trkpt>
      <trkpt lat="48.73125" lon="-3.40766">
        <ele>71</ele>
        <time>2015-01-18T10:23:24Z</time>
      </trkpt>
      <trkpt lat="48.73122" lon="-3.40755">
        <ele>71</ele>
        <time>2015-01-18T10:23:25Z</time>
      </trkpt>
      <trkpt lat="48.7312" lon="-3.40744">
        <ele>71</ele>
        <time>2015-01-18T10:23:26Z</time>
      </trkpt>
      <trkpt lat="48.73117" lon="-3.40733">
        <ele>71</ele>
        <time>2015-01-18T10:23:27Z</time>
      </trkpt>
      <trkpt lat="48.73115" lon="-3.40723">
        <ele>71</ele>
        <time>2015-01-18T10:23:28Z</time>
      </trkpt>
      <trkpt lat="48.73112" lon="-3.40713">
        <ele>71</ele>
        <time>2015-01-18T10:23:29Z</time>
      </trkpt>
      <trkpt lat="48.73109" lon="-3.40703">
        <ele>71</ele>
        <time>2015-01-18T10:23:30Z</time>
      </trkpt>
      <trkpt lat="48.73105" lon="-3.40694">
        <ele>72</ele>
        <time>2015-01-18T10:23:31Z</time>
      </trkpt>
      <trkpt lat="48.73102" lon="-3.40685">
        <ele>72</ele>
        <time>2015-01-18T10:23:32Z</time>
      </trkpt>
      <trkpt lat="48.73098" lon="-3.40676">
        <ele>72</ele>
        <time>2015-01-18T10:23:33Z</time>
      </trkpt>
      <trkpt lat="48.73094" lon="-3.40668">
        <ele>72</ele>
        <time>2015-01-18T10:23:34Z</time>
      </trkpt>
      <trkpt lat="48.7309" lon="-3.40659">
        <ele>72</ele>
        <time>2015-01-18T10:23:35Z</time>
      </trkpt>
      <trkpt lat="48.73085" lon="-3.40651">
        <ele>73</ele>
        <time>2015-01-18T10:23:36Z</time>
      </trkpt>
      <trkpt lat="48.73081" lon="-3.40642">
        <ele>73</ele>
        <time>2015-01-18T10:23:37Z</time>
      </trkpt>
      <trkpt lat="48.73076" lon="-3.40633">
        <ele>73</ele>
        <time>2015-01-18T10:23:38Z</time>
      </trkpt>
      <trkpt lat="48.73072" lon="-3.40624">
        <ele>73</ele>
        <time>2015-01-18T10:23:39Z</time>
      </trkpt>
      <trkpt lat="48.73068" lon="-3.40614">
        <ele>73</ele>
        <time>2015-01-18T10:23:40Z</time>
      </trkpt>
      <trkpt lat="48.73064" lon="-3.40604">
        <ele>74</ele>
        <time>2015-01-18T10:23:41Z</time>
      </trkpt>
      <trkpt lat="48.73061" lon="-3.40595">
        <ele>74</ele>
        <time>2015-01-18T10:23:42Z</time>
      </trkpt>
      <trkpt lat="48.73058" lon="-3.40584">
        <ele>74</ele>
        <time>2015-01-18T10:23:43Z</time>
      </trkpt>
      <trkpt lat="48.73056" lon="-3.40573">
        <ele>74</ele>
        <time>2015-01-18T10:23:44Z</time>
      </trkpt>
      <trkpt lat="48.73054" lon="-3.40562">
        <ele>74</ele>
        <time>2015-01-18T10:23:45Z</time>
      </trkpt>
      <trkpt lat="48.73053" lon="-3.40551">
        <ele>74</ele>
        <time>2015-01-18T10:23:46Z</time>
      </trkpt>
      <trkpt lat="48.73053" lon="-3.4054">
        <ele>75</ele>
        <time>2015-01-18T10:23:47Z</time>
      </trkpt>
      <trkpt lat="48.73052" lon="-3.40528">
        <ele>75</ele>
        <time>2015-01-18T10:23:49Z</time>
      </trkpt>
      <trkpt lat="48.73053" lon="-3.40517">
        <ele>75</ele>
        <time>2015-01-18T10:23:49Z</time>
      </trkpt>
      <trkpt lat="48.73052" lon="-3.40483">
        <ele>75</ele>
        <time>2015-01-18T10:23:52Z</time>
      </trkpt>
      <trkpt lat="48.73052" lon="-3.40471">
        <ele>75</ele>
        <time>2015-01-18T10:23:53Z</time>
      </trkpt>
      <trkpt lat="48.73051" lon="-3.4046">
        <ele>75</ele>
        <time>2015-01-18T10:23:54Z</time>
      </trkpt>
      <trkpt lat="48.73049" lon="-3.40449">
        <ele>75</ele>
        <time>2015-01-18T10:23:55Z</time>
      </trkpt>
      <trkpt lat="48.73047" lon="-3.40439">
        <ele>75</ele>
        <time>2015-01-18T10:23:56Z</time>
      </trkpt>
      <trkpt lat="48.73044" lon="-3.40428">
        <ele>75</ele>
        <time>2015-01-18T10:23:57Z</time>
      </trkpt>
      <trkpt lat="48.73042" lon="-3.40418">
        <ele>75</ele>
        <time>2015-01-18T10:23:58Z</time>
      </trkpt>
      <trkpt lat="48.73038" lon="-3.40407">
        <ele>75</ele>
        <time>2015-01-18T10:23:59Z</time>
      </trkpt>
      <trkpt lat="48.73035" lon="-3.40398">
        <ele>75</ele>
        <time>2015-01-18T10:24:00Z</time>
      </trkpt>
      <trkpt lat="48.73032" lon="-3.40387">
        <ele>75</ele>
        <time>2015-01-18T10:24:01Z</time>
      </trkpt>
      <trkpt lat="48.73029" lon="-3.40377">
        <ele>75</ele>
        <time>2015-01-18T10:24:02Z</time>
      </trkpt>
      <trkpt lat="48.73026" lon="-3.40367">
        <ele>75</ele>
        <time>2015-01-18T10:24:03Z</time>
      </trkpt>
      <trkpt lat="48.73023" lon="-3.40356">
        <ele>75</ele>
        <time>2015-01-18T10:24:04Z</time>
      </trkpt>
      <trkpt lat="48.73021" lon="-3.40346">
        <ele>75</ele>
        <time>2015-01-18T10:24:05Z</time>
      </trkpt>
      <trkpt lat="48.73019" lon="-3.40334">
        <ele>75</ele>
        <time>2015-01-18T10:24:06Z</time>
      </trkpt>
      <trkpt lat="48.73017" lon="-3.40323">
        <ele>75</ele>
        <time>2015-01-18T10:24:07Z</time>
      </trkpt>
      <trkpt lat="48.73016" lon="-3.40311">
        <ele>75</ele>
        <time>2015-01-18T10:24:08Z</time>
      </trkpt>
      <trkpt lat="48.73015" lon="-3.40299">
        <ele>75</ele>
        <time>2015-01-18T10:24:09Z</time>
      </trkpt>
      <trkpt lat="48.73014" lon="-3.40287">
        <ele>75</ele>
        <time>2015-01-18T10:24:10Z</time>
      </trkpt>
      <trkpt lat="48.73014" lon="-3.40275">
        <ele>75</ele>
        <time>2015-01-18T10:24:11Z</time>
      </trkpt>
      <trkpt lat="48.73013" lon="-3.40263">
        <ele>75</ele>
        <time>2015-01-18T10:24:12Z</time>
      </trkpt>
      <trkpt lat="48.73012" lon="-3.40251">
        <ele>75</ele>
        <time>2015-01-18T10:24:13Z</time>
      </trkpt>
      <trkpt lat="48.7301" lon="-3.40239">
        <ele>75</ele>
        <time>2015-01-18T10:24:14Z</time>
      </trkpt>
      <trkpt lat="48.73008" lon="-3.40228">
        <ele>75</ele>
        <time>2015-01-18T10:24:15Z</time>
      </trkpt>
      <trkpt lat="48.73005" lon="-3.40217">
        <ele>75</ele>
        <time>2015-01-18T10:24:16Z</time>
      </trkpt>
      <trkpt lat="48.73003" lon="-3.40206">
        <ele>75</ele>
        <time>2015-01-18T10:24:17Z</time>
      </trkpt>
      <trkpt lat="48.73" lon="-3.40195">
        <ele>75</ele>
        <time>2015-01-18T10:24:18Z</time>
      </trkpt>
      <trkpt lat="48.72997" lon="-3.40185">
        <ele>75</ele>
        <time>2015-01-18T10:24:19Z</time>
      </trkpt>
      <trkpt lat="48.72993" lon="-3.40175">
        <ele>75</ele>
        <time>2015-01-18T10:24:20Z</time>
      </trkpt>
      <trkpt lat="48.7299" lon="-3.40165">
        <ele>75</ele>
        <time>2015-01-18T10:24:21Z</time>
      </trkpt>
      <trkpt lat="48.72988" lon="-3.40155">
        <ele>75</ele>
        <time>2015-01-18T10:24:22Z</time>
      </trkpt>
      <trkpt lat="48.72985" lon="-3.40145">
        <ele>75</ele>
        <time>2015-01-18T10:24:23Z</time>
      </trkpt>
      <trkpt lat="48.72983" lon="-3.40134">
        <ele>75</ele>
        <time>2015-01-18T10:24:24Z</time>
      </trkpt>
      <trkpt lat="48.72982" lon="-3.40124">
        <ele>75</ele>
        <time>2015-01-18T10:24:25Z</time>
      </trkpt>
      <trkpt lat="48.72981" lon="-3.40113">
        <ele>75</ele>
        <time>2015-01-18T10:24:26Z</time>
      </trkpt>
      <trkpt lat="48.72979" lon="-3.40102">
        <ele>75</ele>
        <time>2015-01-18T10:24:27Z</time>
      </trkpt>
      <trkpt lat="48.72979" lon="-3.4009">
        <ele>75</ele>
        <time>2015-01-18T10:24:28Z</time>
      </trkpt>
      <trkpt lat="48.72977" lon="-3.40078">
        <ele>75</ele>
        <time>2015-01-18T10:24:29Z</time>
      </trkpt>
      <trkpt lat="48.72976" lon="-3.40067">
        <ele>75</ele>
        <time>2015-01-18T10:24:30Z</time>
      </trkpt>
      <trkpt lat="48.72974" lon="-3.40055">
        <ele>75</ele>
        <time>2015-01-18T10:24:31Z</time>
      </trkpt>
      <trkpt lat="48.72973" lon="-3.40043">
        <ele>75</ele>
        <time>2015-01-18T10:24:32Z</time>
      </trkpt>
      <trkpt lat="48.72971" lon="-3.40032">
        <ele>75</ele>
        <time>2015-01-18T10:24:33Z</time>
      </trkpt>
      <trkpt lat="48.72969" lon="-3.40021">
        <ele>76</ele>
        <time>2015-01-18T10:24:34Z</time>
      </trkpt>
      <trkpt lat="48.72966" lon="-3.4001">
        <ele>76</ele>
        <time>2015-01-18T10:24:35Z</time>
      </trkpt>
      <trkpt lat="48.72964" lon="-3.4">
        <ele>76</ele>
        <time>2015-01-18T10:24:36Z</time>
      </trkpt>
      <trkpt lat="48.72961" lon="-3.39989">
        <ele>76</ele>
        <time>2015-01-18T10:24:37Z</time>
      </trkpt>
      <trkpt lat="48.72958" lon="-3.39979">
        <ele>76</ele>
        <time>2015-01-18T10:24:38Z</time>
      </trkpt>
      <trkpt lat="48.72955" lon="-3.39968">
        <ele>76</ele>
        <time>2015-01-18T10:24:39Z</time>
      </trkpt>
      <trkpt lat="48.72952" lon="-3.39957">
        <ele>76</ele>
        <time>2015-01-18T10:24:40Z</time>
      </trkpt>
      <trkpt lat="48.72948" lon="-3.39947">
        <ele>77</ele>
        <time>2015-01-18T10:24:41Z</time>
      </trkpt>
      <trkpt lat="48.72945" lon="-3.39936">
        <ele>77</ele>
        <time>2015-01-18T10:24:42Z</time>
      </trkpt>
      <trkpt lat="48.72942" lon="-3.39926">
        <ele>77</ele>
        <time>2015-01-18T10:24:43Z</time>
      </trkpt>
      <trkpt lat="48.72939" lon="-3.39915">
        <ele>77</ele>
        <time>2015-01-18T10:24:44Z</time>
      </trkpt>
      <trkpt lat="48.72935" lon="-3.39905">
        <ele>77</ele>
        <time>2015-01-18T10:24:45Z</time>
      </trkpt>
      <trkpt lat="48.72932" lon="-3.39895">
        <ele>77</ele>
        <time>2015-01-18T10:24:46Z</time>
      </trkpt>
      <trkpt lat="48.72928" lon="-3.39885">
        <ele>77</ele>
        <time>2015-01-18T10:24:47Z</time>
      </trkpt>
      <trkpt lat="48.72925" lon="-3.39875">
        <ele>77</ele>
        <time>2015-01-18T10:24:48Z</time>
      </trkpt>
      <trkpt lat="48.72921" lon="-3.39865">
        <ele>77</ele>
        <time>2015-01-18T10:24:49Z</time>
      </trkpt>
      <trkpt lat="48.72917" lon="-3.39855">
        <ele>77</ele>
        <time>2015-01-18T10:24:50Z</time>
      </trkpt>
      <trkpt lat="48.72913" lon="-3.39845">
        <ele>77</ele>
        <time>2015-01-18T10:24:51Z</time>
      </trkpt>
      <trkpt lat="48.72909" lon="-3.39836">
        <ele>77</ele>
        <time>2015-01-18T10:24:52Z</time>
      </trkpt>
      <trkpt lat="48.72904" lon="-3.39826">
        <ele>77</ele>
        <time>2015-01-18T10:24:53Z</time>
      </trkpt>
      <trkpt lat="48.729" lon="-3.39817">
        <ele>77</ele>
        <time>2015-01-18T10:24:54Z</time>
      </trkpt>
      <trkpt lat="48.72895" lon="-3.39808">
        <ele>77</ele>
        <time>2015-01-18T10:24:55Z</time>
      </trkpt>
      <trkpt lat="48.7289" lon="-3.39799">
        <ele>78</ele>
        <time>2015-01-18T10:24:56Z</time>
      </trkpt>
      <trkpt lat="48.72885" lon="-3.3979">
        <ele>78</ele>
        <time>2015-01-18T10:24:57Z</time>
      </trkpt>
      <trkpt lat="48.7288" lon="-3.39781">
        <ele>78</ele>
        <time>2015-01-18T10:24:58Z</time>
      </trkpt>
      <trkpt lat="48.72875" lon="-3.39772">
        <ele>78</ele>
        <time>2015-01-18T10:24:59Z</time>
      </trkpt>
      <trkpt lat="48.7287" lon="-3.39763">
        <ele>78</ele>
        <time>2015-01-18T10:25:00Z</time>
      </trkpt>
      <trkpt lat="48.72865" lon="-3.39754">
        <ele>78</ele>
        <time>2015-01-18T10:25:01Z</time>
      </trkpt>
      <trkpt lat="48.72861" lon="-3.39745">
        <ele>78</ele>
        <time>2015-01-18T10:25:02Z</time>
      </trkpt>
      <trkpt lat="48.72856" lon="-3.39736">
        <ele>78</ele>
        <time>2015-01-18T10:25:03Z</time>
      </trkpt>
      <trkpt lat="48.72852" lon="-3.39726">
        <ele>78</ele>
        <time>2015-01-18T10:25:04Z</time>
      </trkpt>
      <trkpt lat="48.72848" lon="-3.39716">
        <ele>78</ele>
        <time>2015-01-18T10:25:05Z</time>
      </trkpt>
      <trkpt lat="48.72845" lon="-3.39705">
        <ele>79</ele>
        <time>2015-01-18T10:25:06Z</time>
      </trkpt>
      <trkpt lat="48.72842" lon="-3.39695">
        <ele>79</ele>
        <time>2015-01-18T10:25:07Z</time>
      </trkpt>
      <trkpt lat="48.72839" lon="-3.39684">
        <ele>79</ele>
        <time>2015-01-18T10:25:08Z</time>
      </trkpt>
      <trkpt lat="48.72836" lon="-3.39673">
        <ele>79</ele>
        <time>2015-01-18T10:25:09Z</time>
      </trkpt>
      <trkpt lat="48.72834" lon="-3.39662">
        <ele>79</ele>
        <time>2015-01-18T10:25:10Z</time>
      </trkpt>
      <trkpt lat="48.72832" lon="-3.3965">
        <ele>79</ele>
        <time>2015-01-18T10:25:11Z</time>
      </trkpt>
      <trkpt lat="48.7283" lon="-3.39639">
        <ele>79</ele>
        <time>2015-01-18T10:25:12Z</time>
      </trkpt>
      <trkpt lat="48.72829" lon="-3.39627">
        <ele>79</ele>
        <time>2015-01-18T10:25:13Z</time>
      </trkpt>
      <trkpt lat="48.72828" lon="-3.39614">
        <ele>79</ele>
        <time>2015-01-18T10:25:14Z</time>
      </trkpt>
      <trkpt lat="48.72826" lon="-3.39602">
        <ele>79</ele>
        <time>2015-01-18T10:25:15Z</time>
      </trkpt>
      <trkpt lat="48.72826" lon="-3.3959">
        <ele>79</ele>
        <time>2015-01-18T10:25:16Z</time>
      </trkpt>
      <trkpt lat="48.72825" lon="-3.39578">
        <ele>79</ele>
        <time>2015-01-18T10:25:17Z</time>
      </trkpt>
      <trkpt lat="48.72826" lon="-3.39539">
        <ele>79</ele>
        <time>2015-01-18T10:25:20Z</time>
      </trkpt>
      <trkpt lat="48.72826" lon="-3.39513">
        <ele>79</ele>
        <time>2015-01-18T10:25:22Z</time>
      </trkpt>
      <trkpt lat="48.72827" lon="-3.395">
        <ele>79</ele>
        <time>2015-01-18T10:25:23Z</time>
      </trkpt>
      <trkpt lat="48.72828" lon="-3.39487">
        <ele>79</ele>
        <time>2015-01-18T10:25:24Z</time>
      </trkpt>
      <trkpt lat="48.72829" lon="-3.39473">
        <ele>79</ele>
        <time>2015-01-18T10:25:25Z</time>
      </trkpt>
      <trkpt lat="48.7283" lon="-3.3946">
        <ele>79</ele>
        <time>2015-01-18T10:25:26Z</time>
      </trkpt>
      <trkpt lat="48.72831" lon="-3.39446">
        <ele>79</ele>
        <time>2015-01-18T10:25:27Z</time>
      </trkpt>
      <trkpt lat="48.72832" lon="-3.39433">
        <ele>79</ele>
        <time>2015-01-18T10:25:28Z</time>
      </trkpt>
      <trkpt lat="48.72834" lon="-3.39419">
        <ele>79</ele>
        <time>2015-01-18T10:25:29Z</time>
      </trkpt>
      <trkpt lat="48.72835" lon="-3.39405">
        <ele>79</ele>
        <time>2015-01-18T10:25:30Z</time>
      </trkpt>
      <trkpt lat="48.72836" lon="-3.39391">
        <ele>79</ele>
        <time>2015-01-18T10:25:31Z</time>
      </trkpt>
      <trkpt lat="48.72836" lon="-3.39378">
        <ele>79</ele>
        <time>2015-01-18T10:25:32Z</time>
      </trkpt>
      <trkpt lat="48.72837" lon="-3.39364">
        <ele>79</ele>
        <time>2015-01-18T10:25:33Z</time>
      </trkpt>
      <trkpt lat="48.72836" lon="-3.39336">
        <ele>79</ele>
        <time>2015-01-18T10:25:35Z</time>
      </trkpt>
      <trkpt lat="48.72836" lon="-3.39323">
        <ele>79</ele>
        <time>2015-01-18T10:25:36Z</time>
      </trkpt>
      <trkpt lat="48.72836" lon="-3.39309">
        <ele>79</ele>
        <time>2015-01-18T10:25:37Z</time>
      </trkpt>
      <trkpt lat="48.72835" lon="-3.39295">
        <ele>79</ele>
        <time>2015-01-18T10:25:38Z</time>
      </trkpt>
      <trkpt lat="48.72835" lon="-3.39281">
        <ele>79</ele>
        <time>2015-01-18T10:25:39Z</time>
      </trkpt>
      <trkpt lat="48.72834" lon="-3.39268">
        <ele>79</ele>
        <time>2015-01-18T10:25:40Z</time>
      </trkpt>
      <trkpt lat="48.72835" lon="-3.39241">
        <ele>79</ele>
        <time>2015-01-18T10:25:42Z</time>
      </trkpt>
      <trkpt lat="48.72835" lon="-3.39228">
        <ele>79</ele>
        <time>2015-01-18T10:25:43Z</time>
      </trkpt>
      <trkpt lat="48.72836" lon="-3.39214">
        <ele>79</ele>
        <time>2015-01-18T10:25:44Z</time>
      </trkpt>
      <trkpt lat="48.72836" lon="-3.39201">
        <ele>79</ele>
        <time>2015-01-18T10:25:45Z</time>
      </trkpt>
      <trkpt lat="48.72837" lon="-3.39188">
        <ele>79</ele>
        <time>2015-01-18T10:25:46Z</time>
      </trkpt>
      <trkpt lat="48.72838" lon="-3.39174">
        <ele>79</ele>
        <time>2015-01-18T10:25:47Z</time>
      </trkpt>
      <trkpt lat="48.72839" lon="-3.39161">
        <ele>79</ele>
        <time>2015-01-18T10:25:48Z</time>
      </trkpt>
      <trkpt lat="48.7284" lon="-3.39148">
        <ele>79</ele>
        <time>2015-01-18T10:25:49Z</time>
      </trkpt>
      <trkpt lat="48.72842" lon="-3.39134">
        <ele>79</ele>
        <time>2015-01-18T10:25:50Z</time>
      </trkpt>
      <trkpt lat="48.72843" lon="-3.39121">
        <ele>79</ele>
        <time>2015-01-18T10:25:51Z</time>
      </trkpt>
      <trkpt lat="48.72845" lon="-3.39107">
        <ele>79</ele>
        <time>2015-01-18T10:25:52Z</time>
      </trkpt>
      <trkpt lat="48.72847" lon="-3.39094">
        <ele>79</ele>
        <time>2015-01-18T10:25:53Z</time>
      </trkpt>
      <trkpt lat="48.72849" lon="-3.3908">
        <ele>79</ele>
        <time>2015-01-18T10:25:54Z</time>
      </trkpt>
      <trkpt lat="48.7285" lon="-3.39066">
        <ele>79</ele>
        <time>2015-01-18T10:25:55Z</time>
      </trkpt>
      <trkpt lat="48.72852" lon="-3.39052">
        <ele>79</ele>
        <time>2015-01-18T10:25:56Z</time>
      </trkpt>
      <trkpt lat="48.72853" lon="-3.39037">
        <ele>79</ele>
        <time>2015-01-18T10:25:57Z</time>
      </trkpt>
      <trkpt lat="48.72855" lon="-3.39023">
        <ele>79</ele>
        <time>2015-01-18T10:25:58Z</time>
      </trkpt>
      <trkpt lat="48.72857" lon="-3.39008">
        <ele>79</ele>
        <time>2015-01-18T10:25:59Z</time>
      </trkpt>
      <trkpt lat="48.72859" lon="-3.38994">
        <ele>79</ele>
        <time>2015-01-18T10:26:00Z</time>
      </trkpt>
      <trkpt lat="48.7286" lon="-3.3898">
        <ele>79</ele>
        <time>2015-01-18T10:26:01Z</time>
      </trkpt>
      <trkpt lat="48.72862" lon="-3.38966">
        <ele>79</ele>
        <time>2015-01-18T10:26:02Z</time>
      </trkpt>
      <trkpt lat="48.72863" lon="-3.38952">
        <ele>79</ele>
        <time>2015-01-18T10:26:03Z</time>
      </trkpt>
      <trkpt lat="48.72865" lon="-3.38938">
        <ele>79</ele>
        <time>2015-01-18T10:26:04Z</time>
      </trkpt>
      <trkpt lat="48.72867" lon="-3.38925">
        <ele>79</ele>
        <time>2015-01-18T10:26:05Z</time>
      </trkpt>
      <trkpt lat="48.72868" lon="-3.38912">
        <ele>79</ele>
        <time>2015-01-18T10:26:06Z</time>
      </trkpt>
      <trkpt lat="48.7287" lon="-3.38898">
        <ele>79</ele>
        <time>2015-01-18T10:26:07Z</time>
      </trkpt>
      <trkpt lat="48.72871" lon="-3.38886">
        <ele>79</ele>
        <time>2015-01-18T10:26:08Z</time>
      </trkpt>
      <trkpt lat="48.72873" lon="-3.38873">
        <ele>79</ele>
        <time>2015-01-18T10:26:09Z</time>
      </trkpt>
      <trkpt lat="48.72875" lon="-3.38861">
        <ele>79</ele>
        <time>2015-01-18T10:26:10Z</time>
      </trkpt>
      <trkpt lat="48.72877" lon="-3.38849">
        <ele>78</ele>
        <time>2015-01-18T10:26:11Z</time>
      </trkpt>
      <trkpt lat="48.72879" lon="-3.38837">
        <ele>78</ele>
        <time>2015-01-18T10:26:12Z</time>
      </trkpt>
      <trkpt lat="48.72881" lon="-3.38825">
        <ele>78</ele>
        <time>2015-01-18T10:26:13Z</time>
      </trkpt>
      <trkpt lat="48.72884" lon="-3.38814">
        <ele>78</ele>
        <time>2015-01-18T10:26:14Z</time>
      </trkpt>
      <trkpt lat="48.72888" lon="-3.38803">
        <ele>78</ele>
        <time>2015-01-18T10:26:15Z</time>
      </trkpt>
      <trkpt lat="48.72892" lon="-3.38793">
        <ele>77</ele>
        <time>2015-01-18T10:26:16Z</time>
      </trkpt>
      <trkpt lat="48.72895" lon="-3.38783">
        <ele>77</ele>
        <time>2015-01-18T10:26:17Z</time>
      </trkpt>
      <trkpt lat="48.72899" lon="-3.38773">
        <ele>77</ele>
        <time>2015-01-18T10:26:18Z</time>
      </trkpt>
      <trkpt lat="48.72902" lon="-3.38764">
        <ele>77</ele>
        <time>2015-01-18T10:26:19Z</time>
      </trkpt>
      <trkpt lat="48.72905" lon="-3.38755">
        <ele>77</ele>
        <time>2015-01-18T10:26:20Z</time>
      </trkpt>
      <trkpt lat="48.72909" lon="-3.38746">
        <ele>77</ele>
        <time>2015-01-18T10:26:21Z</time>
      </trkpt>
      <trkpt lat="48.72912" lon="-3.38738">
        <ele>77</ele>
        <time>2015-01-18T10:26:22Z</time>
      </trkpt>
      <trkpt lat="48.72915" lon="-3.38729">
        <ele>77</ele>
        <time>2015-01-18T10:26:23Z</time>
      </trkpt>
      <trkpt lat="48.72918" lon="-3.38719">
        <ele>77</ele>
        <time>2015-01-18T10:26:24Z</time>
      </trkpt>
      <trkpt lat="48.7292" lon="-3.3871">
        <ele>77</ele>
        <time>2015-01-18T10:26:25Z</time>
      </trkpt>
      <trkpt lat="48.72921" lon="-3.387">
        <ele>77</ele>
        <time>2015-01-18T10:26:26Z</time>
      </trkpt>
      <trkpt lat="48.72922" lon="-3.3869">
        <ele>77</ele>
        <time>2015-01-18T10:26:27Z</time>
      </trkpt>
      <trkpt lat="48.72921" lon="-3.38662">
        <ele>77</ele>
        <time>2015-01-18T10:26:30Z</time>
      </trkpt>
      <trkpt lat="48.72921" lon="-3.38653">
        <ele>77</ele>
        <time>2015-01-18T10:26:31Z</time>
      </trkpt>
      <trkpt lat="48.7292" lon="-3.38645">
        <ele>77</ele>
        <time>2015-01-18T10:26:32Z</time>
      </trkpt>
      <trkpt lat="48.72919" lon="-3.38637">
        <ele>77</ele>
        <time>2015-01-18T10:26:33Z</time>
      </trkpt>
      <trkpt lat="48.72919" lon="-3.3863">
        <ele>77</ele>
        <time>2015-01-18T10:26:34Z</time>
      </trkpt>
      <trkpt lat="48.72918" lon="-3.38623">
        <ele>77</ele>
        <time>2015-01-18T10:26:35Z</time>
      </trkpt>
      <trkpt lat="48.72919" lon="-3.38611">
        <ele>77</ele>
        <time>2015-01-18T10:26:37Z</time>
      </trkpt>
      <trkpt lat="48.72919" lon="-3.38606">
        <ele>77</ele>
        <time>2015-01-18T10:26:38Z</time>
      </trkpt>
      <trkpt lat="48.72919" lon="-3.386">
        <ele>77</ele>
        <time>2015-01-18T10:26:39Z</time>
      </trkpt>
      <trkpt lat="48.72919" lon="-3.3859">
        <ele>77</ele>
        <time>2015-01-18T10:26:41Z</time>
      </trkpt>
      <trkpt lat="48.72918" lon="-3.38584">
        <ele>77</ele>
        <time>2015-01-18T10:26:42Z</time>
      </trkpt>
      <trkpt lat="48.72916" lon="-3.38579">
        <ele>77</ele>
        <time>2015-01-18T10:26:43Z</time>
      </trkpt>
      <trkpt lat="48.72914" lon="-3.38575">
        <ele>77</ele>
        <time>2015-01-18T10:26:44Z</time>
      </trkpt>
      <trkpt lat="48.72911" lon="-3.3857">
        <ele>77</ele>
        <time>2015-01-18T10:26:45Z</time>
      </trkpt>
      <trkpt lat="48.7291" lon="-3.38566">
        <ele>77</ele>
        <time>2015-01-18T10:26:46Z</time>
      </trkpt>
      <trkpt lat="48.72908" lon="-3.38562">
        <ele>77</ele>
        <time>2015-01-18T10:26:47Z</time>
      </trkpt>
      <trkpt lat="48.72906" lon="-3.38558">
        <ele>77</ele>
        <time>2015-01-18T10:26:48Z</time>
      </trkpt>
      <trkpt lat="48.72906" lon="-3.38553">
        <ele>77</ele>
        <time>2015-01-18T10:26:49Z</time>
      </trkpt>
      <trkpt lat="48.72905" lon="-3.38548">
        <ele>77</ele>
        <time>2015-01-18T10:26:50Z</time>
      </trkpt>
      <trkpt lat="48.72906" lon="-3.38543">
        <ele>77</ele>
        <time>2015-01-18T10:26:51Z</time>
      </trkpt>
      <trkpt lat="48.72907" lon="-3.38538">
        <ele>77</ele>
        <time>2015-01-18T10:26:52Z</time>
      </trkpt>
      <trkpt lat="48.72909" lon="-3.38533">
        <ele>77</ele>
        <time>2015-01-18T10:26:53Z</time>
      </trkpt>
      <trkpt lat="48.7291" lon="-3.38528">
        <ele>77</ele>
        <time>2015-01-18T10:26:54Z</time>
      </trkpt>
      <trkpt lat="48.72912" lon="-3.38523">
        <ele>77</ele>
        <time>2015-01-18T10:26:55Z</time>
      </trkpt>
      <trkpt lat="48.72914" lon="-3.38518">
        <ele>77</ele>
        <time>2015-01-18T10:26:56Z</time>
      </trkpt>
      <trkpt lat="48.72916" lon="-3.38513">
        <ele>77</ele>
        <time>2015-01-18T10:26:57Z</time>
      </trkpt>
      <trkpt lat="48.72919" lon="-3.38508">
        <ele>77</ele>
        <time>2015-01-18T10:26:58Z</time>
      </trkpt>
      <trkpt lat="48.72921" lon="-3.38503">
        <ele>77</ele>
        <time>2015-01-18T10:26:59Z</time>
      </trkpt>
      <trkpt lat="48.72923" lon="-3.38498">
        <ele>77</ele>
        <time>2015-01-18T10:27:00Z</time>
      </trkpt>
      <trkpt lat="48.72925" lon="-3.38492">
        <ele>77</ele>
        <time>2015-01-18T10:27:01Z</time>
      </trkpt>
      <trkpt lat="48.72927" lon="-3.38486">
        <ele>77</ele>
        <time>2015-01-18T10:27:02Z</time>
      </trkpt>
      <trkpt lat="48.72929" lon="-3.3848">
        <ele>77</ele>
        <time>2015-01-18T10:27:03Z</time>
      </trkpt>
      <trkpt lat="48.7293" lon="-3.38473">
        <ele>77</ele>
        <time>2015-01-18T10:27:04Z</time>
      </trkpt>
      <trkpt lat="48.72932" lon="-3.38467">
        <ele>77</ele>
        <time>2015-01-18T10:27:05Z</time>
      </trkpt>
      <trkpt lat="48.72934" lon="-3.38461">
        <ele>77</ele>
        <time>2015-01-18T10:27:06Z</time>
      </trkpt>
      <trkpt lat="48.72937" lon="-3.38456">
        <ele>77</ele>
        <time>2015-01-18T10:27:07Z</time>
      </trkpt>
      <trkpt lat="48.72941" lon="-3.38451">
        <ele>77</ele>
        <time>2015-01-18T10:27:08Z</time>
      </trkpt>
      <trkpt lat="48.72945" lon="-3.38448">
        <ele>77</ele>
        <time>2015-01-18T10:27:09Z</time>
      </trkpt>
      <trkpt lat="48.7295" lon="-3.38445">
        <ele>77</ele>
        <time>2015-01-18T10:27:10Z</time>
      </trkpt>
      <trkpt lat="48.72955" lon="-3.38443">
        <ele>77</ele>
        <time>2015-01-18T10:27:11Z</time>
      </trkpt>
      <trkpt lat="48.7296" lon="-3.38442">
        <ele>77</ele>
        <time>2015-01-18T10:27:12Z</time>
      </trkpt>
      <trkpt lat="48.72965" lon="-3.3844">
        <ele>77</ele>
        <time>2015-01-18T10:27:13Z</time>
      </trkpt>
      <trkpt lat="48.7297" lon="-3.38437">
        <ele>77</ele>
        <time>2015-01-18T10:27:14Z</time>
      </trkpt>
    </trkseg>
  </trk>
</gpx>